<?xml version="1.0" encoding="UTF-8" standalone="no" ?>
<gpx xmlns="http://www.topografix.com/GPX/1/1" xmlns:xsi="http://www.w3.org/2001/XMLSchema-instance" xsi:schemaLocation="http://www.topografix.com/GPX/1/1 http://www.topografix.com/GPX/1/1/gpx.xsd" version="1.1" creator="VisuGPX - https://www.visugpx.com">
  <metadata>
    <name>Ecot, Saint Maurice</name>
    <desc><![CDATA[Sortie roulante Sous une météo clémente]]></desc>
  </metadata>
  <trk>
    <name><![CDATA[Rue Antoine Coysevox]]></name>
    <desc><![CDATA[]]></desc>
    <trkseg>
      <trkpt lat="47.51728" lon="6.77499">
        <ele>389</ele>
        <time>2015-04-26T07:20:41.000Z</time>
      </trkpt>
      <trkpt lat="47.51726" lon="6.77505">
        <ele>390</ele>
        <time>2015-04-26T07:20:42.000Z</time>
      </trkpt>
      <trkpt lat="47.51725" lon="6.77511">
        <ele>390</ele>
        <time>2015-04-26T07:20:43.000Z</time>
      </trkpt>
      <trkpt lat="47.51725" lon="6.77517">
        <ele>390</ele>
        <time>2015-04-26T07:20:44.000Z</time>
      </trkpt>
      <trkpt lat="47.51723" lon="6.77524">
        <ele>390</ele>
        <time>2015-04-26T07:20:45.000Z</time>
      </trkpt>
      <trkpt lat="47.51724" lon="6.77529">
        <ele>390</ele>
        <time>2015-04-26T07:20:46.000Z</time>
      </trkpt>
      <trkpt lat="47.51722" lon="6.77537">
        <ele>390</ele>
        <time>2015-04-26T07:20:47.000Z</time>
      </trkpt>
      <trkpt lat="47.51721" lon="6.77544">
        <ele>390</ele>
        <time>2015-04-26T07:20:48.000Z</time>
      </trkpt>
      <trkpt lat="47.5172" lon="6.77548">
        <ele>390</ele>
        <time>2015-04-26T07:20:49.000Z</time>
      </trkpt>
      <trkpt lat="47.51715" lon="6.7755">
        <ele>390</ele>
        <time>2015-04-26T07:20:50.000Z</time>
      </trkpt>
      <trkpt lat="47.5171" lon="6.7755">
        <ele>390</ele>
        <time>2015-04-26T07:20:51.000Z</time>
      </trkpt>
      <trkpt lat="47.51706" lon="6.77547">
        <ele>390</ele>
        <time>2015-04-26T07:20:52.000Z</time>
      </trkpt>
      <trkpt lat="47.51701" lon="6.77543">
        <ele>390</ele>
        <time>2015-04-26T07:20:53.000Z</time>
      </trkpt>
      <trkpt lat="47.51697" lon="6.7754">
        <ele>390</ele>
        <time>2015-04-26T07:20:54.000Z</time>
      </trkpt>
      <trkpt lat="47.51693" lon="6.77535">
        <ele>390</ele>
        <time>2015-04-26T07:20:55.000Z</time>
      </trkpt>
      <trkpt lat="47.51689" lon="6.7753">
        <ele>390</ele>
        <time>2015-04-26T07:20:56.000Z</time>
      </trkpt>
      <trkpt lat="47.51684" lon="6.77525">
        <ele>390</ele>
        <time>2015-04-26T07:20:57.000Z</time>
      </trkpt>
      <trkpt lat="47.5168" lon="6.7752">
        <ele>390</ele>
        <time>2015-04-26T07:20:58.000Z</time>
      </trkpt>
      <trkpt lat="47.51675" lon="6.77515">
        <ele>389</ele>
        <time>2015-04-26T07:20:59.000Z</time>
      </trkpt>
      <trkpt lat="47.51671" lon="6.77509">
        <ele>389</ele>
        <time>2015-04-26T07:21:00.000Z</time>
      </trkpt>
      <trkpt lat="47.51666" lon="6.77504">
        <ele>389</ele>
        <time>2015-04-26T07:21:01.000Z</time>
      </trkpt>
      <trkpt lat="47.51662" lon="6.77498">
        <ele>388</ele>
        <time>2015-04-26T07:21:02.000Z</time>
      </trkpt>
      <trkpt lat="47.51657" lon="6.77493">
        <ele>388</ele>
        <time>2015-04-26T07:21:03.000Z</time>
      </trkpt>
      <trkpt lat="47.51653" lon="6.77487">
        <ele>387</ele>
        <time>2015-04-26T07:21:04.000Z</time>
      </trkpt>
      <trkpt lat="47.51648" lon="6.77482">
        <ele>387</ele>
        <time>2015-04-26T07:21:05.000Z</time>
      </trkpt>
      <trkpt lat="47.51644" lon="6.77476">
        <ele>387</ele>
        <time>2015-04-26T07:21:06.000Z</time>
      </trkpt>
      <trkpt lat="47.5164" lon="6.7747">
        <ele>386</ele>
        <time>2015-04-26T07:21:07.000Z</time>
      </trkpt>
      <trkpt lat="47.51636" lon="6.77464">
        <ele>386</ele>
        <time>2015-04-26T07:21:08.000Z</time>
      </trkpt>
      <trkpt lat="47.51631" lon="6.77459">
        <ele>386</ele>
        <time>2015-04-26T07:21:09.000Z</time>
      </trkpt>
      <trkpt lat="47.51626" lon="6.77453">
        <ele>386</ele>
        <time>2015-04-26T07:21:10.000Z</time>
      </trkpt>
      <trkpt lat="47.51621" lon="6.77448">
        <ele>386</ele>
        <time>2015-04-26T07:21:11.000Z</time>
      </trkpt>
      <trkpt lat="47.51616" lon="6.77442">
        <ele>385</ele>
        <time>2015-04-26T07:21:12.000Z</time>
      </trkpt>
      <trkpt lat="47.51612" lon="6.77435">
        <ele>385</ele>
        <time>2015-04-26T07:21:13.000Z</time>
      </trkpt>
      <trkpt lat="47.51606" lon="6.77427">
        <ele>385</ele>
        <time>2015-04-26T07:21:14.000Z</time>
      </trkpt>
      <trkpt lat="47.516" lon="6.77419">
        <ele>384</ele>
        <time>2015-04-26T07:21:15.000Z</time>
      </trkpt>
      <trkpt lat="47.51594" lon="6.77413">
        <ele>383</ele>
        <time>2015-04-26T07:21:16.000Z</time>
      </trkpt>
      <trkpt lat="47.51588" lon="6.77406">
        <ele>383</ele>
        <time>2015-04-26T07:21:17.000Z</time>
      </trkpt>
      <trkpt lat="47.51583" lon="6.77398">
        <ele>382</ele>
        <time>2015-04-26T07:21:18.000Z</time>
      </trkpt>
      <trkpt lat="47.51577" lon="6.7739">
        <ele>381</ele>
        <time>2015-04-26T07:21:19.000Z</time>
      </trkpt>
      <trkpt lat="47.5157" lon="6.77383">
        <ele>381</ele>
        <time>2015-04-26T07:21:20.000Z</time>
      </trkpt>
      <trkpt lat="47.51564" lon="6.77375">
        <ele>381</ele>
        <time>2015-04-26T07:21:21.000Z</time>
      </trkpt>
      <trkpt lat="47.51557" lon="6.77368">
        <ele>381</ele>
        <time>2015-04-26T07:21:22.000Z</time>
      </trkpt>
      <trkpt lat="47.5155" lon="6.77362">
        <ele>381</ele>
        <time>2015-04-26T07:21:23.000Z</time>
      </trkpt>
      <trkpt lat="47.51543" lon="6.77353">
        <ele>380</ele>
        <time>2015-04-26T07:21:24.000Z</time>
      </trkpt>
      <trkpt lat="47.51536" lon="6.77343">
        <ele>380</ele>
        <time>2015-04-26T07:21:25.000Z</time>
      </trkpt>
      <trkpt lat="47.51529" lon="6.77332">
        <ele>379</ele>
        <time>2015-04-26T07:21:26.000Z</time>
      </trkpt>
      <trkpt lat="47.51521" lon="6.77324">
        <ele>378</ele>
        <time>2015-04-26T07:21:27.000Z</time>
      </trkpt>
      <trkpt lat="47.51514" lon="6.77315">
        <ele>378</ele>
        <time>2015-04-26T07:21:28.000Z</time>
      </trkpt>
      <trkpt lat="47.51506" lon="6.77306">
        <ele>378</ele>
        <time>2015-04-26T07:21:29.000Z</time>
      </trkpt>
      <trkpt lat="47.515" lon="6.77296">
        <ele>377</ele>
        <time>2015-04-26T07:21:30.000Z</time>
      </trkpt>
      <trkpt lat="47.51494" lon="6.77284">
        <ele>377</ele>
        <time>2015-04-26T07:21:31.000Z</time>
      </trkpt>
      <trkpt lat="47.5149" lon="6.77271">
        <ele>377</ele>
        <time>2015-04-26T07:21:32.000Z</time>
      </trkpt>
      <trkpt lat="47.51489" lon="6.77258">
        <ele>376</ele>
        <time>2015-04-26T07:21:33.000Z</time>
      </trkpt>
      <trkpt lat="47.51488" lon="6.77246">
        <ele>376</ele>
        <time>2015-04-26T07:21:34.000Z</time>
      </trkpt>
      <trkpt lat="47.51487" lon="6.77235">
        <ele>375</ele>
        <time>2015-04-26T07:21:35.000Z</time>
      </trkpt>
      <trkpt lat="47.51487" lon="6.77224">
        <ele>375</ele>
        <time>2015-04-26T07:21:36.000Z</time>
      </trkpt>
      <trkpt lat="47.51486" lon="6.77213">
        <ele>375</ele>
        <time>2015-04-26T07:21:37.000Z</time>
      </trkpt>
      <trkpt lat="47.51484" lon="6.77204">
        <ele>375</ele>
        <time>2015-04-26T07:21:38.000Z</time>
      </trkpt>
      <trkpt lat="47.51479" lon="6.77197">
        <ele>375</ele>
        <time>2015-04-26T07:21:39.000Z</time>
      </trkpt>
      <trkpt lat="47.51472" lon="6.77194">
        <ele>375</ele>
        <time>2015-04-26T07:21:40.000Z</time>
      </trkpt>
      <trkpt lat="47.51465" lon="6.77193">
        <ele>375</ele>
        <time>2015-04-26T07:21:41.000Z</time>
      </trkpt>
      <trkpt lat="47.51457" lon="6.77195">
        <ele>375</ele>
        <time>2015-04-26T07:21:42.000Z</time>
      </trkpt>
      <trkpt lat="47.51448" lon="6.772">
        <ele>375</ele>
        <time>2015-04-26T07:21:43.000Z</time>
      </trkpt>
      <trkpt lat="47.5144" lon="6.77202">
        <ele>375</ele>
        <time>2015-04-26T07:21:44.000Z</time>
      </trkpt>
      <trkpt lat="47.51433" lon="6.77207">
        <ele>375</ele>
        <time>2015-04-26T07:21:45.000Z</time>
      </trkpt>
      <trkpt lat="47.51425" lon="6.77211">
        <ele>375</ele>
        <time>2015-04-26T07:21:46.000Z</time>
      </trkpt>
      <trkpt lat="47.51418" lon="6.77214">
        <ele>375</ele>
        <time>2015-04-26T07:21:47.000Z</time>
      </trkpt>
      <trkpt lat="47.51411" lon="6.77216">
        <ele>375</ele>
        <time>2015-04-26T07:21:48.000Z</time>
      </trkpt>
      <trkpt lat="47.51405" lon="6.7722">
        <ele>376</ele>
        <time>2015-04-26T07:21:49.000Z</time>
      </trkpt>
      <trkpt lat="47.51399" lon="6.77223">
        <ele>376</ele>
        <time>2015-04-26T07:21:50.000Z</time>
      </trkpt>
      <trkpt lat="47.51393" lon="6.77226">
        <ele>376</ele>
        <time>2015-04-26T07:21:51.000Z</time>
      </trkpt>
      <trkpt lat="47.51387" lon="6.77228">
        <ele>376</ele>
        <time>2015-04-26T07:21:52.000Z</time>
      </trkpt>
      <trkpt lat="47.51382" lon="6.77233">
        <ele>376</ele>
        <time>2015-04-26T07:21:53.000Z</time>
      </trkpt>
      <trkpt lat="47.51377" lon="6.77236">
        <ele>376</ele>
        <time>2015-04-26T07:21:54.000Z</time>
      </trkpt>
      <trkpt lat="47.51372" lon="6.77239">
        <ele>376</ele>
        <time>2015-04-26T07:21:55.000Z</time>
      </trkpt>
      <trkpt lat="47.51368" lon="6.77242">
        <ele>376</ele>
        <time>2015-04-26T07:21:56.000Z</time>
      </trkpt>
      <trkpt lat="47.51364" lon="6.77245">
        <ele>376</ele>
        <time>2015-04-26T07:21:57.000Z</time>
      </trkpt>
      <trkpt lat="47.51361" lon="6.77248">
        <ele>376</ele>
        <time>2015-04-26T07:21:58.000Z</time>
      </trkpt>
      <trkpt lat="47.51357" lon="6.77251">
        <ele>378</ele>
        <time>2015-04-26T07:21:59.000Z</time>
      </trkpt>
      <trkpt lat="47.51353" lon="6.77253">
        <ele>378</ele>
        <time>2015-04-26T07:22:00.000Z</time>
      </trkpt>
      <trkpt lat="47.5135" lon="6.77255">
        <ele>378</ele>
        <time>2015-04-26T07:22:01.000Z</time>
      </trkpt>
      <trkpt lat="47.51347" lon="6.77258">
        <ele>378</ele>
        <time>2015-04-26T07:22:02.000Z</time>
      </trkpt>
      <trkpt lat="47.51344" lon="6.77262">
        <ele>378</ele>
        <time>2015-04-26T07:22:03.000Z</time>
      </trkpt>
      <trkpt lat="47.51341" lon="6.77264">
        <ele>378</ele>
        <time>2015-04-26T07:22:04.000Z</time>
      </trkpt>
      <trkpt lat="47.51338" lon="6.77266">
        <ele>378</ele>
        <time>2015-04-26T07:22:05.000Z</time>
      </trkpt>
      <trkpt lat="47.51335" lon="6.77267">
        <ele>378</ele>
        <time>2015-04-26T07:22:06.000Z</time>
      </trkpt>
      <trkpt lat="47.51332" lon="6.77269">
        <ele>377</ele>
        <time>2015-04-26T07:22:07.000Z</time>
      </trkpt>
      <trkpt lat="47.51329" lon="6.77269">
        <ele>377</ele>
        <time>2015-04-26T07:22:08.000Z</time>
      </trkpt>
      <trkpt lat="47.51325" lon="6.7727">
        <ele>377</ele>
        <time>2015-04-26T07:22:09.000Z</time>
      </trkpt>
      <trkpt lat="47.51322" lon="6.7727">
        <ele>377</ele>
        <time>2015-04-26T07:22:10.000Z</time>
      </trkpt>
      <trkpt lat="47.51318" lon="6.7727">
        <ele>377</ele>
        <time>2015-04-26T07:22:11.000Z</time>
      </trkpt>
      <trkpt lat="47.51314" lon="6.77269">
        <ele>377</ele>
        <time>2015-04-26T07:22:12.000Z</time>
      </trkpt>
      <trkpt lat="47.51311" lon="6.77268">
        <ele>377</ele>
        <time>2015-04-26T07:22:13.000Z</time>
      </trkpt>
      <trkpt lat="47.51307" lon="6.77267">
        <ele>377</ele>
        <time>2015-04-26T07:22:14.000Z</time>
      </trkpt>
      <trkpt lat="47.51303" lon="6.77265">
        <ele>377</ele>
        <time>2015-04-26T07:22:15.000Z</time>
      </trkpt>
      <trkpt lat="47.513" lon="6.77264">
        <ele>377</ele>
        <time>2015-04-26T07:22:16.000Z</time>
      </trkpt>
      <trkpt lat="47.51296" lon="6.77262">
        <ele>377</ele>
        <time>2015-04-26T07:22:17.000Z</time>
      </trkpt>
      <trkpt lat="47.51292" lon="6.7726">
        <ele>377</ele>
        <time>2015-04-26T07:22:18.000Z</time>
      </trkpt>
      <trkpt lat="47.51288" lon="6.77258">
        <ele>377</ele>
        <time>2015-04-26T07:22:19.000Z</time>
      </trkpt>
      <trkpt lat="47.51284" lon="6.77256">
        <ele>377</ele>
        <time>2015-04-26T07:22:20.000Z</time>
      </trkpt>
      <trkpt lat="47.51281" lon="6.77253">
        <ele>377</ele>
        <time>2015-04-26T07:22:21.000Z</time>
      </trkpt>
      <trkpt lat="47.51277" lon="6.77251">
        <ele>377</ele>
        <time>2015-04-26T07:22:22.000Z</time>
      </trkpt>
      <trkpt lat="47.51273" lon="6.77247">
        <ele>378</ele>
        <time>2015-04-26T07:22:23.000Z</time>
      </trkpt>
      <trkpt lat="47.51269" lon="6.77245">
        <ele>378</ele>
        <time>2015-04-26T07:22:24.000Z</time>
      </trkpt>
      <trkpt lat="47.51265" lon="6.77242">
        <ele>378</ele>
        <time>2015-04-26T07:22:25.000Z</time>
      </trkpt>
      <trkpt lat="47.51262" lon="6.77239">
        <ele>378</ele>
        <time>2015-04-26T07:22:26.000Z</time>
      </trkpt>
      <trkpt lat="47.51259" lon="6.77231">
        <ele>378</ele>
        <time>2015-04-26T07:22:27.000Z</time>
      </trkpt>
      <trkpt lat="47.51256" lon="6.77225">
        <ele>378</ele>
        <time>2015-04-26T07:22:28.000Z</time>
      </trkpt>
      <trkpt lat="47.51253" lon="6.77223">
        <ele>378</ele>
        <time>2015-04-26T07:22:29.000Z</time>
      </trkpt>
      <trkpt lat="47.51251" lon="6.77218">
        <ele>378</ele>
        <time>2015-04-26T07:22:30.000Z</time>
      </trkpt>
      <trkpt lat="47.51247" lon="6.77212">
        <ele>376</ele>
        <time>2015-04-26T07:22:31.000Z</time>
      </trkpt>
      <trkpt lat="47.51244" lon="6.77207">
        <ele>376</ele>
        <time>2015-04-26T07:22:32.000Z</time>
      </trkpt>
      <trkpt lat="47.51241" lon="6.77201">
        <ele>376</ele>
        <time>2015-04-26T07:22:33.000Z</time>
      </trkpt>
      <trkpt lat="47.51237" lon="6.77194">
        <ele>376</ele>
        <time>2015-04-26T07:22:34.000Z</time>
      </trkpt>
      <trkpt lat="47.51234" lon="6.77188">
        <ele>377</ele>
        <time>2015-04-26T07:22:35.000Z</time>
      </trkpt>
      <trkpt lat="47.5123" lon="6.7718">
        <ele>377</ele>
        <time>2015-04-26T07:22:36.000Z</time>
      </trkpt>
      <trkpt lat="47.51226" lon="6.77173">
        <ele>377</ele>
        <time>2015-04-26T07:22:37.000Z</time>
      </trkpt>
      <trkpt lat="47.51223" lon="6.77166">
        <ele>378</ele>
        <time>2015-04-26T07:22:38.000Z</time>
      </trkpt>
      <trkpt lat="47.51219" lon="6.77158">
        <ele>378</ele>
        <time>2015-04-26T07:22:39.000Z</time>
      </trkpt>
      <trkpt lat="47.51215" lon="6.77152">
        <ele>378</ele>
        <time>2015-04-26T07:22:40.000Z</time>
      </trkpt>
      <trkpt lat="47.51211" lon="6.77144">
        <ele>378</ele>
        <time>2015-04-26T07:22:41.000Z</time>
      </trkpt>
      <trkpt lat="47.51207" lon="6.77136">
        <ele>378</ele>
        <time>2015-04-26T07:22:42.000Z</time>
      </trkpt>
      <trkpt lat="47.51203" lon="6.77128">
        <ele>378</ele>
        <time>2015-04-26T07:22:43.000Z</time>
      </trkpt>
      <trkpt lat="47.51198" lon="6.77121">
        <ele>378</ele>
        <time>2015-04-26T07:22:44.000Z</time>
      </trkpt>
      <trkpt lat="47.51193" lon="6.77111">
        <ele>378</ele>
        <time>2015-04-26T07:22:45.000Z</time>
      </trkpt>
      <trkpt lat="47.51189" lon="6.77103">
        <ele>378</ele>
        <time>2015-04-26T07:22:46.000Z</time>
      </trkpt>
      <trkpt lat="47.51184" lon="6.77092">
        <ele>378</ele>
        <time>2015-04-26T07:22:47.000Z</time>
      </trkpt>
      <trkpt lat="47.51179" lon="6.77084">
        <ele>378</ele>
        <time>2015-04-26T07:22:48.000Z</time>
      </trkpt>
      <trkpt lat="47.51174" lon="6.77076">
        <ele>377</ele>
        <time>2015-04-26T07:22:49.000Z</time>
      </trkpt>
      <trkpt lat="47.51168" lon="6.77068">
        <ele>377</ele>
        <time>2015-04-26T07:22:50.000Z</time>
      </trkpt>
      <trkpt lat="47.51162" lon="6.77061">
        <ele>376</ele>
        <time>2015-04-26T07:22:51.000Z</time>
      </trkpt>
      <trkpt lat="47.51156" lon="6.77053">
        <ele>376</ele>
        <time>2015-04-26T07:22:52.000Z</time>
      </trkpt>
      <trkpt lat="47.51149" lon="6.77048">
        <ele>376</ele>
        <time>2015-04-26T07:22:53.000Z</time>
      </trkpt>
      <trkpt lat="47.51143" lon="6.77042">
        <ele>376</ele>
        <time>2015-04-26T07:22:54.000Z</time>
      </trkpt>
      <trkpt lat="47.51136" lon="6.77037">
        <ele>375</ele>
        <time>2015-04-26T07:22:55.000Z</time>
      </trkpt>
      <trkpt lat="47.51129" lon="6.77031">
        <ele>375</ele>
        <time>2015-04-26T07:22:56.000Z</time>
      </trkpt>
      <trkpt lat="47.51123" lon="6.77026">
        <ele>375</ele>
        <time>2015-04-26T07:22:57.000Z</time>
      </trkpt>
      <trkpt lat="47.51116" lon="6.77022">
        <ele>375</ele>
        <time>2015-04-26T07:22:58.000Z</time>
      </trkpt>
      <trkpt lat="47.5111" lon="6.77016">
        <ele>375</ele>
        <time>2015-04-26T07:22:59.000Z</time>
      </trkpt>
      <trkpt lat="47.51103" lon="6.77011">
        <ele>375</ele>
        <time>2015-04-26T07:23:00.000Z</time>
      </trkpt>
      <trkpt lat="47.51097" lon="6.77005">
        <ele>375</ele>
        <time>2015-04-26T07:23:01.000Z</time>
      </trkpt>
      <trkpt lat="47.5109" lon="6.76998">
        <ele>375</ele>
        <time>2015-04-26T07:23:02.000Z</time>
      </trkpt>
      <trkpt lat="47.51084" lon="6.76992">
        <ele>375</ele>
        <time>2015-04-26T07:23:03.000Z</time>
      </trkpt>
      <trkpt lat="47.51078" lon="6.76985">
        <ele>375</ele>
        <time>2015-04-26T07:23:04.000Z</time>
      </trkpt>
      <trkpt lat="47.51072" lon="6.7698">
        <ele>375</ele>
        <time>2015-04-26T07:23:05.000Z</time>
      </trkpt>
      <trkpt lat="47.51065" lon="6.76975">
        <ele>375</ele>
        <time>2015-04-26T07:23:06.000Z</time>
      </trkpt>
      <trkpt lat="47.5106" lon="6.76969">
        <ele>375</ele>
        <time>2015-04-26T07:23:07.000Z</time>
      </trkpt>
      <trkpt lat="47.51055" lon="6.76964">
        <ele>375</ele>
        <time>2015-04-26T07:23:08.000Z</time>
      </trkpt>
      <trkpt lat="47.51049" lon="6.7696">
        <ele>375</ele>
        <time>2015-04-26T07:23:09.000Z</time>
      </trkpt>
      <trkpt lat="47.51044" lon="6.76955">
        <ele>375</ele>
        <time>2015-04-26T07:23:10.000Z</time>
      </trkpt>
      <trkpt lat="47.51038" lon="6.7695">
        <ele>375</ele>
        <time>2015-04-26T07:23:11.000Z</time>
      </trkpt>
      <trkpt lat="47.51033" lon="6.76946">
        <ele>375</ele>
        <time>2015-04-26T07:23:12.000Z</time>
      </trkpt>
      <trkpt lat="47.51027" lon="6.76941">
        <ele>375</ele>
        <time>2015-04-26T07:23:13.000Z</time>
      </trkpt>
      <trkpt lat="47.51022" lon="6.76937">
        <ele>375</ele>
        <time>2015-04-26T07:23:14.000Z</time>
      </trkpt>
      <trkpt lat="47.51017" lon="6.76933">
        <ele>375</ele>
        <time>2015-04-26T07:23:15.000Z</time>
      </trkpt>
      <trkpt lat="47.51014" lon="6.76928">
        <ele>375</ele>
        <time>2015-04-26T07:23:16.000Z</time>
      </trkpt>
      <trkpt lat="47.5101" lon="6.76924">
        <ele>375</ele>
        <time>2015-04-26T07:23:17.000Z</time>
      </trkpt>
      <trkpt lat="47.51006" lon="6.76921">
        <ele>376</ele>
        <time>2015-04-26T07:23:18.000Z</time>
      </trkpt>
      <trkpt lat="47.51001" lon="6.76918">
        <ele>376</ele>
        <time>2015-04-26T07:23:19.000Z</time>
      </trkpt>
      <trkpt lat="47.50999" lon="6.76913">
        <ele>376</ele>
        <time>2015-04-26T07:23:20.000Z</time>
      </trkpt>
      <trkpt lat="47.50996" lon="6.76908">
        <ele>376</ele>
        <time>2015-04-26T07:23:21.000Z</time>
      </trkpt>
      <trkpt lat="47.50994" lon="6.76902">
        <ele>377</ele>
        <time>2015-04-26T07:23:22.000Z</time>
      </trkpt>
      <trkpt lat="47.5099" lon="6.76897">
        <ele>377</ele>
        <time>2015-04-26T07:23:23.000Z</time>
      </trkpt>
      <trkpt lat="47.50985" lon="6.76895">
        <ele>377</ele>
        <time>2015-04-26T07:23:24.000Z</time>
      </trkpt>
      <trkpt lat="47.5098" lon="6.76894">
        <ele>377</ele>
        <time>2015-04-26T07:23:25.000Z</time>
      </trkpt>
      <trkpt lat="47.50975" lon="6.76895">
        <ele>377</ele>
        <time>2015-04-26T07:23:26.000Z</time>
      </trkpt>
      <trkpt lat="47.5097" lon="6.76893">
        <ele>377</ele>
        <time>2015-04-26T07:23:27.000Z</time>
      </trkpt>
      <trkpt lat="47.50965" lon="6.76892">
        <ele>377</ele>
        <time>2015-04-26T07:23:28.000Z</time>
      </trkpt>
      <trkpt lat="47.50961" lon="6.7689">
        <ele>377</ele>
        <time>2015-04-26T07:23:29.000Z</time>
      </trkpt>
      <trkpt lat="47.50957" lon="6.76887">
        <ele>377</ele>
        <time>2015-04-26T07:23:30.000Z</time>
      </trkpt>
      <trkpt lat="47.50953" lon="6.76884">
        <ele>378</ele>
        <time>2015-04-26T07:23:31.000Z</time>
      </trkpt>
      <trkpt lat="47.50948" lon="6.7688">
        <ele>378</ele>
        <time>2015-04-26T07:23:32.000Z</time>
      </trkpt>
      <trkpt lat="47.50945" lon="6.76877">
        <ele>378</ele>
        <time>2015-04-26T07:23:33.000Z</time>
      </trkpt>
      <trkpt lat="47.50941" lon="6.76874">
        <ele>378</ele>
        <time>2015-04-26T07:23:34.000Z</time>
      </trkpt>
      <trkpt lat="47.50937" lon="6.76871">
        <ele>378</ele>
        <time>2015-04-26T07:23:35.000Z</time>
      </trkpt>
      <trkpt lat="47.50933" lon="6.76866">
        <ele>378</ele>
        <time>2015-04-26T07:23:36.000Z</time>
      </trkpt>
      <trkpt lat="47.5093" lon="6.76862">
        <ele>378</ele>
        <time>2015-04-26T07:23:37.000Z</time>
      </trkpt>
      <trkpt lat="47.50927" lon="6.76857">
        <ele>378</ele>
        <time>2015-04-26T07:23:38.000Z</time>
      </trkpt>
      <trkpt lat="47.50924" lon="6.76852">
        <ele>379</ele>
        <time>2015-04-26T07:23:39.000Z</time>
      </trkpt>
      <trkpt lat="47.50922" lon="6.76849">
        <ele>379</ele>
        <time>2015-04-26T07:23:40.000Z</time>
      </trkpt>
      <trkpt lat="47.50919" lon="6.76844">
        <ele>379</ele>
        <time>2015-04-26T07:23:41.000Z</time>
      </trkpt>
      <trkpt lat="47.50916" lon="6.76839">
        <ele>380</ele>
        <time>2015-04-26T07:23:42.000Z</time>
      </trkpt>
      <trkpt lat="47.50914" lon="6.76833">
        <ele>380</ele>
        <time>2015-04-26T07:23:43.000Z</time>
      </trkpt>
      <trkpt lat="47.50912" lon="6.76827">
        <ele>380</ele>
        <time>2015-04-26T07:23:44.000Z</time>
      </trkpt>
      <trkpt lat="47.5091" lon="6.76822">
        <ele>381</ele>
        <time>2015-04-26T07:23:45.000Z</time>
      </trkpt>
      <trkpt lat="47.50908" lon="6.76815">
        <ele>381</ele>
        <time>2015-04-26T07:23:46.000Z</time>
      </trkpt>
      <trkpt lat="47.50906" lon="6.76809">
        <ele>381</ele>
        <time>2015-04-26T07:23:47.000Z</time>
      </trkpt>
      <trkpt lat="47.50903" lon="6.76803">
        <ele>381</ele>
        <time>2015-04-26T07:23:48.000Z</time>
      </trkpt>
      <trkpt lat="47.509" lon="6.76798">
        <ele>381</ele>
        <time>2015-04-26T07:23:49.000Z</time>
      </trkpt>
      <trkpt lat="47.50898" lon="6.76792">
        <ele>381</ele>
        <time>2015-04-26T07:23:50.000Z</time>
      </trkpt>
      <trkpt lat="47.50895" lon="6.76787">
        <ele>381</ele>
        <time>2015-04-26T07:23:51.000Z</time>
      </trkpt>
      <trkpt lat="47.50893" lon="6.76782">
        <ele>381</ele>
        <time>2015-04-26T07:23:52.000Z</time>
      </trkpt>
      <trkpt lat="47.50891" lon="6.76777">
        <ele>381</ele>
        <time>2015-04-26T07:23:53.000Z</time>
      </trkpt>
      <trkpt lat="47.50889" lon="6.76772">
        <ele>381</ele>
        <time>2015-04-26T07:23:54.000Z</time>
      </trkpt>
      <trkpt lat="47.50887" lon="6.76766">
        <ele>381</ele>
        <time>2015-04-26T07:23:55.000Z</time>
      </trkpt>
      <trkpt lat="47.50885" lon="6.76761">
        <ele>381</ele>
        <time>2015-04-26T07:23:56.000Z</time>
      </trkpt>
      <trkpt lat="47.50883" lon="6.76756">
        <ele>381</ele>
        <time>2015-04-26T07:23:57.000Z</time>
      </trkpt>
      <trkpt lat="47.50882" lon="6.7675">
        <ele>381</ele>
        <time>2015-04-26T07:23:58.000Z</time>
      </trkpt>
      <trkpt lat="47.5088" lon="6.76745">
        <ele>382</ele>
        <time>2015-04-26T07:23:59.000Z</time>
      </trkpt>
      <trkpt lat="47.50879" lon="6.76739">
        <ele>383</ele>
        <time>2015-04-26T07:24:00.000Z</time>
      </trkpt>
      <trkpt lat="47.50877" lon="6.76734">
        <ele>383</ele>
        <time>2015-04-26T07:24:01.000Z</time>
      </trkpt>
      <trkpt lat="47.50876" lon="6.76728">
        <ele>383</ele>
        <time>2015-04-26T07:24:02.000Z</time>
      </trkpt>
      <trkpt lat="47.50874" lon="6.76724">
        <ele>383</ele>
        <time>2015-04-26T07:24:03.000Z</time>
      </trkpt>
      <trkpt lat="47.50873" lon="6.76719">
        <ele>383</ele>
        <time>2015-04-26T07:24:04.000Z</time>
      </trkpt>
      <trkpt lat="47.50872" lon="6.76714">
        <ele>383</ele>
        <time>2015-04-26T07:24:05.000Z</time>
      </trkpt>
      <trkpt lat="47.5087" lon="6.76709">
        <ele>383</ele>
        <time>2015-04-26T07:24:06.000Z</time>
      </trkpt>
      <trkpt lat="47.50869" lon="6.76704">
        <ele>384</ele>
        <time>2015-04-26T07:24:07.000Z</time>
      </trkpt>
      <trkpt lat="47.50867" lon="6.76699">
        <ele>384</ele>
        <time>2015-04-26T07:24:08.000Z</time>
      </trkpt>
      <trkpt lat="47.50865" lon="6.76694">
        <ele>384</ele>
        <time>2015-04-26T07:24:09.000Z</time>
      </trkpt>
      <trkpt lat="47.50863" lon="6.7669">
        <ele>384</ele>
        <time>2015-04-26T07:24:10.000Z</time>
      </trkpt>
      <trkpt lat="47.50861" lon="6.76685">
        <ele>385</ele>
        <time>2015-04-26T07:24:11.000Z</time>
      </trkpt>
      <trkpt lat="47.50859" lon="6.7668">
        <ele>385</ele>
        <time>2015-04-26T07:24:12.000Z</time>
      </trkpt>
      <trkpt lat="47.50857" lon="6.76676">
        <ele>385</ele>
        <time>2015-04-26T07:24:13.000Z</time>
      </trkpt>
      <trkpt lat="47.50855" lon="6.76671">
        <ele>386</ele>
        <time>2015-04-26T07:24:14.000Z</time>
      </trkpt>
      <trkpt lat="47.50853" lon="6.76666">
        <ele>387</ele>
        <time>2015-04-26T07:24:15.000Z</time>
      </trkpt>
      <trkpt lat="47.50851" lon="6.76661">
        <ele>387</ele>
        <time>2015-04-26T07:24:16.000Z</time>
      </trkpt>
      <trkpt lat="47.50849" lon="6.76656">
        <ele>387</ele>
        <time>2015-04-26T07:24:17.000Z</time>
      </trkpt>
      <trkpt lat="47.50847" lon="6.76651">
        <ele>387</ele>
        <time>2015-04-26T07:24:18.000Z</time>
      </trkpt>
      <trkpt lat="47.50845" lon="6.76646">
        <ele>387</ele>
        <time>2015-04-26T07:24:19.000Z</time>
      </trkpt>
      <trkpt lat="47.50843" lon="6.76642">
        <ele>387</ele>
        <time>2015-04-26T07:24:20.000Z</time>
      </trkpt>
      <trkpt lat="47.50841" lon="6.76638">
        <ele>387</ele>
        <time>2015-04-26T07:24:21.000Z</time>
      </trkpt>
      <trkpt lat="47.5084" lon="6.76634">
        <ele>387</ele>
        <time>2015-04-26T07:24:22.000Z</time>
      </trkpt>
      <trkpt lat="47.50838" lon="6.76631">
        <ele>387</ele>
        <time>2015-04-26T07:24:23.000Z</time>
      </trkpt>
      <trkpt lat="47.50836" lon="6.76628">
        <ele>387</ele>
        <time>2015-04-26T07:24:24.000Z</time>
      </trkpt>
      <trkpt lat="47.50834" lon="6.76624">
        <ele>387</ele>
        <time>2015-04-26T07:24:25.000Z</time>
      </trkpt>
      <trkpt lat="47.50832" lon="6.7662">
        <ele>390</ele>
        <time>2015-04-26T07:24:26.000Z</time>
      </trkpt>
      <trkpt lat="47.5083" lon="6.76617">
        <ele>390</ele>
        <time>2015-04-26T07:24:27.000Z</time>
      </trkpt>
      <trkpt lat="47.50829" lon="6.76613">
        <ele>390</ele>
        <time>2015-04-26T07:24:28.000Z</time>
      </trkpt>
      <trkpt lat="47.50827" lon="6.76609">
        <ele>390</ele>
        <time>2015-04-26T07:24:29.000Z</time>
      </trkpt>
      <trkpt lat="47.50826" lon="6.76605">
        <ele>390</ele>
        <time>2015-04-26T07:24:30.000Z</time>
      </trkpt>
      <trkpt lat="47.50824" lon="6.766">
        <ele>390</ele>
        <time>2015-04-26T07:24:31.000Z</time>
      </trkpt>
      <trkpt lat="47.50822" lon="6.76596">
        <ele>390</ele>
        <time>2015-04-26T07:24:32.000Z</time>
      </trkpt>
      <trkpt lat="47.50821" lon="6.76592">
        <ele>390</ele>
        <time>2015-04-26T07:24:33.000Z</time>
      </trkpt>
      <trkpt lat="47.50817" lon="6.7659">
        <ele>390</ele>
        <time>2015-04-26T07:24:35.000Z</time>
      </trkpt>
      <trkpt lat="47.50814" lon="6.76592">
        <ele>390</ele>
        <time>2015-04-26T07:24:36.000Z</time>
      </trkpt>
      <trkpt lat="47.50811" lon="6.76593">
        <ele>390</ele>
        <time>2015-04-26T07:24:37.000Z</time>
      </trkpt>
      <trkpt lat="47.50809" lon="6.76593">
        <ele>390</ele>
        <time>2015-04-26T07:24:38.000Z</time>
      </trkpt>
      <trkpt lat="47.50806" lon="6.76591">
        <ele>390</ele>
        <time>2015-04-26T07:24:39.000Z</time>
      </trkpt>
      <trkpt lat="47.50804" lon="6.76588">
        <ele>391</ele>
        <time>2015-04-26T07:24:40.000Z</time>
      </trkpt>
      <trkpt lat="47.50802" lon="6.76586">
        <ele>391</ele>
        <time>2015-04-26T07:24:41.000Z</time>
      </trkpt>
      <trkpt lat="47.508" lon="6.76585">
        <ele>391</ele>
        <time>2015-04-26T07:24:42.000Z</time>
      </trkpt>
      <trkpt lat="47.50797" lon="6.76586">
        <ele>391</ele>
        <time>2015-04-26T07:24:43.000Z</time>
      </trkpt>
      <trkpt lat="47.50795" lon="6.76587">
        <ele>391</ele>
        <time>2015-04-26T07:24:44.000Z</time>
      </trkpt>
      <trkpt lat="47.50792" lon="6.76589">
        <ele>391</ele>
        <time>2015-04-26T07:24:45.000Z</time>
      </trkpt>
      <trkpt lat="47.5079" lon="6.7659">
        <ele>391</ele>
        <time>2015-04-26T07:24:46.000Z</time>
      </trkpt>
      <trkpt lat="47.50786" lon="6.76591">
        <ele>391</ele>
        <time>2015-04-26T07:24:48.000Z</time>
      </trkpt>
      <trkpt lat="47.50784" lon="6.76592">
        <ele>391</ele>
        <time>2015-04-26T07:24:49.000Z</time>
      </trkpt>
      <trkpt lat="47.50781" lon="6.76593">
        <ele>391</ele>
        <time>2015-04-26T07:24:50.000Z</time>
      </trkpt>
      <trkpt lat="47.50778" lon="6.76593">
        <ele>392</ele>
        <time>2015-04-26T07:24:51.000Z</time>
      </trkpt>
      <trkpt lat="47.50775" lon="6.76593">
        <ele>392</ele>
        <time>2015-04-26T07:24:52.000Z</time>
      </trkpt>
      <trkpt lat="47.50772" lon="6.76594">
        <ele>392</ele>
        <time>2015-04-26T07:24:53.000Z</time>
      </trkpt>
      <trkpt lat="47.50769" lon="6.76594">
        <ele>392</ele>
        <time>2015-04-26T07:24:54.000Z</time>
      </trkpt>
      <trkpt lat="47.50765" lon="6.76595">
        <ele>392</ele>
        <time>2015-04-26T07:24:55.000Z</time>
      </trkpt>
      <trkpt lat="47.50762" lon="6.76595">
        <ele>392</ele>
        <time>2015-04-26T07:24:56.000Z</time>
      </trkpt>
      <trkpt lat="47.50759" lon="6.76595">
        <ele>393</ele>
        <time>2015-04-26T07:24:57.000Z</time>
      </trkpt>
      <trkpt lat="47.50755" lon="6.76595">
        <ele>393</ele>
        <time>2015-04-26T07:24:58.000Z</time>
      </trkpt>
      <trkpt lat="47.50752" lon="6.76596">
        <ele>393</ele>
        <time>2015-04-26T07:24:59.000Z</time>
      </trkpt>
      <trkpt lat="47.50749" lon="6.76596">
        <ele>394</ele>
        <time>2015-04-26T07:25:00.000Z</time>
      </trkpt>
      <trkpt lat="47.50745" lon="6.76596">
        <ele>394</ele>
        <time>2015-04-26T07:25:01.000Z</time>
      </trkpt>
      <trkpt lat="47.50741" lon="6.76596">
        <ele>394</ele>
        <time>2015-04-26T07:25:02.000Z</time>
      </trkpt>
      <trkpt lat="47.50738" lon="6.76595">
        <ele>394</ele>
        <time>2015-04-26T07:25:03.000Z</time>
      </trkpt>
      <trkpt lat="47.50734" lon="6.76594">
        <ele>394</ele>
        <time>2015-04-26T07:25:04.000Z</time>
      </trkpt>
      <trkpt lat="47.50731" lon="6.76593">
        <ele>394</ele>
        <time>2015-04-26T07:25:05.000Z</time>
      </trkpt>
      <trkpt lat="47.50727" lon="6.76593">
        <ele>394</ele>
        <time>2015-04-26T07:25:06.000Z</time>
      </trkpt>
      <trkpt lat="47.50724" lon="6.76592">
        <ele>394</ele>
        <time>2015-04-26T07:25:07.000Z</time>
      </trkpt>
      <trkpt lat="47.5072" lon="6.7659">
        <ele>394</ele>
        <time>2015-04-26T07:25:08.000Z</time>
      </trkpt>
      <trkpt lat="47.50716" lon="6.76589">
        <ele>394</ele>
        <time>2015-04-26T07:25:09.000Z</time>
      </trkpt>
      <trkpt lat="47.50712" lon="6.76588">
        <ele>395</ele>
        <time>2015-04-26T07:25:10.000Z</time>
      </trkpt>
      <trkpt lat="47.50709" lon="6.76588">
        <ele>395</ele>
        <time>2015-04-26T07:25:11.000Z</time>
      </trkpt>
      <trkpt lat="47.50705" lon="6.76587">
        <ele>395</ele>
        <time>2015-04-26T07:25:12.000Z</time>
      </trkpt>
      <trkpt lat="47.50702" lon="6.76587">
        <ele>395</ele>
        <time>2015-04-26T07:25:13.000Z</time>
      </trkpt>
      <trkpt lat="47.50698" lon="6.76586">
        <ele>395</ele>
        <time>2015-04-26T07:25:14.000Z</time>
      </trkpt>
      <trkpt lat="47.50695" lon="6.76585">
        <ele>395</ele>
        <time>2015-04-26T07:25:15.000Z</time>
      </trkpt>
      <trkpt lat="47.50691" lon="6.76585">
        <ele>395</ele>
        <time>2015-04-26T07:25:16.000Z</time>
      </trkpt>
      <trkpt lat="47.50688" lon="6.76585">
        <ele>395</ele>
        <time>2015-04-26T07:25:17.000Z</time>
      </trkpt>
      <trkpt lat="47.50685" lon="6.76586">
        <ele>396</ele>
        <time>2015-04-26T07:25:18.000Z</time>
      </trkpt>
      <trkpt lat="47.50681" lon="6.76586">
        <ele>396</ele>
        <time>2015-04-26T07:25:19.000Z</time>
      </trkpt>
      <trkpt lat="47.50678" lon="6.76586">
        <ele>396</ele>
        <time>2015-04-26T07:25:20.000Z</time>
      </trkpt>
      <trkpt lat="47.50675" lon="6.76587">
        <ele>396</ele>
        <time>2015-04-26T07:25:21.000Z</time>
      </trkpt>
      <trkpt lat="47.50672" lon="6.76587">
        <ele>396</ele>
        <time>2015-04-26T07:25:22.000Z</time>
      </trkpt>
      <trkpt lat="47.50668" lon="6.76588">
        <ele>397</ele>
        <time>2015-04-26T07:25:23.000Z</time>
      </trkpt>
      <trkpt lat="47.50665" lon="6.76589">
        <ele>397</ele>
        <time>2015-04-26T07:25:24.000Z</time>
      </trkpt>
      <trkpt lat="47.50662" lon="6.7659">
        <ele>397</ele>
        <time>2015-04-26T07:25:25.000Z</time>
      </trkpt>
      <trkpt lat="47.50659" lon="6.76592">
        <ele>397</ele>
        <time>2015-04-26T07:25:26.000Z</time>
      </trkpt>
      <trkpt lat="47.50656" lon="6.76593">
        <ele>397</ele>
        <time>2015-04-26T07:25:27.000Z</time>
      </trkpt>
      <trkpt lat="47.50653" lon="6.76594">
        <ele>397</ele>
        <time>2015-04-26T07:25:28.000Z</time>
      </trkpt>
      <trkpt lat="47.5065" lon="6.76596">
        <ele>397</ele>
        <time>2015-04-26T07:25:29.000Z</time>
      </trkpt>
      <trkpt lat="47.50647" lon="6.76597">
        <ele>397</ele>
        <time>2015-04-26T07:25:30.000Z</time>
      </trkpt>
      <trkpt lat="47.50643" lon="6.76598">
        <ele>397</ele>
        <time>2015-04-26T07:25:31.000Z</time>
      </trkpt>
      <trkpt lat="47.5064" lon="6.766">
        <ele>397</ele>
        <time>2015-04-26T07:25:32.000Z</time>
      </trkpt>
      <trkpt lat="47.50637" lon="6.76601">
        <ele>397</ele>
        <time>2015-04-26T07:25:33.000Z</time>
      </trkpt>
      <trkpt lat="47.50634" lon="6.76602">
        <ele>397</ele>
        <time>2015-04-26T07:25:34.000Z</time>
      </trkpt>
      <trkpt lat="47.50632" lon="6.76604">
        <ele>397</ele>
        <time>2015-04-26T07:25:35.000Z</time>
      </trkpt>
      <trkpt lat="47.50629" lon="6.76606">
        <ele>397</ele>
        <time>2015-04-26T07:25:36.000Z</time>
      </trkpt>
      <trkpt lat="47.50626" lon="6.76608">
        <ele>397</ele>
        <time>2015-04-26T07:25:37.000Z</time>
      </trkpt>
      <trkpt lat="47.50623" lon="6.7661">
        <ele>397</ele>
        <time>2015-04-26T07:25:38.000Z</time>
      </trkpt>
      <trkpt lat="47.5062" lon="6.76613">
        <ele>397</ele>
        <time>2015-04-26T07:25:39.000Z</time>
      </trkpt>
      <trkpt lat="47.50616" lon="6.76615">
        <ele>397</ele>
        <time>2015-04-26T07:25:40.000Z</time>
      </trkpt>
      <trkpt lat="47.50613" lon="6.76616">
        <ele>398</ele>
        <time>2015-04-26T07:25:41.000Z</time>
      </trkpt>
      <trkpt lat="47.5061" lon="6.76618">
        <ele>398</ele>
        <time>2015-04-26T07:25:42.000Z</time>
      </trkpt>
      <trkpt lat="47.50607" lon="6.7662">
        <ele>398</ele>
        <time>2015-04-26T07:25:43.000Z</time>
      </trkpt>
      <trkpt lat="47.50604" lon="6.76622">
        <ele>398</ele>
        <time>2015-04-26T07:25:44.000Z</time>
      </trkpt>
      <trkpt lat="47.506" lon="6.76623">
        <ele>398</ele>
        <time>2015-04-26T07:25:45.000Z</time>
      </trkpt>
      <trkpt lat="47.50597" lon="6.76625">
        <ele>398</ele>
        <time>2015-04-26T07:25:46.000Z</time>
      </trkpt>
      <trkpt lat="47.50594" lon="6.76626">
        <ele>398</ele>
        <time>2015-04-26T07:25:47.000Z</time>
      </trkpt>
      <trkpt lat="47.50591" lon="6.76627">
        <ele>398</ele>
        <time>2015-04-26T07:25:48.000Z</time>
      </trkpt>
      <trkpt lat="47.50588" lon="6.76628">
        <ele>398</ele>
        <time>2015-04-26T07:25:49.000Z</time>
      </trkpt>
      <trkpt lat="47.50585" lon="6.76629">
        <ele>398</ele>
        <time>2015-04-26T07:25:50.000Z</time>
      </trkpt>
      <trkpt lat="47.50582" lon="6.76629">
        <ele>399</ele>
        <time>2015-04-26T07:25:51.000Z</time>
      </trkpt>
      <trkpt lat="47.50579" lon="6.7663">
        <ele>399</ele>
        <time>2015-04-26T07:25:52.000Z</time>
      </trkpt>
      <trkpt lat="47.50576" lon="6.76631">
        <ele>399</ele>
        <time>2015-04-26T07:25:53.000Z</time>
      </trkpt>
      <trkpt lat="47.50574" lon="6.76632">
        <ele>399</ele>
        <time>2015-04-26T07:25:54.000Z</time>
      </trkpt>
      <trkpt lat="47.50571" lon="6.76633">
        <ele>399</ele>
        <time>2015-04-26T07:25:55.000Z</time>
      </trkpt>
      <trkpt lat="47.50568" lon="6.76633">
        <ele>399</ele>
        <time>2015-04-26T07:25:56.000Z</time>
      </trkpt>
      <trkpt lat="47.50565" lon="6.76634">
        <ele>399</ele>
        <time>2015-04-26T07:25:57.000Z</time>
      </trkpt>
      <trkpt lat="47.50563" lon="6.76634">
        <ele>399</ele>
        <time>2015-04-26T07:25:58.000Z</time>
      </trkpt>
      <trkpt lat="47.5056" lon="6.76634">
        <ele>399</ele>
        <time>2015-04-26T07:25:59.000Z</time>
      </trkpt>
      <trkpt lat="47.50557" lon="6.76635">
        <ele>399</ele>
        <time>2015-04-26T07:26:00.000Z</time>
      </trkpt>
      <trkpt lat="47.50553" lon="6.76636">
        <ele>399</ele>
        <time>2015-04-26T07:26:01.000Z</time>
      </trkpt>
      <trkpt lat="47.5055" lon="6.76637">
        <ele>399</ele>
        <time>2015-04-26T07:26:02.000Z</time>
      </trkpt>
      <trkpt lat="47.50546" lon="6.76638">
        <ele>399</ele>
        <time>2015-04-26T07:26:03.000Z</time>
      </trkpt>
      <trkpt lat="47.50542" lon="6.76638">
        <ele>399</ele>
        <time>2015-04-26T07:26:04.000Z</time>
      </trkpt>
      <trkpt lat="47.50538" lon="6.7664">
        <ele>399</ele>
        <time>2015-04-26T07:26:05.000Z</time>
      </trkpt>
      <trkpt lat="47.50534" lon="6.76641">
        <ele>399</ele>
        <time>2015-04-26T07:26:06.000Z</time>
      </trkpt>
      <trkpt lat="47.5053" lon="6.76642">
        <ele>399</ele>
        <time>2015-04-26T07:26:07.000Z</time>
      </trkpt>
      <trkpt lat="47.50525" lon="6.76644">
        <ele>399</ele>
        <time>2015-04-26T07:26:08.000Z</time>
      </trkpt>
      <trkpt lat="47.50519" lon="6.76647">
        <ele>399</ele>
        <time>2015-04-26T07:26:09.000Z</time>
      </trkpt>
      <trkpt lat="47.50514" lon="6.76648">
        <ele>399</ele>
        <time>2015-04-26T07:26:10.000Z</time>
      </trkpt>
      <trkpt lat="47.50509" lon="6.76649">
        <ele>399</ele>
        <time>2015-04-26T07:26:11.000Z</time>
      </trkpt>
      <trkpt lat="47.50505" lon="6.76651">
        <ele>399</ele>
        <time>2015-04-26T07:26:12.000Z</time>
      </trkpt>
      <trkpt lat="47.505" lon="6.76652">
        <ele>399</ele>
        <time>2015-04-26T07:26:13.000Z</time>
      </trkpt>
      <trkpt lat="47.50495" lon="6.76654">
        <ele>399</ele>
        <time>2015-04-26T07:26:14.000Z</time>
      </trkpt>
      <trkpt lat="47.5049" lon="6.76656">
        <ele>399</ele>
        <time>2015-04-26T07:26:15.000Z</time>
      </trkpt>
      <trkpt lat="47.50485" lon="6.76658">
        <ele>399</ele>
        <time>2015-04-26T07:26:16.000Z</time>
      </trkpt>
      <trkpt lat="47.5048" lon="6.7666">
        <ele>399</ele>
        <time>2015-04-26T07:26:17.000Z</time>
      </trkpt>
      <trkpt lat="47.50475" lon="6.76661">
        <ele>398</ele>
        <time>2015-04-26T07:26:18.000Z</time>
      </trkpt>
      <trkpt lat="47.50469" lon="6.76663">
        <ele>398</ele>
        <time>2015-04-26T07:26:19.000Z</time>
      </trkpt>
      <trkpt lat="47.50464" lon="6.76665">
        <ele>398</ele>
        <time>2015-04-26T07:26:20.000Z</time>
      </trkpt>
      <trkpt lat="47.50459" lon="6.76668">
        <ele>397</ele>
        <time>2015-04-26T07:26:21.000Z</time>
      </trkpt>
      <trkpt lat="47.50453" lon="6.7667">
        <ele>397</ele>
        <time>2015-04-26T07:26:22.000Z</time>
      </trkpt>
      <trkpt lat="47.50447" lon="6.76671">
        <ele>397</ele>
        <time>2015-04-26T07:26:23.000Z</time>
      </trkpt>
      <trkpt lat="47.50443" lon="6.76674">
        <ele>397</ele>
        <time>2015-04-26T07:26:24.000Z</time>
      </trkpt>
      <trkpt lat="47.50438" lon="6.76675">
        <ele>397</ele>
        <time>2015-04-26T07:26:25.000Z</time>
      </trkpt>
      <trkpt lat="47.50433" lon="6.76677">
        <ele>397</ele>
        <time>2015-04-26T07:26:26.000Z</time>
      </trkpt>
      <trkpt lat="47.50428" lon="6.76678">
        <ele>397</ele>
        <time>2015-04-26T07:26:27.000Z</time>
      </trkpt>
      <trkpt lat="47.50423" lon="6.76681">
        <ele>397</ele>
        <time>2015-04-26T07:26:28.000Z</time>
      </trkpt>
      <trkpt lat="47.50418" lon="6.76684">
        <ele>397</ele>
        <time>2015-04-26T07:26:29.000Z</time>
      </trkpt>
      <trkpt lat="47.50414" lon="6.76687">
        <ele>397</ele>
        <time>2015-04-26T07:26:30.000Z</time>
      </trkpt>
      <trkpt lat="47.50409" lon="6.76689">
        <ele>397</ele>
        <time>2015-04-26T07:26:31.000Z</time>
      </trkpt>
      <trkpt lat="47.50404" lon="6.76691">
        <ele>397</ele>
        <time>2015-04-26T07:26:32.000Z</time>
      </trkpt>
      <trkpt lat="47.50399" lon="6.76693">
        <ele>397</ele>
        <time>2015-04-26T07:26:33.000Z</time>
      </trkpt>
      <trkpt lat="47.50395" lon="6.76696">
        <ele>397</ele>
        <time>2015-04-26T07:26:34.000Z</time>
      </trkpt>
      <trkpt lat="47.50391" lon="6.76698">
        <ele>397</ele>
        <time>2015-04-26T07:26:35.000Z</time>
      </trkpt>
      <trkpt lat="47.50387" lon="6.767">
        <ele>397</ele>
        <time>2015-04-26T07:26:36.000Z</time>
      </trkpt>
      <trkpt lat="47.50382" lon="6.76702">
        <ele>397</ele>
        <time>2015-04-26T07:26:37.000Z</time>
      </trkpt>
      <trkpt lat="47.50378" lon="6.76704">
        <ele>397</ele>
        <time>2015-04-26T07:26:38.000Z</time>
      </trkpt>
      <trkpt lat="47.50373" lon="6.76705">
        <ele>397</ele>
        <time>2015-04-26T07:26:39.000Z</time>
      </trkpt>
      <trkpt lat="47.50369" lon="6.76707">
        <ele>397</ele>
        <time>2015-04-26T07:26:40.000Z</time>
      </trkpt>
      <trkpt lat="47.50364" lon="6.76708">
        <ele>397</ele>
        <time>2015-04-26T07:26:41.000Z</time>
      </trkpt>
      <trkpt lat="47.5036" lon="6.76709">
        <ele>398</ele>
        <time>2015-04-26T07:26:42.000Z</time>
      </trkpt>
      <trkpt lat="47.50355" lon="6.76711">
        <ele>398</ele>
        <time>2015-04-26T07:26:43.000Z</time>
      </trkpt>
      <trkpt lat="47.5035" lon="6.76714">
        <ele>398</ele>
        <time>2015-04-26T07:26:44.000Z</time>
      </trkpt>
      <trkpt lat="47.50346" lon="6.76715">
        <ele>398</ele>
        <time>2015-04-26T07:26:45.000Z</time>
      </trkpt>
      <trkpt lat="47.50342" lon="6.76717">
        <ele>398</ele>
        <time>2015-04-26T07:26:46.000Z</time>
      </trkpt>
      <trkpt lat="47.50337" lon="6.76718">
        <ele>398</ele>
        <time>2015-04-26T07:26:47.000Z</time>
      </trkpt>
      <trkpt lat="47.50332" lon="6.7672">
        <ele>398</ele>
        <time>2015-04-26T07:26:48.000Z</time>
      </trkpt>
      <trkpt lat="47.50328" lon="6.76721">
        <ele>398</ele>
        <time>2015-04-26T07:26:49.000Z</time>
      </trkpt>
      <trkpt lat="47.50323" lon="6.76723">
        <ele>398</ele>
        <time>2015-04-26T07:26:50.000Z</time>
      </trkpt>
      <trkpt lat="47.50319" lon="6.76724">
        <ele>398</ele>
        <time>2015-04-26T07:26:51.000Z</time>
      </trkpt>
      <trkpt lat="47.50314" lon="6.76726">
        <ele>398</ele>
        <time>2015-04-26T07:26:52.000Z</time>
      </trkpt>
      <trkpt lat="47.5031" lon="6.76728">
        <ele>398</ele>
        <time>2015-04-26T07:26:53.000Z</time>
      </trkpt>
      <trkpt lat="47.50305" lon="6.76731">
        <ele>398</ele>
        <time>2015-04-26T07:26:54.000Z</time>
      </trkpt>
      <trkpt lat="47.50301" lon="6.76733">
        <ele>398</ele>
        <time>2015-04-26T07:26:55.000Z</time>
      </trkpt>
      <trkpt lat="47.50298" lon="6.76733">
        <ele>399</ele>
        <time>2015-04-26T07:26:56.000Z</time>
      </trkpt>
      <trkpt lat="47.50293" lon="6.76734">
        <ele>399</ele>
        <time>2015-04-26T07:26:57.000Z</time>
      </trkpt>
      <trkpt lat="47.50289" lon="6.76735">
        <ele>399</ele>
        <time>2015-04-26T07:26:58.000Z</time>
      </trkpt>
      <trkpt lat="47.50285" lon="6.76736">
        <ele>399</ele>
        <time>2015-04-26T07:26:59.000Z</time>
      </trkpt>
      <trkpt lat="47.50281" lon="6.76737">
        <ele>399</ele>
        <time>2015-04-26T07:27:00.000Z</time>
      </trkpt>
      <trkpt lat="47.50276" lon="6.76737">
        <ele>399</ele>
        <time>2015-04-26T07:27:01.000Z</time>
      </trkpt>
      <trkpt lat="47.50272" lon="6.76737">
        <ele>399</ele>
        <time>2015-04-26T07:27:02.000Z</time>
      </trkpt>
      <trkpt lat="47.50268" lon="6.76738">
        <ele>399</ele>
        <time>2015-04-26T07:27:03.000Z</time>
      </trkpt>
      <trkpt lat="47.50264" lon="6.76738">
        <ele>399</ele>
        <time>2015-04-26T07:27:04.000Z</time>
      </trkpt>
      <trkpt lat="47.5026" lon="6.76739">
        <ele>399</ele>
        <time>2015-04-26T07:27:05.000Z</time>
      </trkpt>
      <trkpt lat="47.50256" lon="6.7674">
        <ele>399</ele>
        <time>2015-04-26T07:27:06.000Z</time>
      </trkpt>
      <trkpt lat="47.50253" lon="6.7674">
        <ele>400</ele>
        <time>2015-04-26T07:27:07.000Z</time>
      </trkpt>
      <trkpt lat="47.50249" lon="6.7674">
        <ele>401</ele>
        <time>2015-04-26T07:27:08.000Z</time>
      </trkpt>
      <trkpt lat="47.50245" lon="6.76739">
        <ele>401</ele>
        <time>2015-04-26T07:27:09.000Z</time>
      </trkpt>
      <trkpt lat="47.50241" lon="6.76737">
        <ele>401</ele>
        <time>2015-04-26T07:27:10.000Z</time>
      </trkpt>
      <trkpt lat="47.50238" lon="6.76734">
        <ele>401</ele>
        <time>2015-04-26T07:27:11.000Z</time>
      </trkpt>
      <trkpt lat="47.50235" lon="6.76731">
        <ele>401</ele>
        <time>2015-04-26T07:27:12.000Z</time>
      </trkpt>
      <trkpt lat="47.50233" lon="6.76727">
        <ele>402</ele>
        <time>2015-04-26T07:27:13.000Z</time>
      </trkpt>
      <trkpt lat="47.5023" lon="6.76723">
        <ele>402</ele>
        <time>2015-04-26T07:27:14.000Z</time>
      </trkpt>
      <trkpt lat="47.50228" lon="6.76719">
        <ele>402</ele>
        <time>2015-04-26T07:27:15.000Z</time>
      </trkpt>
      <trkpt lat="47.50226" lon="6.76714">
        <ele>402</ele>
        <time>2015-04-26T07:27:16.000Z</time>
      </trkpt>
      <trkpt lat="47.50224" lon="6.76709">
        <ele>402</ele>
        <time>2015-04-26T07:27:17.000Z</time>
      </trkpt>
      <trkpt lat="47.50222" lon="6.76703">
        <ele>402</ele>
        <time>2015-04-26T07:27:18.000Z</time>
      </trkpt>
      <trkpt lat="47.5022" lon="6.76697">
        <ele>402</ele>
        <time>2015-04-26T07:27:19.000Z</time>
      </trkpt>
      <trkpt lat="47.50218" lon="6.76691">
        <ele>402</ele>
        <time>2015-04-26T07:27:20.000Z</time>
      </trkpt>
      <trkpt lat="47.50216" lon="6.76681">
        <ele>402</ele>
        <time>2015-04-26T07:27:21.000Z</time>
      </trkpt>
      <trkpt lat="47.50214" lon="6.76674">
        <ele>402</ele>
        <time>2015-04-26T07:27:22.000Z</time>
      </trkpt>
      <trkpt lat="47.50212" lon="6.76668">
        <ele>402</ele>
        <time>2015-04-26T07:27:23.000Z</time>
      </trkpt>
      <trkpt lat="47.5021" lon="6.76661">
        <ele>402</ele>
        <time>2015-04-26T07:27:24.000Z</time>
      </trkpt>
      <trkpt lat="47.50208" lon="6.76654">
        <ele>402</ele>
        <time>2015-04-26T07:27:25.000Z</time>
      </trkpt>
      <trkpt lat="47.50206" lon="6.76648">
        <ele>402</ele>
        <time>2015-04-26T07:27:26.000Z</time>
      </trkpt>
      <trkpt lat="47.50204" lon="6.76642">
        <ele>402</ele>
        <time>2015-04-26T07:27:27.000Z</time>
      </trkpt>
      <trkpt lat="47.50202" lon="6.76635">
        <ele>402</ele>
        <time>2015-04-26T07:27:28.000Z</time>
      </trkpt>
      <trkpt lat="47.502" lon="6.76627">
        <ele>402</ele>
        <time>2015-04-26T07:27:29.000Z</time>
      </trkpt>
      <trkpt lat="47.50198" lon="6.76621">
        <ele>402</ele>
        <time>2015-04-26T07:27:30.000Z</time>
      </trkpt>
      <trkpt lat="47.50196" lon="6.76614">
        <ele>403</ele>
        <time>2015-04-26T07:27:31.000Z</time>
      </trkpt>
      <trkpt lat="47.50195" lon="6.76609">
        <ele>403</ele>
        <time>2015-04-26T07:27:32.000Z</time>
      </trkpt>
      <trkpt lat="47.50195" lon="6.76604">
        <ele>403</ele>
        <time>2015-04-26T07:27:33.000Z</time>
      </trkpt>
      <trkpt lat="47.50195" lon="6.76599">
        <ele>403</ele>
        <time>2015-04-26T07:27:34.000Z</time>
      </trkpt>
      <trkpt lat="47.50195" lon="6.76593">
        <ele>403</ele>
        <time>2015-04-26T07:27:35.000Z</time>
      </trkpt>
      <trkpt lat="47.50195" lon="6.76588">
        <ele>403</ele>
        <time>2015-04-26T07:27:36.000Z</time>
      </trkpt>
      <trkpt lat="47.50193" lon="6.76585">
        <ele>403</ele>
        <time>2015-04-26T07:27:37.000Z</time>
      </trkpt>
      <trkpt lat="47.50192" lon="6.7658">
        <ele>403</ele>
        <time>2015-04-26T07:27:38.000Z</time>
      </trkpt>
      <trkpt lat="47.50192" lon="6.76577">
        <ele>403</ele>
        <time>2015-04-26T07:27:39.000Z</time>
      </trkpt>
      <trkpt lat="47.50193" lon="6.76572">
        <ele>403</ele>
        <time>2015-04-26T07:27:41.000Z</time>
      </trkpt>
      <trkpt lat="47.50194" lon="6.7657">
        <ele>402</ele>
        <time>2015-04-26T07:27:42.000Z</time>
      </trkpt>
      <trkpt lat="47.50195" lon="6.76576">
        <ele>403</ele>
        <time>2015-04-26T07:28:00.000Z</time>
      </trkpt>
      <trkpt lat="47.50196" lon="6.76576">
        <ele>402</ele>
        <time>2015-04-26T07:28:01.000Z</time>
      </trkpt>
      <trkpt lat="47.50199" lon="6.76575">
        <ele>402</ele>
        <time>2015-04-26T07:28:03.000Z</time>
      </trkpt>
      <trkpt lat="47.50202" lon="6.76574">
        <ele>402</ele>
        <time>2015-04-26T07:28:04.000Z</time>
      </trkpt>
      <trkpt lat="47.50204" lon="6.76573">
        <ele>402</ele>
        <time>2015-04-26T07:28:05.000Z</time>
      </trkpt>
      <trkpt lat="47.50207" lon="6.76571">
        <ele>401</ele>
        <time>2015-04-26T07:28:06.000Z</time>
      </trkpt>
      <trkpt lat="47.5021" lon="6.76567">
        <ele>401</ele>
        <time>2015-04-26T07:28:07.000Z</time>
      </trkpt>
      <trkpt lat="47.50213" lon="6.76562">
        <ele>401</ele>
        <time>2015-04-26T07:28:08.000Z</time>
      </trkpt>
      <trkpt lat="47.50214" lon="6.76555">
        <ele>401</ele>
        <time>2015-04-26T07:28:09.000Z</time>
      </trkpt>
      <trkpt lat="47.50214" lon="6.76547">
        <ele>400</ele>
        <time>2015-04-26T07:28:10.000Z</time>
      </trkpt>
      <trkpt lat="47.50211" lon="6.76526">
        <ele>400</ele>
        <time>2015-04-26T07:28:11.000Z</time>
      </trkpt>
      <trkpt lat="47.5021" lon="6.76515">
        <ele>400</ele>
        <time>2015-04-26T07:28:12.000Z</time>
      </trkpt>
      <trkpt lat="47.50207" lon="6.76504">
        <ele>400</ele>
        <time>2015-04-26T07:28:13.000Z</time>
      </trkpt>
      <trkpt lat="47.50204" lon="6.76495">
        <ele>397</ele>
        <time>2015-04-26T07:28:14.000Z</time>
      </trkpt>
      <trkpt lat="47.50201" lon="6.76481">
        <ele>397</ele>
        <time>2015-04-26T07:28:15.000Z</time>
      </trkpt>
      <trkpt lat="47.50197" lon="6.76469">
        <ele>397</ele>
        <time>2015-04-26T07:28:16.000Z</time>
      </trkpt>
      <trkpt lat="47.50195" lon="6.76456">
        <ele>396</ele>
        <time>2015-04-26T07:28:17.000Z</time>
      </trkpt>
      <trkpt lat="47.50192" lon="6.76443">
        <ele>396</ele>
        <time>2015-04-26T07:28:18.000Z</time>
      </trkpt>
      <trkpt lat="47.50186" lon="6.7643">
        <ele>396</ele>
        <time>2015-04-26T07:28:19.000Z</time>
      </trkpt>
      <trkpt lat="47.50184" lon="6.76416">
        <ele>394</ele>
        <time>2015-04-26T07:28:20.000Z</time>
      </trkpt>
      <trkpt lat="47.50182" lon="6.76403">
        <ele>393</ele>
        <time>2015-04-26T07:28:21.000Z</time>
      </trkpt>
      <trkpt lat="47.50179" lon="6.76391">
        <ele>392</ele>
        <time>2015-04-26T07:28:22.000Z</time>
      </trkpt>
      <trkpt lat="47.50177" lon="6.7638">
        <ele>391</ele>
        <time>2015-04-26T07:28:23.000Z</time>
      </trkpt>
      <trkpt lat="47.50173" lon="6.76368">
        <ele>391</ele>
        <time>2015-04-26T07:28:24.000Z</time>
      </trkpt>
      <trkpt lat="47.5017" lon="6.76356">
        <ele>390</ele>
        <time>2015-04-26T07:28:25.000Z</time>
      </trkpt>
      <trkpt lat="47.50167" lon="6.76347">
        <ele>390</ele>
        <time>2015-04-26T07:28:26.000Z</time>
      </trkpt>
      <trkpt lat="47.50166" lon="6.76336">
        <ele>392</ele>
        <time>2015-04-26T07:28:27.000Z</time>
      </trkpt>
      <trkpt lat="47.50162" lon="6.76324">
        <ele>393</ele>
        <time>2015-04-26T07:28:28.000Z</time>
      </trkpt>
      <trkpt lat="47.50158" lon="6.76312">
        <ele>394</ele>
        <time>2015-04-26T07:28:29.000Z</time>
      </trkpt>
      <trkpt lat="47.50157" lon="6.76303">
        <ele>395</ele>
        <time>2015-04-26T07:28:30.000Z</time>
      </trkpt>
      <trkpt lat="47.50156" lon="6.76292">
        <ele>394</ele>
        <time>2015-04-26T07:28:31.000Z</time>
      </trkpt>
      <trkpt lat="47.50153" lon="6.7628">
        <ele>394</ele>
        <time>2015-04-26T07:28:32.000Z</time>
      </trkpt>
      <trkpt lat="47.50151" lon="6.7627">
        <ele>393</ele>
        <time>2015-04-26T07:28:33.000Z</time>
      </trkpt>
      <trkpt lat="47.5015" lon="6.76251">
        <ele>392</ele>
        <time>2015-04-26T07:28:35.000Z</time>
      </trkpt>
      <trkpt lat="47.50148" lon="6.76238">
        <ele>389</ele>
        <time>2015-04-26T07:28:36.000Z</time>
      </trkpt>
      <trkpt lat="47.50145" lon="6.76226">
        <ele>389</ele>
        <time>2015-04-26T07:28:37.000Z</time>
      </trkpt>
      <trkpt lat="47.50142" lon="6.76214">
        <ele>389</ele>
        <time>2015-04-26T07:28:38.000Z</time>
      </trkpt>
      <trkpt lat="47.5014" lon="6.76203">
        <ele>389</ele>
        <time>2015-04-26T07:28:39.000Z</time>
      </trkpt>
      <trkpt lat="47.50138" lon="6.76189">
        <ele>388</ele>
        <time>2015-04-26T07:28:40.000Z</time>
      </trkpt>
      <trkpt lat="47.50136" lon="6.76178">
        <ele>387</ele>
        <time>2015-04-26T07:28:41.000Z</time>
      </trkpt>
      <trkpt lat="47.50134" lon="6.76166">
        <ele>384</ele>
        <time>2015-04-26T07:28:42.000Z</time>
      </trkpt>
      <trkpt lat="47.50132" lon="6.76156">
        <ele>384</ele>
        <time>2015-04-26T07:28:43.000Z</time>
      </trkpt>
      <trkpt lat="47.50129" lon="6.76145">
        <ele>384</ele>
        <time>2015-04-26T07:28:44.000Z</time>
      </trkpt>
      <trkpt lat="47.50125" lon="6.76134">
        <ele>384</ele>
        <time>2015-04-26T07:28:45.000Z</time>
      </trkpt>
      <trkpt lat="47.50123" lon="6.76122">
        <ele>384</ele>
        <time>2015-04-26T07:28:46.000Z</time>
      </trkpt>
      <trkpt lat="47.50122" lon="6.76109">
        <ele>384</ele>
        <time>2015-04-26T07:28:47.000Z</time>
      </trkpt>
      <trkpt lat="47.50118" lon="6.76098">
        <ele>384</ele>
        <time>2015-04-26T07:28:48.000Z</time>
      </trkpt>
      <trkpt lat="47.50116" lon="6.76086">
        <ele>384</ele>
        <time>2015-04-26T07:28:49.000Z</time>
      </trkpt>
      <trkpt lat="47.50115" lon="6.76073">
        <ele>381</ele>
        <time>2015-04-26T07:28:50.000Z</time>
      </trkpt>
      <trkpt lat="47.50113" lon="6.76061">
        <ele>380</ele>
        <time>2015-04-26T07:28:51.000Z</time>
      </trkpt>
      <trkpt lat="47.50109" lon="6.76049">
        <ele>380</ele>
        <time>2015-04-26T07:28:52.000Z</time>
      </trkpt>
      <trkpt lat="47.50108" lon="6.76037">
        <ele>379</ele>
        <time>2015-04-26T07:28:53.000Z</time>
      </trkpt>
      <trkpt lat="47.50105" lon="6.76024">
        <ele>379</ele>
        <time>2015-04-26T07:28:54.000Z</time>
      </trkpt>
      <trkpt lat="47.50102" lon="6.76015">
        <ele>379</ele>
        <time>2015-04-26T07:28:55.000Z</time>
      </trkpt>
      <trkpt lat="47.501" lon="6.76004">
        <ele>379</ele>
        <time>2015-04-26T07:28:56.000Z</time>
      </trkpt>
      <trkpt lat="47.50098" lon="6.75995">
        <ele>376</ele>
        <time>2015-04-26T07:28:57.000Z</time>
      </trkpt>
      <trkpt lat="47.50092" lon="6.75987">
        <ele>376</ele>
        <time>2015-04-26T07:28:58.000Z</time>
      </trkpt>
      <trkpt lat="47.50087" lon="6.75977">
        <ele>375</ele>
        <time>2015-04-26T07:28:59.000Z</time>
      </trkpt>
      <trkpt lat="47.5008" lon="6.75966">
        <ele>378</ele>
        <time>2015-04-26T07:29:00.000Z</time>
      </trkpt>
      <trkpt lat="47.50074" lon="6.75956">
        <ele>378</ele>
        <time>2015-04-26T07:29:01.000Z</time>
      </trkpt>
      <trkpt lat="47.5007" lon="6.75948">
        <ele>378</ele>
        <time>2015-04-26T07:29:02.000Z</time>
      </trkpt>
      <trkpt lat="47.50065" lon="6.75936">
        <ele>377</ele>
        <time>2015-04-26T07:29:03.000Z</time>
      </trkpt>
      <trkpt lat="47.50055" lon="6.75926">
        <ele>377</ele>
        <time>2015-04-26T07:29:04.000Z</time>
      </trkpt>
      <trkpt lat="47.50047" lon="6.75917">
        <ele>376</ele>
        <time>2015-04-26T07:29:05.000Z</time>
      </trkpt>
      <trkpt lat="47.5004" lon="6.75906">
        <ele>376</ele>
        <time>2015-04-26T07:29:06.000Z</time>
      </trkpt>
      <trkpt lat="47.5003" lon="6.75898">
        <ele>376</ele>
        <time>2015-04-26T07:29:07.000Z</time>
      </trkpt>
      <trkpt lat="47.50025" lon="6.75886">
        <ele>376</ele>
        <time>2015-04-26T07:29:08.000Z</time>
      </trkpt>
      <trkpt lat="47.50018" lon="6.75876">
        <ele>377</ele>
        <time>2015-04-26T07:29:09.000Z</time>
      </trkpt>
      <trkpt lat="47.50013" lon="6.75865">
        <ele>377</ele>
        <time>2015-04-26T07:29:10.000Z</time>
      </trkpt>
      <trkpt lat="47.50009" lon="6.75855">
        <ele>377</ele>
        <time>2015-04-26T07:29:11.000Z</time>
      </trkpt>
      <trkpt lat="47.50004" lon="6.75846">
        <ele>378</ele>
        <time>2015-04-26T07:29:12.000Z</time>
      </trkpt>
      <trkpt lat="47.49999" lon="6.75836">
        <ele>379</ele>
        <time>2015-04-26T07:29:13.000Z</time>
      </trkpt>
      <trkpt lat="47.49991" lon="6.75824">
        <ele>377</ele>
        <time>2015-04-26T07:29:14.000Z</time>
      </trkpt>
      <trkpt lat="47.49986" lon="6.75814">
        <ele>376</ele>
        <time>2015-04-26T07:29:15.000Z</time>
      </trkpt>
      <trkpt lat="47.49981" lon="6.75804">
        <ele>375</ele>
        <time>2015-04-26T07:29:16.000Z</time>
      </trkpt>
      <trkpt lat="47.49976" lon="6.75794">
        <ele>375</ele>
        <time>2015-04-26T07:29:17.000Z</time>
      </trkpt>
      <trkpt lat="47.49971" lon="6.75781">
        <ele>374</ele>
        <time>2015-04-26T07:29:18.000Z</time>
      </trkpt>
      <trkpt lat="47.49969" lon="6.75771">
        <ele>374</ele>
        <time>2015-04-26T07:29:19.000Z</time>
      </trkpt>
      <trkpt lat="47.49962" lon="6.75762">
        <ele>374</ele>
        <time>2015-04-26T07:29:20.000Z</time>
      </trkpt>
      <trkpt lat="47.49949" lon="6.75749">
        <ele>371</ele>
        <time>2015-04-26T07:29:21.000Z</time>
      </trkpt>
      <trkpt lat="47.49942" lon="6.7574">
        <ele>370</ele>
        <time>2015-04-26T07:29:22.000Z</time>
      </trkpt>
      <trkpt lat="47.49935" lon="6.75731">
        <ele>370</ele>
        <time>2015-04-26T07:29:23.000Z</time>
      </trkpt>
      <trkpt lat="47.49929" lon="6.75724">
        <ele>370</ele>
        <time>2015-04-26T07:29:24.000Z</time>
      </trkpt>
      <trkpt lat="47.49924" lon="6.75715">
        <ele>370</ele>
        <time>2015-04-26T07:29:25.000Z</time>
      </trkpt>
      <trkpt lat="47.49916" lon="6.7571">
        <ele>365</ele>
        <time>2015-04-26T07:29:26.000Z</time>
      </trkpt>
      <trkpt lat="47.49909" lon="6.75705">
        <ele>365</ele>
        <time>2015-04-26T07:29:27.000Z</time>
      </trkpt>
      <trkpt lat="47.49902" lon="6.75707">
        <ele>364</ele>
        <time>2015-04-26T07:29:28.000Z</time>
      </trkpt>
      <trkpt lat="47.49895" lon="6.75708">
        <ele>364</ele>
        <time>2015-04-26T07:29:29.000Z</time>
      </trkpt>
      <trkpt lat="47.49886" lon="6.75708">
        <ele>363</ele>
        <time>2015-04-26T07:29:30.000Z</time>
      </trkpt>
      <trkpt lat="47.49876" lon="6.75708">
        <ele>363</ele>
        <time>2015-04-26T07:29:31.000Z</time>
      </trkpt>
      <trkpt lat="47.49864" lon="6.75709">
        <ele>362</ele>
        <time>2015-04-26T07:29:32.000Z</time>
      </trkpt>
      <trkpt lat="47.49855" lon="6.7571">
        <ele>361</ele>
        <time>2015-04-26T07:29:33.000Z</time>
      </trkpt>
      <trkpt lat="47.49839" lon="6.75707">
        <ele>360</ele>
        <time>2015-04-26T07:29:34.000Z</time>
      </trkpt>
      <trkpt lat="47.49828" lon="6.75708">
        <ele>353</ele>
        <time>2015-04-26T07:29:35.000Z</time>
      </trkpt>
      <trkpt lat="47.49818" lon="6.7571">
        <ele>352</ele>
        <time>2015-04-26T07:29:36.000Z</time>
      </trkpt>
      <trkpt lat="47.4981" lon="6.75714">
        <ele>352</ele>
        <time>2015-04-26T07:29:37.000Z</time>
      </trkpt>
      <trkpt lat="47.498" lon="6.75716">
        <ele>351</ele>
        <time>2015-04-26T07:29:38.000Z</time>
      </trkpt>
      <trkpt lat="47.49791" lon="6.7572">
        <ele>351</ele>
        <time>2015-04-26T07:29:39.000Z</time>
      </trkpt>
      <trkpt lat="47.49781" lon="6.75724">
        <ele>351</ele>
        <time>2015-04-26T07:29:40.000Z</time>
      </trkpt>
      <trkpt lat="47.49771" lon="6.75727">
        <ele>350</ele>
        <time>2015-04-26T07:29:41.000Z</time>
      </trkpt>
      <trkpt lat="47.49761" lon="6.7573">
        <ele>350</ele>
        <time>2015-04-26T07:29:42.000Z</time>
      </trkpt>
      <trkpt lat="47.49751" lon="6.75736">
        <ele>350</ele>
        <time>2015-04-26T07:29:43.000Z</time>
      </trkpt>
      <trkpt lat="47.49741" lon="6.75741">
        <ele>347</ele>
        <time>2015-04-26T07:29:44.000Z</time>
      </trkpt>
      <trkpt lat="47.49731" lon="6.75746">
        <ele>345</ele>
        <time>2015-04-26T07:29:45.000Z</time>
      </trkpt>
      <trkpt lat="47.49721" lon="6.75749">
        <ele>344</ele>
        <time>2015-04-26T07:29:46.000Z</time>
      </trkpt>
      <trkpt lat="47.49712" lon="6.75754">
        <ele>352</ele>
        <time>2015-04-26T07:29:47.000Z</time>
      </trkpt>
      <trkpt lat="47.49702" lon="6.75759">
        <ele>352</ele>
        <time>2015-04-26T07:29:48.000Z</time>
      </trkpt>
      <trkpt lat="47.49692" lon="6.75762">
        <ele>351</ele>
        <time>2015-04-26T07:29:49.000Z</time>
      </trkpt>
      <trkpt lat="47.49684" lon="6.75764">
        <ele>350</ele>
        <time>2015-04-26T07:29:50.000Z</time>
      </trkpt>
      <trkpt lat="47.49675" lon="6.75765">
        <ele>349</ele>
        <time>2015-04-26T07:29:51.000Z</time>
      </trkpt>
      <trkpt lat="47.49667" lon="6.75766">
        <ele>345</ele>
        <time>2015-04-26T07:29:52.000Z</time>
      </trkpt>
      <trkpt lat="47.49653" lon="6.75766">
        <ele>345</ele>
        <time>2015-04-26T07:29:53.000Z</time>
      </trkpt>
      <trkpt lat="47.49645" lon="6.75763">
        <ele>345</ele>
        <time>2015-04-26T07:29:54.000Z</time>
      </trkpt>
      <trkpt lat="47.49636" lon="6.75762">
        <ele>345</ele>
        <time>2015-04-26T07:29:55.000Z</time>
      </trkpt>
      <trkpt lat="47.49628" lon="6.7576">
        <ele>344</ele>
        <time>2015-04-26T07:29:56.000Z</time>
      </trkpt>
      <trkpt lat="47.49618" lon="6.75761">
        <ele>343</ele>
        <time>2015-04-26T07:29:57.000Z</time>
      </trkpt>
      <trkpt lat="47.49609" lon="6.75761">
        <ele>342</ele>
        <time>2015-04-26T07:29:58.000Z</time>
      </trkpt>
      <trkpt lat="47.49601" lon="6.75762">
        <ele>341</ele>
        <time>2015-04-26T07:29:59.000Z</time>
      </trkpt>
      <trkpt lat="47.49594" lon="6.75761">
        <ele>340</ele>
        <time>2015-04-26T07:30:00.000Z</time>
      </trkpt>
      <trkpt lat="47.49587" lon="6.75761">
        <ele>339</ele>
        <time>2015-04-26T07:30:01.000Z</time>
      </trkpt>
      <trkpt lat="47.49581" lon="6.75759">
        <ele>335</ele>
        <time>2015-04-26T07:30:02.000Z</time>
      </trkpt>
      <trkpt lat="47.49574" lon="6.75758">
        <ele>335</ele>
        <time>2015-04-26T07:30:03.000Z</time>
      </trkpt>
      <trkpt lat="47.49567" lon="6.75755">
        <ele>335</ele>
        <time>2015-04-26T07:30:04.000Z</time>
      </trkpt>
      <trkpt lat="47.49563" lon="6.75751">
        <ele>335</ele>
        <time>2015-04-26T07:30:05.000Z</time>
      </trkpt>
      <trkpt lat="47.49559" lon="6.75747">
        <ele>328</ele>
        <time>2015-04-26T07:30:06.000Z</time>
      </trkpt>
      <trkpt lat="47.49557" lon="6.75744">
        <ele>328</ele>
        <time>2015-04-26T07:30:07.000Z</time>
      </trkpt>
      <trkpt lat="47.49556" lon="6.7574">
        <ele>328</ele>
        <time>2015-04-26T07:30:08.000Z</time>
      </trkpt>
      <trkpt lat="47.49557" lon="6.75737">
        <ele>327</ele>
        <time>2015-04-26T07:30:10.000Z</time>
      </trkpt>
      <trkpt lat="47.49562" lon="6.75736">
        <ele>328</ele>
        <time>2015-04-26T07:30:11.000Z</time>
      </trkpt>
      <trkpt lat="47.49565" lon="6.75734">
        <ele>328</ele>
        <time>2015-04-26T07:30:12.000Z</time>
      </trkpt>
      <trkpt lat="47.49569" lon="6.75732">
        <ele>328</ele>
        <time>2015-04-26T07:30:13.000Z</time>
      </trkpt>
      <trkpt lat="47.49573" lon="6.75729">
        <ele>328</ele>
        <time>2015-04-26T07:30:14.000Z</time>
      </trkpt>
      <trkpt lat="47.49578" lon="6.75726">
        <ele>328</ele>
        <time>2015-04-26T07:30:15.000Z</time>
      </trkpt>
      <trkpt lat="47.49583" lon="6.7572">
        <ele>327</ele>
        <time>2015-04-26T07:30:16.000Z</time>
      </trkpt>
      <trkpt lat="47.49586" lon="6.75715">
        <ele>331</ele>
        <time>2015-04-26T07:30:17.000Z</time>
      </trkpt>
      <trkpt lat="47.4959" lon="6.7571">
        <ele>330</ele>
        <time>2015-04-26T07:30:18.000Z</time>
      </trkpt>
      <trkpt lat="47.49594" lon="6.75705">
        <ele>330</ele>
        <time>2015-04-26T07:30:19.000Z</time>
      </trkpt>
      <trkpt lat="47.49598" lon="6.75699">
        <ele>329</ele>
        <time>2015-04-26T07:30:20.000Z</time>
      </trkpt>
      <trkpt lat="47.49598" lon="6.7569">
        <ele>328</ele>
        <time>2015-04-26T07:30:21.000Z</time>
      </trkpt>
      <trkpt lat="47.49594" lon="6.75684">
        <ele>327</ele>
        <time>2015-04-26T07:30:22.000Z</time>
      </trkpt>
      <trkpt lat="47.49589" lon="6.75678">
        <ele>325</ele>
        <time>2015-04-26T07:30:23.000Z</time>
      </trkpt>
      <trkpt lat="47.49585" lon="6.75673">
        <ele>323</ele>
        <time>2015-04-26T07:30:24.000Z</time>
      </trkpt>
      <trkpt lat="47.49581" lon="6.75668">
        <ele>321</ele>
        <time>2015-04-26T07:30:25.000Z</time>
      </trkpt>
      <trkpt lat="47.49576" lon="6.75663">
        <ele>321</ele>
        <time>2015-04-26T07:30:26.000Z</time>
      </trkpt>
      <trkpt lat="47.4957" lon="6.75664">
        <ele>321</ele>
        <time>2015-04-26T07:30:27.000Z</time>
      </trkpt>
      <trkpt lat="47.49565" lon="6.75666">
        <ele>321</ele>
        <time>2015-04-26T07:30:28.000Z</time>
      </trkpt>
      <trkpt lat="47.4956" lon="6.75671">
        <ele>323</ele>
        <time>2015-04-26T07:30:29.000Z</time>
      </trkpt>
      <trkpt lat="47.49556" lon="6.75676">
        <ele>324</ele>
        <time>2015-04-26T07:30:30.000Z</time>
      </trkpt>
      <trkpt lat="47.49551" lon="6.75682">
        <ele>324</ele>
        <time>2015-04-26T07:30:31.000Z</time>
      </trkpt>
      <trkpt lat="47.49547" lon="6.75688">
        <ele>324</ele>
        <time>2015-04-26T07:30:32.000Z</time>
      </trkpt>
      <trkpt lat="47.49543" lon="6.75693">
        <ele>324</ele>
        <time>2015-04-26T07:30:33.000Z</time>
      </trkpt>
      <trkpt lat="47.49536" lon="6.75704">
        <ele>325</ele>
        <time>2015-04-26T07:30:35.000Z</time>
      </trkpt>
      <trkpt lat="47.49531" lon="6.75708">
        <ele>325</ele>
        <time>2015-04-26T07:30:36.000Z</time>
      </trkpt>
      <trkpt lat="47.49525" lon="6.75713">
        <ele>325</ele>
        <time>2015-04-26T07:30:37.000Z</time>
      </trkpt>
      <trkpt lat="47.49519" lon="6.75715">
        <ele>325</ele>
        <time>2015-04-26T07:30:38.000Z</time>
      </trkpt>
      <trkpt lat="47.49514" lon="6.7572">
        <ele>325</ele>
        <time>2015-04-26T07:30:39.000Z</time>
      </trkpt>
      <trkpt lat="47.49509" lon="6.75725">
        <ele>325</ele>
        <time>2015-04-26T07:30:40.000Z</time>
      </trkpt>
      <trkpt lat="47.49503" lon="6.75727">
        <ele>324</ele>
        <time>2015-04-26T07:30:41.000Z</time>
      </trkpt>
      <trkpt lat="47.49498" lon="6.75729">
        <ele>322</ele>
        <time>2015-04-26T07:30:42.000Z</time>
      </trkpt>
      <trkpt lat="47.49492" lon="6.75732">
        <ele>322</ele>
        <time>2015-04-26T07:30:43.000Z</time>
      </trkpt>
      <trkpt lat="47.49486" lon="6.75733">
        <ele>322</ele>
        <time>2015-04-26T07:30:44.000Z</time>
      </trkpt>
      <trkpt lat="47.4948" lon="6.75729">
        <ele>322</ele>
        <time>2015-04-26T07:30:45.000Z</time>
      </trkpt>
      <trkpt lat="47.49476" lon="6.75723">
        <ele>322</ele>
        <time>2015-04-26T07:30:46.000Z</time>
      </trkpt>
      <trkpt lat="47.49474" lon="6.75717">
        <ele>321</ele>
        <time>2015-04-26T07:30:47.000Z</time>
      </trkpt>
      <trkpt lat="47.49472" lon="6.7571">
        <ele>321</ele>
        <time>2015-04-26T07:30:48.000Z</time>
      </trkpt>
      <trkpt lat="47.4947" lon="6.75702">
        <ele>321</ele>
        <time>2015-04-26T07:30:49.000Z</time>
      </trkpt>
      <trkpt lat="47.49467" lon="6.75695">
        <ele>321</ele>
        <time>2015-04-26T07:30:50.000Z</time>
      </trkpt>
      <trkpt lat="47.49463" lon="6.7569">
        <ele>321</ele>
        <time>2015-04-26T07:30:51.000Z</time>
      </trkpt>
      <trkpt lat="47.49457" lon="6.75691">
        <ele>321</ele>
        <time>2015-04-26T07:30:52.000Z</time>
      </trkpt>
      <trkpt lat="47.49451" lon="6.75692">
        <ele>321</ele>
        <time>2015-04-26T07:30:53.000Z</time>
      </trkpt>
      <trkpt lat="47.49447" lon="6.75696">
        <ele>321</ele>
        <time>2015-04-26T07:30:54.000Z</time>
      </trkpt>
      <trkpt lat="47.49443" lon="6.75694">
        <ele>321</ele>
        <time>2015-04-26T07:30:55.000Z</time>
      </trkpt>
      <trkpt lat="47.49441" lon="6.75691">
        <ele>320</ele>
        <time>2015-04-26T07:30:56.000Z</time>
      </trkpt>
      <trkpt lat="47.49439" lon="6.75685">
        <ele>320</ele>
        <time>2015-04-26T07:30:57.000Z</time>
      </trkpt>
      <trkpt lat="47.49438" lon="6.75679">
        <ele>320</ele>
        <time>2015-04-26T07:30:58.000Z</time>
      </trkpt>
      <trkpt lat="47.49434" lon="6.75673">
        <ele>320</ele>
        <time>2015-04-26T07:30:59.000Z</time>
      </trkpt>
      <trkpt lat="47.49432" lon="6.75669">
        <ele>320</ele>
        <time>2015-04-26T07:31:00.000Z</time>
      </trkpt>
      <trkpt lat="47.49429" lon="6.75666">
        <ele>320</ele>
        <time>2015-04-26T07:31:01.000Z</time>
      </trkpt>
      <trkpt lat="47.49424" lon="6.75666">
        <ele>319</ele>
        <time>2015-04-26T07:31:02.000Z</time>
      </trkpt>
      <trkpt lat="47.4942" lon="6.7567">
        <ele>319</ele>
        <time>2015-04-26T07:31:03.000Z</time>
      </trkpt>
      <trkpt lat="47.49416" lon="6.75672">
        <ele>319</ele>
        <time>2015-04-26T07:31:04.000Z</time>
      </trkpt>
      <trkpt lat="47.49411" lon="6.75675">
        <ele>319</ele>
        <time>2015-04-26T07:31:05.000Z</time>
      </trkpt>
      <trkpt lat="47.49406" lon="6.75677">
        <ele>319</ele>
        <time>2015-04-26T07:31:06.000Z</time>
      </trkpt>
      <trkpt lat="47.49402" lon="6.75682">
        <ele>319</ele>
        <time>2015-04-26T07:31:07.000Z</time>
      </trkpt>
      <trkpt lat="47.49396" lon="6.75685">
        <ele>319</ele>
        <time>2015-04-26T07:31:08.000Z</time>
      </trkpt>
      <trkpt lat="47.49392" lon="6.75689">
        <ele>319</ele>
        <time>2015-04-26T07:31:09.000Z</time>
      </trkpt>
      <trkpt lat="47.49387" lon="6.75693">
        <ele>319</ele>
        <time>2015-04-26T07:31:10.000Z</time>
      </trkpt>
      <trkpt lat="47.49382" lon="6.75696">
        <ele>319</ele>
        <time>2015-04-26T07:31:11.000Z</time>
      </trkpt>
      <trkpt lat="47.49379" lon="6.75698">
        <ele>319</ele>
        <time>2015-04-26T07:31:12.000Z</time>
      </trkpt>
      <trkpt lat="47.49375" lon="6.757">
        <ele>319</ele>
        <time>2015-04-26T07:31:13.000Z</time>
      </trkpt>
      <trkpt lat="47.4937" lon="6.75702">
        <ele>319</ele>
        <time>2015-04-26T07:31:14.000Z</time>
      </trkpt>
      <trkpt lat="47.49368" lon="6.75705">
        <ele>319</ele>
        <time>2015-04-26T07:31:15.000Z</time>
      </trkpt>
      <trkpt lat="47.49364" lon="6.75709">
        <ele>319</ele>
        <time>2015-04-26T07:31:16.000Z</time>
      </trkpt>
      <trkpt lat="47.49362" lon="6.75709">
        <ele>319</ele>
        <time>2015-04-26T07:31:17.000Z</time>
      </trkpt>
      <trkpt lat="47.4936" lon="6.7571">
        <ele>319</ele>
        <time>2015-04-26T07:31:18.000Z</time>
      </trkpt>
      <trkpt lat="47.49356" lon="6.75712">
        <ele>319</ele>
        <time>2015-04-26T07:31:19.000Z</time>
      </trkpt>
      <trkpt lat="47.49353" lon="6.75714">
        <ele>319</ele>
        <time>2015-04-26T07:31:20.000Z</time>
      </trkpt>
      <trkpt lat="47.4935" lon="6.75715">
        <ele>319</ele>
        <time>2015-04-26T07:31:21.000Z</time>
      </trkpt>
      <trkpt lat="47.49344" lon="6.75718">
        <ele>319</ele>
        <time>2015-04-26T07:31:22.000Z</time>
      </trkpt>
      <trkpt lat="47.4934" lon="6.7572">
        <ele>318</ele>
        <time>2015-04-26T07:31:23.000Z</time>
      </trkpt>
      <trkpt lat="47.49336" lon="6.75723">
        <ele>318</ele>
        <time>2015-04-26T07:31:24.000Z</time>
      </trkpt>
      <trkpt lat="47.4933" lon="6.75727">
        <ele>319</ele>
        <time>2015-04-26T07:31:25.000Z</time>
      </trkpt>
      <trkpt lat="47.49325" lon="6.7573">
        <ele>319</ele>
        <time>2015-04-26T07:31:26.000Z</time>
      </trkpt>
      <trkpt lat="47.49318" lon="6.75735">
        <ele>319</ele>
        <time>2015-04-26T07:31:27.000Z</time>
      </trkpt>
      <trkpt lat="47.49312" lon="6.75739">
        <ele>319</ele>
        <time>2015-04-26T07:31:28.000Z</time>
      </trkpt>
      <trkpt lat="47.49307" lon="6.75749">
        <ele>319</ele>
        <time>2015-04-26T07:31:29.000Z</time>
      </trkpt>
      <trkpt lat="47.49302" lon="6.75757">
        <ele>318</ele>
        <time>2015-04-26T07:31:30.000Z</time>
      </trkpt>
      <trkpt lat="47.49299" lon="6.75764">
        <ele>318</ele>
        <time>2015-04-26T07:31:31.000Z</time>
      </trkpt>
      <trkpt lat="47.49294" lon="6.75771">
        <ele>318</ele>
        <time>2015-04-26T07:31:32.000Z</time>
      </trkpt>
      <trkpt lat="47.49289" lon="6.75778">
        <ele>318</ele>
        <time>2015-04-26T07:31:33.000Z</time>
      </trkpt>
      <trkpt lat="47.49285" lon="6.75784">
        <ele>318</ele>
        <time>2015-04-26T07:31:34.000Z</time>
      </trkpt>
      <trkpt lat="47.49282" lon="6.7579">
        <ele>318</ele>
        <time>2015-04-26T07:31:35.000Z</time>
      </trkpt>
      <trkpt lat="47.49278" lon="6.75796">
        <ele>318</ele>
        <time>2015-04-26T07:31:36.000Z</time>
      </trkpt>
      <trkpt lat="47.49274" lon="6.75803">
        <ele>317</ele>
        <time>2015-04-26T07:31:37.000Z</time>
      </trkpt>
      <trkpt lat="47.49269" lon="6.75809">
        <ele>317</ele>
        <time>2015-04-26T07:31:38.000Z</time>
      </trkpt>
      <trkpt lat="47.49264" lon="6.75816">
        <ele>316</ele>
        <time>2015-04-26T07:31:39.000Z</time>
      </trkpt>
      <trkpt lat="47.4926" lon="6.75822">
        <ele>316</ele>
        <time>2015-04-26T07:31:40.000Z</time>
      </trkpt>
      <trkpt lat="47.49255" lon="6.75828">
        <ele>314</ele>
        <time>2015-04-26T07:31:41.000Z</time>
      </trkpt>
      <trkpt lat="47.49252" lon="6.75834">
        <ele>314</ele>
        <time>2015-04-26T07:31:42.000Z</time>
      </trkpt>
      <trkpt lat="47.49249" lon="6.7584">
        <ele>315</ele>
        <time>2015-04-26T07:31:43.000Z</time>
      </trkpt>
      <trkpt lat="47.49245" lon="6.75847">
        <ele>316</ele>
        <time>2015-04-26T07:31:44.000Z</time>
      </trkpt>
      <trkpt lat="47.49242" lon="6.75854">
        <ele>317</ele>
        <time>2015-04-26T07:31:45.000Z</time>
      </trkpt>
      <trkpt lat="47.49239" lon="6.75861">
        <ele>317</ele>
        <time>2015-04-26T07:31:46.000Z</time>
      </trkpt>
      <trkpt lat="47.49236" lon="6.75869">
        <ele>318</ele>
        <time>2015-04-26T07:31:47.000Z</time>
      </trkpt>
      <trkpt lat="47.49232" lon="6.75874">
        <ele>318</ele>
        <time>2015-04-26T07:31:48.000Z</time>
      </trkpt>
      <trkpt lat="47.4923" lon="6.75879">
        <ele>318</ele>
        <time>2015-04-26T07:31:49.000Z</time>
      </trkpt>
      <trkpt lat="47.49227" lon="6.75884">
        <ele>319</ele>
        <time>2015-04-26T07:31:50.000Z</time>
      </trkpt>
      <trkpt lat="47.49223" lon="6.75889">
        <ele>319</ele>
        <time>2015-04-26T07:31:51.000Z</time>
      </trkpt>
      <trkpt lat="47.49222" lon="6.75896">
        <ele>319</ele>
        <time>2015-04-26T07:31:52.000Z</time>
      </trkpt>
      <trkpt lat="47.4922" lon="6.75902">
        <ele>319</ele>
        <time>2015-04-26T07:31:53.000Z</time>
      </trkpt>
      <trkpt lat="47.49217" lon="6.75908">
        <ele>319</ele>
        <time>2015-04-26T07:31:54.000Z</time>
      </trkpt>
      <trkpt lat="47.49213" lon="6.75913">
        <ele>319</ele>
        <time>2015-04-26T07:31:55.000Z</time>
      </trkpt>
      <trkpt lat="47.49211" lon="6.75918">
        <ele>320</ele>
        <time>2015-04-26T07:31:56.000Z</time>
      </trkpt>
      <trkpt lat="47.49208" lon="6.75923">
        <ele>320</ele>
        <time>2015-04-26T07:31:57.000Z</time>
      </trkpt>
      <trkpt lat="47.49204" lon="6.75928">
        <ele>320</ele>
        <time>2015-04-26T07:31:58.000Z</time>
      </trkpt>
      <trkpt lat="47.49199" lon="6.75934">
        <ele>320</ele>
        <time>2015-04-26T07:31:59.000Z</time>
      </trkpt>
      <trkpt lat="47.49196" lon="6.75941">
        <ele>320</ele>
        <time>2015-04-26T07:32:00.000Z</time>
      </trkpt>
      <trkpt lat="47.49192" lon="6.75949">
        <ele>320</ele>
        <time>2015-04-26T07:32:01.000Z</time>
      </trkpt>
      <trkpt lat="47.4919" lon="6.75957">
        <ele>320</ele>
        <time>2015-04-26T07:32:02.000Z</time>
      </trkpt>
      <trkpt lat="47.49188" lon="6.75964">
        <ele>320</ele>
        <time>2015-04-26T07:32:03.000Z</time>
      </trkpt>
      <trkpt lat="47.49184" lon="6.75972">
        <ele>320</ele>
        <time>2015-04-26T07:32:04.000Z</time>
      </trkpt>
      <trkpt lat="47.49182" lon="6.7598">
        <ele>320</ele>
        <time>2015-04-26T07:32:05.000Z</time>
      </trkpt>
      <trkpt lat="47.49178" lon="6.75986">
        <ele>320</ele>
        <time>2015-04-26T07:32:06.000Z</time>
      </trkpt>
      <trkpt lat="47.49175" lon="6.75993">
        <ele>320</ele>
        <time>2015-04-26T07:32:07.000Z</time>
      </trkpt>
      <trkpt lat="47.49172" lon="6.75999">
        <ele>319</ele>
        <time>2015-04-26T07:32:08.000Z</time>
      </trkpt>
      <trkpt lat="47.49169" lon="6.76007">
        <ele>320</ele>
        <time>2015-04-26T07:32:09.000Z</time>
      </trkpt>
      <trkpt lat="47.49166" lon="6.76014">
        <ele>321</ele>
        <time>2015-04-26T07:32:10.000Z</time>
      </trkpt>
      <trkpt lat="47.49163" lon="6.76022">
        <ele>322</ele>
        <time>2015-04-26T07:32:11.000Z</time>
      </trkpt>
      <trkpt lat="47.49161" lon="6.76031">
        <ele>322</ele>
        <time>2015-04-26T07:32:12.000Z</time>
      </trkpt>
      <trkpt lat="47.49158" lon="6.76038">
        <ele>322</ele>
        <time>2015-04-26T07:32:13.000Z</time>
      </trkpt>
      <trkpt lat="47.49153" lon="6.76047">
        <ele>323</ele>
        <time>2015-04-26T07:32:14.000Z</time>
      </trkpt>
      <trkpt lat="47.49149" lon="6.76054">
        <ele>323</ele>
        <time>2015-04-26T07:32:15.000Z</time>
      </trkpt>
      <trkpt lat="47.49147" lon="6.76062">
        <ele>322</ele>
        <time>2015-04-26T07:32:16.000Z</time>
      </trkpt>
      <trkpt lat="47.49145" lon="6.7607">
        <ele>322</ele>
        <time>2015-04-26T07:32:17.000Z</time>
      </trkpt>
      <trkpt lat="47.49144" lon="6.76078">
        <ele>322</ele>
        <time>2015-04-26T07:32:18.000Z</time>
      </trkpt>
      <trkpt lat="47.49142" lon="6.76086">
        <ele>321</ele>
        <time>2015-04-26T07:32:19.000Z</time>
      </trkpt>
      <trkpt lat="47.4914" lon="6.76094">
        <ele>321</ele>
        <time>2015-04-26T07:32:20.000Z</time>
      </trkpt>
      <trkpt lat="47.49138" lon="6.76102">
        <ele>322</ele>
        <time>2015-04-26T07:32:21.000Z</time>
      </trkpt>
      <trkpt lat="47.49136" lon="6.7611">
        <ele>322</ele>
        <time>2015-04-26T07:32:22.000Z</time>
      </trkpt>
      <trkpt lat="47.49135" lon="6.76119">
        <ele>322</ele>
        <time>2015-04-26T07:32:23.000Z</time>
      </trkpt>
      <trkpt lat="47.49132" lon="6.76127">
        <ele>322</ele>
        <time>2015-04-26T07:32:24.000Z</time>
      </trkpt>
      <trkpt lat="47.49131" lon="6.76136">
        <ele>322</ele>
        <time>2015-04-26T07:32:25.000Z</time>
      </trkpt>
      <trkpt lat="47.4913" lon="6.76145">
        <ele>322</ele>
        <time>2015-04-26T07:32:26.000Z</time>
      </trkpt>
      <trkpt lat="47.49129" lon="6.76152">
        <ele>322</ele>
        <time>2015-04-26T07:32:27.000Z</time>
      </trkpt>
      <trkpt lat="47.49128" lon="6.7616">
        <ele>322</ele>
        <time>2015-04-26T07:32:28.000Z</time>
      </trkpt>
      <trkpt lat="47.49127" lon="6.76166">
        <ele>322</ele>
        <time>2015-04-26T07:32:29.000Z</time>
      </trkpt>
      <trkpt lat="47.49126" lon="6.76174">
        <ele>321</ele>
        <time>2015-04-26T07:32:30.000Z</time>
      </trkpt>
      <trkpt lat="47.49126" lon="6.76183">
        <ele>321</ele>
        <time>2015-04-26T07:32:31.000Z</time>
      </trkpt>
      <trkpt lat="47.49125" lon="6.76192">
        <ele>321</ele>
        <time>2015-04-26T07:32:32.000Z</time>
      </trkpt>
      <trkpt lat="47.49125" lon="6.762">
        <ele>321</ele>
        <time>2015-04-26T07:32:33.000Z</time>
      </trkpt>
      <trkpt lat="47.49124" lon="6.76212">
        <ele>321</ele>
        <time>2015-04-26T07:32:35.000Z</time>
      </trkpt>
      <trkpt lat="47.49123" lon="6.76218">
        <ele>321</ele>
        <time>2015-04-26T07:32:36.000Z</time>
      </trkpt>
      <trkpt lat="47.49123" lon="6.76227">
        <ele>321</ele>
        <time>2015-04-26T07:32:37.000Z</time>
      </trkpt>
      <trkpt lat="47.49124" lon="6.76236">
        <ele>321</ele>
        <time>2015-04-26T07:32:38.000Z</time>
      </trkpt>
      <trkpt lat="47.49124" lon="6.76245">
        <ele>321</ele>
        <time>2015-04-26T07:32:39.000Z</time>
      </trkpt>
      <trkpt lat="47.49125" lon="6.76254">
        <ele>320</ele>
        <time>2015-04-26T07:32:40.000Z</time>
      </trkpt>
      <trkpt lat="47.49125" lon="6.76263">
        <ele>320</ele>
        <time>2015-04-26T07:32:41.000Z</time>
      </trkpt>
      <trkpt lat="47.49124" lon="6.7627">
        <ele>320</ele>
        <time>2015-04-26T07:32:42.000Z</time>
      </trkpt>
      <trkpt lat="47.49123" lon="6.76277">
        <ele>320</ele>
        <time>2015-04-26T07:32:43.000Z</time>
      </trkpt>
      <trkpt lat="47.49121" lon="6.76284">
        <ele>320</ele>
        <time>2015-04-26T07:32:44.000Z</time>
      </trkpt>
      <trkpt lat="47.4912" lon="6.76291">
        <ele>320</ele>
        <time>2015-04-26T07:32:45.000Z</time>
      </trkpt>
      <trkpt lat="47.49119" lon="6.76301">
        <ele>320</ele>
        <time>2015-04-26T07:32:46.000Z</time>
      </trkpt>
      <trkpt lat="47.49121" lon="6.76309">
        <ele>320</ele>
        <time>2015-04-26T07:32:47.000Z</time>
      </trkpt>
      <trkpt lat="47.4912" lon="6.76318">
        <ele>320</ele>
        <time>2015-04-26T07:32:48.000Z</time>
      </trkpt>
      <trkpt lat="47.4912" lon="6.76325">
        <ele>320</ele>
        <time>2015-04-26T07:32:49.000Z</time>
      </trkpt>
      <trkpt lat="47.49119" lon="6.76331">
        <ele>320</ele>
        <time>2015-04-26T07:32:50.000Z</time>
      </trkpt>
      <trkpt lat="47.49118" lon="6.76339">
        <ele>319</ele>
        <time>2015-04-26T07:32:51.000Z</time>
      </trkpt>
      <trkpt lat="47.49118" lon="6.76347">
        <ele>318</ele>
        <time>2015-04-26T07:32:52.000Z</time>
      </trkpt>
      <trkpt lat="47.49118" lon="6.76357">
        <ele>318</ele>
        <time>2015-04-26T07:32:53.000Z</time>
      </trkpt>
      <trkpt lat="47.4912" lon="6.7637">
        <ele>318</ele>
        <time>2015-04-26T07:32:54.000Z</time>
      </trkpt>
      <trkpt lat="47.49121" lon="6.76381">
        <ele>318</ele>
        <time>2015-04-26T07:32:55.000Z</time>
      </trkpt>
      <trkpt lat="47.49122" lon="6.7639">
        <ele>318</ele>
        <time>2015-04-26T07:32:56.000Z</time>
      </trkpt>
      <trkpt lat="47.4912" lon="6.764">
        <ele>318</ele>
        <time>2015-04-26T07:32:57.000Z</time>
      </trkpt>
      <trkpt lat="47.4912" lon="6.76409">
        <ele>318</ele>
        <time>2015-04-26T07:32:58.000Z</time>
      </trkpt>
      <trkpt lat="47.4912" lon="6.76418">
        <ele>317</ele>
        <time>2015-04-26T07:32:59.000Z</time>
      </trkpt>
      <trkpt lat="47.49121" lon="6.76427">
        <ele>317</ele>
        <time>2015-04-26T07:33:00.000Z</time>
      </trkpt>
      <trkpt lat="47.4912" lon="6.76436">
        <ele>317</ele>
        <time>2015-04-26T07:33:01.000Z</time>
      </trkpt>
      <trkpt lat="47.4912" lon="6.76446">
        <ele>317</ele>
        <time>2015-04-26T07:33:02.000Z</time>
      </trkpt>
      <trkpt lat="47.49121" lon="6.76453">
        <ele>317</ele>
        <time>2015-04-26T07:33:03.000Z</time>
      </trkpt>
      <trkpt lat="47.4912" lon="6.76462">
        <ele>317</ele>
        <time>2015-04-26T07:33:04.000Z</time>
      </trkpt>
      <trkpt lat="47.49119" lon="6.76471">
        <ele>317</ele>
        <time>2015-04-26T07:33:05.000Z</time>
      </trkpt>
      <trkpt lat="47.49118" lon="6.76479">
        <ele>317</ele>
        <time>2015-04-26T07:33:06.000Z</time>
      </trkpt>
      <trkpt lat="47.49117" lon="6.76485">
        <ele>318</ele>
        <time>2015-04-26T07:33:07.000Z</time>
      </trkpt>
      <trkpt lat="47.49117" lon="6.76495">
        <ele>318</ele>
        <time>2015-04-26T07:33:08.000Z</time>
      </trkpt>
      <trkpt lat="47.49117" lon="6.76504">
        <ele>317</ele>
        <time>2015-04-26T07:33:09.000Z</time>
      </trkpt>
      <trkpt lat="47.49119" lon="6.76513">
        <ele>317</ele>
        <time>2015-04-26T07:33:10.000Z</time>
      </trkpt>
      <trkpt lat="47.49124" lon="6.7652">
        <ele>316</ele>
        <time>2015-04-26T07:33:11.000Z</time>
      </trkpt>
      <trkpt lat="47.49129" lon="6.76522">
        <ele>316</ele>
        <time>2015-04-26T07:33:12.000Z</time>
      </trkpt>
      <trkpt lat="47.49135" lon="6.76523">
        <ele>316</ele>
        <time>2015-04-26T07:33:13.000Z</time>
      </trkpt>
      <trkpt lat="47.4914" lon="6.76524">
        <ele>315</ele>
        <time>2015-04-26T07:33:14.000Z</time>
      </trkpt>
      <trkpt lat="47.49145" lon="6.76521">
        <ele>315</ele>
        <time>2015-04-26T07:33:15.000Z</time>
      </trkpt>
      <trkpt lat="47.4915" lon="6.76519">
        <ele>315</ele>
        <time>2015-04-26T07:33:16.000Z</time>
      </trkpt>
      <trkpt lat="47.49155" lon="6.76515">
        <ele>314</ele>
        <time>2015-04-26T07:33:17.000Z</time>
      </trkpt>
      <trkpt lat="47.49159" lon="6.76512">
        <ele>314</ele>
        <time>2015-04-26T07:33:18.000Z</time>
      </trkpt>
      <trkpt lat="47.49161" lon="6.76508">
        <ele>314</ele>
        <time>2015-04-26T07:33:19.000Z</time>
      </trkpt>
      <trkpt lat="47.49164" lon="6.76504">
        <ele>313</ele>
        <time>2015-04-26T07:33:21.000Z</time>
      </trkpt>
      <trkpt lat="47.49166" lon="6.76502">
        <ele>313</ele>
        <time>2015-04-26T07:33:22.000Z</time>
      </trkpt>
      <trkpt lat="47.49168" lon="6.76498">
        <ele>313</ele>
        <time>2015-04-26T07:33:23.000Z</time>
      </trkpt>
      <trkpt lat="47.49169" lon="6.76495">
        <ele>314</ele>
        <time>2015-04-26T07:33:24.000Z</time>
      </trkpt>
      <trkpt lat="47.4917" lon="6.76492">
        <ele>314</ele>
        <time>2015-04-26T07:33:25.000Z</time>
      </trkpt>
      <trkpt lat="47.49171" lon="6.76489">
        <ele>315</ele>
        <time>2015-04-26T07:33:26.000Z</time>
      </trkpt>
      <trkpt lat="47.49169" lon="6.76483">
        <ele>315</ele>
        <time>2015-04-26T07:33:28.000Z</time>
      </trkpt>
      <trkpt lat="47.49169" lon="6.76481">
        <ele>315</ele>
        <time>2015-04-26T07:33:29.000Z</time>
      </trkpt>
      <trkpt lat="47.49173" lon="6.76483">
        <ele>315</ele>
        <time>2015-04-26T07:37:24.000Z</time>
      </trkpt>
      <trkpt lat="47.49174" lon="6.76483">
        <ele>315</ele>
        <time>2015-04-26T07:37:25.000Z</time>
      </trkpt>
      <trkpt lat="47.49176" lon="6.76489">
        <ele>315</ele>
        <time>2015-04-26T07:37:34.000Z</time>
      </trkpt>
      <trkpt lat="47.49175" lon="6.76491">
        <ele>315</ele>
        <time>2015-04-26T07:37:35.000Z</time>
      </trkpt>
      <trkpt lat="47.49174" lon="6.76494">
        <ele>315</ele>
        <time>2015-04-26T07:37:36.000Z</time>
      </trkpt>
      <trkpt lat="47.49173" lon="6.76497">
        <ele>314</ele>
        <time>2015-04-26T07:37:37.000Z</time>
      </trkpt>
      <trkpt lat="47.4917" lon="6.765">
        <ele>314</ele>
        <time>2015-04-26T07:37:38.000Z</time>
      </trkpt>
      <trkpt lat="47.49168" lon="6.76502">
        <ele>313</ele>
        <time>2015-04-26T07:37:39.000Z</time>
      </trkpt>
      <trkpt lat="47.49164" lon="6.76504">
        <ele>314</ele>
        <time>2015-04-26T07:37:40.000Z</time>
      </trkpt>
      <trkpt lat="47.49156" lon="6.76507">
        <ele>314</ele>
        <time>2015-04-26T07:37:41.000Z</time>
      </trkpt>
      <trkpt lat="47.49152" lon="6.76509">
        <ele>314</ele>
        <time>2015-04-26T07:37:42.000Z</time>
      </trkpt>
      <trkpt lat="47.49146" lon="6.76512">
        <ele>315</ele>
        <time>2015-04-26T07:37:43.000Z</time>
      </trkpt>
      <trkpt lat="47.49141" lon="6.76516">
        <ele>315</ele>
        <time>2015-04-26T07:37:44.000Z</time>
      </trkpt>
      <trkpt lat="47.49136" lon="6.76517">
        <ele>315</ele>
        <time>2015-04-26T07:37:45.000Z</time>
      </trkpt>
      <trkpt lat="47.4913" lon="6.76516">
        <ele>316</ele>
        <time>2015-04-26T07:37:46.000Z</time>
      </trkpt>
      <trkpt lat="47.49125" lon="6.76517">
        <ele>316</ele>
        <time>2015-04-26T07:37:47.000Z</time>
      </trkpt>
      <trkpt lat="47.49124" lon="6.76526">
        <ele>316</ele>
        <time>2015-04-26T07:37:48.000Z</time>
      </trkpt>
      <trkpt lat="47.49122" lon="6.76533">
        <ele>316</ele>
        <time>2015-04-26T07:37:49.000Z</time>
      </trkpt>
      <trkpt lat="47.4912" lon="6.7654">
        <ele>316</ele>
        <time>2015-04-26T07:37:50.000Z</time>
      </trkpt>
      <trkpt lat="47.4912" lon="6.76547">
        <ele>316</ele>
        <time>2015-04-26T07:37:51.000Z</time>
      </trkpt>
      <trkpt lat="47.4912" lon="6.76553">
        <ele>316</ele>
        <time>2015-04-26T07:37:52.000Z</time>
      </trkpt>
      <trkpt lat="47.49122" lon="6.7656">
        <ele>316</ele>
        <time>2015-04-26T07:37:53.000Z</time>
      </trkpt>
      <trkpt lat="47.49122" lon="6.76567">
        <ele>316</ele>
        <time>2015-04-26T07:37:54.000Z</time>
      </trkpt>
      <trkpt lat="47.49122" lon="6.76575">
        <ele>315</ele>
        <time>2015-04-26T07:37:55.000Z</time>
      </trkpt>
      <trkpt lat="47.49123" lon="6.76583">
        <ele>315</ele>
        <time>2015-04-26T07:37:56.000Z</time>
      </trkpt>
      <trkpt lat="47.49123" lon="6.7659">
        <ele>314</ele>
        <time>2015-04-26T07:37:57.000Z</time>
      </trkpt>
      <trkpt lat="47.49124" lon="6.76597">
        <ele>314</ele>
        <time>2015-04-26T07:37:58.000Z</time>
      </trkpt>
      <trkpt lat="47.49125" lon="6.76603">
        <ele>314</ele>
        <time>2015-04-26T07:37:59.000Z</time>
      </trkpt>
      <trkpt lat="47.49127" lon="6.76611">
        <ele>314</ele>
        <time>2015-04-26T07:38:00.000Z</time>
      </trkpt>
      <trkpt lat="47.49128" lon="6.76618">
        <ele>314</ele>
        <time>2015-04-26T07:38:01.000Z</time>
      </trkpt>
      <trkpt lat="47.49128" lon="6.76625">
        <ele>314</ele>
        <time>2015-04-26T07:38:02.000Z</time>
      </trkpt>
      <trkpt lat="47.49128" lon="6.76633">
        <ele>314</ele>
        <time>2015-04-26T07:38:03.000Z</time>
      </trkpt>
      <trkpt lat="47.4913" lon="6.7664">
        <ele>314</ele>
        <time>2015-04-26T07:38:04.000Z</time>
      </trkpt>
      <trkpt lat="47.4913" lon="6.76648">
        <ele>314</ele>
        <time>2015-04-26T07:38:05.000Z</time>
      </trkpt>
      <trkpt lat="47.49131" lon="6.76655">
        <ele>314</ele>
        <time>2015-04-26T07:38:06.000Z</time>
      </trkpt>
      <trkpt lat="47.49132" lon="6.76664">
        <ele>314</ele>
        <time>2015-04-26T07:38:07.000Z</time>
      </trkpt>
      <trkpt lat="47.49134" lon="6.76673">
        <ele>314</ele>
        <time>2015-04-26T07:38:08.000Z</time>
      </trkpt>
      <trkpt lat="47.49135" lon="6.76681">
        <ele>314</ele>
        <time>2015-04-26T07:38:09.000Z</time>
      </trkpt>
      <trkpt lat="47.49137" lon="6.76689">
        <ele>313</ele>
        <time>2015-04-26T07:38:10.000Z</time>
      </trkpt>
      <trkpt lat="47.49138" lon="6.76697">
        <ele>313</ele>
        <time>2015-04-26T07:38:11.000Z</time>
      </trkpt>
      <trkpt lat="47.49139" lon="6.76705">
        <ele>313</ele>
        <time>2015-04-26T07:38:12.000Z</time>
      </trkpt>
      <trkpt lat="47.49141" lon="6.76712">
        <ele>313</ele>
        <time>2015-04-26T07:38:13.000Z</time>
      </trkpt>
      <trkpt lat="47.4914" lon="6.7672">
        <ele>313</ele>
        <time>2015-04-26T07:38:14.000Z</time>
      </trkpt>
      <trkpt lat="47.49141" lon="6.76727">
        <ele>313</ele>
        <time>2015-04-26T07:38:15.000Z</time>
      </trkpt>
      <trkpt lat="47.49143" lon="6.76736">
        <ele>313</ele>
        <time>2015-04-26T07:38:16.000Z</time>
      </trkpt>
      <trkpt lat="47.49143" lon="6.76744">
        <ele>313</ele>
        <time>2015-04-26T07:38:17.000Z</time>
      </trkpt>
      <trkpt lat="47.49142" lon="6.76753">
        <ele>313</ele>
        <time>2015-04-26T07:38:18.000Z</time>
      </trkpt>
      <trkpt lat="47.49143" lon="6.76761">
        <ele>313</ele>
        <time>2015-04-26T07:38:19.000Z</time>
      </trkpt>
      <trkpt lat="47.49144" lon="6.76769">
        <ele>312</ele>
        <time>2015-04-26T07:38:20.000Z</time>
      </trkpt>
      <trkpt lat="47.49144" lon="6.76777">
        <ele>312</ele>
        <time>2015-04-26T07:38:21.000Z</time>
      </trkpt>
      <trkpt lat="47.49145" lon="6.76784">
        <ele>312</ele>
        <time>2015-04-26T07:38:22.000Z</time>
      </trkpt>
      <trkpt lat="47.49145" lon="6.76792">
        <ele>312</ele>
        <time>2015-04-26T07:38:23.000Z</time>
      </trkpt>
      <trkpt lat="47.49145" lon="6.768">
        <ele>312</ele>
        <time>2015-04-26T07:38:24.000Z</time>
      </trkpt>
      <trkpt lat="47.49146" lon="6.76807">
        <ele>312</ele>
        <time>2015-04-26T07:38:25.000Z</time>
      </trkpt>
      <trkpt lat="47.49146" lon="6.76815">
        <ele>312</ele>
        <time>2015-04-26T07:38:26.000Z</time>
      </trkpt>
      <trkpt lat="47.49145" lon="6.76823">
        <ele>312</ele>
        <time>2015-04-26T07:38:27.000Z</time>
      </trkpt>
      <trkpt lat="47.49146" lon="6.76831">
        <ele>313</ele>
        <time>2015-04-26T07:38:28.000Z</time>
      </trkpt>
      <trkpt lat="47.49146" lon="6.76839">
        <ele>312</ele>
        <time>2015-04-26T07:38:29.000Z</time>
      </trkpt>
      <trkpt lat="47.49146" lon="6.76846">
        <ele>312</ele>
        <time>2015-04-26T07:38:30.000Z</time>
      </trkpt>
      <trkpt lat="47.49146" lon="6.76855">
        <ele>312</ele>
        <time>2015-04-26T07:38:31.000Z</time>
      </trkpt>
      <trkpt lat="47.49145" lon="6.76865">
        <ele>312</ele>
        <time>2015-04-26T07:38:32.000Z</time>
      </trkpt>
      <trkpt lat="47.49145" lon="6.76873">
        <ele>312</ele>
        <time>2015-04-26T07:38:33.000Z</time>
      </trkpt>
      <trkpt lat="47.49145" lon="6.76881">
        <ele>312</ele>
        <time>2015-04-26T07:38:34.000Z</time>
      </trkpt>
      <trkpt lat="47.49145" lon="6.76889">
        <ele>312</ele>
        <time>2015-04-26T07:38:35.000Z</time>
      </trkpt>
      <trkpt lat="47.49145" lon="6.76896">
        <ele>312</ele>
        <time>2015-04-26T07:38:36.000Z</time>
      </trkpt>
      <trkpt lat="47.49145" lon="6.76904">
        <ele>312</ele>
        <time>2015-04-26T07:38:37.000Z</time>
      </trkpt>
      <trkpt lat="47.49146" lon="6.7691">
        <ele>312</ele>
        <time>2015-04-26T07:38:38.000Z</time>
      </trkpt>
      <trkpt lat="47.49145" lon="6.76917">
        <ele>312</ele>
        <time>2015-04-26T07:38:39.000Z</time>
      </trkpt>
      <trkpt lat="47.49144" lon="6.76924">
        <ele>312</ele>
        <time>2015-04-26T07:38:40.000Z</time>
      </trkpt>
      <trkpt lat="47.49143" lon="6.7693">
        <ele>312</ele>
        <time>2015-04-26T07:38:41.000Z</time>
      </trkpt>
      <trkpt lat="47.49142" lon="6.76936">
        <ele>312</ele>
        <time>2015-04-26T07:38:42.000Z</time>
      </trkpt>
      <trkpt lat="47.49142" lon="6.76942">
        <ele>312</ele>
        <time>2015-04-26T07:38:43.000Z</time>
      </trkpt>
      <trkpt lat="47.49141" lon="6.76949">
        <ele>312</ele>
        <time>2015-04-26T07:38:44.000Z</time>
      </trkpt>
      <trkpt lat="47.49141" lon="6.76957">
        <ele>312</ele>
        <time>2015-04-26T07:38:45.000Z</time>
      </trkpt>
      <trkpt lat="47.49141" lon="6.76964">
        <ele>312</ele>
        <time>2015-04-26T07:38:46.000Z</time>
      </trkpt>
      <trkpt lat="47.49141" lon="6.76972">
        <ele>312</ele>
        <time>2015-04-26T07:38:47.000Z</time>
      </trkpt>
      <trkpt lat="47.49145" lon="6.76981">
        <ele>312</ele>
        <time>2015-04-26T07:38:48.000Z</time>
      </trkpt>
      <trkpt lat="47.49147" lon="6.76989">
        <ele>312</ele>
        <time>2015-04-26T07:38:49.000Z</time>
      </trkpt>
      <trkpt lat="47.49151" lon="6.76997">
        <ele>312</ele>
        <time>2015-04-26T07:38:50.000Z</time>
      </trkpt>
      <trkpt lat="47.49153" lon="6.77004">
        <ele>312</ele>
        <time>2015-04-26T07:38:51.000Z</time>
      </trkpt>
      <trkpt lat="47.49156" lon="6.77012">
        <ele>312</ele>
        <time>2015-04-26T07:38:52.000Z</time>
      </trkpt>
      <trkpt lat="47.49158" lon="6.77021">
        <ele>312</ele>
        <time>2015-04-26T07:38:53.000Z</time>
      </trkpt>
      <trkpt lat="47.49161" lon="6.77029">
        <ele>312</ele>
        <time>2015-04-26T07:38:54.000Z</time>
      </trkpt>
      <trkpt lat="47.49162" lon="6.77038">
        <ele>312</ele>
        <time>2015-04-26T07:38:55.000Z</time>
      </trkpt>
      <trkpt lat="47.49163" lon="6.77046">
        <ele>312</ele>
        <time>2015-04-26T07:38:56.000Z</time>
      </trkpt>
      <trkpt lat="47.49165" lon="6.77052">
        <ele>312</ele>
        <time>2015-04-26T07:38:57.000Z</time>
      </trkpt>
      <trkpt lat="47.49166" lon="6.7706">
        <ele>312</ele>
        <time>2015-04-26T07:38:58.000Z</time>
      </trkpt>
      <trkpt lat="47.49167" lon="6.77068">
        <ele>312</ele>
        <time>2015-04-26T07:38:59.000Z</time>
      </trkpt>
      <trkpt lat="47.49168" lon="6.77075">
        <ele>312</ele>
        <time>2015-04-26T07:39:00.000Z</time>
      </trkpt>
      <trkpt lat="47.49169" lon="6.77083">
        <ele>312</ele>
        <time>2015-04-26T07:39:01.000Z</time>
      </trkpt>
      <trkpt lat="47.4917" lon="6.7709">
        <ele>312</ele>
        <time>2015-04-26T07:39:02.000Z</time>
      </trkpt>
      <trkpt lat="47.49172" lon="6.77097">
        <ele>312</ele>
        <time>2015-04-26T07:39:03.000Z</time>
      </trkpt>
      <trkpt lat="47.49172" lon="6.77104">
        <ele>312</ele>
        <time>2015-04-26T07:39:04.000Z</time>
      </trkpt>
      <trkpt lat="47.49173" lon="6.77111">
        <ele>313</ele>
        <time>2015-04-26T07:39:05.000Z</time>
      </trkpt>
      <trkpt lat="47.49174" lon="6.77116">
        <ele>313</ele>
        <time>2015-04-26T07:39:06.000Z</time>
      </trkpt>
      <trkpt lat="47.49176" lon="6.77119">
        <ele>313</ele>
        <time>2015-04-26T07:39:07.000Z</time>
      </trkpt>
      <trkpt lat="47.49177" lon="6.77125">
        <ele>313</ele>
        <time>2015-04-26T07:39:09.000Z</time>
      </trkpt>
      <trkpt lat="47.49177" lon="6.77129">
        <ele>313</ele>
        <time>2015-04-26T07:39:10.000Z</time>
      </trkpt>
      <trkpt lat="47.49176" lon="6.77132">
        <ele>313</ele>
        <time>2015-04-26T07:39:11.000Z</time>
      </trkpt>
      <trkpt lat="47.49177" lon="6.77137">
        <ele>313</ele>
        <time>2015-04-26T07:39:12.000Z</time>
      </trkpt>
      <trkpt lat="47.49178" lon="6.77144">
        <ele>313</ele>
        <time>2015-04-26T07:39:13.000Z</time>
      </trkpt>
      <trkpt lat="47.49179" lon="6.77148">
        <ele>313</ele>
        <time>2015-04-26T07:39:14.000Z</time>
      </trkpt>
      <trkpt lat="47.49179" lon="6.77154">
        <ele>313</ele>
        <time>2015-04-26T07:39:15.000Z</time>
      </trkpt>
      <trkpt lat="47.4918" lon="6.77161">
        <ele>313</ele>
        <time>2015-04-26T07:39:16.000Z</time>
      </trkpt>
      <trkpt lat="47.4918" lon="6.77169">
        <ele>313</ele>
        <time>2015-04-26T07:39:17.000Z</time>
      </trkpt>
      <trkpt lat="47.4918" lon="6.77176">
        <ele>313</ele>
        <time>2015-04-26T07:39:18.000Z</time>
      </trkpt>
      <trkpt lat="47.4918" lon="6.77183">
        <ele>313</ele>
        <time>2015-04-26T07:39:19.000Z</time>
      </trkpt>
      <trkpt lat="47.4918" lon="6.7719">
        <ele>313</ele>
        <time>2015-04-26T07:39:20.000Z</time>
      </trkpt>
      <trkpt lat="47.4918" lon="6.77196">
        <ele>312</ele>
        <time>2015-04-26T07:39:21.000Z</time>
      </trkpt>
      <trkpt lat="47.49179" lon="6.77203">
        <ele>312</ele>
        <time>2015-04-26T07:39:22.000Z</time>
      </trkpt>
      <trkpt lat="47.49179" lon="6.7721">
        <ele>312</ele>
        <time>2015-04-26T07:39:23.000Z</time>
      </trkpt>
      <trkpt lat="47.4918" lon="6.77217">
        <ele>312</ele>
        <time>2015-04-26T07:39:24.000Z</time>
      </trkpt>
      <trkpt lat="47.4918" lon="6.77224">
        <ele>312</ele>
        <time>2015-04-26T07:39:25.000Z</time>
      </trkpt>
      <trkpt lat="47.49181" lon="6.77231">
        <ele>312</ele>
        <time>2015-04-26T07:39:26.000Z</time>
      </trkpt>
      <trkpt lat="47.49182" lon="6.77239">
        <ele>312</ele>
        <time>2015-04-26T07:39:27.000Z</time>
      </trkpt>
      <trkpt lat="47.49182" lon="6.77247">
        <ele>312</ele>
        <time>2015-04-26T07:39:28.000Z</time>
      </trkpt>
      <trkpt lat="47.49184" lon="6.77254">
        <ele>311</ele>
        <time>2015-04-26T07:39:29.000Z</time>
      </trkpt>
      <trkpt lat="47.49183" lon="6.77262">
        <ele>311</ele>
        <time>2015-04-26T07:39:30.000Z</time>
      </trkpt>
      <trkpt lat="47.49182" lon="6.77272">
        <ele>311</ele>
        <time>2015-04-26T07:39:31.000Z</time>
      </trkpt>
      <trkpt lat="47.49181" lon="6.7728">
        <ele>311</ele>
        <time>2015-04-26T07:39:32.000Z</time>
      </trkpt>
      <trkpt lat="47.49181" lon="6.77288">
        <ele>311</ele>
        <time>2015-04-26T07:39:33.000Z</time>
      </trkpt>
      <trkpt lat="47.4918" lon="6.77297">
        <ele>311</ele>
        <time>2015-04-26T07:39:34.000Z</time>
      </trkpt>
      <trkpt lat="47.49179" lon="6.77304">
        <ele>311</ele>
        <time>2015-04-26T07:39:35.000Z</time>
      </trkpt>
      <trkpt lat="47.49178" lon="6.77312">
        <ele>311</ele>
        <time>2015-04-26T07:39:36.000Z</time>
      </trkpt>
      <trkpt lat="47.49176" lon="6.77319">
        <ele>310</ele>
        <time>2015-04-26T07:39:37.000Z</time>
      </trkpt>
      <trkpt lat="47.49175" lon="6.77326">
        <ele>310</ele>
        <time>2015-04-26T07:39:38.000Z</time>
      </trkpt>
      <trkpt lat="47.49173" lon="6.77329">
        <ele>310</ele>
        <time>2015-04-26T07:39:39.000Z</time>
      </trkpt>
      <trkpt lat="47.49171" lon="6.77331">
        <ele>310</ele>
        <time>2015-04-26T07:39:40.000Z</time>
      </trkpt>
      <trkpt lat="47.49166" lon="6.77329">
        <ele>310</ele>
        <time>2015-04-26T07:39:41.000Z</time>
      </trkpt>
      <trkpt lat="47.49161" lon="6.77329">
        <ele>310</ele>
        <time>2015-04-26T07:39:42.000Z</time>
      </trkpt>
      <trkpt lat="47.49156" lon="6.77328">
        <ele>310</ele>
        <time>2015-04-26T07:39:43.000Z</time>
      </trkpt>
      <trkpt lat="47.49152" lon="6.77327">
        <ele>311</ele>
        <time>2015-04-26T07:39:44.000Z</time>
      </trkpt>
      <trkpt lat="47.49146" lon="6.77327">
        <ele>311</ele>
        <time>2015-04-26T07:39:45.000Z</time>
      </trkpt>
      <trkpt lat="47.4914" lon="6.77327">
        <ele>311</ele>
        <time>2015-04-26T07:39:46.000Z</time>
      </trkpt>
      <trkpt lat="47.49134" lon="6.77326">
        <ele>311</ele>
        <time>2015-04-26T07:39:47.000Z</time>
      </trkpt>
      <trkpt lat="47.49129" lon="6.77326">
        <ele>311</ele>
        <time>2015-04-26T07:39:48.000Z</time>
      </trkpt>
      <trkpt lat="47.49124" lon="6.77324">
        <ele>311</ele>
        <time>2015-04-26T07:39:49.000Z</time>
      </trkpt>
      <trkpt lat="47.49118" lon="6.77324">
        <ele>311</ele>
        <time>2015-04-26T07:39:50.000Z</time>
      </trkpt>
      <trkpt lat="47.49113" lon="6.77323">
        <ele>311</ele>
        <time>2015-04-26T07:39:51.000Z</time>
      </trkpt>
      <trkpt lat="47.49107" lon="6.77323">
        <ele>311</ele>
        <time>2015-04-26T07:39:52.000Z</time>
      </trkpt>
      <trkpt lat="47.49102" lon="6.77323">
        <ele>311</ele>
        <time>2015-04-26T07:39:53.000Z</time>
      </trkpt>
      <trkpt lat="47.49096" lon="6.77324">
        <ele>311</ele>
        <time>2015-04-26T07:39:54.000Z</time>
      </trkpt>
      <trkpt lat="47.4909" lon="6.77324">
        <ele>311</ele>
        <time>2015-04-26T07:39:55.000Z</time>
      </trkpt>
      <trkpt lat="47.49084" lon="6.77323">
        <ele>311</ele>
        <time>2015-04-26T07:39:56.000Z</time>
      </trkpt>
      <trkpt lat="47.49079" lon="6.77322">
        <ele>311</ele>
        <time>2015-04-26T07:39:57.000Z</time>
      </trkpt>
      <trkpt lat="47.49074" lon="6.77322">
        <ele>311</ele>
        <time>2015-04-26T07:39:58.000Z</time>
      </trkpt>
      <trkpt lat="47.49068" lon="6.77322">
        <ele>311</ele>
        <time>2015-04-26T07:39:59.000Z</time>
      </trkpt>
      <trkpt lat="47.49062" lon="6.77323">
        <ele>311</ele>
        <time>2015-04-26T07:40:00.000Z</time>
      </trkpt>
      <trkpt lat="47.49056" lon="6.77321">
        <ele>311</ele>
        <time>2015-04-26T07:40:01.000Z</time>
      </trkpt>
      <trkpt lat="47.49051" lon="6.7732">
        <ele>311</ele>
        <time>2015-04-26T07:40:02.000Z</time>
      </trkpt>
      <trkpt lat="47.49045" lon="6.77319">
        <ele>311</ele>
        <time>2015-04-26T07:40:03.000Z</time>
      </trkpt>
      <trkpt lat="47.4904" lon="6.77319">
        <ele>311</ele>
        <time>2015-04-26T07:40:04.000Z</time>
      </trkpt>
      <trkpt lat="47.49034" lon="6.77319">
        <ele>311</ele>
        <time>2015-04-26T07:40:05.000Z</time>
      </trkpt>
      <trkpt lat="47.49029" lon="6.77318">
        <ele>311</ele>
        <time>2015-04-26T07:40:06.000Z</time>
      </trkpt>
      <trkpt lat="47.49023" lon="6.77318">
        <ele>311</ele>
        <time>2015-04-26T07:40:07.000Z</time>
      </trkpt>
      <trkpt lat="47.49017" lon="6.77318">
        <ele>311</ele>
        <time>2015-04-26T07:40:08.000Z</time>
      </trkpt>
      <trkpt lat="47.49011" lon="6.77317">
        <ele>311</ele>
        <time>2015-04-26T07:40:09.000Z</time>
      </trkpt>
      <trkpt lat="47.49005" lon="6.77317">
        <ele>311</ele>
        <time>2015-04-26T07:40:10.000Z</time>
      </trkpt>
      <trkpt lat="47.49" lon="6.77316">
        <ele>311</ele>
        <time>2015-04-26T07:40:11.000Z</time>
      </trkpt>
      <trkpt lat="47.48994" lon="6.77315">
        <ele>311</ele>
        <time>2015-04-26T07:40:12.000Z</time>
      </trkpt>
      <trkpt lat="47.48988" lon="6.77315">
        <ele>311</ele>
        <time>2015-04-26T07:40:13.000Z</time>
      </trkpt>
      <trkpt lat="47.48982" lon="6.77315">
        <ele>311</ele>
        <time>2015-04-26T07:40:14.000Z</time>
      </trkpt>
      <trkpt lat="47.48976" lon="6.77314">
        <ele>311</ele>
        <time>2015-04-26T07:40:15.000Z</time>
      </trkpt>
      <trkpt lat="47.4897" lon="6.77314">
        <ele>311</ele>
        <time>2015-04-26T07:40:16.000Z</time>
      </trkpt>
      <trkpt lat="47.48963" lon="6.77315">
        <ele>311</ele>
        <time>2015-04-26T07:40:17.000Z</time>
      </trkpt>
      <trkpt lat="47.48958" lon="6.77314">
        <ele>311</ele>
        <time>2015-04-26T07:40:18.000Z</time>
      </trkpt>
      <trkpt lat="47.48951" lon="6.77312">
        <ele>311</ele>
        <time>2015-04-26T07:40:19.000Z</time>
      </trkpt>
      <trkpt lat="47.48945" lon="6.77309">
        <ele>311</ele>
        <time>2015-04-26T07:40:20.000Z</time>
      </trkpt>
      <trkpt lat="47.48939" lon="6.77307">
        <ele>311</ele>
        <time>2015-04-26T07:40:21.000Z</time>
      </trkpt>
      <trkpt lat="47.48933" lon="6.77305">
        <ele>311</ele>
        <time>2015-04-26T07:40:22.000Z</time>
      </trkpt>
      <trkpt lat="47.48927" lon="6.77302">
        <ele>311</ele>
        <time>2015-04-26T07:40:23.000Z</time>
      </trkpt>
      <trkpt lat="47.48921" lon="6.773">
        <ele>311</ele>
        <time>2015-04-26T07:40:24.000Z</time>
      </trkpt>
      <trkpt lat="47.48916" lon="6.77297">
        <ele>310</ele>
        <time>2015-04-26T07:40:25.000Z</time>
      </trkpt>
      <trkpt lat="47.48909" lon="6.77294">
        <ele>310</ele>
        <time>2015-04-26T07:40:26.000Z</time>
      </trkpt>
      <trkpt lat="47.48904" lon="6.77292">
        <ele>310</ele>
        <time>2015-04-26T07:40:27.000Z</time>
      </trkpt>
      <trkpt lat="47.48898" lon="6.77291">
        <ele>310</ele>
        <time>2015-04-26T07:40:28.000Z</time>
      </trkpt>
      <trkpt lat="47.48893" lon="6.77289">
        <ele>310</ele>
        <time>2015-04-26T07:40:29.000Z</time>
      </trkpt>
      <trkpt lat="47.48887" lon="6.77287">
        <ele>310</ele>
        <time>2015-04-26T07:40:30.000Z</time>
      </trkpt>
      <trkpt lat="47.48881" lon="6.77286">
        <ele>310</ele>
        <time>2015-04-26T07:40:31.000Z</time>
      </trkpt>
      <trkpt lat="47.48874" lon="6.77285">
        <ele>310</ele>
        <time>2015-04-26T07:40:32.000Z</time>
      </trkpt>
      <trkpt lat="47.48869" lon="6.77283">
        <ele>310</ele>
        <time>2015-04-26T07:40:33.000Z</time>
      </trkpt>
      <trkpt lat="47.48858" lon="6.77278">
        <ele>310</ele>
        <time>2015-04-26T07:40:35.000Z</time>
      </trkpt>
      <trkpt lat="47.48853" lon="6.77274">
        <ele>310</ele>
        <time>2015-04-26T07:40:36.000Z</time>
      </trkpt>
      <trkpt lat="47.48847" lon="6.7727">
        <ele>310</ele>
        <time>2015-04-26T07:40:37.000Z</time>
      </trkpt>
      <trkpt lat="47.48841" lon="6.77267">
        <ele>310</ele>
        <time>2015-04-26T07:40:38.000Z</time>
      </trkpt>
      <trkpt lat="47.48835" lon="6.77264">
        <ele>311</ele>
        <time>2015-04-26T07:40:39.000Z</time>
      </trkpt>
      <trkpt lat="47.48831" lon="6.77261">
        <ele>310</ele>
        <time>2015-04-26T07:40:40.000Z</time>
      </trkpt>
      <trkpt lat="47.48826" lon="6.77257">
        <ele>311</ele>
        <time>2015-04-26T07:40:41.000Z</time>
      </trkpt>
      <trkpt lat="47.4882" lon="6.77253">
        <ele>310</ele>
        <time>2015-04-26T07:40:42.000Z</time>
      </trkpt>
      <trkpt lat="47.48815" lon="6.77248">
        <ele>311</ele>
        <time>2015-04-26T07:40:43.000Z</time>
      </trkpt>
      <trkpt lat="47.4881" lon="6.77244">
        <ele>311</ele>
        <time>2015-04-26T07:40:44.000Z</time>
      </trkpt>
      <trkpt lat="47.48804" lon="6.7724">
        <ele>311</ele>
        <time>2015-04-26T07:40:45.000Z</time>
      </trkpt>
      <trkpt lat="47.48798" lon="6.77235">
        <ele>310</ele>
        <time>2015-04-26T07:40:46.000Z</time>
      </trkpt>
      <trkpt lat="47.48792" lon="6.7723">
        <ele>310</ele>
        <time>2015-04-26T07:40:47.000Z</time>
      </trkpt>
      <trkpt lat="47.48786" lon="6.77227">
        <ele>310</ele>
        <time>2015-04-26T07:40:48.000Z</time>
      </trkpt>
      <trkpt lat="47.48781" lon="6.77222">
        <ele>310</ele>
        <time>2015-04-26T07:40:49.000Z</time>
      </trkpt>
      <trkpt lat="47.48776" lon="6.77218">
        <ele>310</ele>
        <time>2015-04-26T07:40:50.000Z</time>
      </trkpt>
      <trkpt lat="47.4877" lon="6.77214">
        <ele>310</ele>
        <time>2015-04-26T07:40:51.000Z</time>
      </trkpt>
      <trkpt lat="47.48765" lon="6.77209">
        <ele>310</ele>
        <time>2015-04-26T07:40:52.000Z</time>
      </trkpt>
      <trkpt lat="47.4876" lon="6.77204">
        <ele>310</ele>
        <time>2015-04-26T07:40:53.000Z</time>
      </trkpt>
      <trkpt lat="47.48754" lon="6.772">
        <ele>310</ele>
        <time>2015-04-26T07:40:54.000Z</time>
      </trkpt>
      <trkpt lat="47.48749" lon="6.77197">
        <ele>310</ele>
        <time>2015-04-26T07:40:55.000Z</time>
      </trkpt>
      <trkpt lat="47.48744" lon="6.77192">
        <ele>310</ele>
        <time>2015-04-26T07:40:56.000Z</time>
      </trkpt>
      <trkpt lat="47.48738" lon="6.77189">
        <ele>310</ele>
        <time>2015-04-26T07:40:57.000Z</time>
      </trkpt>
      <trkpt lat="47.48732" lon="6.77185">
        <ele>310</ele>
        <time>2015-04-26T07:40:58.000Z</time>
      </trkpt>
      <trkpt lat="47.48727" lon="6.7718">
        <ele>311</ele>
        <time>2015-04-26T07:40:59.000Z</time>
      </trkpt>
      <trkpt lat="47.48721" lon="6.77176">
        <ele>311</ele>
        <time>2015-04-26T07:41:00.000Z</time>
      </trkpt>
      <trkpt lat="47.48716" lon="6.77172">
        <ele>311</ele>
        <time>2015-04-26T07:41:01.000Z</time>
      </trkpt>
      <trkpt lat="47.4871" lon="6.77168">
        <ele>311</ele>
        <time>2015-04-26T07:41:02.000Z</time>
      </trkpt>
      <trkpt lat="47.48705" lon="6.77163">
        <ele>311</ele>
        <time>2015-04-26T07:41:03.000Z</time>
      </trkpt>
      <trkpt lat="47.48699" lon="6.77159">
        <ele>311</ele>
        <time>2015-04-26T07:41:04.000Z</time>
      </trkpt>
      <trkpt lat="47.48694" lon="6.77154">
        <ele>311</ele>
        <time>2015-04-26T07:41:05.000Z</time>
      </trkpt>
      <trkpt lat="47.48689" lon="6.77149">
        <ele>311</ele>
        <time>2015-04-26T07:41:06.000Z</time>
      </trkpt>
      <trkpt lat="47.48684" lon="6.77144">
        <ele>311</ele>
        <time>2015-04-26T07:41:07.000Z</time>
      </trkpt>
      <trkpt lat="47.48679" lon="6.77138">
        <ele>311</ele>
        <time>2015-04-26T07:41:08.000Z</time>
      </trkpt>
      <trkpt lat="47.48673" lon="6.77133">
        <ele>312</ele>
        <time>2015-04-26T07:41:09.000Z</time>
      </trkpt>
      <trkpt lat="47.48668" lon="6.77128">
        <ele>312</ele>
        <time>2015-04-26T07:41:10.000Z</time>
      </trkpt>
      <trkpt lat="47.48663" lon="6.77123">
        <ele>312</ele>
        <time>2015-04-26T07:41:11.000Z</time>
      </trkpt>
      <trkpt lat="47.48658" lon="6.77117">
        <ele>312</ele>
        <time>2015-04-26T07:41:12.000Z</time>
      </trkpt>
      <trkpt lat="47.48653" lon="6.77112">
        <ele>312</ele>
        <time>2015-04-26T07:41:13.000Z</time>
      </trkpt>
      <trkpt lat="47.48648" lon="6.77106">
        <ele>312</ele>
        <time>2015-04-26T07:41:14.000Z</time>
      </trkpt>
      <trkpt lat="47.48643" lon="6.771">
        <ele>312</ele>
        <time>2015-04-26T07:41:15.000Z</time>
      </trkpt>
      <trkpt lat="47.48638" lon="6.77094">
        <ele>312</ele>
        <time>2015-04-26T07:41:16.000Z</time>
      </trkpt>
      <trkpt lat="47.48633" lon="6.77088">
        <ele>312</ele>
        <time>2015-04-26T07:41:17.000Z</time>
      </trkpt>
      <trkpt lat="47.48629" lon="6.77084">
        <ele>312</ele>
        <time>2015-04-26T07:41:18.000Z</time>
      </trkpt>
      <trkpt lat="47.48626" lon="6.77081">
        <ele>313</ele>
        <time>2015-04-26T07:41:19.000Z</time>
      </trkpt>
      <trkpt lat="47.48622" lon="6.77078">
        <ele>313</ele>
        <time>2015-04-26T07:41:20.000Z</time>
      </trkpt>
      <trkpt lat="47.48617" lon="6.77075">
        <ele>313</ele>
        <time>2015-04-26T07:41:21.000Z</time>
      </trkpt>
      <trkpt lat="47.48612" lon="6.77072">
        <ele>313</ele>
        <time>2015-04-26T07:41:22.000Z</time>
      </trkpt>
      <trkpt lat="47.48607" lon="6.77067">
        <ele>313</ele>
        <time>2015-04-26T07:41:23.000Z</time>
      </trkpt>
      <trkpt lat="47.48601" lon="6.77063">
        <ele>313</ele>
        <time>2015-04-26T07:41:24.000Z</time>
      </trkpt>
      <trkpt lat="47.48596" lon="6.7706">
        <ele>313</ele>
        <time>2015-04-26T07:41:25.000Z</time>
      </trkpt>
      <trkpt lat="47.48589" lon="6.77056">
        <ele>313</ele>
        <time>2015-04-26T07:41:26.000Z</time>
      </trkpt>
      <trkpt lat="47.48584" lon="6.77053">
        <ele>313</ele>
        <time>2015-04-26T07:41:27.000Z</time>
      </trkpt>
      <trkpt lat="47.48578" lon="6.77051">
        <ele>314</ele>
        <time>2015-04-26T07:41:28.000Z</time>
      </trkpt>
      <trkpt lat="47.48573" lon="6.77048">
        <ele>314</ele>
        <time>2015-04-26T07:41:29.000Z</time>
      </trkpt>
      <trkpt lat="47.48567" lon="6.77044">
        <ele>314</ele>
        <time>2015-04-26T07:41:30.000Z</time>
      </trkpt>
      <trkpt lat="47.48561" lon="6.77042">
        <ele>314</ele>
        <time>2015-04-26T07:41:31.000Z</time>
      </trkpt>
      <trkpt lat="47.48555" lon="6.7704">
        <ele>314</ele>
        <time>2015-04-26T07:41:32.000Z</time>
      </trkpt>
      <trkpt lat="47.48548" lon="6.77039">
        <ele>314</ele>
        <time>2015-04-26T07:41:33.000Z</time>
      </trkpt>
      <trkpt lat="47.48541" lon="6.77034">
        <ele>314</ele>
        <time>2015-04-26T07:41:34.000Z</time>
      </trkpt>
      <trkpt lat="47.48534" lon="6.7703">
        <ele>314</ele>
        <time>2015-04-26T07:41:35.000Z</time>
      </trkpt>
      <trkpt lat="47.48527" lon="6.77024">
        <ele>314</ele>
        <time>2015-04-26T07:41:36.000Z</time>
      </trkpt>
      <trkpt lat="47.48521" lon="6.77019">
        <ele>315</ele>
        <time>2015-04-26T07:41:37.000Z</time>
      </trkpt>
      <trkpt lat="47.48516" lon="6.77014">
        <ele>315</ele>
        <time>2015-04-26T07:41:38.000Z</time>
      </trkpt>
      <trkpt lat="47.48509" lon="6.77009">
        <ele>315</ele>
        <time>2015-04-26T07:41:39.000Z</time>
      </trkpt>
      <trkpt lat="47.48503" lon="6.77004">
        <ele>316</ele>
        <time>2015-04-26T07:41:40.000Z</time>
      </trkpt>
      <trkpt lat="47.48498" lon="6.76998">
        <ele>316</ele>
        <time>2015-04-26T07:41:41.000Z</time>
      </trkpt>
      <trkpt lat="47.48492" lon="6.76992">
        <ele>316</ele>
        <time>2015-04-26T07:41:42.000Z</time>
      </trkpt>
      <trkpt lat="47.48486" lon="6.76988">
        <ele>316</ele>
        <time>2015-04-26T07:41:43.000Z</time>
      </trkpt>
      <trkpt lat="47.4848" lon="6.76983">
        <ele>315</ele>
        <time>2015-04-26T07:41:44.000Z</time>
      </trkpt>
      <trkpt lat="47.48474" lon="6.76978">
        <ele>315</ele>
        <time>2015-04-26T07:41:45.000Z</time>
      </trkpt>
      <trkpt lat="47.48469" lon="6.76974">
        <ele>315</ele>
        <time>2015-04-26T07:41:46.000Z</time>
      </trkpt>
      <trkpt lat="47.48463" lon="6.7697">
        <ele>315</ele>
        <time>2015-04-26T07:41:47.000Z</time>
      </trkpt>
      <trkpt lat="47.48457" lon="6.76968">
        <ele>315</ele>
        <time>2015-04-26T07:41:48.000Z</time>
      </trkpt>
      <trkpt lat="47.48452" lon="6.76965">
        <ele>315</ele>
        <time>2015-04-26T07:41:49.000Z</time>
      </trkpt>
      <trkpt lat="47.48446" lon="6.76962">
        <ele>315</ele>
        <time>2015-04-26T07:41:50.000Z</time>
      </trkpt>
      <trkpt lat="47.4844" lon="6.76957">
        <ele>315</ele>
        <time>2015-04-26T07:41:51.000Z</time>
      </trkpt>
      <trkpt lat="47.48432" lon="6.76955">
        <ele>314</ele>
        <time>2015-04-26T07:41:52.000Z</time>
      </trkpt>
      <trkpt lat="47.48426" lon="6.76952">
        <ele>314</ele>
        <time>2015-04-26T07:41:53.000Z</time>
      </trkpt>
      <trkpt lat="47.48421" lon="6.76949">
        <ele>314</ele>
        <time>2015-04-26T07:41:54.000Z</time>
      </trkpt>
      <trkpt lat="47.48415" lon="6.76946">
        <ele>312</ele>
        <time>2015-04-26T07:41:55.000Z</time>
      </trkpt>
      <trkpt lat="47.48409" lon="6.76944">
        <ele>312</ele>
        <time>2015-04-26T07:41:56.000Z</time>
      </trkpt>
      <trkpt lat="47.48402" lon="6.76942">
        <ele>312</ele>
        <time>2015-04-26T07:41:57.000Z</time>
      </trkpt>
      <trkpt lat="47.48396" lon="6.76939">
        <ele>312</ele>
        <time>2015-04-26T07:41:58.000Z</time>
      </trkpt>
      <trkpt lat="47.48391" lon="6.76935">
        <ele>312</ele>
        <time>2015-04-26T07:41:59.000Z</time>
      </trkpt>
      <trkpt lat="47.48385" lon="6.76932">
        <ele>312</ele>
        <time>2015-04-26T07:42:00.000Z</time>
      </trkpt>
      <trkpt lat="47.48379" lon="6.76928">
        <ele>312</ele>
        <time>2015-04-26T07:42:01.000Z</time>
      </trkpt>
      <trkpt lat="47.48373" lon="6.76925">
        <ele>312</ele>
        <time>2015-04-26T07:42:02.000Z</time>
      </trkpt>
      <trkpt lat="47.48367" lon="6.76921">
        <ele>311</ele>
        <time>2015-04-26T07:42:03.000Z</time>
      </trkpt>
      <trkpt lat="47.48361" lon="6.76917">
        <ele>311</ele>
        <time>2015-04-26T07:42:04.000Z</time>
      </trkpt>
      <trkpt lat="47.48356" lon="6.76913">
        <ele>311</ele>
        <time>2015-04-26T07:42:05.000Z</time>
      </trkpt>
      <trkpt lat="47.4835" lon="6.7691">
        <ele>310</ele>
        <time>2015-04-26T07:42:06.000Z</time>
      </trkpt>
      <trkpt lat="47.48345" lon="6.76906">
        <ele>310</ele>
        <time>2015-04-26T07:42:07.000Z</time>
      </trkpt>
      <trkpt lat="47.48339" lon="6.76903">
        <ele>310</ele>
        <time>2015-04-26T07:42:08.000Z</time>
      </trkpt>
      <trkpt lat="47.48333" lon="6.76899">
        <ele>310</ele>
        <time>2015-04-26T07:42:09.000Z</time>
      </trkpt>
      <trkpt lat="47.48327" lon="6.76896">
        <ele>310</ele>
        <time>2015-04-26T07:42:10.000Z</time>
      </trkpt>
      <trkpt lat="47.48322" lon="6.76892">
        <ele>310</ele>
        <time>2015-04-26T07:42:11.000Z</time>
      </trkpt>
      <trkpt lat="47.48316" lon="6.76887">
        <ele>310</ele>
        <time>2015-04-26T07:42:12.000Z</time>
      </trkpt>
      <trkpt lat="47.48311" lon="6.76883">
        <ele>310</ele>
        <time>2015-04-26T07:42:13.000Z</time>
      </trkpt>
      <trkpt lat="47.48306" lon="6.76878">
        <ele>310</ele>
        <time>2015-04-26T07:42:14.000Z</time>
      </trkpt>
      <trkpt lat="47.48301" lon="6.76874">
        <ele>310</ele>
        <time>2015-04-26T07:42:15.000Z</time>
      </trkpt>
      <trkpt lat="47.48296" lon="6.7687">
        <ele>310</ele>
        <time>2015-04-26T07:42:16.000Z</time>
      </trkpt>
      <trkpt lat="47.48291" lon="6.76866">
        <ele>310</ele>
        <time>2015-04-26T07:42:17.000Z</time>
      </trkpt>
      <trkpt lat="47.48286" lon="6.76861">
        <ele>310</ele>
        <time>2015-04-26T07:42:18.000Z</time>
      </trkpt>
      <trkpt lat="47.48281" lon="6.76856">
        <ele>310</ele>
        <time>2015-04-26T07:42:19.000Z</time>
      </trkpt>
      <trkpt lat="47.48277" lon="6.76849">
        <ele>311</ele>
        <time>2015-04-26T07:42:20.000Z</time>
      </trkpt>
      <trkpt lat="47.48273" lon="6.76842">
        <ele>311</ele>
        <time>2015-04-26T07:42:21.000Z</time>
      </trkpt>
      <trkpt lat="47.48269" lon="6.76836">
        <ele>311</ele>
        <time>2015-04-26T07:42:22.000Z</time>
      </trkpt>
      <trkpt lat="47.48265" lon="6.76829">
        <ele>312</ele>
        <time>2015-04-26T07:42:23.000Z</time>
      </trkpt>
      <trkpt lat="47.4826" lon="6.76824">
        <ele>312</ele>
        <time>2015-04-26T07:42:24.000Z</time>
      </trkpt>
      <trkpt lat="47.48256" lon="6.76817">
        <ele>312</ele>
        <time>2015-04-26T07:42:25.000Z</time>
      </trkpt>
      <trkpt lat="47.48252" lon="6.76811">
        <ele>312</ele>
        <time>2015-04-26T07:42:26.000Z</time>
      </trkpt>
      <trkpt lat="47.48248" lon="6.76805">
        <ele>312</ele>
        <time>2015-04-26T07:42:27.000Z</time>
      </trkpt>
      <trkpt lat="47.48242" lon="6.768">
        <ele>312</ele>
        <time>2015-04-26T07:42:28.000Z</time>
      </trkpt>
      <trkpt lat="47.48237" lon="6.76794">
        <ele>312</ele>
        <time>2015-04-26T07:42:29.000Z</time>
      </trkpt>
      <trkpt lat="47.48231" lon="6.7679">
        <ele>312</ele>
        <time>2015-04-26T07:42:30.000Z</time>
      </trkpt>
      <trkpt lat="47.48225" lon="6.76787">
        <ele>312</ele>
        <time>2015-04-26T07:42:31.000Z</time>
      </trkpt>
      <trkpt lat="47.48219" lon="6.76785">
        <ele>312</ele>
        <time>2015-04-26T07:42:32.000Z</time>
      </trkpt>
      <trkpt lat="47.48213" lon="6.76782">
        <ele>312</ele>
        <time>2015-04-26T07:42:33.000Z</time>
      </trkpt>
      <trkpt lat="47.48201" lon="6.76779">
        <ele>312</ele>
        <time>2015-04-26T07:42:35.000Z</time>
      </trkpt>
      <trkpt lat="47.48195" lon="6.76776">
        <ele>312</ele>
        <time>2015-04-26T07:42:36.000Z</time>
      </trkpt>
      <trkpt lat="47.4819" lon="6.76771">
        <ele>312</ele>
        <time>2015-04-26T07:42:37.000Z</time>
      </trkpt>
      <trkpt lat="47.48184" lon="6.76768">
        <ele>312</ele>
        <time>2015-04-26T07:42:38.000Z</time>
      </trkpt>
      <trkpt lat="47.48179" lon="6.76762">
        <ele>313</ele>
        <time>2015-04-26T07:42:39.000Z</time>
      </trkpt>
      <trkpt lat="47.48174" lon="6.76756">
        <ele>313</ele>
        <time>2015-04-26T07:42:40.000Z</time>
      </trkpt>
      <trkpt lat="47.48169" lon="6.76751">
        <ele>313</ele>
        <time>2015-04-26T07:42:41.000Z</time>
      </trkpt>
      <trkpt lat="47.48164" lon="6.76745">
        <ele>313</ele>
        <time>2015-04-26T07:42:42.000Z</time>
      </trkpt>
      <trkpt lat="47.4816" lon="6.76738">
        <ele>313</ele>
        <time>2015-04-26T07:42:43.000Z</time>
      </trkpt>
      <trkpt lat="47.48155" lon="6.7673">
        <ele>312</ele>
        <time>2015-04-26T07:42:44.000Z</time>
      </trkpt>
      <trkpt lat="47.48151" lon="6.76723">
        <ele>312</ele>
        <time>2015-04-26T07:42:45.000Z</time>
      </trkpt>
      <trkpt lat="47.48147" lon="6.76716">
        <ele>312</ele>
        <time>2015-04-26T07:42:46.000Z</time>
      </trkpt>
      <trkpt lat="47.48144" lon="6.76707">
        <ele>312</ele>
        <time>2015-04-26T07:42:47.000Z</time>
      </trkpt>
      <trkpt lat="47.4814" lon="6.767">
        <ele>312</ele>
        <time>2015-04-26T07:42:48.000Z</time>
      </trkpt>
      <trkpt lat="47.48136" lon="6.76693">
        <ele>312</ele>
        <time>2015-04-26T07:42:49.000Z</time>
      </trkpt>
      <trkpt lat="47.48133" lon="6.76685">
        <ele>312</ele>
        <time>2015-04-26T07:42:50.000Z</time>
      </trkpt>
      <trkpt lat="47.48129" lon="6.76678">
        <ele>312</ele>
        <time>2015-04-26T07:42:51.000Z</time>
      </trkpt>
      <trkpt lat="47.48126" lon="6.76672">
        <ele>312</ele>
        <time>2015-04-26T07:42:52.000Z</time>
      </trkpt>
      <trkpt lat="47.48122" lon="6.76665">
        <ele>313</ele>
        <time>2015-04-26T07:42:53.000Z</time>
      </trkpt>
      <trkpt lat="47.48118" lon="6.76659">
        <ele>313</ele>
        <time>2015-04-26T07:42:54.000Z</time>
      </trkpt>
      <trkpt lat="47.48115" lon="6.76653">
        <ele>313</ele>
        <time>2015-04-26T07:42:55.000Z</time>
      </trkpt>
      <trkpt lat="47.48111" lon="6.76647">
        <ele>313</ele>
        <time>2015-04-26T07:42:56.000Z</time>
      </trkpt>
      <trkpt lat="47.48108" lon="6.7664">
        <ele>313</ele>
        <time>2015-04-26T07:42:57.000Z</time>
      </trkpt>
      <trkpt lat="47.48105" lon="6.76634">
        <ele>313</ele>
        <time>2015-04-26T07:42:58.000Z</time>
      </trkpt>
      <trkpt lat="47.48102" lon="6.76628">
        <ele>313</ele>
        <time>2015-04-26T07:42:59.000Z</time>
      </trkpt>
      <trkpt lat="47.48099" lon="6.7662">
        <ele>313</ele>
        <time>2015-04-26T07:43:00.000Z</time>
      </trkpt>
      <trkpt lat="47.48098" lon="6.76613">
        <ele>313</ele>
        <time>2015-04-26T07:43:01.000Z</time>
      </trkpt>
      <trkpt lat="47.48098" lon="6.76605">
        <ele>313</ele>
        <time>2015-04-26T07:43:02.000Z</time>
      </trkpt>
      <trkpt lat="47.48099" lon="6.76599">
        <ele>313</ele>
        <time>2015-04-26T07:43:03.000Z</time>
      </trkpt>
      <trkpt lat="47.48104" lon="6.76592">
        <ele>313</ele>
        <time>2015-04-26T07:43:04.000Z</time>
      </trkpt>
      <trkpt lat="47.48105" lon="6.76583">
        <ele>313</ele>
        <time>2015-04-26T07:43:05.000Z</time>
      </trkpt>
      <trkpt lat="47.4811" lon="6.76578">
        <ele>317</ele>
        <time>2015-04-26T07:43:06.000Z</time>
      </trkpt>
      <trkpt lat="47.48115" lon="6.76571">
        <ele>318</ele>
        <time>2015-04-26T07:43:07.000Z</time>
      </trkpt>
      <trkpt lat="47.48118" lon="6.76565">
        <ele>318</ele>
        <time>2015-04-26T07:43:08.000Z</time>
      </trkpt>
      <trkpt lat="47.48121" lon="6.7656">
        <ele>319</ele>
        <time>2015-04-26T07:43:09.000Z</time>
      </trkpt>
      <trkpt lat="47.48124" lon="6.76555">
        <ele>319</ele>
        <time>2015-04-26T07:43:10.000Z</time>
      </trkpt>
      <trkpt lat="47.48126" lon="6.7655">
        <ele>320</ele>
        <time>2015-04-26T07:43:11.000Z</time>
      </trkpt>
      <trkpt lat="47.48125" lon="6.76545">
        <ele>320</ele>
        <time>2015-04-26T07:43:12.000Z</time>
      </trkpt>
      <trkpt lat="47.48124" lon="6.76541">
        <ele>320</ele>
        <time>2015-04-26T07:43:13.000Z</time>
      </trkpt>
      <trkpt lat="47.48122" lon="6.76536">
        <ele>320</ele>
        <time>2015-04-26T07:43:14.000Z</time>
      </trkpt>
      <trkpt lat="47.48121" lon="6.76529">
        <ele>320</ele>
        <time>2015-04-26T07:43:15.000Z</time>
      </trkpt>
      <trkpt lat="47.48122" lon="6.76524">
        <ele>321</ele>
        <time>2015-04-26T07:43:16.000Z</time>
      </trkpt>
      <trkpt lat="47.4812" lon="6.7652">
        <ele>320</ele>
        <time>2015-04-26T07:43:17.000Z</time>
      </trkpt>
      <trkpt lat="47.48116" lon="6.76515">
        <ele>320</ele>
        <time>2015-04-26T07:43:18.000Z</time>
      </trkpt>
      <trkpt lat="47.48115" lon="6.7651">
        <ele>320</ele>
        <time>2015-04-26T07:43:19.000Z</time>
      </trkpt>
      <trkpt lat="47.48113" lon="6.76508">
        <ele>319</ele>
        <time>2015-04-26T07:43:20.000Z</time>
      </trkpt>
      <trkpt lat="47.4811" lon="6.76507">
        <ele>319</ele>
        <time>2015-04-26T07:43:21.000Z</time>
      </trkpt>
      <trkpt lat="47.48107" lon="6.76509">
        <ele>318</ele>
        <time>2015-04-26T07:43:22.000Z</time>
      </trkpt>
      <trkpt lat="47.48103" lon="6.76512">
        <ele>318</ele>
        <time>2015-04-26T07:43:23.000Z</time>
      </trkpt>
      <trkpt lat="47.48099" lon="6.76515">
        <ele>318</ele>
        <time>2015-04-26T07:43:24.000Z</time>
      </trkpt>
      <trkpt lat="47.48095" lon="6.76519">
        <ele>317</ele>
        <time>2015-04-26T07:43:25.000Z</time>
      </trkpt>
      <trkpt lat="47.48091" lon="6.76524">
        <ele>317</ele>
        <time>2015-04-26T07:43:26.000Z</time>
      </trkpt>
      <trkpt lat="47.48083" lon="6.76531">
        <ele>312</ele>
        <time>2015-04-26T07:43:27.000Z</time>
      </trkpt>
      <trkpt lat="47.48078" lon="6.76532">
        <ele>312</ele>
        <time>2015-04-26T07:43:28.000Z</time>
      </trkpt>
      <trkpt lat="47.48074" lon="6.76535">
        <ele>312</ele>
        <time>2015-04-26T07:43:29.000Z</time>
      </trkpt>
      <trkpt lat="47.48069" lon="6.76538">
        <ele>312</ele>
        <time>2015-04-26T07:43:30.000Z</time>
      </trkpt>
      <trkpt lat="47.48065" lon="6.76541">
        <ele>312</ele>
        <time>2015-04-26T07:43:31.000Z</time>
      </trkpt>
      <trkpt lat="47.4806" lon="6.76543">
        <ele>312</ele>
        <time>2015-04-26T07:43:32.000Z</time>
      </trkpt>
      <trkpt lat="47.48056" lon="6.76548">
        <ele>312</ele>
        <time>2015-04-26T07:43:33.000Z</time>
      </trkpt>
      <trkpt lat="47.48048" lon="6.76555">
        <ele>312</ele>
        <time>2015-04-26T07:43:35.000Z</time>
      </trkpt>
      <trkpt lat="47.48043" lon="6.7656">
        <ele>312</ele>
        <time>2015-04-26T07:43:36.000Z</time>
      </trkpt>
      <trkpt lat="47.48039" lon="6.76564">
        <ele>312</ele>
        <time>2015-04-26T07:43:37.000Z</time>
      </trkpt>
      <trkpt lat="47.48034" lon="6.76567">
        <ele>312</ele>
        <time>2015-04-26T07:43:38.000Z</time>
      </trkpt>
      <trkpt lat="47.48029" lon="6.76571">
        <ele>312</ele>
        <time>2015-04-26T07:43:39.000Z</time>
      </trkpt>
      <trkpt lat="47.48024" lon="6.76574">
        <ele>312</ele>
        <time>2015-04-26T07:43:40.000Z</time>
      </trkpt>
      <trkpt lat="47.4802" lon="6.76577">
        <ele>312</ele>
        <time>2015-04-26T07:43:41.000Z</time>
      </trkpt>
      <trkpt lat="47.48015" lon="6.76581">
        <ele>312</ele>
        <time>2015-04-26T07:43:42.000Z</time>
      </trkpt>
      <trkpt lat="47.4801" lon="6.76584">
        <ele>312</ele>
        <time>2015-04-26T07:43:43.000Z</time>
      </trkpt>
      <trkpt lat="47.48006" lon="6.76587">
        <ele>312</ele>
        <time>2015-04-26T07:43:44.000Z</time>
      </trkpt>
      <trkpt lat="47.48001" lon="6.7659">
        <ele>312</ele>
        <time>2015-04-26T07:43:45.000Z</time>
      </trkpt>
      <trkpt lat="47.47996" lon="6.76594">
        <ele>312</ele>
        <time>2015-04-26T07:43:46.000Z</time>
      </trkpt>
      <trkpt lat="47.47992" lon="6.76597">
        <ele>312</ele>
        <time>2015-04-26T07:43:47.000Z</time>
      </trkpt>
      <trkpt lat="47.47986" lon="6.766">
        <ele>312</ele>
        <time>2015-04-26T07:43:48.000Z</time>
      </trkpt>
      <trkpt lat="47.47982" lon="6.76602">
        <ele>311</ele>
        <time>2015-04-26T07:43:49.000Z</time>
      </trkpt>
      <trkpt lat="47.47977" lon="6.76606">
        <ele>311</ele>
        <time>2015-04-26T07:43:50.000Z</time>
      </trkpt>
      <trkpt lat="47.47972" lon="6.76608">
        <ele>311</ele>
        <time>2015-04-26T07:43:51.000Z</time>
      </trkpt>
      <trkpt lat="47.47967" lon="6.7661">
        <ele>311</ele>
        <time>2015-04-26T07:43:52.000Z</time>
      </trkpt>
      <trkpt lat="47.47962" lon="6.76612">
        <ele>311</ele>
        <time>2015-04-26T07:43:53.000Z</time>
      </trkpt>
      <trkpt lat="47.47958" lon="6.76613">
        <ele>311</ele>
        <time>2015-04-26T07:43:54.000Z</time>
      </trkpt>
      <trkpt lat="47.47953" lon="6.76612">
        <ele>311</ele>
        <time>2015-04-26T07:43:55.000Z</time>
      </trkpt>
      <trkpt lat="47.47949" lon="6.76608">
        <ele>311</ele>
        <time>2015-04-26T07:43:56.000Z</time>
      </trkpt>
      <trkpt lat="47.47947" lon="6.76602">
        <ele>311</ele>
        <time>2015-04-26T07:43:57.000Z</time>
      </trkpt>
      <trkpt lat="47.47946" lon="6.76595">
        <ele>311</ele>
        <time>2015-04-26T07:43:58.000Z</time>
      </trkpt>
      <trkpt lat="47.47945" lon="6.76586">
        <ele>311</ele>
        <time>2015-04-26T07:43:59.000Z</time>
      </trkpt>
      <trkpt lat="47.47945" lon="6.76578">
        <ele>311</ele>
        <time>2015-04-26T07:44:00.000Z</time>
      </trkpt>
      <trkpt lat="47.47944" lon="6.76569">
        <ele>311</ele>
        <time>2015-04-26T07:44:01.000Z</time>
      </trkpt>
      <trkpt lat="47.47942" lon="6.76561">
        <ele>311</ele>
        <time>2015-04-26T07:44:02.000Z</time>
      </trkpt>
      <trkpt lat="47.4794" lon="6.76554">
        <ele>311</ele>
        <time>2015-04-26T07:44:03.000Z</time>
      </trkpt>
      <trkpt lat="47.47938" lon="6.76546">
        <ele>311</ele>
        <time>2015-04-26T07:44:04.000Z</time>
      </trkpt>
      <trkpt lat="47.47937" lon="6.76538">
        <ele>311</ele>
        <time>2015-04-26T07:44:05.000Z</time>
      </trkpt>
      <trkpt lat="47.47935" lon="6.76531">
        <ele>311</ele>
        <time>2015-04-26T07:44:06.000Z</time>
      </trkpt>
      <trkpt lat="47.47934" lon="6.76524">
        <ele>311</ele>
        <time>2015-04-26T07:44:07.000Z</time>
      </trkpt>
      <trkpt lat="47.47933" lon="6.76517">
        <ele>311</ele>
        <time>2015-04-26T07:44:08.000Z</time>
      </trkpt>
      <trkpt lat="47.47932" lon="6.7651">
        <ele>311</ele>
        <time>2015-04-26T07:44:09.000Z</time>
      </trkpt>
      <trkpt lat="47.4793" lon="6.76502">
        <ele>310</ele>
        <time>2015-04-26T07:44:10.000Z</time>
      </trkpt>
      <trkpt lat="47.47929" lon="6.76495">
        <ele>310</ele>
        <time>2015-04-26T07:44:11.000Z</time>
      </trkpt>
      <trkpt lat="47.47927" lon="6.76487">
        <ele>311</ele>
        <time>2015-04-26T07:44:12.000Z</time>
      </trkpt>
      <trkpt lat="47.47925" lon="6.76479">
        <ele>311</ele>
        <time>2015-04-26T07:44:13.000Z</time>
      </trkpt>
      <trkpt lat="47.47923" lon="6.76471">
        <ele>311</ele>
        <time>2015-04-26T07:44:14.000Z</time>
      </trkpt>
      <trkpt lat="47.47922" lon="6.76464">
        <ele>311</ele>
        <time>2015-04-26T07:44:15.000Z</time>
      </trkpt>
      <trkpt lat="47.4792" lon="6.76455">
        <ele>311</ele>
        <time>2015-04-26T07:44:16.000Z</time>
      </trkpt>
      <trkpt lat="47.47918" lon="6.76447">
        <ele>311</ele>
        <time>2015-04-26T07:44:17.000Z</time>
      </trkpt>
      <trkpt lat="47.47916" lon="6.76439">
        <ele>311</ele>
        <time>2015-04-26T07:44:18.000Z</time>
      </trkpt>
      <trkpt lat="47.47913" lon="6.76431">
        <ele>311</ele>
        <time>2015-04-26T07:44:19.000Z</time>
      </trkpt>
      <trkpt lat="47.47911" lon="6.76423">
        <ele>311</ele>
        <time>2015-04-26T07:44:20.000Z</time>
      </trkpt>
      <trkpt lat="47.47909" lon="6.76415">
        <ele>312</ele>
        <time>2015-04-26T07:44:21.000Z</time>
      </trkpt>
      <trkpt lat="47.47906" lon="6.76407">
        <ele>311</ele>
        <time>2015-04-26T07:44:22.000Z</time>
      </trkpt>
      <trkpt lat="47.47903" lon="6.76399">
        <ele>311</ele>
        <time>2015-04-26T07:44:23.000Z</time>
      </trkpt>
      <trkpt lat="47.47899" lon="6.76391">
        <ele>311</ele>
        <time>2015-04-26T07:44:24.000Z</time>
      </trkpt>
      <trkpt lat="47.47896" lon="6.76385">
        <ele>311</ele>
        <time>2015-04-26T07:44:25.000Z</time>
      </trkpt>
      <trkpt lat="47.47893" lon="6.76378">
        <ele>311</ele>
        <time>2015-04-26T07:44:26.000Z</time>
      </trkpt>
      <trkpt lat="47.4789" lon="6.76371">
        <ele>311</ele>
        <time>2015-04-26T07:44:27.000Z</time>
      </trkpt>
      <trkpt lat="47.47886" lon="6.76364">
        <ele>311</ele>
        <time>2015-04-26T07:44:28.000Z</time>
      </trkpt>
      <trkpt lat="47.47883" lon="6.76357">
        <ele>311</ele>
        <time>2015-04-26T07:44:29.000Z</time>
      </trkpt>
      <trkpt lat="47.47879" lon="6.7635">
        <ele>311</ele>
        <time>2015-04-26T07:44:30.000Z</time>
      </trkpt>
      <trkpt lat="47.47876" lon="6.76342">
        <ele>311</ele>
        <time>2015-04-26T07:44:31.000Z</time>
      </trkpt>
      <trkpt lat="47.47872" lon="6.76335">
        <ele>311</ele>
        <time>2015-04-26T07:44:32.000Z</time>
      </trkpt>
      <trkpt lat="47.47868" lon="6.76328">
        <ele>310</ele>
        <time>2015-04-26T07:44:33.000Z</time>
      </trkpt>
      <trkpt lat="47.47865" lon="6.76321">
        <ele>310</ele>
        <time>2015-04-26T07:44:34.000Z</time>
      </trkpt>
      <trkpt lat="47.47862" lon="6.76314">
        <ele>310</ele>
        <time>2015-04-26T07:44:35.000Z</time>
      </trkpt>
      <trkpt lat="47.47857" lon="6.76307">
        <ele>310</ele>
        <time>2015-04-26T07:44:36.000Z</time>
      </trkpt>
      <trkpt lat="47.47854" lon="6.76301">
        <ele>310</ele>
        <time>2015-04-26T07:44:37.000Z</time>
      </trkpt>
      <trkpt lat="47.47849" lon="6.76294">
        <ele>310</ele>
        <time>2015-04-26T07:44:38.000Z</time>
      </trkpt>
      <trkpt lat="47.47845" lon="6.76288">
        <ele>310</ele>
        <time>2015-04-26T07:44:39.000Z</time>
      </trkpt>
      <trkpt lat="47.4784" lon="6.76282">
        <ele>311</ele>
        <time>2015-04-26T07:44:40.000Z</time>
      </trkpt>
      <trkpt lat="47.47836" lon="6.76276">
        <ele>311</ele>
        <time>2015-04-26T07:44:41.000Z</time>
      </trkpt>
      <trkpt lat="47.4783" lon="6.76271">
        <ele>310</ele>
        <time>2015-04-26T07:44:42.000Z</time>
      </trkpt>
      <trkpt lat="47.47824" lon="6.76268">
        <ele>310</ele>
        <time>2015-04-26T07:44:43.000Z</time>
      </trkpt>
      <trkpt lat="47.47819" lon="6.76264">
        <ele>310</ele>
        <time>2015-04-26T07:44:44.000Z</time>
      </trkpt>
      <trkpt lat="47.47813" lon="6.7626">
        <ele>310</ele>
        <time>2015-04-26T07:44:45.000Z</time>
      </trkpt>
      <trkpt lat="47.47807" lon="6.76257">
        <ele>310</ele>
        <time>2015-04-26T07:44:46.000Z</time>
      </trkpt>
      <trkpt lat="47.47802" lon="6.76254">
        <ele>310</ele>
        <time>2015-04-26T07:44:47.000Z</time>
      </trkpt>
      <trkpt lat="47.47796" lon="6.76251">
        <ele>310</ele>
        <time>2015-04-26T07:44:48.000Z</time>
      </trkpt>
      <trkpt lat="47.47791" lon="6.76248">
        <ele>310</ele>
        <time>2015-04-26T07:44:49.000Z</time>
      </trkpt>
      <trkpt lat="47.47786" lon="6.76245">
        <ele>309</ele>
        <time>2015-04-26T07:44:50.000Z</time>
      </trkpt>
      <trkpt lat="47.47781" lon="6.7624">
        <ele>309</ele>
        <time>2015-04-26T07:44:51.000Z</time>
      </trkpt>
      <trkpt lat="47.47776" lon="6.76235">
        <ele>309</ele>
        <time>2015-04-26T07:44:52.000Z</time>
      </trkpt>
      <trkpt lat="47.47772" lon="6.76229">
        <ele>309</ele>
        <time>2015-04-26T07:44:53.000Z</time>
      </trkpt>
      <trkpt lat="47.47768" lon="6.76222">
        <ele>309</ele>
        <time>2015-04-26T07:44:54.000Z</time>
      </trkpt>
      <trkpt lat="47.47764" lon="6.76216">
        <ele>309</ele>
        <time>2015-04-26T07:44:55.000Z</time>
      </trkpt>
      <trkpt lat="47.4776" lon="6.7621">
        <ele>309</ele>
        <time>2015-04-26T07:44:56.000Z</time>
      </trkpt>
      <trkpt lat="47.47756" lon="6.76203">
        <ele>309</ele>
        <time>2015-04-26T07:44:57.000Z</time>
      </trkpt>
      <trkpt lat="47.47753" lon="6.76197">
        <ele>309</ele>
        <time>2015-04-26T07:44:58.000Z</time>
      </trkpt>
      <trkpt lat="47.47749" lon="6.7619">
        <ele>308</ele>
        <time>2015-04-26T07:44:59.000Z</time>
      </trkpt>
      <trkpt lat="47.47745" lon="6.76183">
        <ele>308</ele>
        <time>2015-04-26T07:45:00.000Z</time>
      </trkpt>
      <trkpt lat="47.47742" lon="6.76178">
        <ele>308</ele>
        <time>2015-04-26T07:45:01.000Z</time>
      </trkpt>
      <trkpt lat="47.47739" lon="6.76172">
        <ele>308</ele>
        <time>2015-04-26T07:45:02.000Z</time>
      </trkpt>
      <trkpt lat="47.47735" lon="6.76166">
        <ele>308</ele>
        <time>2015-04-26T07:45:03.000Z</time>
      </trkpt>
      <trkpt lat="47.47731" lon="6.7616">
        <ele>308</ele>
        <time>2015-04-26T07:45:04.000Z</time>
      </trkpt>
      <trkpt lat="47.47727" lon="6.76153">
        <ele>309</ele>
        <time>2015-04-26T07:45:05.000Z</time>
      </trkpt>
      <trkpt lat="47.47722" lon="6.76146">
        <ele>309</ele>
        <time>2015-04-26T07:45:06.000Z</time>
      </trkpt>
      <trkpt lat="47.47718" lon="6.76141">
        <ele>309</ele>
        <time>2015-04-26T07:45:07.000Z</time>
      </trkpt>
      <trkpt lat="47.47715" lon="6.76134">
        <ele>309</ele>
        <time>2015-04-26T07:45:08.000Z</time>
      </trkpt>
      <trkpt lat="47.47711" lon="6.76128">
        <ele>309</ele>
        <time>2015-04-26T07:45:09.000Z</time>
      </trkpt>
      <trkpt lat="47.47707" lon="6.76121">
        <ele>310</ele>
        <time>2015-04-26T07:45:10.000Z</time>
      </trkpt>
      <trkpt lat="47.47703" lon="6.76114">
        <ele>310</ele>
        <time>2015-04-26T07:45:11.000Z</time>
      </trkpt>
      <trkpt lat="47.47698" lon="6.76107">
        <ele>310</ele>
        <time>2015-04-26T07:45:12.000Z</time>
      </trkpt>
      <trkpt lat="47.47694" lon="6.761">
        <ele>310</ele>
        <time>2015-04-26T07:45:13.000Z</time>
      </trkpt>
      <trkpt lat="47.4769" lon="6.76094">
        <ele>310</ele>
        <time>2015-04-26T07:45:14.000Z</time>
      </trkpt>
      <trkpt lat="47.47686" lon="6.76088">
        <ele>310</ele>
        <time>2015-04-26T07:45:15.000Z</time>
      </trkpt>
      <trkpt lat="47.47681" lon="6.76084">
        <ele>310</ele>
        <time>2015-04-26T07:45:16.000Z</time>
      </trkpt>
      <trkpt lat="47.47677" lon="6.76085">
        <ele>311</ele>
        <time>2015-04-26T07:45:17.000Z</time>
      </trkpt>
      <trkpt lat="47.47671" lon="6.76086">
        <ele>311</ele>
        <time>2015-04-26T07:45:18.000Z</time>
      </trkpt>
      <trkpt lat="47.47668" lon="6.76096">
        <ele>310</ele>
        <time>2015-04-26T07:45:19.000Z</time>
      </trkpt>
      <trkpt lat="47.47665" lon="6.76104">
        <ele>311</ele>
        <time>2015-04-26T07:45:20.000Z</time>
      </trkpt>
      <trkpt lat="47.47662" lon="6.76112">
        <ele>311</ele>
        <time>2015-04-26T07:45:21.000Z</time>
      </trkpt>
      <trkpt lat="47.47659" lon="6.7612">
        <ele>311</ele>
        <time>2015-04-26T07:45:22.000Z</time>
      </trkpt>
      <trkpt lat="47.47657" lon="6.76128">
        <ele>310</ele>
        <time>2015-04-26T07:45:23.000Z</time>
      </trkpt>
      <trkpt lat="47.47654" lon="6.76136">
        <ele>310</ele>
        <time>2015-04-26T07:45:24.000Z</time>
      </trkpt>
      <trkpt lat="47.47651" lon="6.76144">
        <ele>310</ele>
        <time>2015-04-26T07:45:25.000Z</time>
      </trkpt>
      <trkpt lat="47.47647" lon="6.76152">
        <ele>310</ele>
        <time>2015-04-26T07:45:26.000Z</time>
      </trkpt>
      <trkpt lat="47.47644" lon="6.7616">
        <ele>310</ele>
        <time>2015-04-26T07:45:27.000Z</time>
      </trkpt>
      <trkpt lat="47.47641" lon="6.76169">
        <ele>311</ele>
        <time>2015-04-26T07:45:28.000Z</time>
      </trkpt>
      <trkpt lat="47.47638" lon="6.76176">
        <ele>311</ele>
        <time>2015-04-26T07:45:29.000Z</time>
      </trkpt>
      <trkpt lat="47.47635" lon="6.76185">
        <ele>310</ele>
        <time>2015-04-26T07:45:30.000Z</time>
      </trkpt>
      <trkpt lat="47.47631" lon="6.76194">
        <ele>310</ele>
        <time>2015-04-26T07:45:31.000Z</time>
      </trkpt>
      <trkpt lat="47.47627" lon="6.762">
        <ele>310</ele>
        <time>2015-04-26T07:45:32.000Z</time>
      </trkpt>
      <trkpt lat="47.47624" lon="6.76207">
        <ele>310</ele>
        <time>2015-04-26T07:45:33.000Z</time>
      </trkpt>
      <trkpt lat="47.47617" lon="6.76222">
        <ele>311</ele>
        <time>2015-04-26T07:45:35.000Z</time>
      </trkpt>
      <trkpt lat="47.47613" lon="6.76228">
        <ele>311</ele>
        <time>2015-04-26T07:45:36.000Z</time>
      </trkpt>
      <trkpt lat="47.4761" lon="6.76236">
        <ele>311</ele>
        <time>2015-04-26T07:45:37.000Z</time>
      </trkpt>
      <trkpt lat="47.47605" lon="6.76244">
        <ele>311</ele>
        <time>2015-04-26T07:45:38.000Z</time>
      </trkpt>
      <trkpt lat="47.47602" lon="6.76249">
        <ele>311</ele>
        <time>2015-04-26T07:45:39.000Z</time>
      </trkpt>
      <trkpt lat="47.47601" lon="6.76255">
        <ele>311</ele>
        <time>2015-04-26T07:45:40.000Z</time>
      </trkpt>
      <trkpt lat="47.47598" lon="6.76262">
        <ele>311</ele>
        <time>2015-04-26T07:45:41.000Z</time>
      </trkpt>
      <trkpt lat="47.47595" lon="6.76269">
        <ele>311</ele>
        <time>2015-04-26T07:45:42.000Z</time>
      </trkpt>
      <trkpt lat="47.47592" lon="6.76275">
        <ele>311</ele>
        <time>2015-04-26T07:45:43.000Z</time>
      </trkpt>
      <trkpt lat="47.4759" lon="6.76282">
        <ele>311</ele>
        <time>2015-04-26T07:45:44.000Z</time>
      </trkpt>
      <trkpt lat="47.47585" lon="6.76289">
        <ele>311</ele>
        <time>2015-04-26T07:45:45.000Z</time>
      </trkpt>
      <trkpt lat="47.47582" lon="6.76294">
        <ele>312</ele>
        <time>2015-04-26T07:45:46.000Z</time>
      </trkpt>
      <trkpt lat="47.47578" lon="6.763">
        <ele>312</ele>
        <time>2015-04-26T07:45:47.000Z</time>
      </trkpt>
      <trkpt lat="47.47574" lon="6.76306">
        <ele>312</ele>
        <time>2015-04-26T07:45:48.000Z</time>
      </trkpt>
      <trkpt lat="47.47571" lon="6.76313">
        <ele>312</ele>
        <time>2015-04-26T07:45:49.000Z</time>
      </trkpt>
      <trkpt lat="47.47568" lon="6.7632">
        <ele>312</ele>
        <time>2015-04-26T07:45:50.000Z</time>
      </trkpt>
      <trkpt lat="47.47564" lon="6.76327">
        <ele>312</ele>
        <time>2015-04-26T07:45:51.000Z</time>
      </trkpt>
      <trkpt lat="47.47561" lon="6.76335">
        <ele>311</ele>
        <time>2015-04-26T07:45:52.000Z</time>
      </trkpt>
      <trkpt lat="47.47558" lon="6.76343">
        <ele>311</ele>
        <time>2015-04-26T07:45:53.000Z</time>
      </trkpt>
      <trkpt lat="47.47554" lon="6.7635">
        <ele>311</ele>
        <time>2015-04-26T07:45:54.000Z</time>
      </trkpt>
      <trkpt lat="47.47551" lon="6.76356">
        <ele>310</ele>
        <time>2015-04-26T07:45:55.000Z</time>
      </trkpt>
      <trkpt lat="47.47548" lon="6.7636">
        <ele>310</ele>
        <time>2015-04-26T07:45:56.000Z</time>
      </trkpt>
      <trkpt lat="47.47546" lon="6.76367">
        <ele>310</ele>
        <time>2015-04-26T07:45:57.000Z</time>
      </trkpt>
      <trkpt lat="47.47544" lon="6.76372">
        <ele>310</ele>
        <time>2015-04-26T07:45:58.000Z</time>
      </trkpt>
      <trkpt lat="47.47543" lon="6.76379">
        <ele>310</ele>
        <time>2015-04-26T07:45:59.000Z</time>
      </trkpt>
      <trkpt lat="47.47541" lon="6.76385">
        <ele>310</ele>
        <time>2015-04-26T07:46:00.000Z</time>
      </trkpt>
      <trkpt lat="47.4754" lon="6.76388">
        <ele>310</ele>
        <time>2015-04-26T07:46:01.000Z</time>
      </trkpt>
      <trkpt lat="47.47535" lon="6.76393">
        <ele>310</ele>
        <time>2015-04-26T07:46:02.000Z</time>
      </trkpt>
      <trkpt lat="47.47531" lon="6.76398">
        <ele>310</ele>
        <time>2015-04-26T07:46:03.000Z</time>
      </trkpt>
      <trkpt lat="47.47526" lon="6.76403">
        <ele>310</ele>
        <time>2015-04-26T07:46:04.000Z</time>
      </trkpt>
      <trkpt lat="47.47523" lon="6.76407">
        <ele>310</ele>
        <time>2015-04-26T07:46:05.000Z</time>
      </trkpt>
      <trkpt lat="47.4752" lon="6.76413">
        <ele>309</ele>
        <time>2015-04-26T07:46:06.000Z</time>
      </trkpt>
      <trkpt lat="47.47517" lon="6.76419">
        <ele>309</ele>
        <time>2015-04-26T07:46:07.000Z</time>
      </trkpt>
      <trkpt lat="47.47513" lon="6.76422">
        <ele>309</ele>
        <time>2015-04-26T07:46:08.000Z</time>
      </trkpt>
      <trkpt lat="47.47511" lon="6.76427">
        <ele>309</ele>
        <time>2015-04-26T07:46:09.000Z</time>
      </trkpt>
      <trkpt lat="47.47509" lon="6.76433">
        <ele>309</ele>
        <time>2015-04-26T07:46:10.000Z</time>
      </trkpt>
      <trkpt lat="47.47507" lon="6.76438">
        <ele>309</ele>
        <time>2015-04-26T07:46:11.000Z</time>
      </trkpt>
      <trkpt lat="47.47504" lon="6.76442">
        <ele>309</ele>
        <time>2015-04-26T07:46:12.000Z</time>
      </trkpt>
      <trkpt lat="47.47501" lon="6.76448">
        <ele>309</ele>
        <time>2015-04-26T07:46:13.000Z</time>
      </trkpt>
      <trkpt lat="47.47498" lon="6.76452">
        <ele>310</ele>
        <time>2015-04-26T07:46:14.000Z</time>
      </trkpt>
      <trkpt lat="47.47494" lon="6.76451">
        <ele>310</ele>
        <time>2015-04-26T07:46:15.000Z</time>
      </trkpt>
      <trkpt lat="47.47491" lon="6.76451">
        <ele>310</ele>
        <time>2015-04-26T07:46:16.000Z</time>
      </trkpt>
      <trkpt lat="47.47487" lon="6.76449">
        <ele>310</ele>
        <time>2015-04-26T07:46:17.000Z</time>
      </trkpt>
      <trkpt lat="47.47484" lon="6.76446">
        <ele>310</ele>
        <time>2015-04-26T07:46:18.000Z</time>
      </trkpt>
      <trkpt lat="47.47481" lon="6.76442">
        <ele>310</ele>
        <time>2015-04-26T07:46:19.000Z</time>
      </trkpt>
      <trkpt lat="47.47477" lon="6.76438">
        <ele>310</ele>
        <time>2015-04-26T07:46:20.000Z</time>
      </trkpt>
      <trkpt lat="47.47474" lon="6.76434">
        <ele>310</ele>
        <time>2015-04-26T07:46:21.000Z</time>
      </trkpt>
      <trkpt lat="47.47471" lon="6.76432">
        <ele>310</ele>
        <time>2015-04-26T07:46:22.000Z</time>
      </trkpt>
      <trkpt lat="47.47468" lon="6.7643">
        <ele>310</ele>
        <time>2015-04-26T07:46:23.000Z</time>
      </trkpt>
      <trkpt lat="47.47464" lon="6.76428">
        <ele>310</ele>
        <time>2015-04-26T07:46:24.000Z</time>
      </trkpt>
      <trkpt lat="47.47461" lon="6.76427">
        <ele>311</ele>
        <time>2015-04-26T07:46:25.000Z</time>
      </trkpt>
      <trkpt lat="47.47457" lon="6.76427">
        <ele>311</ele>
        <time>2015-04-26T07:46:26.000Z</time>
      </trkpt>
      <trkpt lat="47.47454" lon="6.76426">
        <ele>311</ele>
        <time>2015-04-26T07:46:27.000Z</time>
      </trkpt>
      <trkpt lat="47.4745" lon="6.76426">
        <ele>311</ele>
        <time>2015-04-26T07:46:28.000Z</time>
      </trkpt>
      <trkpt lat="47.47448" lon="6.76425">
        <ele>311</ele>
        <time>2015-04-26T07:46:29.000Z</time>
      </trkpt>
      <trkpt lat="47.47445" lon="6.76422">
        <ele>311</ele>
        <time>2015-04-26T07:46:31.000Z</time>
      </trkpt>
      <trkpt lat="47.47444" lon="6.76421">
        <ele>311</ele>
        <time>2015-04-26T07:46:32.000Z</time>
      </trkpt>
      <trkpt lat="47.47441" lon="6.76421">
        <ele>311</ele>
        <time>2015-04-26T07:46:35.000Z</time>
      </trkpt>
      <trkpt lat="47.47439" lon="6.76424">
        <ele>311</ele>
        <time>2015-04-26T07:46:36.000Z</time>
      </trkpt>
      <trkpt lat="47.47438" lon="6.76427">
        <ele>311</ele>
        <time>2015-04-26T07:46:37.000Z</time>
      </trkpt>
      <trkpt lat="47.47436" lon="6.76431">
        <ele>311</ele>
        <time>2015-04-26T07:46:38.000Z</time>
      </trkpt>
      <trkpt lat="47.47433" lon="6.76435">
        <ele>311</ele>
        <time>2015-04-26T07:46:39.000Z</time>
      </trkpt>
      <trkpt lat="47.47431" lon="6.76438">
        <ele>311</ele>
        <time>2015-04-26T07:46:40.000Z</time>
      </trkpt>
      <trkpt lat="47.47429" lon="6.76441">
        <ele>311</ele>
        <time>2015-04-26T07:46:41.000Z</time>
      </trkpt>
      <trkpt lat="47.47427" lon="6.76442">
        <ele>311</ele>
        <time>2015-04-26T07:46:42.000Z</time>
      </trkpt>
      <trkpt lat="47.47423" lon="6.76446">
        <ele>311</ele>
        <time>2015-04-26T07:46:44.000Z</time>
      </trkpt>
      <trkpt lat="47.47422" lon="6.76447">
        <ele>311</ele>
        <time>2015-04-26T07:46:45.000Z</time>
      </trkpt>
      <trkpt lat="47.47419" lon="6.76449">
        <ele>311</ele>
        <time>2015-04-26T07:46:48.000Z</time>
      </trkpt>
      <trkpt lat="47.47417" lon="6.76448">
        <ele>311</ele>
        <time>2015-04-26T07:46:49.000Z</time>
      </trkpt>
      <trkpt lat="47.47413" lon="6.76446">
        <ele>313</ele>
        <time>2015-04-26T07:46:51.000Z</time>
      </trkpt>
      <trkpt lat="47.47411" lon="6.76444">
        <ele>313</ele>
        <time>2015-04-26T07:46:52.000Z</time>
      </trkpt>
      <trkpt lat="47.47409" lon="6.76442">
        <ele>313</ele>
        <time>2015-04-26T07:46:53.000Z</time>
      </trkpt>
      <trkpt lat="47.47406" lon="6.76439">
        <ele>313</ele>
        <time>2015-04-26T07:46:54.000Z</time>
      </trkpt>
      <trkpt lat="47.47404" lon="6.76437">
        <ele>314</ele>
        <time>2015-04-26T07:46:55.000Z</time>
      </trkpt>
      <trkpt lat="47.47401" lon="6.76434">
        <ele>314</ele>
        <time>2015-04-26T07:46:56.000Z</time>
      </trkpt>
      <trkpt lat="47.47398" lon="6.76432">
        <ele>314</ele>
        <time>2015-04-26T07:46:57.000Z</time>
      </trkpt>
      <trkpt lat="47.47395" lon="6.76429">
        <ele>314</ele>
        <time>2015-04-26T07:46:58.000Z</time>
      </trkpt>
      <trkpt lat="47.47392" lon="6.76426">
        <ele>314</ele>
        <time>2015-04-26T07:46:59.000Z</time>
      </trkpt>
      <trkpt lat="47.47389" lon="6.76423">
        <ele>314</ele>
        <time>2015-04-26T07:47:00.000Z</time>
      </trkpt>
      <trkpt lat="47.47385" lon="6.76419">
        <ele>314</ele>
        <time>2015-04-26T07:47:01.000Z</time>
      </trkpt>
      <trkpt lat="47.47382" lon="6.76416">
        <ele>316</ele>
        <time>2015-04-26T07:47:02.000Z</time>
      </trkpt>
      <trkpt lat="47.47376" lon="6.76411">
        <ele>317</ele>
        <time>2015-04-26T07:47:03.000Z</time>
      </trkpt>
      <trkpt lat="47.47372" lon="6.7641">
        <ele>317</ele>
        <time>2015-04-26T07:47:04.000Z</time>
      </trkpt>
      <trkpt lat="47.47367" lon="6.76404">
        <ele>317</ele>
        <time>2015-04-26T07:47:05.000Z</time>
      </trkpt>
      <trkpt lat="47.47363" lon="6.76402">
        <ele>317</ele>
        <time>2015-04-26T07:47:06.000Z</time>
      </trkpt>
      <trkpt lat="47.47359" lon="6.76399">
        <ele>317</ele>
        <time>2015-04-26T07:47:07.000Z</time>
      </trkpt>
      <trkpt lat="47.47356" lon="6.76397">
        <ele>317</ele>
        <time>2015-04-26T07:47:08.000Z</time>
      </trkpt>
      <trkpt lat="47.47352" lon="6.76394">
        <ele>317</ele>
        <time>2015-04-26T07:47:09.000Z</time>
      </trkpt>
      <trkpt lat="47.47348" lon="6.76391">
        <ele>318</ele>
        <time>2015-04-26T07:47:10.000Z</time>
      </trkpt>
      <trkpt lat="47.47343" lon="6.76389">
        <ele>318</ele>
        <time>2015-04-26T07:47:11.000Z</time>
      </trkpt>
      <trkpt lat="47.47339" lon="6.76386">
        <ele>318</ele>
        <time>2015-04-26T07:47:12.000Z</time>
      </trkpt>
      <trkpt lat="47.47334" lon="6.76384">
        <ele>318</ele>
        <time>2015-04-26T07:47:13.000Z</time>
      </trkpt>
      <trkpt lat="47.4733" lon="6.76382">
        <ele>318</ele>
        <time>2015-04-26T07:47:14.000Z</time>
      </trkpt>
      <trkpt lat="47.47325" lon="6.7638">
        <ele>318</ele>
        <time>2015-04-26T07:47:15.000Z</time>
      </trkpt>
      <trkpt lat="47.4732" lon="6.76377">
        <ele>319</ele>
        <time>2015-04-26T07:47:16.000Z</time>
      </trkpt>
      <trkpt lat="47.47316" lon="6.76375">
        <ele>319</ele>
        <time>2015-04-26T07:47:17.000Z</time>
      </trkpt>
      <trkpt lat="47.47312" lon="6.76373">
        <ele>319</ele>
        <time>2015-04-26T07:47:18.000Z</time>
      </trkpt>
      <trkpt lat="47.47307" lon="6.76372">
        <ele>319</ele>
        <time>2015-04-26T07:47:19.000Z</time>
      </trkpt>
      <trkpt lat="47.47302" lon="6.76371">
        <ele>319</ele>
        <time>2015-04-26T07:47:20.000Z</time>
      </trkpt>
      <trkpt lat="47.47297" lon="6.76371">
        <ele>319</ele>
        <time>2015-04-26T07:47:21.000Z</time>
      </trkpt>
      <trkpt lat="47.47292" lon="6.76372">
        <ele>319</ele>
        <time>2015-04-26T07:47:22.000Z</time>
      </trkpt>
      <trkpt lat="47.47286" lon="6.76374">
        <ele>319</ele>
        <time>2015-04-26T07:47:23.000Z</time>
      </trkpt>
      <trkpt lat="47.47281" lon="6.76375">
        <ele>318</ele>
        <time>2015-04-26T07:47:24.000Z</time>
      </trkpt>
      <trkpt lat="47.47276" lon="6.76377">
        <ele>318</ele>
        <time>2015-04-26T07:47:25.000Z</time>
      </trkpt>
      <trkpt lat="47.47271" lon="6.76379">
        <ele>318</ele>
        <time>2015-04-26T07:47:26.000Z</time>
      </trkpt>
      <trkpt lat="47.47265" lon="6.7638">
        <ele>318</ele>
        <time>2015-04-26T07:47:27.000Z</time>
      </trkpt>
      <trkpt lat="47.47261" lon="6.76382">
        <ele>318</ele>
        <time>2015-04-26T07:47:28.000Z</time>
      </trkpt>
      <trkpt lat="47.47256" lon="6.76384">
        <ele>318</ele>
        <time>2015-04-26T07:47:29.000Z</time>
      </trkpt>
      <trkpt lat="47.4725" lon="6.76387">
        <ele>318</ele>
        <time>2015-04-26T07:47:30.000Z</time>
      </trkpt>
      <trkpt lat="47.47245" lon="6.76388">
        <ele>318</ele>
        <time>2015-04-26T07:47:31.000Z</time>
      </trkpt>
      <trkpt lat="47.4724" lon="6.76388">
        <ele>318</ele>
        <time>2015-04-26T07:47:32.000Z</time>
      </trkpt>
      <trkpt lat="47.47234" lon="6.76389">
        <ele>318</ele>
        <time>2015-04-26T07:47:33.000Z</time>
      </trkpt>
      <trkpt lat="47.47229" lon="6.76389">
        <ele>318</ele>
        <time>2015-04-26T07:47:34.000Z</time>
      </trkpt>
      <trkpt lat="47.47223" lon="6.76389">
        <ele>318</ele>
        <time>2015-04-26T07:47:35.000Z</time>
      </trkpt>
      <trkpt lat="47.47218" lon="6.76388">
        <ele>318</ele>
        <time>2015-04-26T07:47:36.000Z</time>
      </trkpt>
      <trkpt lat="47.47213" lon="6.76386">
        <ele>318</ele>
        <time>2015-04-26T07:47:37.000Z</time>
      </trkpt>
      <trkpt lat="47.47207" lon="6.76385">
        <ele>318</ele>
        <time>2015-04-26T07:47:38.000Z</time>
      </trkpt>
      <trkpt lat="47.47202" lon="6.76384">
        <ele>318</ele>
        <time>2015-04-26T07:47:39.000Z</time>
      </trkpt>
      <trkpt lat="47.47197" lon="6.76383">
        <ele>318</ele>
        <time>2015-04-26T07:47:40.000Z</time>
      </trkpt>
      <trkpt lat="47.47191" lon="6.76382">
        <ele>318</ele>
        <time>2015-04-26T07:47:41.000Z</time>
      </trkpt>
      <trkpt lat="47.47187" lon="6.7638">
        <ele>318</ele>
        <time>2015-04-26T07:47:42.000Z</time>
      </trkpt>
      <trkpt lat="47.47183" lon="6.76377">
        <ele>318</ele>
        <time>2015-04-26T07:47:43.000Z</time>
      </trkpt>
      <trkpt lat="47.47179" lon="6.76374">
        <ele>318</ele>
        <time>2015-04-26T07:47:44.000Z</time>
      </trkpt>
      <trkpt lat="47.47174" lon="6.76374">
        <ele>318</ele>
        <time>2015-04-26T07:47:45.000Z</time>
      </trkpt>
      <trkpt lat="47.47169" lon="6.76372">
        <ele>318</ele>
        <time>2015-04-26T07:47:46.000Z</time>
      </trkpt>
      <trkpt lat="47.47165" lon="6.7637">
        <ele>317</ele>
        <time>2015-04-26T07:47:47.000Z</time>
      </trkpt>
      <trkpt lat="47.4716" lon="6.7637">
        <ele>317</ele>
        <time>2015-04-26T07:47:48.000Z</time>
      </trkpt>
      <trkpt lat="47.47154" lon="6.7637">
        <ele>317</ele>
        <time>2015-04-26T07:47:49.000Z</time>
      </trkpt>
      <trkpt lat="47.47149" lon="6.76369">
        <ele>317</ele>
        <time>2015-04-26T07:47:50.000Z</time>
      </trkpt>
      <trkpt lat="47.47143" lon="6.76369">
        <ele>317</ele>
        <time>2015-04-26T07:47:51.000Z</time>
      </trkpt>
      <trkpt lat="47.47138" lon="6.76368">
        <ele>317</ele>
        <time>2015-04-26T07:47:52.000Z</time>
      </trkpt>
      <trkpt lat="47.47133" lon="6.76367">
        <ele>317</ele>
        <time>2015-04-26T07:47:53.000Z</time>
      </trkpt>
      <trkpt lat="47.47128" lon="6.76366">
        <ele>317</ele>
        <time>2015-04-26T07:47:54.000Z</time>
      </trkpt>
      <trkpt lat="47.47123" lon="6.76364">
        <ele>317</ele>
        <time>2015-04-26T07:47:55.000Z</time>
      </trkpt>
      <trkpt lat="47.47118" lon="6.76364">
        <ele>317</ele>
        <time>2015-04-26T07:47:56.000Z</time>
      </trkpt>
      <trkpt lat="47.47113" lon="6.76363">
        <ele>317</ele>
        <time>2015-04-26T07:47:57.000Z</time>
      </trkpt>
      <trkpt lat="47.47108" lon="6.76362">
        <ele>317</ele>
        <time>2015-04-26T07:47:58.000Z</time>
      </trkpt>
      <trkpt lat="47.47103" lon="6.76361">
        <ele>317</ele>
        <time>2015-04-26T07:47:59.000Z</time>
      </trkpt>
      <trkpt lat="47.47098" lon="6.7636">
        <ele>317</ele>
        <time>2015-04-26T07:48:00.000Z</time>
      </trkpt>
      <trkpt lat="47.47094" lon="6.7636">
        <ele>317</ele>
        <time>2015-04-26T07:48:01.000Z</time>
      </trkpt>
      <trkpt lat="47.4709" lon="6.76358">
        <ele>317</ele>
        <time>2015-04-26T07:48:02.000Z</time>
      </trkpt>
      <trkpt lat="47.47085" lon="6.76357">
        <ele>317</ele>
        <time>2015-04-26T07:48:03.000Z</time>
      </trkpt>
      <trkpt lat="47.4708" lon="6.76356">
        <ele>317</ele>
        <time>2015-04-26T07:48:04.000Z</time>
      </trkpt>
      <trkpt lat="47.47075" lon="6.76355">
        <ele>317</ele>
        <time>2015-04-26T07:48:05.000Z</time>
      </trkpt>
      <trkpt lat="47.47071" lon="6.76354">
        <ele>317</ele>
        <time>2015-04-26T07:48:06.000Z</time>
      </trkpt>
      <trkpt lat="47.47066" lon="6.76354">
        <ele>317</ele>
        <time>2015-04-26T07:48:07.000Z</time>
      </trkpt>
      <trkpt lat="47.47061" lon="6.76353">
        <ele>317</ele>
        <time>2015-04-26T07:48:08.000Z</time>
      </trkpt>
      <trkpt lat="47.47057" lon="6.76351">
        <ele>317</ele>
        <time>2015-04-26T07:48:09.000Z</time>
      </trkpt>
      <trkpt lat="47.47052" lon="6.7635">
        <ele>317</ele>
        <time>2015-04-26T07:48:10.000Z</time>
      </trkpt>
      <trkpt lat="47.47047" lon="6.76349">
        <ele>317</ele>
        <time>2015-04-26T07:48:11.000Z</time>
      </trkpt>
      <trkpt lat="47.47043" lon="6.76348">
        <ele>318</ele>
        <time>2015-04-26T07:48:12.000Z</time>
      </trkpt>
      <trkpt lat="47.47038" lon="6.76346">
        <ele>318</ele>
        <time>2015-04-26T07:48:13.000Z</time>
      </trkpt>
      <trkpt lat="47.47032" lon="6.76345">
        <ele>318</ele>
        <time>2015-04-26T07:48:14.000Z</time>
      </trkpt>
      <trkpt lat="47.47028" lon="6.76344">
        <ele>318</ele>
        <time>2015-04-26T07:48:15.000Z</time>
      </trkpt>
      <trkpt lat="47.47023" lon="6.76344">
        <ele>318</ele>
        <time>2015-04-26T07:48:16.000Z</time>
      </trkpt>
      <trkpt lat="47.47018" lon="6.76343">
        <ele>318</ele>
        <time>2015-04-26T07:48:17.000Z</time>
      </trkpt>
      <trkpt lat="47.47014" lon="6.76341">
        <ele>318</ele>
        <time>2015-04-26T07:48:18.000Z</time>
      </trkpt>
      <trkpt lat="47.4701" lon="6.76341">
        <ele>318</ele>
        <time>2015-04-26T07:48:19.000Z</time>
      </trkpt>
      <trkpt lat="47.47005" lon="6.76339">
        <ele>318</ele>
        <time>2015-04-26T07:48:20.000Z</time>
      </trkpt>
      <trkpt lat="47.47001" lon="6.76337">
        <ele>318</ele>
        <time>2015-04-26T07:48:21.000Z</time>
      </trkpt>
      <trkpt lat="47.46997" lon="6.76336">
        <ele>318</ele>
        <time>2015-04-26T07:48:22.000Z</time>
      </trkpt>
      <trkpt lat="47.46992" lon="6.76335">
        <ele>318</ele>
        <time>2015-04-26T07:48:23.000Z</time>
      </trkpt>
      <trkpt lat="47.46987" lon="6.76334">
        <ele>319</ele>
        <time>2015-04-26T07:48:24.000Z</time>
      </trkpt>
      <trkpt lat="47.46983" lon="6.76333">
        <ele>319</ele>
        <time>2015-04-26T07:48:25.000Z</time>
      </trkpt>
      <trkpt lat="47.46978" lon="6.76331">
        <ele>319</ele>
        <time>2015-04-26T07:48:26.000Z</time>
      </trkpt>
      <trkpt lat="47.46974" lon="6.7633">
        <ele>319</ele>
        <time>2015-04-26T07:48:27.000Z</time>
      </trkpt>
      <trkpt lat="47.46969" lon="6.76329">
        <ele>319</ele>
        <time>2015-04-26T07:48:28.000Z</time>
      </trkpt>
      <trkpt lat="47.46965" lon="6.76329">
        <ele>319</ele>
        <time>2015-04-26T07:48:29.000Z</time>
      </trkpt>
      <trkpt lat="47.4696" lon="6.76328">
        <ele>319</ele>
        <time>2015-04-26T07:48:30.000Z</time>
      </trkpt>
      <trkpt lat="47.46955" lon="6.76328">
        <ele>319</ele>
        <time>2015-04-26T07:48:31.000Z</time>
      </trkpt>
      <trkpt lat="47.4695" lon="6.76327">
        <ele>319</ele>
        <time>2015-04-26T07:48:32.000Z</time>
      </trkpt>
      <trkpt lat="47.46945" lon="6.76326">
        <ele>320</ele>
        <time>2015-04-26T07:48:33.000Z</time>
      </trkpt>
      <trkpt lat="47.4694" lon="6.76325">
        <ele>320</ele>
        <time>2015-04-26T07:48:34.000Z</time>
      </trkpt>
      <trkpt lat="47.46935" lon="6.76324">
        <ele>320</ele>
        <time>2015-04-26T07:48:35.000Z</time>
      </trkpt>
      <trkpt lat="47.4693" lon="6.76324">
        <ele>320</ele>
        <time>2015-04-26T07:48:36.000Z</time>
      </trkpt>
      <trkpt lat="47.46926" lon="6.76323">
        <ele>320</ele>
        <time>2015-04-26T07:48:37.000Z</time>
      </trkpt>
      <trkpt lat="47.4692" lon="6.76322">
        <ele>320</ele>
        <time>2015-04-26T07:48:38.000Z</time>
      </trkpt>
      <trkpt lat="47.46916" lon="6.76321">
        <ele>320</ele>
        <time>2015-04-26T07:48:39.000Z</time>
      </trkpt>
      <trkpt lat="47.46911" lon="6.76323">
        <ele>320</ele>
        <time>2015-04-26T07:48:40.000Z</time>
      </trkpt>
      <trkpt lat="47.46907" lon="6.76323">
        <ele>321</ele>
        <time>2015-04-26T07:48:41.000Z</time>
      </trkpt>
      <trkpt lat="47.46902" lon="6.76324">
        <ele>321</ele>
        <time>2015-04-26T07:48:42.000Z</time>
      </trkpt>
      <trkpt lat="47.46899" lon="6.76324">
        <ele>321</ele>
        <time>2015-04-26T07:48:43.000Z</time>
      </trkpt>
      <trkpt lat="47.46897" lon="6.76325">
        <ele>321</ele>
        <time>2015-04-26T07:48:44.000Z</time>
      </trkpt>
      <trkpt lat="47.46894" lon="6.76325">
        <ele>321</ele>
        <time>2015-04-26T07:48:45.000Z</time>
      </trkpt>
      <trkpt lat="47.46892" lon="6.76324">
        <ele>321</ele>
        <time>2015-04-26T07:48:46.000Z</time>
      </trkpt>
      <trkpt lat="47.46889" lon="6.76324">
        <ele>321</ele>
        <time>2015-04-26T07:48:47.000Z</time>
      </trkpt>
      <trkpt lat="47.46886" lon="6.76324">
        <ele>321</ele>
        <time>2015-04-26T07:48:49.000Z</time>
      </trkpt>
      <trkpt lat="47.46884" lon="6.76325">
        <ele>321</ele>
        <time>2015-04-26T07:48:50.000Z</time>
      </trkpt>
      <trkpt lat="47.46879" lon="6.76326">
        <ele>321</ele>
        <time>2015-04-26T07:48:53.000Z</time>
      </trkpt>
      <trkpt lat="47.46878" lon="6.76326">
        <ele>321</ele>
        <time>2015-04-26T07:48:54.000Z</time>
      </trkpt>
      <trkpt lat="47.46875" lon="6.76327">
        <ele>321</ele>
        <time>2015-04-26T07:48:55.000Z</time>
      </trkpt>
      <trkpt lat="47.46873" lon="6.76327">
        <ele>321</ele>
        <time>2015-04-26T07:48:56.000Z</time>
      </trkpt>
      <trkpt lat="47.4687" lon="6.76327">
        <ele>321</ele>
        <time>2015-04-26T07:48:57.000Z</time>
      </trkpt>
      <trkpt lat="47.46867" lon="6.76326">
        <ele>321</ele>
        <time>2015-04-26T07:48:58.000Z</time>
      </trkpt>
      <trkpt lat="47.46864" lon="6.76326">
        <ele>321</ele>
        <time>2015-04-26T07:48:59.000Z</time>
      </trkpt>
      <trkpt lat="47.46862" lon="6.76326">
        <ele>321</ele>
        <time>2015-04-26T07:49:00.000Z</time>
      </trkpt>
      <trkpt lat="47.46859" lon="6.76325">
        <ele>321</ele>
        <time>2015-04-26T07:49:01.000Z</time>
      </trkpt>
      <trkpt lat="47.46857" lon="6.76324">
        <ele>321</ele>
        <time>2015-04-26T07:49:02.000Z</time>
      </trkpt>
      <trkpt lat="47.46853" lon="6.76322">
        <ele>321</ele>
        <time>2015-04-26T07:49:04.000Z</time>
      </trkpt>
      <trkpt lat="47.46852" lon="6.76321">
        <ele>322</ele>
        <time>2015-04-26T07:49:05.000Z</time>
      </trkpt>
      <trkpt lat="47.46849" lon="6.76319">
        <ele>322</ele>
        <time>2015-04-26T07:49:07.000Z</time>
      </trkpt>
      <trkpt lat="47.46848" lon="6.76318">
        <ele>322</ele>
        <time>2015-04-26T07:49:08.000Z</time>
      </trkpt>
      <trkpt lat="47.46843" lon="6.76316">
        <ele>322</ele>
        <time>2015-04-26T07:49:10.000Z</time>
      </trkpt>
      <trkpt lat="47.46841" lon="6.76315">
        <ele>322</ele>
        <time>2015-04-26T07:49:11.000Z</time>
      </trkpt>
      <trkpt lat="47.46839" lon="6.76311">
        <ele>322</ele>
        <time>2015-04-26T07:49:13.000Z</time>
      </trkpt>
      <trkpt lat="47.46837" lon="6.7631">
        <ele>322</ele>
        <time>2015-04-26T07:49:14.000Z</time>
      </trkpt>
      <trkpt lat="47.46833" lon="6.76308">
        <ele>323</ele>
        <time>2015-04-26T07:49:16.000Z</time>
      </trkpt>
      <trkpt lat="47.46831" lon="6.76307">
        <ele>323</ele>
        <time>2015-04-26T07:49:17.000Z</time>
      </trkpt>
      <trkpt lat="47.46828" lon="6.76306">
        <ele>323</ele>
        <time>2015-04-26T07:49:18.000Z</time>
      </trkpt>
      <trkpt lat="47.46825" lon="6.76305">
        <ele>323</ele>
        <time>2015-04-26T07:49:19.000Z</time>
      </trkpt>
      <trkpt lat="47.46822" lon="6.76303">
        <ele>323</ele>
        <time>2015-04-26T07:49:20.000Z</time>
      </trkpt>
      <trkpt lat="47.4682" lon="6.76302">
        <ele>324</ele>
        <time>2015-04-26T07:49:21.000Z</time>
      </trkpt>
      <trkpt lat="47.46817" lon="6.76301">
        <ele>324</ele>
        <time>2015-04-26T07:49:22.000Z</time>
      </trkpt>
      <trkpt lat="47.46814" lon="6.763">
        <ele>324</ele>
        <time>2015-04-26T07:49:23.000Z</time>
      </trkpt>
      <trkpt lat="47.46812" lon="6.76299">
        <ele>324</ele>
        <time>2015-04-26T07:49:24.000Z</time>
      </trkpt>
      <trkpt lat="47.4681" lon="6.76297">
        <ele>324</ele>
        <time>2015-04-26T07:49:25.000Z</time>
      </trkpt>
      <trkpt lat="47.46807" lon="6.76296">
        <ele>324</ele>
        <time>2015-04-26T07:49:26.000Z</time>
      </trkpt>
      <trkpt lat="47.46805" lon="6.76294">
        <ele>324</ele>
        <time>2015-04-26T07:49:27.000Z</time>
      </trkpt>
      <trkpt lat="47.46802" lon="6.76292">
        <ele>324</ele>
        <time>2015-04-26T07:49:28.000Z</time>
      </trkpt>
      <trkpt lat="47.468" lon="6.7629">
        <ele>324</ele>
        <time>2015-04-26T07:49:29.000Z</time>
      </trkpt>
      <trkpt lat="47.46797" lon="6.76288">
        <ele>324</ele>
        <time>2015-04-26T07:49:30.000Z</time>
      </trkpt>
      <trkpt lat="47.46794" lon="6.76287">
        <ele>324</ele>
        <time>2015-04-26T07:49:31.000Z</time>
      </trkpt>
      <trkpt lat="47.46791" lon="6.76286">
        <ele>324</ele>
        <time>2015-04-26T07:49:32.000Z</time>
      </trkpt>
      <trkpt lat="47.46789" lon="6.76285">
        <ele>324</ele>
        <time>2015-04-26T07:49:33.000Z</time>
      </trkpt>
      <trkpt lat="47.46786" lon="6.76285">
        <ele>324</ele>
        <time>2015-04-26T07:49:34.000Z</time>
      </trkpt>
      <trkpt lat="47.46782" lon="6.76285">
        <ele>324</ele>
        <time>2015-04-26T07:49:35.000Z</time>
      </trkpt>
      <trkpt lat="47.46779" lon="6.76285">
        <ele>325</ele>
        <time>2015-04-26T07:49:36.000Z</time>
      </trkpt>
      <trkpt lat="47.46776" lon="6.76286">
        <ele>325</ele>
        <time>2015-04-26T07:49:37.000Z</time>
      </trkpt>
      <trkpt lat="47.46772" lon="6.76286">
        <ele>325</ele>
        <time>2015-04-26T07:49:38.000Z</time>
      </trkpt>
      <trkpt lat="47.46769" lon="6.76286">
        <ele>325</ele>
        <time>2015-04-26T07:49:39.000Z</time>
      </trkpt>
      <trkpt lat="47.46766" lon="6.76286">
        <ele>325</ele>
        <time>2015-04-26T07:49:40.000Z</time>
      </trkpt>
      <trkpt lat="47.46763" lon="6.76286">
        <ele>325</ele>
        <time>2015-04-26T07:49:41.000Z</time>
      </trkpt>
      <trkpt lat="47.4676" lon="6.76287">
        <ele>325</ele>
        <time>2015-04-26T07:49:42.000Z</time>
      </trkpt>
      <trkpt lat="47.46757" lon="6.76287">
        <ele>325</ele>
        <time>2015-04-26T07:49:43.000Z</time>
      </trkpt>
      <trkpt lat="47.46754" lon="6.76287">
        <ele>325</ele>
        <time>2015-04-26T07:49:44.000Z</time>
      </trkpt>
      <trkpt lat="47.46751" lon="6.76287">
        <ele>325</ele>
        <time>2015-04-26T07:49:45.000Z</time>
      </trkpt>
      <trkpt lat="47.46747" lon="6.76287">
        <ele>326</ele>
        <time>2015-04-26T07:49:46.000Z</time>
      </trkpt>
      <trkpt lat="47.46743" lon="6.76288">
        <ele>325</ele>
        <time>2015-04-26T07:49:47.000Z</time>
      </trkpt>
      <trkpt lat="47.4674" lon="6.76289">
        <ele>325</ele>
        <time>2015-04-26T07:49:48.000Z</time>
      </trkpt>
      <trkpt lat="47.46737" lon="6.7629">
        <ele>325</ele>
        <time>2015-04-26T07:49:49.000Z</time>
      </trkpt>
      <trkpt lat="47.46733" lon="6.7629">
        <ele>325</ele>
        <time>2015-04-26T07:49:50.000Z</time>
      </trkpt>
      <trkpt lat="47.4673" lon="6.76292">
        <ele>325</ele>
        <time>2015-04-26T07:49:51.000Z</time>
      </trkpt>
      <trkpt lat="47.46728" lon="6.76293">
        <ele>325</ele>
        <time>2015-04-26T07:49:52.000Z</time>
      </trkpt>
      <trkpt lat="47.46725" lon="6.76295">
        <ele>325</ele>
        <time>2015-04-26T07:49:53.000Z</time>
      </trkpt>
      <trkpt lat="47.46722" lon="6.76296">
        <ele>325</ele>
        <time>2015-04-26T07:49:54.000Z</time>
      </trkpt>
      <trkpt lat="47.4672" lon="6.76297">
        <ele>325</ele>
        <time>2015-04-26T07:49:55.000Z</time>
      </trkpt>
      <trkpt lat="47.46717" lon="6.76298">
        <ele>325</ele>
        <time>2015-04-26T07:49:56.000Z</time>
      </trkpt>
      <trkpt lat="47.46714" lon="6.76298">
        <ele>325</ele>
        <time>2015-04-26T07:49:57.000Z</time>
      </trkpt>
      <trkpt lat="47.46711" lon="6.76299">
        <ele>325</ele>
        <time>2015-04-26T07:49:58.000Z</time>
      </trkpt>
      <trkpt lat="47.46708" lon="6.763">
        <ele>325</ele>
        <time>2015-04-26T07:49:59.000Z</time>
      </trkpt>
      <trkpt lat="47.46705" lon="6.76301">
        <ele>325</ele>
        <time>2015-04-26T07:50:00.000Z</time>
      </trkpt>
      <trkpt lat="47.46702" lon="6.76302">
        <ele>325</ele>
        <time>2015-04-26T07:50:01.000Z</time>
      </trkpt>
      <trkpt lat="47.467" lon="6.76302">
        <ele>325</ele>
        <time>2015-04-26T07:50:02.000Z</time>
      </trkpt>
      <trkpt lat="47.46697" lon="6.76302">
        <ele>325</ele>
        <time>2015-04-26T07:50:03.000Z</time>
      </trkpt>
      <trkpt lat="47.46694" lon="6.76302">
        <ele>325</ele>
        <time>2015-04-26T07:50:04.000Z</time>
      </trkpt>
      <trkpt lat="47.46691" lon="6.76301">
        <ele>325</ele>
        <time>2015-04-26T07:50:05.000Z</time>
      </trkpt>
      <trkpt lat="47.46689" lon="6.76301">
        <ele>325</ele>
        <time>2015-04-26T07:50:06.000Z</time>
      </trkpt>
      <trkpt lat="47.46686" lon="6.763">
        <ele>325</ele>
        <time>2015-04-26T07:50:07.000Z</time>
      </trkpt>
      <trkpt lat="47.46683" lon="6.76301">
        <ele>325</ele>
        <time>2015-04-26T07:50:08.000Z</time>
      </trkpt>
      <trkpt lat="47.4668" lon="6.76301">
        <ele>325</ele>
        <time>2015-04-26T07:50:09.000Z</time>
      </trkpt>
      <trkpt lat="47.46678" lon="6.76301">
        <ele>325</ele>
        <time>2015-04-26T07:50:10.000Z</time>
      </trkpt>
      <trkpt lat="47.46675" lon="6.76302">
        <ele>325</ele>
        <time>2015-04-26T07:50:11.000Z</time>
      </trkpt>
      <trkpt lat="47.46672" lon="6.76302">
        <ele>325</ele>
        <time>2015-04-26T07:50:12.000Z</time>
      </trkpt>
      <trkpt lat="47.46669" lon="6.76302">
        <ele>325</ele>
        <time>2015-04-26T07:50:13.000Z</time>
      </trkpt>
      <trkpt lat="47.46666" lon="6.76302">
        <ele>326</ele>
        <time>2015-04-26T07:50:14.000Z</time>
      </trkpt>
      <trkpt lat="47.46663" lon="6.76302">
        <ele>326</ele>
        <time>2015-04-26T07:50:15.000Z</time>
      </trkpt>
      <trkpt lat="47.46659" lon="6.76302">
        <ele>326</ele>
        <time>2015-04-26T07:50:16.000Z</time>
      </trkpt>
      <trkpt lat="47.46655" lon="6.76301">
        <ele>326</ele>
        <time>2015-04-26T07:50:17.000Z</time>
      </trkpt>
      <trkpt lat="47.46652" lon="6.76301">
        <ele>326</ele>
        <time>2015-04-26T07:50:18.000Z</time>
      </trkpt>
      <trkpt lat="47.46649" lon="6.76301">
        <ele>326</ele>
        <time>2015-04-26T07:50:19.000Z</time>
      </trkpt>
      <trkpt lat="47.46645" lon="6.76301">
        <ele>326</ele>
        <time>2015-04-26T07:50:20.000Z</time>
      </trkpt>
      <trkpt lat="47.46641" lon="6.763">
        <ele>326</ele>
        <time>2015-04-26T07:50:21.000Z</time>
      </trkpt>
      <trkpt lat="47.46637" lon="6.763">
        <ele>326</ele>
        <time>2015-04-26T07:50:22.000Z</time>
      </trkpt>
      <trkpt lat="47.46633" lon="6.76299">
        <ele>326</ele>
        <time>2015-04-26T07:50:23.000Z</time>
      </trkpt>
      <trkpt lat="47.4663" lon="6.76298">
        <ele>327</ele>
        <time>2015-04-26T07:50:24.000Z</time>
      </trkpt>
      <trkpt lat="47.46625" lon="6.76297">
        <ele>327</ele>
        <time>2015-04-26T07:50:25.000Z</time>
      </trkpt>
      <trkpt lat="47.46621" lon="6.76297">
        <ele>327</ele>
        <time>2015-04-26T07:50:26.000Z</time>
      </trkpt>
      <trkpt lat="47.46617" lon="6.76296">
        <ele>327</ele>
        <time>2015-04-26T07:50:27.000Z</time>
      </trkpt>
      <trkpt lat="47.46613" lon="6.76295">
        <ele>327</ele>
        <time>2015-04-26T07:50:28.000Z</time>
      </trkpt>
      <trkpt lat="47.46609" lon="6.76294">
        <ele>327</ele>
        <time>2015-04-26T07:50:29.000Z</time>
      </trkpt>
      <trkpt lat="47.46605" lon="6.76293">
        <ele>327</ele>
        <time>2015-04-26T07:50:30.000Z</time>
      </trkpt>
      <trkpt lat="47.46601" lon="6.76292">
        <ele>328</ele>
        <time>2015-04-26T07:50:31.000Z</time>
      </trkpt>
      <trkpt lat="47.46597" lon="6.76292">
        <ele>328</ele>
        <time>2015-04-26T07:50:32.000Z</time>
      </trkpt>
      <trkpt lat="47.46593" lon="6.7629">
        <ele>328</ele>
        <time>2015-04-26T07:50:33.000Z</time>
      </trkpt>
      <trkpt lat="47.46589" lon="6.76289">
        <ele>328</ele>
        <time>2015-04-26T07:50:34.000Z</time>
      </trkpt>
      <trkpt lat="47.46586" lon="6.76287">
        <ele>328</ele>
        <time>2015-04-26T07:50:35.000Z</time>
      </trkpt>
      <trkpt lat="47.46582" lon="6.76285">
        <ele>332</ele>
        <time>2015-04-26T07:50:36.000Z</time>
      </trkpt>
      <trkpt lat="47.46579" lon="6.76283">
        <ele>332</ele>
        <time>2015-04-26T07:50:37.000Z</time>
      </trkpt>
      <trkpt lat="47.46577" lon="6.76281">
        <ele>332</ele>
        <time>2015-04-26T07:50:38.000Z</time>
      </trkpt>
      <trkpt lat="47.46575" lon="6.76278">
        <ele>332</ele>
        <time>2015-04-26T07:50:39.000Z</time>
      </trkpt>
      <trkpt lat="47.46573" lon="6.76276">
        <ele>332</ele>
        <time>2015-04-26T07:50:40.000Z</time>
      </trkpt>
      <trkpt lat="47.46571" lon="6.76274">
        <ele>332</ele>
        <time>2015-04-26T07:50:41.000Z</time>
      </trkpt>
      <trkpt lat="47.46569" lon="6.76272">
        <ele>332</ele>
        <time>2015-04-26T07:50:42.000Z</time>
      </trkpt>
      <trkpt lat="47.46566" lon="6.7627">
        <ele>332</ele>
        <time>2015-04-26T07:50:43.000Z</time>
      </trkpt>
      <trkpt lat="47.46564" lon="6.76269">
        <ele>333</ele>
        <time>2015-04-26T07:50:44.000Z</time>
      </trkpt>
      <trkpt lat="47.46561" lon="6.76268">
        <ele>333</ele>
        <time>2015-04-26T07:50:45.000Z</time>
      </trkpt>
      <trkpt lat="47.46558" lon="6.76268">
        <ele>333</ele>
        <time>2015-04-26T07:50:46.000Z</time>
      </trkpt>
      <trkpt lat="47.46554" lon="6.76267">
        <ele>333</ele>
        <time>2015-04-26T07:50:47.000Z</time>
      </trkpt>
      <trkpt lat="47.4655" lon="6.76267">
        <ele>333</ele>
        <time>2015-04-26T07:50:48.000Z</time>
      </trkpt>
      <trkpt lat="47.46546" lon="6.76266">
        <ele>333</ele>
        <time>2015-04-26T07:50:49.000Z</time>
      </trkpt>
      <trkpt lat="47.46543" lon="6.76266">
        <ele>333</ele>
        <time>2015-04-26T07:50:50.000Z</time>
      </trkpt>
      <trkpt lat="47.46539" lon="6.76266">
        <ele>333</ele>
        <time>2015-04-26T07:50:51.000Z</time>
      </trkpt>
      <trkpt lat="47.46535" lon="6.76267">
        <ele>333</ele>
        <time>2015-04-26T07:50:52.000Z</time>
      </trkpt>
      <trkpt lat="47.46532" lon="6.76267">
        <ele>333</ele>
        <time>2015-04-26T07:50:53.000Z</time>
      </trkpt>
      <trkpt lat="47.46528" lon="6.76267">
        <ele>333</ele>
        <time>2015-04-26T07:50:54.000Z</time>
      </trkpt>
      <trkpt lat="47.46524" lon="6.76268">
        <ele>334</ele>
        <time>2015-04-26T07:50:55.000Z</time>
      </trkpt>
      <trkpt lat="47.4652" lon="6.76267">
        <ele>334</ele>
        <time>2015-04-26T07:50:56.000Z</time>
      </trkpt>
      <trkpt lat="47.46516" lon="6.76267">
        <ele>334</ele>
        <time>2015-04-26T07:50:57.000Z</time>
      </trkpt>
      <trkpt lat="47.46512" lon="6.76266">
        <ele>335</ele>
        <time>2015-04-26T07:50:58.000Z</time>
      </trkpt>
      <trkpt lat="47.46507" lon="6.76264">
        <ele>335</ele>
        <time>2015-04-26T07:50:59.000Z</time>
      </trkpt>
      <trkpt lat="47.46504" lon="6.76262">
        <ele>335</ele>
        <time>2015-04-26T07:51:00.000Z</time>
      </trkpt>
      <trkpt lat="47.465" lon="6.7626">
        <ele>336</ele>
        <time>2015-04-26T07:51:01.000Z</time>
      </trkpt>
      <trkpt lat="47.46497" lon="6.76258">
        <ele>337</ele>
        <time>2015-04-26T07:51:02.000Z</time>
      </trkpt>
      <trkpt lat="47.46494" lon="6.76257">
        <ele>337</ele>
        <time>2015-04-26T07:51:03.000Z</time>
      </trkpt>
      <trkpt lat="47.4649" lon="6.76256">
        <ele>336</ele>
        <time>2015-04-26T07:51:04.000Z</time>
      </trkpt>
      <trkpt lat="47.46487" lon="6.76255">
        <ele>336</ele>
        <time>2015-04-26T07:51:05.000Z</time>
      </trkpt>
      <trkpt lat="47.46484" lon="6.76256">
        <ele>336</ele>
        <time>2015-04-26T07:51:06.000Z</time>
      </trkpt>
      <trkpt lat="47.4648" lon="6.76256">
        <ele>336</ele>
        <time>2015-04-26T07:51:07.000Z</time>
      </trkpt>
      <trkpt lat="47.46476" lon="6.76256">
        <ele>335</ele>
        <time>2015-04-26T07:51:08.000Z</time>
      </trkpt>
      <trkpt lat="47.46472" lon="6.76256">
        <ele>335</ele>
        <time>2015-04-26T07:51:09.000Z</time>
      </trkpt>
      <trkpt lat="47.46469" lon="6.76256">
        <ele>335</ele>
        <time>2015-04-26T07:51:10.000Z</time>
      </trkpt>
      <trkpt lat="47.46464" lon="6.76257">
        <ele>335</ele>
        <time>2015-04-26T07:51:11.000Z</time>
      </trkpt>
      <trkpt lat="47.4646" lon="6.76257">
        <ele>335</ele>
        <time>2015-04-26T07:51:12.000Z</time>
      </trkpt>
      <trkpt lat="47.46456" lon="6.76258">
        <ele>335</ele>
        <time>2015-04-26T07:51:13.000Z</time>
      </trkpt>
      <trkpt lat="47.46452" lon="6.76258">
        <ele>335</ele>
        <time>2015-04-26T07:51:14.000Z</time>
      </trkpt>
      <trkpt lat="47.46448" lon="6.76257">
        <ele>335</ele>
        <time>2015-04-26T07:51:15.000Z</time>
      </trkpt>
      <trkpt lat="47.46444" lon="6.76256">
        <ele>335</ele>
        <time>2015-04-26T07:51:16.000Z</time>
      </trkpt>
      <trkpt lat="47.4644" lon="6.76254">
        <ele>336</ele>
        <time>2015-04-26T07:51:17.000Z</time>
      </trkpt>
      <trkpt lat="47.46436" lon="6.76255">
        <ele>336</ele>
        <time>2015-04-26T07:51:18.000Z</time>
      </trkpt>
      <trkpt lat="47.46431" lon="6.76256">
        <ele>336</ele>
        <time>2015-04-26T07:51:19.000Z</time>
      </trkpt>
      <trkpt lat="47.46426" lon="6.76257">
        <ele>336</ele>
        <time>2015-04-26T07:51:20.000Z</time>
      </trkpt>
      <trkpt lat="47.46418" lon="6.76264">
        <ele>336</ele>
        <time>2015-04-26T07:51:21.000Z</time>
      </trkpt>
      <trkpt lat="47.46415" lon="6.76264">
        <ele>336</ele>
        <time>2015-04-26T07:51:22.000Z</time>
      </trkpt>
      <trkpt lat="47.46411" lon="6.76264">
        <ele>336</ele>
        <time>2015-04-26T07:51:23.000Z</time>
      </trkpt>
      <trkpt lat="47.46407" lon="6.76264">
        <ele>335</ele>
        <time>2015-04-26T07:51:24.000Z</time>
      </trkpt>
      <trkpt lat="47.46404" lon="6.76263">
        <ele>335</ele>
        <time>2015-04-26T07:51:25.000Z</time>
      </trkpt>
      <trkpt lat="47.46399" lon="6.76261">
        <ele>335</ele>
        <time>2015-04-26T07:51:26.000Z</time>
      </trkpt>
      <trkpt lat="47.46393" lon="6.76261">
        <ele>335</ele>
        <time>2015-04-26T07:51:27.000Z</time>
      </trkpt>
      <trkpt lat="47.46391" lon="6.7626">
        <ele>335</ele>
        <time>2015-04-26T07:51:28.000Z</time>
      </trkpt>
      <trkpt lat="47.46386" lon="6.76258">
        <ele>335</ele>
        <time>2015-04-26T07:51:29.000Z</time>
      </trkpt>
      <trkpt lat="47.46383" lon="6.76258">
        <ele>335</ele>
        <time>2015-04-26T07:51:30.000Z</time>
      </trkpt>
      <trkpt lat="47.4638" lon="6.76258">
        <ele>334</ele>
        <time>2015-04-26T07:51:31.000Z</time>
      </trkpt>
      <trkpt lat="47.46377" lon="6.76257">
        <ele>334</ele>
        <time>2015-04-26T07:51:32.000Z</time>
      </trkpt>
      <trkpt lat="47.46373" lon="6.76257">
        <ele>334</ele>
        <time>2015-04-26T07:51:33.000Z</time>
      </trkpt>
      <trkpt lat="47.46369" lon="6.76257">
        <ele>334</ele>
        <time>2015-04-26T07:51:34.000Z</time>
      </trkpt>
      <trkpt lat="47.46365" lon="6.76258">
        <ele>334</ele>
        <time>2015-04-26T07:51:35.000Z</time>
      </trkpt>
      <trkpt lat="47.46361" lon="6.76258">
        <ele>334</ele>
        <time>2015-04-26T07:51:36.000Z</time>
      </trkpt>
      <trkpt lat="47.46357" lon="6.76258">
        <ele>334</ele>
        <time>2015-04-26T07:51:37.000Z</time>
      </trkpt>
      <trkpt lat="47.46354" lon="6.76257">
        <ele>334</ele>
        <time>2015-04-26T07:51:38.000Z</time>
      </trkpt>
      <trkpt lat="47.4635" lon="6.76255">
        <ele>335</ele>
        <time>2015-04-26T07:51:39.000Z</time>
      </trkpt>
      <trkpt lat="47.46348" lon="6.76253">
        <ele>335</ele>
        <time>2015-04-26T07:51:40.000Z</time>
      </trkpt>
      <trkpt lat="47.46345" lon="6.76251">
        <ele>335</ele>
        <time>2015-04-26T07:51:41.000Z</time>
      </trkpt>
      <trkpt lat="47.46342" lon="6.76251">
        <ele>335</ele>
        <time>2015-04-26T07:51:42.000Z</time>
      </trkpt>
      <trkpt lat="47.4634" lon="6.7625">
        <ele>335</ele>
        <time>2015-04-26T07:51:43.000Z</time>
      </trkpt>
      <trkpt lat="47.46337" lon="6.7625">
        <ele>336</ele>
        <time>2015-04-26T07:51:44.000Z</time>
      </trkpt>
      <trkpt lat="47.46334" lon="6.7625">
        <ele>336</ele>
        <time>2015-04-26T07:51:45.000Z</time>
      </trkpt>
      <trkpt lat="47.46331" lon="6.76249">
        <ele>336</ele>
        <time>2015-04-26T07:51:46.000Z</time>
      </trkpt>
      <trkpt lat="47.46326" lon="6.76248">
        <ele>336</ele>
        <time>2015-04-26T07:51:47.000Z</time>
      </trkpt>
      <trkpt lat="47.46321" lon="6.76246">
        <ele>337</ele>
        <time>2015-04-26T07:51:48.000Z</time>
      </trkpt>
      <trkpt lat="47.46317" lon="6.76244">
        <ele>337</ele>
        <time>2015-04-26T07:51:49.000Z</time>
      </trkpt>
      <trkpt lat="47.46313" lon="6.76243">
        <ele>337</ele>
        <time>2015-04-26T07:51:50.000Z</time>
      </trkpt>
      <trkpt lat="47.46309" lon="6.76241">
        <ele>337</ele>
        <time>2015-04-26T07:51:51.000Z</time>
      </trkpt>
      <trkpt lat="47.46304" lon="6.7624">
        <ele>337</ele>
        <time>2015-04-26T07:51:52.000Z</time>
      </trkpt>
      <trkpt lat="47.46299" lon="6.76237">
        <ele>337</ele>
        <time>2015-04-26T07:51:53.000Z</time>
      </trkpt>
      <trkpt lat="47.46282" lon="6.7623">
        <ele>336</ele>
        <time>2015-04-26T07:51:54.000Z</time>
      </trkpt>
      <trkpt lat="47.46277" lon="6.76227">
        <ele>336</ele>
        <time>2015-04-26T07:51:55.000Z</time>
      </trkpt>
      <trkpt lat="47.46272" lon="6.76225">
        <ele>336</ele>
        <time>2015-04-26T07:51:56.000Z</time>
      </trkpt>
      <trkpt lat="47.46268" lon="6.76223">
        <ele>336</ele>
        <time>2015-04-26T07:51:57.000Z</time>
      </trkpt>
      <trkpt lat="47.46265" lon="6.7622">
        <ele>336</ele>
        <time>2015-04-26T07:51:58.000Z</time>
      </trkpt>
      <trkpt lat="47.46262" lon="6.76215">
        <ele>336</ele>
        <time>2015-04-26T07:51:59.000Z</time>
      </trkpt>
      <trkpt lat="47.46257" lon="6.76212">
        <ele>336</ele>
        <time>2015-04-26T07:52:00.000Z</time>
      </trkpt>
      <trkpt lat="47.46255" lon="6.76209">
        <ele>337</ele>
        <time>2015-04-26T07:52:01.000Z</time>
      </trkpt>
      <trkpt lat="47.46251" lon="6.76204">
        <ele>337</ele>
        <time>2015-04-26T07:52:02.000Z</time>
      </trkpt>
      <trkpt lat="47.46248" lon="6.76201">
        <ele>334</ele>
        <time>2015-04-26T07:52:03.000Z</time>
      </trkpt>
      <trkpt lat="47.46245" lon="6.76198">
        <ele>334</ele>
        <time>2015-04-26T07:52:04.000Z</time>
      </trkpt>
      <trkpt lat="47.46243" lon="6.76194">
        <ele>334</ele>
        <time>2015-04-26T07:52:05.000Z</time>
      </trkpt>
      <trkpt lat="47.4624" lon="6.76191">
        <ele>335</ele>
        <time>2015-04-26T07:52:06.000Z</time>
      </trkpt>
      <trkpt lat="47.46238" lon="6.76187">
        <ele>335</ele>
        <time>2015-04-26T07:52:07.000Z</time>
      </trkpt>
      <trkpt lat="47.46234" lon="6.76183">
        <ele>335</ele>
        <time>2015-04-26T07:52:08.000Z</time>
      </trkpt>
      <trkpt lat="47.4623" lon="6.7618">
        <ele>335</ele>
        <time>2015-04-26T07:52:09.000Z</time>
      </trkpt>
      <trkpt lat="47.46227" lon="6.76176">
        <ele>335</ele>
        <time>2015-04-26T07:52:10.000Z</time>
      </trkpt>
      <trkpt lat="47.46224" lon="6.76172">
        <ele>335</ele>
        <time>2015-04-26T07:52:11.000Z</time>
      </trkpt>
      <trkpt lat="47.46221" lon="6.76169">
        <ele>334</ele>
        <time>2015-04-26T07:52:12.000Z</time>
      </trkpt>
      <trkpt lat="47.46218" lon="6.76166">
        <ele>339</ele>
        <time>2015-04-26T07:52:13.000Z</time>
      </trkpt>
      <trkpt lat="47.46215" lon="6.76163">
        <ele>339</ele>
        <time>2015-04-26T07:52:14.000Z</time>
      </trkpt>
      <trkpt lat="47.46212" lon="6.76159">
        <ele>338</ele>
        <time>2015-04-26T07:52:15.000Z</time>
      </trkpt>
      <trkpt lat="47.46208" lon="6.76156">
        <ele>338</ele>
        <time>2015-04-26T07:52:16.000Z</time>
      </trkpt>
      <trkpt lat="47.46205" lon="6.76153">
        <ele>338</ele>
        <time>2015-04-26T07:52:17.000Z</time>
      </trkpt>
      <trkpt lat="47.46203" lon="6.7615">
        <ele>338</ele>
        <time>2015-04-26T07:52:18.000Z</time>
      </trkpt>
      <trkpt lat="47.46201" lon="6.76148">
        <ele>338</ele>
        <time>2015-04-26T07:52:19.000Z</time>
      </trkpt>
      <trkpt lat="47.46199" lon="6.76144">
        <ele>338</ele>
        <time>2015-04-26T07:52:20.000Z</time>
      </trkpt>
      <trkpt lat="47.46197" lon="6.76141">
        <ele>338</ele>
        <time>2015-04-26T07:52:21.000Z</time>
      </trkpt>
      <trkpt lat="47.46194" lon="6.76137">
        <ele>338</ele>
        <time>2015-04-26T07:52:22.000Z</time>
      </trkpt>
      <trkpt lat="47.46191" lon="6.76134">
        <ele>338</ele>
        <time>2015-04-26T07:52:23.000Z</time>
      </trkpt>
      <trkpt lat="47.46188" lon="6.76131">
        <ele>338</ele>
        <time>2015-04-26T07:52:24.000Z</time>
      </trkpt>
      <trkpt lat="47.46185" lon="6.76127">
        <ele>338</ele>
        <time>2015-04-26T07:52:25.000Z</time>
      </trkpt>
      <trkpt lat="47.46182" lon="6.76124">
        <ele>338</ele>
        <time>2015-04-26T07:52:26.000Z</time>
      </trkpt>
      <trkpt lat="47.46179" lon="6.7612">
        <ele>338</ele>
        <time>2015-04-26T07:52:27.000Z</time>
      </trkpt>
      <trkpt lat="47.46176" lon="6.76115">
        <ele>339</ele>
        <time>2015-04-26T07:52:28.000Z</time>
      </trkpt>
      <trkpt lat="47.46174" lon="6.76111">
        <ele>339</ele>
        <time>2015-04-26T07:52:29.000Z</time>
      </trkpt>
      <trkpt lat="47.46172" lon="6.76106">
        <ele>339</ele>
        <time>2015-04-26T07:52:30.000Z</time>
      </trkpt>
      <trkpt lat="47.46169" lon="6.76102">
        <ele>339</ele>
        <time>2015-04-26T07:52:31.000Z</time>
      </trkpt>
      <trkpt lat="47.46167" lon="6.76097">
        <ele>339</ele>
        <time>2015-04-26T07:52:32.000Z</time>
      </trkpt>
      <trkpt lat="47.46165" lon="6.76093">
        <ele>337</ele>
        <time>2015-04-26T07:52:33.000Z</time>
      </trkpt>
      <trkpt lat="47.46162" lon="6.76089">
        <ele>337</ele>
        <time>2015-04-26T07:52:34.000Z</time>
      </trkpt>
      <trkpt lat="47.4616" lon="6.76085">
        <ele>337</ele>
        <time>2015-04-26T07:52:35.000Z</time>
      </trkpt>
      <trkpt lat="47.46158" lon="6.76081">
        <ele>339</ele>
        <time>2015-04-26T07:52:36.000Z</time>
      </trkpt>
      <trkpt lat="47.46155" lon="6.76078">
        <ele>338</ele>
        <time>2015-04-26T07:52:37.000Z</time>
      </trkpt>
      <trkpt lat="47.46153" lon="6.76075">
        <ele>338</ele>
        <time>2015-04-26T07:52:38.000Z</time>
      </trkpt>
      <trkpt lat="47.4615" lon="6.76072">
        <ele>338</ele>
        <time>2015-04-26T07:52:39.000Z</time>
      </trkpt>
      <trkpt lat="47.46148" lon="6.76068">
        <ele>338</ele>
        <time>2015-04-26T07:52:40.000Z</time>
      </trkpt>
      <trkpt lat="47.46145" lon="6.76064">
        <ele>338</ele>
        <time>2015-04-26T07:52:41.000Z</time>
      </trkpt>
      <trkpt lat="47.46142" lon="6.7606">
        <ele>338</ele>
        <time>2015-04-26T07:52:42.000Z</time>
      </trkpt>
      <trkpt lat="47.46139" lon="6.76056">
        <ele>338</ele>
        <time>2015-04-26T07:52:43.000Z</time>
      </trkpt>
      <trkpt lat="47.46136" lon="6.76051">
        <ele>338</ele>
        <time>2015-04-26T07:52:44.000Z</time>
      </trkpt>
      <trkpt lat="47.46134" lon="6.76047">
        <ele>338</ele>
        <time>2015-04-26T07:52:45.000Z</time>
      </trkpt>
      <trkpt lat="47.46132" lon="6.76042">
        <ele>338</ele>
        <time>2015-04-26T07:52:46.000Z</time>
      </trkpt>
      <trkpt lat="47.46131" lon="6.76038">
        <ele>338</ele>
        <time>2015-04-26T07:52:47.000Z</time>
      </trkpt>
      <trkpt lat="47.46129" lon="6.76033">
        <ele>338</ele>
        <time>2015-04-26T07:52:48.000Z</time>
      </trkpt>
      <trkpt lat="47.46128" lon="6.76028">
        <ele>338</ele>
        <time>2015-04-26T07:52:49.000Z</time>
      </trkpt>
      <trkpt lat="47.46125" lon="6.76023">
        <ele>338</ele>
        <time>2015-04-26T07:52:50.000Z</time>
      </trkpt>
      <trkpt lat="47.46123" lon="6.76018">
        <ele>338</ele>
        <time>2015-04-26T07:52:51.000Z</time>
      </trkpt>
      <trkpt lat="47.4612" lon="6.76013">
        <ele>338</ele>
        <time>2015-04-26T07:52:52.000Z</time>
      </trkpt>
      <trkpt lat="47.46117" lon="6.76008">
        <ele>338</ele>
        <time>2015-04-26T07:52:53.000Z</time>
      </trkpt>
      <trkpt lat="47.46114" lon="6.76003">
        <ele>337</ele>
        <time>2015-04-26T07:52:54.000Z</time>
      </trkpt>
      <trkpt lat="47.46112" lon="6.75999">
        <ele>341</ele>
        <time>2015-04-26T07:52:55.000Z</time>
      </trkpt>
      <trkpt lat="47.46106" lon="6.75993">
        <ele>340</ele>
        <time>2015-04-26T07:52:56.000Z</time>
      </trkpt>
      <trkpt lat="47.46103" lon="6.75989">
        <ele>340</ele>
        <time>2015-04-26T07:52:57.000Z</time>
      </trkpt>
      <trkpt lat="47.461" lon="6.75985">
        <ele>340</ele>
        <time>2015-04-26T07:52:58.000Z</time>
      </trkpt>
      <trkpt lat="47.46099" lon="6.75981">
        <ele>340</ele>
        <time>2015-04-26T07:52:59.000Z</time>
      </trkpt>
      <trkpt lat="47.46097" lon="6.75976">
        <ele>340</ele>
        <time>2015-04-26T07:53:00.000Z</time>
      </trkpt>
      <trkpt lat="47.46095" lon="6.75971">
        <ele>341</ele>
        <time>2015-04-26T07:53:01.000Z</time>
      </trkpt>
      <trkpt lat="47.46095" lon="6.75966">
        <ele>341</ele>
        <time>2015-04-26T07:53:02.000Z</time>
      </trkpt>
      <trkpt lat="47.46094" lon="6.75962">
        <ele>342</ele>
        <time>2015-04-26T07:53:03.000Z</time>
      </trkpt>
      <trkpt lat="47.46093" lon="6.75955">
        <ele>342</ele>
        <time>2015-04-26T07:53:04.000Z</time>
      </trkpt>
      <trkpt lat="47.46093" lon="6.75948">
        <ele>342</ele>
        <time>2015-04-26T07:53:05.000Z</time>
      </trkpt>
      <trkpt lat="47.46092" lon="6.75941">
        <ele>342</ele>
        <time>2015-04-26T07:53:06.000Z</time>
      </trkpt>
      <trkpt lat="47.46091" lon="6.75934">
        <ele>342</ele>
        <time>2015-04-26T07:53:07.000Z</time>
      </trkpt>
      <trkpt lat="47.4609" lon="6.75928">
        <ele>342</ele>
        <time>2015-04-26T07:53:08.000Z</time>
      </trkpt>
      <trkpt lat="47.46089" lon="6.75922">
        <ele>342</ele>
        <time>2015-04-26T07:53:09.000Z</time>
      </trkpt>
      <trkpt lat="47.46082" lon="6.75914">
        <ele>341</ele>
        <time>2015-04-26T07:53:10.000Z</time>
      </trkpt>
      <trkpt lat="47.46079" lon="6.75908">
        <ele>341</ele>
        <time>2015-04-26T07:53:11.000Z</time>
      </trkpt>
      <trkpt lat="47.46078" lon="6.75903">
        <ele>341</ele>
        <time>2015-04-26T07:53:12.000Z</time>
      </trkpt>
      <trkpt lat="47.46075" lon="6.75898">
        <ele>341</ele>
        <time>2015-04-26T07:53:13.000Z</time>
      </trkpt>
      <trkpt lat="47.46073" lon="6.75894">
        <ele>341</ele>
        <time>2015-04-26T07:53:14.000Z</time>
      </trkpt>
      <trkpt lat="47.46071" lon="6.7589">
        <ele>341</ele>
        <time>2015-04-26T07:53:15.000Z</time>
      </trkpt>
      <trkpt lat="47.46067" lon="6.75885">
        <ele>341</ele>
        <time>2015-04-26T07:53:16.000Z</time>
      </trkpt>
      <trkpt lat="47.46064" lon="6.75881">
        <ele>341</ele>
        <time>2015-04-26T07:53:17.000Z</time>
      </trkpt>
      <trkpt lat="47.46061" lon="6.75877">
        <ele>341</ele>
        <time>2015-04-26T07:53:18.000Z</time>
      </trkpt>
      <trkpt lat="47.46057" lon="6.75872">
        <ele>341</ele>
        <time>2015-04-26T07:53:19.000Z</time>
      </trkpt>
      <trkpt lat="47.46055" lon="6.75868">
        <ele>341</ele>
        <time>2015-04-26T07:53:20.000Z</time>
      </trkpt>
      <trkpt lat="47.46052" lon="6.75864">
        <ele>341</ele>
        <time>2015-04-26T07:53:21.000Z</time>
      </trkpt>
      <trkpt lat="47.4605" lon="6.75861">
        <ele>341</ele>
        <time>2015-04-26T07:53:22.000Z</time>
      </trkpt>
      <trkpt lat="47.46047" lon="6.75858">
        <ele>341</ele>
        <time>2015-04-26T07:53:23.000Z</time>
      </trkpt>
      <trkpt lat="47.46044" lon="6.75854">
        <ele>341</ele>
        <time>2015-04-26T07:53:24.000Z</time>
      </trkpt>
      <trkpt lat="47.46041" lon="6.75851">
        <ele>340</ele>
        <time>2015-04-26T07:53:25.000Z</time>
      </trkpt>
      <trkpt lat="47.46038" lon="6.75847">
        <ele>340</ele>
        <time>2015-04-26T07:53:26.000Z</time>
      </trkpt>
      <trkpt lat="47.46035" lon="6.75843">
        <ele>340</ele>
        <time>2015-04-26T07:53:27.000Z</time>
      </trkpt>
      <trkpt lat="47.46032" lon="6.75839">
        <ele>340</ele>
        <time>2015-04-26T07:53:28.000Z</time>
      </trkpt>
      <trkpt lat="47.46029" lon="6.75835">
        <ele>339</ele>
        <time>2015-04-26T07:53:29.000Z</time>
      </trkpt>
      <trkpt lat="47.46027" lon="6.7583">
        <ele>342</ele>
        <time>2015-04-26T07:53:30.000Z</time>
      </trkpt>
      <trkpt lat="47.46025" lon="6.75826">
        <ele>342</ele>
        <time>2015-04-26T07:53:31.000Z</time>
      </trkpt>
      <trkpt lat="47.46022" lon="6.75821">
        <ele>342</ele>
        <time>2015-04-26T07:53:32.000Z</time>
      </trkpt>
      <trkpt lat="47.46018" lon="6.75817">
        <ele>342</ele>
        <time>2015-04-26T07:53:33.000Z</time>
      </trkpt>
      <trkpt lat="47.46015" lon="6.75813">
        <ele>342</ele>
        <time>2015-04-26T07:53:34.000Z</time>
      </trkpt>
      <trkpt lat="47.46011" lon="6.75809">
        <ele>342</ele>
        <time>2015-04-26T07:53:35.000Z</time>
      </trkpt>
      <trkpt lat="47.46007" lon="6.75806">
        <ele>342</ele>
        <time>2015-04-26T07:53:36.000Z</time>
      </trkpt>
      <trkpt lat="47.46001" lon="6.75802">
        <ele>342</ele>
        <time>2015-04-26T07:53:37.000Z</time>
      </trkpt>
      <trkpt lat="47.45998" lon="6.75798">
        <ele>337</ele>
        <time>2015-04-26T07:53:38.000Z</time>
      </trkpt>
      <trkpt lat="47.45995" lon="6.75793">
        <ele>337</ele>
        <time>2015-04-26T07:53:39.000Z</time>
      </trkpt>
      <trkpt lat="47.45991" lon="6.7579">
        <ele>337</ele>
        <time>2015-04-26T07:53:40.000Z</time>
      </trkpt>
      <trkpt lat="47.45988" lon="6.75786">
        <ele>337</ele>
        <time>2015-04-26T07:53:41.000Z</time>
      </trkpt>
      <trkpt lat="47.45985" lon="6.75783">
        <ele>337</ele>
        <time>2015-04-26T07:53:42.000Z</time>
      </trkpt>
      <trkpt lat="47.45981" lon="6.7578">
        <ele>337</ele>
        <time>2015-04-26T07:53:43.000Z</time>
      </trkpt>
      <trkpt lat="47.45977" lon="6.75777">
        <ele>337</ele>
        <time>2015-04-26T07:53:44.000Z</time>
      </trkpt>
      <trkpt lat="47.45974" lon="6.75773">
        <ele>337</ele>
        <time>2015-04-26T07:53:45.000Z</time>
      </trkpt>
      <trkpt lat="47.4597" lon="6.7577">
        <ele>337</ele>
        <time>2015-04-26T07:53:46.000Z</time>
      </trkpt>
      <trkpt lat="47.45966" lon="6.75766">
        <ele>337</ele>
        <time>2015-04-26T07:53:47.000Z</time>
      </trkpt>
      <trkpt lat="47.45962" lon="6.75762">
        <ele>337</ele>
        <time>2015-04-26T07:53:48.000Z</time>
      </trkpt>
      <trkpt lat="47.45959" lon="6.75758">
        <ele>337</ele>
        <time>2015-04-26T07:53:49.000Z</time>
      </trkpt>
      <trkpt lat="47.45956" lon="6.75754">
        <ele>336</ele>
        <time>2015-04-26T07:53:50.000Z</time>
      </trkpt>
      <trkpt lat="47.45952" lon="6.7575">
        <ele>336</ele>
        <time>2015-04-26T07:53:51.000Z</time>
      </trkpt>
      <trkpt lat="47.45949" lon="6.75747">
        <ele>340</ele>
        <time>2015-04-26T07:53:52.000Z</time>
      </trkpt>
      <trkpt lat="47.45943" lon="6.7574">
        <ele>340</ele>
        <time>2015-04-26T07:53:53.000Z</time>
      </trkpt>
      <trkpt lat="47.45938" lon="6.75736">
        <ele>339</ele>
        <time>2015-04-26T07:53:54.000Z</time>
      </trkpt>
      <trkpt lat="47.45934" lon="6.75732">
        <ele>339</ele>
        <time>2015-04-26T07:53:55.000Z</time>
      </trkpt>
      <trkpt lat="47.4593" lon="6.75729">
        <ele>339</ele>
        <time>2015-04-26T07:53:56.000Z</time>
      </trkpt>
      <trkpt lat="47.45926" lon="6.75725">
        <ele>340</ele>
        <time>2015-04-26T07:53:57.000Z</time>
      </trkpt>
      <trkpt lat="47.45922" lon="6.75721">
        <ele>340</ele>
        <time>2015-04-26T07:53:58.000Z</time>
      </trkpt>
      <trkpt lat="47.45917" lon="6.75718">
        <ele>340</ele>
        <time>2015-04-26T07:53:59.000Z</time>
      </trkpt>
      <trkpt lat="47.45914" lon="6.75714">
        <ele>338</ele>
        <time>2015-04-26T07:54:00.000Z</time>
      </trkpt>
      <trkpt lat="47.45909" lon="6.7571">
        <ele>339</ele>
        <time>2015-04-26T07:54:01.000Z</time>
      </trkpt>
      <trkpt lat="47.45905" lon="6.75707">
        <ele>339</ele>
        <time>2015-04-26T07:54:02.000Z</time>
      </trkpt>
      <trkpt lat="47.45901" lon="6.75704">
        <ele>339</ele>
        <time>2015-04-26T07:54:03.000Z</time>
      </trkpt>
      <trkpt lat="47.45896" lon="6.75702">
        <ele>339</ele>
        <time>2015-04-26T07:54:04.000Z</time>
      </trkpt>
      <trkpt lat="47.45891" lon="6.75698">
        <ele>339</ele>
        <time>2015-04-26T07:54:05.000Z</time>
      </trkpt>
      <trkpt lat="47.45887" lon="6.75696">
        <ele>339</ele>
        <time>2015-04-26T07:54:06.000Z</time>
      </trkpt>
      <trkpt lat="47.45881" lon="6.75692">
        <ele>339</ele>
        <time>2015-04-26T07:54:07.000Z</time>
      </trkpt>
      <trkpt lat="47.45875" lon="6.75688">
        <ele>339</ele>
        <time>2015-04-26T07:54:08.000Z</time>
      </trkpt>
      <trkpt lat="47.45871" lon="6.75683">
        <ele>340</ele>
        <time>2015-04-26T07:54:09.000Z</time>
      </trkpt>
      <trkpt lat="47.45866" lon="6.7568">
        <ele>340</ele>
        <time>2015-04-26T07:54:10.000Z</time>
      </trkpt>
      <trkpt lat="47.4586" lon="6.75675">
        <ele>340</ele>
        <time>2015-04-26T07:54:11.000Z</time>
      </trkpt>
      <trkpt lat="47.45855" lon="6.75672">
        <ele>340</ele>
        <time>2015-04-26T07:54:12.000Z</time>
      </trkpt>
      <trkpt lat="47.4585" lon="6.75668">
        <ele>340</ele>
        <time>2015-04-26T07:54:13.000Z</time>
      </trkpt>
      <trkpt lat="47.45846" lon="6.75665">
        <ele>344</ele>
        <time>2015-04-26T07:54:14.000Z</time>
      </trkpt>
      <trkpt lat="47.45842" lon="6.75662">
        <ele>343</ele>
        <time>2015-04-26T07:54:15.000Z</time>
      </trkpt>
      <trkpt lat="47.45838" lon="6.7566">
        <ele>343</ele>
        <time>2015-04-26T07:54:16.000Z</time>
      </trkpt>
      <trkpt lat="47.45832" lon="6.75655">
        <ele>341</ele>
        <time>2015-04-26T07:54:17.000Z</time>
      </trkpt>
      <trkpt lat="47.45828" lon="6.7565">
        <ele>341</ele>
        <time>2015-04-26T07:54:18.000Z</time>
      </trkpt>
      <trkpt lat="47.45824" lon="6.75646">
        <ele>342</ele>
        <time>2015-04-26T07:54:19.000Z</time>
      </trkpt>
      <trkpt lat="47.45819" lon="6.75642">
        <ele>342</ele>
        <time>2015-04-26T07:54:20.000Z</time>
      </trkpt>
      <trkpt lat="47.45815" lon="6.75636">
        <ele>342</ele>
        <time>2015-04-26T07:54:21.000Z</time>
      </trkpt>
      <trkpt lat="47.45809" lon="6.75632">
        <ele>342</ele>
        <time>2015-04-26T07:54:22.000Z</time>
      </trkpt>
      <trkpt lat="47.45805" lon="6.75626">
        <ele>342</ele>
        <time>2015-04-26T07:54:23.000Z</time>
      </trkpt>
      <trkpt lat="47.458" lon="6.75621">
        <ele>342</ele>
        <time>2015-04-26T07:54:24.000Z</time>
      </trkpt>
      <trkpt lat="47.45796" lon="6.75616">
        <ele>342</ele>
        <time>2015-04-26T07:54:25.000Z</time>
      </trkpt>
      <trkpt lat="47.45792" lon="6.75611">
        <ele>342</ele>
        <time>2015-04-26T07:54:26.000Z</time>
      </trkpt>
      <trkpt lat="47.45787" lon="6.75605">
        <ele>342</ele>
        <time>2015-04-26T07:54:27.000Z</time>
      </trkpt>
      <trkpt lat="47.45782" lon="6.75598">
        <ele>341</ele>
        <time>2015-04-26T07:54:28.000Z</time>
      </trkpt>
      <trkpt lat="47.45777" lon="6.75592">
        <ele>341</ele>
        <time>2015-04-26T07:54:29.000Z</time>
      </trkpt>
      <trkpt lat="47.45773" lon="6.75586">
        <ele>341</ele>
        <time>2015-04-26T07:54:30.000Z</time>
      </trkpt>
      <trkpt lat="47.4577" lon="6.75579">
        <ele>343</ele>
        <time>2015-04-26T07:54:31.000Z</time>
      </trkpt>
      <trkpt lat="47.45766" lon="6.75574">
        <ele>343</ele>
        <time>2015-04-26T07:54:32.000Z</time>
      </trkpt>
      <trkpt lat="47.45763" lon="6.75567">
        <ele>343</ele>
        <time>2015-04-26T07:54:33.000Z</time>
      </trkpt>
      <trkpt lat="47.4576" lon="6.75562">
        <ele>343</ele>
        <time>2015-04-26T07:54:34.000Z</time>
      </trkpt>
      <trkpt lat="47.45757" lon="6.75555">
        <ele>344</ele>
        <time>2015-04-26T07:54:35.000Z</time>
      </trkpt>
      <trkpt lat="47.45754" lon="6.75547">
        <ele>344</ele>
        <time>2015-04-26T07:54:36.000Z</time>
      </trkpt>
      <trkpt lat="47.45751" lon="6.75541">
        <ele>345</ele>
        <time>2015-04-26T07:54:37.000Z</time>
      </trkpt>
      <trkpt lat="47.45746" lon="6.75536">
        <ele>341</ele>
        <time>2015-04-26T07:54:38.000Z</time>
      </trkpt>
      <trkpt lat="47.45742" lon="6.75531">
        <ele>342</ele>
        <time>2015-04-26T07:54:39.000Z</time>
      </trkpt>
      <trkpt lat="47.45739" lon="6.75525">
        <ele>342</ele>
        <time>2015-04-26T07:54:40.000Z</time>
      </trkpt>
      <trkpt lat="47.45736" lon="6.75519">
        <ele>342</ele>
        <time>2015-04-26T07:54:41.000Z</time>
      </trkpt>
      <trkpt lat="47.45732" lon="6.75514">
        <ele>342</ele>
        <time>2015-04-26T07:54:42.000Z</time>
      </trkpt>
      <trkpt lat="47.45729" lon="6.75508">
        <ele>342</ele>
        <time>2015-04-26T07:54:43.000Z</time>
      </trkpt>
      <trkpt lat="47.45726" lon="6.75503">
        <ele>342</ele>
        <time>2015-04-26T07:54:44.000Z</time>
      </trkpt>
      <trkpt lat="47.45723" lon="6.75499">
        <ele>345</ele>
        <time>2015-04-26T07:54:45.000Z</time>
      </trkpt>
      <trkpt lat="47.4572" lon="6.75494">
        <ele>345</ele>
        <time>2015-04-26T07:54:46.000Z</time>
      </trkpt>
      <trkpt lat="47.45718" lon="6.7549">
        <ele>345</ele>
        <time>2015-04-26T07:54:47.000Z</time>
      </trkpt>
      <trkpt lat="47.45716" lon="6.75486">
        <ele>345</ele>
        <time>2015-04-26T07:54:48.000Z</time>
      </trkpt>
      <trkpt lat="47.45714" lon="6.75481">
        <ele>345</ele>
        <time>2015-04-26T07:54:49.000Z</time>
      </trkpt>
      <trkpt lat="47.4571" lon="6.75475">
        <ele>345</ele>
        <time>2015-04-26T07:54:50.000Z</time>
      </trkpt>
      <trkpt lat="47.45707" lon="6.75471">
        <ele>345</ele>
        <time>2015-04-26T07:54:51.000Z</time>
      </trkpt>
      <trkpt lat="47.45704" lon="6.75467">
        <ele>346</ele>
        <time>2015-04-26T07:54:52.000Z</time>
      </trkpt>
      <trkpt lat="47.45701" lon="6.75463">
        <ele>346</ele>
        <time>2015-04-26T07:54:53.000Z</time>
      </trkpt>
      <trkpt lat="47.45698" lon="6.75459">
        <ele>346</ele>
        <time>2015-04-26T07:54:54.000Z</time>
      </trkpt>
      <trkpt lat="47.45695" lon="6.75455">
        <ele>346</ele>
        <time>2015-04-26T07:54:55.000Z</time>
      </trkpt>
      <trkpt lat="47.45691" lon="6.75451">
        <ele>346</ele>
        <time>2015-04-26T07:54:56.000Z</time>
      </trkpt>
      <trkpt lat="47.45688" lon="6.75447">
        <ele>346</ele>
        <time>2015-04-26T07:54:57.000Z</time>
      </trkpt>
      <trkpt lat="47.45685" lon="6.75443">
        <ele>346</ele>
        <time>2015-04-26T07:54:58.000Z</time>
      </trkpt>
      <trkpt lat="47.45679" lon="6.75436">
        <ele>347</ele>
        <time>2015-04-26T07:54:59.000Z</time>
      </trkpt>
      <trkpt lat="47.45675" lon="6.75429">
        <ele>348</ele>
        <time>2015-04-26T07:55:00.000Z</time>
      </trkpt>
      <trkpt lat="47.45671" lon="6.75424">
        <ele>348</ele>
        <time>2015-04-26T07:55:01.000Z</time>
      </trkpt>
      <trkpt lat="47.45666" lon="6.75419">
        <ele>348</ele>
        <time>2015-04-26T07:55:02.000Z</time>
      </trkpt>
      <trkpt lat="47.45661" lon="6.75414">
        <ele>350</ele>
        <time>2015-04-26T07:55:03.000Z</time>
      </trkpt>
      <trkpt lat="47.45657" lon="6.75409">
        <ele>350</ele>
        <time>2015-04-26T07:55:04.000Z</time>
      </trkpt>
      <trkpt lat="47.45652" lon="6.75403">
        <ele>351</ele>
        <time>2015-04-26T07:55:05.000Z</time>
      </trkpt>
      <trkpt lat="47.45648" lon="6.75398">
        <ele>351</ele>
        <time>2015-04-26T07:55:06.000Z</time>
      </trkpt>
      <trkpt lat="47.45644" lon="6.75393">
        <ele>351</ele>
        <time>2015-04-26T07:55:07.000Z</time>
      </trkpt>
      <trkpt lat="47.45639" lon="6.75389">
        <ele>351</ele>
        <time>2015-04-26T07:55:08.000Z</time>
      </trkpt>
      <trkpt lat="47.45634" lon="6.75386">
        <ele>351</ele>
        <time>2015-04-26T07:55:09.000Z</time>
      </trkpt>
      <trkpt lat="47.45626" lon="6.75383">
        <ele>351</ele>
        <time>2015-04-26T07:55:10.000Z</time>
      </trkpt>
      <trkpt lat="47.4562" lon="6.75381">
        <ele>351</ele>
        <time>2015-04-26T07:55:11.000Z</time>
      </trkpt>
      <trkpt lat="47.45615" lon="6.75378">
        <ele>351</ele>
        <time>2015-04-26T07:55:12.000Z</time>
      </trkpt>
      <trkpt lat="47.4561" lon="6.75375">
        <ele>351</ele>
        <time>2015-04-26T07:55:13.000Z</time>
      </trkpt>
      <trkpt lat="47.45603" lon="6.75371">
        <ele>351</ele>
        <time>2015-04-26T07:55:14.000Z</time>
      </trkpt>
      <trkpt lat="47.45597" lon="6.75368">
        <ele>352</ele>
        <time>2015-04-26T07:55:15.000Z</time>
      </trkpt>
      <trkpt lat="47.45591" lon="6.75366">
        <ele>352</ele>
        <time>2015-04-26T07:55:16.000Z</time>
      </trkpt>
      <trkpt lat="47.45586" lon="6.75362">
        <ele>352</ele>
        <time>2015-04-26T07:55:17.000Z</time>
      </trkpt>
      <trkpt lat="47.45579" lon="6.7536">
        <ele>349</ele>
        <time>2015-04-26T07:55:18.000Z</time>
      </trkpt>
      <trkpt lat="47.45573" lon="6.75357">
        <ele>349</ele>
        <time>2015-04-26T07:55:19.000Z</time>
      </trkpt>
      <trkpt lat="47.45566" lon="6.75353">
        <ele>349</ele>
        <time>2015-04-26T07:55:20.000Z</time>
      </trkpt>
      <trkpt lat="47.45558" lon="6.7535">
        <ele>349</ele>
        <time>2015-04-26T07:55:21.000Z</time>
      </trkpt>
      <trkpt lat="47.45553" lon="6.75348">
        <ele>349</ele>
        <time>2015-04-26T07:55:22.000Z</time>
      </trkpt>
      <trkpt lat="47.45548" lon="6.75346">
        <ele>349</ele>
        <time>2015-04-26T07:55:23.000Z</time>
      </trkpt>
      <trkpt lat="47.45543" lon="6.75342">
        <ele>349</ele>
        <time>2015-04-26T07:55:24.000Z</time>
      </trkpt>
      <trkpt lat="47.45536" lon="6.7534">
        <ele>348</ele>
        <time>2015-04-26T07:55:25.000Z</time>
      </trkpt>
      <trkpt lat="47.4553" lon="6.75336">
        <ele>348</ele>
        <time>2015-04-26T07:55:26.000Z</time>
      </trkpt>
      <trkpt lat="47.45525" lon="6.75334">
        <ele>348</ele>
        <time>2015-04-26T07:55:27.000Z</time>
      </trkpt>
      <trkpt lat="47.45519" lon="6.75333">
        <ele>356</ele>
        <time>2015-04-26T07:55:28.000Z</time>
      </trkpt>
      <trkpt lat="47.45514" lon="6.75331">
        <ele>355</ele>
        <time>2015-04-26T07:55:29.000Z</time>
      </trkpt>
      <trkpt lat="47.45508" lon="6.75329">
        <ele>354</ele>
        <time>2015-04-26T07:55:30.000Z</time>
      </trkpt>
      <trkpt lat="47.45503" lon="6.75325">
        <ele>354</ele>
        <time>2015-04-26T07:55:31.000Z</time>
      </trkpt>
      <trkpt lat="47.45497" lon="6.75322">
        <ele>353</ele>
        <time>2015-04-26T07:55:32.000Z</time>
      </trkpt>
      <trkpt lat="47.45491" lon="6.75321">
        <ele>354</ele>
        <time>2015-04-26T07:55:33.000Z</time>
      </trkpt>
      <trkpt lat="47.45481" lon="6.75316">
        <ele>355</ele>
        <time>2015-04-26T07:55:35.000Z</time>
      </trkpt>
      <trkpt lat="47.45475" lon="6.75313">
        <ele>355</ele>
        <time>2015-04-26T07:55:36.000Z</time>
      </trkpt>
      <trkpt lat="47.4547" lon="6.75311">
        <ele>356</ele>
        <time>2015-04-26T07:55:37.000Z</time>
      </trkpt>
      <trkpt lat="47.45464" lon="6.75309">
        <ele>356</ele>
        <time>2015-04-26T07:55:38.000Z</time>
      </trkpt>
      <trkpt lat="47.45459" lon="6.75306">
        <ele>356</ele>
        <time>2015-04-26T07:55:39.000Z</time>
      </trkpt>
      <trkpt lat="47.45453" lon="6.75304">
        <ele>356</ele>
        <time>2015-04-26T07:55:40.000Z</time>
      </trkpt>
      <trkpt lat="47.45447" lon="6.75303">
        <ele>356</ele>
        <time>2015-04-26T07:55:41.000Z</time>
      </trkpt>
      <trkpt lat="47.45441" lon="6.753">
        <ele>356</ele>
        <time>2015-04-26T07:55:42.000Z</time>
      </trkpt>
      <trkpt lat="47.45436" lon="6.75298">
        <ele>356</ele>
        <time>2015-04-26T07:55:43.000Z</time>
      </trkpt>
      <trkpt lat="47.45432" lon="6.75296">
        <ele>356</ele>
        <time>2015-04-26T07:55:44.000Z</time>
      </trkpt>
      <trkpt lat="47.45426" lon="6.75294">
        <ele>356</ele>
        <time>2015-04-26T07:55:45.000Z</time>
      </trkpt>
      <trkpt lat="47.45422" lon="6.75293">
        <ele>357</ele>
        <time>2015-04-26T07:55:46.000Z</time>
      </trkpt>
      <trkpt lat="47.45417" lon="6.7529">
        <ele>357</ele>
        <time>2015-04-26T07:55:47.000Z</time>
      </trkpt>
      <trkpt lat="47.45413" lon="6.75288">
        <ele>354</ele>
        <time>2015-04-26T07:55:48.000Z</time>
      </trkpt>
      <trkpt lat="47.45409" lon="6.75287">
        <ele>354</ele>
        <time>2015-04-26T07:55:49.000Z</time>
      </trkpt>
      <trkpt lat="47.45404" lon="6.75286">
        <ele>354</ele>
        <time>2015-04-26T07:55:50.000Z</time>
      </trkpt>
      <trkpt lat="47.454" lon="6.75285">
        <ele>354</ele>
        <time>2015-04-26T07:55:51.000Z</time>
      </trkpt>
      <trkpt lat="47.45397" lon="6.75284">
        <ele>354</ele>
        <time>2015-04-26T07:55:52.000Z</time>
      </trkpt>
      <trkpt lat="47.45391" lon="6.75284">
        <ele>354</ele>
        <time>2015-04-26T07:55:53.000Z</time>
      </trkpt>
      <trkpt lat="47.45385" lon="6.75288">
        <ele>353</ele>
        <time>2015-04-26T07:55:54.000Z</time>
      </trkpt>
      <trkpt lat="47.45379" lon="6.7529">
        <ele>353</ele>
        <time>2015-04-26T07:55:55.000Z</time>
      </trkpt>
      <trkpt lat="47.45374" lon="6.75292">
        <ele>353</ele>
        <time>2015-04-26T07:55:56.000Z</time>
      </trkpt>
      <trkpt lat="47.45369" lon="6.75293">
        <ele>352</ele>
        <time>2015-04-26T07:55:57.000Z</time>
      </trkpt>
      <trkpt lat="47.45364" lon="6.75295">
        <ele>352</ele>
        <time>2015-04-26T07:55:58.000Z</time>
      </trkpt>
      <trkpt lat="47.4536" lon="6.75298">
        <ele>352</ele>
        <time>2015-04-26T07:55:59.000Z</time>
      </trkpt>
      <trkpt lat="47.45355" lon="6.753">
        <ele>352</ele>
        <time>2015-04-26T07:56:00.000Z</time>
      </trkpt>
      <trkpt lat="47.4535" lon="6.75303">
        <ele>351</ele>
        <time>2015-04-26T07:56:01.000Z</time>
      </trkpt>
      <trkpt lat="47.45345" lon="6.75305">
        <ele>351</ele>
        <time>2015-04-26T07:56:02.000Z</time>
      </trkpt>
      <trkpt lat="47.4534" lon="6.75309">
        <ele>351</ele>
        <time>2015-04-26T07:56:03.000Z</time>
      </trkpt>
      <trkpt lat="47.45335" lon="6.75313">
        <ele>350</ele>
        <time>2015-04-26T07:56:04.000Z</time>
      </trkpt>
      <trkpt lat="47.45331" lon="6.75315">
        <ele>350</ele>
        <time>2015-04-26T07:56:05.000Z</time>
      </trkpt>
      <trkpt lat="47.45327" lon="6.75317">
        <ele>350</ele>
        <time>2015-04-26T07:56:06.000Z</time>
      </trkpt>
      <trkpt lat="47.45323" lon="6.75317">
        <ele>350</ele>
        <time>2015-04-26T07:56:07.000Z</time>
      </trkpt>
      <trkpt lat="47.45319" lon="6.75316">
        <ele>351</ele>
        <time>2015-04-26T07:56:08.000Z</time>
      </trkpt>
      <trkpt lat="47.45314" lon="6.75317">
        <ele>351</ele>
        <time>2015-04-26T07:56:09.000Z</time>
      </trkpt>
      <trkpt lat="47.45311" lon="6.75318">
        <ele>351</ele>
        <time>2015-04-26T07:56:10.000Z</time>
      </trkpt>
      <trkpt lat="47.45308" lon="6.75326">
        <ele>351</ele>
        <time>2015-04-26T07:56:11.000Z</time>
      </trkpt>
      <trkpt lat="47.45304" lon="6.75327">
        <ele>351</ele>
        <time>2015-04-26T07:56:12.000Z</time>
      </trkpt>
      <trkpt lat="47.45302" lon="6.75324">
        <ele>351</ele>
        <time>2015-04-26T07:56:13.000Z</time>
      </trkpt>
      <trkpt lat="47.45299" lon="6.75322">
        <ele>351</ele>
        <time>2015-04-26T07:56:14.000Z</time>
      </trkpt>
      <trkpt lat="47.45296" lon="6.75318">
        <ele>351</ele>
        <time>2015-04-26T07:56:15.000Z</time>
      </trkpt>
      <trkpt lat="47.45294" lon="6.75314">
        <ele>352</ele>
        <time>2015-04-26T07:56:16.000Z</time>
      </trkpt>
      <trkpt lat="47.45293" lon="6.7531">
        <ele>352</ele>
        <time>2015-04-26T07:56:17.000Z</time>
      </trkpt>
      <trkpt lat="47.45291" lon="6.75306">
        <ele>352</ele>
        <time>2015-04-26T07:56:18.000Z</time>
      </trkpt>
      <trkpt lat="47.45291" lon="6.75303">
        <ele>352</ele>
        <time>2015-04-26T07:56:19.000Z</time>
      </trkpt>
      <trkpt lat="47.45289" lon="6.75296">
        <ele>352</ele>
        <time>2015-04-26T07:56:21.000Z</time>
      </trkpt>
      <trkpt lat="47.45288" lon="6.75293">
        <ele>352</ele>
        <time>2015-04-26T07:56:22.000Z</time>
      </trkpt>
      <trkpt lat="47.45286" lon="6.75288">
        <ele>352</ele>
        <time>2015-04-26T07:56:24.000Z</time>
      </trkpt>
      <trkpt lat="47.45285" lon="6.75286">
        <ele>353</ele>
        <time>2015-04-26T07:56:25.000Z</time>
      </trkpt>
      <trkpt lat="47.45283" lon="6.75282">
        <ele>353</ele>
        <time>2015-04-26T07:56:27.000Z</time>
      </trkpt>
      <trkpt lat="47.45281" lon="6.7528">
        <ele>353</ele>
        <time>2015-04-26T07:56:28.000Z</time>
      </trkpt>
      <trkpt lat="47.45278" lon="6.75276">
        <ele>353</ele>
        <time>2015-04-26T07:56:30.000Z</time>
      </trkpt>
      <trkpt lat="47.45276" lon="6.75275">
        <ele>353</ele>
        <time>2015-04-26T07:56:31.000Z</time>
      </trkpt>
      <trkpt lat="47.45273" lon="6.75272">
        <ele>353</ele>
        <time>2015-04-26T07:56:33.000Z</time>
      </trkpt>
      <trkpt lat="47.45272" lon="6.75271">
        <ele>353</ele>
        <time>2015-04-26T07:56:34.000Z</time>
      </trkpt>
      <trkpt lat="47.45268" lon="6.75269">
        <ele>354</ele>
        <time>2015-04-26T07:56:37.000Z</time>
      </trkpt>
      <trkpt lat="47.45266" lon="6.75268">
        <ele>354</ele>
        <time>2015-04-26T07:56:38.000Z</time>
      </trkpt>
      <trkpt lat="47.45263" lon="6.75266">
        <ele>354</ele>
        <time>2015-04-26T07:56:40.000Z</time>
      </trkpt>
      <trkpt lat="47.45262" lon="6.75264">
        <ele>354</ele>
        <time>2015-04-26T07:56:41.000Z</time>
      </trkpt>
      <trkpt lat="47.45259" lon="6.75262">
        <ele>354</ele>
        <time>2015-04-26T07:56:43.000Z</time>
      </trkpt>
      <trkpt lat="47.45257" lon="6.75261">
        <ele>354</ele>
        <time>2015-04-26T07:56:44.000Z</time>
      </trkpt>
      <trkpt lat="47.45254" lon="6.7526">
        <ele>355</ele>
        <time>2015-04-26T07:56:46.000Z</time>
      </trkpt>
      <trkpt lat="47.45253" lon="6.75259">
        <ele>355</ele>
        <time>2015-04-26T07:56:47.000Z</time>
      </trkpt>
      <trkpt lat="47.4525" lon="6.75257">
        <ele>356</ele>
        <time>2015-04-26T07:56:49.000Z</time>
      </trkpt>
      <trkpt lat="47.45249" lon="6.75256">
        <ele>356</ele>
        <time>2015-04-26T07:56:50.000Z</time>
      </trkpt>
      <trkpt lat="47.45244" lon="6.75254">
        <ele>356</ele>
        <time>2015-04-26T07:56:53.000Z</time>
      </trkpt>
      <trkpt lat="47.45243" lon="6.75253">
        <ele>357</ele>
        <time>2015-04-26T07:56:54.000Z</time>
      </trkpt>
      <trkpt lat="47.45239" lon="6.7525">
        <ele>358</ele>
        <time>2015-04-26T07:56:57.000Z</time>
      </trkpt>
      <trkpt lat="47.45238" lon="6.75248">
        <ele>358</ele>
        <time>2015-04-26T07:56:58.000Z</time>
      </trkpt>
      <trkpt lat="47.45235" lon="6.75246">
        <ele>358</ele>
        <time>2015-04-26T07:57:00.000Z</time>
      </trkpt>
      <trkpt lat="47.45234" lon="6.75245">
        <ele>359</ele>
        <time>2015-04-26T07:57:01.000Z</time>
      </trkpt>
      <trkpt lat="47.45231" lon="6.75242">
        <ele>359</ele>
        <time>2015-04-26T07:57:03.000Z</time>
      </trkpt>
      <trkpt lat="47.4523" lon="6.75241">
        <ele>359</ele>
        <time>2015-04-26T07:57:04.000Z</time>
      </trkpt>
      <trkpt lat="47.45227" lon="6.75238">
        <ele>360</ele>
        <time>2015-04-26T07:57:06.000Z</time>
      </trkpt>
      <trkpt lat="47.45226" lon="6.75237">
        <ele>360</ele>
        <time>2015-04-26T07:57:07.000Z</time>
      </trkpt>
      <trkpt lat="47.45223" lon="6.75235">
        <ele>360</ele>
        <time>2015-04-26T07:57:09.000Z</time>
      </trkpt>
      <trkpt lat="47.45221" lon="6.75234">
        <ele>360</ele>
        <time>2015-04-26T07:57:10.000Z</time>
      </trkpt>
      <trkpt lat="47.45218" lon="6.75232">
        <ele>360</ele>
        <time>2015-04-26T07:57:12.000Z</time>
      </trkpt>
      <trkpt lat="47.45217" lon="6.75231">
        <ele>361</ele>
        <time>2015-04-26T07:57:13.000Z</time>
      </trkpt>
      <trkpt lat="47.45213" lon="6.75228">
        <ele>361</ele>
        <time>2015-04-26T07:57:15.000Z</time>
      </trkpt>
      <trkpt lat="47.45212" lon="6.75227">
        <ele>361</ele>
        <time>2015-04-26T07:57:16.000Z</time>
      </trkpt>
      <trkpt lat="47.45209" lon="6.75224">
        <ele>361</ele>
        <time>2015-04-26T07:57:18.000Z</time>
      </trkpt>
      <trkpt lat="47.45207" lon="6.75223">
        <ele>361</ele>
        <time>2015-04-26T07:57:19.000Z</time>
      </trkpt>
      <trkpt lat="47.45204" lon="6.7522">
        <ele>362</ele>
        <time>2015-04-26T07:57:21.000Z</time>
      </trkpt>
      <trkpt lat="47.45202" lon="6.7522">
        <ele>362</ele>
        <time>2015-04-26T07:57:22.000Z</time>
      </trkpt>
      <trkpt lat="47.45199" lon="6.75218">
        <ele>362</ele>
        <time>2015-04-26T07:57:24.000Z</time>
      </trkpt>
      <trkpt lat="47.45197" lon="6.75216">
        <ele>362</ele>
        <time>2015-04-26T07:57:25.000Z</time>
      </trkpt>
      <trkpt lat="47.45194" lon="6.75214">
        <ele>362</ele>
        <time>2015-04-26T07:57:27.000Z</time>
      </trkpt>
      <trkpt lat="47.45193" lon="6.75213">
        <ele>362</ele>
        <time>2015-04-26T07:57:28.000Z</time>
      </trkpt>
      <trkpt lat="47.4519" lon="6.75211">
        <ele>362</ele>
        <time>2015-04-26T07:57:30.000Z</time>
      </trkpt>
      <trkpt lat="47.45189" lon="6.75209">
        <ele>362</ele>
        <time>2015-04-26T07:57:31.000Z</time>
      </trkpt>
      <trkpt lat="47.45186" lon="6.75206">
        <ele>363</ele>
        <time>2015-04-26T07:57:33.000Z</time>
      </trkpt>
      <trkpt lat="47.45184" lon="6.75205">
        <ele>363</ele>
        <time>2015-04-26T07:57:34.000Z</time>
      </trkpt>
      <trkpt lat="47.45181" lon="6.75202">
        <ele>363</ele>
        <time>2015-04-26T07:57:36.000Z</time>
      </trkpt>
      <trkpt lat="47.4518" lon="6.752">
        <ele>363</ele>
        <time>2015-04-26T07:57:37.000Z</time>
      </trkpt>
      <trkpt lat="47.45178" lon="6.75196">
        <ele>364</ele>
        <time>2015-04-26T07:57:39.000Z</time>
      </trkpt>
      <trkpt lat="47.45176" lon="6.75194">
        <ele>364</ele>
        <time>2015-04-26T07:57:40.000Z</time>
      </trkpt>
      <trkpt lat="47.45173" lon="6.75191">
        <ele>364</ele>
        <time>2015-04-26T07:57:42.000Z</time>
      </trkpt>
      <trkpt lat="47.45172" lon="6.7519">
        <ele>364</ele>
        <time>2015-04-26T07:57:43.000Z</time>
      </trkpt>
      <trkpt lat="47.45169" lon="6.75187">
        <ele>365</ele>
        <time>2015-04-26T07:57:45.000Z</time>
      </trkpt>
      <trkpt lat="47.45168" lon="6.75185">
        <ele>365</ele>
        <time>2015-04-26T07:57:46.000Z</time>
      </trkpt>
      <trkpt lat="47.45166" lon="6.75179">
        <ele>368</ele>
        <time>2015-04-26T07:57:49.000Z</time>
      </trkpt>
      <trkpt lat="47.45165" lon="6.75178">
        <ele>368</ele>
        <time>2015-04-26T07:57:50.000Z</time>
      </trkpt>
      <trkpt lat="47.45162" lon="6.75174">
        <ele>368</ele>
        <time>2015-04-26T07:57:52.000Z</time>
      </trkpt>
      <trkpt lat="47.45161" lon="6.75172">
        <ele>368</ele>
        <time>2015-04-26T07:57:53.000Z</time>
      </trkpt>
      <trkpt lat="47.45159" lon="6.75168">
        <ele>368</ele>
        <time>2015-04-26T07:57:55.000Z</time>
      </trkpt>
      <trkpt lat="47.45157" lon="6.75166">
        <ele>370</ele>
        <time>2015-04-26T07:57:56.000Z</time>
      </trkpt>
      <trkpt lat="47.45154" lon="6.75162">
        <ele>370</ele>
        <time>2015-04-26T07:57:58.000Z</time>
      </trkpt>
      <trkpt lat="47.45153" lon="6.7516">
        <ele>370</ele>
        <time>2015-04-26T07:57:59.000Z</time>
      </trkpt>
      <trkpt lat="47.4515" lon="6.75155">
        <ele>371</ele>
        <time>2015-04-26T07:58:01.000Z</time>
      </trkpt>
      <trkpt lat="47.45148" lon="6.75153">
        <ele>371</ele>
        <time>2015-04-26T07:58:02.000Z</time>
      </trkpt>
      <trkpt lat="47.45146" lon="6.75148">
        <ele>371</ele>
        <time>2015-04-26T07:58:04.000Z</time>
      </trkpt>
      <trkpt lat="47.45145" lon="6.75146">
        <ele>372</ele>
        <time>2015-04-26T07:58:05.000Z</time>
      </trkpt>
      <trkpt lat="47.45143" lon="6.75141">
        <ele>372</ele>
        <time>2015-04-26T07:58:07.000Z</time>
      </trkpt>
      <trkpt lat="47.45143" lon="6.75138">
        <ele>372</ele>
        <time>2015-04-26T07:58:08.000Z</time>
      </trkpt>
      <trkpt lat="47.45141" lon="6.75133">
        <ele>372</ele>
        <time>2015-04-26T07:58:10.000Z</time>
      </trkpt>
      <trkpt lat="47.45141" lon="6.75131">
        <ele>373</ele>
        <time>2015-04-26T07:58:11.000Z</time>
      </trkpt>
      <trkpt lat="47.45139" lon="6.75125">
        <ele>373</ele>
        <time>2015-04-26T07:58:13.000Z</time>
      </trkpt>
      <trkpt lat="47.45139" lon="6.75123">
        <ele>373</ele>
        <time>2015-04-26T07:58:14.000Z</time>
      </trkpt>
      <trkpt lat="47.45141" lon="6.75118">
        <ele>373</ele>
        <time>2015-04-26T07:58:16.000Z</time>
      </trkpt>
      <trkpt lat="47.45141" lon="6.75115">
        <ele>373</ele>
        <time>2015-04-26T07:58:17.000Z</time>
      </trkpt>
      <trkpt lat="47.4514" lon="6.7511">
        <ele>373</ele>
        <time>2015-04-26T07:58:19.000Z</time>
      </trkpt>
      <trkpt lat="47.45138" lon="6.75107">
        <ele>374</ele>
        <time>2015-04-26T07:58:20.000Z</time>
      </trkpt>
      <trkpt lat="47.45135" lon="6.75104">
        <ele>374</ele>
        <time>2015-04-26T07:58:21.000Z</time>
      </trkpt>
      <trkpt lat="47.45133" lon="6.75101">
        <ele>374</ele>
        <time>2015-04-26T07:58:22.000Z</time>
      </trkpt>
      <trkpt lat="47.45133" lon="6.75096">
        <ele>374</ele>
        <time>2015-04-26T07:58:24.000Z</time>
      </trkpt>
      <trkpt lat="47.45134" lon="6.75093">
        <ele>374</ele>
        <time>2015-04-26T07:58:25.000Z</time>
      </trkpt>
      <trkpt lat="47.45134" lon="6.75088">
        <ele>374</ele>
        <time>2015-04-26T07:58:27.000Z</time>
      </trkpt>
      <trkpt lat="47.45134" lon="6.75085">
        <ele>374</ele>
        <time>2015-04-26T07:58:28.000Z</time>
      </trkpt>
      <trkpt lat="47.45134" lon="6.7508">
        <ele>377</ele>
        <time>2015-04-26T07:58:30.000Z</time>
      </trkpt>
      <trkpt lat="47.45135" lon="6.75077">
        <ele>377</ele>
        <time>2015-04-26T07:58:31.000Z</time>
      </trkpt>
      <trkpt lat="47.45138" lon="6.75073">
        <ele>377</ele>
        <time>2015-04-26T07:58:33.000Z</time>
      </trkpt>
      <trkpt lat="47.45139" lon="6.75072">
        <ele>377</ele>
        <time>2015-04-26T07:58:34.000Z</time>
      </trkpt>
      <trkpt lat="47.4514" lon="6.75065">
        <ele>377</ele>
        <time>2015-04-26T07:58:37.000Z</time>
      </trkpt>
      <trkpt lat="47.45139" lon="6.75063">
        <ele>377</ele>
        <time>2015-04-26T07:58:38.000Z</time>
      </trkpt>
      <trkpt lat="47.45139" lon="6.75056">
        <ele>377</ele>
        <time>2015-04-26T07:58:41.000Z</time>
      </trkpt>
      <trkpt lat="47.45139" lon="6.75054">
        <ele>378</ele>
        <time>2015-04-26T07:58:42.000Z</time>
      </trkpt>
      <trkpt lat="47.45139" lon="6.75049">
        <ele>378</ele>
        <time>2015-04-26T07:58:44.000Z</time>
      </trkpt>
      <trkpt lat="47.45138" lon="6.75047">
        <ele>378</ele>
        <time>2015-04-26T07:58:45.000Z</time>
      </trkpt>
      <trkpt lat="47.45138" lon="6.75041">
        <ele>378</ele>
        <time>2015-04-26T07:58:47.000Z</time>
      </trkpt>
      <trkpt lat="47.45138" lon="6.75039">
        <ele>378</ele>
        <time>2015-04-26T07:58:48.000Z</time>
      </trkpt>
      <trkpt lat="47.45136" lon="6.75033">
        <ele>378</ele>
        <time>2015-04-26T07:58:50.000Z</time>
      </trkpt>
      <trkpt lat="47.45135" lon="6.75031">
        <ele>378</ele>
        <time>2015-04-26T07:58:51.000Z</time>
      </trkpt>
      <trkpt lat="47.45133" lon="6.75026">
        <ele>378</ele>
        <time>2015-04-26T07:58:53.000Z</time>
      </trkpt>
      <trkpt lat="47.45132" lon="6.75024">
        <ele>378</ele>
        <time>2015-04-26T07:58:54.000Z</time>
      </trkpt>
      <trkpt lat="47.45131" lon="6.75019">
        <ele>378</ele>
        <time>2015-04-26T07:58:56.000Z</time>
      </trkpt>
      <trkpt lat="47.4513" lon="6.75017">
        <ele>378</ele>
        <time>2015-04-26T07:58:57.000Z</time>
      </trkpt>
      <trkpt lat="47.45127" lon="6.75012">
        <ele>379</ele>
        <time>2015-04-26T07:58:59.000Z</time>
      </trkpt>
      <trkpt lat="47.45126" lon="6.7501">
        <ele>379</ele>
        <time>2015-04-26T07:59:00.000Z</time>
      </trkpt>
      <trkpt lat="47.45123" lon="6.75005">
        <ele>379</ele>
        <time>2015-04-26T07:59:03.000Z</time>
      </trkpt>
      <trkpt lat="47.45122" lon="6.75003">
        <ele>379</ele>
        <time>2015-04-26T07:59:04.000Z</time>
      </trkpt>
      <trkpt lat="47.45119" lon="6.75">
        <ele>381</ele>
        <time>2015-04-26T07:59:06.000Z</time>
      </trkpt>
      <trkpt lat="47.45118" lon="6.74998">
        <ele>381</ele>
        <time>2015-04-26T07:59:07.000Z</time>
      </trkpt>
      <trkpt lat="47.45115" lon="6.74994">
        <ele>381</ele>
        <time>2015-04-26T07:59:11.000Z</time>
      </trkpt>
      <trkpt lat="47.45115" lon="6.74993">
        <ele>381</ele>
        <time>2015-04-26T07:59:12.000Z</time>
      </trkpt>
      <trkpt lat="47.45112" lon="6.74991">
        <ele>382</ele>
        <time>2015-04-26T07:59:15.000Z</time>
      </trkpt>
      <trkpt lat="47.4511" lon="6.7499">
        <ele>382</ele>
        <time>2015-04-26T07:59:16.000Z</time>
      </trkpt>
      <trkpt lat="47.45107" lon="6.74987">
        <ele>382</ele>
        <time>2015-04-26T07:59:19.000Z</time>
      </trkpt>
      <trkpt lat="47.45105" lon="6.74987">
        <ele>382</ele>
        <time>2015-04-26T07:59:20.000Z</time>
      </trkpt>
      <trkpt lat="47.45102" lon="6.74985">
        <ele>383</ele>
        <time>2015-04-26T07:59:22.000Z</time>
      </trkpt>
      <trkpt lat="47.45101" lon="6.74984">
        <ele>383</ele>
        <time>2015-04-26T07:59:23.000Z</time>
      </trkpt>
      <trkpt lat="47.45097" lon="6.74981">
        <ele>383</ele>
        <time>2015-04-26T07:59:25.000Z</time>
      </trkpt>
      <trkpt lat="47.45095" lon="6.7498">
        <ele>383</ele>
        <time>2015-04-26T07:59:26.000Z</time>
      </trkpt>
      <trkpt lat="47.45093" lon="6.74978">
        <ele>383</ele>
        <time>2015-04-26T07:59:27.000Z</time>
      </trkpt>
      <trkpt lat="47.45091" lon="6.74977">
        <ele>383</ele>
        <time>2015-04-26T07:59:28.000Z</time>
      </trkpt>
      <trkpt lat="47.45086" lon="6.74974">
        <ele>383</ele>
        <time>2015-04-26T07:59:30.000Z</time>
      </trkpt>
      <trkpt lat="47.45085" lon="6.74973">
        <ele>383</ele>
        <time>2015-04-26T07:59:31.000Z</time>
      </trkpt>
      <trkpt lat="47.45081" lon="6.74969">
        <ele>390</ele>
        <time>2015-04-26T07:59:35.000Z</time>
      </trkpt>
      <trkpt lat="47.45081" lon="6.74969">
        <ele>390</ele>
        <time>2015-04-26T07:59:36.000Z</time>
      </trkpt>
      <trkpt lat="47.45078" lon="6.74967">
        <ele>390</ele>
        <time>2015-04-26T07:59:39.000Z</time>
      </trkpt>
      <trkpt lat="47.45076" lon="6.74966">
        <ele>390</ele>
        <time>2015-04-26T07:59:40.000Z</time>
      </trkpt>
      <trkpt lat="47.45074" lon="6.74964">
        <ele>390</ele>
        <time>2015-04-26T07:59:41.000Z</time>
      </trkpt>
      <trkpt lat="47.45072" lon="6.74963">
        <ele>390</ele>
        <time>2015-04-26T07:59:42.000Z</time>
      </trkpt>
      <trkpt lat="47.45068" lon="6.7496">
        <ele>390</ele>
        <time>2015-04-26T07:59:44.000Z</time>
      </trkpt>
      <trkpt lat="47.45066" lon="6.74958">
        <ele>391</ele>
        <time>2015-04-26T07:59:45.000Z</time>
      </trkpt>
      <trkpt lat="47.45064" lon="6.74956">
        <ele>391</ele>
        <time>2015-04-26T07:59:46.000Z</time>
      </trkpt>
      <trkpt lat="47.45062" lon="6.74955">
        <ele>391</ele>
        <time>2015-04-26T07:59:47.000Z</time>
      </trkpt>
      <trkpt lat="47.45059" lon="6.74954">
        <ele>391</ele>
        <time>2015-04-26T07:59:48.000Z</time>
      </trkpt>
      <trkpt lat="47.45056" lon="6.74953">
        <ele>391</ele>
        <time>2015-04-26T07:59:49.000Z</time>
      </trkpt>
      <trkpt lat="47.45054" lon="6.74952">
        <ele>391</ele>
        <time>2015-04-26T07:59:50.000Z</time>
      </trkpt>
      <trkpt lat="47.45051" lon="6.74951">
        <ele>391</ele>
        <time>2015-04-26T07:59:51.000Z</time>
      </trkpt>
      <trkpt lat="47.45048" lon="6.7495">
        <ele>391</ele>
        <time>2015-04-26T07:59:52.000Z</time>
      </trkpt>
      <trkpt lat="47.45045" lon="6.7495">
        <ele>391</ele>
        <time>2015-04-26T07:59:53.000Z</time>
      </trkpt>
      <trkpt lat="47.45042" lon="6.74949">
        <ele>392</ele>
        <time>2015-04-26T07:59:54.000Z</time>
      </trkpt>
      <trkpt lat="47.45039" lon="6.74949">
        <ele>392</ele>
        <time>2015-04-26T07:59:55.000Z</time>
      </trkpt>
      <trkpt lat="47.45037" lon="6.74949">
        <ele>392</ele>
        <time>2015-04-26T07:59:56.000Z</time>
      </trkpt>
      <trkpt lat="47.45034" lon="6.74948">
        <ele>392</ele>
        <time>2015-04-26T07:59:57.000Z</time>
      </trkpt>
      <trkpt lat="47.45032" lon="6.74948">
        <ele>392</ele>
        <time>2015-04-26T07:59:58.000Z</time>
      </trkpt>
      <trkpt lat="47.4503" lon="6.74948">
        <ele>392</ele>
        <time>2015-04-26T07:59:59.000Z</time>
      </trkpt>
      <trkpt lat="47.45025" lon="6.74948">
        <ele>392</ele>
        <time>2015-04-26T08:00:01.000Z</time>
      </trkpt>
      <trkpt lat="47.45023" lon="6.74948">
        <ele>392</ele>
        <time>2015-04-26T08:00:02.000Z</time>
      </trkpt>
      <trkpt lat="47.45019" lon="6.74949">
        <ele>393</ele>
        <time>2015-04-26T08:00:04.000Z</time>
      </trkpt>
      <trkpt lat="47.45017" lon="6.74949">
        <ele>393</ele>
        <time>2015-04-26T08:00:05.000Z</time>
      </trkpt>
      <trkpt lat="47.45013" lon="6.7495">
        <ele>393</ele>
        <time>2015-04-26T08:00:07.000Z</time>
      </trkpt>
      <trkpt lat="47.45011" lon="6.7495">
        <ele>393</ele>
        <time>2015-04-26T08:00:08.000Z</time>
      </trkpt>
      <trkpt lat="47.45006" lon="6.74951">
        <ele>393</ele>
        <time>2015-04-26T08:00:10.000Z</time>
      </trkpt>
      <trkpt lat="47.45004" lon="6.74952">
        <ele>393</ele>
        <time>2015-04-26T08:00:11.000Z</time>
      </trkpt>
      <trkpt lat="47.45002" lon="6.74953">
        <ele>393</ele>
        <time>2015-04-26T08:00:12.000Z</time>
      </trkpt>
      <trkpt lat="47.44999" lon="6.74954">
        <ele>397</ele>
        <time>2015-04-26T08:00:13.000Z</time>
      </trkpt>
      <trkpt lat="47.44997" lon="6.74955">
        <ele>397</ele>
        <time>2015-04-26T08:00:14.000Z</time>
      </trkpt>
      <trkpt lat="47.44995" lon="6.74956">
        <ele>397</ele>
        <time>2015-04-26T08:00:15.000Z</time>
      </trkpt>
      <trkpt lat="47.44991" lon="6.74958">
        <ele>398</ele>
        <time>2015-04-26T08:00:17.000Z</time>
      </trkpt>
      <trkpt lat="47.44989" lon="6.74959">
        <ele>398</ele>
        <time>2015-04-26T08:00:18.000Z</time>
      </trkpt>
      <trkpt lat="47.44985" lon="6.7496">
        <ele>398</ele>
        <time>2015-04-26T08:00:20.000Z</time>
      </trkpt>
      <trkpt lat="47.44984" lon="6.74961">
        <ele>398</ele>
        <time>2015-04-26T08:00:21.000Z</time>
      </trkpt>
      <trkpt lat="47.4498" lon="6.74962">
        <ele>398</ele>
        <time>2015-04-26T08:00:23.000Z</time>
      </trkpt>
      <trkpt lat="47.44978" lon="6.74962">
        <ele>398</ele>
        <time>2015-04-26T08:00:24.000Z</time>
      </trkpt>
      <trkpt lat="47.44974" lon="6.74963">
        <ele>398</ele>
        <time>2015-04-26T08:00:26.000Z</time>
      </trkpt>
      <trkpt lat="47.44972" lon="6.74964">
        <ele>398</ele>
        <time>2015-04-26T08:00:27.000Z</time>
      </trkpt>
      <trkpt lat="47.44969" lon="6.74965">
        <ele>398</ele>
        <time>2015-04-26T08:00:29.000Z</time>
      </trkpt>
      <trkpt lat="47.44967" lon="6.74966">
        <ele>398</ele>
        <time>2015-04-26T08:00:30.000Z</time>
      </trkpt>
      <trkpt lat="47.44963" lon="6.74968">
        <ele>398</ele>
        <time>2015-04-26T08:00:32.000Z</time>
      </trkpt>
      <trkpt lat="47.44961" lon="6.74969">
        <ele>399</ele>
        <time>2015-04-26T08:00:33.000Z</time>
      </trkpt>
      <trkpt lat="47.44957" lon="6.7497">
        <ele>399</ele>
        <time>2015-04-26T08:00:35.000Z</time>
      </trkpt>
      <trkpt lat="47.44955" lon="6.7497">
        <ele>399</ele>
        <time>2015-04-26T08:00:36.000Z</time>
      </trkpt>
      <trkpt lat="47.44951" lon="6.74972">
        <ele>399</ele>
        <time>2015-04-26T08:00:38.000Z</time>
      </trkpt>
      <trkpt lat="47.44949" lon="6.74973">
        <ele>399</ele>
        <time>2015-04-26T08:00:39.000Z</time>
      </trkpt>
      <trkpt lat="47.44946" lon="6.74974">
        <ele>399</ele>
        <time>2015-04-26T08:00:41.000Z</time>
      </trkpt>
      <trkpt lat="47.44944" lon="6.74975">
        <ele>399</ele>
        <time>2015-04-26T08:00:42.000Z</time>
      </trkpt>
      <trkpt lat="47.44939" lon="6.74976">
        <ele>400</ele>
        <time>2015-04-26T08:00:44.000Z</time>
      </trkpt>
      <trkpt lat="47.44937" lon="6.74977">
        <ele>400</ele>
        <time>2015-04-26T08:00:45.000Z</time>
      </trkpt>
      <trkpt lat="47.44935" lon="6.74978">
        <ele>400</ele>
        <time>2015-04-26T08:00:46.000Z</time>
      </trkpt>
      <trkpt lat="47.44933" lon="6.74979">
        <ele>400</ele>
        <time>2015-04-26T08:00:47.000Z</time>
      </trkpt>
      <trkpt lat="47.44931" lon="6.7498">
        <ele>400</ele>
        <time>2015-04-26T08:00:48.000Z</time>
      </trkpt>
      <trkpt lat="47.44928" lon="6.74981">
        <ele>400</ele>
        <time>2015-04-26T08:00:49.000Z</time>
      </trkpt>
      <trkpt lat="47.44926" lon="6.74982">
        <ele>400</ele>
        <time>2015-04-26T08:00:50.000Z</time>
      </trkpt>
      <trkpt lat="47.44923" lon="6.74983">
        <ele>400</ele>
        <time>2015-04-26T08:00:51.000Z</time>
      </trkpt>
      <trkpt lat="47.4492" lon="6.74984">
        <ele>401</ele>
        <time>2015-04-26T08:00:52.000Z</time>
      </trkpt>
      <trkpt lat="47.44917" lon="6.74985">
        <ele>401</ele>
        <time>2015-04-26T08:00:53.000Z</time>
      </trkpt>
      <trkpt lat="47.44915" lon="6.74986">
        <ele>403</ele>
        <time>2015-04-26T08:00:54.000Z</time>
      </trkpt>
      <trkpt lat="47.44912" lon="6.74988">
        <ele>403</ele>
        <time>2015-04-26T08:00:55.000Z</time>
      </trkpt>
      <trkpt lat="47.44909" lon="6.7499">
        <ele>403</ele>
        <time>2015-04-26T08:00:56.000Z</time>
      </trkpt>
      <trkpt lat="47.44906" lon="6.74992">
        <ele>403</ele>
        <time>2015-04-26T08:00:57.000Z</time>
      </trkpt>
      <trkpt lat="47.44904" lon="6.74993">
        <ele>403</ele>
        <time>2015-04-26T08:00:58.000Z</time>
      </trkpt>
      <trkpt lat="47.44901" lon="6.74994">
        <ele>403</ele>
        <time>2015-04-26T08:00:59.000Z</time>
      </trkpt>
      <trkpt lat="47.44898" lon="6.74995">
        <ele>403</ele>
        <time>2015-04-26T08:01:00.000Z</time>
      </trkpt>
      <trkpt lat="47.44895" lon="6.74996">
        <ele>403</ele>
        <time>2015-04-26T08:01:01.000Z</time>
      </trkpt>
      <trkpt lat="47.44893" lon="6.74997">
        <ele>403</ele>
        <time>2015-04-26T08:01:02.000Z</time>
      </trkpt>
      <trkpt lat="47.4489" lon="6.74997">
        <ele>404</ele>
        <time>2015-04-26T08:01:03.000Z</time>
      </trkpt>
      <trkpt lat="47.44887" lon="6.74998">
        <ele>404</ele>
        <time>2015-04-26T08:01:04.000Z</time>
      </trkpt>
      <trkpt lat="47.44884" lon="6.74999">
        <ele>404</ele>
        <time>2015-04-26T08:01:05.000Z</time>
      </trkpt>
      <trkpt lat="47.44881" lon="6.75">
        <ele>400</ele>
        <time>2015-04-26T08:01:06.000Z</time>
      </trkpt>
      <trkpt lat="47.44878" lon="6.75002">
        <ele>400</ele>
        <time>2015-04-26T08:01:07.000Z</time>
      </trkpt>
      <trkpt lat="47.44875" lon="6.75003">
        <ele>400</ele>
        <time>2015-04-26T08:01:08.000Z</time>
      </trkpt>
      <trkpt lat="47.44872" lon="6.75004">
        <ele>401</ele>
        <time>2015-04-26T08:01:09.000Z</time>
      </trkpt>
      <trkpt lat="47.44868" lon="6.75005">
        <ele>401</ele>
        <time>2015-04-26T08:01:10.000Z</time>
      </trkpt>
      <trkpt lat="47.44865" lon="6.75005">
        <ele>401</ele>
        <time>2015-04-26T08:01:11.000Z</time>
      </trkpt>
      <trkpt lat="47.44862" lon="6.75006">
        <ele>401</ele>
        <time>2015-04-26T08:01:12.000Z</time>
      </trkpt>
      <trkpt lat="47.44859" lon="6.75006">
        <ele>401</ele>
        <time>2015-04-26T08:01:13.000Z</time>
      </trkpt>
      <trkpt lat="47.44856" lon="6.75006">
        <ele>401</ele>
        <time>2015-04-26T08:01:14.000Z</time>
      </trkpt>
      <trkpt lat="47.44854" lon="6.75007">
        <ele>401</ele>
        <time>2015-04-26T08:01:15.000Z</time>
      </trkpt>
      <trkpt lat="47.44851" lon="6.75008">
        <ele>401</ele>
        <time>2015-04-26T08:01:16.000Z</time>
      </trkpt>
      <trkpt lat="47.44848" lon="6.75008">
        <ele>402</ele>
        <time>2015-04-26T08:01:17.000Z</time>
      </trkpt>
      <trkpt lat="47.44845" lon="6.75008">
        <ele>402</ele>
        <time>2015-04-26T08:01:18.000Z</time>
      </trkpt>
      <trkpt lat="47.44842" lon="6.75007">
        <ele>402</ele>
        <time>2015-04-26T08:01:19.000Z</time>
      </trkpt>
      <trkpt lat="47.44839" lon="6.75007">
        <ele>403</ele>
        <time>2015-04-26T08:01:20.000Z</time>
      </trkpt>
      <trkpt lat="47.44836" lon="6.75006">
        <ele>403</ele>
        <time>2015-04-26T08:01:21.000Z</time>
      </trkpt>
      <trkpt lat="47.44833" lon="6.75006">
        <ele>404</ele>
        <time>2015-04-26T08:01:22.000Z</time>
      </trkpt>
      <trkpt lat="47.44831" lon="6.75005">
        <ele>404</ele>
        <time>2015-04-26T08:01:23.000Z</time>
      </trkpt>
      <trkpt lat="47.44828" lon="6.75005">
        <ele>403</ele>
        <time>2015-04-26T08:01:24.000Z</time>
      </trkpt>
      <trkpt lat="47.44825" lon="6.75004">
        <ele>403</ele>
        <time>2015-04-26T08:01:25.000Z</time>
      </trkpt>
      <trkpt lat="47.44822" lon="6.75004">
        <ele>403</ele>
        <time>2015-04-26T08:01:26.000Z</time>
      </trkpt>
      <trkpt lat="47.44819" lon="6.75004">
        <ele>403</ele>
        <time>2015-04-26T08:01:27.000Z</time>
      </trkpt>
      <trkpt lat="47.44816" lon="6.75003">
        <ele>403</ele>
        <time>2015-04-26T08:01:28.000Z</time>
      </trkpt>
      <trkpt lat="47.44813" lon="6.75002">
        <ele>403</ele>
        <time>2015-04-26T08:01:29.000Z</time>
      </trkpt>
      <trkpt lat="47.44811" lon="6.75002">
        <ele>403</ele>
        <time>2015-04-26T08:01:30.000Z</time>
      </trkpt>
      <trkpt lat="47.44808" lon="6.75001">
        <ele>403</ele>
        <time>2015-04-26T08:01:31.000Z</time>
      </trkpt>
      <trkpt lat="47.44805" lon="6.75001">
        <ele>403</ele>
        <time>2015-04-26T08:01:32.000Z</time>
      </trkpt>
      <trkpt lat="47.44802" lon="6.75001">
        <ele>403</ele>
        <time>2015-04-26T08:01:33.000Z</time>
      </trkpt>
      <trkpt lat="47.448" lon="6.75">
        <ele>403</ele>
        <time>2015-04-26T08:01:34.000Z</time>
      </trkpt>
      <trkpt lat="47.44797" lon="6.75">
        <ele>407</ele>
        <time>2015-04-26T08:01:35.000Z</time>
      </trkpt>
      <trkpt lat="47.44794" lon="6.74999">
        <ele>407</ele>
        <time>2015-04-26T08:01:36.000Z</time>
      </trkpt>
      <trkpt lat="47.44791" lon="6.74998">
        <ele>407</ele>
        <time>2015-04-26T08:01:37.000Z</time>
      </trkpt>
      <trkpt lat="47.44789" lon="6.74997">
        <ele>407</ele>
        <time>2015-04-26T08:01:38.000Z</time>
      </trkpt>
      <trkpt lat="47.44786" lon="6.74996">
        <ele>407</ele>
        <time>2015-04-26T08:01:39.000Z</time>
      </trkpt>
      <trkpt lat="47.44784" lon="6.74994">
        <ele>407</ele>
        <time>2015-04-26T08:01:40.000Z</time>
      </trkpt>
      <trkpt lat="47.44781" lon="6.74993">
        <ele>407</ele>
        <time>2015-04-26T08:01:41.000Z</time>
      </trkpt>
      <trkpt lat="47.44779" lon="6.74992">
        <ele>407</ele>
        <time>2015-04-26T08:01:42.000Z</time>
      </trkpt>
      <trkpt lat="47.44776" lon="6.7499">
        <ele>407</ele>
        <time>2015-04-26T08:01:43.000Z</time>
      </trkpt>
      <trkpt lat="47.44774" lon="6.74989">
        <ele>407</ele>
        <time>2015-04-26T08:01:44.000Z</time>
      </trkpt>
      <trkpt lat="47.44771" lon="6.74987">
        <ele>408</ele>
        <time>2015-04-26T08:01:45.000Z</time>
      </trkpt>
      <trkpt lat="47.44769" lon="6.74986">
        <ele>408</ele>
        <time>2015-04-26T08:01:46.000Z</time>
      </trkpt>
      <trkpt lat="47.44767" lon="6.74985">
        <ele>408</ele>
        <time>2015-04-26T08:01:47.000Z</time>
      </trkpt>
      <trkpt lat="47.44765" lon="6.74983">
        <ele>408</ele>
        <time>2015-04-26T08:01:48.000Z</time>
      </trkpt>
      <trkpt lat="47.44763" lon="6.74981">
        <ele>408</ele>
        <time>2015-04-26T08:01:49.000Z</time>
      </trkpt>
      <trkpt lat="47.4476" lon="6.7498">
        <ele>408</ele>
        <time>2015-04-26T08:01:50.000Z</time>
      </trkpt>
      <trkpt lat="47.44758" lon="6.74978">
        <ele>408</ele>
        <time>2015-04-26T08:01:51.000Z</time>
      </trkpt>
      <trkpt lat="47.44756" lon="6.74977">
        <ele>408</ele>
        <time>2015-04-26T08:01:52.000Z</time>
      </trkpt>
      <trkpt lat="47.44754" lon="6.74975">
        <ele>408</ele>
        <time>2015-04-26T08:01:53.000Z</time>
      </trkpt>
      <trkpt lat="47.44751" lon="6.74974">
        <ele>408</ele>
        <time>2015-04-26T08:01:54.000Z</time>
      </trkpt>
      <trkpt lat="47.44749" lon="6.74972">
        <ele>409</ele>
        <time>2015-04-26T08:01:55.000Z</time>
      </trkpt>
      <trkpt lat="47.44746" lon="6.7497">
        <ele>409</ele>
        <time>2015-04-26T08:01:56.000Z</time>
      </trkpt>
      <trkpt lat="47.44744" lon="6.74969">
        <ele>409</ele>
        <time>2015-04-26T08:01:57.000Z</time>
      </trkpt>
      <trkpt lat="47.44741" lon="6.74967">
        <ele>409</ele>
        <time>2015-04-26T08:01:58.000Z</time>
      </trkpt>
      <trkpt lat="47.44738" lon="6.74965">
        <ele>409</ele>
        <time>2015-04-26T08:01:59.000Z</time>
      </trkpt>
      <trkpt lat="47.44736" lon="6.74963">
        <ele>409</ele>
        <time>2015-04-26T08:02:00.000Z</time>
      </trkpt>
      <trkpt lat="47.44733" lon="6.74961">
        <ele>409</ele>
        <time>2015-04-26T08:02:01.000Z</time>
      </trkpt>
      <trkpt lat="47.4473" lon="6.74959">
        <ele>409</ele>
        <time>2015-04-26T08:02:02.000Z</time>
      </trkpt>
      <trkpt lat="47.44727" lon="6.74957">
        <ele>410</ele>
        <time>2015-04-26T08:02:03.000Z</time>
      </trkpt>
      <trkpt lat="47.44724" lon="6.74955">
        <ele>410</ele>
        <time>2015-04-26T08:02:04.000Z</time>
      </trkpt>
      <trkpt lat="47.44721" lon="6.74952">
        <ele>410</ele>
        <time>2015-04-26T08:02:05.000Z</time>
      </trkpt>
      <trkpt lat="47.44718" lon="6.7495">
        <ele>410</ele>
        <time>2015-04-26T08:02:06.000Z</time>
      </trkpt>
      <trkpt lat="47.44714" lon="6.74947">
        <ele>410</ele>
        <time>2015-04-26T08:02:07.000Z</time>
      </trkpt>
      <trkpt lat="47.44711" lon="6.74944">
        <ele>410</ele>
        <time>2015-04-26T08:02:08.000Z</time>
      </trkpt>
      <trkpt lat="47.44707" lon="6.74941">
        <ele>410</ele>
        <time>2015-04-26T08:02:09.000Z</time>
      </trkpt>
      <trkpt lat="47.44703" lon="6.74938">
        <ele>410</ele>
        <time>2015-04-26T08:02:10.000Z</time>
      </trkpt>
      <trkpt lat="47.44699" lon="6.74935">
        <ele>410</ele>
        <time>2015-04-26T08:02:11.000Z</time>
      </trkpt>
      <trkpt lat="47.44693" lon="6.74931">
        <ele>410</ele>
        <time>2015-04-26T08:02:12.000Z</time>
      </trkpt>
      <trkpt lat="47.44689" lon="6.74928">
        <ele>411</ele>
        <time>2015-04-26T08:02:13.000Z</time>
      </trkpt>
      <trkpt lat="47.44685" lon="6.74925">
        <ele>411</ele>
        <time>2015-04-26T08:02:14.000Z</time>
      </trkpt>
      <trkpt lat="47.4468" lon="6.74921">
        <ele>411</ele>
        <time>2015-04-26T08:02:15.000Z</time>
      </trkpt>
      <trkpt lat="47.44676" lon="6.74917">
        <ele>411</ele>
        <time>2015-04-26T08:02:16.000Z</time>
      </trkpt>
      <trkpt lat="47.44671" lon="6.74913">
        <ele>413</ele>
        <time>2015-04-26T08:02:17.000Z</time>
      </trkpt>
      <trkpt lat="47.44666" lon="6.74908">
        <ele>413</ele>
        <time>2015-04-26T08:02:18.000Z</time>
      </trkpt>
      <trkpt lat="47.44661" lon="6.74904">
        <ele>414</ele>
        <time>2015-04-26T08:02:19.000Z</time>
      </trkpt>
      <trkpt lat="47.44655" lon="6.749">
        <ele>414</ele>
        <time>2015-04-26T08:02:20.000Z</time>
      </trkpt>
      <trkpt lat="47.4465" lon="6.74898">
        <ele>415</ele>
        <time>2015-04-26T08:02:21.000Z</time>
      </trkpt>
      <trkpt lat="47.44643" lon="6.74895">
        <ele>415</ele>
        <time>2015-04-26T08:02:22.000Z</time>
      </trkpt>
      <trkpt lat="47.44637" lon="6.74893">
        <ele>415</ele>
        <time>2015-04-26T08:02:23.000Z</time>
      </trkpt>
      <trkpt lat="47.44632" lon="6.74893">
        <ele>415</ele>
        <time>2015-04-26T08:02:24.000Z</time>
      </trkpt>
      <trkpt lat="47.44627" lon="6.74893">
        <ele>415</ele>
        <time>2015-04-26T08:02:25.000Z</time>
      </trkpt>
      <trkpt lat="47.44622" lon="6.74891">
        <ele>415</ele>
        <time>2015-04-26T08:02:26.000Z</time>
      </trkpt>
      <trkpt lat="47.44618" lon="6.74889">
        <ele>416</ele>
        <time>2015-04-26T08:02:27.000Z</time>
      </trkpt>
      <trkpt lat="47.44614" lon="6.74889">
        <ele>416</ele>
        <time>2015-04-26T08:02:28.000Z</time>
      </trkpt>
      <trkpt lat="47.4461" lon="6.74889">
        <ele>416</ele>
        <time>2015-04-26T08:02:29.000Z</time>
      </trkpt>
      <trkpt lat="47.44606" lon="6.74888">
        <ele>416</ele>
        <time>2015-04-26T08:02:30.000Z</time>
      </trkpt>
      <trkpt lat="47.44602" lon="6.74887">
        <ele>416</ele>
        <time>2015-04-26T08:02:31.000Z</time>
      </trkpt>
      <trkpt lat="47.44599" lon="6.74887">
        <ele>416</ele>
        <time>2015-04-26T08:02:32.000Z</time>
      </trkpt>
      <trkpt lat="47.44596" lon="6.74888">
        <ele>416</ele>
        <time>2015-04-26T08:02:33.000Z</time>
      </trkpt>
      <trkpt lat="47.44593" lon="6.74889">
        <ele>416</ele>
        <time>2015-04-26T08:02:34.000Z</time>
      </trkpt>
      <trkpt lat="47.4459" lon="6.74889">
        <ele>416</ele>
        <time>2015-04-26T08:02:35.000Z</time>
      </trkpt>
      <trkpt lat="47.44587" lon="6.7489">
        <ele>415</ele>
        <time>2015-04-26T08:02:36.000Z</time>
      </trkpt>
      <trkpt lat="47.44585" lon="6.74891">
        <ele>415</ele>
        <time>2015-04-26T08:02:37.000Z</time>
      </trkpt>
      <trkpt lat="47.44582" lon="6.74891">
        <ele>419</ele>
        <time>2015-04-26T08:02:38.000Z</time>
      </trkpt>
      <trkpt lat="47.44579" lon="6.74893">
        <ele>419</ele>
        <time>2015-04-26T08:02:39.000Z</time>
      </trkpt>
      <trkpt lat="47.44577" lon="6.74894">
        <ele>419</ele>
        <time>2015-04-26T08:02:40.000Z</time>
      </trkpt>
      <trkpt lat="47.44575" lon="6.74895">
        <ele>419</ele>
        <time>2015-04-26T08:02:41.000Z</time>
      </trkpt>
      <trkpt lat="47.44572" lon="6.74898">
        <ele>419</ele>
        <time>2015-04-26T08:02:43.000Z</time>
      </trkpt>
      <trkpt lat="47.4457" lon="6.749">
        <ele>419</ele>
        <time>2015-04-26T08:02:44.000Z</time>
      </trkpt>
      <trkpt lat="47.44566" lon="6.74903">
        <ele>419</ele>
        <time>2015-04-26T08:02:46.000Z</time>
      </trkpt>
      <trkpt lat="47.44564" lon="6.74905">
        <ele>419</ele>
        <time>2015-04-26T08:02:47.000Z</time>
      </trkpt>
      <trkpt lat="47.44561" lon="6.74908">
        <ele>419</ele>
        <time>2015-04-26T08:02:49.000Z</time>
      </trkpt>
      <trkpt lat="47.4456" lon="6.74909">
        <ele>419</ele>
        <time>2015-04-26T08:02:50.000Z</time>
      </trkpt>
      <trkpt lat="47.44557" lon="6.74912">
        <ele>419</ele>
        <time>2015-04-26T08:02:52.000Z</time>
      </trkpt>
      <trkpt lat="47.44556" lon="6.74913">
        <ele>420</ele>
        <time>2015-04-26T08:02:53.000Z</time>
      </trkpt>
      <trkpt lat="47.44553" lon="6.74916">
        <ele>420</ele>
        <time>2015-04-26T08:02:55.000Z</time>
      </trkpt>
      <trkpt lat="47.44551" lon="6.74917">
        <ele>418</ele>
        <time>2015-04-26T08:02:56.000Z</time>
      </trkpt>
      <trkpt lat="47.44548" lon="6.7492">
        <ele>419</ele>
        <time>2015-04-26T08:02:58.000Z</time>
      </trkpt>
      <trkpt lat="47.44547" lon="6.74921">
        <ele>419</ele>
        <time>2015-04-26T08:02:59.000Z</time>
      </trkpt>
      <trkpt lat="47.44543" lon="6.74924">
        <ele>419</ele>
        <time>2015-04-26T08:03:01.000Z</time>
      </trkpt>
      <trkpt lat="47.44542" lon="6.74925">
        <ele>419</ele>
        <time>2015-04-26T08:03:02.000Z</time>
      </trkpt>
      <trkpt lat="47.44538" lon="6.74928">
        <ele>420</ele>
        <time>2015-04-26T08:03:04.000Z</time>
      </trkpt>
      <trkpt lat="47.44537" lon="6.7493">
        <ele>420</ele>
        <time>2015-04-26T08:03:05.000Z</time>
      </trkpt>
      <trkpt lat="47.44533" lon="6.74932">
        <ele>420</ele>
        <time>2015-04-26T08:03:07.000Z</time>
      </trkpt>
      <trkpt lat="47.44532" lon="6.74933">
        <ele>420</ele>
        <time>2015-04-26T08:03:08.000Z</time>
      </trkpt>
      <trkpt lat="47.44529" lon="6.74934">
        <ele>420</ele>
        <time>2015-04-26T08:03:10.000Z</time>
      </trkpt>
      <trkpt lat="47.44527" lon="6.74935">
        <ele>421</ele>
        <time>2015-04-26T08:03:11.000Z</time>
      </trkpt>
      <trkpt lat="47.44524" lon="6.74935">
        <ele>421</ele>
        <time>2015-04-26T08:03:13.000Z</time>
      </trkpt>
      <trkpt lat="47.44522" lon="6.74935">
        <ele>421</ele>
        <time>2015-04-26T08:03:14.000Z</time>
      </trkpt>
      <trkpt lat="47.44519" lon="6.74936">
        <ele>421</ele>
        <time>2015-04-26T08:03:16.000Z</time>
      </trkpt>
      <trkpt lat="47.44517" lon="6.74936">
        <ele>421</ele>
        <time>2015-04-26T08:03:17.000Z</time>
      </trkpt>
      <trkpt lat="47.44513" lon="6.74935">
        <ele>422</ele>
        <time>2015-04-26T08:03:20.000Z</time>
      </trkpt>
      <trkpt lat="47.44512" lon="6.74935">
        <ele>422</ele>
        <time>2015-04-26T08:03:21.000Z</time>
      </trkpt>
      <trkpt lat="47.44508" lon="6.74934">
        <ele>422</ele>
        <time>2015-04-26T08:03:23.000Z</time>
      </trkpt>
      <trkpt lat="47.44507" lon="6.74934">
        <ele>422</ele>
        <time>2015-04-26T08:03:24.000Z</time>
      </trkpt>
      <trkpt lat="47.44504" lon="6.74932">
        <ele>423</ele>
        <time>2015-04-26T08:03:26.000Z</time>
      </trkpt>
      <trkpt lat="47.44503" lon="6.74931">
        <ele>423</ele>
        <time>2015-04-26T08:03:27.000Z</time>
      </trkpt>
      <trkpt lat="47.445" lon="6.74928">
        <ele>423</ele>
        <time>2015-04-26T08:03:29.000Z</time>
      </trkpt>
      <trkpt lat="47.44499" lon="6.74927">
        <ele>426</ele>
        <time>2015-04-26T08:03:30.000Z</time>
      </trkpt>
      <trkpt lat="47.44496" lon="6.74923">
        <ele>426</ele>
        <time>2015-04-26T08:03:32.000Z</time>
      </trkpt>
      <trkpt lat="47.44495" lon="6.74921">
        <ele>426</ele>
        <time>2015-04-26T08:03:33.000Z</time>
      </trkpt>
      <trkpt lat="47.44492" lon="6.74918">
        <ele>426</ele>
        <time>2015-04-26T08:03:35.000Z</time>
      </trkpt>
      <trkpt lat="47.44491" lon="6.74916">
        <ele>427</ele>
        <time>2015-04-26T08:03:36.000Z</time>
      </trkpt>
      <trkpt lat="47.44488" lon="6.74912">
        <ele>427</ele>
        <time>2015-04-26T08:03:38.000Z</time>
      </trkpt>
      <trkpt lat="47.44487" lon="6.7491">
        <ele>427</ele>
        <time>2015-04-26T08:03:39.000Z</time>
      </trkpt>
      <trkpt lat="47.44485" lon="6.74906">
        <ele>427</ele>
        <time>2015-04-26T08:03:41.000Z</time>
      </trkpt>
      <trkpt lat="47.44484" lon="6.74904">
        <ele>427</ele>
        <time>2015-04-26T08:03:42.000Z</time>
      </trkpt>
      <trkpt lat="47.44481" lon="6.749">
        <ele>427</ele>
        <time>2015-04-26T08:03:44.000Z</time>
      </trkpt>
      <trkpt lat="47.44479" lon="6.74898">
        <ele>428</ele>
        <time>2015-04-26T08:03:45.000Z</time>
      </trkpt>
      <trkpt lat="47.44476" lon="6.74894">
        <ele>428</ele>
        <time>2015-04-26T08:03:47.000Z</time>
      </trkpt>
      <trkpt lat="47.44475" lon="6.74892">
        <ele>428</ele>
        <time>2015-04-26T08:03:48.000Z</time>
      </trkpt>
      <trkpt lat="47.44471" lon="6.74888">
        <ele>428</ele>
        <time>2015-04-26T08:03:50.000Z</time>
      </trkpt>
      <trkpt lat="47.4447" lon="6.74887">
        <ele>428</ele>
        <time>2015-04-26T08:03:51.000Z</time>
      </trkpt>
      <trkpt lat="47.44466" lon="6.74882">
        <ele>428</ele>
        <time>2015-04-26T08:03:53.000Z</time>
      </trkpt>
      <trkpt lat="47.44465" lon="6.7488">
        <ele>428</ele>
        <time>2015-04-26T08:03:54.000Z</time>
      </trkpt>
      <trkpt lat="47.44461" lon="6.74876">
        <ele>428</ele>
        <time>2015-04-26T08:03:56.000Z</time>
      </trkpt>
      <trkpt lat="47.4446" lon="6.74874">
        <ele>428</ele>
        <time>2015-04-26T08:03:57.000Z</time>
      </trkpt>
      <trkpt lat="47.44456" lon="6.7487">
        <ele>428</ele>
        <time>2015-04-26T08:03:59.000Z</time>
      </trkpt>
      <trkpt lat="47.44455" lon="6.74868">
        <ele>428</ele>
        <time>2015-04-26T08:04:00.000Z</time>
      </trkpt>
      <trkpt lat="47.44454" lon="6.74865">
        <ele>428</ele>
        <time>2015-04-26T08:04:01.000Z</time>
      </trkpt>
      <trkpt lat="47.44452" lon="6.74863">
        <ele>429</ele>
        <time>2015-04-26T08:04:02.000Z</time>
      </trkpt>
      <trkpt lat="47.44451" lon="6.7486">
        <ele>429</ele>
        <time>2015-04-26T08:04:03.000Z</time>
      </trkpt>
      <trkpt lat="47.4445" lon="6.74856">
        <ele>429</ele>
        <time>2015-04-26T08:04:04.000Z</time>
      </trkpt>
      <trkpt lat="47.44449" lon="6.74853">
        <ele>429</ele>
        <time>2015-04-26T08:04:05.000Z</time>
      </trkpt>
      <trkpt lat="47.44448" lon="6.74849">
        <ele>429</ele>
        <time>2015-04-26T08:04:06.000Z</time>
      </trkpt>
      <trkpt lat="47.44447" lon="6.74846">
        <ele>429</ele>
        <time>2015-04-26T08:04:07.000Z</time>
      </trkpt>
      <trkpt lat="47.44446" lon="6.74842">
        <ele>429</ele>
        <time>2015-04-26T08:04:08.000Z</time>
      </trkpt>
      <trkpt lat="47.44445" lon="6.74839">
        <ele>429</ele>
        <time>2015-04-26T08:04:09.000Z</time>
      </trkpt>
      <trkpt lat="47.44445" lon="6.74835">
        <ele>429</ele>
        <time>2015-04-26T08:04:10.000Z</time>
      </trkpt>
      <trkpt lat="47.44443" lon="6.7483">
        <ele>430</ele>
        <time>2015-04-26T08:04:12.000Z</time>
      </trkpt>
      <trkpt lat="47.44443" lon="6.74827">
        <ele>430</ele>
        <time>2015-04-26T08:04:13.000Z</time>
      </trkpt>
      <trkpt lat="47.4444" lon="6.74821">
        <ele>430</ele>
        <time>2015-04-26T08:04:15.000Z</time>
      </trkpt>
      <trkpt lat="47.44439" lon="6.74818">
        <ele>430</ele>
        <time>2015-04-26T08:04:16.000Z</time>
      </trkpt>
      <trkpt lat="47.44437" lon="6.74812">
        <ele>430</ele>
        <time>2015-04-26T08:04:18.000Z</time>
      </trkpt>
      <trkpt lat="47.44437" lon="6.74809">
        <ele>430</ele>
        <time>2015-04-26T08:04:19.000Z</time>
      </trkpt>
      <trkpt lat="47.44438" lon="6.74806">
        <ele>430</ele>
        <time>2015-04-26T08:04:20.000Z</time>
      </trkpt>
      <trkpt lat="47.44438" lon="6.74803">
        <ele>430</ele>
        <time>2015-04-26T08:04:21.000Z</time>
      </trkpt>
      <trkpt lat="47.44437" lon="6.74796">
        <ele>430</ele>
        <time>2015-04-26T08:04:23.000Z</time>
      </trkpt>
      <trkpt lat="47.44436" lon="6.74793">
        <ele>430</ele>
        <time>2015-04-26T08:04:24.000Z</time>
      </trkpt>
      <trkpt lat="47.44436" lon="6.7479">
        <ele>430</ele>
        <time>2015-04-26T08:04:25.000Z</time>
      </trkpt>
      <trkpt lat="47.44435" lon="6.74786">
        <ele>430</ele>
        <time>2015-04-26T08:04:26.000Z</time>
      </trkpt>
      <trkpt lat="47.44435" lon="6.74782">
        <ele>430</ele>
        <time>2015-04-26T08:04:27.000Z</time>
      </trkpt>
      <trkpt lat="47.44434" lon="6.74779">
        <ele>430</ele>
        <time>2015-04-26T08:04:28.000Z</time>
      </trkpt>
      <trkpt lat="47.44433" lon="6.74775">
        <ele>430</ele>
        <time>2015-04-26T08:04:29.000Z</time>
      </trkpt>
      <trkpt lat="47.44432" lon="6.74771">
        <ele>430</ele>
        <time>2015-04-26T08:04:30.000Z</time>
      </trkpt>
      <trkpt lat="47.44431" lon="6.74766">
        <ele>430</ele>
        <time>2015-04-26T08:04:31.000Z</time>
      </trkpt>
      <trkpt lat="47.44429" lon="6.74762">
        <ele>430</ele>
        <time>2015-04-26T08:04:32.000Z</time>
      </trkpt>
      <trkpt lat="47.44427" lon="6.74758">
        <ele>430</ele>
        <time>2015-04-26T08:04:33.000Z</time>
      </trkpt>
      <trkpt lat="47.44424" lon="6.7475">
        <ele>431</ele>
        <time>2015-04-26T08:04:35.000Z</time>
      </trkpt>
      <trkpt lat="47.44423" lon="6.74745">
        <ele>431</ele>
        <time>2015-04-26T08:04:36.000Z</time>
      </trkpt>
      <trkpt lat="47.44421" lon="6.74741">
        <ele>431</ele>
        <time>2015-04-26T08:04:37.000Z</time>
      </trkpt>
      <trkpt lat="47.4442" lon="6.74737">
        <ele>431</ele>
        <time>2015-04-26T08:04:38.000Z</time>
      </trkpt>
      <trkpt lat="47.44418" lon="6.74733">
        <ele>431</ele>
        <time>2015-04-26T08:04:39.000Z</time>
      </trkpt>
      <trkpt lat="47.44417" lon="6.74728">
        <ele>432</ele>
        <time>2015-04-26T08:04:40.000Z</time>
      </trkpt>
      <trkpt lat="47.44415" lon="6.74723">
        <ele>431</ele>
        <time>2015-04-26T08:04:41.000Z</time>
      </trkpt>
      <trkpt lat="47.44414" lon="6.74718">
        <ele>431</ele>
        <time>2015-04-26T08:04:42.000Z</time>
      </trkpt>
      <trkpt lat="47.44413" lon="6.74713">
        <ele>431</ele>
        <time>2015-04-26T08:04:43.000Z</time>
      </trkpt>
      <trkpt lat="47.44411" lon="6.74708">
        <ele>431</ele>
        <time>2015-04-26T08:04:44.000Z</time>
      </trkpt>
      <trkpt lat="47.4441" lon="6.74703">
        <ele>431</ele>
        <time>2015-04-26T08:04:45.000Z</time>
      </trkpt>
      <trkpt lat="47.44409" lon="6.74698">
        <ele>431</ele>
        <time>2015-04-26T08:04:46.000Z</time>
      </trkpt>
      <trkpt lat="47.44407" lon="6.74693">
        <ele>431</ele>
        <time>2015-04-26T08:04:47.000Z</time>
      </trkpt>
      <trkpt lat="47.44406" lon="6.74688">
        <ele>432</ele>
        <time>2015-04-26T08:04:48.000Z</time>
      </trkpt>
      <trkpt lat="47.44404" lon="6.74682">
        <ele>432</ele>
        <time>2015-04-26T08:04:49.000Z</time>
      </trkpt>
      <trkpt lat="47.44403" lon="6.74677">
        <ele>432</ele>
        <time>2015-04-26T08:04:50.000Z</time>
      </trkpt>
      <trkpt lat="47.44402" lon="6.74671">
        <ele>432</ele>
        <time>2015-04-26T08:04:51.000Z</time>
      </trkpt>
      <trkpt lat="47.44401" lon="6.74666">
        <ele>434</ele>
        <time>2015-04-26T08:04:52.000Z</time>
      </trkpt>
      <trkpt lat="47.444" lon="6.7466">
        <ele>433</ele>
        <time>2015-04-26T08:04:53.000Z</time>
      </trkpt>
      <trkpt lat="47.44399" lon="6.74654">
        <ele>433</ele>
        <time>2015-04-26T08:04:54.000Z</time>
      </trkpt>
      <trkpt lat="47.44397" lon="6.74647">
        <ele>433</ele>
        <time>2015-04-26T08:04:55.000Z</time>
      </trkpt>
      <trkpt lat="47.44396" lon="6.74641">
        <ele>434</ele>
        <time>2015-04-26T08:04:56.000Z</time>
      </trkpt>
      <trkpt lat="47.44394" lon="6.74635">
        <ele>434</ele>
        <time>2015-04-26T08:04:57.000Z</time>
      </trkpt>
      <trkpt lat="47.44392" lon="6.74629">
        <ele>434</ele>
        <time>2015-04-26T08:04:58.000Z</time>
      </trkpt>
      <trkpt lat="47.44391" lon="6.74623">
        <ele>434</ele>
        <time>2015-04-26T08:04:59.000Z</time>
      </trkpt>
      <trkpt lat="47.44389" lon="6.74617">
        <ele>434</ele>
        <time>2015-04-26T08:05:00.000Z</time>
      </trkpt>
      <trkpt lat="47.44388" lon="6.74611">
        <ele>434</ele>
        <time>2015-04-26T08:05:01.000Z</time>
      </trkpt>
      <trkpt lat="47.44387" lon="6.74607">
        <ele>434</ele>
        <time>2015-04-26T08:05:02.000Z</time>
      </trkpt>
      <trkpt lat="47.44385" lon="6.74602">
        <ele>434</ele>
        <time>2015-04-26T08:05:03.000Z</time>
      </trkpt>
      <trkpt lat="47.44385" lon="6.74599">
        <ele>434</ele>
        <time>2015-04-26T08:05:04.000Z</time>
      </trkpt>
      <trkpt lat="47.44384" lon="6.74594">
        <ele>434</ele>
        <time>2015-04-26T08:05:05.000Z</time>
      </trkpt>
      <trkpt lat="47.44383" lon="6.7459">
        <ele>434</ele>
        <time>2015-04-26T08:05:06.000Z</time>
      </trkpt>
      <trkpt lat="47.44382" lon="6.74587">
        <ele>434</ele>
        <time>2015-04-26T08:05:07.000Z</time>
      </trkpt>
      <trkpt lat="47.44381" lon="6.74583">
        <ele>434</ele>
        <time>2015-04-26T08:05:08.000Z</time>
      </trkpt>
      <trkpt lat="47.4438" lon="6.7458">
        <ele>437</ele>
        <time>2015-04-26T08:05:09.000Z</time>
      </trkpt>
      <trkpt lat="47.4438" lon="6.74577">
        <ele>437</ele>
        <time>2015-04-26T08:05:10.000Z</time>
      </trkpt>
      <trkpt lat="47.44379" lon="6.74573">
        <ele>437</ele>
        <time>2015-04-26T08:05:11.000Z</time>
      </trkpt>
      <trkpt lat="47.44378" lon="6.7457">
        <ele>437</ele>
        <time>2015-04-26T08:05:12.000Z</time>
      </trkpt>
      <trkpt lat="47.44377" lon="6.74567">
        <ele>437</ele>
        <time>2015-04-26T08:05:13.000Z</time>
      </trkpt>
      <trkpt lat="47.44377" lon="6.74563">
        <ele>437</ele>
        <time>2015-04-26T08:05:14.000Z</time>
      </trkpt>
      <trkpt lat="47.44376" lon="6.7456">
        <ele>438</ele>
        <time>2015-04-26T08:05:15.000Z</time>
      </trkpt>
      <trkpt lat="47.44375" lon="6.74556">
        <ele>438</ele>
        <time>2015-04-26T08:05:16.000Z</time>
      </trkpt>
      <trkpt lat="47.44375" lon="6.74552">
        <ele>438</ele>
        <time>2015-04-26T08:05:17.000Z</time>
      </trkpt>
      <trkpt lat="47.44374" lon="6.74548">
        <ele>438</ele>
        <time>2015-04-26T08:05:18.000Z</time>
      </trkpt>
      <trkpt lat="47.44373" lon="6.74545">
        <ele>438</ele>
        <time>2015-04-26T08:05:19.000Z</time>
      </trkpt>
      <trkpt lat="47.44373" lon="6.74541">
        <ele>438</ele>
        <time>2015-04-26T08:05:20.000Z</time>
      </trkpt>
      <trkpt lat="47.44372" lon="6.74537">
        <ele>438</ele>
        <time>2015-04-26T08:05:21.000Z</time>
      </trkpt>
      <trkpt lat="47.44371" lon="6.74534">
        <ele>438</ele>
        <time>2015-04-26T08:05:22.000Z</time>
      </trkpt>
      <trkpt lat="47.4437" lon="6.74531">
        <ele>438</ele>
        <time>2015-04-26T08:05:23.000Z</time>
      </trkpt>
      <trkpt lat="47.44369" lon="6.74527">
        <ele>438</ele>
        <time>2015-04-26T08:05:24.000Z</time>
      </trkpt>
      <trkpt lat="47.44368" lon="6.74524">
        <ele>438</ele>
        <time>2015-04-26T08:05:25.000Z</time>
      </trkpt>
      <trkpt lat="47.44368" lon="6.7452">
        <ele>438</ele>
        <time>2015-04-26T08:05:26.000Z</time>
      </trkpt>
      <trkpt lat="47.44367" lon="6.74517">
        <ele>439</ele>
        <time>2015-04-26T08:05:27.000Z</time>
      </trkpt>
      <trkpt lat="47.44366" lon="6.74514">
        <ele>439</ele>
        <time>2015-04-26T08:05:28.000Z</time>
      </trkpt>
      <trkpt lat="47.44365" lon="6.7451">
        <ele>439</ele>
        <time>2015-04-26T08:05:29.000Z</time>
      </trkpt>
      <trkpt lat="47.44364" lon="6.74507">
        <ele>439</ele>
        <time>2015-04-26T08:05:30.000Z</time>
      </trkpt>
      <trkpt lat="47.44362" lon="6.74503">
        <ele>439</ele>
        <time>2015-04-26T08:05:31.000Z</time>
      </trkpt>
      <trkpt lat="47.44361" lon="6.745">
        <ele>442</ele>
        <time>2015-04-26T08:05:32.000Z</time>
      </trkpt>
      <trkpt lat="47.4436" lon="6.74496">
        <ele>442</ele>
        <time>2015-04-26T08:05:33.000Z</time>
      </trkpt>
      <trkpt lat="47.44359" lon="6.74493">
        <ele>442</ele>
        <time>2015-04-26T08:05:34.000Z</time>
      </trkpt>
      <trkpt lat="47.44358" lon="6.74489">
        <ele>442</ele>
        <time>2015-04-26T08:05:35.000Z</time>
      </trkpt>
      <trkpt lat="47.44357" lon="6.74486">
        <ele>442</ele>
        <time>2015-04-26T08:05:36.000Z</time>
      </trkpt>
      <trkpt lat="47.44356" lon="6.74482">
        <ele>442</ele>
        <time>2015-04-26T08:05:37.000Z</time>
      </trkpt>
      <trkpt lat="47.44355" lon="6.74479">
        <ele>442</ele>
        <time>2015-04-26T08:05:38.000Z</time>
      </trkpt>
      <trkpt lat="47.44354" lon="6.74475">
        <ele>442</ele>
        <time>2015-04-26T08:05:39.000Z</time>
      </trkpt>
      <trkpt lat="47.44352" lon="6.74471">
        <ele>442</ele>
        <time>2015-04-26T08:05:40.000Z</time>
      </trkpt>
      <trkpt lat="47.44351" lon="6.74467">
        <ele>442</ele>
        <time>2015-04-26T08:05:41.000Z</time>
      </trkpt>
      <trkpt lat="47.4435" lon="6.74463">
        <ele>442</ele>
        <time>2015-04-26T08:05:42.000Z</time>
      </trkpt>
      <trkpt lat="47.44348" lon="6.74459">
        <ele>443</ele>
        <time>2015-04-26T08:05:43.000Z</time>
      </trkpt>
      <trkpt lat="47.44347" lon="6.74455">
        <ele>443</ele>
        <time>2015-04-26T08:05:44.000Z</time>
      </trkpt>
      <trkpt lat="47.44345" lon="6.74451">
        <ele>443</ele>
        <time>2015-04-26T08:05:45.000Z</time>
      </trkpt>
      <trkpt lat="47.44344" lon="6.74447">
        <ele>443</ele>
        <time>2015-04-26T08:05:46.000Z</time>
      </trkpt>
      <trkpt lat="47.44342" lon="6.74443">
        <ele>443</ele>
        <time>2015-04-26T08:05:47.000Z</time>
      </trkpt>
      <trkpt lat="47.4434" lon="6.74439">
        <ele>443</ele>
        <time>2015-04-26T08:05:48.000Z</time>
      </trkpt>
      <trkpt lat="47.44339" lon="6.74435">
        <ele>443</ele>
        <time>2015-04-26T08:05:49.000Z</time>
      </trkpt>
      <trkpt lat="47.44337" lon="6.74432">
        <ele>443</ele>
        <time>2015-04-26T08:05:50.000Z</time>
      </trkpt>
      <trkpt lat="47.44335" lon="6.74428">
        <ele>444</ele>
        <time>2015-04-26T08:05:51.000Z</time>
      </trkpt>
      <trkpt lat="47.44334" lon="6.74424">
        <ele>444</ele>
        <time>2015-04-26T08:05:52.000Z</time>
      </trkpt>
      <trkpt lat="47.44332" lon="6.7442">
        <ele>443</ele>
        <time>2015-04-26T08:05:53.000Z</time>
      </trkpt>
      <trkpt lat="47.4433" lon="6.74416">
        <ele>444</ele>
        <time>2015-04-26T08:05:54.000Z</time>
      </trkpt>
      <trkpt lat="47.44328" lon="6.74411">
        <ele>444</ele>
        <time>2015-04-26T08:05:55.000Z</time>
      </trkpt>
      <trkpt lat="47.44326" lon="6.74406">
        <ele>444</ele>
        <time>2015-04-26T08:05:56.000Z</time>
      </trkpt>
      <trkpt lat="47.44324" lon="6.74402">
        <ele>444</ele>
        <time>2015-04-26T08:05:57.000Z</time>
      </trkpt>
      <trkpt lat="47.44322" lon="6.74397">
        <ele>444</ele>
        <time>2015-04-26T08:05:58.000Z</time>
      </trkpt>
      <trkpt lat="47.4432" lon="6.74392">
        <ele>444</ele>
        <time>2015-04-26T08:05:59.000Z</time>
      </trkpt>
      <trkpt lat="47.44318" lon="6.74388">
        <ele>445</ele>
        <time>2015-04-26T08:06:00.000Z</time>
      </trkpt>
      <trkpt lat="47.44315" lon="6.74383">
        <ele>445</ele>
        <time>2015-04-26T08:06:01.000Z</time>
      </trkpt>
      <trkpt lat="47.44313" lon="6.74378">
        <ele>445</ele>
        <time>2015-04-26T08:06:02.000Z</time>
      </trkpt>
      <trkpt lat="47.4431" lon="6.74374">
        <ele>445</ele>
        <time>2015-04-26T08:06:03.000Z</time>
      </trkpt>
      <trkpt lat="47.44308" lon="6.74369">
        <ele>445</ele>
        <time>2015-04-26T08:06:04.000Z</time>
      </trkpt>
      <trkpt lat="47.44306" lon="6.74364">
        <ele>445</ele>
        <time>2015-04-26T08:06:05.000Z</time>
      </trkpt>
      <trkpt lat="47.44304" lon="6.7436">
        <ele>445</ele>
        <time>2015-04-26T08:06:06.000Z</time>
      </trkpt>
      <trkpt lat="47.44301" lon="6.74355">
        <ele>445</ele>
        <time>2015-04-26T08:06:07.000Z</time>
      </trkpt>
      <trkpt lat="47.44299" lon="6.74351">
        <ele>445</ele>
        <time>2015-04-26T08:06:08.000Z</time>
      </trkpt>
      <trkpt lat="47.44296" lon="6.74346">
        <ele>445</ele>
        <time>2015-04-26T08:06:09.000Z</time>
      </trkpt>
      <trkpt lat="47.44294" lon="6.74342">
        <ele>445</ele>
        <time>2015-04-26T08:06:10.000Z</time>
      </trkpt>
      <trkpt lat="47.44292" lon="6.74338">
        <ele>445</ele>
        <time>2015-04-26T08:06:11.000Z</time>
      </trkpt>
      <trkpt lat="47.4429" lon="6.74334">
        <ele>445</ele>
        <time>2015-04-26T08:06:12.000Z</time>
      </trkpt>
      <trkpt lat="47.44288" lon="6.7433">
        <ele>450</ele>
        <time>2015-04-26T08:06:13.000Z</time>
      </trkpt>
      <trkpt lat="47.44286" lon="6.74326">
        <ele>450</ele>
        <time>2015-04-26T08:06:14.000Z</time>
      </trkpt>
      <trkpt lat="47.44284" lon="6.74322">
        <ele>450</ele>
        <time>2015-04-26T08:06:15.000Z</time>
      </trkpt>
      <trkpt lat="47.44282" lon="6.74319">
        <ele>450</ele>
        <time>2015-04-26T08:06:16.000Z</time>
      </trkpt>
      <trkpt lat="47.44279" lon="6.74315">
        <ele>450</ele>
        <time>2015-04-26T08:06:17.000Z</time>
      </trkpt>
      <trkpt lat="47.44277" lon="6.74312">
        <ele>450</ele>
        <time>2015-04-26T08:06:18.000Z</time>
      </trkpt>
      <trkpt lat="47.44275" lon="6.74308">
        <ele>450</ele>
        <time>2015-04-26T08:06:19.000Z</time>
      </trkpt>
      <trkpt lat="47.44273" lon="6.74304">
        <ele>451</ele>
        <time>2015-04-26T08:06:20.000Z</time>
      </trkpt>
      <trkpt lat="47.44271" lon="6.743">
        <ele>451</ele>
        <time>2015-04-26T08:06:21.000Z</time>
      </trkpt>
      <trkpt lat="47.44269" lon="6.74296">
        <ele>451</ele>
        <time>2015-04-26T08:06:22.000Z</time>
      </trkpt>
      <trkpt lat="47.44267" lon="6.74293">
        <ele>451</ele>
        <time>2015-04-26T08:06:23.000Z</time>
      </trkpt>
      <trkpt lat="47.44265" lon="6.74289">
        <ele>452</ele>
        <time>2015-04-26T08:06:24.000Z</time>
      </trkpt>
      <trkpt lat="47.44264" lon="6.74286">
        <ele>452</ele>
        <time>2015-04-26T08:06:25.000Z</time>
      </trkpt>
      <trkpt lat="47.44262" lon="6.74283">
        <ele>452</ele>
        <time>2015-04-26T08:06:26.000Z</time>
      </trkpt>
      <trkpt lat="47.4426" lon="6.7428">
        <ele>452</ele>
        <time>2015-04-26T08:06:27.000Z</time>
      </trkpt>
      <trkpt lat="47.44259" lon="6.74277">
        <ele>452</ele>
        <time>2015-04-26T08:06:28.000Z</time>
      </trkpt>
      <trkpt lat="47.44257" lon="6.74274">
        <ele>453</ele>
        <time>2015-04-26T08:06:29.000Z</time>
      </trkpt>
      <trkpt lat="47.44256" lon="6.7427">
        <ele>453</ele>
        <time>2015-04-26T08:06:30.000Z</time>
      </trkpt>
      <trkpt lat="47.44254" lon="6.74268">
        <ele>453</ele>
        <time>2015-04-26T08:06:31.000Z</time>
      </trkpt>
      <trkpt lat="47.44253" lon="6.74265">
        <ele>453</ele>
        <time>2015-04-26T08:06:32.000Z</time>
      </trkpt>
      <trkpt lat="47.44251" lon="6.74261">
        <ele>454</ele>
        <time>2015-04-26T08:06:33.000Z</time>
      </trkpt>
      <trkpt lat="47.4425" lon="6.74258">
        <ele>453</ele>
        <time>2015-04-26T08:06:34.000Z</time>
      </trkpt>
      <trkpt lat="47.44248" lon="6.74255">
        <ele>454</ele>
        <time>2015-04-26T08:06:35.000Z</time>
      </trkpt>
      <trkpt lat="47.44246" lon="6.7425">
        <ele>455</ele>
        <time>2015-04-26T08:06:37.000Z</time>
      </trkpt>
      <trkpt lat="47.44245" lon="6.74247">
        <ele>455</ele>
        <time>2015-04-26T08:06:38.000Z</time>
      </trkpt>
      <trkpt lat="47.44243" lon="6.74242">
        <ele>455</ele>
        <time>2015-04-26T08:06:40.000Z</time>
      </trkpt>
      <trkpt lat="47.44241" lon="6.74239">
        <ele>455</ele>
        <time>2015-04-26T08:06:41.000Z</time>
      </trkpt>
      <trkpt lat="47.4424" lon="6.74236">
        <ele>455</ele>
        <time>2015-04-26T08:06:42.000Z</time>
      </trkpt>
      <trkpt lat="47.44238" lon="6.74233">
        <ele>455</ele>
        <time>2015-04-26T08:06:43.000Z</time>
      </trkpt>
      <trkpt lat="47.44237" lon="6.7423">
        <ele>456</ele>
        <time>2015-04-26T08:06:44.000Z</time>
      </trkpt>
      <trkpt lat="47.44236" lon="6.74227">
        <ele>456</ele>
        <time>2015-04-26T08:06:45.000Z</time>
      </trkpt>
      <trkpt lat="47.44234" lon="6.74224">
        <ele>456</ele>
        <time>2015-04-26T08:06:46.000Z</time>
      </trkpt>
      <trkpt lat="47.44233" lon="6.7422">
        <ele>456</ele>
        <time>2015-04-26T08:06:47.000Z</time>
      </trkpt>
      <trkpt lat="47.44231" lon="6.74216">
        <ele>456</ele>
        <time>2015-04-26T08:06:48.000Z</time>
      </trkpt>
      <trkpt lat="47.44229" lon="6.74212">
        <ele>456</ele>
        <time>2015-04-26T08:06:49.000Z</time>
      </trkpt>
      <trkpt lat="47.44227" lon="6.74208">
        <ele>456</ele>
        <time>2015-04-26T08:06:50.000Z</time>
      </trkpt>
      <trkpt lat="47.44226" lon="6.74204">
        <ele>457</ele>
        <time>2015-04-26T08:06:51.000Z</time>
      </trkpt>
      <trkpt lat="47.44224" lon="6.742">
        <ele>457</ele>
        <time>2015-04-26T08:06:52.000Z</time>
      </trkpt>
      <trkpt lat="47.44223" lon="6.74196">
        <ele>457</ele>
        <time>2015-04-26T08:06:53.000Z</time>
      </trkpt>
      <trkpt lat="47.44221" lon="6.74193">
        <ele>457</ele>
        <time>2015-04-26T08:06:54.000Z</time>
      </trkpt>
      <trkpt lat="47.44219" lon="6.74189">
        <ele>457</ele>
        <time>2015-04-26T08:06:55.000Z</time>
      </trkpt>
      <trkpt lat="47.44217" lon="6.74186">
        <ele>457</ele>
        <time>2015-04-26T08:06:56.000Z</time>
      </trkpt>
      <trkpt lat="47.44215" lon="6.74182">
        <ele>457</ele>
        <time>2015-04-26T08:06:57.000Z</time>
      </trkpt>
      <trkpt lat="47.44213" lon="6.74178">
        <ele>457</ele>
        <time>2015-04-26T08:06:58.000Z</time>
      </trkpt>
      <trkpt lat="47.44211" lon="6.74174">
        <ele>457</ele>
        <time>2015-04-26T08:06:59.000Z</time>
      </trkpt>
      <trkpt lat="47.4421" lon="6.7417">
        <ele>457</ele>
        <time>2015-04-26T08:07:00.000Z</time>
      </trkpt>
      <trkpt lat="47.44209" lon="6.74166">
        <ele>460</ele>
        <time>2015-04-26T08:07:01.000Z</time>
      </trkpt>
      <trkpt lat="47.44208" lon="6.74162">
        <ele>460</ele>
        <time>2015-04-26T08:07:02.000Z</time>
      </trkpt>
      <trkpt lat="47.44207" lon="6.74157">
        <ele>460</ele>
        <time>2015-04-26T08:07:03.000Z</time>
      </trkpt>
      <trkpt lat="47.44206" lon="6.74154">
        <ele>460</ele>
        <time>2015-04-26T08:07:04.000Z</time>
      </trkpt>
      <trkpt lat="47.44204" lon="6.7415">
        <ele>460</ele>
        <time>2015-04-26T08:07:05.000Z</time>
      </trkpt>
      <trkpt lat="47.44202" lon="6.74147">
        <ele>460</ele>
        <time>2015-04-26T08:07:06.000Z</time>
      </trkpt>
      <trkpt lat="47.442" lon="6.74144">
        <ele>460</ele>
        <time>2015-04-26T08:07:07.000Z</time>
      </trkpt>
      <trkpt lat="47.44198" lon="6.74141">
        <ele>460</ele>
        <time>2015-04-26T08:07:08.000Z</time>
      </trkpt>
      <trkpt lat="47.44196" lon="6.74138">
        <ele>460</ele>
        <time>2015-04-26T08:07:09.000Z</time>
      </trkpt>
      <trkpt lat="47.44194" lon="6.74135">
        <ele>460</ele>
        <time>2015-04-26T08:07:10.000Z</time>
      </trkpt>
      <trkpt lat="47.44193" lon="6.74131">
        <ele>460</ele>
        <time>2015-04-26T08:07:11.000Z</time>
      </trkpt>
      <trkpt lat="47.44192" lon="6.74127">
        <ele>460</ele>
        <time>2015-04-26T08:07:12.000Z</time>
      </trkpt>
      <trkpt lat="47.4419" lon="6.74123">
        <ele>461</ele>
        <time>2015-04-26T08:07:13.000Z</time>
      </trkpt>
      <trkpt lat="47.44189" lon="6.74119">
        <ele>461</ele>
        <time>2015-04-26T08:07:14.000Z</time>
      </trkpt>
      <trkpt lat="47.44188" lon="6.74115">
        <ele>461</ele>
        <time>2015-04-26T08:07:15.000Z</time>
      </trkpt>
      <trkpt lat="47.44186" lon="6.74111">
        <ele>461</ele>
        <time>2015-04-26T08:07:16.000Z</time>
      </trkpt>
      <trkpt lat="47.44184" lon="6.74107">
        <ele>461</ele>
        <time>2015-04-26T08:07:17.000Z</time>
      </trkpt>
      <trkpt lat="47.44182" lon="6.74104">
        <ele>461</ele>
        <time>2015-04-26T08:07:18.000Z</time>
      </trkpt>
      <trkpt lat="47.4418" lon="6.741">
        <ele>461</ele>
        <time>2015-04-26T08:07:19.000Z</time>
      </trkpt>
      <trkpt lat="47.44179" lon="6.74095">
        <ele>461</ele>
        <time>2015-04-26T08:07:20.000Z</time>
      </trkpt>
      <trkpt lat="47.44178" lon="6.74091">
        <ele>461</ele>
        <time>2015-04-26T08:07:21.000Z</time>
      </trkpt>
      <trkpt lat="47.44177" lon="6.74087">
        <ele>461</ele>
        <time>2015-04-26T08:07:22.000Z</time>
      </trkpt>
      <trkpt lat="47.44176" lon="6.74082">
        <ele>462</ele>
        <time>2015-04-26T08:07:23.000Z</time>
      </trkpt>
      <trkpt lat="47.44174" lon="6.74078">
        <ele>462</ele>
        <time>2015-04-26T08:07:24.000Z</time>
      </trkpt>
      <trkpt lat="47.44173" lon="6.74074">
        <ele>462</ele>
        <time>2015-04-26T08:07:25.000Z</time>
      </trkpt>
      <trkpt lat="47.44171" lon="6.7407">
        <ele>463</ele>
        <time>2015-04-26T08:07:26.000Z</time>
      </trkpt>
      <trkpt lat="47.4417" lon="6.74065">
        <ele>463</ele>
        <time>2015-04-26T08:07:27.000Z</time>
      </trkpt>
      <trkpt lat="47.44168" lon="6.7406">
        <ele>463</ele>
        <time>2015-04-26T08:07:28.000Z</time>
      </trkpt>
      <trkpt lat="47.44166" lon="6.74055">
        <ele>460</ele>
        <time>2015-04-26T08:07:29.000Z</time>
      </trkpt>
      <trkpt lat="47.44164" lon="6.74051">
        <ele>460</ele>
        <time>2015-04-26T08:07:30.000Z</time>
      </trkpt>
      <trkpt lat="47.44162" lon="6.74046">
        <ele>460</ele>
        <time>2015-04-26T08:07:31.000Z</time>
      </trkpt>
      <trkpt lat="47.4416" lon="6.74041">
        <ele>460</ele>
        <time>2015-04-26T08:07:32.000Z</time>
      </trkpt>
      <trkpt lat="47.44159" lon="6.74036">
        <ele>460</ele>
        <time>2015-04-26T08:07:33.000Z</time>
      </trkpt>
      <trkpt lat="47.44157" lon="6.74031">
        <ele>460</ele>
        <time>2015-04-26T08:07:34.000Z</time>
      </trkpt>
      <trkpt lat="47.44155" lon="6.74025">
        <ele>460</ele>
        <time>2015-04-26T08:07:35.000Z</time>
      </trkpt>
      <trkpt lat="47.44154" lon="6.7402">
        <ele>461</ele>
        <time>2015-04-26T08:07:36.000Z</time>
      </trkpt>
      <trkpt lat="47.44153" lon="6.74014">
        <ele>461</ele>
        <time>2015-04-26T08:07:37.000Z</time>
      </trkpt>
      <trkpt lat="47.44151" lon="6.74009">
        <ele>461</ele>
        <time>2015-04-26T08:07:38.000Z</time>
      </trkpt>
      <trkpt lat="47.44149" lon="6.74003">
        <ele>461</ele>
        <time>2015-04-26T08:07:39.000Z</time>
      </trkpt>
      <trkpt lat="47.44148" lon="6.73997">
        <ele>462</ele>
        <time>2015-04-26T08:07:40.000Z</time>
      </trkpt>
      <trkpt lat="47.44146" lon="6.73991">
        <ele>462</ele>
        <time>2015-04-26T08:07:41.000Z</time>
      </trkpt>
      <trkpt lat="47.44142" lon="6.73985">
        <ele>461</ele>
        <time>2015-04-26T08:07:42.000Z</time>
      </trkpt>
      <trkpt lat="47.4414" lon="6.7398">
        <ele>461</ele>
        <time>2015-04-26T08:07:43.000Z</time>
      </trkpt>
      <trkpt lat="47.44139" lon="6.73974">
        <ele>460</ele>
        <time>2015-04-26T08:07:44.000Z</time>
      </trkpt>
      <trkpt lat="47.44137" lon="6.73969">
        <ele>460</ele>
        <time>2015-04-26T08:07:45.000Z</time>
      </trkpt>
      <trkpt lat="47.44135" lon="6.73963">
        <ele>460</ele>
        <time>2015-04-26T08:07:46.000Z</time>
      </trkpt>
      <trkpt lat="47.44134" lon="6.73955">
        <ele>460</ele>
        <time>2015-04-26T08:07:47.000Z</time>
      </trkpt>
      <trkpt lat="47.44132" lon="6.7395">
        <ele>460</ele>
        <time>2015-04-26T08:07:48.000Z</time>
      </trkpt>
      <trkpt lat="47.44129" lon="6.73944">
        <ele>460</ele>
        <time>2015-04-26T08:07:49.000Z</time>
      </trkpt>
      <trkpt lat="47.44127" lon="6.73936">
        <ele>460</ele>
        <time>2015-04-26T08:07:50.000Z</time>
      </trkpt>
      <trkpt lat="47.44126" lon="6.7393">
        <ele>460</ele>
        <time>2015-04-26T08:07:51.000Z</time>
      </trkpt>
      <trkpt lat="47.44126" lon="6.73923">
        <ele>460</ele>
        <time>2015-04-26T08:07:52.000Z</time>
      </trkpt>
      <trkpt lat="47.44124" lon="6.73916">
        <ele>459</ele>
        <time>2015-04-26T08:07:53.000Z</time>
      </trkpt>
      <trkpt lat="47.44123" lon="6.73908">
        <ele>459</ele>
        <time>2015-04-26T08:07:54.000Z</time>
      </trkpt>
      <trkpt lat="47.44123" lon="6.73901">
        <ele>459</ele>
        <time>2015-04-26T08:07:55.000Z</time>
      </trkpt>
      <trkpt lat="47.44121" lon="6.73894">
        <ele>459</ele>
        <time>2015-04-26T08:07:56.000Z</time>
      </trkpt>
      <trkpt lat="47.4412" lon="6.73887">
        <ele>459</ele>
        <time>2015-04-26T08:07:57.000Z</time>
      </trkpt>
      <trkpt lat="47.4412" lon="6.73879">
        <ele>459</ele>
        <time>2015-04-26T08:07:58.000Z</time>
      </trkpt>
      <trkpt lat="47.44118" lon="6.7387">
        <ele>459</ele>
        <time>2015-04-26T08:07:59.000Z</time>
      </trkpt>
      <trkpt lat="47.44116" lon="6.73861">
        <ele>459</ele>
        <time>2015-04-26T08:08:00.000Z</time>
      </trkpt>
      <trkpt lat="47.44116" lon="6.73853">
        <ele>459</ele>
        <time>2015-04-26T08:08:01.000Z</time>
      </trkpt>
      <trkpt lat="47.44115" lon="6.73846">
        <ele>459</ele>
        <time>2015-04-26T08:08:02.000Z</time>
      </trkpt>
      <trkpt lat="47.44112" lon="6.73838">
        <ele>458</ele>
        <time>2015-04-26T08:08:03.000Z</time>
      </trkpt>
      <trkpt lat="47.44111" lon="6.73831">
        <ele>458</ele>
        <time>2015-04-26T08:08:04.000Z</time>
      </trkpt>
      <trkpt lat="47.4411" lon="6.73823">
        <ele>458</ele>
        <time>2015-04-26T08:08:05.000Z</time>
      </trkpt>
      <trkpt lat="47.44109" lon="6.73816">
        <ele>458</ele>
        <time>2015-04-26T08:08:06.000Z</time>
      </trkpt>
      <trkpt lat="47.44107" lon="6.73808">
        <ele>458</ele>
        <time>2015-04-26T08:08:07.000Z</time>
      </trkpt>
      <trkpt lat="47.44105" lon="6.738">
        <ele>457</ele>
        <time>2015-04-26T08:08:08.000Z</time>
      </trkpt>
      <trkpt lat="47.44105" lon="6.73793">
        <ele>457</ele>
        <time>2015-04-26T08:08:09.000Z</time>
      </trkpt>
      <trkpt lat="47.44104" lon="6.73784">
        <ele>457</ele>
        <time>2015-04-26T08:08:10.000Z</time>
      </trkpt>
      <trkpt lat="47.44103" lon="6.73776">
        <ele>457</ele>
        <time>2015-04-26T08:08:11.000Z</time>
      </trkpt>
      <trkpt lat="47.44103" lon="6.73768">
        <ele>457</ele>
        <time>2015-04-26T08:08:12.000Z</time>
      </trkpt>
      <trkpt lat="47.44102" lon="6.7376">
        <ele>457</ele>
        <time>2015-04-26T08:08:13.000Z</time>
      </trkpt>
      <trkpt lat="47.44101" lon="6.73751">
        <ele>457</ele>
        <time>2015-04-26T08:08:14.000Z</time>
      </trkpt>
      <trkpt lat="47.44099" lon="6.73742">
        <ele>456</ele>
        <time>2015-04-26T08:08:15.000Z</time>
      </trkpt>
      <trkpt lat="47.44097" lon="6.73733">
        <ele>456</ele>
        <time>2015-04-26T08:08:16.000Z</time>
      </trkpt>
      <trkpt lat="47.44096" lon="6.73726">
        <ele>456</ele>
        <time>2015-04-26T08:08:17.000Z</time>
      </trkpt>
      <trkpt lat="47.44094" lon="6.73717">
        <ele>456</ele>
        <time>2015-04-26T08:08:18.000Z</time>
      </trkpt>
      <trkpt lat="47.44092" lon="6.73709">
        <ele>456</ele>
        <time>2015-04-26T08:08:19.000Z</time>
      </trkpt>
      <trkpt lat="47.44089" lon="6.73699">
        <ele>455</ele>
        <time>2015-04-26T08:08:20.000Z</time>
      </trkpt>
      <trkpt lat="47.44087" lon="6.7369">
        <ele>455</ele>
        <time>2015-04-26T08:08:21.000Z</time>
      </trkpt>
      <trkpt lat="47.44085" lon="6.73682">
        <ele>456</ele>
        <time>2015-04-26T08:08:22.000Z</time>
      </trkpt>
      <trkpt lat="47.44083" lon="6.73674">
        <ele>456</ele>
        <time>2015-04-26T08:08:23.000Z</time>
      </trkpt>
      <trkpt lat="47.44081" lon="6.73665">
        <ele>456</ele>
        <time>2015-04-26T08:08:24.000Z</time>
      </trkpt>
      <trkpt lat="47.44079" lon="6.73657">
        <ele>456</ele>
        <time>2015-04-26T08:08:25.000Z</time>
      </trkpt>
      <trkpt lat="47.44078" lon="6.73648">
        <ele>455</ele>
        <time>2015-04-26T08:08:26.000Z</time>
      </trkpt>
      <trkpt lat="47.44076" lon="6.7364">
        <ele>455</ele>
        <time>2015-04-26T08:08:27.000Z</time>
      </trkpt>
      <trkpt lat="47.44073" lon="6.73632">
        <ele>455</ele>
        <time>2015-04-26T08:08:28.000Z</time>
      </trkpt>
      <trkpt lat="47.44072" lon="6.73625">
        <ele>455</ele>
        <time>2015-04-26T08:08:29.000Z</time>
      </trkpt>
      <trkpt lat="47.4407" lon="6.73617">
        <ele>455</ele>
        <time>2015-04-26T08:08:30.000Z</time>
      </trkpt>
      <trkpt lat="47.44068" lon="6.73609">
        <ele>455</ele>
        <time>2015-04-26T08:08:31.000Z</time>
      </trkpt>
      <trkpt lat="47.44067" lon="6.73601">
        <ele>455</ele>
        <time>2015-04-26T08:08:32.000Z</time>
      </trkpt>
      <trkpt lat="47.44066" lon="6.73593">
        <ele>455</ele>
        <time>2015-04-26T08:08:33.000Z</time>
      </trkpt>
      <trkpt lat="47.44065" lon="6.73586">
        <ele>455</ele>
        <time>2015-04-26T08:08:34.000Z</time>
      </trkpt>
      <trkpt lat="47.44064" lon="6.73579">
        <ele>456</ele>
        <time>2015-04-26T08:08:35.000Z</time>
      </trkpt>
      <trkpt lat="47.44062" lon="6.73571">
        <ele>456</ele>
        <time>2015-04-26T08:08:36.000Z</time>
      </trkpt>
      <trkpt lat="47.4406" lon="6.73564">
        <ele>456</ele>
        <time>2015-04-26T08:08:37.000Z</time>
      </trkpt>
      <trkpt lat="47.44059" lon="6.73556">
        <ele>456</ele>
        <time>2015-04-26T08:08:38.000Z</time>
      </trkpt>
      <trkpt lat="47.44058" lon="6.73549">
        <ele>456</ele>
        <time>2015-04-26T08:08:39.000Z</time>
      </trkpt>
      <trkpt lat="47.44057" lon="6.73541">
        <ele>456</ele>
        <time>2015-04-26T08:08:40.000Z</time>
      </trkpt>
      <trkpt lat="47.44056" lon="6.73534">
        <ele>456</ele>
        <time>2015-04-26T08:08:41.000Z</time>
      </trkpt>
      <trkpt lat="47.44055" lon="6.73527">
        <ele>456</ele>
        <time>2015-04-26T08:08:42.000Z</time>
      </trkpt>
      <trkpt lat="47.44053" lon="6.7352">
        <ele>456</ele>
        <time>2015-04-26T08:08:43.000Z</time>
      </trkpt>
      <trkpt lat="47.44053" lon="6.73513">
        <ele>456</ele>
        <time>2015-04-26T08:08:44.000Z</time>
      </trkpt>
      <trkpt lat="47.44052" lon="6.73506">
        <ele>456</ele>
        <time>2015-04-26T08:08:45.000Z</time>
      </trkpt>
      <trkpt lat="47.44051" lon="6.73499">
        <ele>457</ele>
        <time>2015-04-26T08:08:46.000Z</time>
      </trkpt>
      <trkpt lat="47.4405" lon="6.73492">
        <ele>457</ele>
        <time>2015-04-26T08:08:47.000Z</time>
      </trkpt>
      <trkpt lat="47.44049" lon="6.73486">
        <ele>457</ele>
        <time>2015-04-26T08:08:48.000Z</time>
      </trkpt>
      <trkpt lat="47.44048" lon="6.7348">
        <ele>457</ele>
        <time>2015-04-26T08:08:49.000Z</time>
      </trkpt>
      <trkpt lat="47.44047" lon="6.73474">
        <ele>457</ele>
        <time>2015-04-26T08:08:50.000Z</time>
      </trkpt>
      <trkpt lat="47.44045" lon="6.73467">
        <ele>457</ele>
        <time>2015-04-26T08:08:51.000Z</time>
      </trkpt>
      <trkpt lat="47.44044" lon="6.73462">
        <ele>457</ele>
        <time>2015-04-26T08:08:52.000Z</time>
      </trkpt>
      <trkpt lat="47.44042" lon="6.73456">
        <ele>458</ele>
        <time>2015-04-26T08:08:53.000Z</time>
      </trkpt>
      <trkpt lat="47.4404" lon="6.7345">
        <ele>458</ele>
        <time>2015-04-26T08:08:54.000Z</time>
      </trkpt>
      <trkpt lat="47.44038" lon="6.73443">
        <ele>458</ele>
        <time>2015-04-26T08:08:55.000Z</time>
      </trkpt>
      <trkpt lat="47.44036" lon="6.73438">
        <ele>458</ele>
        <time>2015-04-26T08:08:56.000Z</time>
      </trkpt>
      <trkpt lat="47.44034" lon="6.73433">
        <ele>458</ele>
        <time>2015-04-26T08:08:57.000Z</time>
      </trkpt>
      <trkpt lat="47.44032" lon="6.73427">
        <ele>458</ele>
        <time>2015-04-26T08:08:58.000Z</time>
      </trkpt>
      <trkpt lat="47.44029" lon="6.73422">
        <ele>458</ele>
        <time>2015-04-26T08:08:59.000Z</time>
      </trkpt>
      <trkpt lat="47.44026" lon="6.73417">
        <ele>458</ele>
        <time>2015-04-26T08:09:00.000Z</time>
      </trkpt>
      <trkpt lat="47.44024" lon="6.73411">
        <ele>459</ele>
        <time>2015-04-26T08:09:01.000Z</time>
      </trkpt>
      <trkpt lat="47.44021" lon="6.73407">
        <ele>459</ele>
        <time>2015-04-26T08:09:02.000Z</time>
      </trkpt>
      <trkpt lat="47.44018" lon="6.73402">
        <ele>459</ele>
        <time>2015-04-26T08:09:03.000Z</time>
      </trkpt>
      <trkpt lat="47.44015" lon="6.73397">
        <ele>459</ele>
        <time>2015-04-26T08:09:04.000Z</time>
      </trkpt>
      <trkpt lat="47.44012" lon="6.73393">
        <ele>459</ele>
        <time>2015-04-26T08:09:05.000Z</time>
      </trkpt>
      <trkpt lat="47.44009" lon="6.73388">
        <ele>459</ele>
        <time>2015-04-26T08:09:06.000Z</time>
      </trkpt>
      <trkpt lat="47.44005" lon="6.73383">
        <ele>459</ele>
        <time>2015-04-26T08:09:07.000Z</time>
      </trkpt>
      <trkpt lat="47.44002" lon="6.73379">
        <ele>459</ele>
        <time>2015-04-26T08:09:08.000Z</time>
      </trkpt>
      <trkpt lat="47.43999" lon="6.73374">
        <ele>460</ele>
        <time>2015-04-26T08:09:09.000Z</time>
      </trkpt>
      <trkpt lat="47.43996" lon="6.73368">
        <ele>460</ele>
        <time>2015-04-26T08:09:10.000Z</time>
      </trkpt>
      <trkpt lat="47.43992" lon="6.73363">
        <ele>460</ele>
        <time>2015-04-26T08:09:11.000Z</time>
      </trkpt>
      <trkpt lat="47.43989" lon="6.73358">
        <ele>460</ele>
        <time>2015-04-26T08:09:12.000Z</time>
      </trkpt>
      <trkpt lat="47.43986" lon="6.73353">
        <ele>460</ele>
        <time>2015-04-26T08:09:13.000Z</time>
      </trkpt>
      <trkpt lat="47.43983" lon="6.73349">
        <ele>460</ele>
        <time>2015-04-26T08:09:14.000Z</time>
      </trkpt>
      <trkpt lat="47.43979" lon="6.73345">
        <ele>460</ele>
        <time>2015-04-26T08:09:15.000Z</time>
      </trkpt>
      <trkpt lat="47.43976" lon="6.7334">
        <ele>460</ele>
        <time>2015-04-26T08:09:16.000Z</time>
      </trkpt>
      <trkpt lat="47.43972" lon="6.73334">
        <ele>460</ele>
        <time>2015-04-26T08:09:17.000Z</time>
      </trkpt>
      <trkpt lat="47.43969" lon="6.7333">
        <ele>462</ele>
        <time>2015-04-26T08:09:18.000Z</time>
      </trkpt>
      <trkpt lat="47.43966" lon="6.73325">
        <ele>462</ele>
        <time>2015-04-26T08:09:19.000Z</time>
      </trkpt>
      <trkpt lat="47.43962" lon="6.73321">
        <ele>462</ele>
        <time>2015-04-26T08:09:20.000Z</time>
      </trkpt>
      <trkpt lat="47.43958" lon="6.73316">
        <ele>462</ele>
        <time>2015-04-26T08:09:21.000Z</time>
      </trkpt>
      <trkpt lat="47.43955" lon="6.73313">
        <ele>462</ele>
        <time>2015-04-26T08:09:22.000Z</time>
      </trkpt>
      <trkpt lat="47.43951" lon="6.73309">
        <ele>462</ele>
        <time>2015-04-26T08:09:23.000Z</time>
      </trkpt>
      <trkpt lat="47.43947" lon="6.73306">
        <ele>462</ele>
        <time>2015-04-26T08:09:24.000Z</time>
      </trkpt>
      <trkpt lat="47.43944" lon="6.73304">
        <ele>462</ele>
        <time>2015-04-26T08:09:25.000Z</time>
      </trkpt>
      <trkpt lat="47.4394" lon="6.73301">
        <ele>462</ele>
        <time>2015-04-26T08:09:26.000Z</time>
      </trkpt>
      <trkpt lat="47.43937" lon="6.73299">
        <ele>462</ele>
        <time>2015-04-26T08:09:27.000Z</time>
      </trkpt>
      <trkpt lat="47.43934" lon="6.73297">
        <ele>462</ele>
        <time>2015-04-26T08:09:28.000Z</time>
      </trkpt>
      <trkpt lat="47.43933" lon="6.73296">
        <ele>462</ele>
        <time>2015-04-26T08:09:29.000Z</time>
      </trkpt>
      <trkpt lat="47.4393" lon="6.73291">
        <ele>462</ele>
        <time>2015-04-26T08:09:32.000Z</time>
      </trkpt>
      <trkpt lat="47.43929" lon="6.7329">
        <ele>462</ele>
        <time>2015-04-26T08:09:33.000Z</time>
      </trkpt>
      <trkpt lat="47.43925" lon="6.73287">
        <ele>462</ele>
        <time>2015-04-26T08:09:36.000Z</time>
      </trkpt>
      <trkpt lat="47.43924" lon="6.73286">
        <ele>462</ele>
        <time>2015-04-26T08:09:37.000Z</time>
      </trkpt>
      <trkpt lat="47.43921" lon="6.73283">
        <ele>462</ele>
        <time>2015-04-26T08:09:39.000Z</time>
      </trkpt>
      <trkpt lat="47.4392" lon="6.73281">
        <ele>462</ele>
        <time>2015-04-26T08:09:40.000Z</time>
      </trkpt>
      <trkpt lat="47.43918" lon="6.73279">
        <ele>462</ele>
        <time>2015-04-26T08:09:41.000Z</time>
      </trkpt>
      <trkpt lat="47.43917" lon="6.73276">
        <ele>463</ele>
        <time>2015-04-26T08:09:42.000Z</time>
      </trkpt>
      <trkpt lat="47.43915" lon="6.73273">
        <ele>463</ele>
        <time>2015-04-26T08:09:43.000Z</time>
      </trkpt>
      <trkpt lat="47.43913" lon="6.73271">
        <ele>463</ele>
        <time>2015-04-26T08:09:44.000Z</time>
      </trkpt>
      <trkpt lat="47.43911" lon="6.73268">
        <ele>463</ele>
        <time>2015-04-26T08:09:45.000Z</time>
      </trkpt>
      <trkpt lat="47.43908" lon="6.73265">
        <ele>463</ele>
        <time>2015-04-26T08:09:46.000Z</time>
      </trkpt>
      <trkpt lat="47.43906" lon="6.73262">
        <ele>463</ele>
        <time>2015-04-26T08:09:47.000Z</time>
      </trkpt>
      <trkpt lat="47.43903" lon="6.7326">
        <ele>463</ele>
        <time>2015-04-26T08:09:48.000Z</time>
      </trkpt>
      <trkpt lat="47.43901" lon="6.73257">
        <ele>463</ele>
        <time>2015-04-26T08:09:49.000Z</time>
      </trkpt>
      <trkpt lat="47.43899" lon="6.73255">
        <ele>463</ele>
        <time>2015-04-26T08:09:50.000Z</time>
      </trkpt>
      <trkpt lat="47.43896" lon="6.73252">
        <ele>463</ele>
        <time>2015-04-26T08:09:51.000Z</time>
      </trkpt>
      <trkpt lat="47.43894" lon="6.7325">
        <ele>463</ele>
        <time>2015-04-26T08:09:52.000Z</time>
      </trkpt>
      <trkpt lat="47.43891" lon="6.73246">
        <ele>463</ele>
        <time>2015-04-26T08:09:54.000Z</time>
      </trkpt>
      <trkpt lat="47.43889" lon="6.73245">
        <ele>463</ele>
        <time>2015-04-26T08:09:55.000Z</time>
      </trkpt>
      <trkpt lat="47.43887" lon="6.73242">
        <ele>463</ele>
        <time>2015-04-26T08:09:57.000Z</time>
      </trkpt>
      <trkpt lat="47.43885" lon="6.7324">
        <ele>463</ele>
        <time>2015-04-26T08:09:58.000Z</time>
      </trkpt>
      <trkpt lat="47.43882" lon="6.73236">
        <ele>463</ele>
        <time>2015-04-26T08:10:01.000Z</time>
      </trkpt>
      <trkpt lat="47.43881" lon="6.73235">
        <ele>463</ele>
        <time>2015-04-26T08:10:02.000Z</time>
      </trkpt>
      <trkpt lat="47.43878" lon="6.73231">
        <ele>463</ele>
        <time>2015-04-26T08:10:07.000Z</time>
      </trkpt>
      <trkpt lat="47.43877" lon="6.7323">
        <ele>463</ele>
        <time>2015-04-26T08:10:08.000Z</time>
      </trkpt>
      <trkpt lat="47.43873" lon="6.73227">
        <ele>463</ele>
        <time>2015-04-26T08:10:11.000Z</time>
      </trkpt>
      <trkpt lat="47.43872" lon="6.73227">
        <ele>463</ele>
        <time>2015-04-26T08:10:12.000Z</time>
      </trkpt>
      <trkpt lat="47.43868" lon="6.73225">
        <ele>463</ele>
        <time>2015-04-26T08:10:15.000Z</time>
      </trkpt>
      <trkpt lat="47.43867" lon="6.73224">
        <ele>463</ele>
        <time>2015-04-26T08:10:16.000Z</time>
      </trkpt>
      <trkpt lat="47.43864" lon="6.73221">
        <ele>463</ele>
        <time>2015-04-26T08:10:18.000Z</time>
      </trkpt>
      <trkpt lat="47.43862" lon="6.7322">
        <ele>463</ele>
        <time>2015-04-26T08:10:19.000Z</time>
      </trkpt>
      <trkpt lat="47.43859" lon="6.73218">
        <ele>463</ele>
        <time>2015-04-26T08:10:21.000Z</time>
      </trkpt>
      <trkpt lat="47.43856" lon="6.73216">
        <ele>463</ele>
        <time>2015-04-26T08:10:22.000Z</time>
      </trkpt>
      <trkpt lat="47.43854" lon="6.73214">
        <ele>463</ele>
        <time>2015-04-26T08:10:23.000Z</time>
      </trkpt>
      <trkpt lat="47.43852" lon="6.73212">
        <ele>463</ele>
        <time>2015-04-26T08:10:24.000Z</time>
      </trkpt>
      <trkpt lat="47.43848" lon="6.7321">
        <ele>463</ele>
        <time>2015-04-26T08:10:26.000Z</time>
      </trkpt>
      <trkpt lat="47.43847" lon="6.73209">
        <ele>463</ele>
        <time>2015-04-26T08:10:27.000Z</time>
      </trkpt>
      <trkpt lat="47.43843" lon="6.73208">
        <ele>462</ele>
        <time>2015-04-26T08:10:29.000Z</time>
      </trkpt>
      <trkpt lat="47.43842" lon="6.73208">
        <ele>462</ele>
        <time>2015-04-26T08:10:30.000Z</time>
      </trkpt>
      <trkpt lat="47.43839" lon="6.73206">
        <ele>462</ele>
        <time>2015-04-26T08:10:33.000Z</time>
      </trkpt>
      <trkpt lat="47.43837" lon="6.73205">
        <ele>462</ele>
        <time>2015-04-26T08:10:35.000Z</time>
      </trkpt>
      <trkpt lat="47.43833" lon="6.73202">
        <ele>463</ele>
        <time>2015-04-26T08:10:38.000Z</time>
      </trkpt>
      <trkpt lat="47.43832" lon="6.73201">
        <ele>463</ele>
        <time>2015-04-26T08:10:39.000Z</time>
      </trkpt>
      <trkpt lat="47.43828" lon="6.73199">
        <ele>463</ele>
        <time>2015-04-26T08:10:42.000Z</time>
      </trkpt>
      <trkpt lat="47.43827" lon="6.73199">
        <ele>463</ele>
        <time>2015-04-26T08:10:43.000Z</time>
      </trkpt>
      <trkpt lat="47.43824" lon="6.73198">
        <ele>463</ele>
        <time>2015-04-26T08:10:45.000Z</time>
      </trkpt>
      <trkpt lat="47.43822" lon="6.73197">
        <ele>463</ele>
        <time>2015-04-26T08:10:46.000Z</time>
      </trkpt>
      <trkpt lat="47.43818" lon="6.73195">
        <ele>463</ele>
        <time>2015-04-26T08:10:48.000Z</time>
      </trkpt>
      <trkpt lat="47.43816" lon="6.73194">
        <ele>463</ele>
        <time>2015-04-26T08:10:49.000Z</time>
      </trkpt>
      <trkpt lat="47.43813" lon="6.73193">
        <ele>463</ele>
        <time>2015-04-26T08:10:50.000Z</time>
      </trkpt>
      <trkpt lat="47.43811" lon="6.73192">
        <ele>464</ele>
        <time>2015-04-26T08:10:51.000Z</time>
      </trkpt>
      <trkpt lat="47.43809" lon="6.73191">
        <ele>464</ele>
        <time>2015-04-26T08:10:52.000Z</time>
      </trkpt>
      <trkpt lat="47.43806" lon="6.73191">
        <ele>464</ele>
        <time>2015-04-26T08:10:53.000Z</time>
      </trkpt>
      <trkpt lat="47.43802" lon="6.73189">
        <ele>464</ele>
        <time>2015-04-26T08:10:55.000Z</time>
      </trkpt>
      <trkpt lat="47.438" lon="6.73188">
        <ele>464</ele>
        <time>2015-04-26T08:10:56.000Z</time>
      </trkpt>
      <trkpt lat="47.43798" lon="6.73187">
        <ele>464</ele>
        <time>2015-04-26T08:10:57.000Z</time>
      </trkpt>
      <trkpt lat="47.43795" lon="6.73186">
        <ele>464</ele>
        <time>2015-04-26T08:10:58.000Z</time>
      </trkpt>
      <trkpt lat="47.43793" lon="6.73185">
        <ele>464</ele>
        <time>2015-04-26T08:10:59.000Z</time>
      </trkpt>
      <trkpt lat="47.43791" lon="6.73184">
        <ele>464</ele>
        <time>2015-04-26T08:11:00.000Z</time>
      </trkpt>
      <trkpt lat="47.43787" lon="6.73183">
        <ele>464</ele>
        <time>2015-04-26T08:11:02.000Z</time>
      </trkpt>
      <trkpt lat="47.43785" lon="6.73183">
        <ele>464</ele>
        <time>2015-04-26T08:11:03.000Z</time>
      </trkpt>
      <trkpt lat="47.43781" lon="6.73183">
        <ele>464</ele>
        <time>2015-04-26T08:11:07.000Z</time>
      </trkpt>
      <trkpt lat="47.4378" lon="6.73182">
        <ele>464</ele>
        <time>2015-04-26T08:11:08.000Z</time>
      </trkpt>
      <trkpt lat="47.43776" lon="6.7318">
        <ele>464</ele>
        <time>2015-04-26T08:11:10.000Z</time>
      </trkpt>
      <trkpt lat="47.43774" lon="6.73179">
        <ele>464</ele>
        <time>2015-04-26T08:11:11.000Z</time>
      </trkpt>
      <trkpt lat="47.43772" lon="6.73178">
        <ele>464</ele>
        <time>2015-04-26T08:11:12.000Z</time>
      </trkpt>
      <trkpt lat="47.43769" lon="6.73178">
        <ele>464</ele>
        <time>2015-04-26T08:11:13.000Z</time>
      </trkpt>
      <trkpt lat="47.43767" lon="6.73177">
        <ele>464</ele>
        <time>2015-04-26T08:11:14.000Z</time>
      </trkpt>
      <trkpt lat="47.43764" lon="6.73176">
        <ele>464</ele>
        <time>2015-04-26T08:11:15.000Z</time>
      </trkpt>
      <trkpt lat="47.4376" lon="6.73175">
        <ele>465</ele>
        <time>2015-04-26T08:11:16.000Z</time>
      </trkpt>
      <trkpt lat="47.43757" lon="6.73174">
        <ele>465</ele>
        <time>2015-04-26T08:11:17.000Z</time>
      </trkpt>
      <trkpt lat="47.43754" lon="6.73173">
        <ele>465</ele>
        <time>2015-04-26T08:11:18.000Z</time>
      </trkpt>
      <trkpt lat="47.43751" lon="6.73171">
        <ele>465</ele>
        <time>2015-04-26T08:11:19.000Z</time>
      </trkpt>
      <trkpt lat="47.43748" lon="6.7317">
        <ele>465</ele>
        <time>2015-04-26T08:11:20.000Z</time>
      </trkpt>
      <trkpt lat="47.43744" lon="6.73168">
        <ele>465</ele>
        <time>2015-04-26T08:11:21.000Z</time>
      </trkpt>
      <trkpt lat="47.43741" lon="6.73167">
        <ele>465</ele>
        <time>2015-04-26T08:11:22.000Z</time>
      </trkpt>
      <trkpt lat="47.43737" lon="6.73165">
        <ele>465</ele>
        <time>2015-04-26T08:11:23.000Z</time>
      </trkpt>
      <trkpt lat="47.43734" lon="6.73164">
        <ele>465</ele>
        <time>2015-04-26T08:11:24.000Z</time>
      </trkpt>
      <trkpt lat="47.43731" lon="6.73162">
        <ele>465</ele>
        <time>2015-04-26T08:11:25.000Z</time>
      </trkpt>
      <trkpt lat="47.43729" lon="6.73161">
        <ele>465</ele>
        <time>2015-04-26T08:11:26.000Z</time>
      </trkpt>
      <trkpt lat="47.43726" lon="6.73159">
        <ele>466</ele>
        <time>2015-04-26T08:11:27.000Z</time>
      </trkpt>
      <trkpt lat="47.43723" lon="6.73158">
        <ele>466</ele>
        <time>2015-04-26T08:11:28.000Z</time>
      </trkpt>
      <trkpt lat="47.43721" lon="6.73157">
        <ele>466</ele>
        <time>2015-04-26T08:11:29.000Z</time>
      </trkpt>
      <trkpt lat="47.43717" lon="6.73155">
        <ele>466</ele>
        <time>2015-04-26T08:11:31.000Z</time>
      </trkpt>
      <trkpt lat="47.43716" lon="6.73155">
        <ele>466</ele>
        <time>2015-04-26T08:11:32.000Z</time>
      </trkpt>
      <trkpt lat="47.43712" lon="6.73152">
        <ele>466</ele>
        <time>2015-04-26T08:11:36.000Z</time>
      </trkpt>
      <trkpt lat="47.43711" lon="6.73151">
        <ele>466</ele>
        <time>2015-04-26T08:11:37.000Z</time>
      </trkpt>
      <trkpt lat="47.43708" lon="6.73148">
        <ele>466</ele>
        <time>2015-04-26T08:11:39.000Z</time>
      </trkpt>
      <trkpt lat="47.43707" lon="6.73147">
        <ele>466</ele>
        <time>2015-04-26T08:11:40.000Z</time>
      </trkpt>
      <trkpt lat="47.43703" lon="6.73146">
        <ele>466</ele>
        <time>2015-04-26T08:11:42.000Z</time>
      </trkpt>
      <trkpt lat="47.43701" lon="6.73146">
        <ele>466</ele>
        <time>2015-04-26T08:11:43.000Z</time>
      </trkpt>
      <trkpt lat="47.43697" lon="6.73145">
        <ele>466</ele>
        <time>2015-04-26T08:11:46.000Z</time>
      </trkpt>
      <trkpt lat="47.43696" lon="6.73145">
        <ele>466</ele>
        <time>2015-04-26T08:11:47.000Z</time>
      </trkpt>
      <trkpt lat="47.43693" lon="6.73143">
        <ele>466</ele>
        <time>2015-04-26T08:11:50.000Z</time>
      </trkpt>
      <trkpt lat="47.43692" lon="6.73142">
        <ele>466</ele>
        <time>2015-04-26T08:11:51.000Z</time>
      </trkpt>
      <trkpt lat="47.43688" lon="6.73143">
        <ele>466</ele>
        <time>2015-04-26T08:16:15.000Z</time>
      </trkpt>
      <trkpt lat="47.43686" lon="6.73143">
        <ele>466</ele>
        <time>2015-04-26T08:16:16.000Z</time>
      </trkpt>
      <trkpt lat="47.43683" lon="6.73142">
        <ele>466</ele>
        <time>2015-04-26T08:16:18.000Z</time>
      </trkpt>
      <trkpt lat="47.43681" lon="6.73141">
        <ele>466</ele>
        <time>2015-04-26T08:16:19.000Z</time>
      </trkpt>
      <trkpt lat="47.43679" lon="6.7314">
        <ele>466</ele>
        <time>2015-04-26T08:16:20.000Z</time>
      </trkpt>
      <trkpt lat="47.43676" lon="6.73139">
        <ele>466</ele>
        <time>2015-04-26T08:16:21.000Z</time>
      </trkpt>
      <trkpt lat="47.43673" lon="6.73138">
        <ele>466</ele>
        <time>2015-04-26T08:16:22.000Z</time>
      </trkpt>
      <trkpt lat="47.4367" lon="6.73137">
        <ele>466</ele>
        <time>2015-04-26T08:16:23.000Z</time>
      </trkpt>
      <trkpt lat="47.43667" lon="6.73136">
        <ele>466</ele>
        <time>2015-04-26T08:16:24.000Z</time>
      </trkpt>
      <trkpt lat="47.43664" lon="6.73135">
        <ele>467</ele>
        <time>2015-04-26T08:16:25.000Z</time>
      </trkpt>
      <trkpt lat="47.43661" lon="6.73134">
        <ele>467</ele>
        <time>2015-04-26T08:16:26.000Z</time>
      </trkpt>
      <trkpt lat="47.43658" lon="6.73133">
        <ele>467</ele>
        <time>2015-04-26T08:16:27.000Z</time>
      </trkpt>
      <trkpt lat="47.43654" lon="6.73132">
        <ele>467</ele>
        <time>2015-04-26T08:16:28.000Z</time>
      </trkpt>
      <trkpt lat="47.43651" lon="6.73131">
        <ele>467</ele>
        <time>2015-04-26T08:16:29.000Z</time>
      </trkpt>
      <trkpt lat="47.43648" lon="6.73131">
        <ele>467</ele>
        <time>2015-04-26T08:16:30.000Z</time>
      </trkpt>
      <trkpt lat="47.43645" lon="6.7313">
        <ele>467</ele>
        <time>2015-04-26T08:16:31.000Z</time>
      </trkpt>
      <trkpt lat="47.43642" lon="6.7313">
        <ele>467</ele>
        <time>2015-04-26T08:16:32.000Z</time>
      </trkpt>
      <trkpt lat="47.43639" lon="6.73129">
        <ele>467</ele>
        <time>2015-04-26T08:16:33.000Z</time>
      </trkpt>
      <trkpt lat="47.43635" lon="6.73128">
        <ele>467</ele>
        <time>2015-04-26T08:16:34.000Z</time>
      </trkpt>
      <trkpt lat="47.43632" lon="6.73128">
        <ele>467</ele>
        <time>2015-04-26T08:16:35.000Z</time>
      </trkpt>
      <trkpt lat="47.43628" lon="6.73127">
        <ele>467</ele>
        <time>2015-04-26T08:16:36.000Z</time>
      </trkpt>
      <trkpt lat="47.43625" lon="6.73126">
        <ele>467</ele>
        <time>2015-04-26T08:16:37.000Z</time>
      </trkpt>
      <trkpt lat="47.43621" lon="6.73124">
        <ele>468</ele>
        <time>2015-04-26T08:16:38.000Z</time>
      </trkpt>
      <trkpt lat="47.43618" lon="6.73122">
        <ele>468</ele>
        <time>2015-04-26T08:16:39.000Z</time>
      </trkpt>
      <trkpt lat="47.43615" lon="6.7312">
        <ele>468</ele>
        <time>2015-04-26T08:16:40.000Z</time>
      </trkpt>
      <trkpt lat="47.43611" lon="6.73118">
        <ele>468</ele>
        <time>2015-04-26T08:16:41.000Z</time>
      </trkpt>
      <trkpt lat="47.43608" lon="6.73116">
        <ele>468</ele>
        <time>2015-04-26T08:16:42.000Z</time>
      </trkpt>
      <trkpt lat="47.43605" lon="6.73113">
        <ele>468</ele>
        <time>2015-04-26T08:16:43.000Z</time>
      </trkpt>
      <trkpt lat="47.43602" lon="6.7311">
        <ele>468</ele>
        <time>2015-04-26T08:16:44.000Z</time>
      </trkpt>
      <trkpt lat="47.43599" lon="6.73106">
        <ele>468</ele>
        <time>2015-04-26T08:16:45.000Z</time>
      </trkpt>
      <trkpt lat="47.43596" lon="6.73103">
        <ele>468</ele>
        <time>2015-04-26T08:16:46.000Z</time>
      </trkpt>
      <trkpt lat="47.43593" lon="6.73098">
        <ele>468</ele>
        <time>2015-04-26T08:16:47.000Z</time>
      </trkpt>
      <trkpt lat="47.43591" lon="6.73094">
        <ele>468</ele>
        <time>2015-04-26T08:16:48.000Z</time>
      </trkpt>
      <trkpt lat="47.43588" lon="6.73089">
        <ele>469</ele>
        <time>2015-04-26T08:16:49.000Z</time>
      </trkpt>
      <trkpt lat="47.43585" lon="6.73084">
        <ele>469</ele>
        <time>2015-04-26T08:16:50.000Z</time>
      </trkpt>
      <trkpt lat="47.43583" lon="6.73079">
        <ele>469</ele>
        <time>2015-04-26T08:16:51.000Z</time>
      </trkpt>
      <trkpt lat="47.4358" lon="6.73074">
        <ele>469</ele>
        <time>2015-04-26T08:16:52.000Z</time>
      </trkpt>
      <trkpt lat="47.43578" lon="6.73069">
        <ele>469</ele>
        <time>2015-04-26T08:16:53.000Z</time>
      </trkpt>
      <trkpt lat="47.43576" lon="6.73063">
        <ele>469</ele>
        <time>2015-04-26T08:16:54.000Z</time>
      </trkpt>
      <trkpt lat="47.43574" lon="6.73058">
        <ele>470</ele>
        <time>2015-04-26T08:16:55.000Z</time>
      </trkpt>
      <trkpt lat="47.43573" lon="6.73052">
        <ele>470</ele>
        <time>2015-04-26T08:16:56.000Z</time>
      </trkpt>
      <trkpt lat="47.43571" lon="6.73046">
        <ele>470</ele>
        <time>2015-04-26T08:16:57.000Z</time>
      </trkpt>
      <trkpt lat="47.4357" lon="6.7304">
        <ele>470</ele>
        <time>2015-04-26T08:16:58.000Z</time>
      </trkpt>
      <trkpt lat="47.43568" lon="6.73033">
        <ele>470</ele>
        <time>2015-04-26T08:16:59.000Z</time>
      </trkpt>
      <trkpt lat="47.43566" lon="6.73028">
        <ele>471</ele>
        <time>2015-04-26T08:17:00.000Z</time>
      </trkpt>
      <trkpt lat="47.43565" lon="6.73022">
        <ele>471</ele>
        <time>2015-04-26T08:17:01.000Z</time>
      </trkpt>
      <trkpt lat="47.43563" lon="6.73017">
        <ele>471</ele>
        <time>2015-04-26T08:17:02.000Z</time>
      </trkpt>
      <trkpt lat="47.43561" lon="6.73012">
        <ele>471</ele>
        <time>2015-04-26T08:17:03.000Z</time>
      </trkpt>
      <trkpt lat="47.4356" lon="6.73007">
        <ele>471</ele>
        <time>2015-04-26T08:17:04.000Z</time>
      </trkpt>
      <trkpt lat="47.43558" lon="6.73002">
        <ele>471</ele>
        <time>2015-04-26T08:17:05.000Z</time>
      </trkpt>
      <trkpt lat="47.43557" lon="6.72998">
        <ele>473</ele>
        <time>2015-04-26T08:17:06.000Z</time>
      </trkpt>
      <trkpt lat="47.43555" lon="6.72993">
        <ele>473</ele>
        <time>2015-04-26T08:17:07.000Z</time>
      </trkpt>
      <trkpt lat="47.43554" lon="6.72989">
        <ele>473</ele>
        <time>2015-04-26T08:17:08.000Z</time>
      </trkpt>
      <trkpt lat="47.43552" lon="6.72984">
        <ele>473</ele>
        <time>2015-04-26T08:17:09.000Z</time>
      </trkpt>
      <trkpt lat="47.43551" lon="6.7298">
        <ele>473</ele>
        <time>2015-04-26T08:17:10.000Z</time>
      </trkpt>
      <trkpt lat="47.43549" lon="6.72975">
        <ele>473</ele>
        <time>2015-04-26T08:17:11.000Z</time>
      </trkpt>
      <trkpt lat="47.43547" lon="6.7297">
        <ele>473</ele>
        <time>2015-04-26T08:17:12.000Z</time>
      </trkpt>
      <trkpt lat="47.43546" lon="6.72965">
        <ele>473</ele>
        <time>2015-04-26T08:17:13.000Z</time>
      </trkpt>
      <trkpt lat="47.43544" lon="6.7296">
        <ele>473</ele>
        <time>2015-04-26T08:17:14.000Z</time>
      </trkpt>
      <trkpt lat="47.43543" lon="6.72954">
        <ele>473</ele>
        <time>2015-04-26T08:17:15.000Z</time>
      </trkpt>
      <trkpt lat="47.43542" lon="6.72949">
        <ele>473</ele>
        <time>2015-04-26T08:17:16.000Z</time>
      </trkpt>
      <trkpt lat="47.4354" lon="6.72944">
        <ele>473</ele>
        <time>2015-04-26T08:17:17.000Z</time>
      </trkpt>
      <trkpt lat="47.43539" lon="6.72939">
        <ele>473</ele>
        <time>2015-04-26T08:17:18.000Z</time>
      </trkpt>
      <trkpt lat="47.43537" lon="6.72934">
        <ele>473</ele>
        <time>2015-04-26T08:17:19.000Z</time>
      </trkpt>
      <trkpt lat="47.43535" lon="6.72928">
        <ele>473</ele>
        <time>2015-04-26T08:17:20.000Z</time>
      </trkpt>
      <trkpt lat="47.43534" lon="6.72922">
        <ele>473</ele>
        <time>2015-04-26T08:17:21.000Z</time>
      </trkpt>
      <trkpt lat="47.43532" lon="6.72916">
        <ele>473</ele>
        <time>2015-04-26T08:17:22.000Z</time>
      </trkpt>
      <trkpt lat="47.4353" lon="6.7291">
        <ele>473</ele>
        <time>2015-04-26T08:17:23.000Z</time>
      </trkpt>
      <trkpt lat="47.43529" lon="6.72903">
        <ele>473</ele>
        <time>2015-04-26T08:17:24.000Z</time>
      </trkpt>
      <trkpt lat="47.43528" lon="6.72896">
        <ele>473</ele>
        <time>2015-04-26T08:17:25.000Z</time>
      </trkpt>
      <trkpt lat="47.43527" lon="6.72892">
        <ele>473</ele>
        <time>2015-04-26T08:17:26.000Z</time>
      </trkpt>
      <trkpt lat="47.43526" lon="6.72886">
        <ele>473</ele>
        <time>2015-04-26T08:17:27.000Z</time>
      </trkpt>
      <trkpt lat="47.43524" lon="6.72879">
        <ele>473</ele>
        <time>2015-04-26T08:17:28.000Z</time>
      </trkpt>
      <trkpt lat="47.43523" lon="6.72874">
        <ele>473</ele>
        <time>2015-04-26T08:17:29.000Z</time>
      </trkpt>
      <trkpt lat="47.43521" lon="6.72868">
        <ele>473</ele>
        <time>2015-04-26T08:17:30.000Z</time>
      </trkpt>
      <trkpt lat="47.4352" lon="6.72863">
        <ele>473</ele>
        <time>2015-04-26T08:17:31.000Z</time>
      </trkpt>
      <trkpt lat="47.43519" lon="6.72857">
        <ele>474</ele>
        <time>2015-04-26T08:17:32.000Z</time>
      </trkpt>
      <trkpt lat="47.43518" lon="6.72851">
        <ele>474</ele>
        <time>2015-04-26T08:17:33.000Z</time>
      </trkpt>
      <trkpt lat="47.43516" lon="6.72846">
        <ele>474</ele>
        <time>2015-04-26T08:17:34.000Z</time>
      </trkpt>
      <trkpt lat="47.43514" lon="6.72841">
        <ele>474</ele>
        <time>2015-04-26T08:17:35.000Z</time>
      </trkpt>
      <trkpt lat="47.43512" lon="6.72835">
        <ele>475</ele>
        <time>2015-04-26T08:17:36.000Z</time>
      </trkpt>
      <trkpt lat="47.43512" lon="6.7283">
        <ele>474</ele>
        <time>2015-04-26T08:17:37.000Z</time>
      </trkpt>
      <trkpt lat="47.4351" lon="6.72824">
        <ele>474</ele>
        <time>2015-04-26T08:17:38.000Z</time>
      </trkpt>
      <trkpt lat="47.43508" lon="6.72819">
        <ele>474</ele>
        <time>2015-04-26T08:17:39.000Z</time>
      </trkpt>
      <trkpt lat="47.43507" lon="6.72813">
        <ele>474</ele>
        <time>2015-04-26T08:17:40.000Z</time>
      </trkpt>
      <trkpt lat="47.43506" lon="6.72807">
        <ele>474</ele>
        <time>2015-04-26T08:17:41.000Z</time>
      </trkpt>
      <trkpt lat="47.43504" lon="6.72802">
        <ele>474</ele>
        <time>2015-04-26T08:17:42.000Z</time>
      </trkpt>
      <trkpt lat="47.43501" lon="6.72797">
        <ele>474</ele>
        <time>2015-04-26T08:17:43.000Z</time>
      </trkpt>
      <trkpt lat="47.43498" lon="6.72792">
        <ele>476</ele>
        <time>2015-04-26T08:17:44.000Z</time>
      </trkpt>
      <trkpt lat="47.43495" lon="6.72786">
        <ele>476</ele>
        <time>2015-04-26T08:17:45.000Z</time>
      </trkpt>
      <trkpt lat="47.4349" lon="6.72778">
        <ele>476</ele>
        <time>2015-04-26T08:17:46.000Z</time>
      </trkpt>
      <trkpt lat="47.43487" lon="6.72773">
        <ele>476</ele>
        <time>2015-04-26T08:17:47.000Z</time>
      </trkpt>
      <trkpt lat="47.43485" lon="6.72767">
        <ele>476</ele>
        <time>2015-04-26T08:17:48.000Z</time>
      </trkpt>
      <trkpt lat="47.43482" lon="6.72762">
        <ele>476</ele>
        <time>2015-04-26T08:17:49.000Z</time>
      </trkpt>
      <trkpt lat="47.43479" lon="6.72754">
        <ele>476</ele>
        <time>2015-04-26T08:17:50.000Z</time>
      </trkpt>
      <trkpt lat="47.43476" lon="6.7275">
        <ele>477</ele>
        <time>2015-04-26T08:17:51.000Z</time>
      </trkpt>
      <trkpt lat="47.43475" lon="6.72745">
        <ele>477</ele>
        <time>2015-04-26T08:17:52.000Z</time>
      </trkpt>
      <trkpt lat="47.43474" lon="6.72741">
        <ele>477</ele>
        <time>2015-04-26T08:17:53.000Z</time>
      </trkpt>
      <trkpt lat="47.43472" lon="6.72737">
        <ele>477</ele>
        <time>2015-04-26T08:17:54.000Z</time>
      </trkpt>
      <trkpt lat="47.43469" lon="6.72732">
        <ele>477</ele>
        <time>2015-04-26T08:17:55.000Z</time>
      </trkpt>
      <trkpt lat="47.43469" lon="6.72728">
        <ele>477</ele>
        <time>2015-04-26T08:17:56.000Z</time>
      </trkpt>
      <trkpt lat="47.43466" lon="6.72723">
        <ele>477</ele>
        <time>2015-04-26T08:17:57.000Z</time>
      </trkpt>
      <trkpt lat="47.43463" lon="6.7272">
        <ele>478</ele>
        <time>2015-04-26T08:17:58.000Z</time>
      </trkpt>
      <trkpt lat="47.43461" lon="6.72716">
        <ele>478</ele>
        <time>2015-04-26T08:17:59.000Z</time>
      </trkpt>
      <trkpt lat="47.43458" lon="6.72713">
        <ele>478</ele>
        <time>2015-04-26T08:18:00.000Z</time>
      </trkpt>
      <trkpt lat="47.43456" lon="6.7271">
        <ele>478</ele>
        <time>2015-04-26T08:18:01.000Z</time>
      </trkpt>
      <trkpt lat="47.43454" lon="6.72707">
        <ele>478</ele>
        <time>2015-04-26T08:18:02.000Z</time>
      </trkpt>
      <trkpt lat="47.43452" lon="6.72704">
        <ele>478</ele>
        <time>2015-04-26T08:18:03.000Z</time>
      </trkpt>
      <trkpt lat="47.43449" lon="6.727">
        <ele>478</ele>
        <time>2015-04-26T08:18:04.000Z</time>
      </trkpt>
      <trkpt lat="47.43447" lon="6.72696">
        <ele>478</ele>
        <time>2015-04-26T08:18:05.000Z</time>
      </trkpt>
      <trkpt lat="47.43444" lon="6.72693">
        <ele>478</ele>
        <time>2015-04-26T08:18:06.000Z</time>
      </trkpt>
      <trkpt lat="47.43442" lon="6.72689">
        <ele>479</ele>
        <time>2015-04-26T08:18:07.000Z</time>
      </trkpt>
      <trkpt lat="47.43439" lon="6.72685">
        <ele>479</ele>
        <time>2015-04-26T08:18:08.000Z</time>
      </trkpt>
      <trkpt lat="47.43436" lon="6.72682">
        <ele>479</ele>
        <time>2015-04-26T08:18:09.000Z</time>
      </trkpt>
      <trkpt lat="47.43433" lon="6.72678">
        <ele>479</ele>
        <time>2015-04-26T08:18:10.000Z</time>
      </trkpt>
      <trkpt lat="47.43431" lon="6.72675">
        <ele>480</ele>
        <time>2015-04-26T08:18:11.000Z</time>
      </trkpt>
      <trkpt lat="47.43428" lon="6.72671">
        <ele>480</ele>
        <time>2015-04-26T08:18:12.000Z</time>
      </trkpt>
      <trkpt lat="47.43427" lon="6.72668">
        <ele>480</ele>
        <time>2015-04-26T08:18:13.000Z</time>
      </trkpt>
      <trkpt lat="47.43426" lon="6.72663">
        <ele>480</ele>
        <time>2015-04-26T08:18:14.000Z</time>
      </trkpt>
      <trkpt lat="47.43426" lon="6.72659">
        <ele>480</ele>
        <time>2015-04-26T08:18:15.000Z</time>
      </trkpt>
      <trkpt lat="47.43427" lon="6.72655">
        <ele>480</ele>
        <time>2015-04-26T08:18:16.000Z</time>
      </trkpt>
      <trkpt lat="47.43433" lon="6.72653">
        <ele>479</ele>
        <time>2015-04-26T08:18:17.000Z</time>
      </trkpt>
      <trkpt lat="47.43436" lon="6.7265">
        <ele>479</ele>
        <time>2015-04-26T08:18:18.000Z</time>
      </trkpt>
      <trkpt lat="47.4344" lon="6.72647">
        <ele>478</ele>
        <time>2015-04-26T08:18:19.000Z</time>
      </trkpt>
      <trkpt lat="47.43445" lon="6.72642">
        <ele>478</ele>
        <time>2015-04-26T08:18:20.000Z</time>
      </trkpt>
      <trkpt lat="47.43449" lon="6.72637">
        <ele>478</ele>
        <time>2015-04-26T08:18:21.000Z</time>
      </trkpt>
      <trkpt lat="47.43453" lon="6.72631">
        <ele>478</ele>
        <time>2015-04-26T08:18:22.000Z</time>
      </trkpt>
      <trkpt lat="47.43456" lon="6.72623">
        <ele>477</ele>
        <time>2015-04-26T08:18:23.000Z</time>
      </trkpt>
      <trkpt lat="47.43458" lon="6.72616">
        <ele>477</ele>
        <time>2015-04-26T08:18:24.000Z</time>
      </trkpt>
      <trkpt lat="47.43461" lon="6.72608">
        <ele>477</ele>
        <time>2015-04-26T08:18:25.000Z</time>
      </trkpt>
      <trkpt lat="47.43463" lon="6.726">
        <ele>477</ele>
        <time>2015-04-26T08:18:26.000Z</time>
      </trkpt>
      <trkpt lat="47.43465" lon="6.72592">
        <ele>477</ele>
        <time>2015-04-26T08:18:27.000Z</time>
      </trkpt>
      <trkpt lat="47.43467" lon="6.72583">
        <ele>476</ele>
        <time>2015-04-26T08:18:28.000Z</time>
      </trkpt>
      <trkpt lat="47.43469" lon="6.72574">
        <ele>476</ele>
        <time>2015-04-26T08:18:29.000Z</time>
      </trkpt>
      <trkpt lat="47.4347" lon="6.72565">
        <ele>476</ele>
        <time>2015-04-26T08:18:30.000Z</time>
      </trkpt>
      <trkpt lat="47.43472" lon="6.72556">
        <ele>476</ele>
        <time>2015-04-26T08:18:31.000Z</time>
      </trkpt>
      <trkpt lat="47.43474" lon="6.72546">
        <ele>475</ele>
        <time>2015-04-26T08:18:32.000Z</time>
      </trkpt>
      <trkpt lat="47.43475" lon="6.72536">
        <ele>475</ele>
        <time>2015-04-26T08:18:33.000Z</time>
      </trkpt>
      <trkpt lat="47.43477" lon="6.72526">
        <ele>475</ele>
        <time>2015-04-26T08:18:34.000Z</time>
      </trkpt>
      <trkpt lat="47.43479" lon="6.72516">
        <ele>475</ele>
        <time>2015-04-26T08:18:35.000Z</time>
      </trkpt>
      <trkpt lat="47.43481" lon="6.72506">
        <ele>475</ele>
        <time>2015-04-26T08:18:36.000Z</time>
      </trkpt>
      <trkpt lat="47.43482" lon="6.72497">
        <ele>474</ele>
        <time>2015-04-26T08:18:37.000Z</time>
      </trkpt>
      <trkpt lat="47.43485" lon="6.72486">
        <ele>474</ele>
        <time>2015-04-26T08:18:38.000Z</time>
      </trkpt>
      <trkpt lat="47.43487" lon="6.72476">
        <ele>474</ele>
        <time>2015-04-26T08:18:39.000Z</time>
      </trkpt>
      <trkpt lat="47.4349" lon="6.72465">
        <ele>474</ele>
        <time>2015-04-26T08:18:40.000Z</time>
      </trkpt>
      <trkpt lat="47.43492" lon="6.72454">
        <ele>474</ele>
        <time>2015-04-26T08:18:41.000Z</time>
      </trkpt>
      <trkpt lat="47.43498" lon="6.72445">
        <ele>473</ele>
        <time>2015-04-26T08:18:42.000Z</time>
      </trkpt>
      <trkpt lat="47.43505" lon="6.72438">
        <ele>470</ele>
        <time>2015-04-26T08:18:43.000Z</time>
      </trkpt>
      <trkpt lat="47.43512" lon="6.72432">
        <ele>470</ele>
        <time>2015-04-26T08:18:44.000Z</time>
      </trkpt>
      <trkpt lat="47.43519" lon="6.72427">
        <ele>470</ele>
        <time>2015-04-26T08:18:45.000Z</time>
      </trkpt>
      <trkpt lat="47.43527" lon="6.72423">
        <ele>470</ele>
        <time>2015-04-26T08:18:46.000Z</time>
      </trkpt>
      <trkpt lat="47.43535" lon="6.72418">
        <ele>469</ele>
        <time>2015-04-26T08:18:47.000Z</time>
      </trkpt>
      <trkpt lat="47.43542" lon="6.72414">
        <ele>468</ele>
        <time>2015-04-26T08:18:48.000Z</time>
      </trkpt>
      <trkpt lat="47.4355" lon="6.7241">
        <ele>467</ele>
        <time>2015-04-26T08:18:49.000Z</time>
      </trkpt>
      <trkpt lat="47.43559" lon="6.72407">
        <ele>467</ele>
        <time>2015-04-26T08:18:50.000Z</time>
      </trkpt>
      <trkpt lat="47.43567" lon="6.72403">
        <ele>467</ele>
        <time>2015-04-26T08:18:51.000Z</time>
      </trkpt>
      <trkpt lat="47.43575" lon="6.724">
        <ele>467</ele>
        <time>2015-04-26T08:18:52.000Z</time>
      </trkpt>
      <trkpt lat="47.43583" lon="6.72396">
        <ele>467</ele>
        <time>2015-04-26T08:18:53.000Z</time>
      </trkpt>
      <trkpt lat="47.43591" lon="6.72392">
        <ele>465</ele>
        <time>2015-04-26T08:18:54.000Z</time>
      </trkpt>
      <trkpt lat="47.43599" lon="6.72387">
        <ele>464</ele>
        <time>2015-04-26T08:18:55.000Z</time>
      </trkpt>
      <trkpt lat="47.43606" lon="6.72383">
        <ele>464</ele>
        <time>2015-04-26T08:18:56.000Z</time>
      </trkpt>
      <trkpt lat="47.43614" lon="6.72379">
        <ele>464</ele>
        <time>2015-04-26T08:18:57.000Z</time>
      </trkpt>
      <trkpt lat="47.43622" lon="6.72376">
        <ele>464</ele>
        <time>2015-04-26T08:18:58.000Z</time>
      </trkpt>
      <trkpt lat="47.4363" lon="6.72372">
        <ele>464</ele>
        <time>2015-04-26T08:18:59.000Z</time>
      </trkpt>
      <trkpt lat="47.43638" lon="6.72369">
        <ele>463</ele>
        <time>2015-04-26T08:19:00.000Z</time>
      </trkpt>
      <trkpt lat="47.43645" lon="6.72365">
        <ele>463</ele>
        <time>2015-04-26T08:19:01.000Z</time>
      </trkpt>
      <trkpt lat="47.43653" lon="6.72361">
        <ele>463</ele>
        <time>2015-04-26T08:19:02.000Z</time>
      </trkpt>
      <trkpt lat="47.4366" lon="6.72356">
        <ele>463</ele>
        <time>2015-04-26T08:19:03.000Z</time>
      </trkpt>
      <trkpt lat="47.43667" lon="6.72351">
        <ele>462</ele>
        <time>2015-04-26T08:19:04.000Z</time>
      </trkpt>
      <trkpt lat="47.43673" lon="6.72345">
        <ele>461</ele>
        <time>2015-04-26T08:19:05.000Z</time>
      </trkpt>
      <trkpt lat="47.4368" lon="6.7234">
        <ele>461</ele>
        <time>2015-04-26T08:19:06.000Z</time>
      </trkpt>
      <trkpt lat="47.43686" lon="6.72336">
        <ele>461</ele>
        <time>2015-04-26T08:19:07.000Z</time>
      </trkpt>
      <trkpt lat="47.43692" lon="6.72332">
        <ele>460</ele>
        <time>2015-04-26T08:19:08.000Z</time>
      </trkpt>
      <trkpt lat="47.43698" lon="6.72328">
        <ele>460</ele>
        <time>2015-04-26T08:19:09.000Z</time>
      </trkpt>
      <trkpt lat="47.43704" lon="6.72323">
        <ele>460</ele>
        <time>2015-04-26T08:19:10.000Z</time>
      </trkpt>
      <trkpt lat="47.4371" lon="6.72319">
        <ele>460</ele>
        <time>2015-04-26T08:19:11.000Z</time>
      </trkpt>
      <trkpt lat="47.43715" lon="6.72315">
        <ele>460</ele>
        <time>2015-04-26T08:19:12.000Z</time>
      </trkpt>
      <trkpt lat="47.4372" lon="6.72311">
        <ele>460</ele>
        <time>2015-04-26T08:19:13.000Z</time>
      </trkpt>
      <trkpt lat="47.43725" lon="6.72307">
        <ele>460</ele>
        <time>2015-04-26T08:19:14.000Z</time>
      </trkpt>
      <trkpt lat="47.4373" lon="6.72303">
        <ele>460</ele>
        <time>2015-04-26T08:19:15.000Z</time>
      </trkpt>
      <trkpt lat="47.43734" lon="6.72302">
        <ele>460</ele>
        <time>2015-04-26T08:19:16.000Z</time>
      </trkpt>
      <trkpt lat="47.43737" lon="6.72298">
        <ele>460</ele>
        <time>2015-04-26T08:19:17.000Z</time>
      </trkpt>
      <trkpt lat="47.43739" lon="6.72292">
        <ele>460</ele>
        <time>2015-04-26T08:19:18.000Z</time>
      </trkpt>
      <trkpt lat="47.43738" lon="6.72287">
        <ele>459</ele>
        <time>2015-04-26T08:19:19.000Z</time>
      </trkpt>
      <trkpt lat="47.43737" lon="6.72283">
        <ele>459</ele>
        <time>2015-04-26T08:19:20.000Z</time>
      </trkpt>
      <trkpt lat="47.43736" lon="6.72278">
        <ele>459</ele>
        <time>2015-04-26T08:19:21.000Z</time>
      </trkpt>
      <trkpt lat="47.43734" lon="6.72273">
        <ele>459</ele>
        <time>2015-04-26T08:19:22.000Z</time>
      </trkpt>
      <trkpt lat="47.43732" lon="6.72269">
        <ele>459</ele>
        <time>2015-04-26T08:19:23.000Z</time>
      </trkpt>
      <trkpt lat="47.4373" lon="6.72263">
        <ele>459</ele>
        <time>2015-04-26T08:19:24.000Z</time>
      </trkpt>
      <trkpt lat="47.43728" lon="6.72259">
        <ele>459</ele>
        <time>2015-04-26T08:19:25.000Z</time>
      </trkpt>
      <trkpt lat="47.43726" lon="6.72254">
        <ele>459</ele>
        <time>2015-04-26T08:19:26.000Z</time>
      </trkpt>
      <trkpt lat="47.43724" lon="6.72249">
        <ele>458</ele>
        <time>2015-04-26T08:19:27.000Z</time>
      </trkpt>
      <trkpt lat="47.43722" lon="6.72244">
        <ele>458</ele>
        <time>2015-04-26T08:19:28.000Z</time>
      </trkpt>
      <trkpt lat="47.4372" lon="6.72237">
        <ele>458</ele>
        <time>2015-04-26T08:19:29.000Z</time>
      </trkpt>
      <trkpt lat="47.43718" lon="6.72231">
        <ele>458</ele>
        <time>2015-04-26T08:19:30.000Z</time>
      </trkpt>
      <trkpt lat="47.43715" lon="6.72225">
        <ele>458</ele>
        <time>2015-04-26T08:19:31.000Z</time>
      </trkpt>
      <trkpt lat="47.43712" lon="6.72218">
        <ele>458</ele>
        <time>2015-04-26T08:19:32.000Z</time>
      </trkpt>
      <trkpt lat="47.4371" lon="6.72211">
        <ele>458</ele>
        <time>2015-04-26T08:19:33.000Z</time>
      </trkpt>
      <trkpt lat="47.43707" lon="6.72204">
        <ele>458</ele>
        <time>2015-04-26T08:19:34.000Z</time>
      </trkpt>
      <trkpt lat="47.43705" lon="6.72198">
        <ele>458</ele>
        <time>2015-04-26T08:19:35.000Z</time>
      </trkpt>
      <trkpt lat="47.43703" lon="6.7219">
        <ele>458</ele>
        <time>2015-04-26T08:19:36.000Z</time>
      </trkpt>
      <trkpt lat="47.43701" lon="6.72183">
        <ele>458</ele>
        <time>2015-04-26T08:19:37.000Z</time>
      </trkpt>
      <trkpt lat="47.43697" lon="6.72175">
        <ele>458</ele>
        <time>2015-04-26T08:19:38.000Z</time>
      </trkpt>
      <trkpt lat="47.43693" lon="6.72168">
        <ele>457</ele>
        <time>2015-04-26T08:19:39.000Z</time>
      </trkpt>
      <trkpt lat="47.43691" lon="6.72159">
        <ele>457</ele>
        <time>2015-04-26T08:19:40.000Z</time>
      </trkpt>
      <trkpt lat="47.43687" lon="6.7215">
        <ele>456</ele>
        <time>2015-04-26T08:19:41.000Z</time>
      </trkpt>
      <trkpt lat="47.43683" lon="6.72142">
        <ele>456</ele>
        <time>2015-04-26T08:19:42.000Z</time>
      </trkpt>
      <trkpt lat="47.4368" lon="6.72134">
        <ele>456</ele>
        <time>2015-04-26T08:19:43.000Z</time>
      </trkpt>
      <trkpt lat="47.43676" lon="6.72126">
        <ele>456</ele>
        <time>2015-04-26T08:19:44.000Z</time>
      </trkpt>
      <trkpt lat="47.43672" lon="6.72118">
        <ele>456</ele>
        <time>2015-04-26T08:19:45.000Z</time>
      </trkpt>
      <trkpt lat="47.43668" lon="6.7211">
        <ele>456</ele>
        <time>2015-04-26T08:19:46.000Z</time>
      </trkpt>
      <trkpt lat="47.43664" lon="6.72103">
        <ele>454</ele>
        <time>2015-04-26T08:19:47.000Z</time>
      </trkpt>
      <trkpt lat="47.43659" lon="6.72094">
        <ele>454</ele>
        <time>2015-04-26T08:19:48.000Z</time>
      </trkpt>
      <trkpt lat="47.43654" lon="6.72086">
        <ele>454</ele>
        <time>2015-04-26T08:19:49.000Z</time>
      </trkpt>
      <trkpt lat="47.4365" lon="6.72078">
        <ele>452</ele>
        <time>2015-04-26T08:19:50.000Z</time>
      </trkpt>
      <trkpt lat="47.43645" lon="6.72069">
        <ele>452</ele>
        <time>2015-04-26T08:19:51.000Z</time>
      </trkpt>
      <trkpt lat="47.4364" lon="6.72061">
        <ele>452</ele>
        <time>2015-04-26T08:19:52.000Z</time>
      </trkpt>
      <trkpt lat="47.43635" lon="6.72052">
        <ele>451</ele>
        <time>2015-04-26T08:19:53.000Z</time>
      </trkpt>
      <trkpt lat="47.4363" lon="6.72044">
        <ele>451</ele>
        <time>2015-04-26T08:19:54.000Z</time>
      </trkpt>
      <trkpt lat="47.43626" lon="6.72036">
        <ele>451</ele>
        <time>2015-04-26T08:19:55.000Z</time>
      </trkpt>
      <trkpt lat="47.4362" lon="6.72028">
        <ele>451</ele>
        <time>2015-04-26T08:19:56.000Z</time>
      </trkpt>
      <trkpt lat="47.43614" lon="6.72021">
        <ele>450</ele>
        <time>2015-04-26T08:19:57.000Z</time>
      </trkpt>
      <trkpt lat="47.43608" lon="6.72014">
        <ele>450</ele>
        <time>2015-04-26T08:19:58.000Z</time>
      </trkpt>
      <trkpt lat="47.43601" lon="6.7201">
        <ele>450</ele>
        <time>2015-04-26T08:19:59.000Z</time>
      </trkpt>
      <trkpt lat="47.43594" lon="6.72006">
        <ele>449</ele>
        <time>2015-04-26T08:20:00.000Z</time>
      </trkpt>
      <trkpt lat="47.43587" lon="6.72002">
        <ele>448</ele>
        <time>2015-04-26T08:20:01.000Z</time>
      </trkpt>
      <trkpt lat="47.43581" lon="6.71999">
        <ele>448</ele>
        <time>2015-04-26T08:20:02.000Z</time>
      </trkpt>
      <trkpt lat="47.43575" lon="6.71997">
        <ele>448</ele>
        <time>2015-04-26T08:20:03.000Z</time>
      </trkpt>
      <trkpt lat="47.43569" lon="6.71994">
        <ele>448</ele>
        <time>2015-04-26T08:20:04.000Z</time>
      </trkpt>
      <trkpt lat="47.43564" lon="6.7199">
        <ele>448</ele>
        <time>2015-04-26T08:20:05.000Z</time>
      </trkpt>
      <trkpt lat="47.4356" lon="6.71986">
        <ele>448</ele>
        <time>2015-04-26T08:20:06.000Z</time>
      </trkpt>
      <trkpt lat="47.43556" lon="6.7198">
        <ele>448</ele>
        <time>2015-04-26T08:20:07.000Z</time>
      </trkpt>
      <trkpt lat="47.43553" lon="6.71973">
        <ele>448</ele>
        <time>2015-04-26T08:20:08.000Z</time>
      </trkpt>
      <trkpt lat="47.4355" lon="6.71965">
        <ele>448</ele>
        <time>2015-04-26T08:20:09.000Z</time>
      </trkpt>
      <trkpt lat="47.43547" lon="6.71958">
        <ele>448</ele>
        <time>2015-04-26T08:20:10.000Z</time>
      </trkpt>
      <trkpt lat="47.43544" lon="6.71949">
        <ele>448</ele>
        <time>2015-04-26T08:20:11.000Z</time>
      </trkpt>
      <trkpt lat="47.43542" lon="6.7194">
        <ele>448</ele>
        <time>2015-04-26T08:20:12.000Z</time>
      </trkpt>
      <trkpt lat="47.43539" lon="6.71933">
        <ele>448</ele>
        <time>2015-04-26T08:20:13.000Z</time>
      </trkpt>
      <trkpt lat="47.43536" lon="6.71925">
        <ele>447</ele>
        <time>2015-04-26T08:20:14.000Z</time>
      </trkpt>
      <trkpt lat="47.43534" lon="6.71916">
        <ele>446</ele>
        <time>2015-04-26T08:20:15.000Z</time>
      </trkpt>
      <trkpt lat="47.43533" lon="6.71906">
        <ele>446</ele>
        <time>2015-04-26T08:20:16.000Z</time>
      </trkpt>
      <trkpt lat="47.43531" lon="6.71896">
        <ele>445</ele>
        <time>2015-04-26T08:20:17.000Z</time>
      </trkpt>
      <trkpt lat="47.4353" lon="6.71885">
        <ele>445</ele>
        <time>2015-04-26T08:20:18.000Z</time>
      </trkpt>
      <trkpt lat="47.43528" lon="6.71876">
        <ele>445</ele>
        <time>2015-04-26T08:20:19.000Z</time>
      </trkpt>
      <trkpt lat="47.43525" lon="6.71865">
        <ele>445</ele>
        <time>2015-04-26T08:20:20.000Z</time>
      </trkpt>
      <trkpt lat="47.43523" lon="6.71855">
        <ele>444</ele>
        <time>2015-04-26T08:20:21.000Z</time>
      </trkpt>
      <trkpt lat="47.4352" lon="6.71845">
        <ele>444</ele>
        <time>2015-04-26T08:20:22.000Z</time>
      </trkpt>
      <trkpt lat="47.43518" lon="6.71835">
        <ele>444</ele>
        <time>2015-04-26T08:20:23.000Z</time>
      </trkpt>
      <trkpt lat="47.43516" lon="6.71825">
        <ele>443</ele>
        <time>2015-04-26T08:20:24.000Z</time>
      </trkpt>
      <trkpt lat="47.43514" lon="6.71815">
        <ele>443</ele>
        <time>2015-04-26T08:20:25.000Z</time>
      </trkpt>
      <trkpt lat="47.43512" lon="6.71805">
        <ele>443</ele>
        <time>2015-04-26T08:20:26.000Z</time>
      </trkpt>
      <trkpt lat="47.4351" lon="6.71796">
        <ele>443</ele>
        <time>2015-04-26T08:20:27.000Z</time>
      </trkpt>
      <trkpt lat="47.43508" lon="6.71787">
        <ele>443</ele>
        <time>2015-04-26T08:20:28.000Z</time>
      </trkpt>
      <trkpt lat="47.43506" lon="6.71778">
        <ele>443</ele>
        <time>2015-04-26T08:20:29.000Z</time>
      </trkpt>
      <trkpt lat="47.43505" lon="6.71769">
        <ele>443</ele>
        <time>2015-04-26T08:20:30.000Z</time>
      </trkpt>
      <trkpt lat="47.43504" lon="6.7176">
        <ele>442</ele>
        <time>2015-04-26T08:20:31.000Z</time>
      </trkpt>
      <trkpt lat="47.43503" lon="6.7175">
        <ele>441</ele>
        <time>2015-04-26T08:20:32.000Z</time>
      </trkpt>
      <trkpt lat="47.43501" lon="6.71739">
        <ele>442</ele>
        <time>2015-04-26T08:20:33.000Z</time>
      </trkpt>
      <trkpt lat="47.43499" lon="6.7173">
        <ele>442</ele>
        <time>2015-04-26T08:20:34.000Z</time>
      </trkpt>
      <trkpt lat="47.43497" lon="6.7172">
        <ele>442</ele>
        <time>2015-04-26T08:20:35.000Z</time>
      </trkpt>
      <trkpt lat="47.43494" lon="6.71711">
        <ele>442</ele>
        <time>2015-04-26T08:20:36.000Z</time>
      </trkpt>
      <trkpt lat="47.43492" lon="6.71702">
        <ele>442</ele>
        <time>2015-04-26T08:20:37.000Z</time>
      </trkpt>
      <trkpt lat="47.43491" lon="6.71693">
        <ele>442</ele>
        <time>2015-04-26T08:20:38.000Z</time>
      </trkpt>
      <trkpt lat="47.43491" lon="6.71685">
        <ele>442</ele>
        <time>2015-04-26T08:20:39.000Z</time>
      </trkpt>
      <trkpt lat="47.43489" lon="6.71676">
        <ele>442</ele>
        <time>2015-04-26T08:20:40.000Z</time>
      </trkpt>
      <trkpt lat="47.43488" lon="6.71667">
        <ele>442</ele>
        <time>2015-04-26T08:20:41.000Z</time>
      </trkpt>
      <trkpt lat="47.43488" lon="6.7166">
        <ele>442</ele>
        <time>2015-04-26T08:20:42.000Z</time>
      </trkpt>
      <trkpt lat="47.43488" lon="6.71652">
        <ele>442</ele>
        <time>2015-04-26T08:20:43.000Z</time>
      </trkpt>
      <trkpt lat="47.43487" lon="6.71644">
        <ele>442</ele>
        <time>2015-04-26T08:20:44.000Z</time>
      </trkpt>
      <trkpt lat="47.43487" lon="6.71635">
        <ele>443</ele>
        <time>2015-04-26T08:20:45.000Z</time>
      </trkpt>
      <trkpt lat="47.43486" lon="6.71627">
        <ele>443</ele>
        <time>2015-04-26T08:20:46.000Z</time>
      </trkpt>
      <trkpt lat="47.43485" lon="6.71618">
        <ele>443</ele>
        <time>2015-04-26T08:20:47.000Z</time>
      </trkpt>
      <trkpt lat="47.43483" lon="6.71608">
        <ele>443</ele>
        <time>2015-04-26T08:20:48.000Z</time>
      </trkpt>
      <trkpt lat="47.43483" lon="6.71598">
        <ele>443</ele>
        <time>2015-04-26T08:20:49.000Z</time>
      </trkpt>
      <trkpt lat="47.43482" lon="6.71589">
        <ele>443</ele>
        <time>2015-04-26T08:20:50.000Z</time>
      </trkpt>
      <trkpt lat="47.4348" lon="6.71578">
        <ele>445</ele>
        <time>2015-04-26T08:20:51.000Z</time>
      </trkpt>
      <trkpt lat="47.43479" lon="6.71568">
        <ele>445</ele>
        <time>2015-04-26T08:20:52.000Z</time>
      </trkpt>
      <trkpt lat="47.43478" lon="6.71557">
        <ele>445</ele>
        <time>2015-04-26T08:20:53.000Z</time>
      </trkpt>
      <trkpt lat="47.43477" lon="6.71547">
        <ele>445</ele>
        <time>2015-04-26T08:20:54.000Z</time>
      </trkpt>
      <trkpt lat="47.43477" lon="6.71536">
        <ele>445</ele>
        <time>2015-04-26T08:20:55.000Z</time>
      </trkpt>
      <trkpt lat="47.43477" lon="6.71526">
        <ele>445</ele>
        <time>2015-04-26T08:20:56.000Z</time>
      </trkpt>
      <trkpt lat="47.43476" lon="6.71514">
        <ele>445</ele>
        <time>2015-04-26T08:20:57.000Z</time>
      </trkpt>
      <trkpt lat="47.43476" lon="6.71503">
        <ele>445</ele>
        <time>2015-04-26T08:20:58.000Z</time>
      </trkpt>
      <trkpt lat="47.43476" lon="6.71493">
        <ele>445</ele>
        <time>2015-04-26T08:20:59.000Z</time>
      </trkpt>
      <trkpt lat="47.43476" lon="6.71483">
        <ele>446</ele>
        <time>2015-04-26T08:21:00.000Z</time>
      </trkpt>
      <trkpt lat="47.43476" lon="6.71473">
        <ele>446</ele>
        <time>2015-04-26T08:21:01.000Z</time>
      </trkpt>
      <trkpt lat="47.43477" lon="6.71463">
        <ele>446</ele>
        <time>2015-04-26T08:21:02.000Z</time>
      </trkpt>
      <trkpt lat="47.43476" lon="6.71453">
        <ele>445</ele>
        <time>2015-04-26T08:21:03.000Z</time>
      </trkpt>
      <trkpt lat="47.43477" lon="6.71443">
        <ele>445</ele>
        <time>2015-04-26T08:21:04.000Z</time>
      </trkpt>
      <trkpt lat="47.43477" lon="6.71434">
        <ele>445</ele>
        <time>2015-04-26T08:21:05.000Z</time>
      </trkpt>
      <trkpt lat="47.43477" lon="6.71424">
        <ele>445</ele>
        <time>2015-04-26T08:21:06.000Z</time>
      </trkpt>
      <trkpt lat="47.43478" lon="6.71415">
        <ele>443</ele>
        <time>2015-04-26T08:21:07.000Z</time>
      </trkpt>
      <trkpt lat="47.43478" lon="6.71405">
        <ele>443</ele>
        <time>2015-04-26T08:21:08.000Z</time>
      </trkpt>
      <trkpt lat="47.43479" lon="6.71395">
        <ele>443</ele>
        <time>2015-04-26T08:21:09.000Z</time>
      </trkpt>
      <trkpt lat="47.43479" lon="6.71386">
        <ele>443</ele>
        <time>2015-04-26T08:21:10.000Z</time>
      </trkpt>
      <trkpt lat="47.43479" lon="6.71377">
        <ele>443</ele>
        <time>2015-04-26T08:21:11.000Z</time>
      </trkpt>
      <trkpt lat="47.43479" lon="6.71367">
        <ele>443</ele>
        <time>2015-04-26T08:21:12.000Z</time>
      </trkpt>
      <trkpt lat="47.43479" lon="6.71357">
        <ele>443</ele>
        <time>2015-04-26T08:21:13.000Z</time>
      </trkpt>
      <trkpt lat="47.4348" lon="6.71346">
        <ele>442</ele>
        <time>2015-04-26T08:21:14.000Z</time>
      </trkpt>
      <trkpt lat="47.4348" lon="6.71336">
        <ele>442</ele>
        <time>2015-04-26T08:21:15.000Z</time>
      </trkpt>
      <trkpt lat="47.43482" lon="6.71325">
        <ele>440</ele>
        <time>2015-04-26T08:21:16.000Z</time>
      </trkpt>
      <trkpt lat="47.43483" lon="6.71315">
        <ele>440</ele>
        <time>2015-04-26T08:21:17.000Z</time>
      </trkpt>
      <trkpt lat="47.43484" lon="6.71305">
        <ele>440</ele>
        <time>2015-04-26T08:21:18.000Z</time>
      </trkpt>
      <trkpt lat="47.43485" lon="6.71296">
        <ele>440</ele>
        <time>2015-04-26T08:21:19.000Z</time>
      </trkpt>
      <trkpt lat="47.43486" lon="6.71287">
        <ele>440</ele>
        <time>2015-04-26T08:21:20.000Z</time>
      </trkpt>
      <trkpt lat="47.43484" lon="6.71276">
        <ele>440</ele>
        <time>2015-04-26T08:21:21.000Z</time>
      </trkpt>
      <trkpt lat="47.43485" lon="6.71267">
        <ele>440</ele>
        <time>2015-04-26T08:21:22.000Z</time>
      </trkpt>
      <trkpt lat="47.43487" lon="6.71257">
        <ele>439</ele>
        <time>2015-04-26T08:21:23.000Z</time>
      </trkpt>
      <trkpt lat="47.43488" lon="6.71247">
        <ele>438</ele>
        <time>2015-04-26T08:21:24.000Z</time>
      </trkpt>
      <trkpt lat="47.43488" lon="6.71236">
        <ele>439</ele>
        <time>2015-04-26T08:21:25.000Z</time>
      </trkpt>
      <trkpt lat="47.43488" lon="6.71226">
        <ele>439</ele>
        <time>2015-04-26T08:21:26.000Z</time>
      </trkpt>
      <trkpt lat="47.4349" lon="6.71215">
        <ele>439</ele>
        <time>2015-04-26T08:21:27.000Z</time>
      </trkpt>
      <trkpt lat="47.43491" lon="6.71206">
        <ele>439</ele>
        <time>2015-04-26T08:21:28.000Z</time>
      </trkpt>
      <trkpt lat="47.43491" lon="6.71197">
        <ele>439</ele>
        <time>2015-04-26T08:21:29.000Z</time>
      </trkpt>
      <trkpt lat="47.43492" lon="6.71187">
        <ele>439</ele>
        <time>2015-04-26T08:21:30.000Z</time>
      </trkpt>
      <trkpt lat="47.43492" lon="6.71178">
        <ele>438</ele>
        <time>2015-04-26T08:21:31.000Z</time>
      </trkpt>
      <trkpt lat="47.43493" lon="6.7117">
        <ele>438</ele>
        <time>2015-04-26T08:21:32.000Z</time>
      </trkpt>
      <trkpt lat="47.43495" lon="6.71163">
        <ele>438</ele>
        <time>2015-04-26T08:21:33.000Z</time>
      </trkpt>
      <trkpt lat="47.43497" lon="6.71155">
        <ele>438</ele>
        <time>2015-04-26T08:21:34.000Z</time>
      </trkpt>
      <trkpt lat="47.43498" lon="6.71147">
        <ele>438</ele>
        <time>2015-04-26T08:21:35.000Z</time>
      </trkpt>
      <trkpt lat="47.43501" lon="6.71141">
        <ele>442</ele>
        <time>2015-04-26T08:21:36.000Z</time>
      </trkpt>
      <trkpt lat="47.43503" lon="6.71133">
        <ele>443</ele>
        <time>2015-04-26T08:21:37.000Z</time>
      </trkpt>
      <trkpt lat="47.43506" lon="6.71125">
        <ele>443</ele>
        <time>2015-04-26T08:21:38.000Z</time>
      </trkpt>
      <trkpt lat="47.43507" lon="6.71119">
        <ele>443</ele>
        <time>2015-04-26T08:21:39.000Z</time>
      </trkpt>
      <trkpt lat="47.43509" lon="6.71113">
        <ele>443</ele>
        <time>2015-04-26T08:21:40.000Z</time>
      </trkpt>
      <trkpt lat="47.4351" lon="6.71108">
        <ele>442</ele>
        <time>2015-04-26T08:21:41.000Z</time>
      </trkpt>
      <trkpt lat="47.43511" lon="6.71102">
        <ele>442</ele>
        <time>2015-04-26T08:21:42.000Z</time>
      </trkpt>
      <trkpt lat="47.43513" lon="6.71096">
        <ele>441</ele>
        <time>2015-04-26T08:21:43.000Z</time>
      </trkpt>
      <trkpt lat="47.43514" lon="6.7109">
        <ele>441</ele>
        <time>2015-04-26T08:21:44.000Z</time>
      </trkpt>
      <trkpt lat="47.43515" lon="6.71082">
        <ele>440</ele>
        <time>2015-04-26T08:21:45.000Z</time>
      </trkpt>
      <trkpt lat="47.43517" lon="6.71077">
        <ele>441</ele>
        <time>2015-04-26T08:21:46.000Z</time>
      </trkpt>
      <trkpt lat="47.43518" lon="6.71072">
        <ele>441</ele>
        <time>2015-04-26T08:21:47.000Z</time>
      </trkpt>
      <trkpt lat="47.43519" lon="6.71066">
        <ele>442</ele>
        <time>2015-04-26T08:21:48.000Z</time>
      </trkpt>
      <trkpt lat="47.43521" lon="6.71059">
        <ele>442</ele>
        <time>2015-04-26T08:21:49.000Z</time>
      </trkpt>
      <trkpt lat="47.43523" lon="6.71052">
        <ele>442</ele>
        <time>2015-04-26T08:21:50.000Z</time>
      </trkpt>
      <trkpt lat="47.43525" lon="6.71047">
        <ele>442</ele>
        <time>2015-04-26T08:21:51.000Z</time>
      </trkpt>
      <trkpt lat="47.43528" lon="6.7104">
        <ele>443</ele>
        <time>2015-04-26T08:21:52.000Z</time>
      </trkpt>
      <trkpt lat="47.43529" lon="6.71033">
        <ele>443</ele>
        <time>2015-04-26T08:21:53.000Z</time>
      </trkpt>
      <trkpt lat="47.43531" lon="6.71026">
        <ele>443</ele>
        <time>2015-04-26T08:21:54.000Z</time>
      </trkpt>
      <trkpt lat="47.43533" lon="6.7102">
        <ele>443</ele>
        <time>2015-04-26T08:21:55.000Z</time>
      </trkpt>
      <trkpt lat="47.43533" lon="6.71013">
        <ele>442</ele>
        <time>2015-04-26T08:21:56.000Z</time>
      </trkpt>
      <trkpt lat="47.43534" lon="6.71007">
        <ele>442</ele>
        <time>2015-04-26T08:21:57.000Z</time>
      </trkpt>
      <trkpt lat="47.43536" lon="6.71001">
        <ele>442</ele>
        <time>2015-04-26T08:21:58.000Z</time>
      </trkpt>
      <trkpt lat="47.43537" lon="6.70996">
        <ele>441</ele>
        <time>2015-04-26T08:21:59.000Z</time>
      </trkpt>
      <trkpt lat="47.43538" lon="6.70989">
        <ele>441</ele>
        <time>2015-04-26T08:22:00.000Z</time>
      </trkpt>
      <trkpt lat="47.4354" lon="6.70983">
        <ele>441</ele>
        <time>2015-04-26T08:22:01.000Z</time>
      </trkpt>
      <trkpt lat="47.43541" lon="6.70978">
        <ele>441</ele>
        <time>2015-04-26T08:22:02.000Z</time>
      </trkpt>
      <trkpt lat="47.43542" lon="6.70973">
        <ele>441</ele>
        <time>2015-04-26T08:22:03.000Z</time>
      </trkpt>
      <trkpt lat="47.43544" lon="6.70968">
        <ele>441</ele>
        <time>2015-04-26T08:22:04.000Z</time>
      </trkpt>
      <trkpt lat="47.43545" lon="6.70963">
        <ele>441</ele>
        <time>2015-04-26T08:22:05.000Z</time>
      </trkpt>
      <trkpt lat="47.43547" lon="6.70959">
        <ele>441</ele>
        <time>2015-04-26T08:22:06.000Z</time>
      </trkpt>
      <trkpt lat="47.43549" lon="6.70954">
        <ele>441</ele>
        <time>2015-04-26T08:22:07.000Z</time>
      </trkpt>
      <trkpt lat="47.43551" lon="6.7095">
        <ele>441</ele>
        <time>2015-04-26T08:22:08.000Z</time>
      </trkpt>
      <trkpt lat="47.43552" lon="6.70945">
        <ele>441</ele>
        <time>2015-04-26T08:22:09.000Z</time>
      </trkpt>
      <trkpt lat="47.43553" lon="6.7094">
        <ele>442</ele>
        <time>2015-04-26T08:22:10.000Z</time>
      </trkpt>
      <trkpt lat="47.43555" lon="6.70935">
        <ele>442</ele>
        <time>2015-04-26T08:22:11.000Z</time>
      </trkpt>
      <trkpt lat="47.43556" lon="6.70929">
        <ele>442</ele>
        <time>2015-04-26T08:22:12.000Z</time>
      </trkpt>
      <trkpt lat="47.43558" lon="6.70922">
        <ele>442</ele>
        <time>2015-04-26T08:22:13.000Z</time>
      </trkpt>
      <trkpt lat="47.43559" lon="6.70915">
        <ele>441</ele>
        <time>2015-04-26T08:22:14.000Z</time>
      </trkpt>
      <trkpt lat="47.43561" lon="6.70908">
        <ele>441</ele>
        <time>2015-04-26T08:22:15.000Z</time>
      </trkpt>
      <trkpt lat="47.43562" lon="6.70902">
        <ele>441</ele>
        <time>2015-04-26T08:22:16.000Z</time>
      </trkpt>
      <trkpt lat="47.43564" lon="6.70896">
        <ele>440</ele>
        <time>2015-04-26T08:22:17.000Z</time>
      </trkpt>
      <trkpt lat="47.43565" lon="6.7089">
        <ele>440</ele>
        <time>2015-04-26T08:22:18.000Z</time>
      </trkpt>
      <trkpt lat="47.43567" lon="6.70884">
        <ele>440</ele>
        <time>2015-04-26T08:22:19.000Z</time>
      </trkpt>
      <trkpt lat="47.43568" lon="6.70879">
        <ele>440</ele>
        <time>2015-04-26T08:22:20.000Z</time>
      </trkpt>
      <trkpt lat="47.4357" lon="6.70873">
        <ele>440</ele>
        <time>2015-04-26T08:22:21.000Z</time>
      </trkpt>
      <trkpt lat="47.43571" lon="6.70867">
        <ele>440</ele>
        <time>2015-04-26T08:22:22.000Z</time>
      </trkpt>
      <trkpt lat="47.43572" lon="6.70861">
        <ele>440</ele>
        <time>2015-04-26T08:22:23.000Z</time>
      </trkpt>
      <trkpt lat="47.43573" lon="6.70855">
        <ele>440</ele>
        <time>2015-04-26T08:22:24.000Z</time>
      </trkpt>
      <trkpt lat="47.43574" lon="6.7085">
        <ele>441</ele>
        <time>2015-04-26T08:22:25.000Z</time>
      </trkpt>
      <trkpt lat="47.43575" lon="6.70844">
        <ele>442</ele>
        <time>2015-04-26T08:22:26.000Z</time>
      </trkpt>
      <trkpt lat="47.43576" lon="6.70839">
        <ele>442</ele>
        <time>2015-04-26T08:22:27.000Z</time>
      </trkpt>
      <trkpt lat="47.43577" lon="6.70834">
        <ele>443</ele>
        <time>2015-04-26T08:22:28.000Z</time>
      </trkpt>
      <trkpt lat="47.43578" lon="6.7083">
        <ele>442</ele>
        <time>2015-04-26T08:22:29.000Z</time>
      </trkpt>
      <trkpt lat="47.43579" lon="6.70825">
        <ele>442</ele>
        <time>2015-04-26T08:22:30.000Z</time>
      </trkpt>
      <trkpt lat="47.4358" lon="6.70821">
        <ele>441</ele>
        <time>2015-04-26T08:22:31.000Z</time>
      </trkpt>
      <trkpt lat="47.43581" lon="6.70816">
        <ele>440</ele>
        <time>2015-04-26T08:22:32.000Z</time>
      </trkpt>
      <trkpt lat="47.43582" lon="6.70812">
        <ele>439</ele>
        <time>2015-04-26T08:22:33.000Z</time>
      </trkpt>
      <trkpt lat="47.43584" lon="6.70807">
        <ele>446</ele>
        <time>2015-04-26T08:22:34.000Z</time>
      </trkpt>
      <trkpt lat="47.43586" lon="6.70803">
        <ele>446</ele>
        <time>2015-04-26T08:22:35.000Z</time>
      </trkpt>
      <trkpt lat="47.43587" lon="6.70799">
        <ele>446</ele>
        <time>2015-04-26T08:22:36.000Z</time>
      </trkpt>
      <trkpt lat="47.43589" lon="6.70796">
        <ele>446</ele>
        <time>2015-04-26T08:22:37.000Z</time>
      </trkpt>
      <trkpt lat="47.43591" lon="6.70792">
        <ele>446</ele>
        <time>2015-04-26T08:22:38.000Z</time>
      </trkpt>
      <trkpt lat="47.43591" lon="6.70787">
        <ele>446</ele>
        <time>2015-04-26T08:22:39.000Z</time>
      </trkpt>
      <trkpt lat="47.43592" lon="6.70783">
        <ele>446</ele>
        <time>2015-04-26T08:22:40.000Z</time>
      </trkpt>
      <trkpt lat="47.43593" lon="6.70779">
        <ele>446</ele>
        <time>2015-04-26T08:22:41.000Z</time>
      </trkpt>
      <trkpt lat="47.43595" lon="6.70774">
        <ele>445</ele>
        <time>2015-04-26T08:22:42.000Z</time>
      </trkpt>
      <trkpt lat="47.43597" lon="6.70769">
        <ele>445</ele>
        <time>2015-04-26T08:22:43.000Z</time>
      </trkpt>
      <trkpt lat="47.43599" lon="6.70763">
        <ele>445</ele>
        <time>2015-04-26T08:22:44.000Z</time>
      </trkpt>
      <trkpt lat="47.43601" lon="6.70758">
        <ele>445</ele>
        <time>2015-04-26T08:22:45.000Z</time>
      </trkpt>
      <trkpt lat="47.43603" lon="6.70753">
        <ele>445</ele>
        <time>2015-04-26T08:22:46.000Z</time>
      </trkpt>
      <trkpt lat="47.43604" lon="6.70747">
        <ele>445</ele>
        <time>2015-04-26T08:22:47.000Z</time>
      </trkpt>
      <trkpt lat="47.43606" lon="6.70742">
        <ele>445</ele>
        <time>2015-04-26T08:22:48.000Z</time>
      </trkpt>
      <trkpt lat="47.43608" lon="6.70737">
        <ele>445</ele>
        <time>2015-04-26T08:22:49.000Z</time>
      </trkpt>
      <trkpt lat="47.43609" lon="6.70733">
        <ele>446</ele>
        <time>2015-04-26T08:22:50.000Z</time>
      </trkpt>
      <trkpt lat="47.43611" lon="6.70729">
        <ele>446</ele>
        <time>2015-04-26T08:22:51.000Z</time>
      </trkpt>
      <trkpt lat="47.43614" lon="6.70725">
        <ele>446</ele>
        <time>2015-04-26T08:22:52.000Z</time>
      </trkpt>
      <trkpt lat="47.43616" lon="6.70721">
        <ele>446</ele>
        <time>2015-04-26T08:22:53.000Z</time>
      </trkpt>
      <trkpt lat="47.43618" lon="6.70717">
        <ele>446</ele>
        <time>2015-04-26T08:22:54.000Z</time>
      </trkpt>
      <trkpt lat="47.4362" lon="6.70712">
        <ele>446</ele>
        <time>2015-04-26T08:22:55.000Z</time>
      </trkpt>
      <trkpt lat="47.43621" lon="6.70707">
        <ele>446</ele>
        <time>2015-04-26T08:22:56.000Z</time>
      </trkpt>
      <trkpt lat="47.43621" lon="6.70701">
        <ele>446</ele>
        <time>2015-04-26T08:22:57.000Z</time>
      </trkpt>
      <trkpt lat="47.43622" lon="6.70695">
        <ele>446</ele>
        <time>2015-04-26T08:22:58.000Z</time>
      </trkpt>
      <trkpt lat="47.43623" lon="6.70688">
        <ele>446</ele>
        <time>2015-04-26T08:22:59.000Z</time>
      </trkpt>
      <trkpt lat="47.43623" lon="6.70682">
        <ele>447</ele>
        <time>2015-04-26T08:23:00.000Z</time>
      </trkpt>
      <trkpt lat="47.43624" lon="6.70675">
        <ele>447</ele>
        <time>2015-04-26T08:23:01.000Z</time>
      </trkpt>
      <trkpt lat="47.43624" lon="6.70668">
        <ele>447</ele>
        <time>2015-04-26T08:23:02.000Z</time>
      </trkpt>
      <trkpt lat="47.43625" lon="6.70661">
        <ele>448</ele>
        <time>2015-04-26T08:23:03.000Z</time>
      </trkpt>
      <trkpt lat="47.43626" lon="6.70655">
        <ele>448</ele>
        <time>2015-04-26T08:23:04.000Z</time>
      </trkpt>
      <trkpt lat="47.43627" lon="6.70648">
        <ele>448</ele>
        <time>2015-04-26T08:23:05.000Z</time>
      </trkpt>
      <trkpt lat="47.43628" lon="6.70641">
        <ele>448</ele>
        <time>2015-04-26T08:23:06.000Z</time>
      </trkpt>
      <trkpt lat="47.43629" lon="6.70635">
        <ele>449</ele>
        <time>2015-04-26T08:23:07.000Z</time>
      </trkpt>
      <trkpt lat="47.4363" lon="6.70628">
        <ele>449</ele>
        <time>2015-04-26T08:23:08.000Z</time>
      </trkpt>
      <trkpt lat="47.43631" lon="6.70622">
        <ele>449</ele>
        <time>2015-04-26T08:23:09.000Z</time>
      </trkpt>
      <trkpt lat="47.43632" lon="6.70616">
        <ele>449</ele>
        <time>2015-04-26T08:23:10.000Z</time>
      </trkpt>
      <trkpt lat="47.43632" lon="6.7061">
        <ele>449</ele>
        <time>2015-04-26T08:23:11.000Z</time>
      </trkpt>
      <trkpt lat="47.43633" lon="6.70604">
        <ele>450</ele>
        <time>2015-04-26T08:23:12.000Z</time>
      </trkpt>
      <trkpt lat="47.43634" lon="6.70598">
        <ele>450</ele>
        <time>2015-04-26T08:23:13.000Z</time>
      </trkpt>
      <trkpt lat="47.43636" lon="6.70591">
        <ele>450</ele>
        <time>2015-04-26T08:23:14.000Z</time>
      </trkpt>
      <trkpt lat="47.43637" lon="6.70586">
        <ele>451</ele>
        <time>2015-04-26T08:23:15.000Z</time>
      </trkpt>
      <trkpt lat="47.43639" lon="6.70581">
        <ele>452</ele>
        <time>2015-04-26T08:23:16.000Z</time>
      </trkpt>
      <trkpt lat="47.4364" lon="6.70577">
        <ele>452</ele>
        <time>2015-04-26T08:23:17.000Z</time>
      </trkpt>
      <trkpt lat="47.43641" lon="6.70572">
        <ele>452</ele>
        <time>2015-04-26T08:23:18.000Z</time>
      </trkpt>
      <trkpt lat="47.43643" lon="6.70567">
        <ele>452</ele>
        <time>2015-04-26T08:23:20.000Z</time>
      </trkpt>
      <trkpt lat="47.43645" lon="6.70564">
        <ele>452</ele>
        <time>2015-04-26T08:23:21.000Z</time>
      </trkpt>
      <trkpt lat="47.43645" lon="6.70557">
        <ele>452</ele>
        <time>2015-04-26T08:23:22.000Z</time>
      </trkpt>
      <trkpt lat="47.43646" lon="6.70551">
        <ele>452</ele>
        <time>2015-04-26T08:23:23.000Z</time>
      </trkpt>
      <trkpt lat="47.43646" lon="6.70547">
        <ele>452</ele>
        <time>2015-04-26T08:23:24.000Z</time>
      </trkpt>
      <trkpt lat="47.43646" lon="6.70542">
        <ele>452</ele>
        <time>2015-04-26T08:23:25.000Z</time>
      </trkpt>
      <trkpt lat="47.43647" lon="6.70538">
        <ele>452</ele>
        <time>2015-04-26T08:23:26.000Z</time>
      </trkpt>
      <trkpt lat="47.43646" lon="6.70532">
        <ele>452</ele>
        <time>2015-04-26T08:23:28.000Z</time>
      </trkpt>
      <trkpt lat="47.43646" lon="6.70529">
        <ele>452</ele>
        <time>2015-04-26T08:23:29.000Z</time>
      </trkpt>
      <trkpt lat="47.43646" lon="6.70526">
        <ele>452</ele>
        <time>2015-04-26T08:23:30.000Z</time>
      </trkpt>
      <trkpt lat="47.43646" lon="6.70521">
        <ele>452</ele>
        <time>2015-04-26T08:23:31.000Z</time>
      </trkpt>
      <trkpt lat="47.43646" lon="6.70515">
        <ele>452</ele>
        <time>2015-04-26T08:23:32.000Z</time>
      </trkpt>
      <trkpt lat="47.43646" lon="6.70509">
        <ele>452</ele>
        <time>2015-04-26T08:23:33.000Z</time>
      </trkpt>
      <trkpt lat="47.43645" lon="6.70502">
        <ele>453</ele>
        <time>2015-04-26T08:23:34.000Z</time>
      </trkpt>
      <trkpt lat="47.43638" lon="6.70482">
        <ele>452</ele>
        <time>2015-04-26T08:23:35.000Z</time>
      </trkpt>
      <trkpt lat="47.43637" lon="6.7047">
        <ele>452</ele>
        <time>2015-04-26T08:23:36.000Z</time>
      </trkpt>
      <trkpt lat="47.43636" lon="6.7046">
        <ele>452</ele>
        <time>2015-04-26T08:23:37.000Z</time>
      </trkpt>
      <trkpt lat="47.43637" lon="6.70452">
        <ele>452</ele>
        <time>2015-04-26T08:23:38.000Z</time>
      </trkpt>
      <trkpt lat="47.43635" lon="6.70445">
        <ele>452</ele>
        <time>2015-04-26T08:23:39.000Z</time>
      </trkpt>
      <trkpt lat="47.43635" lon="6.70438">
        <ele>452</ele>
        <time>2015-04-26T08:23:40.000Z</time>
      </trkpt>
      <trkpt lat="47.43635" lon="6.70432">
        <ele>452</ele>
        <time>2015-04-26T08:23:41.000Z</time>
      </trkpt>
      <trkpt lat="47.43633" lon="6.70424">
        <ele>452</ele>
        <time>2015-04-26T08:23:42.000Z</time>
      </trkpt>
      <trkpt lat="47.43632" lon="6.70417">
        <ele>452</ele>
        <time>2015-04-26T08:23:43.000Z</time>
      </trkpt>
      <trkpt lat="47.43631" lon="6.70407">
        <ele>452</ele>
        <time>2015-04-26T08:23:44.000Z</time>
      </trkpt>
      <trkpt lat="47.4363" lon="6.70395">
        <ele>452</ele>
        <time>2015-04-26T08:23:45.000Z</time>
      </trkpt>
      <trkpt lat="47.43628" lon="6.70384">
        <ele>451</ele>
        <time>2015-04-26T08:23:46.000Z</time>
      </trkpt>
      <trkpt lat="47.43628" lon="6.70376">
        <ele>451</ele>
        <time>2015-04-26T08:23:47.000Z</time>
      </trkpt>
      <trkpt lat="47.43624" lon="6.70365">
        <ele>451</ele>
        <time>2015-04-26T08:23:48.000Z</time>
      </trkpt>
      <trkpt lat="47.43619" lon="6.70355">
        <ele>451</ele>
        <time>2015-04-26T08:23:49.000Z</time>
      </trkpt>
      <trkpt lat="47.43616" lon="6.70346">
        <ele>451</ele>
        <time>2015-04-26T08:23:50.000Z</time>
      </trkpt>
      <trkpt lat="47.43613" lon="6.70337">
        <ele>451</ele>
        <time>2015-04-26T08:23:51.000Z</time>
      </trkpt>
      <trkpt lat="47.4361" lon="6.70329">
        <ele>451</ele>
        <time>2015-04-26T08:23:52.000Z</time>
      </trkpt>
      <trkpt lat="47.43609" lon="6.70323">
        <ele>451</ele>
        <time>2015-04-26T08:23:53.000Z</time>
      </trkpt>
      <trkpt lat="47.43606" lon="6.70317">
        <ele>451</ele>
        <time>2015-04-26T08:23:54.000Z</time>
      </trkpt>
      <trkpt lat="47.43602" lon="6.70311">
        <ele>451</ele>
        <time>2015-04-26T08:23:55.000Z</time>
      </trkpt>
      <trkpt lat="47.43601" lon="6.70306">
        <ele>451</ele>
        <time>2015-04-26T08:23:56.000Z</time>
      </trkpt>
      <trkpt lat="47.436" lon="6.70302">
        <ele>451</ele>
        <time>2015-04-26T08:23:57.000Z</time>
      </trkpt>
      <trkpt lat="47.43598" lon="6.70297">
        <ele>451</ele>
        <time>2015-04-26T08:23:58.000Z</time>
      </trkpt>
      <trkpt lat="47.43593" lon="6.70294">
        <ele>451</ele>
        <time>2015-04-26T08:23:59.000Z</time>
      </trkpt>
      <trkpt lat="47.43591" lon="6.70291">
        <ele>451</ele>
        <time>2015-04-26T08:24:00.000Z</time>
      </trkpt>
      <trkpt lat="47.4359" lon="6.70287">
        <ele>451</ele>
        <time>2015-04-26T08:24:01.000Z</time>
      </trkpt>
      <trkpt lat="47.43589" lon="6.70284">
        <ele>451</ele>
        <time>2015-04-26T08:24:02.000Z</time>
      </trkpt>
      <trkpt lat="47.43588" lon="6.7028">
        <ele>451</ele>
        <time>2015-04-26T08:24:03.000Z</time>
      </trkpt>
      <trkpt lat="47.43587" lon="6.70274">
        <ele>451</ele>
        <time>2015-04-26T08:24:06.000Z</time>
      </trkpt>
      <trkpt lat="47.43587" lon="6.70273">
        <ele>451</ele>
        <time>2015-04-26T08:24:07.000Z</time>
      </trkpt>
      <trkpt lat="47.43584" lon="6.7027">
        <ele>451</ele>
        <time>2015-04-26T08:24:10.000Z</time>
      </trkpt>
      <trkpt lat="47.43583" lon="6.70268">
        <ele>448</ele>
        <time>2015-04-26T08:24:11.000Z</time>
      </trkpt>
      <trkpt lat="47.43579" lon="6.70265">
        <ele>448</ele>
        <time>2015-04-26T08:24:19.000Z</time>
      </trkpt>
      <trkpt lat="47.43579" lon="6.70265">
        <ele>448</ele>
        <time>2015-04-26T08:24:20.000Z</time>
      </trkpt>
      <trkpt lat="47.43574" lon="6.70267">
        <ele>448</ele>
        <time>2015-04-26T08:24:43.000Z</time>
      </trkpt>
      <trkpt lat="47.43574" lon="6.70267">
        <ele>448</ele>
        <time>2015-04-26T08:24:44.000Z</time>
      </trkpt>
      <trkpt lat="47.43573" lon="6.70261">
        <ele>448</ele>
        <time>2015-04-26T08:25:16.000Z</time>
      </trkpt>
      <trkpt lat="47.43572" lon="6.7026">
        <ele>448</ele>
        <time>2015-04-26T08:25:17.000Z</time>
      </trkpt>
      <trkpt lat="47.4357" lon="6.70256">
        <ele>448</ele>
        <time>2015-04-26T08:25:19.000Z</time>
      </trkpt>
      <trkpt lat="47.43569" lon="6.70254">
        <ele>448</ele>
        <time>2015-04-26T08:25:20.000Z</time>
      </trkpt>
      <trkpt lat="47.43567" lon="6.70249">
        <ele>449</ele>
        <time>2015-04-26T08:25:24.000Z</time>
      </trkpt>
      <trkpt lat="47.43566" lon="6.70248">
        <ele>449</ele>
        <time>2015-04-26T08:25:25.000Z</time>
      </trkpt>
      <trkpt lat="47.43564" lon="6.70243">
        <ele>449</ele>
        <time>2015-04-26T08:25:31.000Z</time>
      </trkpt>
      <trkpt lat="47.43563" lon="6.70241">
        <ele>449</ele>
        <time>2015-04-26T08:25:32.000Z</time>
      </trkpt>
      <trkpt lat="47.43559" lon="6.70239">
        <ele>448</ele>
        <time>2015-04-26T08:25:36.000Z</time>
      </trkpt>
      <trkpt lat="47.43558" lon="6.70238">
        <ele>448</ele>
        <time>2015-04-26T08:25:37.000Z</time>
      </trkpt>
      <trkpt lat="47.43555" lon="6.70234">
        <ele>448</ele>
        <time>2015-04-26T08:25:41.000Z</time>
      </trkpt>
      <trkpt lat="47.43554" lon="6.70233">
        <ele>448</ele>
        <time>2015-04-26T08:25:42.000Z</time>
      </trkpt>
      <trkpt lat="47.43553" lon="6.70227">
        <ele>448</ele>
        <time>2015-04-26T08:25:51.000Z</time>
      </trkpt>
      <trkpt lat="47.43552" lon="6.70227">
        <ele>448</ele>
        <time>2015-04-26T08:25:52.000Z</time>
      </trkpt>
      <trkpt lat="47.43553" lon="6.70233">
        <ele>448</ele>
        <time>2015-04-26T08:26:02.000Z</time>
      </trkpt>
      <trkpt lat="47.43553" lon="6.70234">
        <ele>448</ele>
        <time>2015-04-26T08:26:03.000Z</time>
      </trkpt>
      <trkpt lat="47.4355" lon="6.70237">
        <ele>448</ele>
        <time>2015-04-26T08:26:18.000Z</time>
      </trkpt>
      <trkpt lat="47.43549" lon="6.70236">
        <ele>448</ele>
        <time>2015-04-26T08:26:19.000Z</time>
      </trkpt>
      <trkpt lat="47.43546" lon="6.70234">
        <ele>447</ele>
        <time>2015-04-26T08:26:21.000Z</time>
      </trkpt>
      <trkpt lat="47.43545" lon="6.70232">
        <ele>447</ele>
        <time>2015-04-26T08:26:22.000Z</time>
      </trkpt>
      <trkpt lat="47.43543" lon="6.70226">
        <ele>447</ele>
        <time>2015-04-26T08:26:25.000Z</time>
      </trkpt>
      <trkpt lat="47.43543" lon="6.70224">
        <ele>447</ele>
        <time>2015-04-26T08:26:26.000Z</time>
      </trkpt>
      <trkpt lat="47.43541" lon="6.7022">
        <ele>447</ele>
        <time>2015-04-26T08:26:28.000Z</time>
      </trkpt>
      <trkpt lat="47.43539" lon="6.70217">
        <ele>447</ele>
        <time>2015-04-26T08:26:29.000Z</time>
      </trkpt>
      <trkpt lat="47.43537" lon="6.70214">
        <ele>447</ele>
        <time>2015-04-26T08:26:31.000Z</time>
      </trkpt>
      <trkpt lat="47.43536" lon="6.70212">
        <ele>447</ele>
        <time>2015-04-26T08:26:32.000Z</time>
      </trkpt>
      <trkpt lat="47.43533" lon="6.70208">
        <ele>447</ele>
        <time>2015-04-26T08:26:35.000Z</time>
      </trkpt>
      <trkpt lat="47.43532" lon="6.70207">
        <ele>447</ele>
        <time>2015-04-26T08:26:36.000Z</time>
      </trkpt>
      <trkpt lat="47.4353" lon="6.70203">
        <ele>447</ele>
        <time>2015-04-26T08:26:39.000Z</time>
      </trkpt>
      <trkpt lat="47.43529" lon="6.70201">
        <ele>447</ele>
        <time>2015-04-26T08:26:40.000Z</time>
      </trkpt>
      <trkpt lat="47.43526" lon="6.70197">
        <ele>447</ele>
        <time>2015-04-26T08:26:42.000Z</time>
      </trkpt>
      <trkpt lat="47.43525" lon="6.70196">
        <ele>447</ele>
        <time>2015-04-26T08:26:43.000Z</time>
      </trkpt>
      <trkpt lat="47.43522" lon="6.70194">
        <ele>447</ele>
        <time>2015-04-26T08:26:46.000Z</time>
      </trkpt>
      <trkpt lat="47.43521" lon="6.70194">
        <ele>447</ele>
        <time>2015-04-26T08:26:47.000Z</time>
      </trkpt>
      <trkpt lat="47.43516" lon="6.70193">
        <ele>447</ele>
        <time>2015-04-26T08:27:23.999Z</time>
      </trkpt>
      <trkpt lat="47.43516" lon="6.70193">
        <ele>447</ele>
        <time>2015-04-26T08:27:25.000Z</time>
      </trkpt>
      <trkpt lat="47.43519" lon="6.70196">
        <ele>447</ele>
        <time>2015-04-26T08:27:40.999Z</time>
      </trkpt>
      <trkpt lat="47.4352" lon="6.70197">
        <ele>447</ele>
        <time>2015-04-26T08:27:42.001Z</time>
      </trkpt>
      <trkpt lat="47.43523" lon="6.702">
        <ele>447</ele>
        <time>2015-04-26T08:27:44.001Z</time>
      </trkpt>
      <trkpt lat="47.43524" lon="6.70202">
        <ele>447</ele>
        <time>2015-04-26T08:27:45.000Z</time>
      </trkpt>
      <trkpt lat="47.43525" lon="6.70206">
        <ele>447</ele>
        <time>2015-04-26T08:27:47.000Z</time>
      </trkpt>
      <trkpt lat="47.43526" lon="6.70208">
        <ele>447</ele>
        <time>2015-04-26T08:27:48.000Z</time>
      </trkpt>
      <trkpt lat="47.43527" lon="6.70212">
        <ele>447</ele>
        <time>2015-04-26T08:27:50.000Z</time>
      </trkpt>
      <trkpt lat="47.43528" lon="6.70214">
        <ele>447</ele>
        <time>2015-04-26T08:27:51.000Z</time>
      </trkpt>
      <trkpt lat="47.43531" lon="6.70218">
        <ele>447</ele>
        <time>2015-04-26T08:27:54.000Z</time>
      </trkpt>
      <trkpt lat="47.43531" lon="6.7022">
        <ele>447</ele>
        <time>2015-04-26T08:27:55.000Z</time>
      </trkpt>
      <trkpt lat="47.43533" lon="6.70224">
        <ele>447</ele>
        <time>2015-04-26T08:27:57.000Z</time>
      </trkpt>
      <trkpt lat="47.43534" lon="6.70227">
        <ele>447</ele>
        <time>2015-04-26T08:27:58.000Z</time>
      </trkpt>
      <trkpt lat="47.43536" lon="6.70229">
        <ele>447</ele>
        <time>2015-04-26T08:27:59.000Z</time>
      </trkpt>
      <trkpt lat="47.43537" lon="6.70232">
        <ele>447</ele>
        <time>2015-04-26T08:28:00.000Z</time>
      </trkpt>
      <trkpt lat="47.43539" lon="6.70235">
        <ele>447</ele>
        <time>2015-04-26T08:28:01.000Z</time>
      </trkpt>
      <trkpt lat="47.43541" lon="6.70238">
        <ele>447</ele>
        <time>2015-04-26T08:28:02.000Z</time>
      </trkpt>
      <trkpt lat="47.43543" lon="6.70241">
        <ele>447</ele>
        <time>2015-04-26T08:28:03.000Z</time>
      </trkpt>
      <trkpt lat="47.43545" lon="6.70244">
        <ele>447</ele>
        <time>2015-04-26T08:28:04.000Z</time>
      </trkpt>
      <trkpt lat="47.43548" lon="6.70247">
        <ele>448</ele>
        <time>2015-04-26T08:28:05.000Z</time>
      </trkpt>
      <trkpt lat="47.43551" lon="6.70249">
        <ele>448</ele>
        <time>2015-04-26T08:28:06.000Z</time>
      </trkpt>
      <trkpt lat="47.43554" lon="6.70251">
        <ele>447</ele>
        <time>2015-04-26T08:28:07.000Z</time>
      </trkpt>
      <trkpt lat="47.43556" lon="6.70254">
        <ele>447</ele>
        <time>2015-04-26T08:28:08.000Z</time>
      </trkpt>
      <trkpt lat="47.43559" lon="6.70256">
        <ele>447</ele>
        <time>2015-04-26T08:28:09.000Z</time>
      </trkpt>
      <trkpt lat="47.43561" lon="6.7026">
        <ele>447</ele>
        <time>2015-04-26T08:28:10.000Z</time>
      </trkpt>
      <trkpt lat="47.43563" lon="6.70263">
        <ele>447</ele>
        <time>2015-04-26T08:28:11.000Z</time>
      </trkpt>
      <trkpt lat="47.43565" lon="6.70267">
        <ele>447</ele>
        <time>2015-04-26T08:28:12.000Z</time>
      </trkpt>
      <trkpt lat="47.43567" lon="6.7027">
        <ele>447</ele>
        <time>2015-04-26T08:28:13.000Z</time>
      </trkpt>
      <trkpt lat="47.43569" lon="6.70273">
        <ele>447</ele>
        <time>2015-04-26T08:28:14.000Z</time>
      </trkpt>
      <trkpt lat="47.43572" lon="6.70277">
        <ele>447</ele>
        <time>2015-04-26T08:28:16.000Z</time>
      </trkpt>
      <trkpt lat="47.43574" lon="6.70278">
        <ele>447</ele>
        <time>2015-04-26T08:28:17.000Z</time>
      </trkpt>
      <trkpt lat="47.43577" lon="6.70274">
        <ele>447</ele>
        <time>2015-04-26T08:28:28.000Z</time>
      </trkpt>
      <trkpt lat="47.43577" lon="6.70274">
        <ele>447</ele>
        <time>2015-04-26T08:28:29.000Z</time>
      </trkpt>
      <trkpt lat="47.43581" lon="6.7027">
        <ele>448</ele>
        <time>2015-04-26T08:28:37.000Z</time>
      </trkpt>
      <trkpt lat="47.43581" lon="6.70269">
        <ele>448</ele>
        <time>2015-04-26T08:28:38.000Z</time>
      </trkpt>
      <trkpt lat="47.43579" lon="6.70274">
        <ele>448</ele>
        <time>2015-04-26T08:28:55.000Z</time>
      </trkpt>
      <trkpt lat="47.43578" lon="6.70275">
        <ele>447</ele>
        <time>2015-04-26T08:28:56.000Z</time>
      </trkpt>
      <trkpt lat="47.43577" lon="6.70281">
        <ele>447</ele>
        <time>2015-04-26T08:28:59.000Z</time>
      </trkpt>
      <trkpt lat="47.43578" lon="6.70284">
        <ele>447</ele>
        <time>2015-04-26T08:29:00.000Z</time>
      </trkpt>
      <trkpt lat="47.43579" lon="6.70288">
        <ele>447</ele>
        <time>2015-04-26T08:29:01.000Z</time>
      </trkpt>
      <trkpt lat="47.43581" lon="6.70292">
        <ele>447</ele>
        <time>2015-04-26T08:29:02.000Z</time>
      </trkpt>
      <trkpt lat="47.43583" lon="6.70296">
        <ele>451</ele>
        <time>2015-04-26T08:29:03.000Z</time>
      </trkpt>
      <trkpt lat="47.43586" lon="6.703">
        <ele>451</ele>
        <time>2015-04-26T08:29:04.000Z</time>
      </trkpt>
      <trkpt lat="47.43588" lon="6.70304">
        <ele>451</ele>
        <time>2015-04-26T08:29:05.000Z</time>
      </trkpt>
      <trkpt lat="47.43591" lon="6.70308">
        <ele>450</ele>
        <time>2015-04-26T08:29:06.000Z</time>
      </trkpt>
      <trkpt lat="47.43593" lon="6.7031">
        <ele>450</ele>
        <time>2015-04-26T08:29:07.000Z</time>
      </trkpt>
      <trkpt lat="47.43595" lon="6.70312">
        <ele>450</ele>
        <time>2015-04-26T08:29:08.000Z</time>
      </trkpt>
      <trkpt lat="47.43598" lon="6.70314">
        <ele>450</ele>
        <time>2015-04-26T08:29:09.000Z</time>
      </trkpt>
      <trkpt lat="47.43599" lon="6.70315">
        <ele>450</ele>
        <time>2015-04-26T08:29:10.000Z</time>
      </trkpt>
      <trkpt lat="47.43603" lon="6.70318">
        <ele>450</ele>
        <time>2015-04-26T08:29:12.000Z</time>
      </trkpt>
      <trkpt lat="47.43605" lon="6.70318">
        <ele>451</ele>
        <time>2015-04-26T08:29:13.000Z</time>
      </trkpt>
      <trkpt lat="47.43608" lon="6.70318">
        <ele>451</ele>
        <time>2015-04-26T08:29:14.000Z</time>
      </trkpt>
      <trkpt lat="47.4361" lon="6.70317">
        <ele>451</ele>
        <time>2015-04-26T08:29:15.000Z</time>
      </trkpt>
      <trkpt lat="47.43613" lon="6.70314">
        <ele>451</ele>
        <time>2015-04-26T08:29:17.000Z</time>
      </trkpt>
      <trkpt lat="47.43615" lon="6.70314">
        <ele>451</ele>
        <time>2015-04-26T08:29:18.000Z</time>
      </trkpt>
      <trkpt lat="47.43619" lon="6.70314">
        <ele>451</ele>
        <time>2015-04-26T08:29:20.000Z</time>
      </trkpt>
      <trkpt lat="47.43622" lon="6.70314">
        <ele>451</ele>
        <time>2015-04-26T08:29:21.000Z</time>
      </trkpt>
      <trkpt lat="47.43624" lon="6.70314">
        <ele>451</ele>
        <time>2015-04-26T08:29:22.000Z</time>
      </trkpt>
      <trkpt lat="47.43627" lon="6.70314">
        <ele>451</ele>
        <time>2015-04-26T08:29:23.000Z</time>
      </trkpt>
      <trkpt lat="47.4363" lon="6.70314">
        <ele>451</ele>
        <time>2015-04-26T08:29:25.000Z</time>
      </trkpt>
      <trkpt lat="47.43633" lon="6.70314">
        <ele>451</ele>
        <time>2015-04-26T08:29:26.000Z</time>
      </trkpt>
      <trkpt lat="47.43635" lon="6.70315">
        <ele>451</ele>
        <time>2015-04-26T08:29:27.000Z</time>
      </trkpt>
      <trkpt lat="47.43637" lon="6.70315">
        <ele>451</ele>
        <time>2015-04-26T08:29:28.000Z</time>
      </trkpt>
      <trkpt lat="47.4364" lon="6.70316">
        <ele>451</ele>
        <time>2015-04-26T08:29:29.000Z</time>
      </trkpt>
      <trkpt lat="47.43642" lon="6.70318">
        <ele>451</ele>
        <time>2015-04-26T08:29:30.000Z</time>
      </trkpt>
      <trkpt lat="47.43645" lon="6.70322">
        <ele>451</ele>
        <time>2015-04-26T08:29:32.000Z</time>
      </trkpt>
      <trkpt lat="47.43646" lon="6.70324">
        <ele>451</ele>
        <time>2015-04-26T08:29:33.000Z</time>
      </trkpt>
      <trkpt lat="47.4365" lon="6.70326">
        <ele>452</ele>
        <time>2015-04-26T08:29:35.000Z</time>
      </trkpt>
      <trkpt lat="47.43653" lon="6.70327">
        <ele>452</ele>
        <time>2015-04-26T08:29:36.000Z</time>
      </trkpt>
      <trkpt lat="47.43657" lon="6.70327">
        <ele>452</ele>
        <time>2015-04-26T08:29:38.000Z</time>
      </trkpt>
      <trkpt lat="47.43659" lon="6.70328">
        <ele>452</ele>
        <time>2015-04-26T08:29:39.000Z</time>
      </trkpt>
      <trkpt lat="47.43663" lon="6.70328">
        <ele>452</ele>
        <time>2015-04-26T08:29:41.000Z</time>
      </trkpt>
      <trkpt lat="47.43665" lon="6.70328">
        <ele>452</ele>
        <time>2015-04-26T08:29:42.000Z</time>
      </trkpt>
      <trkpt lat="47.43667" lon="6.70329">
        <ele>452</ele>
        <time>2015-04-26T08:29:43.000Z</time>
      </trkpt>
      <trkpt lat="47.4367" lon="6.7033">
        <ele>452</ele>
        <time>2015-04-26T08:29:44.000Z</time>
      </trkpt>
      <trkpt lat="47.43674" lon="6.70332">
        <ele>452</ele>
        <time>2015-04-26T08:29:46.000Z</time>
      </trkpt>
      <trkpt lat="47.43676" lon="6.70333">
        <ele>452</ele>
        <time>2015-04-26T08:29:47.000Z</time>
      </trkpt>
      <trkpt lat="47.43679" lon="6.70335">
        <ele>453</ele>
        <time>2015-04-26T08:29:49.000Z</time>
      </trkpt>
      <trkpt lat="47.43681" lon="6.70336">
        <ele>453</ele>
        <time>2015-04-26T08:29:50.000Z</time>
      </trkpt>
      <trkpt lat="47.43684" lon="6.70338">
        <ele>453</ele>
        <time>2015-04-26T08:29:52.000Z</time>
      </trkpt>
      <trkpt lat="47.43686" lon="6.70339">
        <ele>453</ele>
        <time>2015-04-26T08:29:53.000Z</time>
      </trkpt>
      <trkpt lat="47.4369" lon="6.70339">
        <ele>453</ele>
        <time>2015-04-26T08:29:55.000Z</time>
      </trkpt>
      <trkpt lat="47.43692" lon="6.70339">
        <ele>453</ele>
        <time>2015-04-26T08:29:56.000Z</time>
      </trkpt>
      <trkpt lat="47.43695" lon="6.70342">
        <ele>453</ele>
        <time>2015-04-26T08:29:58.000Z</time>
      </trkpt>
      <trkpt lat="47.43697" lon="6.70344">
        <ele>453</ele>
        <time>2015-04-26T08:29:59.000Z</time>
      </trkpt>
      <trkpt lat="47.437" lon="6.70345">
        <ele>453</ele>
        <time>2015-04-26T08:30:00.000Z</time>
      </trkpt>
      <trkpt lat="47.43702" lon="6.70346">
        <ele>453</ele>
        <time>2015-04-26T08:30:01.000Z</time>
      </trkpt>
      <trkpt lat="47.43705" lon="6.70345">
        <ele>453</ele>
        <time>2015-04-26T08:30:03.000Z</time>
      </trkpt>
      <trkpt lat="47.43707" lon="6.70346">
        <ele>453</ele>
        <time>2015-04-26T08:30:04.000Z</time>
      </trkpt>
      <trkpt lat="47.4371" lon="6.70349">
        <ele>453</ele>
        <time>2015-04-26T08:30:06.000Z</time>
      </trkpt>
      <trkpt lat="47.43711" lon="6.7035">
        <ele>453</ele>
        <time>2015-04-26T08:30:07.000Z</time>
      </trkpt>
      <trkpt lat="47.43715" lon="6.70352">
        <ele>453</ele>
        <time>2015-04-26T08:30:09.000Z</time>
      </trkpt>
      <trkpt lat="47.43716" lon="6.70353">
        <ele>453</ele>
        <time>2015-04-26T08:30:10.000Z</time>
      </trkpt>
      <trkpt lat="47.4372" lon="6.70353">
        <ele>453</ele>
        <time>2015-04-26T08:30:13.000Z</time>
      </trkpt>
      <trkpt lat="47.43722" lon="6.70354">
        <ele>453</ele>
        <time>2015-04-26T08:30:14.000Z</time>
      </trkpt>
      <trkpt lat="47.43725" lon="6.70355">
        <ele>453</ele>
        <time>2015-04-26T08:30:15.000Z</time>
      </trkpt>
      <trkpt lat="47.43727" lon="6.70355">
        <ele>453</ele>
        <time>2015-04-26T08:30:16.000Z</time>
      </trkpt>
      <trkpt lat="47.4373" lon="6.70356">
        <ele>453</ele>
        <time>2015-04-26T08:30:17.000Z</time>
      </trkpt>
      <trkpt lat="47.43732" lon="6.70356">
        <ele>453</ele>
        <time>2015-04-26T08:30:18.000Z</time>
      </trkpt>
      <trkpt lat="47.43736" lon="6.70356">
        <ele>453</ele>
        <time>2015-04-26T08:30:21.000Z</time>
      </trkpt>
      <trkpt lat="47.43738" lon="6.70357">
        <ele>453</ele>
        <time>2015-04-26T08:30:22.000Z</time>
      </trkpt>
      <trkpt lat="47.43741" lon="6.70357">
        <ele>453</ele>
        <time>2015-04-26T08:30:24.000Z</time>
      </trkpt>
      <trkpt lat="47.43743" lon="6.70358">
        <ele>453</ele>
        <time>2015-04-26T08:30:25.000Z</time>
      </trkpt>
      <trkpt lat="47.43746" lon="6.70359">
        <ele>453</ele>
        <time>2015-04-26T08:30:26.000Z</time>
      </trkpt>
      <trkpt lat="47.43749" lon="6.70362">
        <ele>453</ele>
        <time>2015-04-26T08:30:27.000Z</time>
      </trkpt>
      <trkpt lat="47.43752" lon="6.70364">
        <ele>451</ele>
        <time>2015-04-26T08:30:28.000Z</time>
      </trkpt>
      <trkpt lat="47.43755" lon="6.70366">
        <ele>450</ele>
        <time>2015-04-26T08:30:29.000Z</time>
      </trkpt>
      <trkpt lat="47.43757" lon="6.70368">
        <ele>450</ele>
        <time>2015-04-26T08:30:30.000Z</time>
      </trkpt>
      <trkpt lat="47.4376" lon="6.70369">
        <ele>450</ele>
        <time>2015-04-26T08:30:31.000Z</time>
      </trkpt>
      <trkpt lat="47.43763" lon="6.70372">
        <ele>450</ele>
        <time>2015-04-26T08:30:33.000Z</time>
      </trkpt>
      <trkpt lat="47.43765" lon="6.70373">
        <ele>450</ele>
        <time>2015-04-26T08:30:34.000Z</time>
      </trkpt>
      <trkpt lat="47.43767" lon="6.70373">
        <ele>450</ele>
        <time>2015-04-26T08:30:35.000Z</time>
      </trkpt>
      <trkpt lat="47.43769" lon="6.70372">
        <ele>450</ele>
        <time>2015-04-26T08:30:36.000Z</time>
      </trkpt>
      <trkpt lat="47.43772" lon="6.70371">
        <ele>450</ele>
        <time>2015-04-26T08:30:37.000Z</time>
      </trkpt>
      <trkpt lat="47.43774" lon="6.7037">
        <ele>450</ele>
        <time>2015-04-26T08:30:38.000Z</time>
      </trkpt>
      <trkpt lat="47.43777" lon="6.70368">
        <ele>450</ele>
        <time>2015-04-26T08:30:39.000Z</time>
      </trkpt>
      <trkpt lat="47.43779" lon="6.70367">
        <ele>449</ele>
        <time>2015-04-26T08:30:40.000Z</time>
      </trkpt>
      <trkpt lat="47.43782" lon="6.70365">
        <ele>449</ele>
        <time>2015-04-26T08:30:42.000Z</time>
      </trkpt>
      <trkpt lat="47.43784" lon="6.70364">
        <ele>449</ele>
        <time>2015-04-26T08:30:43.000Z</time>
      </trkpt>
      <trkpt lat="47.43787" lon="6.70361">
        <ele>449</ele>
        <time>2015-04-26T08:30:45.000Z</time>
      </trkpt>
      <trkpt lat="47.43789" lon="6.7036">
        <ele>449</ele>
        <time>2015-04-26T08:30:46.000Z</time>
      </trkpt>
      <trkpt lat="47.43792" lon="6.70358">
        <ele>449</ele>
        <time>2015-04-26T08:30:48.000Z</time>
      </trkpt>
      <trkpt lat="47.43794" lon="6.70357">
        <ele>449</ele>
        <time>2015-04-26T08:30:49.000Z</time>
      </trkpt>
      <trkpt lat="47.43798" lon="6.70354">
        <ele>448</ele>
        <time>2015-04-26T08:30:52.000Z</time>
      </trkpt>
      <trkpt lat="47.43799" lon="6.70354">
        <ele>448</ele>
        <time>2015-04-26T08:30:53.000Z</time>
      </trkpt>
      <trkpt lat="47.43801" lon="6.70352">
        <ele>448</ele>
        <time>2015-04-26T08:30:54.000Z</time>
      </trkpt>
      <trkpt lat="47.43804" lon="6.7035">
        <ele>448</ele>
        <time>2015-04-26T08:30:55.000Z</time>
      </trkpt>
      <trkpt lat="47.43806" lon="6.70346">
        <ele>448</ele>
        <time>2015-04-26T08:30:56.000Z</time>
      </trkpt>
      <trkpt lat="47.43809" lon="6.70343">
        <ele>447</ele>
        <time>2015-04-26T08:30:57.000Z</time>
      </trkpt>
      <trkpt lat="47.43812" lon="6.7034">
        <ele>447</ele>
        <time>2015-04-26T08:30:58.000Z</time>
      </trkpt>
      <trkpt lat="47.43815" lon="6.70336">
        <ele>447</ele>
        <time>2015-04-26T08:30:59.000Z</time>
      </trkpt>
      <trkpt lat="47.43818" lon="6.70333">
        <ele>447</ele>
        <time>2015-04-26T08:31:00.000Z</time>
      </trkpt>
      <trkpt lat="47.43821" lon="6.70329">
        <ele>447</ele>
        <time>2015-04-26T08:31:01.000Z</time>
      </trkpt>
      <trkpt lat="47.43824" lon="6.70325">
        <ele>447</ele>
        <time>2015-04-26T08:31:02.000Z</time>
      </trkpt>
      <trkpt lat="47.43826" lon="6.70321">
        <ele>447</ele>
        <time>2015-04-26T08:31:03.000Z</time>
      </trkpt>
      <trkpt lat="47.43827" lon="6.70317">
        <ele>447</ele>
        <time>2015-04-26T08:31:04.000Z</time>
      </trkpt>
      <trkpt lat="47.43829" lon="6.70315">
        <ele>447</ele>
        <time>2015-04-26T08:31:05.000Z</time>
      </trkpt>
      <trkpt lat="47.43831" lon="6.7031">
        <ele>448</ele>
        <time>2015-04-26T08:31:07.000Z</time>
      </trkpt>
      <trkpt lat="47.43833" lon="6.70307">
        <ele>448</ele>
        <time>2015-04-26T08:31:08.000Z</time>
      </trkpt>
      <trkpt lat="47.43836" lon="6.70304">
        <ele>446</ele>
        <time>2015-04-26T08:31:10.000Z</time>
      </trkpt>
      <trkpt lat="47.43838" lon="6.70302">
        <ele>446</ele>
        <time>2015-04-26T08:31:11.000Z</time>
      </trkpt>
      <trkpt lat="47.4384" lon="6.703">
        <ele>446</ele>
        <time>2015-04-26T08:31:12.000Z</time>
      </trkpt>
      <trkpt lat="47.43842" lon="6.70297">
        <ele>446</ele>
        <time>2015-04-26T08:31:13.000Z</time>
      </trkpt>
      <trkpt lat="47.43844" lon="6.70293">
        <ele>446</ele>
        <time>2015-04-26T08:31:14.000Z</time>
      </trkpt>
      <trkpt lat="47.43846" lon="6.70289">
        <ele>446</ele>
        <time>2015-04-26T08:31:15.000Z</time>
      </trkpt>
      <trkpt lat="47.43848" lon="6.70285">
        <ele>446</ele>
        <time>2015-04-26T08:31:16.000Z</time>
      </trkpt>
      <trkpt lat="47.4385" lon="6.70283">
        <ele>446</ele>
        <time>2015-04-26T08:31:17.000Z</time>
      </trkpt>
      <trkpt lat="47.43852" lon="6.7028">
        <ele>446</ele>
        <time>2015-04-26T08:31:18.000Z</time>
      </trkpt>
      <trkpt lat="47.43853" lon="6.70278">
        <ele>446</ele>
        <time>2015-04-26T08:31:19.000Z</time>
      </trkpt>
      <trkpt lat="47.43855" lon="6.70276">
        <ele>446</ele>
        <time>2015-04-26T08:31:20.000Z</time>
      </trkpt>
      <trkpt lat="47.43857" lon="6.70274">
        <ele>446</ele>
        <time>2015-04-26T08:31:21.000Z</time>
      </trkpt>
      <trkpt lat="47.43861" lon="6.70271">
        <ele>446</ele>
        <time>2015-04-26T08:31:24.000Z</time>
      </trkpt>
      <trkpt lat="47.43861" lon="6.7027">
        <ele>446</ele>
        <time>2015-04-26T08:31:25.000Z</time>
      </trkpt>
      <trkpt lat="47.43863" lon="6.70267">
        <ele>446</ele>
        <time>2015-04-26T08:31:27.000Z</time>
      </trkpt>
      <trkpt lat="47.43865" lon="6.70266">
        <ele>446</ele>
        <time>2015-04-26T08:31:28.000Z</time>
      </trkpt>
      <trkpt lat="47.43867" lon="6.70265">
        <ele>446</ele>
        <time>2015-04-26T08:31:29.000Z</time>
      </trkpt>
      <trkpt lat="47.4387" lon="6.70263">
        <ele>446</ele>
        <time>2015-04-26T08:31:30.000Z</time>
      </trkpt>
      <trkpt lat="47.43873" lon="6.70261">
        <ele>446</ele>
        <time>2015-04-26T08:31:31.000Z</time>
      </trkpt>
      <trkpt lat="47.43875" lon="6.70257">
        <ele>446</ele>
        <time>2015-04-26T08:31:32.000Z</time>
      </trkpt>
      <trkpt lat="47.43877" lon="6.70253">
        <ele>446</ele>
        <time>2015-04-26T08:31:33.000Z</time>
      </trkpt>
      <trkpt lat="47.43878" lon="6.70248">
        <ele>447</ele>
        <time>2015-04-26T08:31:34.000Z</time>
      </trkpt>
      <trkpt lat="47.43879" lon="6.70243">
        <ele>447</ele>
        <time>2015-04-26T08:31:35.000Z</time>
      </trkpt>
      <trkpt lat="47.4388" lon="6.70239">
        <ele>447</ele>
        <time>2015-04-26T08:31:36.000Z</time>
      </trkpt>
      <trkpt lat="47.43881" lon="6.70234">
        <ele>447</ele>
        <time>2015-04-26T08:31:37.000Z</time>
      </trkpt>
      <trkpt lat="47.43882" lon="6.70229">
        <ele>447</ele>
        <time>2015-04-26T08:31:38.000Z</time>
      </trkpt>
      <trkpt lat="47.43883" lon="6.70225">
        <ele>447</ele>
        <time>2015-04-26T08:31:39.000Z</time>
      </trkpt>
      <trkpt lat="47.43885" lon="6.7022">
        <ele>448</ele>
        <time>2015-04-26T08:31:40.000Z</time>
      </trkpt>
      <trkpt lat="47.43886" lon="6.70216">
        <ele>448</ele>
        <time>2015-04-26T08:31:41.000Z</time>
      </trkpt>
      <trkpt lat="47.43887" lon="6.70212">
        <ele>448</ele>
        <time>2015-04-26T08:31:42.000Z</time>
      </trkpt>
      <trkpt lat="47.43889" lon="6.70207">
        <ele>448</ele>
        <time>2015-04-26T08:31:43.000Z</time>
      </trkpt>
      <trkpt lat="47.43891" lon="6.70203">
        <ele>448</ele>
        <time>2015-04-26T08:31:44.000Z</time>
      </trkpt>
      <trkpt lat="47.43893" lon="6.70199">
        <ele>448</ele>
        <time>2015-04-26T08:31:45.000Z</time>
      </trkpt>
      <trkpt lat="47.43896" lon="6.70196">
        <ele>448</ele>
        <time>2015-04-26T08:31:46.000Z</time>
      </trkpt>
      <trkpt lat="47.43898" lon="6.70193">
        <ele>448</ele>
        <time>2015-04-26T08:31:47.000Z</time>
      </trkpt>
      <trkpt lat="47.43901" lon="6.70191">
        <ele>448</ele>
        <time>2015-04-26T08:31:48.000Z</time>
      </trkpt>
      <trkpt lat="47.43904" lon="6.70188">
        <ele>448</ele>
        <time>2015-04-26T08:31:49.000Z</time>
      </trkpt>
      <trkpt lat="47.43906" lon="6.70187">
        <ele>448</ele>
        <time>2015-04-26T08:31:50.000Z</time>
      </trkpt>
      <trkpt lat="47.4391" lon="6.70185">
        <ele>448</ele>
        <time>2015-04-26T08:31:52.000Z</time>
      </trkpt>
      <trkpt lat="47.43912" lon="6.70184">
        <ele>448</ele>
        <time>2015-04-26T08:31:53.000Z</time>
      </trkpt>
      <trkpt lat="47.43916" lon="6.70183">
        <ele>448</ele>
        <time>2015-04-26T08:31:55.000Z</time>
      </trkpt>
      <trkpt lat="47.43918" lon="6.70182">
        <ele>447</ele>
        <time>2015-04-26T08:31:56.000Z</time>
      </trkpt>
      <trkpt lat="47.43923" lon="6.7018">
        <ele>447</ele>
        <time>2015-04-26T08:31:58.000Z</time>
      </trkpt>
      <trkpt lat="47.43925" lon="6.7018">
        <ele>447</ele>
        <time>2015-04-26T08:31:59.000Z</time>
      </trkpt>
      <trkpt lat="47.43929" lon="6.7018">
        <ele>447</ele>
        <time>2015-04-26T08:32:01.000Z</time>
      </trkpt>
      <trkpt lat="47.43931" lon="6.70179">
        <ele>447</ele>
        <time>2015-04-26T08:32:02.000Z</time>
      </trkpt>
      <trkpt lat="47.43933" lon="6.70178">
        <ele>447</ele>
        <time>2015-04-26T08:32:03.000Z</time>
      </trkpt>
      <trkpt lat="47.43935" lon="6.70177">
        <ele>447</ele>
        <time>2015-04-26T08:32:04.000Z</time>
      </trkpt>
      <trkpt lat="47.43938" lon="6.70176">
        <ele>447</ele>
        <time>2015-04-26T08:32:05.000Z</time>
      </trkpt>
      <trkpt lat="47.4394" lon="6.70175">
        <ele>447</ele>
        <time>2015-04-26T08:32:06.000Z</time>
      </trkpt>
      <trkpt lat="47.43943" lon="6.70175">
        <ele>448</ele>
        <time>2015-04-26T08:32:07.000Z</time>
      </trkpt>
      <trkpt lat="47.43946" lon="6.70175">
        <ele>448</ele>
        <time>2015-04-26T08:32:08.000Z</time>
      </trkpt>
      <trkpt lat="47.4395" lon="6.70175">
        <ele>448</ele>
        <time>2015-04-26T08:32:12.000Z</time>
      </trkpt>
      <trkpt lat="47.43951" lon="6.70175">
        <ele>448</ele>
        <time>2015-04-26T08:32:13.000Z</time>
      </trkpt>
      <trkpt lat="47.43954" lon="6.70175">
        <ele>448</ele>
        <time>2015-04-26T08:32:15.000Z</time>
      </trkpt>
      <trkpt lat="47.43956" lon="6.70177">
        <ele>448</ele>
        <time>2015-04-26T08:32:16.000Z</time>
      </trkpt>
      <trkpt lat="47.43959" lon="6.7018">
        <ele>448</ele>
        <time>2015-04-26T08:32:18.000Z</time>
      </trkpt>
      <trkpt lat="47.4396" lon="6.70182">
        <ele>448</ele>
        <time>2015-04-26T08:32:19.000Z</time>
      </trkpt>
      <trkpt lat="47.43963" lon="6.70186">
        <ele>448</ele>
        <time>2015-04-26T08:32:22.000Z</time>
      </trkpt>
      <trkpt lat="47.43964" lon="6.70187">
        <ele>448</ele>
        <time>2015-04-26T08:32:23.000Z</time>
      </trkpt>
      <trkpt lat="47.43968" lon="6.70187">
        <ele>448</ele>
        <time>2015-04-26T08:32:25.000Z</time>
      </trkpt>
      <trkpt lat="47.43971" lon="6.70189">
        <ele>448</ele>
        <time>2015-04-26T08:32:26.000Z</time>
      </trkpt>
      <trkpt lat="47.43973" lon="6.7019">
        <ele>448</ele>
        <time>2015-04-26T08:32:27.000Z</time>
      </trkpt>
      <trkpt lat="47.43976" lon="6.70192">
        <ele>448</ele>
        <time>2015-04-26T08:32:28.000Z</time>
      </trkpt>
      <trkpt lat="47.43978" lon="6.70194">
        <ele>448</ele>
        <time>2015-04-26T08:32:29.000Z</time>
      </trkpt>
      <trkpt lat="47.43981" lon="6.70197">
        <ele>448</ele>
        <time>2015-04-26T08:32:30.000Z</time>
      </trkpt>
      <trkpt lat="47.43983" lon="6.70199">
        <ele>448</ele>
        <time>2015-04-26T08:32:31.000Z</time>
      </trkpt>
      <trkpt lat="47.43986" lon="6.702">
        <ele>449</ele>
        <time>2015-04-26T08:32:32.000Z</time>
      </trkpt>
      <trkpt lat="47.43988" lon="6.70202">
        <ele>449</ele>
        <time>2015-04-26T08:32:33.000Z</time>
      </trkpt>
      <trkpt lat="47.4399" lon="6.70204">
        <ele>449</ele>
        <time>2015-04-26T08:32:34.000Z</time>
      </trkpt>
      <trkpt lat="47.43993" lon="6.70205">
        <ele>449</ele>
        <time>2015-04-26T08:32:36.000Z</time>
      </trkpt>
      <trkpt lat="47.43994" lon="6.70205">
        <ele>449</ele>
        <time>2015-04-26T08:32:37.000Z</time>
      </trkpt>
      <trkpt lat="47.43998" lon="6.70207">
        <ele>449</ele>
        <time>2015-04-26T08:32:39.000Z</time>
      </trkpt>
      <trkpt lat="47.44" lon="6.70208">
        <ele>449</ele>
        <time>2015-04-26T08:32:40.000Z</time>
      </trkpt>
      <trkpt lat="47.44003" lon="6.7021">
        <ele>451</ele>
        <time>2015-04-26T08:32:42.000Z</time>
      </trkpt>
      <trkpt lat="47.44006" lon="6.70211">
        <ele>451</ele>
        <time>2015-04-26T08:32:43.000Z</time>
      </trkpt>
      <trkpt lat="47.44009" lon="6.70212">
        <ele>451</ele>
        <time>2015-04-26T08:32:45.000Z</time>
      </trkpt>
      <trkpt lat="47.44011" lon="6.70212">
        <ele>451</ele>
        <time>2015-04-26T08:32:46.000Z</time>
      </trkpt>
      <trkpt lat="47.44014" lon="6.70213">
        <ele>451</ele>
        <time>2015-04-26T08:32:47.000Z</time>
      </trkpt>
      <trkpt lat="47.44016" lon="6.70213">
        <ele>451</ele>
        <time>2015-04-26T08:32:48.000Z</time>
      </trkpt>
      <trkpt lat="47.44019" lon="6.70213">
        <ele>451</ele>
        <time>2015-04-26T08:32:49.000Z</time>
      </trkpt>
      <trkpt lat="47.44022" lon="6.70213">
        <ele>451</ele>
        <time>2015-04-26T08:32:50.000Z</time>
      </trkpt>
      <trkpt lat="47.44025" lon="6.70213">
        <ele>451</ele>
        <time>2015-04-26T08:32:51.000Z</time>
      </trkpt>
      <trkpt lat="47.44028" lon="6.70213">
        <ele>451</ele>
        <time>2015-04-26T08:32:52.000Z</time>
      </trkpt>
      <trkpt lat="47.4403" lon="6.70213">
        <ele>451</ele>
        <time>2015-04-26T08:32:53.000Z</time>
      </trkpt>
      <trkpt lat="47.44033" lon="6.70213">
        <ele>451</ele>
        <time>2015-04-26T08:32:54.000Z</time>
      </trkpt>
      <trkpt lat="47.44037" lon="6.70212">
        <ele>451</ele>
        <time>2015-04-26T08:32:56.000Z</time>
      </trkpt>
      <trkpt lat="47.44038" lon="6.70211">
        <ele>451</ele>
        <time>2015-04-26T08:32:57.000Z</time>
      </trkpt>
      <trkpt lat="47.4404" lon="6.70208">
        <ele>451</ele>
        <time>2015-04-26T08:32:58.000Z</time>
      </trkpt>
      <trkpt lat="47.44041" lon="6.70205">
        <ele>451</ele>
        <time>2015-04-26T08:32:59.000Z</time>
      </trkpt>
      <trkpt lat="47.44043" lon="6.70202">
        <ele>451</ele>
        <time>2015-04-26T08:33:00.000Z</time>
      </trkpt>
      <trkpt lat="47.44044" lon="6.70199">
        <ele>451</ele>
        <time>2015-04-26T08:33:01.000Z</time>
      </trkpt>
      <trkpt lat="47.44046" lon="6.70194">
        <ele>451</ele>
        <time>2015-04-26T08:33:03.000Z</time>
      </trkpt>
      <trkpt lat="47.44047" lon="6.70191">
        <ele>451</ele>
        <time>2015-04-26T08:33:04.000Z</time>
      </trkpt>
      <trkpt lat="47.44048" lon="6.70188">
        <ele>451</ele>
        <time>2015-04-26T08:33:05.000Z</time>
      </trkpt>
      <trkpt lat="47.4405" lon="6.70185">
        <ele>451</ele>
        <time>2015-04-26T08:33:06.000Z</time>
      </trkpt>
      <trkpt lat="47.44051" lon="6.70182">
        <ele>451</ele>
        <time>2015-04-26T08:33:07.000Z</time>
      </trkpt>
      <trkpt lat="47.44053" lon="6.70178">
        <ele>451</ele>
        <time>2015-04-26T08:33:08.000Z</time>
      </trkpt>
      <trkpt lat="47.44055" lon="6.70175">
        <ele>451</ele>
        <time>2015-04-26T08:33:09.000Z</time>
      </trkpt>
      <trkpt lat="47.44056" lon="6.70172">
        <ele>451</ele>
        <time>2015-04-26T08:33:10.000Z</time>
      </trkpt>
      <trkpt lat="47.44058" lon="6.70169">
        <ele>452</ele>
        <time>2015-04-26T08:33:11.000Z</time>
      </trkpt>
      <trkpt lat="47.4406" lon="6.70166">
        <ele>454</ele>
        <time>2015-04-26T08:33:12.000Z</time>
      </trkpt>
      <trkpt lat="47.44061" lon="6.70162">
        <ele>454</ele>
        <time>2015-04-26T08:33:13.000Z</time>
      </trkpt>
      <trkpt lat="47.44062" lon="6.70158">
        <ele>454</ele>
        <time>2015-04-26T08:33:14.000Z</time>
      </trkpt>
      <trkpt lat="47.44063" lon="6.70152">
        <ele>454</ele>
        <time>2015-04-26T08:33:16.000Z</time>
      </trkpt>
      <trkpt lat="47.44063" lon="6.70149">
        <ele>454</ele>
        <time>2015-04-26T08:33:17.000Z</time>
      </trkpt>
      <trkpt lat="47.44063" lon="6.70144">
        <ele>454</ele>
        <time>2015-04-26T08:33:19.000Z</time>
      </trkpt>
      <trkpt lat="47.44063" lon="6.70141">
        <ele>455</ele>
        <time>2015-04-26T08:33:20.000Z</time>
      </trkpt>
      <trkpt lat="47.44064" lon="6.70136">
        <ele>455</ele>
        <time>2015-04-26T08:33:22.000Z</time>
      </trkpt>
      <trkpt lat="47.44065" lon="6.70133">
        <ele>455</ele>
        <time>2015-04-26T08:33:23.000Z</time>
      </trkpt>
      <trkpt lat="47.44068" lon="6.70129">
        <ele>455</ele>
        <time>2015-04-26T08:33:25.000Z</time>
      </trkpt>
      <trkpt lat="47.44069" lon="6.70127">
        <ele>455</ele>
        <time>2015-04-26T08:33:26.000Z</time>
      </trkpt>
      <trkpt lat="47.4407" lon="6.70122">
        <ele>455</ele>
        <time>2015-04-26T08:33:28.000Z</time>
      </trkpt>
      <trkpt lat="47.4407" lon="6.70119">
        <ele>455</ele>
        <time>2015-04-26T08:33:29.000Z</time>
      </trkpt>
      <trkpt lat="47.44071" lon="6.70113">
        <ele>455</ele>
        <time>2015-04-26T08:33:31.000Z</time>
      </trkpt>
      <trkpt lat="47.44071" lon="6.7011">
        <ele>455</ele>
        <time>2015-04-26T08:33:32.000Z</time>
      </trkpt>
      <trkpt lat="47.44072" lon="6.70104">
        <ele>456</ele>
        <time>2015-04-26T08:33:34.000Z</time>
      </trkpt>
      <trkpt lat="47.44072" lon="6.701">
        <ele>456</ele>
        <time>2015-04-26T08:33:35.000Z</time>
      </trkpt>
      <trkpt lat="47.44072" lon="6.70096">
        <ele>456</ele>
        <time>2015-04-26T08:33:36.000Z</time>
      </trkpt>
      <trkpt lat="47.44072" lon="6.70092">
        <ele>456</ele>
        <time>2015-04-26T08:33:37.000Z</time>
      </trkpt>
      <trkpt lat="47.44073" lon="6.70089">
        <ele>456</ele>
        <time>2015-04-26T08:33:38.000Z</time>
      </trkpt>
      <trkpt lat="47.44073" lon="6.70085">
        <ele>456</ele>
        <time>2015-04-26T08:33:39.000Z</time>
      </trkpt>
      <trkpt lat="47.44073" lon="6.70081">
        <ele>457</ele>
        <time>2015-04-26T08:33:40.000Z</time>
      </trkpt>
      <trkpt lat="47.44073" lon="6.70077">
        <ele>457</ele>
        <time>2015-04-26T08:33:41.000Z</time>
      </trkpt>
      <trkpt lat="47.44074" lon="6.70073">
        <ele>458</ele>
        <time>2015-04-26T08:33:42.000Z</time>
      </trkpt>
      <trkpt lat="47.44075" lon="6.70069">
        <ele>458</ele>
        <time>2015-04-26T08:33:43.000Z</time>
      </trkpt>
      <trkpt lat="47.44075" lon="6.70065">
        <ele>458</ele>
        <time>2015-04-26T08:33:44.000Z</time>
      </trkpt>
      <trkpt lat="47.44076" lon="6.7006">
        <ele>458</ele>
        <time>2015-04-26T08:33:45.000Z</time>
      </trkpt>
      <trkpt lat="47.44076" lon="6.70056">
        <ele>458</ele>
        <time>2015-04-26T08:33:46.000Z</time>
      </trkpt>
      <trkpt lat="47.44076" lon="6.70053">
        <ele>458</ele>
        <time>2015-04-26T08:33:47.000Z</time>
      </trkpt>
      <trkpt lat="47.44076" lon="6.7005">
        <ele>458</ele>
        <time>2015-04-26T08:33:48.000Z</time>
      </trkpt>
      <trkpt lat="47.44077" lon="6.70046">
        <ele>459</ele>
        <time>2015-04-26T08:33:49.000Z</time>
      </trkpt>
      <trkpt lat="47.44077" lon="6.70043">
        <ele>459</ele>
        <time>2015-04-26T08:33:50.000Z</time>
      </trkpt>
      <trkpt lat="47.44077" lon="6.70039">
        <ele>459</ele>
        <time>2015-04-26T08:33:51.000Z</time>
      </trkpt>
      <trkpt lat="47.44077" lon="6.70035">
        <ele>459</ele>
        <time>2015-04-26T08:33:52.000Z</time>
      </trkpt>
      <trkpt lat="47.44077" lon="6.70031">
        <ele>459</ele>
        <time>2015-04-26T08:33:53.000Z</time>
      </trkpt>
      <trkpt lat="47.44077" lon="6.70027">
        <ele>459</ele>
        <time>2015-04-26T08:33:54.000Z</time>
      </trkpt>
      <trkpt lat="47.44077" lon="6.70024">
        <ele>459</ele>
        <time>2015-04-26T08:33:55.000Z</time>
      </trkpt>
      <trkpt lat="47.44077" lon="6.7002">
        <ele>458</ele>
        <time>2015-04-26T08:33:56.000Z</time>
      </trkpt>
      <trkpt lat="47.44076" lon="6.70016">
        <ele>458</ele>
        <time>2015-04-26T08:33:57.000Z</time>
      </trkpt>
      <trkpt lat="47.44075" lon="6.70011">
        <ele>458</ele>
        <time>2015-04-26T08:33:58.000Z</time>
      </trkpt>
      <trkpt lat="47.44074" lon="6.70006">
        <ele>458</ele>
        <time>2015-04-26T08:33:59.000Z</time>
      </trkpt>
      <trkpt lat="47.44074" lon="6.70001">
        <ele>458</ele>
        <time>2015-04-26T08:34:00.000Z</time>
      </trkpt>
      <trkpt lat="47.44075" lon="6.69995">
        <ele>458</ele>
        <time>2015-04-26T08:34:01.000Z</time>
      </trkpt>
      <trkpt lat="47.44075" lon="6.6999">
        <ele>458</ele>
        <time>2015-04-26T08:34:02.000Z</time>
      </trkpt>
      <trkpt lat="47.44076" lon="6.69984">
        <ele>458</ele>
        <time>2015-04-26T08:34:03.000Z</time>
      </trkpt>
      <trkpt lat="47.44076" lon="6.69978">
        <ele>458</ele>
        <time>2015-04-26T08:34:04.000Z</time>
      </trkpt>
      <trkpt lat="47.44077" lon="6.69972">
        <ele>458</ele>
        <time>2015-04-26T08:34:05.000Z</time>
      </trkpt>
      <trkpt lat="47.44078" lon="6.69966">
        <ele>458</ele>
        <time>2015-04-26T08:34:06.000Z</time>
      </trkpt>
      <trkpt lat="47.44078" lon="6.6996">
        <ele>458</ele>
        <time>2015-04-26T08:34:07.000Z</time>
      </trkpt>
      <trkpt lat="47.44079" lon="6.69955">
        <ele>457</ele>
        <time>2015-04-26T08:34:08.000Z</time>
      </trkpt>
      <trkpt lat="47.44081" lon="6.69951">
        <ele>457</ele>
        <time>2015-04-26T08:34:09.000Z</time>
      </trkpt>
      <trkpt lat="47.44082" lon="6.69947">
        <ele>457</ele>
        <time>2015-04-26T08:34:10.000Z</time>
      </trkpt>
      <trkpt lat="47.44083" lon="6.69943">
        <ele>457</ele>
        <time>2015-04-26T08:34:11.000Z</time>
      </trkpt>
      <trkpt lat="47.44085" lon="6.69937">
        <ele>453</ele>
        <time>2015-04-26T08:34:13.000Z</time>
      </trkpt>
      <trkpt lat="47.44086" lon="6.69934">
        <ele>453</ele>
        <time>2015-04-26T08:34:14.000Z</time>
      </trkpt>
      <trkpt lat="47.44089" lon="6.69932">
        <ele>453</ele>
        <time>2015-04-26T08:34:15.000Z</time>
      </trkpt>
      <trkpt lat="47.44091" lon="6.69929">
        <ele>453</ele>
        <time>2015-04-26T08:34:16.000Z</time>
      </trkpt>
      <trkpt lat="47.44094" lon="6.69927">
        <ele>453</ele>
        <time>2015-04-26T08:34:17.000Z</time>
      </trkpt>
      <trkpt lat="47.44097" lon="6.69926">
        <ele>453</ele>
        <time>2015-04-26T08:34:18.000Z</time>
      </trkpt>
      <trkpt lat="47.441" lon="6.69924">
        <ele>453</ele>
        <time>2015-04-26T08:34:19.000Z</time>
      </trkpt>
      <trkpt lat="47.44103" lon="6.69923">
        <ele>453</ele>
        <time>2015-04-26T08:34:20.000Z</time>
      </trkpt>
      <trkpt lat="47.44106" lon="6.69921">
        <ele>453</ele>
        <time>2015-04-26T08:34:21.000Z</time>
      </trkpt>
      <trkpt lat="47.44109" lon="6.69919">
        <ele>453</ele>
        <time>2015-04-26T08:34:22.000Z</time>
      </trkpt>
      <trkpt lat="47.44112" lon="6.69917">
        <ele>453</ele>
        <time>2015-04-26T08:34:23.000Z</time>
      </trkpt>
      <trkpt lat="47.44115" lon="6.69916">
        <ele>453</ele>
        <time>2015-04-26T08:34:24.000Z</time>
      </trkpt>
      <trkpt lat="47.44118" lon="6.69915">
        <ele>453</ele>
        <time>2015-04-26T08:34:25.000Z</time>
      </trkpt>
      <trkpt lat="47.44121" lon="6.69914">
        <ele>453</ele>
        <time>2015-04-26T08:34:26.000Z</time>
      </trkpt>
      <trkpt lat="47.44124" lon="6.69913">
        <ele>453</ele>
        <time>2015-04-26T08:34:27.000Z</time>
      </trkpt>
      <trkpt lat="47.44126" lon="6.69911">
        <ele>453</ele>
        <time>2015-04-26T08:34:28.000Z</time>
      </trkpt>
      <trkpt lat="47.44129" lon="6.6991">
        <ele>453</ele>
        <time>2015-04-26T08:34:29.000Z</time>
      </trkpt>
      <trkpt lat="47.44131" lon="6.69909">
        <ele>453</ele>
        <time>2015-04-26T08:34:30.000Z</time>
      </trkpt>
      <trkpt lat="47.44135" lon="6.69908">
        <ele>453</ele>
        <time>2015-04-26T08:34:32.000Z</time>
      </trkpt>
      <trkpt lat="47.44136" lon="6.69908">
        <ele>453</ele>
        <time>2015-04-26T08:34:33.000Z</time>
      </trkpt>
      <trkpt lat="47.4414" lon="6.6991">
        <ele>453</ele>
        <time>2015-04-26T08:34:37.000Z</time>
      </trkpt>
      <trkpt lat="47.44142" lon="6.69911">
        <ele>453</ele>
        <time>2015-04-26T08:34:38.000Z</time>
      </trkpt>
      <trkpt lat="47.44145" lon="6.69911">
        <ele>453</ele>
        <time>2015-04-26T08:34:39.000Z</time>
      </trkpt>
      <trkpt lat="47.44148" lon="6.69911">
        <ele>453</ele>
        <time>2015-04-26T08:34:40.000Z</time>
      </trkpt>
      <trkpt lat="47.44151" lon="6.69911">
        <ele>453</ele>
        <time>2015-04-26T08:34:41.000Z</time>
      </trkpt>
      <trkpt lat="47.44154" lon="6.69911">
        <ele>453</ele>
        <time>2015-04-26T08:34:42.000Z</time>
      </trkpt>
      <trkpt lat="47.44157" lon="6.69911">
        <ele>453</ele>
        <time>2015-04-26T08:34:43.000Z</time>
      </trkpt>
      <trkpt lat="47.4416" lon="6.69911">
        <ele>453</ele>
        <time>2015-04-26T08:34:44.000Z</time>
      </trkpt>
      <trkpt lat="47.44163" lon="6.69912">
        <ele>453</ele>
        <time>2015-04-26T08:34:45.000Z</time>
      </trkpt>
      <trkpt lat="47.44166" lon="6.69912">
        <ele>453</ele>
        <time>2015-04-26T08:34:46.000Z</time>
      </trkpt>
      <trkpt lat="47.44169" lon="6.69912">
        <ele>453</ele>
        <time>2015-04-26T08:34:47.000Z</time>
      </trkpt>
      <trkpt lat="47.44172" lon="6.69912">
        <ele>453</ele>
        <time>2015-04-26T08:34:48.000Z</time>
      </trkpt>
      <trkpt lat="47.44176" lon="6.69912">
        <ele>453</ele>
        <time>2015-04-26T08:34:49.000Z</time>
      </trkpt>
      <trkpt lat="47.44179" lon="6.69911">
        <ele>453</ele>
        <time>2015-04-26T08:34:50.000Z</time>
      </trkpt>
      <trkpt lat="47.44182" lon="6.69911">
        <ele>453</ele>
        <time>2015-04-26T08:34:51.000Z</time>
      </trkpt>
      <trkpt lat="47.44185" lon="6.69911">
        <ele>453</ele>
        <time>2015-04-26T08:34:52.000Z</time>
      </trkpt>
      <trkpt lat="47.44187" lon="6.69911">
        <ele>453</ele>
        <time>2015-04-26T08:34:53.000Z</time>
      </trkpt>
      <trkpt lat="47.44189" lon="6.69911">
        <ele>453</ele>
        <time>2015-04-26T08:34:54.000Z</time>
      </trkpt>
      <trkpt lat="47.44191" lon="6.69912">
        <ele>453</ele>
        <time>2015-04-26T08:34:55.000Z</time>
      </trkpt>
      <trkpt lat="47.44194" lon="6.69913">
        <ele>453</ele>
        <time>2015-04-26T08:34:56.000Z</time>
      </trkpt>
      <trkpt lat="47.44197" lon="6.69913">
        <ele>453</ele>
        <time>2015-04-26T08:34:57.000Z</time>
      </trkpt>
      <trkpt lat="47.442" lon="6.69914">
        <ele>453</ele>
        <time>2015-04-26T08:34:58.000Z</time>
      </trkpt>
      <trkpt lat="47.44203" lon="6.69914">
        <ele>453</ele>
        <time>2015-04-26T08:34:59.000Z</time>
      </trkpt>
      <trkpt lat="47.44206" lon="6.69915">
        <ele>453</ele>
        <time>2015-04-26T08:35:00.000Z</time>
      </trkpt>
      <trkpt lat="47.44209" lon="6.69916">
        <ele>453</ele>
        <time>2015-04-26T08:35:01.000Z</time>
      </trkpt>
      <trkpt lat="47.44212" lon="6.69917">
        <ele>452</ele>
        <time>2015-04-26T08:35:02.000Z</time>
      </trkpt>
      <trkpt lat="47.44215" lon="6.69918">
        <ele>452</ele>
        <time>2015-04-26T08:35:03.000Z</time>
      </trkpt>
      <trkpt lat="47.44219" lon="6.69919">
        <ele>452</ele>
        <time>2015-04-26T08:35:04.000Z</time>
      </trkpt>
      <trkpt lat="47.44222" lon="6.6992">
        <ele>452</ele>
        <time>2015-04-26T08:35:05.000Z</time>
      </trkpt>
      <trkpt lat="47.44225" lon="6.69922">
        <ele>452</ele>
        <time>2015-04-26T08:35:06.000Z</time>
      </trkpt>
      <trkpt lat="47.44228" lon="6.69924">
        <ele>452</ele>
        <time>2015-04-26T08:35:07.000Z</time>
      </trkpt>
      <trkpt lat="47.44232" lon="6.69925">
        <ele>452</ele>
        <time>2015-04-26T08:35:08.000Z</time>
      </trkpt>
      <trkpt lat="47.44235" lon="6.69927">
        <ele>452</ele>
        <time>2015-04-26T08:35:09.000Z</time>
      </trkpt>
      <trkpt lat="47.44239" lon="6.69929">
        <ele>452</ele>
        <time>2015-04-26T08:35:10.000Z</time>
      </trkpt>
      <trkpt lat="47.44243" lon="6.69931">
        <ele>452</ele>
        <time>2015-04-26T08:35:11.000Z</time>
      </trkpt>
      <trkpt lat="47.44246" lon="6.69934">
        <ele>452</ele>
        <time>2015-04-26T08:35:12.000Z</time>
      </trkpt>
      <trkpt lat="47.4425" lon="6.69936">
        <ele>452</ele>
        <time>2015-04-26T08:35:13.000Z</time>
      </trkpt>
      <trkpt lat="47.44253" lon="6.69938">
        <ele>451</ele>
        <time>2015-04-26T08:35:14.000Z</time>
      </trkpt>
      <trkpt lat="47.44256" lon="6.69941">
        <ele>451</ele>
        <time>2015-04-26T08:35:15.000Z</time>
      </trkpt>
      <trkpt lat="47.44259" lon="6.69943">
        <ele>451</ele>
        <time>2015-04-26T08:35:16.000Z</time>
      </trkpt>
      <trkpt lat="47.44262" lon="6.69945">
        <ele>451</ele>
        <time>2015-04-26T08:35:17.000Z</time>
      </trkpt>
      <trkpt lat="47.4427" lon="6.69949">
        <ele>451</ele>
        <time>2015-04-26T08:35:18.000Z</time>
      </trkpt>
      <trkpt lat="47.44275" lon="6.69957">
        <ele>450</ele>
        <time>2015-04-26T08:35:19.000Z</time>
      </trkpt>
      <trkpt lat="47.44281" lon="6.69962">
        <ele>450</ele>
        <time>2015-04-26T08:35:20.000Z</time>
      </trkpt>
      <trkpt lat="47.44285" lon="6.69967">
        <ele>450</ele>
        <time>2015-04-26T08:35:21.000Z</time>
      </trkpt>
      <trkpt lat="47.44289" lon="6.69972">
        <ele>450</ele>
        <time>2015-04-26T08:35:22.000Z</time>
      </trkpt>
      <trkpt lat="47.44292" lon="6.69975">
        <ele>450</ele>
        <time>2015-04-26T08:35:23.000Z</time>
      </trkpt>
      <trkpt lat="47.443" lon="6.69976">
        <ele>450</ele>
        <time>2015-04-26T08:35:24.000Z</time>
      </trkpt>
      <trkpt lat="47.44306" lon="6.69978">
        <ele>450</ele>
        <time>2015-04-26T08:35:25.000Z</time>
      </trkpt>
      <trkpt lat="47.44312" lon="6.69981">
        <ele>450</ele>
        <time>2015-04-26T08:35:26.000Z</time>
      </trkpt>
      <trkpt lat="47.44316" lon="6.69982">
        <ele>450</ele>
        <time>2015-04-26T08:35:27.000Z</time>
      </trkpt>
      <trkpt lat="47.44322" lon="6.69984">
        <ele>449</ele>
        <time>2015-04-26T08:35:28.000Z</time>
      </trkpt>
      <trkpt lat="47.44327" lon="6.69985">
        <ele>449</ele>
        <time>2015-04-26T08:35:29.000Z</time>
      </trkpt>
      <trkpt lat="47.44332" lon="6.69986">
        <ele>449</ele>
        <time>2015-04-26T08:35:30.000Z</time>
      </trkpt>
      <trkpt lat="47.44338" lon="6.69986">
        <ele>448</ele>
        <time>2015-04-26T08:35:31.000Z</time>
      </trkpt>
      <trkpt lat="47.44347" lon="6.69992">
        <ele>447</ele>
        <time>2015-04-26T08:35:32.000Z</time>
      </trkpt>
      <trkpt lat="47.44354" lon="6.69992">
        <ele>447</ele>
        <time>2015-04-26T08:35:33.000Z</time>
      </trkpt>
      <trkpt lat="47.44361" lon="6.6999">
        <ele>446</ele>
        <time>2015-04-26T08:35:34.000Z</time>
      </trkpt>
      <trkpt lat="47.44367" lon="6.69991">
        <ele>446</ele>
        <time>2015-04-26T08:35:35.000Z</time>
      </trkpt>
      <trkpt lat="47.44374" lon="6.6999">
        <ele>446</ele>
        <time>2015-04-26T08:35:36.000Z</time>
      </trkpt>
      <trkpt lat="47.44378" lon="6.6998">
        <ele>446</ele>
        <time>2015-04-26T08:35:37.000Z</time>
      </trkpt>
      <trkpt lat="47.44384" lon="6.69978">
        <ele>445</ele>
        <time>2015-04-26T08:35:38.000Z</time>
      </trkpt>
      <trkpt lat="47.4439" lon="6.69975">
        <ele>445</ele>
        <time>2015-04-26T08:35:39.000Z</time>
      </trkpt>
      <trkpt lat="47.44398" lon="6.69971">
        <ele>445</ele>
        <time>2015-04-26T08:35:40.000Z</time>
      </trkpt>
      <trkpt lat="47.44405" lon="6.69968">
        <ele>445</ele>
        <time>2015-04-26T08:35:41.000Z</time>
      </trkpt>
      <trkpt lat="47.44413" lon="6.69968">
        <ele>445</ele>
        <time>2015-04-26T08:35:42.000Z</time>
      </trkpt>
      <trkpt lat="47.44421" lon="6.69966">
        <ele>442</ele>
        <time>2015-04-26T08:35:43.000Z</time>
      </trkpt>
      <trkpt lat="47.44429" lon="6.69964">
        <ele>442</ele>
        <time>2015-04-26T08:35:44.000Z</time>
      </trkpt>
      <trkpt lat="47.44436" lon="6.69961">
        <ele>442</ele>
        <time>2015-04-26T08:35:45.000Z</time>
      </trkpt>
      <trkpt lat="47.44444" lon="6.69958">
        <ele>442</ele>
        <time>2015-04-26T08:35:46.000Z</time>
      </trkpt>
      <trkpt lat="47.44452" lon="6.69953">
        <ele>441</ele>
        <time>2015-04-26T08:35:47.000Z</time>
      </trkpt>
      <trkpt lat="47.4446" lon="6.6995">
        <ele>441</ele>
        <time>2015-04-26T08:35:48.000Z</time>
      </trkpt>
      <trkpt lat="47.44467" lon="6.69947">
        <ele>441</ele>
        <time>2015-04-26T08:35:49.000Z</time>
      </trkpt>
      <trkpt lat="47.44474" lon="6.69942">
        <ele>441</ele>
        <time>2015-04-26T08:35:50.000Z</time>
      </trkpt>
      <trkpt lat="47.44481" lon="6.69939">
        <ele>441</ele>
        <time>2015-04-26T08:35:51.000Z</time>
      </trkpt>
      <trkpt lat="47.44487" lon="6.69937">
        <ele>440</ele>
        <time>2015-04-26T08:35:52.000Z</time>
      </trkpt>
      <trkpt lat="47.44494" lon="6.69935">
        <ele>440</ele>
        <time>2015-04-26T08:35:53.000Z</time>
      </trkpt>
      <trkpt lat="47.445" lon="6.69932">
        <ele>439</ele>
        <time>2015-04-26T08:35:54.000Z</time>
      </trkpt>
      <trkpt lat="47.44506" lon="6.6993">
        <ele>439</ele>
        <time>2015-04-26T08:35:55.000Z</time>
      </trkpt>
      <trkpt lat="47.44511" lon="6.69927">
        <ele>439</ele>
        <time>2015-04-26T08:35:56.000Z</time>
      </trkpt>
      <trkpt lat="47.44518" lon="6.69924">
        <ele>439</ele>
        <time>2015-04-26T08:35:57.000Z</time>
      </trkpt>
      <trkpt lat="47.44523" lon="6.6992">
        <ele>439</ele>
        <time>2015-04-26T08:35:58.000Z</time>
      </trkpt>
      <trkpt lat="47.44528" lon="6.69919">
        <ele>439</ele>
        <time>2015-04-26T08:35:59.000Z</time>
      </trkpt>
      <trkpt lat="47.44533" lon="6.69919">
        <ele>439</ele>
        <time>2015-04-26T08:36:00.000Z</time>
      </trkpt>
      <trkpt lat="47.44539" lon="6.6992">
        <ele>439</ele>
        <time>2015-04-26T08:36:01.000Z</time>
      </trkpt>
      <trkpt lat="47.44544" lon="6.6992">
        <ele>439</ele>
        <time>2015-04-26T08:36:02.000Z</time>
      </trkpt>
      <trkpt lat="47.4455" lon="6.69919">
        <ele>439</ele>
        <time>2015-04-26T08:36:03.000Z</time>
      </trkpt>
      <trkpt lat="47.44556" lon="6.69917">
        <ele>439</ele>
        <time>2015-04-26T08:36:04.000Z</time>
      </trkpt>
      <trkpt lat="47.44562" lon="6.69914">
        <ele>437</ele>
        <time>2015-04-26T08:36:05.000Z</time>
      </trkpt>
      <trkpt lat="47.44568" lon="6.69912">
        <ele>437</ele>
        <time>2015-04-26T08:36:06.000Z</time>
      </trkpt>
      <trkpt lat="47.44574" lon="6.69908">
        <ele>437</ele>
        <time>2015-04-26T08:36:07.000Z</time>
      </trkpt>
      <trkpt lat="47.44579" lon="6.69903">
        <ele>437</ele>
        <time>2015-04-26T08:36:08.000Z</time>
      </trkpt>
      <trkpt lat="47.44585" lon="6.69899">
        <ele>436</ele>
        <time>2015-04-26T08:36:09.000Z</time>
      </trkpt>
      <trkpt lat="47.44591" lon="6.69895">
        <ele>436</ele>
        <time>2015-04-26T08:36:10.000Z</time>
      </trkpt>
      <trkpt lat="47.44598" lon="6.69889">
        <ele>436</ele>
        <time>2015-04-26T08:36:11.000Z</time>
      </trkpt>
      <trkpt lat="47.44605" lon="6.69885">
        <ele>435</ele>
        <time>2015-04-26T08:36:12.000Z</time>
      </trkpt>
      <trkpt lat="47.44611" lon="6.69881">
        <ele>435</ele>
        <time>2015-04-26T08:36:13.000Z</time>
      </trkpt>
      <trkpt lat="47.44617" lon="6.69878">
        <ele>435</ele>
        <time>2015-04-26T08:36:14.000Z</time>
      </trkpt>
      <trkpt lat="47.44625" lon="6.69874">
        <ele>435</ele>
        <time>2015-04-26T08:36:15.000Z</time>
      </trkpt>
      <trkpt lat="47.4463" lon="6.69871">
        <ele>435</ele>
        <time>2015-04-26T08:36:16.000Z</time>
      </trkpt>
      <trkpt lat="47.44636" lon="6.69865">
        <ele>435</ele>
        <time>2015-04-26T08:36:17.000Z</time>
      </trkpt>
      <trkpt lat="47.44643" lon="6.69858">
        <ele>435</ele>
        <time>2015-04-26T08:36:18.000Z</time>
      </trkpt>
      <trkpt lat="47.44647" lon="6.69849">
        <ele>435</ele>
        <time>2015-04-26T08:36:19.000Z</time>
      </trkpt>
      <trkpt lat="47.44649" lon="6.69839">
        <ele>435</ele>
        <time>2015-04-26T08:36:20.000Z</time>
      </trkpt>
      <trkpt lat="47.44648" lon="6.69828">
        <ele>434</ele>
        <time>2015-04-26T08:36:21.000Z</time>
      </trkpt>
      <trkpt lat="47.44648" lon="6.69817">
        <ele>434</ele>
        <time>2015-04-26T08:36:22.000Z</time>
      </trkpt>
      <trkpt lat="47.44645" lon="6.69808">
        <ele>433</ele>
        <time>2015-04-26T08:36:23.000Z</time>
      </trkpt>
      <trkpt lat="47.44642" lon="6.69797">
        <ele>433</ele>
        <time>2015-04-26T08:36:24.000Z</time>
      </trkpt>
      <trkpt lat="47.44638" lon="6.69787">
        <ele>433</ele>
        <time>2015-04-26T08:36:25.000Z</time>
      </trkpt>
      <trkpt lat="47.44636" lon="6.69778">
        <ele>433</ele>
        <time>2015-04-26T08:36:26.000Z</time>
      </trkpt>
      <trkpt lat="47.44633" lon="6.6977">
        <ele>433</ele>
        <time>2015-04-26T08:36:27.000Z</time>
      </trkpt>
      <trkpt lat="47.4463" lon="6.69761">
        <ele>433</ele>
        <time>2015-04-26T08:36:28.000Z</time>
      </trkpt>
      <trkpt lat="47.44628" lon="6.69753">
        <ele>433</ele>
        <time>2015-04-26T08:36:29.000Z</time>
      </trkpt>
      <trkpt lat="47.44625" lon="6.69743">
        <ele>432</ele>
        <time>2015-04-26T08:36:30.000Z</time>
      </trkpt>
      <trkpt lat="47.44623" lon="6.69734">
        <ele>431</ele>
        <time>2015-04-26T08:36:31.000Z</time>
      </trkpt>
      <trkpt lat="47.4462" lon="6.69726">
        <ele>431</ele>
        <time>2015-04-26T08:36:32.000Z</time>
      </trkpt>
      <trkpt lat="47.44617" lon="6.69716">
        <ele>431</ele>
        <time>2015-04-26T08:36:33.000Z</time>
      </trkpt>
      <trkpt lat="47.44613" lon="6.69707">
        <ele>431</ele>
        <time>2015-04-26T08:36:34.000Z</time>
      </trkpt>
      <trkpt lat="47.44609" lon="6.69698">
        <ele>431</ele>
        <time>2015-04-26T08:36:35.000Z</time>
      </trkpt>
      <trkpt lat="47.44606" lon="6.69689">
        <ele>431</ele>
        <time>2015-04-26T08:36:36.000Z</time>
      </trkpt>
      <trkpt lat="47.44602" lon="6.6968">
        <ele>431</ele>
        <time>2015-04-26T08:36:37.000Z</time>
      </trkpt>
      <trkpt lat="47.44599" lon="6.69669">
        <ele>431</ele>
        <time>2015-04-26T08:36:38.000Z</time>
      </trkpt>
      <trkpt lat="47.44595" lon="6.69659">
        <ele>429</ele>
        <time>2015-04-26T08:36:39.000Z</time>
      </trkpt>
      <trkpt lat="47.44592" lon="6.69649">
        <ele>429</ele>
        <time>2015-04-26T08:36:40.000Z</time>
      </trkpt>
      <trkpt lat="47.4459" lon="6.69639">
        <ele>429</ele>
        <time>2015-04-26T08:36:41.000Z</time>
      </trkpt>
      <trkpt lat="47.44587" lon="6.69629">
        <ele>428</ele>
        <time>2015-04-26T08:36:42.000Z</time>
      </trkpt>
      <trkpt lat="47.44583" lon="6.69617">
        <ele>429</ele>
        <time>2015-04-26T08:36:43.000Z</time>
      </trkpt>
      <trkpt lat="47.44579" lon="6.69607">
        <ele>428</ele>
        <time>2015-04-26T08:36:44.000Z</time>
      </trkpt>
      <trkpt lat="47.44575" lon="6.69598">
        <ele>428</ele>
        <time>2015-04-26T08:36:45.000Z</time>
      </trkpt>
      <trkpt lat="47.44571" lon="6.6959">
        <ele>428</ele>
        <time>2015-04-26T08:36:46.000Z</time>
      </trkpt>
      <trkpt lat="47.44569" lon="6.69581">
        <ele>427</ele>
        <time>2015-04-26T08:36:47.000Z</time>
      </trkpt>
      <trkpt lat="47.44568" lon="6.69574">
        <ele>427</ele>
        <time>2015-04-26T08:36:48.000Z</time>
      </trkpt>
      <trkpt lat="47.4457" lon="6.69573">
        <ele>427</ele>
        <time>2015-04-26T08:36:49.000Z</time>
      </trkpt>
      <trkpt lat="47.44573" lon="6.69571">
        <ele>427</ele>
        <time>2015-04-26T08:36:50.000Z</time>
      </trkpt>
      <trkpt lat="47.44577" lon="6.69571">
        <ele>427</ele>
        <time>2015-04-26T08:36:52.000Z</time>
      </trkpt>
      <trkpt lat="47.44579" lon="6.69576">
        <ele>427</ele>
        <time>2015-04-26T08:36:53.000Z</time>
      </trkpt>
      <trkpt lat="47.44581" lon="6.69579">
        <ele>427</ele>
        <time>2015-04-26T08:36:54.000Z</time>
      </trkpt>
      <trkpt lat="47.44582" lon="6.69582">
        <ele>427</ele>
        <time>2015-04-26T08:36:55.000Z</time>
      </trkpt>
      <trkpt lat="47.44585" lon="6.69588">
        <ele>427</ele>
        <time>2015-04-26T08:36:56.000Z</time>
      </trkpt>
      <trkpt lat="47.44589" lon="6.69592">
        <ele>427</ele>
        <time>2015-04-26T08:36:57.000Z</time>
      </trkpt>
      <trkpt lat="47.44591" lon="6.69596">
        <ele>427</ele>
        <time>2015-04-26T08:36:58.000Z</time>
      </trkpt>
      <trkpt lat="47.44594" lon="6.696">
        <ele>428</ele>
        <time>2015-04-26T08:36:59.000Z</time>
      </trkpt>
      <trkpt lat="47.44596" lon="6.69604">
        <ele>428</ele>
        <time>2015-04-26T08:37:00.000Z</time>
      </trkpt>
      <trkpt lat="47.44599" lon="6.69607">
        <ele>428</ele>
        <time>2015-04-26T08:37:01.000Z</time>
      </trkpt>
      <trkpt lat="47.44601" lon="6.69611">
        <ele>428</ele>
        <time>2015-04-26T08:37:02.000Z</time>
      </trkpt>
      <trkpt lat="47.44604" lon="6.69613">
        <ele>428</ele>
        <time>2015-04-26T08:37:03.000Z</time>
      </trkpt>
      <trkpt lat="47.44607" lon="6.69615">
        <ele>428</ele>
        <time>2015-04-26T08:37:04.000Z</time>
      </trkpt>
      <trkpt lat="47.4461" lon="6.69616">
        <ele>428</ele>
        <time>2015-04-26T08:37:05.000Z</time>
      </trkpt>
      <trkpt lat="47.44614" lon="6.69616">
        <ele>428</ele>
        <time>2015-04-26T08:37:06.000Z</time>
      </trkpt>
      <trkpt lat="47.44618" lon="6.69615">
        <ele>428</ele>
        <time>2015-04-26T08:37:07.000Z</time>
      </trkpt>
      <trkpt lat="47.44622" lon="6.69615">
        <ele>428</ele>
        <time>2015-04-26T08:37:08.000Z</time>
      </trkpt>
      <trkpt lat="47.4463" lon="6.69609">
        <ele>427</ele>
        <time>2015-04-26T08:37:09.000Z</time>
      </trkpt>
      <trkpt lat="47.44632" lon="6.69608">
        <ele>427</ele>
        <time>2015-04-26T08:37:10.000Z</time>
      </trkpt>
      <trkpt lat="47.44636" lon="6.69607">
        <ele>427</ele>
        <time>2015-04-26T08:37:11.000Z</time>
      </trkpt>
      <trkpt lat="47.44641" lon="6.69607">
        <ele>427</ele>
        <time>2015-04-26T08:37:12.000Z</time>
      </trkpt>
      <trkpt lat="47.44645" lon="6.69606">
        <ele>427</ele>
        <time>2015-04-26T08:37:13.000Z</time>
      </trkpt>
      <trkpt lat="47.44649" lon="6.69606">
        <ele>427</ele>
        <time>2015-04-26T08:37:14.000Z</time>
      </trkpt>
      <trkpt lat="47.44655" lon="6.69607">
        <ele>427</ele>
        <time>2015-04-26T08:37:15.000Z</time>
      </trkpt>
      <trkpt lat="47.44659" lon="6.69612">
        <ele>427</ele>
        <time>2015-04-26T08:37:16.000Z</time>
      </trkpt>
      <trkpt lat="47.44665" lon="6.69617">
        <ele>427</ele>
        <time>2015-04-26T08:37:17.000Z</time>
      </trkpt>
      <trkpt lat="47.44673" lon="6.69618">
        <ele>425</ele>
        <time>2015-04-26T08:37:18.000Z</time>
      </trkpt>
      <trkpt lat="47.44678" lon="6.6962">
        <ele>426</ele>
        <time>2015-04-26T08:37:19.000Z</time>
      </trkpt>
      <trkpt lat="47.44685" lon="6.69622">
        <ele>426</ele>
        <time>2015-04-26T08:37:20.000Z</time>
      </trkpt>
      <trkpt lat="47.44691" lon="6.69626">
        <ele>426</ele>
        <time>2015-04-26T08:37:21.000Z</time>
      </trkpt>
      <trkpt lat="47.44696" lon="6.69625">
        <ele>425</ele>
        <time>2015-04-26T08:37:22.000Z</time>
      </trkpt>
      <trkpt lat="47.44703" lon="6.69627">
        <ele>425</ele>
        <time>2015-04-26T08:37:23.000Z</time>
      </trkpt>
      <trkpt lat="47.44708" lon="6.69627">
        <ele>425</ele>
        <time>2015-04-26T08:37:24.000Z</time>
      </trkpt>
      <trkpt lat="47.44715" lon="6.69627">
        <ele>425</ele>
        <time>2015-04-26T08:37:25.000Z</time>
      </trkpt>
      <trkpt lat="47.44721" lon="6.69624">
        <ele>425</ele>
        <time>2015-04-26T08:37:26.000Z</time>
      </trkpt>
      <trkpt lat="47.44728" lon="6.69623">
        <ele>424</ele>
        <time>2015-04-26T08:37:27.000Z</time>
      </trkpt>
      <trkpt lat="47.44735" lon="6.69624">
        <ele>424</ele>
        <time>2015-04-26T08:37:28.000Z</time>
      </trkpt>
      <trkpt lat="47.44741" lon="6.69627">
        <ele>424</ele>
        <time>2015-04-26T08:37:29.000Z</time>
      </trkpt>
      <trkpt lat="47.44748" lon="6.69629">
        <ele>424</ele>
        <time>2015-04-26T08:37:30.000Z</time>
      </trkpt>
      <trkpt lat="47.44755" lon="6.69631">
        <ele>419</ele>
        <time>2015-04-26T08:37:31.000Z</time>
      </trkpt>
      <trkpt lat="47.44762" lon="6.69633">
        <ele>419</ele>
        <time>2015-04-26T08:37:32.000Z</time>
      </trkpt>
      <trkpt lat="47.44769" lon="6.69635">
        <ele>418</ele>
        <time>2015-04-26T08:37:33.000Z</time>
      </trkpt>
      <trkpt lat="47.44773" lon="6.69636">
        <ele>418</ele>
        <time>2015-04-26T08:37:34.000Z</time>
      </trkpt>
      <trkpt lat="47.44779" lon="6.69638">
        <ele>418</ele>
        <time>2015-04-26T08:37:35.000Z</time>
      </trkpt>
      <trkpt lat="47.44787" lon="6.69643">
        <ele>417</ele>
        <time>2015-04-26T08:37:36.000Z</time>
      </trkpt>
      <trkpt lat="47.4479" lon="6.69643">
        <ele>417</ele>
        <time>2015-04-26T08:37:37.000Z</time>
      </trkpt>
      <trkpt lat="47.44793" lon="6.69644">
        <ele>417</ele>
        <time>2015-04-26T08:37:38.000Z</time>
      </trkpt>
      <trkpt lat="47.44796" lon="6.69646">
        <ele>417</ele>
        <time>2015-04-26T08:37:40.000Z</time>
      </trkpt>
      <trkpt lat="47.44798" lon="6.69644">
        <ele>416</ele>
        <time>2015-04-26T08:37:41.000Z</time>
      </trkpt>
      <trkpt lat="47.44802" lon="6.69643">
        <ele>416</ele>
        <time>2015-04-26T08:37:59.000Z</time>
      </trkpt>
      <trkpt lat="47.44804" lon="6.69644">
        <ele>416</ele>
        <time>2015-04-26T08:38:00.000Z</time>
      </trkpt>
      <trkpt lat="47.44807" lon="6.69647">
        <ele>415</ele>
        <time>2015-04-26T08:38:01.000Z</time>
      </trkpt>
      <trkpt lat="47.44811" lon="6.69649">
        <ele>415</ele>
        <time>2015-04-26T08:38:02.000Z</time>
      </trkpt>
      <trkpt lat="47.44814" lon="6.69652">
        <ele>415</ele>
        <time>2015-04-26T08:38:03.000Z</time>
      </trkpt>
      <trkpt lat="47.44818" lon="6.69655">
        <ele>414</ele>
        <time>2015-04-26T08:38:04.000Z</time>
      </trkpt>
      <trkpt lat="47.44821" lon="6.69656">
        <ele>414</ele>
        <time>2015-04-26T08:38:05.000Z</time>
      </trkpt>
      <trkpt lat="47.44826" lon="6.69658">
        <ele>414</ele>
        <time>2015-04-26T08:38:06.000Z</time>
      </trkpt>
      <trkpt lat="47.44831" lon="6.69659">
        <ele>413</ele>
        <time>2015-04-26T08:38:07.000Z</time>
      </trkpt>
      <trkpt lat="47.4484" lon="6.69662">
        <ele>411</ele>
        <time>2015-04-26T08:38:08.000Z</time>
      </trkpt>
      <trkpt lat="47.44846" lon="6.69666">
        <ele>411</ele>
        <time>2015-04-26T08:38:09.000Z</time>
      </trkpt>
      <trkpt lat="47.44851" lon="6.69669">
        <ele>413</ele>
        <time>2015-04-26T08:38:10.000Z</time>
      </trkpt>
      <trkpt lat="47.44856" lon="6.69671">
        <ele>413</ele>
        <time>2015-04-26T08:38:11.000Z</time>
      </trkpt>
      <trkpt lat="47.44861" lon="6.69672">
        <ele>414</ele>
        <time>2015-04-26T08:38:12.000Z</time>
      </trkpt>
      <trkpt lat="47.44867" lon="6.69668">
        <ele>414</ele>
        <time>2015-04-26T08:38:13.000Z</time>
      </trkpt>
      <trkpt lat="47.44871" lon="6.69668">
        <ele>414</ele>
        <time>2015-04-26T08:38:14.000Z</time>
      </trkpt>
      <trkpt lat="47.44873" lon="6.69668">
        <ele>414</ele>
        <time>2015-04-26T08:38:15.000Z</time>
      </trkpt>
      <trkpt lat="47.44876" lon="6.69665">
        <ele>411</ele>
        <time>2015-04-26T08:38:16.000Z</time>
      </trkpt>
      <trkpt lat="47.44877" lon="6.69664">
        <ele>411</ele>
        <time>2015-04-26T08:38:17.000Z</time>
      </trkpt>
      <trkpt lat="47.44879" lon="6.69659">
        <ele>411</ele>
        <time>2015-04-26T08:38:19.000Z</time>
      </trkpt>
      <trkpt lat="47.4488" lon="6.69656">
        <ele>410</ele>
        <time>2015-04-26T08:38:20.000Z</time>
      </trkpt>
      <trkpt lat="47.4488" lon="6.6965">
        <ele>410</ele>
        <time>2015-04-26T08:38:22.000Z</time>
      </trkpt>
      <trkpt lat="47.4488" lon="6.69648">
        <ele>410</ele>
        <time>2015-04-26T08:38:23.000Z</time>
      </trkpt>
      <trkpt lat="47.44877" lon="6.69643">
        <ele>410</ele>
        <time>2015-04-26T08:38:26.000Z</time>
      </trkpt>
      <trkpt lat="47.44875" lon="6.6964">
        <ele>410</ele>
        <time>2015-04-26T08:38:27.000Z</time>
      </trkpt>
      <trkpt lat="47.44873" lon="6.69635">
        <ele>410</ele>
        <time>2015-04-26T08:38:28.000Z</time>
      </trkpt>
      <trkpt lat="47.44871" lon="6.6963">
        <ele>410</ele>
        <time>2015-04-26T08:38:29.000Z</time>
      </trkpt>
      <trkpt lat="47.4487" lon="6.69625">
        <ele>410</ele>
        <time>2015-04-26T08:38:30.000Z</time>
      </trkpt>
      <trkpt lat="47.44869" lon="6.69621">
        <ele>410</ele>
        <time>2015-04-26T08:38:31.000Z</time>
      </trkpt>
      <trkpt lat="47.44868" lon="6.69617">
        <ele>410</ele>
        <time>2015-04-26T08:38:32.000Z</time>
      </trkpt>
      <trkpt lat="47.44867" lon="6.69611">
        <ele>409</ele>
        <time>2015-04-26T08:38:33.000Z</time>
      </trkpt>
      <trkpt lat="47.44866" lon="6.69605">
        <ele>409</ele>
        <time>2015-04-26T08:38:34.000Z</time>
      </trkpt>
      <trkpt lat="47.44865" lon="6.69599">
        <ele>409</ele>
        <time>2015-04-26T08:38:35.000Z</time>
      </trkpt>
      <trkpt lat="47.44864" lon="6.69593">
        <ele>409</ele>
        <time>2015-04-26T08:38:36.000Z</time>
      </trkpt>
      <trkpt lat="47.44863" lon="6.69588">
        <ele>409</ele>
        <time>2015-04-26T08:38:37.000Z</time>
      </trkpt>
      <trkpt lat="47.44862" lon="6.69584">
        <ele>409</ele>
        <time>2015-04-26T08:38:38.000Z</time>
      </trkpt>
      <trkpt lat="47.44862" lon="6.6958">
        <ele>406</ele>
        <time>2015-04-26T08:38:39.000Z</time>
      </trkpt>
      <trkpt lat="47.44861" lon="6.69576">
        <ele>406</ele>
        <time>2015-04-26T08:38:40.000Z</time>
      </trkpt>
      <trkpt lat="47.44861" lon="6.69572">
        <ele>406</ele>
        <time>2015-04-26T08:38:41.000Z</time>
      </trkpt>
      <trkpt lat="47.4486" lon="6.69567">
        <ele>406</ele>
        <time>2015-04-26T08:38:42.000Z</time>
      </trkpt>
      <trkpt lat="47.44862" lon="6.69551">
        <ele>405</ele>
        <time>2015-04-26T08:38:43.000Z</time>
      </trkpt>
      <trkpt lat="47.44861" lon="6.69545">
        <ele>405</ele>
        <time>2015-04-26T08:38:44.000Z</time>
      </trkpt>
      <trkpt lat="47.44861" lon="6.69539">
        <ele>404</ele>
        <time>2015-04-26T08:38:45.000Z</time>
      </trkpt>
      <trkpt lat="47.44861" lon="6.69532">
        <ele>404</ele>
        <time>2015-04-26T08:38:46.000Z</time>
      </trkpt>
      <trkpt lat="47.44863" lon="6.69524">
        <ele>404</ele>
        <time>2015-04-26T08:38:47.000Z</time>
      </trkpt>
      <trkpt lat="47.44863" lon="6.69515">
        <ele>403</ele>
        <time>2015-04-26T08:38:48.000Z</time>
      </trkpt>
      <trkpt lat="47.44863" lon="6.69506">
        <ele>403</ele>
        <time>2015-04-26T08:38:49.000Z</time>
      </trkpt>
      <trkpt lat="47.44864" lon="6.69496">
        <ele>398</ele>
        <time>2015-04-26T08:38:50.000Z</time>
      </trkpt>
      <trkpt lat="47.44864" lon="6.69489">
        <ele>398</ele>
        <time>2015-04-26T08:38:51.000Z</time>
      </trkpt>
      <trkpt lat="47.44865" lon="6.69482">
        <ele>398</ele>
        <time>2015-04-26T08:38:52.000Z</time>
      </trkpt>
      <trkpt lat="47.44865" lon="6.69475">
        <ele>397</ele>
        <time>2015-04-26T08:38:53.000Z</time>
      </trkpt>
      <trkpt lat="47.44864" lon="6.69468">
        <ele>397</ele>
        <time>2015-04-26T08:38:54.000Z</time>
      </trkpt>
      <trkpt lat="47.44864" lon="6.69461">
        <ele>397</ele>
        <time>2015-04-26T08:38:55.000Z</time>
      </trkpt>
      <trkpt lat="47.44867" lon="6.69457">
        <ele>396</ele>
        <time>2015-04-26T08:38:56.000Z</time>
      </trkpt>
      <trkpt lat="47.44868" lon="6.69451">
        <ele>396</ele>
        <time>2015-04-26T08:38:57.000Z</time>
      </trkpt>
      <trkpt lat="47.44868" lon="6.69445">
        <ele>396</ele>
        <time>2015-04-26T08:38:58.000Z</time>
      </trkpt>
      <trkpt lat="47.44868" lon="6.69439">
        <ele>395</ele>
        <time>2015-04-26T08:38:59.000Z</time>
      </trkpt>
      <trkpt lat="47.44869" lon="6.69434">
        <ele>395</ele>
        <time>2015-04-26T08:39:00.000Z</time>
      </trkpt>
      <trkpt lat="47.44869" lon="6.6943">
        <ele>395</ele>
        <time>2015-04-26T08:39:01.000Z</time>
      </trkpt>
      <trkpt lat="47.4487" lon="6.69425">
        <ele>395</ele>
        <time>2015-04-26T08:39:02.000Z</time>
      </trkpt>
      <trkpt lat="47.4487" lon="6.69422">
        <ele>395</ele>
        <time>2015-04-26T08:39:03.000Z</time>
      </trkpt>
      <trkpt lat="47.44872" lon="6.69417">
        <ele>395</ele>
        <time>2015-04-26T08:39:05.000Z</time>
      </trkpt>
      <trkpt lat="47.44873" lon="6.69414">
        <ele>389</ele>
        <time>2015-04-26T08:39:06.000Z</time>
      </trkpt>
      <trkpt lat="47.44873" lon="6.6941">
        <ele>389</ele>
        <time>2015-04-26T08:39:07.000Z</time>
      </trkpt>
      <trkpt lat="47.44873" lon="6.69405">
        <ele>389</ele>
        <time>2015-04-26T08:39:08.000Z</time>
      </trkpt>
      <trkpt lat="47.44873" lon="6.694">
        <ele>389</ele>
        <time>2015-04-26T08:39:09.000Z</time>
      </trkpt>
      <trkpt lat="47.44873" lon="6.69394">
        <ele>388</ele>
        <time>2015-04-26T08:39:10.000Z</time>
      </trkpt>
      <trkpt lat="47.44872" lon="6.69388">
        <ele>388</ele>
        <time>2015-04-26T08:39:11.000Z</time>
      </trkpt>
      <trkpt lat="47.44872" lon="6.69369">
        <ele>387</ele>
        <time>2015-04-26T08:39:12.000Z</time>
      </trkpt>
      <trkpt lat="47.44872" lon="6.69357">
        <ele>387</ele>
        <time>2015-04-26T08:39:13.000Z</time>
      </trkpt>
      <trkpt lat="47.44871" lon="6.69344">
        <ele>386</ele>
        <time>2015-04-26T08:39:14.000Z</time>
      </trkpt>
      <trkpt lat="47.44871" lon="6.69333">
        <ele>381</ele>
        <time>2015-04-26T08:39:15.000Z</time>
      </trkpt>
      <trkpt lat="47.44869" lon="6.69321">
        <ele>380</ele>
        <time>2015-04-26T08:39:16.000Z</time>
      </trkpt>
      <trkpt lat="47.44866" lon="6.69312">
        <ele>380</ele>
        <time>2015-04-26T08:39:17.000Z</time>
      </trkpt>
      <trkpt lat="47.44863" lon="6.69302">
        <ele>379</ele>
        <time>2015-04-26T08:39:18.000Z</time>
      </trkpt>
      <trkpt lat="47.44858" lon="6.69294">
        <ele>378</ele>
        <time>2015-04-26T08:39:19.000Z</time>
      </trkpt>
      <trkpt lat="47.44855" lon="6.69286">
        <ele>377</ele>
        <time>2015-04-26T08:39:20.000Z</time>
      </trkpt>
      <trkpt lat="47.44852" lon="6.69278">
        <ele>376</ele>
        <time>2015-04-26T08:39:21.000Z</time>
      </trkpt>
      <trkpt lat="47.44851" lon="6.69273">
        <ele>376</ele>
        <time>2015-04-26T08:39:22.000Z</time>
      </trkpt>
      <trkpt lat="47.44847" lon="6.69266">
        <ele>374</ele>
        <time>2015-04-26T08:39:23.000Z</time>
      </trkpt>
      <trkpt lat="47.44846" lon="6.6926">
        <ele>373</ele>
        <time>2015-04-26T08:39:24.000Z</time>
      </trkpt>
      <trkpt lat="47.44844" lon="6.69254">
        <ele>372</ele>
        <time>2015-04-26T08:39:25.000Z</time>
      </trkpt>
      <trkpt lat="47.44843" lon="6.69251">
        <ele>372</ele>
        <time>2015-04-26T08:39:26.000Z</time>
      </trkpt>
      <trkpt lat="47.44842" lon="6.69245">
        <ele>369</ele>
        <time>2015-04-26T08:39:27.000Z</time>
      </trkpt>
      <trkpt lat="47.44837" lon="6.6924">
        <ele>369</ele>
        <time>2015-04-26T08:39:28.000Z</time>
      </trkpt>
      <trkpt lat="47.44829" lon="6.6923">
        <ele>364</ele>
        <time>2015-04-26T08:39:29.000Z</time>
      </trkpt>
      <trkpt lat="47.44824" lon="6.69224">
        <ele>363</ele>
        <time>2015-04-26T08:39:30.000Z</time>
      </trkpt>
      <trkpt lat="47.44821" lon="6.69219">
        <ele>363</ele>
        <time>2015-04-26T08:39:31.000Z</time>
      </trkpt>
      <trkpt lat="47.44816" lon="6.69212">
        <ele>362</ele>
        <time>2015-04-26T08:39:32.000Z</time>
      </trkpt>
      <trkpt lat="47.44809" lon="6.69204">
        <ele>362</ele>
        <time>2015-04-26T08:39:33.000Z</time>
      </trkpt>
      <trkpt lat="47.44806" lon="6.69199">
        <ele>361</ele>
        <time>2015-04-26T08:39:34.000Z</time>
      </trkpt>
      <trkpt lat="47.44805" lon="6.69193">
        <ele>361</ele>
        <time>2015-04-26T08:39:37.000Z</time>
      </trkpt>
      <trkpt lat="47.44804" lon="6.69191">
        <ele>361</ele>
        <time>2015-04-26T08:39:38.000Z</time>
      </trkpt>
      <trkpt lat="47.44803" lon="6.69185">
        <ele>361</ele>
        <time>2015-04-26T08:39:42.000Z</time>
      </trkpt>
      <trkpt lat="47.448" lon="6.69184">
        <ele>360</ele>
        <time>2015-04-26T08:39:43.000Z</time>
      </trkpt>
      <trkpt lat="47.44797" lon="6.69181">
        <ele>360</ele>
        <time>2015-04-26T08:39:45.000Z</time>
      </trkpt>
      <trkpt lat="47.44796" lon="6.69179">
        <ele>360</ele>
        <time>2015-04-26T08:39:46.000Z</time>
      </trkpt>
      <trkpt lat="47.44795" lon="6.69176">
        <ele>360</ele>
        <time>2015-04-26T08:39:47.000Z</time>
      </trkpt>
      <trkpt lat="47.44793" lon="6.69172">
        <ele>360</ele>
        <time>2015-04-26T08:39:48.000Z</time>
      </trkpt>
      <trkpt lat="47.44792" lon="6.69168">
        <ele>359</ele>
        <time>2015-04-26T08:39:49.000Z</time>
      </trkpt>
      <trkpt lat="47.44791" lon="6.69164">
        <ele>355</ele>
        <time>2015-04-26T08:39:50.000Z</time>
      </trkpt>
      <trkpt lat="47.4479" lon="6.6916">
        <ele>355</ele>
        <time>2015-04-26T08:39:51.000Z</time>
      </trkpt>
      <trkpt lat="47.44789" lon="6.69155">
        <ele>355</ele>
        <time>2015-04-26T08:39:52.000Z</time>
      </trkpt>
      <trkpt lat="47.44788" lon="6.6915">
        <ele>354</ele>
        <time>2015-04-26T08:39:53.000Z</time>
      </trkpt>
      <trkpt lat="47.44789" lon="6.69145">
        <ele>354</ele>
        <time>2015-04-26T08:39:54.000Z</time>
      </trkpt>
      <trkpt lat="47.44789" lon="6.6914">
        <ele>354</ele>
        <time>2015-04-26T08:39:55.000Z</time>
      </trkpt>
      <trkpt lat="47.4479" lon="6.69136">
        <ele>354</ele>
        <time>2015-04-26T08:39:56.000Z</time>
      </trkpt>
      <trkpt lat="47.4479" lon="6.69133">
        <ele>354</ele>
        <time>2015-04-26T08:39:57.000Z</time>
      </trkpt>
      <trkpt lat="47.44792" lon="6.6913">
        <ele>354</ele>
        <time>2015-04-26T08:39:58.000Z</time>
      </trkpt>
      <trkpt lat="47.44794" lon="6.69128">
        <ele>354</ele>
        <time>2015-04-26T08:39:59.000Z</time>
      </trkpt>
      <trkpt lat="47.44796" lon="6.69125">
        <ele>354</ele>
        <time>2015-04-26T08:40:00.000Z</time>
      </trkpt>
      <trkpt lat="47.44798" lon="6.69123">
        <ele>354</ele>
        <time>2015-04-26T08:40:01.000Z</time>
      </trkpt>
      <trkpt lat="47.448" lon="6.6912">
        <ele>354</ele>
        <time>2015-04-26T08:40:02.000Z</time>
      </trkpt>
      <trkpt lat="47.44802" lon="6.69117">
        <ele>354</ele>
        <time>2015-04-26T08:40:03.000Z</time>
      </trkpt>
      <trkpt lat="47.44803" lon="6.69113">
        <ele>354</ele>
        <time>2015-04-26T08:40:04.000Z</time>
      </trkpt>
      <trkpt lat="47.44805" lon="6.69108">
        <ele>354</ele>
        <time>2015-04-26T08:40:05.000Z</time>
      </trkpt>
      <trkpt lat="47.44807" lon="6.69102">
        <ele>354</ele>
        <time>2015-04-26T08:40:06.000Z</time>
      </trkpt>
      <trkpt lat="47.44808" lon="6.69097">
        <ele>354</ele>
        <time>2015-04-26T08:40:07.000Z</time>
      </trkpt>
      <trkpt lat="47.4481" lon="6.69091">
        <ele>354</ele>
        <time>2015-04-26T08:40:08.000Z</time>
      </trkpt>
      <trkpt lat="47.44811" lon="6.69085">
        <ele>354</ele>
        <time>2015-04-26T08:40:09.000Z</time>
      </trkpt>
      <trkpt lat="47.44812" lon="6.69078">
        <ele>351</ele>
        <time>2015-04-26T08:40:10.000Z</time>
      </trkpt>
      <trkpt lat="47.44813" lon="6.69071">
        <ele>351</ele>
        <time>2015-04-26T08:40:11.000Z</time>
      </trkpt>
      <trkpt lat="47.44814" lon="6.69065">
        <ele>351</ele>
        <time>2015-04-26T08:40:12.000Z</time>
      </trkpt>
      <trkpt lat="47.44814" lon="6.6906">
        <ele>350</ele>
        <time>2015-04-26T08:40:13.000Z</time>
      </trkpt>
      <trkpt lat="47.44814" lon="6.69055">
        <ele>350</ele>
        <time>2015-04-26T08:40:14.000Z</time>
      </trkpt>
      <trkpt lat="47.44814" lon="6.69052">
        <ele>350</ele>
        <time>2015-04-26T08:40:15.000Z</time>
      </trkpt>
      <trkpt lat="47.44814" lon="6.69048">
        <ele>350</ele>
        <time>2015-04-26T08:40:16.000Z</time>
      </trkpt>
      <trkpt lat="47.44815" lon="6.69045">
        <ele>350</ele>
        <time>2015-04-26T08:40:17.000Z</time>
      </trkpt>
      <trkpt lat="47.44815" lon="6.69039">
        <ele>349</ele>
        <time>2015-04-26T08:40:19.000Z</time>
      </trkpt>
      <trkpt lat="47.44816" lon="6.69036">
        <ele>349</ele>
        <time>2015-04-26T08:40:20.000Z</time>
      </trkpt>
      <trkpt lat="47.44817" lon="6.69031">
        <ele>348</ele>
        <time>2015-04-26T08:40:23.000Z</time>
      </trkpt>
      <trkpt lat="47.44816" lon="6.69029">
        <ele>348</ele>
        <time>2015-04-26T08:40:24.000Z</time>
      </trkpt>
      <trkpt lat="47.44815" lon="6.69023">
        <ele>348</ele>
        <time>2015-04-26T08:40:26.000Z</time>
      </trkpt>
      <trkpt lat="47.44815" lon="6.69019">
        <ele>348</ele>
        <time>2015-04-26T08:40:27.000Z</time>
      </trkpt>
      <trkpt lat="47.44816" lon="6.69015">
        <ele>347</ele>
        <time>2015-04-26T08:40:28.000Z</time>
      </trkpt>
      <trkpt lat="47.44817" lon="6.69009">
        <ele>347</ele>
        <time>2015-04-26T08:40:29.000Z</time>
      </trkpt>
      <trkpt lat="47.44818" lon="6.69003">
        <ele>346</ele>
        <time>2015-04-26T08:40:30.000Z</time>
      </trkpt>
      <trkpt lat="47.44819" lon="6.68997">
        <ele>344</ele>
        <time>2015-04-26T08:40:31.000Z</time>
      </trkpt>
      <trkpt lat="47.4482" lon="6.6899">
        <ele>344</ele>
        <time>2015-04-26T08:40:32.000Z</time>
      </trkpt>
      <trkpt lat="47.44821" lon="6.68983">
        <ele>344</ele>
        <time>2015-04-26T08:40:33.000Z</time>
      </trkpt>
      <trkpt lat="47.44821" lon="6.68978">
        <ele>344</ele>
        <time>2015-04-26T08:40:34.000Z</time>
      </trkpt>
      <trkpt lat="47.44822" lon="6.68973">
        <ele>344</ele>
        <time>2015-04-26T08:40:35.000Z</time>
      </trkpt>
      <trkpt lat="47.44822" lon="6.68967">
        <ele>344</ele>
        <time>2015-04-26T08:40:40.000Z</time>
      </trkpt>
      <trkpt lat="47.44822" lon="6.68964">
        <ele>344</ele>
        <time>2015-04-26T08:40:41.000Z</time>
      </trkpt>
      <trkpt lat="47.44818" lon="6.68951">
        <ele>344</ele>
        <time>2015-04-26T08:40:42.000Z</time>
      </trkpt>
      <trkpt lat="47.44817" lon="6.68945">
        <ele>343</ele>
        <time>2015-04-26T08:40:43.000Z</time>
      </trkpt>
      <trkpt lat="47.44818" lon="6.68937">
        <ele>343</ele>
        <time>2015-04-26T08:40:44.000Z</time>
      </trkpt>
      <trkpt lat="47.44818" lon="6.6893">
        <ele>342</ele>
        <time>2015-04-26T08:40:45.000Z</time>
      </trkpt>
      <trkpt lat="47.44818" lon="6.68918">
        <ele>341</ele>
        <time>2015-04-26T08:40:46.000Z</time>
      </trkpt>
      <trkpt lat="47.44817" lon="6.68906">
        <ele>338</ele>
        <time>2015-04-26T08:40:47.000Z</time>
      </trkpt>
      <trkpt lat="47.44819" lon="6.68896">
        <ele>339</ele>
        <time>2015-04-26T08:40:48.000Z</time>
      </trkpt>
      <trkpt lat="47.44819" lon="6.68883">
        <ele>338</ele>
        <time>2015-04-26T08:40:49.000Z</time>
      </trkpt>
      <trkpt lat="47.44819" lon="6.68869">
        <ele>337</ele>
        <time>2015-04-26T08:40:50.000Z</time>
      </trkpt>
      <trkpt lat="47.44818" lon="6.68854">
        <ele>336</ele>
        <time>2015-04-26T08:40:51.000Z</time>
      </trkpt>
      <trkpt lat="47.44821" lon="6.68842">
        <ele>332</ele>
        <time>2015-04-26T08:40:52.000Z</time>
      </trkpt>
      <trkpt lat="47.44821" lon="6.68829">
        <ele>328</ele>
        <time>2015-04-26T08:40:53.000Z</time>
      </trkpt>
      <trkpt lat="47.44824" lon="6.6882">
        <ele>328</ele>
        <time>2015-04-26T08:40:54.000Z</time>
      </trkpt>
      <trkpt lat="47.44826" lon="6.68814">
        <ele>328</ele>
        <time>2015-04-26T08:40:55.000Z</time>
      </trkpt>
      <trkpt lat="47.44826" lon="6.68807">
        <ele>329</ele>
        <time>2015-04-26T08:40:56.000Z</time>
      </trkpt>
      <trkpt lat="47.44823" lon="6.68808">
        <ele>329</ele>
        <time>2015-04-26T08:40:57.000Z</time>
      </trkpt>
      <trkpt lat="47.44821" lon="6.68804">
        <ele>329</ele>
        <time>2015-04-26T08:40:58.000Z</time>
      </trkpt>
      <trkpt lat="47.44818" lon="6.688">
        <ele>329</ele>
        <time>2015-04-26T08:41:00.000Z</time>
      </trkpt>
      <trkpt lat="47.44817" lon="6.68798">
        <ele>329</ele>
        <time>2015-04-26T08:41:01.000Z</time>
      </trkpt>
      <trkpt lat="47.44815" lon="6.68793">
        <ele>329</ele>
        <time>2015-04-26T08:41:03.000Z</time>
      </trkpt>
      <trkpt lat="47.44814" lon="6.68792">
        <ele>329</ele>
        <time>2015-04-26T08:41:04.000Z</time>
      </trkpt>
      <trkpt lat="47.4481" lon="6.68788">
        <ele>329</ele>
        <time>2015-04-26T08:41:07.000Z</time>
      </trkpt>
      <trkpt lat="47.44809" lon="6.68787">
        <ele>329</ele>
        <time>2015-04-26T08:41:08.000Z</time>
      </trkpt>
      <trkpt lat="47.44808" lon="6.68781">
        <ele>329</ele>
        <time>2015-04-26T08:41:11.000Z</time>
      </trkpt>
      <trkpt lat="47.44808" lon="6.68778">
        <ele>329</ele>
        <time>2015-04-26T08:41:12.000Z</time>
      </trkpt>
      <trkpt lat="47.44808" lon="6.68775">
        <ele>328</ele>
        <time>2015-04-26T08:41:13.000Z</time>
      </trkpt>
      <trkpt lat="47.44807" lon="6.68771">
        <ele>328</ele>
        <time>2015-04-26T08:41:14.000Z</time>
      </trkpt>
      <trkpt lat="47.44807" lon="6.68767">
        <ele>327</ele>
        <time>2015-04-26T08:41:15.000Z</time>
      </trkpt>
      <trkpt lat="47.44807" lon="6.68762">
        <ele>327</ele>
        <time>2015-04-26T08:41:16.000Z</time>
      </trkpt>
      <trkpt lat="47.44806" lon="6.68757">
        <ele>327</ele>
        <time>2015-04-26T08:41:17.000Z</time>
      </trkpt>
      <trkpt lat="47.44806" lon="6.68751">
        <ele>327</ele>
        <time>2015-04-26T08:41:18.000Z</time>
      </trkpt>
      <trkpt lat="47.44806" lon="6.68745">
        <ele>321</ele>
        <time>2015-04-26T08:41:19.000Z</time>
      </trkpt>
      <trkpt lat="47.44806" lon="6.68738">
        <ele>321</ele>
        <time>2015-04-26T08:41:20.000Z</time>
      </trkpt>
      <trkpt lat="47.44806" lon="6.68732">
        <ele>321</ele>
        <time>2015-04-26T08:41:21.000Z</time>
      </trkpt>
      <trkpt lat="47.44806" lon="6.68726">
        <ele>321</ele>
        <time>2015-04-26T08:41:22.000Z</time>
      </trkpt>
      <trkpt lat="47.44806" lon="6.68722">
        <ele>321</ele>
        <time>2015-04-26T08:41:23.000Z</time>
      </trkpt>
      <trkpt lat="47.44806" lon="6.68719">
        <ele>321</ele>
        <time>2015-04-26T08:41:24.000Z</time>
      </trkpt>
      <trkpt lat="47.44804" lon="6.68713">
        <ele>321</ele>
        <time>2015-04-26T08:41:26.000Z</time>
      </trkpt>
      <trkpt lat="47.44804" lon="6.68709">
        <ele>320</ele>
        <time>2015-04-26T08:41:27.000Z</time>
      </trkpt>
      <trkpt lat="47.44803" lon="6.68706">
        <ele>320</ele>
        <time>2015-04-26T08:41:28.000Z</time>
      </trkpt>
      <trkpt lat="47.44802" lon="6.68701">
        <ele>320</ele>
        <time>2015-04-26T08:41:29.000Z</time>
      </trkpt>
      <trkpt lat="47.44801" lon="6.68696">
        <ele>320</ele>
        <time>2015-04-26T08:41:30.000Z</time>
      </trkpt>
      <trkpt lat="47.44799" lon="6.6869">
        <ele>320</ele>
        <time>2015-04-26T08:41:31.000Z</time>
      </trkpt>
      <trkpt lat="47.44798" lon="6.68684">
        <ele>320</ele>
        <time>2015-04-26T08:41:32.000Z</time>
      </trkpt>
      <trkpt lat="47.44796" lon="6.68678">
        <ele>320</ele>
        <time>2015-04-26T08:41:33.000Z</time>
      </trkpt>
      <trkpt lat="47.44794" lon="6.68673">
        <ele>320</ele>
        <time>2015-04-26T08:41:34.000Z</time>
      </trkpt>
      <trkpt lat="47.44793" lon="6.68668">
        <ele>320</ele>
        <time>2015-04-26T08:41:35.000Z</time>
      </trkpt>
      <trkpt lat="47.44792" lon="6.68663">
        <ele>315</ele>
        <time>2015-04-26T08:41:36.000Z</time>
      </trkpt>
      <trkpt lat="47.44791" lon="6.68656">
        <ele>315</ele>
        <time>2015-04-26T08:41:37.000Z</time>
      </trkpt>
      <trkpt lat="47.44789" lon="6.68648">
        <ele>315</ele>
        <time>2015-04-26T08:41:38.000Z</time>
      </trkpt>
      <trkpt lat="47.44787" lon="6.68639">
        <ele>315</ele>
        <time>2015-04-26T08:41:39.000Z</time>
      </trkpt>
      <trkpt lat="47.44785" lon="6.68631">
        <ele>315</ele>
        <time>2015-04-26T08:41:40.000Z</time>
      </trkpt>
      <trkpt lat="47.44783" lon="6.68623">
        <ele>315</ele>
        <time>2015-04-26T08:41:41.000Z</time>
      </trkpt>
      <trkpt lat="47.44778" lon="6.68603">
        <ele>315</ele>
        <time>2015-04-26T08:41:42.000Z</time>
      </trkpt>
      <trkpt lat="47.44775" lon="6.68594">
        <ele>315</ele>
        <time>2015-04-26T08:41:43.000Z</time>
      </trkpt>
      <trkpt lat="47.44773" lon="6.68586">
        <ele>315</ele>
        <time>2015-04-26T08:41:44.000Z</time>
      </trkpt>
      <trkpt lat="47.44773" lon="6.68581">
        <ele>312</ele>
        <time>2015-04-26T08:41:45.000Z</time>
      </trkpt>
      <trkpt lat="47.44771" lon="6.68574">
        <ele>312</ele>
        <time>2015-04-26T08:41:46.000Z</time>
      </trkpt>
      <trkpt lat="47.44767" lon="6.68569">
        <ele>313</ele>
        <time>2015-04-26T08:41:47.000Z</time>
      </trkpt>
      <trkpt lat="47.44765" lon="6.68564">
        <ele>312</ele>
        <time>2015-04-26T08:41:48.000Z</time>
      </trkpt>
      <trkpt lat="47.4476" lon="6.6856">
        <ele>312</ele>
        <time>2015-04-26T08:41:49.000Z</time>
      </trkpt>
      <trkpt lat="47.44758" lon="6.68554">
        <ele>312</ele>
        <time>2015-04-26T08:41:50.000Z</time>
      </trkpt>
      <trkpt lat="47.44757" lon="6.6855">
        <ele>311</ele>
        <time>2015-04-26T08:41:51.000Z</time>
      </trkpt>
      <trkpt lat="47.44754" lon="6.68545">
        <ele>311</ele>
        <time>2015-04-26T08:41:52.000Z</time>
      </trkpt>
      <trkpt lat="47.44752" lon="6.6854">
        <ele>311</ele>
        <time>2015-04-26T08:41:53.000Z</time>
      </trkpt>
      <trkpt lat="47.44752" lon="6.68535">
        <ele>311</ele>
        <time>2015-04-26T08:41:54.000Z</time>
      </trkpt>
      <trkpt lat="47.4475" lon="6.68529">
        <ele>311</ele>
        <time>2015-04-26T08:41:55.000Z</time>
      </trkpt>
      <trkpt lat="47.4475" lon="6.68523">
        <ele>323</ele>
        <time>2015-04-26T08:41:56.000Z</time>
      </trkpt>
      <trkpt lat="47.44749" lon="6.68516">
        <ele>321</ele>
        <time>2015-04-26T08:41:57.000Z</time>
      </trkpt>
      <trkpt lat="47.44744" lon="6.68502">
        <ele>317</ele>
        <time>2015-04-26T08:41:58.000Z</time>
      </trkpt>
      <trkpt lat="47.4474" lon="6.68496">
        <ele>316</ele>
        <time>2015-04-26T08:41:59.000Z</time>
      </trkpt>
      <trkpt lat="47.44738" lon="6.68489">
        <ele>317</ele>
        <time>2015-04-26T08:42:00.000Z</time>
      </trkpt>
      <trkpt lat="47.44735" lon="6.68483">
        <ele>318</ele>
        <time>2015-04-26T08:42:01.000Z</time>
      </trkpt>
      <trkpt lat="47.44732" lon="6.68477">
        <ele>319</ele>
        <time>2015-04-26T08:42:02.000Z</time>
      </trkpt>
      <trkpt lat="47.4473" lon="6.68469">
        <ele>319</ele>
        <time>2015-04-26T08:42:03.000Z</time>
      </trkpt>
      <trkpt lat="47.44727" lon="6.68463">
        <ele>320</ele>
        <time>2015-04-26T08:42:04.000Z</time>
      </trkpt>
      <trkpt lat="47.44727" lon="6.68455">
        <ele>319</ele>
        <time>2015-04-26T08:42:05.000Z</time>
      </trkpt>
      <trkpt lat="47.44725" lon="6.68448">
        <ele>319</ele>
        <time>2015-04-26T08:42:06.000Z</time>
      </trkpt>
      <trkpt lat="47.44723" lon="6.68443">
        <ele>319</ele>
        <time>2015-04-26T08:42:07.000Z</time>
      </trkpt>
      <trkpt lat="47.44723" lon="6.68435">
        <ele>318</ele>
        <time>2015-04-26T08:42:08.000Z</time>
      </trkpt>
      <trkpt lat="47.44726" lon="6.68426">
        <ele>316</ele>
        <time>2015-04-26T08:42:09.000Z</time>
      </trkpt>
      <trkpt lat="47.44726" lon="6.6842">
        <ele>316</ele>
        <time>2015-04-26T08:42:10.000Z</time>
      </trkpt>
      <trkpt lat="47.44725" lon="6.68415">
        <ele>311</ele>
        <time>2015-04-26T08:42:11.000Z</time>
      </trkpt>
      <trkpt lat="47.44723" lon="6.6841">
        <ele>312</ele>
        <time>2015-04-26T08:42:12.000Z</time>
      </trkpt>
      <trkpt lat="47.44721" lon="6.68401">
        <ele>312</ele>
        <time>2015-04-26T08:42:13.000Z</time>
      </trkpt>
      <trkpt lat="47.44719" lon="6.68392">
        <ele>313</ele>
        <time>2015-04-26T08:42:14.000Z</time>
      </trkpt>
      <trkpt lat="47.44712" lon="6.68388">
        <ele>313</ele>
        <time>2015-04-26T08:42:15.000Z</time>
      </trkpt>
      <trkpt lat="47.44707" lon="6.68384">
        <ele>314</ele>
        <time>2015-04-26T08:42:16.000Z</time>
      </trkpt>
      <trkpt lat="47.44703" lon="6.68384">
        <ele>314</ele>
        <time>2015-04-26T08:42:17.000Z</time>
      </trkpt>
      <trkpt lat="47.44702" lon="6.68383">
        <ele>315</ele>
        <time>2015-04-26T08:42:18.000Z</time>
      </trkpt>
      <trkpt lat="47.44701" lon="6.68379">
        <ele>314</ele>
        <time>2015-04-26T08:42:20.000Z</time>
      </trkpt>
      <trkpt lat="47.44698" lon="6.68376">
        <ele>314</ele>
        <time>2015-04-26T08:42:21.000Z</time>
      </trkpt>
      <trkpt lat="47.44697" lon="6.68373">
        <ele>314</ele>
        <time>2015-04-26T08:42:22.000Z</time>
      </trkpt>
      <trkpt lat="47.44696" lon="6.68368">
        <ele>314</ele>
        <time>2015-04-26T08:42:23.000Z</time>
      </trkpt>
      <trkpt lat="47.44695" lon="6.68363">
        <ele>314</ele>
        <time>2015-04-26T08:42:24.000Z</time>
      </trkpt>
      <trkpt lat="47.44692" lon="6.68359">
        <ele>314</ele>
        <time>2015-04-26T08:42:25.000Z</time>
      </trkpt>
      <trkpt lat="47.44689" lon="6.68354">
        <ele>314</ele>
        <time>2015-04-26T08:42:26.000Z</time>
      </trkpt>
      <trkpt lat="47.44686" lon="6.68349">
        <ele>314</ele>
        <time>2015-04-26T08:42:27.000Z</time>
      </trkpt>
      <trkpt lat="47.44684" lon="6.68344">
        <ele>314</ele>
        <time>2015-04-26T08:42:28.000Z</time>
      </trkpt>
      <trkpt lat="47.44683" lon="6.68339">
        <ele>314</ele>
        <time>2015-04-26T08:42:29.000Z</time>
      </trkpt>
      <trkpt lat="47.44682" lon="6.68334">
        <ele>314</ele>
        <time>2015-04-26T08:42:30.000Z</time>
      </trkpt>
      <trkpt lat="47.44682" lon="6.6833">
        <ele>311</ele>
        <time>2015-04-26T08:42:31.000Z</time>
      </trkpt>
      <trkpt lat="47.44681" lon="6.68326">
        <ele>311</ele>
        <time>2015-04-26T08:42:32.000Z</time>
      </trkpt>
      <trkpt lat="47.44679" lon="6.68323">
        <ele>311</ele>
        <time>2015-04-26T08:42:33.000Z</time>
      </trkpt>
      <trkpt lat="47.44676" lon="6.68321">
        <ele>311</ele>
        <time>2015-04-26T08:42:34.000Z</time>
      </trkpt>
      <trkpt lat="47.44674" lon="6.6832">
        <ele>311</ele>
        <time>2015-04-26T08:42:35.000Z</time>
      </trkpt>
      <trkpt lat="47.44671" lon="6.68318">
        <ele>311</ele>
        <time>2015-04-26T08:42:36.000Z</time>
      </trkpt>
      <trkpt lat="47.4467" lon="6.68316">
        <ele>311</ele>
        <time>2015-04-26T08:42:37.000Z</time>
      </trkpt>
      <trkpt lat="47.44667" lon="6.68312">
        <ele>310</ele>
        <time>2015-04-26T08:42:39.000Z</time>
      </trkpt>
      <trkpt lat="47.44665" lon="6.68311">
        <ele>321</ele>
        <time>2015-04-26T08:42:40.000Z</time>
      </trkpt>
      <trkpt lat="47.44663" lon="6.68307">
        <ele>321</ele>
        <time>2015-04-26T08:42:42.000Z</time>
      </trkpt>
      <trkpt lat="47.44662" lon="6.68306">
        <ele>321</ele>
        <time>2015-04-26T08:42:43.000Z</time>
      </trkpt>
      <trkpt lat="47.4466" lon="6.68301">
        <ele>322</ele>
        <time>2015-04-26T08:42:56.000Z</time>
      </trkpt>
      <trkpt lat="47.44659" lon="6.68299">
        <ele>322</ele>
        <time>2015-04-26T08:42:57.000Z</time>
      </trkpt>
      <trkpt lat="47.44657" lon="6.68295">
        <ele>322</ele>
        <time>2015-04-26T08:42:59.000Z</time>
      </trkpt>
      <trkpt lat="47.44656" lon="6.68292">
        <ele>322</ele>
        <time>2015-04-26T08:43:00.000Z</time>
      </trkpt>
      <trkpt lat="47.44654" lon="6.68288">
        <ele>321</ele>
        <time>2015-04-26T08:43:01.000Z</time>
      </trkpt>
      <trkpt lat="47.44651" lon="6.68284">
        <ele>321</ele>
        <time>2015-04-26T08:43:02.000Z</time>
      </trkpt>
      <trkpt lat="47.44648" lon="6.68279">
        <ele>321</ele>
        <time>2015-04-26T08:43:03.000Z</time>
      </trkpt>
      <trkpt lat="47.44645" lon="6.68273">
        <ele>321</ele>
        <time>2015-04-26T08:43:04.000Z</time>
      </trkpt>
      <trkpt lat="47.44642" lon="6.68267">
        <ele>321</ele>
        <time>2015-04-26T08:43:05.000Z</time>
      </trkpt>
      <trkpt lat="47.44639" lon="6.68261">
        <ele>321</ele>
        <time>2015-04-26T08:43:06.000Z</time>
      </trkpt>
      <trkpt lat="47.44638" lon="6.68249">
        <ele>314</ele>
        <time>2015-04-26T08:43:07.000Z</time>
      </trkpt>
      <trkpt lat="47.44638" lon="6.68242">
        <ele>314</ele>
        <time>2015-04-26T08:43:08.000Z</time>
      </trkpt>
      <trkpt lat="47.44637" lon="6.68235">
        <ele>314</ele>
        <time>2015-04-26T08:43:09.000Z</time>
      </trkpt>
      <trkpt lat="47.44634" lon="6.6823">
        <ele>315</ele>
        <time>2015-04-26T08:43:10.000Z</time>
      </trkpt>
      <trkpt lat="47.44631" lon="6.68225">
        <ele>315</ele>
        <time>2015-04-26T08:43:11.000Z</time>
      </trkpt>
      <trkpt lat="47.44629" lon="6.6822">
        <ele>316</ele>
        <time>2015-04-26T08:43:12.000Z</time>
      </trkpt>
      <trkpt lat="47.44627" lon="6.68215">
        <ele>316</ele>
        <time>2015-04-26T08:43:13.000Z</time>
      </trkpt>
      <trkpt lat="47.44625" lon="6.68209">
        <ele>316</ele>
        <time>2015-04-26T08:43:14.000Z</time>
      </trkpt>
      <trkpt lat="47.44623" lon="6.68203">
        <ele>316</ele>
        <time>2015-04-26T08:43:15.000Z</time>
      </trkpt>
      <trkpt lat="47.44621" lon="6.68197">
        <ele>316</ele>
        <time>2015-04-26T08:43:16.000Z</time>
      </trkpt>
      <trkpt lat="47.44618" lon="6.6819">
        <ele>316</ele>
        <time>2015-04-26T08:43:17.000Z</time>
      </trkpt>
      <trkpt lat="47.44616" lon="6.68184">
        <ele>316</ele>
        <time>2015-04-26T08:43:18.000Z</time>
      </trkpt>
      <trkpt lat="47.44611" lon="6.68175">
        <ele>316</ele>
        <time>2015-04-26T08:43:19.000Z</time>
      </trkpt>
      <trkpt lat="47.44608" lon="6.68167">
        <ele>317</ele>
        <time>2015-04-26T08:43:20.000Z</time>
      </trkpt>
      <trkpt lat="47.44606" lon="6.6816">
        <ele>313</ele>
        <time>2015-04-26T08:43:21.000Z</time>
      </trkpt>
      <trkpt lat="47.44603" lon="6.68155">
        <ele>313</ele>
        <time>2015-04-26T08:43:22.000Z</time>
      </trkpt>
      <trkpt lat="47.446" lon="6.68145">
        <ele>312</ele>
        <time>2015-04-26T08:43:23.000Z</time>
      </trkpt>
      <trkpt lat="47.44595" lon="6.68139">
        <ele>311</ele>
        <time>2015-04-26T08:43:24.000Z</time>
      </trkpt>
      <trkpt lat="47.44593" lon="6.68134">
        <ele>311</ele>
        <time>2015-04-26T08:43:25.000Z</time>
      </trkpt>
      <trkpt lat="47.44589" lon="6.68128">
        <ele>310</ele>
        <time>2015-04-26T08:43:26.000Z</time>
      </trkpt>
      <trkpt lat="47.44583" lon="6.68122">
        <ele>310</ele>
        <time>2015-04-26T08:43:27.000Z</time>
      </trkpt>
      <trkpt lat="47.44579" lon="6.68115">
        <ele>322</ele>
        <time>2015-04-26T08:43:28.000Z</time>
      </trkpt>
      <trkpt lat="47.44576" lon="6.68109">
        <ele>321</ele>
        <time>2015-04-26T08:43:29.000Z</time>
      </trkpt>
      <trkpt lat="47.44572" lon="6.68103">
        <ele>320</ele>
        <time>2015-04-26T08:43:30.000Z</time>
      </trkpt>
      <trkpt lat="47.44568" lon="6.68098">
        <ele>319</ele>
        <time>2015-04-26T08:43:31.000Z</time>
      </trkpt>
      <trkpt lat="47.44566" lon="6.68091">
        <ele>319</ele>
        <time>2015-04-26T08:43:32.000Z</time>
      </trkpt>
      <trkpt lat="47.44564" lon="6.68085">
        <ele>319</ele>
        <time>2015-04-26T08:43:33.000Z</time>
      </trkpt>
      <trkpt lat="47.4456" lon="6.68077">
        <ele>314</ele>
        <time>2015-04-26T08:43:34.000Z</time>
      </trkpt>
      <trkpt lat="47.44559" lon="6.68072">
        <ele>314</ele>
        <time>2015-04-26T08:43:35.000Z</time>
      </trkpt>
      <trkpt lat="47.44556" lon="6.68067">
        <ele>315</ele>
        <time>2015-04-26T08:43:36.000Z</time>
      </trkpt>
      <trkpt lat="47.44555" lon="6.6806">
        <ele>315</ele>
        <time>2015-04-26T08:43:37.000Z</time>
      </trkpt>
      <trkpt lat="47.44552" lon="6.68051">
        <ele>316</ele>
        <time>2015-04-26T08:43:38.000Z</time>
      </trkpt>
      <trkpt lat="47.4455" lon="6.68043">
        <ele>316</ele>
        <time>2015-04-26T08:43:39.000Z</time>
      </trkpt>
      <trkpt lat="47.44544" lon="6.68037">
        <ele>316</ele>
        <time>2015-04-26T08:43:40.000Z</time>
      </trkpt>
      <trkpt lat="47.4454" lon="6.6803">
        <ele>316</ele>
        <time>2015-04-26T08:43:41.000Z</time>
      </trkpt>
      <trkpt lat="47.44537" lon="6.68023">
        <ele>316</ele>
        <time>2015-04-26T08:43:42.000Z</time>
      </trkpt>
      <trkpt lat="47.44533" lon="6.68016">
        <ele>316</ele>
        <time>2015-04-26T08:43:43.000Z</time>
      </trkpt>
      <trkpt lat="47.4453" lon="6.6801">
        <ele>316</ele>
        <time>2015-04-26T08:43:44.000Z</time>
      </trkpt>
      <trkpt lat="47.44528" lon="6.68006">
        <ele>317</ele>
        <time>2015-04-26T08:43:45.000Z</time>
      </trkpt>
      <trkpt lat="47.44525" lon="6.68">
        <ele>317</ele>
        <time>2015-04-26T08:43:46.000Z</time>
      </trkpt>
      <trkpt lat="47.44523" lon="6.67994">
        <ele>312</ele>
        <time>2015-04-26T08:43:47.000Z</time>
      </trkpt>
      <trkpt lat="47.4452" lon="6.67987">
        <ele>312</ele>
        <time>2015-04-26T08:43:48.000Z</time>
      </trkpt>
      <trkpt lat="47.44514" lon="6.67983">
        <ele>313</ele>
        <time>2015-04-26T08:43:49.000Z</time>
      </trkpt>
      <trkpt lat="47.44511" lon="6.67979">
        <ele>312</ele>
        <time>2015-04-26T08:43:50.000Z</time>
      </trkpt>
      <trkpt lat="47.44509" lon="6.67974">
        <ele>312</ele>
        <time>2015-04-26T08:43:51.000Z</time>
      </trkpt>
      <trkpt lat="47.44505" lon="6.67969">
        <ele>311</ele>
        <time>2015-04-26T08:43:52.000Z</time>
      </trkpt>
      <trkpt lat="47.44501" lon="6.67965">
        <ele>311</ele>
        <time>2015-04-26T08:43:53.000Z</time>
      </trkpt>
      <trkpt lat="47.44497" lon="6.6796">
        <ele>324</ele>
        <time>2015-04-26T08:43:54.000Z</time>
      </trkpt>
      <trkpt lat="47.44494" lon="6.67955">
        <ele>323</ele>
        <time>2015-04-26T08:43:55.000Z</time>
      </trkpt>
      <trkpt lat="47.44491" lon="6.6795">
        <ele>323</ele>
        <time>2015-04-26T08:43:56.000Z</time>
      </trkpt>
      <trkpt lat="47.44489" lon="6.67944">
        <ele>322</ele>
        <time>2015-04-26T08:43:57.000Z</time>
      </trkpt>
      <trkpt lat="47.44489" lon="6.67939">
        <ele>321</ele>
        <time>2015-04-26T08:43:58.000Z</time>
      </trkpt>
      <trkpt lat="47.44488" lon="6.67934">
        <ele>320</ele>
        <time>2015-04-26T08:43:59.000Z</time>
      </trkpt>
      <trkpt lat="47.44487" lon="6.67929">
        <ele>318</ele>
        <time>2015-04-26T08:44:00.000Z</time>
      </trkpt>
      <trkpt lat="47.44482" lon="6.67922">
        <ele>319</ele>
        <time>2015-04-26T08:44:01.000Z</time>
      </trkpt>
      <trkpt lat="47.44479" lon="6.67916">
        <ele>315</ele>
        <time>2015-04-26T08:44:02.000Z</time>
      </trkpt>
      <trkpt lat="47.44476" lon="6.67909">
        <ele>316</ele>
        <time>2015-04-26T08:44:03.000Z</time>
      </trkpt>
      <trkpt lat="47.44474" lon="6.67903">
        <ele>317</ele>
        <time>2015-04-26T08:44:04.000Z</time>
      </trkpt>
      <trkpt lat="47.4447" lon="6.67895">
        <ele>318</ele>
        <time>2015-04-26T08:44:05.000Z</time>
      </trkpt>
      <trkpt lat="47.44468" lon="6.67888">
        <ele>319</ele>
        <time>2015-04-26T08:44:06.000Z</time>
      </trkpt>
      <trkpt lat="47.44466" lon="6.6788">
        <ele>319</ele>
        <time>2015-04-26T08:44:07.000Z</time>
      </trkpt>
      <trkpt lat="47.44464" lon="6.67872">
        <ele>319</ele>
        <time>2015-04-26T08:44:08.000Z</time>
      </trkpt>
      <trkpt lat="47.44462" lon="6.67866">
        <ele>319</ele>
        <time>2015-04-26T08:44:09.000Z</time>
      </trkpt>
      <trkpt lat="47.44461" lon="6.67858">
        <ele>319</ele>
        <time>2015-04-26T08:44:10.000Z</time>
      </trkpt>
      <trkpt lat="47.44458" lon="6.6785">
        <ele>319</ele>
        <time>2015-04-26T08:44:11.000Z</time>
      </trkpt>
      <trkpt lat="47.44456" lon="6.67843">
        <ele>319</ele>
        <time>2015-04-26T08:44:12.000Z</time>
      </trkpt>
      <trkpt lat="47.44454" lon="6.67835">
        <ele>319</ele>
        <time>2015-04-26T08:44:13.000Z</time>
      </trkpt>
      <trkpt lat="47.44452" lon="6.67828">
        <ele>314</ele>
        <time>2015-04-26T08:44:14.000Z</time>
      </trkpt>
      <trkpt lat="47.4445" lon="6.67821">
        <ele>314</ele>
        <time>2015-04-26T08:44:15.000Z</time>
      </trkpt>
      <trkpt lat="47.44447" lon="6.67814">
        <ele>314</ele>
        <time>2015-04-26T08:44:16.000Z</time>
      </trkpt>
      <trkpt lat="47.44445" lon="6.67808">
        <ele>314</ele>
        <time>2015-04-26T08:44:17.000Z</time>
      </trkpt>
      <trkpt lat="47.44444" lon="6.67802">
        <ele>314</ele>
        <time>2015-04-26T08:44:18.000Z</time>
      </trkpt>
      <trkpt lat="47.44441" lon="6.67795">
        <ele>314</ele>
        <time>2015-04-26T08:44:19.000Z</time>
      </trkpt>
      <trkpt lat="47.4444" lon="6.67787">
        <ele>313</ele>
        <time>2015-04-26T08:44:20.000Z</time>
      </trkpt>
      <trkpt lat="47.44437" lon="6.67779">
        <ele>313</ele>
        <time>2015-04-26T08:44:21.000Z</time>
      </trkpt>
      <trkpt lat="47.44436" lon="6.67772">
        <ele>313</ele>
        <time>2015-04-26T08:44:22.000Z</time>
      </trkpt>
      <trkpt lat="47.44434" lon="6.67763">
        <ele>313</ele>
        <time>2015-04-26T08:44:23.000Z</time>
      </trkpt>
      <trkpt lat="47.44433" lon="6.67751">
        <ele>314</ele>
        <time>2015-04-26T08:44:24.000Z</time>
      </trkpt>
      <trkpt lat="47.44432" lon="6.67741">
        <ele>310</ele>
        <time>2015-04-26T08:44:25.000Z</time>
      </trkpt>
      <trkpt lat="47.44431" lon="6.67733">
        <ele>309</ele>
        <time>2015-04-26T08:44:26.000Z</time>
      </trkpt>
      <trkpt lat="47.4443" lon="6.67726">
        <ele>309</ele>
        <time>2015-04-26T08:44:27.000Z</time>
      </trkpt>
      <trkpt lat="47.44428" lon="6.67718">
        <ele>308</ele>
        <time>2015-04-26T08:44:28.000Z</time>
      </trkpt>
      <trkpt lat="47.44425" lon="6.67709">
        <ele>307</ele>
        <time>2015-04-26T08:44:29.000Z</time>
      </trkpt>
      <trkpt lat="47.44426" lon="6.67699">
        <ele>307</ele>
        <time>2015-04-26T08:44:30.000Z</time>
      </trkpt>
      <trkpt lat="47.44423" lon="6.67691">
        <ele>306</ele>
        <time>2015-04-26T08:44:31.000Z</time>
      </trkpt>
      <trkpt lat="47.44416" lon="6.67685">
        <ele>319</ele>
        <time>2015-04-26T08:44:32.000Z</time>
      </trkpt>
      <trkpt lat="47.44413" lon="6.67679">
        <ele>316</ele>
        <time>2015-04-26T08:44:33.000Z</time>
      </trkpt>
      <trkpt lat="47.4441" lon="6.67673">
        <ele>314</ele>
        <time>2015-04-26T08:44:34.000Z</time>
      </trkpt>
      <trkpt lat="47.44409" lon="6.67665">
        <ele>311</ele>
        <time>2015-04-26T08:44:35.000Z</time>
      </trkpt>
      <trkpt lat="47.44408" lon="6.67659">
        <ele>312</ele>
        <time>2015-04-26T08:44:36.000Z</time>
      </trkpt>
      <trkpt lat="47.44407" lon="6.67652">
        <ele>314</ele>
        <time>2015-04-26T08:44:37.000Z</time>
      </trkpt>
      <trkpt lat="47.44405" lon="6.67646">
        <ele>315</ele>
        <time>2015-04-26T08:44:38.000Z</time>
      </trkpt>
      <trkpt lat="47.444" lon="6.67638">
        <ele>317</ele>
        <time>2015-04-26T08:44:39.000Z</time>
      </trkpt>
      <trkpt lat="47.44398" lon="6.6763">
        <ele>317</ele>
        <time>2015-04-26T08:44:40.000Z</time>
      </trkpt>
      <trkpt lat="47.44397" lon="6.67622">
        <ele>317</ele>
        <time>2015-04-26T08:44:41.000Z</time>
      </trkpt>
      <trkpt lat="47.44394" lon="6.67614">
        <ele>317</ele>
        <time>2015-04-26T08:44:42.000Z</time>
      </trkpt>
      <trkpt lat="47.4439" lon="6.67605">
        <ele>317</ele>
        <time>2015-04-26T08:44:43.000Z</time>
      </trkpt>
      <trkpt lat="47.44389" lon="6.67595">
        <ele>316</ele>
        <time>2015-04-26T08:44:44.000Z</time>
      </trkpt>
      <trkpt lat="47.44384" lon="6.67589">
        <ele>317</ele>
        <time>2015-04-26T08:44:45.000Z</time>
      </trkpt>
      <trkpt lat="47.44381" lon="6.67583">
        <ele>313</ele>
        <time>2015-04-26T08:44:46.000Z</time>
      </trkpt>
      <trkpt lat="47.44379" lon="6.67576">
        <ele>313</ele>
        <time>2015-04-26T08:44:47.000Z</time>
      </trkpt>
      <trkpt lat="47.44376" lon="6.67569">
        <ele>314</ele>
        <time>2015-04-26T08:44:48.000Z</time>
      </trkpt>
      <trkpt lat="47.44374" lon="6.67565">
        <ele>314</ele>
        <time>2015-04-26T08:44:49.000Z</time>
      </trkpt>
      <trkpt lat="47.44372" lon="6.67561">
        <ele>314</ele>
        <time>2015-04-26T08:44:50.000Z</time>
      </trkpt>
      <trkpt lat="47.4437" lon="6.67555">
        <ele>314</ele>
        <time>2015-04-26T08:44:51.000Z</time>
      </trkpt>
      <trkpt lat="47.44368" lon="6.67549">
        <ele>314</ele>
        <time>2015-04-26T08:44:52.000Z</time>
      </trkpt>
      <trkpt lat="47.44368" lon="6.67546">
        <ele>314</ele>
        <time>2015-04-26T08:44:53.000Z</time>
      </trkpt>
      <trkpt lat="47.44365" lon="6.67541">
        <ele>314</ele>
        <time>2015-04-26T08:44:54.000Z</time>
      </trkpt>
      <trkpt lat="47.44364" lon="6.67536">
        <ele>314</ele>
        <time>2015-04-26T08:44:55.000Z</time>
      </trkpt>
      <trkpt lat="47.44362" lon="6.67529">
        <ele>314</ele>
        <time>2015-04-26T08:44:56.000Z</time>
      </trkpt>
      <trkpt lat="47.44361" lon="6.67525">
        <ele>314</ele>
        <time>2015-04-26T08:44:57.000Z</time>
      </trkpt>
      <trkpt lat="47.4436" lon="6.67518">
        <ele>314</ele>
        <time>2015-04-26T08:44:58.000Z</time>
      </trkpt>
      <trkpt lat="47.44359" lon="6.67511">
        <ele>314</ele>
        <time>2015-04-26T08:44:59.000Z</time>
      </trkpt>
      <trkpt lat="47.44358" lon="6.67504">
        <ele>314</ele>
        <time>2015-04-26T08:45:00.000Z</time>
      </trkpt>
      <trkpt lat="47.44357" lon="6.67497">
        <ele>311</ele>
        <time>2015-04-26T08:45:01.000Z</time>
      </trkpt>
      <trkpt lat="47.44356" lon="6.67492">
        <ele>311</ele>
        <time>2015-04-26T08:45:02.000Z</time>
      </trkpt>
      <trkpt lat="47.44355" lon="6.67486">
        <ele>311</ele>
        <time>2015-04-26T08:45:03.000Z</time>
      </trkpt>
      <trkpt lat="47.44354" lon="6.67481">
        <ele>311</ele>
        <time>2015-04-26T08:45:04.000Z</time>
      </trkpt>
      <trkpt lat="47.44354" lon="6.67476">
        <ele>310</ele>
        <time>2015-04-26T08:45:05.000Z</time>
      </trkpt>
      <trkpt lat="47.44352" lon="6.67471">
        <ele>310</ele>
        <time>2015-04-26T08:45:06.000Z</time>
      </trkpt>
      <trkpt lat="47.44352" lon="6.67467">
        <ele>310</ele>
        <time>2015-04-26T08:45:07.000Z</time>
      </trkpt>
      <trkpt lat="47.44351" lon="6.67464">
        <ele>310</ele>
        <time>2015-04-26T08:45:08.000Z</time>
      </trkpt>
      <trkpt lat="47.44351" lon="6.67458">
        <ele>310</ele>
        <time>2015-04-26T08:45:10.000Z</time>
      </trkpt>
      <trkpt lat="47.4435" lon="6.67456">
        <ele>309</ele>
        <time>2015-04-26T08:45:11.000Z</time>
      </trkpt>
      <trkpt lat="47.44347" lon="6.67451">
        <ele>309</ele>
        <time>2015-04-26T08:45:15.000Z</time>
      </trkpt>
      <trkpt lat="47.44347" lon="6.67449">
        <ele>309</ele>
        <time>2015-04-26T08:45:16.000Z</time>
      </trkpt>
      <trkpt lat="47.44346" lon="6.67446">
        <ele>309</ele>
        <time>2015-04-26T08:45:17.000Z</time>
      </trkpt>
      <trkpt lat="47.44344" lon="6.67442">
        <ele>309</ele>
        <time>2015-04-26T08:45:18.000Z</time>
      </trkpt>
      <trkpt lat="47.44343" lon="6.67438">
        <ele>310</ele>
        <time>2015-04-26T08:45:19.000Z</time>
      </trkpt>
      <trkpt lat="47.44341" lon="6.67433">
        <ele>310</ele>
        <time>2015-04-26T08:45:20.000Z</time>
      </trkpt>
      <trkpt lat="47.4434" lon="6.67429">
        <ele>310</ele>
        <time>2015-04-26T08:45:21.000Z</time>
      </trkpt>
      <trkpt lat="47.44339" lon="6.67424">
        <ele>310</ele>
        <time>2015-04-26T08:45:22.000Z</time>
      </trkpt>
      <trkpt lat="47.44337" lon="6.6742">
        <ele>311</ele>
        <time>2015-04-26T08:45:23.000Z</time>
      </trkpt>
      <trkpt lat="47.44335" lon="6.67415">
        <ele>311</ele>
        <time>2015-04-26T08:45:24.000Z</time>
      </trkpt>
      <trkpt lat="47.44334" lon="6.67411">
        <ele>310</ele>
        <time>2015-04-26T08:45:25.000Z</time>
      </trkpt>
      <trkpt lat="47.44333" lon="6.67408">
        <ele>316</ele>
        <time>2015-04-26T08:45:26.000Z</time>
      </trkpt>
      <trkpt lat="47.44333" lon="6.67404">
        <ele>317</ele>
        <time>2015-04-26T08:45:27.000Z</time>
      </trkpt>
      <trkpt lat="47.44332" lon="6.67401">
        <ele>318</ele>
        <time>2015-04-26T08:45:28.000Z</time>
      </trkpt>
      <trkpt lat="47.44332" lon="6.67395">
        <ele>320</ele>
        <time>2015-04-26T08:45:30.000Z</time>
      </trkpt>
      <trkpt lat="47.44332" lon="6.67392">
        <ele>320</ele>
        <time>2015-04-26T08:45:31.000Z</time>
      </trkpt>
      <trkpt lat="47.44334" lon="6.67386">
        <ele>308</ele>
        <time>2015-04-26T08:45:33.000Z</time>
      </trkpt>
      <trkpt lat="47.44335" lon="6.67382">
        <ele>308</ele>
        <time>2015-04-26T08:45:34.000Z</time>
      </trkpt>
      <trkpt lat="47.44335" lon="6.67378">
        <ele>308</ele>
        <time>2015-04-26T08:45:35.000Z</time>
      </trkpt>
      <trkpt lat="47.44335" lon="6.67374">
        <ele>308</ele>
        <time>2015-04-26T08:45:36.000Z</time>
      </trkpt>
      <trkpt lat="47.44334" lon="6.6737">
        <ele>308</ele>
        <time>2015-04-26T08:45:37.000Z</time>
      </trkpt>
      <trkpt lat="47.44334" lon="6.67365">
        <ele>308</ele>
        <time>2015-04-26T08:45:38.000Z</time>
      </trkpt>
      <trkpt lat="47.44333" lon="6.6736">
        <ele>321</ele>
        <time>2015-04-26T08:45:39.000Z</time>
      </trkpt>
      <trkpt lat="47.44332" lon="6.67355">
        <ele>320</ele>
        <time>2015-04-26T08:45:40.000Z</time>
      </trkpt>
      <trkpt lat="47.44332" lon="6.67349">
        <ele>319</ele>
        <time>2015-04-26T08:45:41.000Z</time>
      </trkpt>
      <trkpt lat="47.44333" lon="6.67335">
        <ele>313</ele>
        <time>2015-04-26T08:45:42.000Z</time>
      </trkpt>
      <trkpt lat="47.44332" lon="6.67326">
        <ele>317</ele>
        <time>2015-04-26T08:45:43.000Z</time>
      </trkpt>
      <trkpt lat="47.44332" lon="6.67316">
        <ele>320</ele>
        <time>2015-04-26T08:45:44.000Z</time>
      </trkpt>
      <trkpt lat="47.44331" lon="6.67306">
        <ele>322</ele>
        <time>2015-04-26T08:45:45.000Z</time>
      </trkpt>
      <trkpt lat="47.44331" lon="6.67297">
        <ele>323</ele>
        <time>2015-04-26T08:45:46.000Z</time>
      </trkpt>
      <trkpt lat="47.44329" lon="6.67286">
        <ele>323</ele>
        <time>2015-04-26T08:45:47.000Z</time>
      </trkpt>
      <trkpt lat="47.44329" lon="6.67276">
        <ele>322</ele>
        <time>2015-04-26T08:45:48.000Z</time>
      </trkpt>
      <trkpt lat="47.44329" lon="6.67267">
        <ele>319</ele>
        <time>2015-04-26T08:45:49.000Z</time>
      </trkpt>
      <trkpt lat="47.44329" lon="6.67258">
        <ele>316</ele>
        <time>2015-04-26T08:45:50.000Z</time>
      </trkpt>
      <trkpt lat="47.44329" lon="6.6725">
        <ele>313</ele>
        <time>2015-04-26T08:45:51.000Z</time>
      </trkpt>
      <trkpt lat="47.44329" lon="6.67242">
        <ele>317</ele>
        <time>2015-04-26T08:45:52.000Z</time>
      </trkpt>
      <trkpt lat="47.44328" lon="6.67234">
        <ele>320</ele>
        <time>2015-04-26T08:45:53.000Z</time>
      </trkpt>
      <trkpt lat="47.44327" lon="6.67228">
        <ele>323</ele>
        <time>2015-04-26T08:45:54.000Z</time>
      </trkpt>
      <trkpt lat="47.44327" lon="6.67223">
        <ele>324</ele>
        <time>2015-04-26T08:45:55.000Z</time>
      </trkpt>
      <trkpt lat="47.44324" lon="6.67215">
        <ele>325</ele>
        <time>2015-04-26T08:45:56.000Z</time>
      </trkpt>
      <trkpt lat="47.44323" lon="6.67207">
        <ele>326</ele>
        <time>2015-04-26T08:45:57.000Z</time>
      </trkpt>
      <trkpt lat="47.44323" lon="6.67201">
        <ele>326</ele>
        <time>2015-04-26T08:45:58.000Z</time>
      </trkpt>
      <trkpt lat="47.44323" lon="6.67194">
        <ele>325</ele>
        <time>2015-04-26T08:45:59.000Z</time>
      </trkpt>
      <trkpt lat="47.44324" lon="6.67186">
        <ele>324</ele>
        <time>2015-04-26T08:46:00.000Z</time>
      </trkpt>
      <trkpt lat="47.44324" lon="6.67177">
        <ele>321</ele>
        <time>2015-04-26T08:46:01.000Z</time>
      </trkpt>
      <trkpt lat="47.44323" lon="6.67169">
        <ele>320</ele>
        <time>2015-04-26T08:46:02.000Z</time>
      </trkpt>
      <trkpt lat="47.44319" lon="6.67163">
        <ele>324</ele>
        <time>2015-04-26T08:46:03.000Z</time>
      </trkpt>
      <trkpt lat="47.44316" lon="6.67155">
        <ele>326</ele>
        <time>2015-04-26T08:46:04.000Z</time>
      </trkpt>
      <trkpt lat="47.44319" lon="6.67147">
        <ele>327</ele>
        <time>2015-04-26T08:46:05.000Z</time>
      </trkpt>
      <trkpt lat="47.44319" lon="6.6714">
        <ele>328</ele>
        <time>2015-04-26T08:46:06.000Z</time>
      </trkpt>
      <trkpt lat="47.44319" lon="6.67134">
        <ele>329</ele>
        <time>2015-04-26T08:46:07.000Z</time>
      </trkpt>
      <trkpt lat="47.44319" lon="6.67127">
        <ele>329</ele>
        <time>2015-04-26T08:46:08.000Z</time>
      </trkpt>
      <trkpt lat="47.4432" lon="6.6712">
        <ele>329</ele>
        <time>2015-04-26T08:46:09.000Z</time>
      </trkpt>
      <trkpt lat="47.44318" lon="6.67111">
        <ele>329</ele>
        <time>2015-04-26T08:46:10.000Z</time>
      </trkpt>
      <trkpt lat="47.44318" lon="6.67103">
        <ele>327</ele>
        <time>2015-04-26T08:46:11.000Z</time>
      </trkpt>
      <trkpt lat="47.44319" lon="6.67095">
        <ele>325</ele>
        <time>2015-04-26T08:46:12.000Z</time>
      </trkpt>
      <trkpt lat="47.4432" lon="6.67088">
        <ele>322</ele>
        <time>2015-04-26T08:46:13.000Z</time>
      </trkpt>
      <trkpt lat="47.44321" lon="6.67079">
        <ele>323</ele>
        <time>2015-04-26T08:46:14.000Z</time>
      </trkpt>
      <trkpt lat="47.44323" lon="6.67071">
        <ele>325</ele>
        <time>2015-04-26T08:46:15.000Z</time>
      </trkpt>
      <trkpt lat="47.44324" lon="6.67061">
        <ele>328</ele>
        <time>2015-04-26T08:46:16.000Z</time>
      </trkpt>
      <trkpt lat="47.44325" lon="6.67054">
        <ele>330</ele>
        <time>2015-04-26T08:46:17.000Z</time>
      </trkpt>
      <trkpt lat="47.44327" lon="6.67047">
        <ele>331</ele>
        <time>2015-04-26T08:46:18.000Z</time>
      </trkpt>
      <trkpt lat="47.44327" lon="6.6704">
        <ele>331</ele>
        <time>2015-04-26T08:46:19.000Z</time>
      </trkpt>
      <trkpt lat="47.44328" lon="6.67034">
        <ele>331</ele>
        <time>2015-04-26T08:46:20.000Z</time>
      </trkpt>
      <trkpt lat="47.44329" lon="6.67026">
        <ele>330</ele>
        <time>2015-04-26T08:46:21.000Z</time>
      </trkpt>
      <trkpt lat="47.44329" lon="6.67019">
        <ele>328</ele>
        <time>2015-04-26T08:46:22.000Z</time>
      </trkpt>
      <trkpt lat="47.44331" lon="6.67013">
        <ele>325</ele>
        <time>2015-04-26T08:46:23.000Z</time>
      </trkpt>
      <trkpt lat="47.44331" lon="6.67005">
        <ele>321</ele>
        <time>2015-04-26T08:46:24.000Z</time>
      </trkpt>
      <trkpt lat="47.44332" lon="6.66998">
        <ele>319</ele>
        <time>2015-04-26T08:46:25.000Z</time>
      </trkpt>
      <trkpt lat="47.44332" lon="6.66991">
        <ele>325</ele>
        <time>2015-04-26T08:46:26.000Z</time>
      </trkpt>
      <trkpt lat="47.44332" lon="6.66982">
        <ele>331</ele>
        <time>2015-04-26T08:46:27.000Z</time>
      </trkpt>
      <trkpt lat="47.44332" lon="6.66974">
        <ele>334</ele>
        <time>2015-04-26T08:46:28.000Z</time>
      </trkpt>
      <trkpt lat="47.4433" lon="6.66966">
        <ele>336</ele>
        <time>2015-04-26T08:46:29.000Z</time>
      </trkpt>
      <trkpt lat="47.44337" lon="6.66959">
        <ele>314</ele>
        <time>2015-04-26T08:46:30.000Z</time>
      </trkpt>
      <trkpt lat="47.44341" lon="6.66951">
        <ele>315</ele>
        <time>2015-04-26T08:46:31.000Z</time>
      </trkpt>
      <trkpt lat="47.44341" lon="6.66946">
        <ele>315</ele>
        <time>2015-04-26T08:46:32.000Z</time>
      </trkpt>
      <trkpt lat="47.44341" lon="6.66939">
        <ele>316</ele>
        <time>2015-04-26T08:46:33.000Z</time>
      </trkpt>
      <trkpt lat="47.44341" lon="6.6693">
        <ele>318</ele>
        <time>2015-04-26T08:46:34.000Z</time>
      </trkpt>
      <trkpt lat="47.44342" lon="6.66924">
        <ele>320</ele>
        <time>2015-04-26T08:46:35.000Z</time>
      </trkpt>
      <trkpt lat="47.44343" lon="6.66919">
        <ele>320</ele>
        <time>2015-04-26T08:46:36.000Z</time>
      </trkpt>
      <trkpt lat="47.44342" lon="6.66912">
        <ele>322</ele>
        <time>2015-04-26T08:46:37.000Z</time>
      </trkpt>
      <trkpt lat="47.44342" lon="6.66905">
        <ele>321</ele>
        <time>2015-04-26T08:46:38.000Z</time>
      </trkpt>
      <trkpt lat="47.44344" lon="6.66898">
        <ele>319</ele>
        <time>2015-04-26T08:46:39.000Z</time>
      </trkpt>
      <trkpt lat="47.44348" lon="6.66891">
        <ele>318</ele>
        <time>2015-04-26T08:46:40.000Z</time>
      </trkpt>
      <trkpt lat="47.44349" lon="6.66884">
        <ele>318</ele>
        <time>2015-04-26T08:46:41.000Z</time>
      </trkpt>
      <trkpt lat="47.44351" lon="6.66878">
        <ele>318</ele>
        <time>2015-04-26T08:46:42.000Z</time>
      </trkpt>
      <trkpt lat="47.44352" lon="6.66872">
        <ele>318</ele>
        <time>2015-04-26T08:46:43.000Z</time>
      </trkpt>
      <trkpt lat="47.44353" lon="6.66865">
        <ele>318</ele>
        <time>2015-04-26T08:46:44.000Z</time>
      </trkpt>
      <trkpt lat="47.44355" lon="6.66859">
        <ele>318</ele>
        <time>2015-04-26T08:46:45.000Z</time>
      </trkpt>
      <trkpt lat="47.44356" lon="6.66849">
        <ele>319</ele>
        <time>2015-04-26T08:46:46.000Z</time>
      </trkpt>
      <trkpt lat="47.44357" lon="6.66841">
        <ele>320</ele>
        <time>2015-04-26T08:46:47.000Z</time>
      </trkpt>
      <trkpt lat="47.44358" lon="6.66833">
        <ele>322</ele>
        <time>2015-04-26T08:46:48.000Z</time>
      </trkpt>
      <trkpt lat="47.44358" lon="6.66825">
        <ele>322</ele>
        <time>2015-04-26T08:46:49.000Z</time>
      </trkpt>
      <trkpt lat="47.44358" lon="6.66818">
        <ele>322</ele>
        <time>2015-04-26T08:46:50.000Z</time>
      </trkpt>
      <trkpt lat="47.44357" lon="6.66812">
        <ele>322</ele>
        <time>2015-04-26T08:46:51.000Z</time>
      </trkpt>
      <trkpt lat="47.44357" lon="6.66805">
        <ele>321</ele>
        <time>2015-04-26T08:46:52.000Z</time>
      </trkpt>
      <trkpt lat="47.44358" lon="6.66799">
        <ele>321</ele>
        <time>2015-04-26T08:46:53.000Z</time>
      </trkpt>
      <trkpt lat="47.44361" lon="6.66795">
        <ele>321</ele>
        <time>2015-04-26T08:46:54.000Z</time>
      </trkpt>
      <trkpt lat="47.44363" lon="6.66789">
        <ele>321</ele>
        <time>2015-04-26T08:46:55.000Z</time>
      </trkpt>
      <trkpt lat="47.44364" lon="6.66783">
        <ele>321</ele>
        <time>2015-04-26T08:46:56.000Z</time>
      </trkpt>
      <trkpt lat="47.44366" lon="6.66777">
        <ele>321</ele>
        <time>2015-04-26T08:46:57.000Z</time>
      </trkpt>
      <trkpt lat="47.44367" lon="6.66771">
        <ele>321</ele>
        <time>2015-04-26T08:46:58.000Z</time>
      </trkpt>
      <trkpt lat="47.44368" lon="6.66763">
        <ele>321</ele>
        <time>2015-04-26T08:46:59.000Z</time>
      </trkpt>
      <trkpt lat="47.44369" lon="6.66754">
        <ele>321</ele>
        <time>2015-04-26T08:47:00.000Z</time>
      </trkpt>
      <trkpt lat="47.44371" lon="6.66748">
        <ele>324</ele>
        <time>2015-04-26T08:47:01.000Z</time>
      </trkpt>
      <trkpt lat="47.44374" lon="6.66741">
        <ele>323</ele>
        <time>2015-04-26T08:47:02.000Z</time>
      </trkpt>
      <trkpt lat="47.44375" lon="6.66735">
        <ele>323</ele>
        <time>2015-04-26T08:47:03.000Z</time>
      </trkpt>
      <trkpt lat="47.44375" lon="6.6673">
        <ele>323</ele>
        <time>2015-04-26T08:47:04.000Z</time>
      </trkpt>
      <trkpt lat="47.44376" lon="6.66723">
        <ele>323</ele>
        <time>2015-04-26T08:47:05.000Z</time>
      </trkpt>
      <trkpt lat="47.44376" lon="6.66716">
        <ele>323</ele>
        <time>2015-04-26T08:47:06.000Z</time>
      </trkpt>
      <trkpt lat="47.44377" lon="6.66709">
        <ele>323</ele>
        <time>2015-04-26T08:47:07.000Z</time>
      </trkpt>
      <trkpt lat="47.44377" lon="6.66702">
        <ele>323</ele>
        <time>2015-04-26T08:47:08.000Z</time>
      </trkpt>
      <trkpt lat="47.4438" lon="6.66695">
        <ele>322</ele>
        <time>2015-04-26T08:47:09.000Z</time>
      </trkpt>
      <trkpt lat="47.44381" lon="6.66689">
        <ele>322</ele>
        <time>2015-04-26T08:47:10.000Z</time>
      </trkpt>
      <trkpt lat="47.44381" lon="6.66682">
        <ele>322</ele>
        <time>2015-04-26T08:47:11.000Z</time>
      </trkpt>
      <trkpt lat="47.44383" lon="6.66675">
        <ele>321</ele>
        <time>2015-04-26T08:47:12.000Z</time>
      </trkpt>
      <trkpt lat="47.44383" lon="6.66668">
        <ele>321</ele>
        <time>2015-04-26T08:47:13.000Z</time>
      </trkpt>
      <trkpt lat="47.44383" lon="6.66662">
        <ele>324</ele>
        <time>2015-04-26T08:47:14.000Z</time>
      </trkpt>
      <trkpt lat="47.44387" lon="6.66655">
        <ele>323</ele>
        <time>2015-04-26T08:47:15.000Z</time>
      </trkpt>
      <trkpt lat="47.44386" lon="6.66647">
        <ele>324</ele>
        <time>2015-04-26T08:47:16.000Z</time>
      </trkpt>
      <trkpt lat="47.44386" lon="6.6664">
        <ele>324</ele>
        <time>2015-04-26T08:47:17.000Z</time>
      </trkpt>
      <trkpt lat="47.44387" lon="6.66634">
        <ele>325</ele>
        <time>2015-04-26T08:47:18.000Z</time>
      </trkpt>
      <trkpt lat="47.44388" lon="6.66627">
        <ele>325</ele>
        <time>2015-04-26T08:47:19.000Z</time>
      </trkpt>
      <trkpt lat="47.44388" lon="6.66619">
        <ele>325</ele>
        <time>2015-04-26T08:47:20.000Z</time>
      </trkpt>
      <trkpt lat="47.44389" lon="6.66611">
        <ele>325</ele>
        <time>2015-04-26T08:47:21.000Z</time>
      </trkpt>
      <trkpt lat="47.44389" lon="6.66603">
        <ele>325</ele>
        <time>2015-04-26T08:47:22.000Z</time>
      </trkpt>
      <trkpt lat="47.4439" lon="6.66595">
        <ele>324</ele>
        <time>2015-04-26T08:47:23.000Z</time>
      </trkpt>
      <trkpt lat="47.4439" lon="6.66588">
        <ele>324</ele>
        <time>2015-04-26T08:47:24.000Z</time>
      </trkpt>
      <trkpt lat="47.4439" lon="6.6658">
        <ele>324</ele>
        <time>2015-04-26T08:47:25.000Z</time>
      </trkpt>
      <trkpt lat="47.44391" lon="6.66573">
        <ele>325</ele>
        <time>2015-04-26T08:47:26.000Z</time>
      </trkpt>
      <trkpt lat="47.4439" lon="6.66564">
        <ele>325</ele>
        <time>2015-04-26T08:47:27.000Z</time>
      </trkpt>
      <trkpt lat="47.4439" lon="6.66557">
        <ele>326</ele>
        <time>2015-04-26T08:47:28.000Z</time>
      </trkpt>
      <trkpt lat="47.4439" lon="6.66549">
        <ele>326</ele>
        <time>2015-04-26T08:47:29.000Z</time>
      </trkpt>
      <trkpt lat="47.4439" lon="6.66543">
        <ele>326</ele>
        <time>2015-04-26T08:47:30.000Z</time>
      </trkpt>
      <trkpt lat="47.44391" lon="6.66536">
        <ele>326</ele>
        <time>2015-04-26T08:47:31.000Z</time>
      </trkpt>
      <trkpt lat="47.44391" lon="6.6653">
        <ele>325</ele>
        <time>2015-04-26T08:47:32.000Z</time>
      </trkpt>
      <trkpt lat="47.44392" lon="6.66523">
        <ele>325</ele>
        <time>2015-04-26T08:47:33.000Z</time>
      </trkpt>
      <trkpt lat="47.44391" lon="6.66515">
        <ele>324</ele>
        <time>2015-04-26T08:47:34.000Z</time>
      </trkpt>
      <trkpt lat="47.44391" lon="6.66508">
        <ele>324</ele>
        <time>2015-04-26T08:47:35.000Z</time>
      </trkpt>
      <trkpt lat="47.44392" lon="6.66503">
        <ele>323</ele>
        <time>2015-04-26T08:47:36.000Z</time>
      </trkpt>
      <trkpt lat="47.44392" lon="6.66499">
        <ele>323</ele>
        <time>2015-04-26T08:47:37.000Z</time>
      </trkpt>
      <trkpt lat="47.44391" lon="6.66494">
        <ele>324</ele>
        <time>2015-04-26T08:47:38.000Z</time>
      </trkpt>
      <trkpt lat="47.4439" lon="6.6649">
        <ele>324</ele>
        <time>2015-04-26T08:47:39.000Z</time>
      </trkpt>
      <trkpt lat="47.44392" lon="6.66485">
        <ele>324</ele>
        <time>2015-04-26T08:47:40.000Z</time>
      </trkpt>
      <trkpt lat="47.44391" lon="6.66481">
        <ele>325</ele>
        <time>2015-04-26T08:47:41.000Z</time>
      </trkpt>
      <trkpt lat="47.44392" lon="6.66476">
        <ele>325</ele>
        <time>2015-04-26T08:47:42.000Z</time>
      </trkpt>
      <trkpt lat="47.44394" lon="6.66472">
        <ele>325</ele>
        <time>2015-04-26T08:47:43.000Z</time>
      </trkpt>
      <trkpt lat="47.44393" lon="6.66469">
        <ele>325</ele>
        <time>2015-04-26T08:47:44.000Z</time>
      </trkpt>
      <trkpt lat="47.44394" lon="6.66465">
        <ele>325</ele>
        <time>2015-04-26T08:47:45.000Z</time>
      </trkpt>
      <trkpt lat="47.44394" lon="6.66461">
        <ele>325</ele>
        <time>2015-04-26T08:47:46.000Z</time>
      </trkpt>
      <trkpt lat="47.44395" lon="6.66457">
        <ele>325</ele>
        <time>2015-04-26T08:47:47.000Z</time>
      </trkpt>
      <trkpt lat="47.44395" lon="6.66452">
        <ele>325</ele>
        <time>2015-04-26T08:47:48.000Z</time>
      </trkpt>
      <trkpt lat="47.44396" lon="6.66447">
        <ele>324</ele>
        <time>2015-04-26T08:47:49.000Z</time>
      </trkpt>
      <trkpt lat="47.44397" lon="6.66442">
        <ele>324</ele>
        <time>2015-04-26T08:47:50.000Z</time>
      </trkpt>
      <trkpt lat="47.44398" lon="6.66437">
        <ele>323</ele>
        <time>2015-04-26T08:47:51.000Z</time>
      </trkpt>
      <trkpt lat="47.44398" lon="6.66432">
        <ele>322</ele>
        <time>2015-04-26T08:47:52.000Z</time>
      </trkpt>
      <trkpt lat="47.44399" lon="6.66427">
        <ele>321</ele>
        <time>2015-04-26T08:47:53.000Z</time>
      </trkpt>
      <trkpt lat="47.44401" lon="6.66421">
        <ele>320</ele>
        <time>2015-04-26T08:47:54.000Z</time>
      </trkpt>
      <trkpt lat="47.44403" lon="6.6641">
        <ele>321</ele>
        <time>2015-04-26T08:47:55.000Z</time>
      </trkpt>
      <trkpt lat="47.44404" lon="6.66401">
        <ele>323</ele>
        <time>2015-04-26T08:47:56.000Z</time>
      </trkpt>
      <trkpt lat="47.44404" lon="6.66392">
        <ele>325</ele>
        <time>2015-04-26T08:47:57.000Z</time>
      </trkpt>
      <trkpt lat="47.44404" lon="6.66388">
        <ele>326</ele>
        <time>2015-04-26T08:47:58.000Z</time>
      </trkpt>
      <trkpt lat="47.44404" lon="6.66382">
        <ele>326</ele>
        <time>2015-04-26T08:47:59.000Z</time>
      </trkpt>
      <trkpt lat="47.44406" lon="6.6637">
        <ele>326</ele>
        <time>2015-04-26T08:48:00.000Z</time>
      </trkpt>
      <trkpt lat="47.44407" lon="6.6636">
        <ele>325</ele>
        <time>2015-04-26T08:48:01.000Z</time>
      </trkpt>
      <trkpt lat="47.44407" lon="6.66349">
        <ele>323</ele>
        <time>2015-04-26T08:48:02.000Z</time>
      </trkpt>
      <trkpt lat="47.44408" lon="6.6634">
        <ele>320</ele>
        <time>2015-04-26T08:48:03.000Z</time>
      </trkpt>
      <trkpt lat="47.44408" lon="6.66332">
        <ele>320</ele>
        <time>2015-04-26T08:48:04.000Z</time>
      </trkpt>
      <trkpt lat="47.4441" lon="6.66326">
        <ele>321</ele>
        <time>2015-04-26T08:48:05.000Z</time>
      </trkpt>
      <trkpt lat="47.44412" lon="6.66318">
        <ele>324</ele>
        <time>2015-04-26T08:48:06.000Z</time>
      </trkpt>
      <trkpt lat="47.44413" lon="6.6631">
        <ele>327</ele>
        <time>2015-04-26T08:48:07.000Z</time>
      </trkpt>
      <trkpt lat="47.44413" lon="6.663">
        <ele>329</ele>
        <time>2015-04-26T08:48:08.000Z</time>
      </trkpt>
      <trkpt lat="47.44415" lon="6.6629">
        <ele>329</ele>
        <time>2015-04-26T08:48:09.000Z</time>
      </trkpt>
      <trkpt lat="47.44417" lon="6.66282">
        <ele>308</ele>
        <time>2015-04-26T08:48:10.000Z</time>
      </trkpt>
      <trkpt lat="47.44419" lon="6.66276">
        <ele>309</ele>
        <time>2015-04-26T08:48:11.000Z</time>
      </trkpt>
      <trkpt lat="47.4442" lon="6.66271">
        <ele>309</ele>
        <time>2015-04-26T08:48:12.000Z</time>
      </trkpt>
      <trkpt lat="47.4442" lon="6.66266">
        <ele>310</ele>
        <time>2015-04-26T08:48:13.000Z</time>
      </trkpt>
      <trkpt lat="47.44419" lon="6.6626">
        <ele>311</ele>
        <time>2015-04-26T08:48:14.000Z</time>
      </trkpt>
      <trkpt lat="47.44419" lon="6.66256">
        <ele>311</ele>
        <time>2015-04-26T08:48:15.000Z</time>
      </trkpt>
      <trkpt lat="47.44421" lon="6.66248">
        <ele>312</ele>
        <time>2015-04-26T08:48:16.000Z</time>
      </trkpt>
      <trkpt lat="47.44422" lon="6.66241">
        <ele>311</ele>
        <time>2015-04-26T08:48:17.000Z</time>
      </trkpt>
      <trkpt lat="47.44424" lon="6.66235">
        <ele>311</ele>
        <time>2015-04-26T08:48:18.000Z</time>
      </trkpt>
      <trkpt lat="47.44424" lon="6.66227">
        <ele>311</ele>
        <time>2015-04-26T08:48:19.000Z</time>
      </trkpt>
      <trkpt lat="47.44425" lon="6.66219">
        <ele>311</ele>
        <time>2015-04-26T08:48:20.000Z</time>
      </trkpt>
      <trkpt lat="47.44426" lon="6.66211">
        <ele>311</ele>
        <time>2015-04-26T08:48:21.000Z</time>
      </trkpt>
      <trkpt lat="47.44427" lon="6.66206">
        <ele>311</ele>
        <time>2015-04-26T08:48:22.000Z</time>
      </trkpt>
      <trkpt lat="47.44429" lon="6.66199">
        <ele>312</ele>
        <time>2015-04-26T08:48:23.000Z</time>
      </trkpt>
      <trkpt lat="47.4443" lon="6.66192">
        <ele>312</ele>
        <time>2015-04-26T08:48:24.000Z</time>
      </trkpt>
      <trkpt lat="47.44431" lon="6.66185">
        <ele>313</ele>
        <time>2015-04-26T08:48:25.000Z</time>
      </trkpt>
      <trkpt lat="47.44431" lon="6.66178">
        <ele>314</ele>
        <time>2015-04-26T08:48:26.000Z</time>
      </trkpt>
      <trkpt lat="47.44431" lon="6.66172">
        <ele>315</ele>
        <time>2015-04-26T08:48:27.000Z</time>
      </trkpt>
      <trkpt lat="47.44431" lon="6.66166">
        <ele>318</ele>
        <time>2015-04-26T08:48:28.000Z</time>
      </trkpt>
      <trkpt lat="47.44432" lon="6.6616">
        <ele>317</ele>
        <time>2015-04-26T08:48:29.000Z</time>
      </trkpt>
      <trkpt lat="47.44433" lon="6.66158">
        <ele>317</ele>
        <time>2015-04-26T08:48:30.000Z</time>
      </trkpt>
      <trkpt lat="47.44435" lon="6.66153">
        <ele>316</ele>
        <time>2015-04-26T08:48:31.000Z</time>
      </trkpt>
      <trkpt lat="47.44436" lon="6.66148">
        <ele>316</ele>
        <time>2015-04-26T08:48:32.000Z</time>
      </trkpt>
      <trkpt lat="47.44435" lon="6.66143">
        <ele>316</ele>
        <time>2015-04-26T08:48:33.000Z</time>
      </trkpt>
      <trkpt lat="47.44436" lon="6.66136">
        <ele>315</ele>
        <time>2015-04-26T08:48:34.000Z</time>
      </trkpt>
      <trkpt lat="47.44437" lon="6.66131">
        <ele>315</ele>
        <time>2015-04-26T08:48:35.000Z</time>
      </trkpt>
      <trkpt lat="47.44437" lon="6.6612">
        <ele>316</ele>
        <time>2015-04-26T08:48:36.000Z</time>
      </trkpt>
      <trkpt lat="47.44438" lon="6.66112">
        <ele>317</ele>
        <time>2015-04-26T08:48:37.000Z</time>
      </trkpt>
      <trkpt lat="47.44439" lon="6.66106">
        <ele>317</ele>
        <time>2015-04-26T08:48:38.000Z</time>
      </trkpt>
      <trkpt lat="47.44439" lon="6.66099">
        <ele>318</ele>
        <time>2015-04-26T08:48:39.000Z</time>
      </trkpt>
      <trkpt lat="47.4444" lon="6.66091">
        <ele>319</ele>
        <time>2015-04-26T08:48:40.000Z</time>
      </trkpt>
      <trkpt lat="47.4444" lon="6.66084">
        <ele>319</ele>
        <time>2015-04-26T08:48:41.000Z</time>
      </trkpt>
      <trkpt lat="47.4444" lon="6.66077">
        <ele>322</ele>
        <time>2015-04-26T08:48:42.000Z</time>
      </trkpt>
      <trkpt lat="47.44441" lon="6.66072">
        <ele>322</ele>
        <time>2015-04-26T08:48:43.000Z</time>
      </trkpt>
      <trkpt lat="47.44441" lon="6.66066">
        <ele>322</ele>
        <time>2015-04-26T08:48:44.000Z</time>
      </trkpt>
      <trkpt lat="47.44442" lon="6.66057">
        <ele>321</ele>
        <time>2015-04-26T08:48:45.000Z</time>
      </trkpt>
      <trkpt lat="47.44444" lon="6.66052">
        <ele>321</ele>
        <time>2015-04-26T08:48:46.000Z</time>
      </trkpt>
      <trkpt lat="47.44444" lon="6.66046">
        <ele>321</ele>
        <time>2015-04-26T08:48:47.000Z</time>
      </trkpt>
      <trkpt lat="47.44445" lon="6.66041">
        <ele>321</ele>
        <time>2015-04-26T08:48:48.000Z</time>
      </trkpt>
      <trkpt lat="47.44445" lon="6.66036">
        <ele>321</ele>
        <time>2015-04-26T08:48:49.000Z</time>
      </trkpt>
      <trkpt lat="47.44446" lon="6.6603">
        <ele>322</ele>
        <time>2015-04-26T08:48:50.000Z</time>
      </trkpt>
      <trkpt lat="47.44446" lon="6.66025">
        <ele>322</ele>
        <time>2015-04-26T08:48:51.000Z</time>
      </trkpt>
      <trkpt lat="47.44447" lon="6.6602">
        <ele>322</ele>
        <time>2015-04-26T08:48:52.000Z</time>
      </trkpt>
      <trkpt lat="47.44451" lon="6.66011">
        <ele>322</ele>
        <time>2015-04-26T08:48:53.000Z</time>
      </trkpt>
      <trkpt lat="47.44454" lon="6.66003">
        <ele>321</ele>
        <time>2015-04-26T08:48:54.000Z</time>
      </trkpt>
      <trkpt lat="47.44456" lon="6.65998">
        <ele>325</ele>
        <time>2015-04-26T08:48:55.000Z</time>
      </trkpt>
      <trkpt lat="47.44457" lon="6.65991">
        <ele>325</ele>
        <time>2015-04-26T08:48:56.000Z</time>
      </trkpt>
      <trkpt lat="47.44455" lon="6.65984">
        <ele>325</ele>
        <time>2015-04-26T08:48:57.000Z</time>
      </trkpt>
      <trkpt lat="47.44456" lon="6.65979">
        <ele>325</ele>
        <time>2015-04-26T08:48:58.000Z</time>
      </trkpt>
      <trkpt lat="47.44458" lon="6.65978">
        <ele>325</ele>
        <time>2015-04-26T08:48:59.000Z</time>
      </trkpt>
      <trkpt lat="47.44455" lon="6.65973">
        <ele>326</ele>
        <time>2015-04-26T08:49:01.000Z</time>
      </trkpt>
      <trkpt lat="47.44456" lon="6.65972">
        <ele>326</ele>
        <time>2015-04-26T08:49:02.000Z</time>
      </trkpt>
      <trkpt lat="47.44453" lon="6.65967">
        <ele>326</ele>
        <time>2015-04-26T08:49:03.000Z</time>
      </trkpt>
      <trkpt lat="47.44453" lon="6.65964">
        <ele>327</ele>
        <time>2015-04-26T08:49:04.000Z</time>
      </trkpt>
      <trkpt lat="47.44453" lon="6.6596">
        <ele>327</ele>
        <time>2015-04-26T08:49:05.000Z</time>
      </trkpt>
      <trkpt lat="47.44453" lon="6.65956">
        <ele>327</ele>
        <time>2015-04-26T08:49:06.000Z</time>
      </trkpt>
      <trkpt lat="47.44454" lon="6.65951">
        <ele>327</ele>
        <time>2015-04-26T08:49:07.000Z</time>
      </trkpt>
      <trkpt lat="47.44456" lon="6.65945">
        <ele>327</ele>
        <time>2015-04-26T08:49:08.000Z</time>
      </trkpt>
      <trkpt lat="47.44457" lon="6.65939">
        <ele>327</ele>
        <time>2015-04-26T08:49:09.000Z</time>
      </trkpt>
      <trkpt lat="47.44459" lon="6.65932">
        <ele>326</ele>
        <time>2015-04-26T08:49:10.000Z</time>
      </trkpt>
      <trkpt lat="47.44461" lon="6.65926">
        <ele>326</ele>
        <time>2015-04-26T08:49:11.000Z</time>
      </trkpt>
      <trkpt lat="47.44462" lon="6.65919">
        <ele>325</ele>
        <time>2015-04-26T08:49:12.000Z</time>
      </trkpt>
      <trkpt lat="47.44464" lon="6.65913">
        <ele>328</ele>
        <time>2015-04-26T08:49:13.000Z</time>
      </trkpt>
      <trkpt lat="47.44466" lon="6.65907">
        <ele>328</ele>
        <time>2015-04-26T08:49:14.000Z</time>
      </trkpt>
      <trkpt lat="47.44468" lon="6.65901">
        <ele>327</ele>
        <time>2015-04-26T08:49:15.000Z</time>
      </trkpt>
      <trkpt lat="47.44469" lon="6.65895">
        <ele>327</ele>
        <time>2015-04-26T08:49:16.000Z</time>
      </trkpt>
      <trkpt lat="47.4447" lon="6.65888">
        <ele>327</ele>
        <time>2015-04-26T08:49:17.000Z</time>
      </trkpt>
      <trkpt lat="47.44471" lon="6.65881">
        <ele>328</ele>
        <time>2015-04-26T08:49:18.000Z</time>
      </trkpt>
      <trkpt lat="47.44473" lon="6.65873">
        <ele>327</ele>
        <time>2015-04-26T08:49:19.000Z</time>
      </trkpt>
      <trkpt lat="47.44474" lon="6.65866">
        <ele>327</ele>
        <time>2015-04-26T08:49:20.000Z</time>
      </trkpt>
      <trkpt lat="47.44476" lon="6.65859">
        <ele>327</ele>
        <time>2015-04-26T08:49:21.000Z</time>
      </trkpt>
      <trkpt lat="47.44477" lon="6.65851">
        <ele>326</ele>
        <time>2015-04-26T08:49:22.000Z</time>
      </trkpt>
      <trkpt lat="47.44478" lon="6.65843">
        <ele>325</ele>
        <time>2015-04-26T08:49:23.000Z</time>
      </trkpt>
      <trkpt lat="47.44479" lon="6.65835">
        <ele>324</ele>
        <time>2015-04-26T08:49:24.000Z</time>
      </trkpt>
      <trkpt lat="47.4448" lon="6.65828">
        <ele>326</ele>
        <time>2015-04-26T08:49:25.000Z</time>
      </trkpt>
      <trkpt lat="47.44481" lon="6.6582">
        <ele>326</ele>
        <time>2015-04-26T08:49:26.000Z</time>
      </trkpt>
      <trkpt lat="47.44482" lon="6.65813">
        <ele>327</ele>
        <time>2015-04-26T08:49:27.000Z</time>
      </trkpt>
      <trkpt lat="47.44483" lon="6.65806">
        <ele>328</ele>
        <time>2015-04-26T08:49:28.000Z</time>
      </trkpt>
      <trkpt lat="47.44485" lon="6.65799">
        <ele>329</ele>
        <time>2015-04-26T08:49:29.000Z</time>
      </trkpt>
      <trkpt lat="47.44487" lon="6.65792">
        <ele>329</ele>
        <time>2015-04-26T08:49:30.000Z</time>
      </trkpt>
      <trkpt lat="47.44488" lon="6.65785">
        <ele>329</ele>
        <time>2015-04-26T08:49:31.000Z</time>
      </trkpt>
      <trkpt lat="47.4449" lon="6.65779">
        <ele>328</ele>
        <time>2015-04-26T08:49:32.000Z</time>
      </trkpt>
      <trkpt lat="47.44492" lon="6.65773">
        <ele>328</ele>
        <time>2015-04-26T08:49:33.000Z</time>
      </trkpt>
      <trkpt lat="47.44494" lon="6.65769">
        <ele>327</ele>
        <time>2015-04-26T08:49:34.000Z</time>
      </trkpt>
      <trkpt lat="47.44496" lon="6.65765">
        <ele>326</ele>
        <time>2015-04-26T08:49:35.000Z</time>
      </trkpt>
      <trkpt lat="47.44497" lon="6.65762">
        <ele>325</ele>
        <time>2015-04-26T08:49:36.000Z</time>
      </trkpt>
      <trkpt lat="47.445" lon="6.65758">
        <ele>323</ele>
        <time>2015-04-26T08:49:38.000Z</time>
      </trkpt>
      <trkpt lat="47.44501" lon="6.65757">
        <ele>317</ele>
        <time>2015-04-26T08:49:39.000Z</time>
      </trkpt>
      <trkpt lat="47.44503" lon="6.65752">
        <ele>318</ele>
        <time>2015-04-26T08:49:42.000Z</time>
      </trkpt>
      <trkpt lat="47.44504" lon="6.65751">
        <ele>318</ele>
        <time>2015-04-26T08:49:43.000Z</time>
      </trkpt>
      <trkpt lat="47.44507" lon="6.6575">
        <ele>317</ele>
        <time>2015-04-26T08:49:50.000Z</time>
      </trkpt>
      <trkpt lat="47.44509" lon="6.6575">
        <ele>317</ele>
        <time>2015-04-26T08:49:51.000Z</time>
      </trkpt>
      <trkpt lat="47.44512" lon="6.65751">
        <ele>316</ele>
        <time>2015-04-26T08:49:53.000Z</time>
      </trkpt>
      <trkpt lat="47.44514" lon="6.65752">
        <ele>315</ele>
        <time>2015-04-26T08:49:54.000Z</time>
      </trkpt>
      <trkpt lat="47.44516" lon="6.65754">
        <ele>315</ele>
        <time>2015-04-26T08:49:55.000Z</time>
      </trkpt>
      <trkpt lat="47.44518" lon="6.65755">
        <ele>314</ele>
        <time>2015-04-26T08:49:56.000Z</time>
      </trkpt>
      <trkpt lat="47.44521" lon="6.65757">
        <ele>314</ele>
        <time>2015-04-26T08:49:57.000Z</time>
      </trkpt>
      <trkpt lat="47.44523" lon="6.65758">
        <ele>313</ele>
        <time>2015-04-26T08:49:58.000Z</time>
      </trkpt>
      <trkpt lat="47.44527" lon="6.65759">
        <ele>313</ele>
        <time>2015-04-26T08:50:00.000Z</time>
      </trkpt>
      <trkpt lat="47.44529" lon="6.6576">
        <ele>312</ele>
        <time>2015-04-26T08:50:01.000Z</time>
      </trkpt>
      <trkpt lat="47.44532" lon="6.65761">
        <ele>312</ele>
        <time>2015-04-26T08:50:02.000Z</time>
      </trkpt>
      <trkpt lat="47.44534" lon="6.65761">
        <ele>312</ele>
        <time>2015-04-26T08:50:03.000Z</time>
      </trkpt>
      <trkpt lat="47.44538" lon="6.65759">
        <ele>311</ele>
        <time>2015-04-26T08:50:05.000Z</time>
      </trkpt>
      <trkpt lat="47.4454" lon="6.65758">
        <ele>311</ele>
        <time>2015-04-26T08:50:06.000Z</time>
      </trkpt>
      <trkpt lat="47.44542" lon="6.65756">
        <ele>311</ele>
        <time>2015-04-26T08:50:07.000Z</time>
      </trkpt>
      <trkpt lat="47.44544" lon="6.65754">
        <ele>311</ele>
        <time>2015-04-26T08:50:08.000Z</time>
      </trkpt>
      <trkpt lat="47.44547" lon="6.65753">
        <ele>310</ele>
        <time>2015-04-26T08:50:09.000Z</time>
      </trkpt>
      <trkpt lat="47.44551" lon="6.6575">
        <ele>312</ele>
        <time>2015-04-26T08:50:10.000Z</time>
      </trkpt>
      <trkpt lat="47.44555" lon="6.65747">
        <ele>311</ele>
        <time>2015-04-26T08:50:11.000Z</time>
      </trkpt>
      <trkpt lat="47.44558" lon="6.65744">
        <ele>311</ele>
        <time>2015-04-26T08:50:12.000Z</time>
      </trkpt>
      <trkpt lat="47.44562" lon="6.65741">
        <ele>310</ele>
        <time>2015-04-26T08:50:13.000Z</time>
      </trkpt>
      <trkpt lat="47.44565" lon="6.65739">
        <ele>310</ele>
        <time>2015-04-26T08:50:14.000Z</time>
      </trkpt>
      <trkpt lat="47.44568" lon="6.65736">
        <ele>310</ele>
        <time>2015-04-26T08:50:15.000Z</time>
      </trkpt>
      <trkpt lat="47.44571" lon="6.65733">
        <ele>310</ele>
        <time>2015-04-26T08:50:16.000Z</time>
      </trkpt>
      <trkpt lat="47.44573" lon="6.65731">
        <ele>310</ele>
        <time>2015-04-26T08:50:17.000Z</time>
      </trkpt>
      <trkpt lat="47.44575" lon="6.65729">
        <ele>310</ele>
        <time>2015-04-26T08:50:18.000Z</time>
      </trkpt>
      <trkpt lat="47.44577" lon="6.65727">
        <ele>310</ele>
        <time>2015-04-26T08:50:19.000Z</time>
      </trkpt>
      <trkpt lat="47.4458" lon="6.65725">
        <ele>310</ele>
        <time>2015-04-26T08:50:20.000Z</time>
      </trkpt>
      <trkpt lat="47.44583" lon="6.65723">
        <ele>310</ele>
        <time>2015-04-26T08:50:21.000Z</time>
      </trkpt>
      <trkpt lat="47.44586" lon="6.65721">
        <ele>305</ele>
        <time>2015-04-26T08:50:22.000Z</time>
      </trkpt>
      <trkpt lat="47.4459" lon="6.65719">
        <ele>305</ele>
        <time>2015-04-26T08:50:23.000Z</time>
      </trkpt>
      <trkpt lat="47.44594" lon="6.65716">
        <ele>305</ele>
        <time>2015-04-26T08:50:24.000Z</time>
      </trkpt>
      <trkpt lat="47.44598" lon="6.65714">
        <ele>305</ele>
        <time>2015-04-26T08:50:25.000Z</time>
      </trkpt>
      <trkpt lat="47.44608" lon="6.6571">
        <ele>304</ele>
        <time>2015-04-26T08:50:26.000Z</time>
      </trkpt>
      <trkpt lat="47.44611" lon="6.65713">
        <ele>304</ele>
        <time>2015-04-26T08:50:27.000Z</time>
      </trkpt>
      <trkpt lat="47.44615" lon="6.65714">
        <ele>304</ele>
        <time>2015-04-26T08:50:28.000Z</time>
      </trkpt>
      <trkpt lat="47.44618" lon="6.65715">
        <ele>304</ele>
        <time>2015-04-26T08:50:29.000Z</time>
      </trkpt>
      <trkpt lat="47.44622" lon="6.65717">
        <ele>304</ele>
        <time>2015-04-26T08:50:30.000Z</time>
      </trkpt>
      <trkpt lat="47.44625" lon="6.65716">
        <ele>304</ele>
        <time>2015-04-26T08:50:31.000Z</time>
      </trkpt>
      <trkpt lat="47.44629" lon="6.65715">
        <ele>304</ele>
        <time>2015-04-26T08:50:32.000Z</time>
      </trkpt>
      <trkpt lat="47.44631" lon="6.65711">
        <ele>304</ele>
        <time>2015-04-26T08:50:33.000Z</time>
      </trkpt>
      <trkpt lat="47.44632" lon="6.65709">
        <ele>304</ele>
        <time>2015-04-26T08:50:34.000Z</time>
      </trkpt>
      <trkpt lat="47.44633" lon="6.65704">
        <ele>304</ele>
        <time>2015-04-26T08:50:35.000Z</time>
      </trkpt>
      <trkpt lat="47.44635" lon="6.657">
        <ele>304</ele>
        <time>2015-04-26T08:50:36.000Z</time>
      </trkpt>
      <trkpt lat="47.44638" lon="6.65696">
        <ele>304</ele>
        <time>2015-04-26T08:50:38.000Z</time>
      </trkpt>
      <trkpt lat="47.4464" lon="6.65694">
        <ele>304</ele>
        <time>2015-04-26T08:50:39.000Z</time>
      </trkpt>
      <trkpt lat="47.44642" lon="6.65692">
        <ele>304</ele>
        <time>2015-04-26T08:50:40.000Z</time>
      </trkpt>
      <trkpt lat="47.44645" lon="6.65691">
        <ele>304</ele>
        <time>2015-04-26T08:50:41.000Z</time>
      </trkpt>
      <trkpt lat="47.44648" lon="6.65689">
        <ele>304</ele>
        <time>2015-04-26T08:50:42.000Z</time>
      </trkpt>
      <trkpt lat="47.44652" lon="6.65687">
        <ele>304</ele>
        <time>2015-04-26T08:50:43.000Z</time>
      </trkpt>
      <trkpt lat="47.44656" lon="6.65686">
        <ele>303</ele>
        <time>2015-04-26T08:50:44.000Z</time>
      </trkpt>
      <trkpt lat="47.4466" lon="6.65684">
        <ele>303</ele>
        <time>2015-04-26T08:50:45.000Z</time>
      </trkpt>
      <trkpt lat="47.44662" lon="6.65684">
        <ele>303</ele>
        <time>2015-04-26T08:50:46.000Z</time>
      </trkpt>
      <trkpt lat="47.44664" lon="6.65683">
        <ele>303</ele>
        <time>2015-04-26T08:50:47.000Z</time>
      </trkpt>
      <trkpt lat="47.44667" lon="6.65682">
        <ele>302</ele>
        <time>2015-04-26T08:50:49.000Z</time>
      </trkpt>
      <trkpt lat="47.44668" lon="6.6568">
        <ele>302</ele>
        <time>2015-04-26T08:50:50.000Z</time>
      </trkpt>
      <trkpt lat="47.44669" lon="6.65676">
        <ele>302</ele>
        <time>2015-04-26T08:50:51.000Z</time>
      </trkpt>
      <trkpt lat="47.4467" lon="6.65672">
        <ele>302</ele>
        <time>2015-04-26T08:50:52.000Z</time>
      </trkpt>
      <trkpt lat="47.4467" lon="6.65667">
        <ele>303</ele>
        <time>2015-04-26T08:50:53.000Z</time>
      </trkpt>
      <trkpt lat="47.4467" lon="6.65662">
        <ele>303</ele>
        <time>2015-04-26T08:50:54.000Z</time>
      </trkpt>
      <trkpt lat="47.4467" lon="6.65657">
        <ele>303</ele>
        <time>2015-04-26T08:50:55.000Z</time>
      </trkpt>
      <trkpt lat="47.44671" lon="6.65651">
        <ele>303</ele>
        <time>2015-04-26T08:50:56.000Z</time>
      </trkpt>
      <trkpt lat="47.44671" lon="6.65646">
        <ele>303</ele>
        <time>2015-04-26T08:50:57.000Z</time>
      </trkpt>
      <trkpt lat="47.44671" lon="6.6564">
        <ele>303</ele>
        <time>2015-04-26T08:50:58.000Z</time>
      </trkpt>
      <trkpt lat="47.44672" lon="6.65634">
        <ele>303</ele>
        <time>2015-04-26T08:50:59.000Z</time>
      </trkpt>
      <trkpt lat="47.44672" lon="6.65627">
        <ele>303</ele>
        <time>2015-04-26T08:51:00.000Z</time>
      </trkpt>
      <trkpt lat="47.44672" lon="6.6562">
        <ele>304</ele>
        <time>2015-04-26T08:51:01.000Z</time>
      </trkpt>
      <trkpt lat="47.44672" lon="6.65613">
        <ele>304</ele>
        <time>2015-04-26T08:51:02.000Z</time>
      </trkpt>
      <trkpt lat="47.44673" lon="6.65596">
        <ele>305</ele>
        <time>2015-04-26T08:51:03.000Z</time>
      </trkpt>
      <trkpt lat="47.44674" lon="6.65588">
        <ele>305</ele>
        <time>2015-04-26T08:51:04.000Z</time>
      </trkpt>
      <trkpt lat="47.44674" lon="6.65581">
        <ele>305</ele>
        <time>2015-04-26T08:51:05.000Z</time>
      </trkpt>
      <trkpt lat="47.44675" lon="6.65574">
        <ele>305</ele>
        <time>2015-04-26T08:51:06.000Z</time>
      </trkpt>
      <trkpt lat="47.44676" lon="6.65566">
        <ele>304</ele>
        <time>2015-04-26T08:51:07.000Z</time>
      </trkpt>
      <trkpt lat="47.44678" lon="6.65557">
        <ele>304</ele>
        <time>2015-04-26T08:51:08.000Z</time>
      </trkpt>
      <trkpt lat="47.44679" lon="6.65549">
        <ele>304</ele>
        <time>2015-04-26T08:51:09.000Z</time>
      </trkpt>
      <trkpt lat="47.44679" lon="6.65541">
        <ele>304</ele>
        <time>2015-04-26T08:51:10.000Z</time>
      </trkpt>
      <trkpt lat="47.44679" lon="6.65534">
        <ele>303</ele>
        <time>2015-04-26T08:51:11.000Z</time>
      </trkpt>
      <trkpt lat="47.4468" lon="6.65525">
        <ele>303</ele>
        <time>2015-04-26T08:51:12.000Z</time>
      </trkpt>
      <trkpt lat="47.44681" lon="6.65514">
        <ele>303</ele>
        <time>2015-04-26T08:51:13.000Z</time>
      </trkpt>
      <trkpt lat="47.44683" lon="6.65503">
        <ele>303</ele>
        <time>2015-04-26T08:51:14.000Z</time>
      </trkpt>
      <trkpt lat="47.44684" lon="6.65493">
        <ele>303</ele>
        <time>2015-04-26T08:51:15.000Z</time>
      </trkpt>
      <trkpt lat="47.44685" lon="6.65485">
        <ele>303</ele>
        <time>2015-04-26T08:51:16.000Z</time>
      </trkpt>
      <trkpt lat="47.44687" lon="6.65477">
        <ele>303</ele>
        <time>2015-04-26T08:51:17.000Z</time>
      </trkpt>
      <trkpt lat="47.44689" lon="6.6547">
        <ele>303</ele>
        <time>2015-04-26T08:51:18.000Z</time>
      </trkpt>
      <trkpt lat="47.4469" lon="6.65463">
        <ele>303</ele>
        <time>2015-04-26T08:51:19.000Z</time>
      </trkpt>
      <trkpt lat="47.44691" lon="6.65457">
        <ele>302</ele>
        <time>2015-04-26T08:51:20.000Z</time>
      </trkpt>
      <trkpt lat="47.44692" lon="6.65446">
        <ele>302</ele>
        <time>2015-04-26T08:51:21.000Z</time>
      </trkpt>
      <trkpt lat="47.44693" lon="6.65438">
        <ele>302</ele>
        <time>2015-04-26T08:51:22.000Z</time>
      </trkpt>
      <trkpt lat="47.44694" lon="6.65429">
        <ele>302</ele>
        <time>2015-04-26T08:51:23.000Z</time>
      </trkpt>
      <trkpt lat="47.44694" lon="6.65421">
        <ele>302</ele>
        <time>2015-04-26T08:51:24.000Z</time>
      </trkpt>
      <trkpt lat="47.44695" lon="6.65411">
        <ele>302</ele>
        <time>2015-04-26T08:51:25.000Z</time>
      </trkpt>
      <trkpt lat="47.44697" lon="6.65402">
        <ele>302</ele>
        <time>2015-04-26T08:51:26.000Z</time>
      </trkpt>
      <trkpt lat="47.44698" lon="6.65394">
        <ele>302</ele>
        <time>2015-04-26T08:51:27.000Z</time>
      </trkpt>
      <trkpt lat="47.44699" lon="6.65386">
        <ele>302</ele>
        <time>2015-04-26T08:51:28.000Z</time>
      </trkpt>
      <trkpt lat="47.447" lon="6.65379">
        <ele>302</ele>
        <time>2015-04-26T08:51:29.000Z</time>
      </trkpt>
      <trkpt lat="47.447" lon="6.65369">
        <ele>302</ele>
        <time>2015-04-26T08:51:30.000Z</time>
      </trkpt>
      <trkpt lat="47.44701" lon="6.6536">
        <ele>302</ele>
        <time>2015-04-26T08:51:31.000Z</time>
      </trkpt>
      <trkpt lat="47.44702" lon="6.6535">
        <ele>302</ele>
        <time>2015-04-26T08:51:32.000Z</time>
      </trkpt>
      <trkpt lat="47.44702" lon="6.65342">
        <ele>302</ele>
        <time>2015-04-26T08:51:33.000Z</time>
      </trkpt>
      <trkpt lat="47.44702" lon="6.65331">
        <ele>302</ele>
        <time>2015-04-26T08:51:34.000Z</time>
      </trkpt>
      <trkpt lat="47.44706" lon="6.65321">
        <ele>302</ele>
        <time>2015-04-26T08:51:35.000Z</time>
      </trkpt>
      <trkpt lat="47.44705" lon="6.65313">
        <ele>302</ele>
        <time>2015-04-26T08:51:36.000Z</time>
      </trkpt>
      <trkpt lat="47.44705" lon="6.65303">
        <ele>302</ele>
        <time>2015-04-26T08:51:37.000Z</time>
      </trkpt>
      <trkpt lat="47.44705" lon="6.65294">
        <ele>302</ele>
        <time>2015-04-26T08:51:38.000Z</time>
      </trkpt>
      <trkpt lat="47.44705" lon="6.65285">
        <ele>302</ele>
        <time>2015-04-26T08:51:39.000Z</time>
      </trkpt>
      <trkpt lat="47.44705" lon="6.65276">
        <ele>302</ele>
        <time>2015-04-26T08:51:40.000Z</time>
      </trkpt>
      <trkpt lat="47.44706" lon="6.65267">
        <ele>303</ele>
        <time>2015-04-26T08:51:41.000Z</time>
      </trkpt>
      <trkpt lat="47.44706" lon="6.65258">
        <ele>303</ele>
        <time>2015-04-26T08:51:42.000Z</time>
      </trkpt>
      <trkpt lat="47.44706" lon="6.65249">
        <ele>303</ele>
        <time>2015-04-26T08:51:43.000Z</time>
      </trkpt>
      <trkpt lat="47.44706" lon="6.6524">
        <ele>303</ele>
        <time>2015-04-26T08:51:44.000Z</time>
      </trkpt>
      <trkpt lat="47.44705" lon="6.65231">
        <ele>303</ele>
        <time>2015-04-26T08:51:45.000Z</time>
      </trkpt>
      <trkpt lat="47.44705" lon="6.65221">
        <ele>303</ele>
        <time>2015-04-26T08:51:46.000Z</time>
      </trkpt>
      <trkpt lat="47.44705" lon="6.65212">
        <ele>303</ele>
        <time>2015-04-26T08:51:47.000Z</time>
      </trkpt>
      <trkpt lat="47.44706" lon="6.65202">
        <ele>303</ele>
        <time>2015-04-26T08:51:48.000Z</time>
      </trkpt>
      <trkpt lat="47.44704" lon="6.65192">
        <ele>303</ele>
        <time>2015-04-26T08:51:49.000Z</time>
      </trkpt>
      <trkpt lat="47.44704" lon="6.65183">
        <ele>304</ele>
        <time>2015-04-26T08:51:50.000Z</time>
      </trkpt>
      <trkpt lat="47.44702" lon="6.65172">
        <ele>304</ele>
        <time>2015-04-26T08:51:51.000Z</time>
      </trkpt>
      <trkpt lat="47.44701" lon="6.65163">
        <ele>303</ele>
        <time>2015-04-26T08:51:52.000Z</time>
      </trkpt>
      <trkpt lat="47.44701" lon="6.65153">
        <ele>303</ele>
        <time>2015-04-26T08:51:53.000Z</time>
      </trkpt>
      <trkpt lat="47.447" lon="6.65143">
        <ele>303</ele>
        <time>2015-04-26T08:51:54.000Z</time>
      </trkpt>
      <trkpt lat="47.44699" lon="6.65134">
        <ele>303</ele>
        <time>2015-04-26T08:51:55.000Z</time>
      </trkpt>
      <trkpt lat="47.44696" lon="6.65125">
        <ele>303</ele>
        <time>2015-04-26T08:51:56.000Z</time>
      </trkpt>
      <trkpt lat="47.44694" lon="6.65115">
        <ele>303</ele>
        <time>2015-04-26T08:51:57.000Z</time>
      </trkpt>
      <trkpt lat="47.4469" lon="6.65107">
        <ele>303</ele>
        <time>2015-04-26T08:51:58.000Z</time>
      </trkpt>
      <trkpt lat="47.44687" lon="6.65098">
        <ele>302</ele>
        <time>2015-04-26T08:51:59.000Z</time>
      </trkpt>
      <trkpt lat="47.44684" lon="6.6509">
        <ele>302</ele>
        <time>2015-04-26T08:52:00.000Z</time>
      </trkpt>
      <trkpt lat="47.4468" lon="6.65082">
        <ele>301</ele>
        <time>2015-04-26T08:52:01.000Z</time>
      </trkpt>
      <trkpt lat="47.44676" lon="6.65075">
        <ele>301</ele>
        <time>2015-04-26T08:52:02.000Z</time>
      </trkpt>
      <trkpt lat="47.44672" lon="6.65068">
        <ele>301</ele>
        <time>2015-04-26T08:52:03.000Z</time>
      </trkpt>
      <trkpt lat="47.44669" lon="6.65061">
        <ele>301</ele>
        <time>2015-04-26T08:52:04.000Z</time>
      </trkpt>
      <trkpt lat="47.44665" lon="6.65054">
        <ele>309</ele>
        <time>2015-04-26T08:52:05.000Z</time>
      </trkpt>
      <trkpt lat="47.44662" lon="6.65048">
        <ele>309</ele>
        <time>2015-04-26T08:52:06.000Z</time>
      </trkpt>
      <trkpt lat="47.44659" lon="6.65042">
        <ele>309</ele>
        <time>2015-04-26T08:52:07.000Z</time>
      </trkpt>
      <trkpt lat="47.44656" lon="6.65035">
        <ele>309</ele>
        <time>2015-04-26T08:52:08.000Z</time>
      </trkpt>
      <trkpt lat="47.44653" lon="6.6503">
        <ele>309</ele>
        <time>2015-04-26T08:52:09.000Z</time>
      </trkpt>
      <trkpt lat="47.44649" lon="6.65025">
        <ele>309</ele>
        <time>2015-04-26T08:52:10.000Z</time>
      </trkpt>
      <trkpt lat="47.44644" lon="6.65021">
        <ele>310</ele>
        <time>2015-04-26T08:52:11.000Z</time>
      </trkpt>
      <trkpt lat="47.44639" lon="6.65018">
        <ele>310</ele>
        <time>2015-04-26T08:52:12.000Z</time>
      </trkpt>
      <trkpt lat="47.44635" lon="6.65014">
        <ele>311</ele>
        <time>2015-04-26T08:52:13.000Z</time>
      </trkpt>
      <trkpt lat="47.44632" lon="6.6501">
        <ele>312</ele>
        <time>2015-04-26T08:52:14.000Z</time>
      </trkpt>
      <trkpt lat="47.44628" lon="6.65006">
        <ele>312</ele>
        <time>2015-04-26T08:52:15.000Z</time>
      </trkpt>
      <trkpt lat="47.44624" lon="6.65002">
        <ele>313</ele>
        <time>2015-04-26T08:52:16.000Z</time>
      </trkpt>
      <trkpt lat="47.4462" lon="6.64997">
        <ele>311</ele>
        <time>2015-04-26T08:52:17.000Z</time>
      </trkpt>
      <trkpt lat="47.44616" lon="6.64993">
        <ele>312</ele>
        <time>2015-04-26T08:52:18.000Z</time>
      </trkpt>
      <trkpt lat="47.44614" lon="6.64988">
        <ele>312</ele>
        <time>2015-04-26T08:52:19.000Z</time>
      </trkpt>
      <trkpt lat="47.4461" lon="6.64984">
        <ele>313</ele>
        <time>2015-04-26T08:52:20.000Z</time>
      </trkpt>
      <trkpt lat="47.44607" lon="6.64979">
        <ele>313</ele>
        <time>2015-04-26T08:52:21.000Z</time>
      </trkpt>
      <trkpt lat="47.44606" lon="6.64974">
        <ele>313</ele>
        <time>2015-04-26T08:52:22.000Z</time>
      </trkpt>
      <trkpt lat="47.44603" lon="6.6497">
        <ele>312</ele>
        <time>2015-04-26T08:52:23.000Z</time>
      </trkpt>
      <trkpt lat="47.446" lon="6.64966">
        <ele>312</ele>
        <time>2015-04-26T08:52:24.000Z</time>
      </trkpt>
      <trkpt lat="47.44595" lon="6.64962">
        <ele>312</ele>
        <time>2015-04-26T08:52:25.000Z</time>
      </trkpt>
      <trkpt lat="47.44592" lon="6.64957">
        <ele>312</ele>
        <time>2015-04-26T08:52:26.000Z</time>
      </trkpt>
      <trkpt lat="47.4459" lon="6.64954">
        <ele>312</ele>
        <time>2015-04-26T08:52:27.000Z</time>
      </trkpt>
      <trkpt lat="47.44588" lon="6.64949">
        <ele>312</ele>
        <time>2015-04-26T08:52:28.000Z</time>
      </trkpt>
      <trkpt lat="47.44585" lon="6.64945">
        <ele>312</ele>
        <time>2015-04-26T08:52:29.000Z</time>
      </trkpt>
      <trkpt lat="47.44583" lon="6.6494">
        <ele>324</ele>
        <time>2015-04-26T08:52:30.000Z</time>
      </trkpt>
      <trkpt lat="47.44576" lon="6.64937">
        <ele>324</ele>
        <time>2015-04-26T08:52:31.000Z</time>
      </trkpt>
      <trkpt lat="47.44573" lon="6.64931">
        <ele>323</ele>
        <time>2015-04-26T08:52:32.000Z</time>
      </trkpt>
      <trkpt lat="47.44573" lon="6.64926">
        <ele>321</ele>
        <time>2015-04-26T08:52:33.000Z</time>
      </trkpt>
      <trkpt lat="47.44571" lon="6.64921">
        <ele>321</ele>
        <time>2015-04-26T08:52:34.000Z</time>
      </trkpt>
      <trkpt lat="47.44569" lon="6.64916">
        <ele>319</ele>
        <time>2015-04-26T08:52:35.000Z</time>
      </trkpt>
      <trkpt lat="47.44567" lon="6.6491">
        <ele>320</ele>
        <time>2015-04-26T08:52:36.000Z</time>
      </trkpt>
      <trkpt lat="47.44565" lon="6.64905">
        <ele>321</ele>
        <time>2015-04-26T08:52:37.000Z</time>
      </trkpt>
      <trkpt lat="47.44563" lon="6.64898">
        <ele>322</ele>
        <time>2015-04-26T08:52:38.000Z</time>
      </trkpt>
      <trkpt lat="47.44562" lon="6.64891">
        <ele>322</ele>
        <time>2015-04-26T08:52:39.000Z</time>
      </trkpt>
      <trkpt lat="47.44558" lon="6.64884">
        <ele>323</ele>
        <time>2015-04-26T08:52:40.000Z</time>
      </trkpt>
      <trkpt lat="47.44556" lon="6.64879">
        <ele>323</ele>
        <time>2015-04-26T08:52:41.000Z</time>
      </trkpt>
      <trkpt lat="47.44553" lon="6.64873">
        <ele>323</ele>
        <time>2015-04-26T08:52:42.000Z</time>
      </trkpt>
      <trkpt lat="47.44547" lon="6.64867">
        <ele>324</ele>
        <time>2015-04-26T08:52:43.000Z</time>
      </trkpt>
      <trkpt lat="47.44544" lon="6.64862">
        <ele>325</ele>
        <time>2015-04-26T08:52:44.000Z</time>
      </trkpt>
      <trkpt lat="47.44541" lon="6.64857">
        <ele>325</ele>
        <time>2015-04-26T08:52:45.000Z</time>
      </trkpt>
      <trkpt lat="47.44539" lon="6.64851">
        <ele>325</ele>
        <time>2015-04-26T08:52:46.000Z</time>
      </trkpt>
      <trkpt lat="47.44536" lon="6.64845">
        <ele>326</ele>
        <time>2015-04-26T08:52:47.000Z</time>
      </trkpt>
      <trkpt lat="47.44535" lon="6.64839">
        <ele>327</ele>
        <time>2015-04-26T08:52:48.000Z</time>
      </trkpt>
      <trkpt lat="47.44535" lon="6.64834">
        <ele>326</ele>
        <time>2015-04-26T08:52:49.000Z</time>
      </trkpt>
      <trkpt lat="47.44532" lon="6.64829">
        <ele>324</ele>
        <time>2015-04-26T08:52:50.000Z</time>
      </trkpt>
      <trkpt lat="47.44529" lon="6.64824">
        <ele>324</ele>
        <time>2015-04-26T08:52:51.000Z</time>
      </trkpt>
      <trkpt lat="47.44526" lon="6.64818">
        <ele>325</ele>
        <time>2015-04-26T08:52:52.000Z</time>
      </trkpt>
      <trkpt lat="47.44523" lon="6.64812">
        <ele>325</ele>
        <time>2015-04-26T08:52:53.000Z</time>
      </trkpt>
      <trkpt lat="47.4452" lon="6.64807">
        <ele>325</ele>
        <time>2015-04-26T08:52:54.000Z</time>
      </trkpt>
      <trkpt lat="47.44516" lon="6.64801">
        <ele>325</ele>
        <time>2015-04-26T08:52:55.000Z</time>
      </trkpt>
      <trkpt lat="47.44515" lon="6.64797">
        <ele>325</ele>
        <time>2015-04-26T08:52:56.000Z</time>
      </trkpt>
      <trkpt lat="47.44513" lon="6.64793">
        <ele>325</ele>
        <time>2015-04-26T08:52:57.000Z</time>
      </trkpt>
      <trkpt lat="47.44512" lon="6.64788">
        <ele>324</ele>
        <time>2015-04-26T08:52:58.000Z</time>
      </trkpt>
      <trkpt lat="47.4451" lon="6.64782">
        <ele>325</ele>
        <time>2015-04-26T08:52:59.000Z</time>
      </trkpt>
      <trkpt lat="47.44509" lon="6.64776">
        <ele>325</ele>
        <time>2015-04-26T08:53:00.000Z</time>
      </trkpt>
      <trkpt lat="47.44507" lon="6.6477">
        <ele>326</ele>
        <time>2015-04-26T08:53:01.000Z</time>
      </trkpt>
      <trkpt lat="47.44505" lon="6.64765">
        <ele>327</ele>
        <time>2015-04-26T08:53:02.000Z</time>
      </trkpt>
      <trkpt lat="47.44501" lon="6.64762">
        <ele>328</ele>
        <time>2015-04-26T08:53:03.000Z</time>
      </trkpt>
      <trkpt lat="47.44497" lon="6.64759">
        <ele>334</ele>
        <time>2015-04-26T08:53:04.000Z</time>
      </trkpt>
      <trkpt lat="47.44495" lon="6.64754">
        <ele>333</ele>
        <time>2015-04-26T08:53:05.000Z</time>
      </trkpt>
      <trkpt lat="47.44493" lon="6.6475">
        <ele>332</ele>
        <time>2015-04-26T08:53:06.000Z</time>
      </trkpt>
      <trkpt lat="47.44491" lon="6.64745">
        <ele>332</ele>
        <time>2015-04-26T08:53:07.000Z</time>
      </trkpt>
      <trkpt lat="47.44489" lon="6.6474">
        <ele>332</ele>
        <time>2015-04-26T08:53:08.000Z</time>
      </trkpt>
      <trkpt lat="47.44486" lon="6.64735">
        <ele>332</ele>
        <time>2015-04-26T08:53:09.000Z</time>
      </trkpt>
      <trkpt lat="47.44484" lon="6.6473">
        <ele>332</ele>
        <time>2015-04-26T08:53:10.000Z</time>
      </trkpt>
      <trkpt lat="47.44482" lon="6.64725">
        <ele>331</ele>
        <time>2015-04-26T08:53:11.000Z</time>
      </trkpt>
      <trkpt lat="47.44481" lon="6.64719">
        <ele>331</ele>
        <time>2015-04-26T08:53:12.000Z</time>
      </trkpt>
      <trkpt lat="47.4448" lon="6.64713">
        <ele>331</ele>
        <time>2015-04-26T08:53:13.000Z</time>
      </trkpt>
      <trkpt lat="47.44479" lon="6.64707">
        <ele>331</ele>
        <time>2015-04-26T08:53:14.000Z</time>
      </trkpt>
      <trkpt lat="47.44479" lon="6.64701">
        <ele>330</ele>
        <time>2015-04-26T08:53:15.000Z</time>
      </trkpt>
      <trkpt lat="47.44478" lon="6.64696">
        <ele>330</ele>
        <time>2015-04-26T08:53:16.000Z</time>
      </trkpt>
      <trkpt lat="47.44477" lon="6.64691">
        <ele>329</ele>
        <time>2015-04-26T08:53:17.000Z</time>
      </trkpt>
      <trkpt lat="47.44477" lon="6.64686">
        <ele>329</ele>
        <time>2015-04-26T08:53:18.000Z</time>
      </trkpt>
      <trkpt lat="47.44476" lon="6.64681">
        <ele>329</ele>
        <time>2015-04-26T08:53:19.000Z</time>
      </trkpt>
      <trkpt lat="47.44475" lon="6.64675">
        <ele>329</ele>
        <time>2015-04-26T08:53:20.000Z</time>
      </trkpt>
      <trkpt lat="47.44474" lon="6.6467">
        <ele>328</ele>
        <time>2015-04-26T08:53:21.000Z</time>
      </trkpt>
      <trkpt lat="47.44474" lon="6.64664">
        <ele>325</ele>
        <time>2015-04-26T08:53:22.000Z</time>
      </trkpt>
      <trkpt lat="47.44473" lon="6.64659">
        <ele>325</ele>
        <time>2015-04-26T08:53:23.000Z</time>
      </trkpt>
      <trkpt lat="47.44473" lon="6.64653">
        <ele>325</ele>
        <time>2015-04-26T08:53:24.000Z</time>
      </trkpt>
      <trkpt lat="47.44472" lon="6.64648">
        <ele>326</ele>
        <time>2015-04-26T08:53:25.000Z</time>
      </trkpt>
      <trkpt lat="47.44471" lon="6.64642">
        <ele>326</ele>
        <time>2015-04-26T08:53:26.000Z</time>
      </trkpt>
      <trkpt lat="47.4447" lon="6.64636">
        <ele>326</ele>
        <time>2015-04-26T08:53:27.000Z</time>
      </trkpt>
      <trkpt lat="47.44469" lon="6.6463">
        <ele>326</ele>
        <time>2015-04-26T08:53:28.000Z</time>
      </trkpt>
      <trkpt lat="47.44468" lon="6.64625">
        <ele>325</ele>
        <time>2015-04-26T08:53:29.000Z</time>
      </trkpt>
      <trkpt lat="47.44467" lon="6.64619">
        <ele>325</ele>
        <time>2015-04-26T08:53:30.000Z</time>
      </trkpt>
      <trkpt lat="47.44466" lon="6.64615">
        <ele>325</ele>
        <time>2015-04-26T08:53:31.000Z</time>
      </trkpt>
      <trkpt lat="47.44465" lon="6.6461">
        <ele>325</ele>
        <time>2015-04-26T08:53:32.000Z</time>
      </trkpt>
      <trkpt lat="47.44465" lon="6.64606">
        <ele>325</ele>
        <time>2015-04-26T08:53:33.000Z</time>
      </trkpt>
      <trkpt lat="47.44465" lon="6.64602">
        <ele>325</ele>
        <time>2015-04-26T08:53:34.000Z</time>
      </trkpt>
      <trkpt lat="47.44464" lon="6.64599">
        <ele>325</ele>
        <time>2015-04-26T08:53:35.000Z</time>
      </trkpt>
      <trkpt lat="47.44463" lon="6.64593">
        <ele>325</ele>
        <time>2015-04-26T08:53:37.000Z</time>
      </trkpt>
      <trkpt lat="47.44462" lon="6.6459">
        <ele>325</ele>
        <time>2015-04-26T08:53:38.000Z</time>
      </trkpt>
      <trkpt lat="47.44462" lon="6.64586">
        <ele>325</ele>
        <time>2015-04-26T08:53:39.000Z</time>
      </trkpt>
      <trkpt lat="47.44461" lon="6.64582">
        <ele>324</ele>
        <time>2015-04-26T08:53:40.000Z</time>
      </trkpt>
      <trkpt lat="47.44461" lon="6.64577">
        <ele>324</ele>
        <time>2015-04-26T08:53:41.000Z</time>
      </trkpt>
      <trkpt lat="47.44461" lon="6.64573">
        <ele>324</ele>
        <time>2015-04-26T08:53:42.000Z</time>
      </trkpt>
      <trkpt lat="47.44461" lon="6.64568">
        <ele>324</ele>
        <time>2015-04-26T08:53:43.000Z</time>
      </trkpt>
      <trkpt lat="47.44461" lon="6.64563">
        <ele>324</ele>
        <time>2015-04-26T08:53:44.000Z</time>
      </trkpt>
      <trkpt lat="47.44461" lon="6.64559">
        <ele>324</ele>
        <time>2015-04-26T08:53:45.000Z</time>
      </trkpt>
      <trkpt lat="47.44461" lon="6.64555">
        <ele>324</ele>
        <time>2015-04-26T08:53:46.000Z</time>
      </trkpt>
      <trkpt lat="47.4446" lon="6.64551">
        <ele>324</ele>
        <time>2015-04-26T08:53:47.000Z</time>
      </trkpt>
      <trkpt lat="47.4446" lon="6.64547">
        <ele>324</ele>
        <time>2015-04-26T08:53:48.000Z</time>
      </trkpt>
      <trkpt lat="47.44459" lon="6.64544">
        <ele>324</ele>
        <time>2015-04-26T08:53:49.000Z</time>
      </trkpt>
      <trkpt lat="47.44459" lon="6.6454">
        <ele>324</ele>
        <time>2015-04-26T08:53:50.000Z</time>
      </trkpt>
      <trkpt lat="47.44458" lon="6.64536">
        <ele>324</ele>
        <time>2015-04-26T08:53:51.000Z</time>
      </trkpt>
      <trkpt lat="47.44457" lon="6.64533">
        <ele>324</ele>
        <time>2015-04-26T08:53:52.000Z</time>
      </trkpt>
      <trkpt lat="47.44456" lon="6.64529">
        <ele>324</ele>
        <time>2015-04-26T08:53:53.000Z</time>
      </trkpt>
      <trkpt lat="47.44456" lon="6.64525">
        <ele>324</ele>
        <time>2015-04-26T08:53:54.000Z</time>
      </trkpt>
      <trkpt lat="47.44456" lon="6.64521">
        <ele>324</ele>
        <time>2015-04-26T08:53:55.000Z</time>
      </trkpt>
      <trkpt lat="47.44455" lon="6.64516">
        <ele>324</ele>
        <time>2015-04-26T08:53:56.000Z</time>
      </trkpt>
      <trkpt lat="47.44455" lon="6.64513">
        <ele>324</ele>
        <time>2015-04-26T08:53:57.000Z</time>
      </trkpt>
      <trkpt lat="47.44454" lon="6.64508">
        <ele>324</ele>
        <time>2015-04-26T08:53:58.000Z</time>
      </trkpt>
      <trkpt lat="47.44453" lon="6.64504">
        <ele>325</ele>
        <time>2015-04-26T08:53:59.000Z</time>
      </trkpt>
      <trkpt lat="47.44453" lon="6.645">
        <ele>325</ele>
        <time>2015-04-26T08:54:00.000Z</time>
      </trkpt>
      <trkpt lat="47.44452" lon="6.64496">
        <ele>324</ele>
        <time>2015-04-26T08:54:01.000Z</time>
      </trkpt>
      <trkpt lat="47.44451" lon="6.64493">
        <ele>324</ele>
        <time>2015-04-26T08:54:02.000Z</time>
      </trkpt>
      <trkpt lat="47.4445" lon="6.64489">
        <ele>325</ele>
        <time>2015-04-26T08:54:03.000Z</time>
      </trkpt>
      <trkpt lat="47.4445" lon="6.64485">
        <ele>325</ele>
        <time>2015-04-26T08:54:04.000Z</time>
      </trkpt>
      <trkpt lat="47.44449" lon="6.64481">
        <ele>325</ele>
        <time>2015-04-26T08:54:05.000Z</time>
      </trkpt>
      <trkpt lat="47.44449" lon="6.64477">
        <ele>324</ele>
        <time>2015-04-26T08:54:06.000Z</time>
      </trkpt>
      <trkpt lat="47.44449" lon="6.64472">
        <ele>324</ele>
        <time>2015-04-26T08:54:07.000Z</time>
      </trkpt>
      <trkpt lat="47.44449" lon="6.64468">
        <ele>324</ele>
        <time>2015-04-26T08:54:08.000Z</time>
      </trkpt>
      <trkpt lat="47.44449" lon="6.64463">
        <ele>324</ele>
        <time>2015-04-26T08:54:09.000Z</time>
      </trkpt>
      <trkpt lat="47.44448" lon="6.64458">
        <ele>324</ele>
        <time>2015-04-26T08:54:10.000Z</time>
      </trkpt>
      <trkpt lat="47.44447" lon="6.64454">
        <ele>324</ele>
        <time>2015-04-26T08:54:11.000Z</time>
      </trkpt>
      <trkpt lat="47.44446" lon="6.64449">
        <ele>325</ele>
        <time>2015-04-26T08:54:12.000Z</time>
      </trkpt>
      <trkpt lat="47.44445" lon="6.64444">
        <ele>325</ele>
        <time>2015-04-26T08:54:13.000Z</time>
      </trkpt>
      <trkpt lat="47.44444" lon="6.64439">
        <ele>325</ele>
        <time>2015-04-26T08:54:14.000Z</time>
      </trkpt>
      <trkpt lat="47.44443" lon="6.64435">
        <ele>325</ele>
        <time>2015-04-26T08:54:15.000Z</time>
      </trkpt>
      <trkpt lat="47.44443" lon="6.64431">
        <ele>325</ele>
        <time>2015-04-26T08:54:16.000Z</time>
      </trkpt>
      <trkpt lat="47.44442" lon="6.64427">
        <ele>325</ele>
        <time>2015-04-26T08:54:17.000Z</time>
      </trkpt>
      <trkpt lat="47.44442" lon="6.64423">
        <ele>326</ele>
        <time>2015-04-26T08:54:18.000Z</time>
      </trkpt>
      <trkpt lat="47.44441" lon="6.64417">
        <ele>326</ele>
        <time>2015-04-26T08:54:19.000Z</time>
      </trkpt>
      <trkpt lat="47.44439" lon="6.64411">
        <ele>326</ele>
        <time>2015-04-26T08:54:20.000Z</time>
      </trkpt>
      <trkpt lat="47.44438" lon="6.64405">
        <ele>326</ele>
        <time>2015-04-26T08:54:21.000Z</time>
      </trkpt>
      <trkpt lat="47.44437" lon="6.64399">
        <ele>326</ele>
        <time>2015-04-26T08:54:22.000Z</time>
      </trkpt>
      <trkpt lat="47.44436" lon="6.64393">
        <ele>325</ele>
        <time>2015-04-26T08:54:23.000Z</time>
      </trkpt>
      <trkpt lat="47.44435" lon="6.64387">
        <ele>325</ele>
        <time>2015-04-26T08:54:24.000Z</time>
      </trkpt>
      <trkpt lat="47.44434" lon="6.64382">
        <ele>325</ele>
        <time>2015-04-26T08:54:25.000Z</time>
      </trkpt>
      <trkpt lat="47.44433" lon="6.64376">
        <ele>325</ele>
        <time>2015-04-26T08:54:26.000Z</time>
      </trkpt>
      <trkpt lat="47.44432" lon="6.6437">
        <ele>325</ele>
        <time>2015-04-26T08:54:27.000Z</time>
      </trkpt>
      <trkpt lat="47.44431" lon="6.64365">
        <ele>326</ele>
        <time>2015-04-26T08:54:28.000Z</time>
      </trkpt>
      <trkpt lat="47.4443" lon="6.6436">
        <ele>326</ele>
        <time>2015-04-26T08:54:29.000Z</time>
      </trkpt>
      <trkpt lat="47.44429" lon="6.64355">
        <ele>327</ele>
        <time>2015-04-26T08:54:30.000Z</time>
      </trkpt>
      <trkpt lat="47.44428" lon="6.6435">
        <ele>327</ele>
        <time>2015-04-26T08:54:31.000Z</time>
      </trkpt>
      <trkpt lat="47.44427" lon="6.64346">
        <ele>328</ele>
        <time>2015-04-26T08:54:32.000Z</time>
      </trkpt>
      <trkpt lat="47.44427" lon="6.64341">
        <ele>328</ele>
        <time>2015-04-26T08:54:33.000Z</time>
      </trkpt>
      <trkpt lat="47.44425" lon="6.64336">
        <ele>329</ele>
        <time>2015-04-26T08:54:34.000Z</time>
      </trkpt>
      <trkpt lat="47.44425" lon="6.64331">
        <ele>330</ele>
        <time>2015-04-26T08:54:35.000Z</time>
      </trkpt>
      <trkpt lat="47.44424" lon="6.64325">
        <ele>329</ele>
        <time>2015-04-26T08:54:36.000Z</time>
      </trkpt>
      <trkpt lat="47.44423" lon="6.6432">
        <ele>328</ele>
        <time>2015-04-26T08:54:37.000Z</time>
      </trkpt>
      <trkpt lat="47.44422" lon="6.64314">
        <ele>328</ele>
        <time>2015-04-26T08:54:38.000Z</time>
      </trkpt>
      <trkpt lat="47.44422" lon="6.64308">
        <ele>327</ele>
        <time>2015-04-26T08:54:39.000Z</time>
      </trkpt>
      <trkpt lat="47.44422" lon="6.64302">
        <ele>327</ele>
        <time>2015-04-26T08:54:40.000Z</time>
      </trkpt>
      <trkpt lat="47.44422" lon="6.64295">
        <ele>327</ele>
        <time>2015-04-26T08:54:41.000Z</time>
      </trkpt>
      <trkpt lat="47.44422" lon="6.64289">
        <ele>327</ele>
        <time>2015-04-26T08:54:42.000Z</time>
      </trkpt>
      <trkpt lat="47.44422" lon="6.64282">
        <ele>327</ele>
        <time>2015-04-26T08:54:43.000Z</time>
      </trkpt>
      <trkpt lat="47.44422" lon="6.64276">
        <ele>328</ele>
        <time>2015-04-26T08:54:44.000Z</time>
      </trkpt>
      <trkpt lat="47.44422" lon="6.64269">
        <ele>329</ele>
        <time>2015-04-26T08:54:45.000Z</time>
      </trkpt>
      <trkpt lat="47.44423" lon="6.64263">
        <ele>330</ele>
        <time>2015-04-26T08:54:46.000Z</time>
      </trkpt>
      <trkpt lat="47.44423" lon="6.64256">
        <ele>331</ele>
        <time>2015-04-26T08:54:47.000Z</time>
      </trkpt>
      <trkpt lat="47.44423" lon="6.64249">
        <ele>332</ele>
        <time>2015-04-26T08:54:48.000Z</time>
      </trkpt>
      <trkpt lat="47.44423" lon="6.64242">
        <ele>331</ele>
        <time>2015-04-26T08:54:49.000Z</time>
      </trkpt>
      <trkpt lat="47.44423" lon="6.64235">
        <ele>330</ele>
        <time>2015-04-26T08:54:50.000Z</time>
      </trkpt>
      <trkpt lat="47.44422" lon="6.64227">
        <ele>329</ele>
        <time>2015-04-26T08:54:51.000Z</time>
      </trkpt>
      <trkpt lat="47.44422" lon="6.64219">
        <ele>329</ele>
        <time>2015-04-26T08:54:52.000Z</time>
      </trkpt>
      <trkpt lat="47.44422" lon="6.64209">
        <ele>329</ele>
        <time>2015-04-26T08:54:53.000Z</time>
      </trkpt>
      <trkpt lat="47.44421" lon="6.642">
        <ele>329</ele>
        <time>2015-04-26T08:54:54.000Z</time>
      </trkpt>
      <trkpt lat="47.44421" lon="6.64191">
        <ele>329</ele>
        <time>2015-04-26T08:54:55.000Z</time>
      </trkpt>
      <trkpt lat="47.4442" lon="6.64182">
        <ele>330</ele>
        <time>2015-04-26T08:54:56.000Z</time>
      </trkpt>
      <trkpt lat="47.44419" lon="6.64174">
        <ele>332</ele>
        <time>2015-04-26T08:54:57.000Z</time>
      </trkpt>
      <trkpt lat="47.44419" lon="6.64164">
        <ele>333</ele>
        <time>2015-04-26T08:54:58.000Z</time>
      </trkpt>
      <trkpt lat="47.44418" lon="6.64154">
        <ele>331</ele>
        <time>2015-04-26T08:54:59.000Z</time>
      </trkpt>
      <trkpt lat="47.44418" lon="6.64144">
        <ele>330</ele>
        <time>2015-04-26T08:55:00.000Z</time>
      </trkpt>
      <trkpt lat="47.44418" lon="6.64135">
        <ele>329</ele>
        <time>2015-04-26T08:55:01.000Z</time>
      </trkpt>
      <trkpt lat="47.44417" lon="6.64126">
        <ele>329</ele>
        <time>2015-04-26T08:55:02.000Z</time>
      </trkpt>
      <trkpt lat="47.44416" lon="6.64118">
        <ele>329</ele>
        <time>2015-04-26T08:55:03.000Z</time>
      </trkpt>
      <trkpt lat="47.44415" lon="6.64111">
        <ele>330</ele>
        <time>2015-04-26T08:55:04.000Z</time>
      </trkpt>
      <trkpt lat="47.44413" lon="6.64104">
        <ele>330</ele>
        <time>2015-04-26T08:55:05.000Z</time>
      </trkpt>
      <trkpt lat="47.44413" lon="6.64097">
        <ele>330</ele>
        <time>2015-04-26T08:55:06.000Z</time>
      </trkpt>
      <trkpt lat="47.44411" lon="6.64091">
        <ele>331</ele>
        <time>2015-04-26T08:55:07.000Z</time>
      </trkpt>
      <trkpt lat="47.4441" lon="6.64084">
        <ele>331</ele>
        <time>2015-04-26T08:55:08.000Z</time>
      </trkpt>
      <trkpt lat="47.44408" lon="6.64078">
        <ele>331</ele>
        <time>2015-04-26T08:55:09.000Z</time>
      </trkpt>
      <trkpt lat="47.44407" lon="6.64072">
        <ele>331</ele>
        <time>2015-04-26T08:55:10.000Z</time>
      </trkpt>
      <trkpt lat="47.44405" lon="6.64066">
        <ele>331</ele>
        <time>2015-04-26T08:55:11.000Z</time>
      </trkpt>
      <trkpt lat="47.44404" lon="6.6406">
        <ele>330</ele>
        <time>2015-04-26T08:55:12.000Z</time>
      </trkpt>
      <trkpt lat="47.44402" lon="6.64055">
        <ele>330</ele>
        <time>2015-04-26T08:55:13.000Z</time>
      </trkpt>
      <trkpt lat="47.444" lon="6.6405">
        <ele>330</ele>
        <time>2015-04-26T08:55:14.000Z</time>
      </trkpt>
      <trkpt lat="47.44399" lon="6.64045">
        <ele>330</ele>
        <time>2015-04-26T08:55:15.000Z</time>
      </trkpt>
      <trkpt lat="47.44396" lon="6.6404">
        <ele>330</ele>
        <time>2015-04-26T08:55:16.000Z</time>
      </trkpt>
      <trkpt lat="47.44394" lon="6.64036">
        <ele>330</ele>
        <time>2015-04-26T08:55:17.000Z</time>
      </trkpt>
      <trkpt lat="47.44392" lon="6.64031">
        <ele>330</ele>
        <time>2015-04-26T08:55:18.000Z</time>
      </trkpt>
      <trkpt lat="47.44389" lon="6.64027">
        <ele>330</ele>
        <time>2015-04-26T08:55:19.000Z</time>
      </trkpt>
      <trkpt lat="47.44386" lon="6.64022">
        <ele>330</ele>
        <time>2015-04-26T08:55:20.000Z</time>
      </trkpt>
      <trkpt lat="47.44383" lon="6.64016">
        <ele>330</ele>
        <time>2015-04-26T08:55:21.000Z</time>
      </trkpt>
      <trkpt lat="47.4438" lon="6.64009">
        <ele>329</ele>
        <time>2015-04-26T08:55:22.000Z</time>
      </trkpt>
      <trkpt lat="47.44376" lon="6.64005">
        <ele>329</ele>
        <time>2015-04-26T08:55:23.000Z</time>
      </trkpt>
      <trkpt lat="47.44374" lon="6.63999">
        <ele>332</ele>
        <time>2015-04-26T08:55:24.000Z</time>
      </trkpt>
      <trkpt lat="47.4437" lon="6.63994">
        <ele>331</ele>
        <time>2015-04-26T08:55:25.000Z</time>
      </trkpt>
      <trkpt lat="47.44367" lon="6.63989">
        <ele>331</ele>
        <time>2015-04-26T08:55:26.000Z</time>
      </trkpt>
      <trkpt lat="47.44364" lon="6.63983">
        <ele>331</ele>
        <time>2015-04-26T08:55:27.000Z</time>
      </trkpt>
      <trkpt lat="47.44361" lon="6.63979">
        <ele>331</ele>
        <time>2015-04-26T08:55:28.000Z</time>
      </trkpt>
      <trkpt lat="47.44357" lon="6.63974">
        <ele>331</ele>
        <time>2015-04-26T08:55:29.000Z</time>
      </trkpt>
      <trkpt lat="47.44355" lon="6.63968">
        <ele>331</ele>
        <time>2015-04-26T08:55:30.000Z</time>
      </trkpt>
      <trkpt lat="47.44352" lon="6.63962">
        <ele>331</ele>
        <time>2015-04-26T08:55:31.000Z</time>
      </trkpt>
      <trkpt lat="47.44349" lon="6.63956">
        <ele>332</ele>
        <time>2015-04-26T08:55:32.000Z</time>
      </trkpt>
      <trkpt lat="47.44346" lon="6.6395">
        <ele>332</ele>
        <time>2015-04-26T08:55:33.000Z</time>
      </trkpt>
      <trkpt lat="47.44343" lon="6.63944">
        <ele>332</ele>
        <time>2015-04-26T08:55:34.000Z</time>
      </trkpt>
      <trkpt lat="47.44339" lon="6.63939">
        <ele>331</ele>
        <time>2015-04-26T08:55:35.000Z</time>
      </trkpt>
      <trkpt lat="47.44336" lon="6.63932">
        <ele>331</ele>
        <time>2015-04-26T08:55:36.000Z</time>
      </trkpt>
      <trkpt lat="47.44333" lon="6.63927">
        <ele>327</ele>
        <time>2015-04-26T08:55:37.000Z</time>
      </trkpt>
      <trkpt lat="47.4433" lon="6.63922">
        <ele>328</ele>
        <time>2015-04-26T08:55:38.000Z</time>
      </trkpt>
      <trkpt lat="47.44328" lon="6.63916">
        <ele>328</ele>
        <time>2015-04-26T08:55:39.000Z</time>
      </trkpt>
      <trkpt lat="47.44327" lon="6.6391">
        <ele>328</ele>
        <time>2015-04-26T08:55:40.000Z</time>
      </trkpt>
      <trkpt lat="47.44325" lon="6.63905">
        <ele>327</ele>
        <time>2015-04-26T08:55:41.000Z</time>
      </trkpt>
      <trkpt lat="47.44324" lon="6.63899">
        <ele>326</ele>
        <time>2015-04-26T08:55:42.001Z</time>
      </trkpt>
      <trkpt lat="47.44324" lon="6.63894">
        <ele>326</ele>
        <time>2015-04-26T08:55:43.000Z</time>
      </trkpt>
      <trkpt lat="47.44326" lon="6.63891">
        <ele>326</ele>
        <time>2015-04-26T08:55:44.000Z</time>
      </trkpt>
      <trkpt lat="47.44327" lon="6.63887">
        <ele>325</ele>
        <time>2015-04-26T08:55:45.000Z</time>
      </trkpt>
      <trkpt lat="47.44328" lon="6.6388">
        <ele>325</ele>
        <time>2015-04-26T08:55:46.000Z</time>
      </trkpt>
      <trkpt lat="47.4433" lon="6.63875">
        <ele>325</ele>
        <time>2015-04-26T08:55:47.000Z</time>
      </trkpt>
      <trkpt lat="47.44331" lon="6.6387">
        <ele>326</ele>
        <time>2015-04-26T08:55:48.000Z</time>
      </trkpt>
      <trkpt lat="47.44332" lon="6.63865">
        <ele>326</ele>
        <time>2015-04-26T08:55:49.000Z</time>
      </trkpt>
      <trkpt lat="47.44331" lon="6.63861">
        <ele>326</ele>
        <time>2015-04-26T08:55:50.000Z</time>
      </trkpt>
      <trkpt lat="47.44331" lon="6.63857">
        <ele>326</ele>
        <time>2015-04-26T08:55:51.000Z</time>
      </trkpt>
      <trkpt lat="47.4433" lon="6.63853">
        <ele>326</ele>
        <time>2015-04-26T08:55:52.000Z</time>
      </trkpt>
      <trkpt lat="47.4433" lon="6.63848">
        <ele>327</ele>
        <time>2015-04-26T08:55:53.000Z</time>
      </trkpt>
      <trkpt lat="47.4433" lon="6.63844">
        <ele>328</ele>
        <time>2015-04-26T08:55:54.000Z</time>
      </trkpt>
      <trkpt lat="47.4433" lon="6.63839">
        <ele>328</ele>
        <time>2015-04-26T08:55:55.000Z</time>
      </trkpt>
      <trkpt lat="47.44331" lon="6.63834">
        <ele>329</ele>
        <time>2015-04-26T08:55:56.000Z</time>
      </trkpt>
      <trkpt lat="47.44331" lon="6.63829">
        <ele>329</ele>
        <time>2015-04-26T08:55:57.000Z</time>
      </trkpt>
      <trkpt lat="47.44332" lon="6.63824">
        <ele>328</ele>
        <time>2015-04-26T08:55:58.000Z</time>
      </trkpt>
      <trkpt lat="47.44332" lon="6.6382">
        <ele>328</ele>
        <time>2015-04-26T08:55:59.000Z</time>
      </trkpt>
      <trkpt lat="47.44332" lon="6.63815">
        <ele>327</ele>
        <time>2015-04-26T08:56:00.000Z</time>
      </trkpt>
      <trkpt lat="47.44333" lon="6.6381">
        <ele>327</ele>
        <time>2015-04-26T08:56:01.000Z</time>
      </trkpt>
      <trkpt lat="47.44333" lon="6.63806">
        <ele>327</ele>
        <time>2015-04-26T08:56:02.000Z</time>
      </trkpt>
      <trkpt lat="47.44334" lon="6.63801">
        <ele>334</ele>
        <time>2015-04-26T08:56:03.000Z</time>
      </trkpt>
      <trkpt lat="47.44335" lon="6.63796">
        <ele>334</ele>
        <time>2015-04-26T08:56:04.000Z</time>
      </trkpt>
      <trkpt lat="47.44335" lon="6.6379">
        <ele>334</ele>
        <time>2015-04-26T08:56:05.000Z</time>
      </trkpt>
      <trkpt lat="47.44336" lon="6.63785">
        <ele>334</ele>
        <time>2015-04-26T08:56:06.000Z</time>
      </trkpt>
      <trkpt lat="47.44336" lon="6.6378">
        <ele>334</ele>
        <time>2015-04-26T08:56:07.000Z</time>
      </trkpt>
      <trkpt lat="47.44336" lon="6.63775">
        <ele>334</ele>
        <time>2015-04-26T08:56:08.000Z</time>
      </trkpt>
      <trkpt lat="47.44337" lon="6.6377">
        <ele>333</ele>
        <time>2015-04-26T08:56:09.000Z</time>
      </trkpt>
      <trkpt lat="47.44338" lon="6.63764">
        <ele>333</ele>
        <time>2015-04-26T08:56:10.000Z</time>
      </trkpt>
      <trkpt lat="47.44338" lon="6.63759">
        <ele>332</ele>
        <time>2015-04-26T08:56:11.000Z</time>
      </trkpt>
      <trkpt lat="47.44339" lon="6.63754">
        <ele>332</ele>
        <time>2015-04-26T08:56:12.001Z</time>
      </trkpt>
      <trkpt lat="47.4434" lon="6.63748">
        <ele>331</ele>
        <time>2015-04-26T08:56:13.000Z</time>
      </trkpt>
      <trkpt lat="47.44341" lon="6.63743">
        <ele>332</ele>
        <time>2015-04-26T08:56:14.000Z</time>
      </trkpt>
      <trkpt lat="47.44341" lon="6.63738">
        <ele>332</ele>
        <time>2015-04-26T08:56:15.001Z</time>
      </trkpt>
      <trkpt lat="47.44342" lon="6.63733">
        <ele>333</ele>
        <time>2015-04-26T08:56:16.000Z</time>
      </trkpt>
      <trkpt lat="47.44342" lon="6.63728">
        <ele>333</ele>
        <time>2015-04-26T08:56:17.000Z</time>
      </trkpt>
      <trkpt lat="47.44343" lon="6.63722">
        <ele>333</ele>
        <time>2015-04-26T08:56:18.000Z</time>
      </trkpt>
      <trkpt lat="47.44344" lon="6.63717">
        <ele>334</ele>
        <time>2015-04-26T08:56:19.000Z</time>
      </trkpt>
      <trkpt lat="47.44344" lon="6.63711">
        <ele>334</ele>
        <time>2015-04-26T08:56:20.000Z</time>
      </trkpt>
      <trkpt lat="47.44344" lon="6.63706">
        <ele>334</ele>
        <time>2015-04-26T08:56:21.000Z</time>
      </trkpt>
      <trkpt lat="47.44344" lon="6.63701">
        <ele>334</ele>
        <time>2015-04-26T08:56:22.000Z</time>
      </trkpt>
      <trkpt lat="47.44343" lon="6.63695">
        <ele>334</ele>
        <time>2015-04-26T08:56:23.000Z</time>
      </trkpt>
      <trkpt lat="47.44343" lon="6.6369">
        <ele>333</ele>
        <time>2015-04-26T08:56:24.001Z</time>
      </trkpt>
      <trkpt lat="47.44342" lon="6.63685">
        <ele>333</ele>
        <time>2015-04-26T08:56:25.000Z</time>
      </trkpt>
      <trkpt lat="47.44342" lon="6.6368">
        <ele>333</ele>
        <time>2015-04-26T08:56:26.000Z</time>
      </trkpt>
      <trkpt lat="47.44342" lon="6.63675">
        <ele>333</ele>
        <time>2015-04-26T08:56:27.000Z</time>
      </trkpt>
      <trkpt lat="47.44342" lon="6.6367">
        <ele>332</ele>
        <time>2015-04-26T08:56:28.000Z</time>
      </trkpt>
      <trkpt lat="47.44342" lon="6.63666">
        <ele>332</ele>
        <time>2015-04-26T08:56:29.000Z</time>
      </trkpt>
      <trkpt lat="47.44342" lon="6.63661">
        <ele>332</ele>
        <time>2015-04-26T08:56:30.000Z</time>
      </trkpt>
      <trkpt lat="47.44342" lon="6.63658">
        <ele>332</ele>
        <time>2015-04-26T08:56:31.000Z</time>
      </trkpt>
      <trkpt lat="47.44342" lon="6.63651">
        <ele>332</ele>
        <time>2015-04-26T08:56:33.000Z</time>
      </trkpt>
      <trkpt lat="47.44341" lon="6.63648">
        <ele>332</ele>
        <time>2015-04-26T08:56:34.000Z</time>
      </trkpt>
      <trkpt lat="47.44341" lon="6.63644">
        <ele>332</ele>
        <time>2015-04-26T08:56:35.000Z</time>
      </trkpt>
      <trkpt lat="47.4434" lon="6.6364">
        <ele>332</ele>
        <time>2015-04-26T08:56:36.000Z</time>
      </trkpt>
      <trkpt lat="47.44339" lon="6.63636">
        <ele>332</ele>
        <time>2015-04-26T08:56:37.000Z</time>
      </trkpt>
      <trkpt lat="47.44338" lon="6.63632">
        <ele>332</ele>
        <time>2015-04-26T08:56:38.000Z</time>
      </trkpt>
      <trkpt lat="47.44337" lon="6.63627">
        <ele>332</ele>
        <time>2015-04-26T08:56:39.000Z</time>
      </trkpt>
      <trkpt lat="47.44336" lon="6.63623">
        <ele>332</ele>
        <time>2015-04-26T08:56:40.000Z</time>
      </trkpt>
      <trkpt lat="47.44334" lon="6.63619">
        <ele>332</ele>
        <time>2015-04-26T08:56:41.000Z</time>
      </trkpt>
      <trkpt lat="47.44333" lon="6.63616">
        <ele>327</ele>
        <time>2015-04-26T08:56:42.000Z</time>
      </trkpt>
      <trkpt lat="47.44332" lon="6.63612">
        <ele>327</ele>
        <time>2015-04-26T08:56:43.000Z</time>
      </trkpt>
      <trkpt lat="47.44331" lon="6.63609">
        <ele>327</ele>
        <time>2015-04-26T08:56:44.000Z</time>
      </trkpt>
      <trkpt lat="47.4433" lon="6.63604">
        <ele>328</ele>
        <time>2015-04-26T08:56:45.000Z</time>
      </trkpt>
      <trkpt lat="47.44329" lon="6.636">
        <ele>328</ele>
        <time>2015-04-26T08:56:46.000Z</time>
      </trkpt>
      <trkpt lat="47.44328" lon="6.63595">
        <ele>328</ele>
        <time>2015-04-26T08:56:47.000Z</time>
      </trkpt>
      <trkpt lat="47.44327" lon="6.6359">
        <ele>329</ele>
        <time>2015-04-26T08:56:48.000Z</time>
      </trkpt>
      <trkpt lat="47.44326" lon="6.63585">
        <ele>329</ele>
        <time>2015-04-26T08:56:49.000Z</time>
      </trkpt>
      <trkpt lat="47.44325" lon="6.6358">
        <ele>329</ele>
        <time>2015-04-26T08:56:50.000Z</time>
      </trkpt>
      <trkpt lat="47.44324" lon="6.63576">
        <ele>329</ele>
        <time>2015-04-26T08:56:51.000Z</time>
      </trkpt>
      <trkpt lat="47.44323" lon="6.63571">
        <ele>328</ele>
        <time>2015-04-26T08:56:52.000Z</time>
      </trkpt>
      <trkpt lat="47.44322" lon="6.63566">
        <ele>328</ele>
        <time>2015-04-26T08:56:53.000Z</time>
      </trkpt>
      <trkpt lat="47.4432" lon="6.63562">
        <ele>328</ele>
        <time>2015-04-26T08:56:54.000Z</time>
      </trkpt>
      <trkpt lat="47.44319" lon="6.63557">
        <ele>327</ele>
        <time>2015-04-26T08:56:55.000Z</time>
      </trkpt>
      <trkpt lat="47.44317" lon="6.63553">
        <ele>327</ele>
        <time>2015-04-26T08:56:56.000Z</time>
      </trkpt>
      <trkpt lat="47.44316" lon="6.63549">
        <ele>327</ele>
        <time>2015-04-26T08:56:57.000Z</time>
      </trkpt>
      <trkpt lat="47.44314" lon="6.63545">
        <ele>327</ele>
        <time>2015-04-26T08:56:58.000Z</time>
      </trkpt>
      <trkpt lat="47.44313" lon="6.63541">
        <ele>327</ele>
        <time>2015-04-26T08:56:59.000Z</time>
      </trkpt>
      <trkpt lat="47.44311" lon="6.63537">
        <ele>327</ele>
        <time>2015-04-26T08:57:00.001Z</time>
      </trkpt>
      <trkpt lat="47.4431" lon="6.63532">
        <ele>327</ele>
        <time>2015-04-26T08:57:01.000Z</time>
      </trkpt>
      <trkpt lat="47.44309" lon="6.63528">
        <ele>327</ele>
        <time>2015-04-26T08:57:02.000Z</time>
      </trkpt>
      <trkpt lat="47.44308" lon="6.63523">
        <ele>327</ele>
        <time>2015-04-26T08:57:03.000Z</time>
      </trkpt>
      <trkpt lat="47.44307" lon="6.63519">
        <ele>327</ele>
        <time>2015-04-26T08:57:04.000Z</time>
      </trkpt>
      <trkpt lat="47.44305" lon="6.63515">
        <ele>327</ele>
        <time>2015-04-26T08:57:05.000Z</time>
      </trkpt>
      <trkpt lat="47.44304" lon="6.63512">
        <ele>327</ele>
        <time>2015-04-26T08:57:06.000Z</time>
      </trkpt>
      <trkpt lat="47.44302" lon="6.63509">
        <ele>327</ele>
        <time>2015-04-26T08:57:07.000Z</time>
      </trkpt>
      <trkpt lat="47.44301" lon="6.63506">
        <ele>327</ele>
        <time>2015-04-26T08:57:08.000Z</time>
      </trkpt>
      <trkpt lat="47.443" lon="6.63503">
        <ele>327</ele>
        <time>2015-04-26T08:57:09.000Z</time>
      </trkpt>
      <trkpt lat="47.44298" lon="6.635">
        <ele>328</ele>
        <time>2015-04-26T08:57:10.000Z</time>
      </trkpt>
      <trkpt lat="47.44296" lon="6.63496">
        <ele>328</ele>
        <time>2015-04-26T08:57:11.000Z</time>
      </trkpt>
      <trkpt lat="47.44294" lon="6.63493">
        <ele>328</ele>
        <time>2015-04-26T08:57:12.000Z</time>
      </trkpt>
      <trkpt lat="47.44292" lon="6.63489">
        <ele>328</ele>
        <time>2015-04-26T08:57:13.000Z</time>
      </trkpt>
      <trkpt lat="47.4429" lon="6.63485">
        <ele>328</ele>
        <time>2015-04-26T08:57:14.000Z</time>
      </trkpt>
      <trkpt lat="47.44288" lon="6.63481">
        <ele>328</ele>
        <time>2015-04-26T08:57:15.000Z</time>
      </trkpt>
      <trkpt lat="47.44285" lon="6.63477">
        <ele>328</ele>
        <time>2015-04-26T08:57:16.000Z</time>
      </trkpt>
      <trkpt lat="47.44282" lon="6.63472">
        <ele>328</ele>
        <time>2015-04-26T08:57:17.000Z</time>
      </trkpt>
      <trkpt lat="47.4428" lon="6.63468">
        <ele>328</ele>
        <time>2015-04-26T08:57:18.000Z</time>
      </trkpt>
      <trkpt lat="47.44277" lon="6.63463">
        <ele>328</ele>
        <time>2015-04-26T08:57:19.000Z</time>
      </trkpt>
      <trkpt lat="47.44274" lon="6.63459">
        <ele>328</ele>
        <time>2015-04-26T08:57:20.000Z</time>
      </trkpt>
      <trkpt lat="47.44271" lon="6.63454">
        <ele>328</ele>
        <time>2015-04-26T08:57:21.000Z</time>
      </trkpt>
      <trkpt lat="47.44269" lon="6.6345">
        <ele>328</ele>
        <time>2015-04-26T08:57:22.000Z</time>
      </trkpt>
      <trkpt lat="47.44267" lon="6.63445">
        <ele>328</ele>
        <time>2015-04-26T08:57:23.000Z</time>
      </trkpt>
      <trkpt lat="47.44264" lon="6.6344">
        <ele>328</ele>
        <time>2015-04-26T08:57:24.000Z</time>
      </trkpt>
      <trkpt lat="47.44262" lon="6.63436">
        <ele>328</ele>
        <time>2015-04-26T08:57:25.000Z</time>
      </trkpt>
      <trkpt lat="47.44259" lon="6.63431">
        <ele>328</ele>
        <time>2015-04-26T08:57:26.000Z</time>
      </trkpt>
      <trkpt lat="47.44256" lon="6.63426">
        <ele>328</ele>
        <time>2015-04-26T08:57:27.000Z</time>
      </trkpt>
      <trkpt lat="47.44253" lon="6.63421">
        <ele>328</ele>
        <time>2015-04-26T08:57:28.000Z</time>
      </trkpt>
      <trkpt lat="47.4425" lon="6.63416">
        <ele>328</ele>
        <time>2015-04-26T08:57:29.000Z</time>
      </trkpt>
      <trkpt lat="47.44247" lon="6.63411">
        <ele>327</ele>
        <time>2015-04-26T08:57:30.000Z</time>
      </trkpt>
      <trkpt lat="47.44244" lon="6.63406">
        <ele>326</ele>
        <time>2015-04-26T08:57:31.000Z</time>
      </trkpt>
      <trkpt lat="47.44241" lon="6.63402">
        <ele>326</ele>
        <time>2015-04-26T08:57:32.000Z</time>
      </trkpt>
      <trkpt lat="47.44238" lon="6.63397">
        <ele>325</ele>
        <time>2015-04-26T08:57:33.000Z</time>
      </trkpt>
      <trkpt lat="47.44233" lon="6.63393">
        <ele>325</ele>
        <time>2015-04-26T08:57:34.000Z</time>
      </trkpt>
      <trkpt lat="47.4423" lon="6.63388">
        <ele>324</ele>
        <time>2015-04-26T08:57:35.000Z</time>
      </trkpt>
      <trkpt lat="47.44227" lon="6.63382">
        <ele>324</ele>
        <time>2015-04-26T08:57:36.000Z</time>
      </trkpt>
      <trkpt lat="47.44224" lon="6.63377">
        <ele>324</ele>
        <time>2015-04-26T08:57:37.000Z</time>
      </trkpt>
      <trkpt lat="47.44221" lon="6.63372">
        <ele>324</ele>
        <time>2015-04-26T08:57:38.000Z</time>
      </trkpt>
      <trkpt lat="47.44217" lon="6.63367">
        <ele>324</ele>
        <time>2015-04-26T08:57:39.000Z</time>
      </trkpt>
      <trkpt lat="47.44214" lon="6.63361">
        <ele>324</ele>
        <time>2015-04-26T08:57:40.000Z</time>
      </trkpt>
      <trkpt lat="47.4421" lon="6.63356">
        <ele>324</ele>
        <time>2015-04-26T08:57:41.000Z</time>
      </trkpt>
      <trkpt lat="47.44206" lon="6.6335">
        <ele>323</ele>
        <time>2015-04-26T08:57:42.000Z</time>
      </trkpt>
      <trkpt lat="47.44201" lon="6.63345">
        <ele>323</ele>
        <time>2015-04-26T08:57:43.000Z</time>
      </trkpt>
      <trkpt lat="47.44196" lon="6.63339">
        <ele>323</ele>
        <time>2015-04-26T08:57:44.000Z</time>
      </trkpt>
      <trkpt lat="47.44191" lon="6.63334">
        <ele>323</ele>
        <time>2015-04-26T08:57:45.000Z</time>
      </trkpt>
      <trkpt lat="47.44187" lon="6.63328">
        <ele>323</ele>
        <time>2015-04-26T08:57:46.000Z</time>
      </trkpt>
      <trkpt lat="47.44183" lon="6.63321">
        <ele>323</ele>
        <time>2015-04-26T08:57:47.000Z</time>
      </trkpt>
      <trkpt lat="47.44181" lon="6.63313">
        <ele>323</ele>
        <time>2015-04-26T08:57:48.000Z</time>
      </trkpt>
      <trkpt lat="47.44178" lon="6.63306">
        <ele>324</ele>
        <time>2015-04-26T08:57:49.000Z</time>
      </trkpt>
      <trkpt lat="47.44177" lon="6.63298">
        <ele>324</ele>
        <time>2015-04-26T08:57:50.000Z</time>
      </trkpt>
      <trkpt lat="47.44173" lon="6.63291">
        <ele>324</ele>
        <time>2015-04-26T08:57:51.000Z</time>
      </trkpt>
      <trkpt lat="47.4417" lon="6.63283">
        <ele>324</ele>
        <time>2015-04-26T08:57:52.000Z</time>
      </trkpt>
      <trkpt lat="47.44167" lon="6.63275">
        <ele>324</ele>
        <time>2015-04-26T08:57:53.000Z</time>
      </trkpt>
      <trkpt lat="47.44164" lon="6.63268">
        <ele>320</ele>
        <time>2015-04-26T08:57:54.000Z</time>
      </trkpt>
      <trkpt lat="47.44162" lon="6.63261">
        <ele>321</ele>
        <time>2015-04-26T08:57:55.000Z</time>
      </trkpt>
      <trkpt lat="47.44159" lon="6.63253">
        <ele>322</ele>
        <time>2015-04-26T08:57:56.000Z</time>
      </trkpt>
      <trkpt lat="47.44157" lon="6.63246">
        <ele>322</ele>
        <time>2015-04-26T08:57:57.000Z</time>
      </trkpt>
      <trkpt lat="47.44154" lon="6.63238">
        <ele>321</ele>
        <time>2015-04-26T08:57:58.000Z</time>
      </trkpt>
      <trkpt lat="47.44152" lon="6.63231">
        <ele>320</ele>
        <time>2015-04-26T08:57:59.000Z</time>
      </trkpt>
      <trkpt lat="47.4415" lon="6.63223">
        <ele>320</ele>
        <time>2015-04-26T08:58:00.000Z</time>
      </trkpt>
      <trkpt lat="47.44148" lon="6.63217">
        <ele>320</ele>
        <time>2015-04-26T08:58:01.000Z</time>
      </trkpt>
      <trkpt lat="47.44146" lon="6.63209">
        <ele>320</ele>
        <time>2015-04-26T08:58:02.000Z</time>
      </trkpt>
      <trkpt lat="47.44142" lon="6.63201">
        <ele>320</ele>
        <time>2015-04-26T08:58:03.000Z</time>
      </trkpt>
      <trkpt lat="47.44139" lon="6.63194">
        <ele>320</ele>
        <time>2015-04-26T08:58:04.000Z</time>
      </trkpt>
      <trkpt lat="47.44136" lon="6.63186">
        <ele>320</ele>
        <time>2015-04-26T08:58:05.000Z</time>
      </trkpt>
      <trkpt lat="47.44133" lon="6.6318">
        <ele>319</ele>
        <time>2015-04-26T08:58:06.000Z</time>
      </trkpt>
      <trkpt lat="47.44128" lon="6.63172">
        <ele>319</ele>
        <time>2015-04-26T08:58:07.000Z</time>
      </trkpt>
      <trkpt lat="47.44124" lon="6.63165">
        <ele>319</ele>
        <time>2015-04-26T08:58:08.000Z</time>
      </trkpt>
      <trkpt lat="47.4412" lon="6.63158">
        <ele>318</ele>
        <time>2015-04-26T08:58:09.000Z</time>
      </trkpt>
      <trkpt lat="47.44116" lon="6.63151">
        <ele>318</ele>
        <time>2015-04-26T08:58:10.000Z</time>
      </trkpt>
      <trkpt lat="47.44112" lon="6.63144">
        <ele>318</ele>
        <time>2015-04-26T08:58:11.000Z</time>
      </trkpt>
      <trkpt lat="47.44108" lon="6.63137">
        <ele>318</ele>
        <time>2015-04-26T08:58:12.000Z</time>
      </trkpt>
      <trkpt lat="47.44104" lon="6.63131">
        <ele>318</ele>
        <time>2015-04-26T08:58:13.000Z</time>
      </trkpt>
      <trkpt lat="47.44101" lon="6.63125">
        <ele>317</ele>
        <time>2015-04-26T08:58:14.000Z</time>
      </trkpt>
      <trkpt lat="47.44097" lon="6.63121">
        <ele>317</ele>
        <time>2015-04-26T08:58:15.000Z</time>
      </trkpt>
      <trkpt lat="47.44094" lon="6.63116">
        <ele>317</ele>
        <time>2015-04-26T08:58:16.000Z</time>
      </trkpt>
      <trkpt lat="47.44091" lon="6.63111">
        <ele>317</ele>
        <time>2015-04-26T08:58:17.000Z</time>
      </trkpt>
      <trkpt lat="47.44088" lon="6.63105">
        <ele>317</ele>
        <time>2015-04-26T08:58:18.000Z</time>
      </trkpt>
      <trkpt lat="47.44084" lon="6.63098">
        <ele>316</ele>
        <time>2015-04-26T08:58:19.000Z</time>
      </trkpt>
      <trkpt lat="47.44083" lon="6.6309">
        <ele>313</ele>
        <time>2015-04-26T08:58:20.000Z</time>
      </trkpt>
      <trkpt lat="47.44082" lon="6.63083">
        <ele>315</ele>
        <time>2015-04-26T08:58:21.000Z</time>
      </trkpt>
      <trkpt lat="47.44081" lon="6.63076">
        <ele>313</ele>
        <time>2015-04-26T08:58:22.000Z</time>
      </trkpt>
      <trkpt lat="47.4408" lon="6.63069">
        <ele>312</ele>
        <time>2015-04-26T08:58:23.000Z</time>
      </trkpt>
      <trkpt lat="47.4408" lon="6.63065">
        <ele>312</ele>
        <time>2015-04-26T08:58:24.000Z</time>
      </trkpt>
      <trkpt lat="47.44079" lon="6.63061">
        <ele>312</ele>
        <time>2015-04-26T08:58:25.000Z</time>
      </trkpt>
      <trkpt lat="47.44078" lon="6.63059">
        <ele>311</ele>
        <time>2015-04-26T08:58:26.000Z</time>
      </trkpt>
      <trkpt lat="47.44076" lon="6.63056">
        <ele>311</ele>
        <time>2015-04-26T08:58:27.000Z</time>
      </trkpt>
      <trkpt lat="47.44071" lon="6.63053">
        <ele>311</ele>
        <time>2015-04-26T08:58:28.000Z</time>
      </trkpt>
      <trkpt lat="47.44067" lon="6.63051">
        <ele>310</ele>
        <time>2015-04-26T08:58:29.000Z</time>
      </trkpt>
      <trkpt lat="47.44061" lon="6.63047">
        <ele>310</ele>
        <time>2015-04-26T08:58:30.000Z</time>
      </trkpt>
      <trkpt lat="47.44057" lon="6.63044">
        <ele>310</ele>
        <time>2015-04-26T08:58:31.000Z</time>
      </trkpt>
      <trkpt lat="47.44051" lon="6.63039">
        <ele>309</ele>
        <time>2015-04-26T08:58:32.000Z</time>
      </trkpt>
      <trkpt lat="47.44046" lon="6.63034">
        <ele>309</ele>
        <time>2015-04-26T08:58:33.000Z</time>
      </trkpt>
      <trkpt lat="47.44042" lon="6.63029">
        <ele>309</ele>
        <time>2015-04-26T08:58:34.000Z</time>
      </trkpt>
      <trkpt lat="47.44038" lon="6.63022">
        <ele>308</ele>
        <time>2015-04-26T08:58:35.000Z</time>
      </trkpt>
      <trkpt lat="47.44034" lon="6.63017">
        <ele>308</ele>
        <time>2015-04-26T08:58:36.000Z</time>
      </trkpt>
      <trkpt lat="47.44031" lon="6.6301">
        <ele>308</ele>
        <time>2015-04-26T08:58:37.000Z</time>
      </trkpt>
      <trkpt lat="47.44027" lon="6.63004">
        <ele>307</ele>
        <time>2015-04-26T08:58:38.000Z</time>
      </trkpt>
      <trkpt lat="47.44023" lon="6.62998">
        <ele>305</ele>
        <time>2015-04-26T08:58:39.000Z</time>
      </trkpt>
      <trkpt lat="47.44018" lon="6.62992">
        <ele>305</ele>
        <time>2015-04-26T08:58:40.000Z</time>
      </trkpt>
      <trkpt lat="47.44013" lon="6.62987">
        <ele>304</ele>
        <time>2015-04-26T08:58:41.000Z</time>
      </trkpt>
      <trkpt lat="47.44006" lon="6.62985">
        <ele>304</ele>
        <time>2015-04-26T08:58:42.000Z</time>
      </trkpt>
      <trkpt lat="47.43998" lon="6.62983">
        <ele>302</ele>
        <time>2015-04-26T08:58:43.000Z</time>
      </trkpt>
      <trkpt lat="47.4399" lon="6.62978">
        <ele>301</ele>
        <time>2015-04-26T08:58:44.000Z</time>
      </trkpt>
      <trkpt lat="47.43983" lon="6.62976">
        <ele>301</ele>
        <time>2015-04-26T08:58:45.000Z</time>
      </trkpt>
      <trkpt lat="47.43975" lon="6.62973">
        <ele>300</ele>
        <time>2015-04-26T08:58:46.000Z</time>
      </trkpt>
      <trkpt lat="47.43969" lon="6.62969">
        <ele>300</ele>
        <time>2015-04-26T08:58:47.000Z</time>
      </trkpt>
      <trkpt lat="47.43963" lon="6.62965">
        <ele>300</ele>
        <time>2015-04-26T08:58:48.000Z</time>
      </trkpt>
      <trkpt lat="47.43957" lon="6.62963">
        <ele>300</ele>
        <time>2015-04-26T08:58:49.000Z</time>
      </trkpt>
      <trkpt lat="47.43951" lon="6.62965">
        <ele>299</ele>
        <time>2015-04-26T08:58:50.000Z</time>
      </trkpt>
      <trkpt lat="47.43948" lon="6.62969">
        <ele>299</ele>
        <time>2015-04-26T08:58:51.000Z</time>
      </trkpt>
      <trkpt lat="47.43944" lon="6.62971">
        <ele>299</ele>
        <time>2015-04-26T08:58:52.000Z</time>
      </trkpt>
      <trkpt lat="47.43938" lon="6.62972">
        <ele>299</ele>
        <time>2015-04-26T08:58:53.000Z</time>
      </trkpt>
      <trkpt lat="47.43932" lon="6.62967">
        <ele>299</ele>
        <time>2015-04-26T08:58:54.000Z</time>
      </trkpt>
      <trkpt lat="47.43929" lon="6.62964">
        <ele>299</ele>
        <time>2015-04-26T08:58:55.000Z</time>
      </trkpt>
      <trkpt lat="47.43924" lon="6.62958">
        <ele>299</ele>
        <time>2015-04-26T08:58:56.000Z</time>
      </trkpt>
      <trkpt lat="47.43919" lon="6.62952">
        <ele>299</ele>
        <time>2015-04-26T08:58:57.000Z</time>
      </trkpt>
      <trkpt lat="47.43915" lon="6.62945">
        <ele>298</ele>
        <time>2015-04-26T08:58:58.000Z</time>
      </trkpt>
      <trkpt lat="47.43911" lon="6.62939">
        <ele>298</ele>
        <time>2015-04-26T08:58:59.000Z</time>
      </trkpt>
      <trkpt lat="47.43907" lon="6.62932">
        <ele>298</ele>
        <time>2015-04-26T08:59:00.000Z</time>
      </trkpt>
      <trkpt lat="47.43904" lon="6.62926">
        <ele>298</ele>
        <time>2015-04-26T08:59:01.000Z</time>
      </trkpt>
      <trkpt lat="47.43902" lon="6.62921">
        <ele>298</ele>
        <time>2015-04-26T08:59:02.000Z</time>
      </trkpt>
      <trkpt lat="47.43901" lon="6.62916">
        <ele>297</ele>
        <time>2015-04-26T08:59:03.000Z</time>
      </trkpt>
      <trkpt lat="47.43898" lon="6.62914">
        <ele>297</ele>
        <time>2015-04-26T08:59:04.000Z</time>
      </trkpt>
      <trkpt lat="47.43896" lon="6.62915">
        <ele>297</ele>
        <time>2015-04-26T08:59:05.000Z</time>
      </trkpt>
      <trkpt lat="47.43891" lon="6.62914">
        <ele>297</ele>
        <time>2015-04-26T08:59:07.000Z</time>
      </trkpt>
      <trkpt lat="47.43889" lon="6.62914">
        <ele>297</ele>
        <time>2015-04-26T08:59:08.000Z</time>
      </trkpt>
      <trkpt lat="47.43885" lon="6.62916">
        <ele>297</ele>
        <time>2015-04-26T08:59:11.000Z</time>
      </trkpt>
      <trkpt lat="47.43883" lon="6.62917">
        <ele>297</ele>
        <time>2015-04-26T08:59:12.000Z</time>
      </trkpt>
      <trkpt lat="47.43879" lon="6.6292">
        <ele>297</ele>
        <time>2015-04-26T08:59:16.000Z</time>
      </trkpt>
      <trkpt lat="47.43879" lon="6.62921">
        <ele>297</ele>
        <time>2015-04-26T08:59:17.000Z</time>
      </trkpt>
      <trkpt lat="47.43878" lon="6.62927">
        <ele>297</ele>
        <time>2015-04-26T08:59:58.000Z</time>
      </trkpt>
      <trkpt lat="47.43877" lon="6.62928">
        <ele>297</ele>
        <time>2015-04-26T08:59:59.000Z</time>
      </trkpt>
      <trkpt lat="47.43875" lon="6.62933">
        <ele>297</ele>
        <time>2015-04-26T09:00:01.000Z</time>
      </trkpt>
      <trkpt lat="47.43873" lon="6.62937">
        <ele>297</ele>
        <time>2015-04-26T09:00:02.000Z</time>
      </trkpt>
      <trkpt lat="47.43871" lon="6.62942">
        <ele>297</ele>
        <time>2015-04-26T09:00:03.000Z</time>
      </trkpt>
      <trkpt lat="47.43869" lon="6.62947">
        <ele>297</ele>
        <time>2015-04-26T09:00:04.000Z</time>
      </trkpt>
      <trkpt lat="47.43868" lon="6.62953">
        <ele>297</ele>
        <time>2015-04-26T09:00:05.000Z</time>
      </trkpt>
      <trkpt lat="47.43867" lon="6.6296">
        <ele>297</ele>
        <time>2015-04-26T09:00:06.000Z</time>
      </trkpt>
      <trkpt lat="47.43866" lon="6.62966">
        <ele>297</ele>
        <time>2015-04-26T09:00:07.000Z</time>
      </trkpt>
      <trkpt lat="47.43866" lon="6.62972">
        <ele>297</ele>
        <time>2015-04-26T09:00:08.000Z</time>
      </trkpt>
      <trkpt lat="47.43866" lon="6.62978">
        <ele>297</ele>
        <time>2015-04-26T09:00:09.000Z</time>
      </trkpt>
      <trkpt lat="47.43865" lon="6.62985">
        <ele>297</ele>
        <time>2015-04-26T09:00:10.000Z</time>
      </trkpt>
      <trkpt lat="47.43865" lon="6.62991">
        <ele>297</ele>
        <time>2015-04-26T09:00:11.000Z</time>
      </trkpt>
      <trkpt lat="47.43865" lon="6.62998">
        <ele>297</ele>
        <time>2015-04-26T09:00:12.000Z</time>
      </trkpt>
      <trkpt lat="47.43866" lon="6.63004">
        <ele>297</ele>
        <time>2015-04-26T09:00:13.000Z</time>
      </trkpt>
      <trkpt lat="47.43866" lon="6.63011">
        <ele>297</ele>
        <time>2015-04-26T09:00:14.000Z</time>
      </trkpt>
      <trkpt lat="47.43866" lon="6.63017">
        <ele>297</ele>
        <time>2015-04-26T09:00:15.000Z</time>
      </trkpt>
      <trkpt lat="47.43866" lon="6.63023">
        <ele>297</ele>
        <time>2015-04-26T09:00:16.000Z</time>
      </trkpt>
      <trkpt lat="47.43867" lon="6.6303">
        <ele>297</ele>
        <time>2015-04-26T09:00:17.000Z</time>
      </trkpt>
      <trkpt lat="47.43867" lon="6.63035">
        <ele>297</ele>
        <time>2015-04-26T09:00:18.000Z</time>
      </trkpt>
      <trkpt lat="47.43868" lon="6.63041">
        <ele>297</ele>
        <time>2015-04-26T09:00:19.000Z</time>
      </trkpt>
      <trkpt lat="47.43868" lon="6.63047">
        <ele>297</ele>
        <time>2015-04-26T09:00:20.000Z</time>
      </trkpt>
      <trkpt lat="47.43868" lon="6.63053">
        <ele>298</ele>
        <time>2015-04-26T09:00:21.000Z</time>
      </trkpt>
      <trkpt lat="47.43869" lon="6.63059">
        <ele>298</ele>
        <time>2015-04-26T09:00:22.000Z</time>
      </trkpt>
      <trkpt lat="47.43869" lon="6.63066">
        <ele>298</ele>
        <time>2015-04-26T09:00:23.000Z</time>
      </trkpt>
      <trkpt lat="47.4387" lon="6.63072">
        <ele>298</ele>
        <time>2015-04-26T09:00:24.000Z</time>
      </trkpt>
      <trkpt lat="47.43871" lon="6.63078">
        <ele>298</ele>
        <time>2015-04-26T09:00:25.000Z</time>
      </trkpt>
      <trkpt lat="47.43872" lon="6.63084">
        <ele>298</ele>
        <time>2015-04-26T09:00:26.000Z</time>
      </trkpt>
      <trkpt lat="47.43872" lon="6.6309">
        <ele>298</ele>
        <time>2015-04-26T09:00:27.000Z</time>
      </trkpt>
      <trkpt lat="47.43873" lon="6.63095">
        <ele>298</ele>
        <time>2015-04-26T09:00:28.000Z</time>
      </trkpt>
      <trkpt lat="47.43874" lon="6.63101">
        <ele>298</ele>
        <time>2015-04-26T09:00:29.000Z</time>
      </trkpt>
      <trkpt lat="47.43875" lon="6.63107">
        <ele>298</ele>
        <time>2015-04-26T09:00:30.000Z</time>
      </trkpt>
      <trkpt lat="47.43875" lon="6.63113">
        <ele>298</ele>
        <time>2015-04-26T09:00:31.000Z</time>
      </trkpt>
      <trkpt lat="47.43876" lon="6.63119">
        <ele>298</ele>
        <time>2015-04-26T09:00:32.000Z</time>
      </trkpt>
      <trkpt lat="47.43876" lon="6.63124">
        <ele>298</ele>
        <time>2015-04-26T09:00:33.000Z</time>
      </trkpt>
      <trkpt lat="47.43875" lon="6.63129">
        <ele>298</ele>
        <time>2015-04-26T09:00:34.000Z</time>
      </trkpt>
      <trkpt lat="47.43874" lon="6.63133">
        <ele>298</ele>
        <time>2015-04-26T09:00:35.000Z</time>
      </trkpt>
      <trkpt lat="47.43872" lon="6.63136">
        <ele>298</ele>
        <time>2015-04-26T09:00:36.000Z</time>
      </trkpt>
      <trkpt lat="47.43868" lon="6.63139">
        <ele>298</ele>
        <time>2015-04-26T09:00:37.000Z</time>
      </trkpt>
      <trkpt lat="47.43865" lon="6.63141">
        <ele>298</ele>
        <time>2015-04-26T09:00:38.000Z</time>
      </trkpt>
      <trkpt lat="47.43861" lon="6.63142">
        <ele>298</ele>
        <time>2015-04-26T09:00:39.000Z</time>
      </trkpt>
      <trkpt lat="47.43857" lon="6.63144">
        <ele>298</ele>
        <time>2015-04-26T09:00:40.000Z</time>
      </trkpt>
      <trkpt lat="47.43854" lon="6.63146">
        <ele>298</ele>
        <time>2015-04-26T09:00:41.000Z</time>
      </trkpt>
      <trkpt lat="47.4385" lon="6.63148">
        <ele>298</ele>
        <time>2015-04-26T09:00:42.000Z</time>
      </trkpt>
      <trkpt lat="47.43846" lon="6.6315">
        <ele>298</ele>
        <time>2015-04-26T09:00:43.000Z</time>
      </trkpt>
      <trkpt lat="47.43842" lon="6.63152">
        <ele>298</ele>
        <time>2015-04-26T09:00:44.000Z</time>
      </trkpt>
      <trkpt lat="47.43838" lon="6.63153">
        <ele>298</ele>
        <time>2015-04-26T09:00:45.000Z</time>
      </trkpt>
      <trkpt lat="47.43835" lon="6.63154">
        <ele>298</ele>
        <time>2015-04-26T09:00:46.000Z</time>
      </trkpt>
      <trkpt lat="47.4383" lon="6.63156">
        <ele>298</ele>
        <time>2015-04-26T09:00:47.000Z</time>
      </trkpt>
      <trkpt lat="47.43827" lon="6.63159">
        <ele>298</ele>
        <time>2015-04-26T09:00:48.000Z</time>
      </trkpt>
      <trkpt lat="47.43823" lon="6.63161">
        <ele>298</ele>
        <time>2015-04-26T09:00:49.000Z</time>
      </trkpt>
      <trkpt lat="47.43819" lon="6.63164">
        <ele>298</ele>
        <time>2015-04-26T09:00:50.000Z</time>
      </trkpt>
      <trkpt lat="47.43816" lon="6.63166">
        <ele>298</ele>
        <time>2015-04-26T09:00:51.000Z</time>
      </trkpt>
      <trkpt lat="47.43812" lon="6.63168">
        <ele>299</ele>
        <time>2015-04-26T09:00:52.000Z</time>
      </trkpt>
      <trkpt lat="47.43809" lon="6.6317">
        <ele>299</ele>
        <time>2015-04-26T09:00:53.000Z</time>
      </trkpt>
      <trkpt lat="47.43805" lon="6.63172">
        <ele>299</ele>
        <time>2015-04-26T09:00:54.000Z</time>
      </trkpt>
      <trkpt lat="47.43802" lon="6.63173">
        <ele>299</ele>
        <time>2015-04-26T09:00:55.000Z</time>
      </trkpt>
      <trkpt lat="47.43798" lon="6.63173">
        <ele>299</ele>
        <time>2015-04-26T09:00:56.000Z</time>
      </trkpt>
      <trkpt lat="47.43795" lon="6.63173">
        <ele>299</ele>
        <time>2015-04-26T09:00:57.000Z</time>
      </trkpt>
      <trkpt lat="47.43792" lon="6.63172">
        <ele>299</ele>
        <time>2015-04-26T09:00:58.000Z</time>
      </trkpt>
      <trkpt lat="47.43789" lon="6.63171">
        <ele>299</ele>
        <time>2015-04-26T09:00:59.000Z</time>
      </trkpt>
      <trkpt lat="47.43786" lon="6.63171">
        <ele>299</ele>
        <time>2015-04-26T09:01:00.000Z</time>
      </trkpt>
      <trkpt lat="47.43782" lon="6.6317">
        <ele>299</ele>
        <time>2015-04-26T09:01:01.000Z</time>
      </trkpt>
      <trkpt lat="47.43778" lon="6.6317">
        <ele>299</ele>
        <time>2015-04-26T09:01:02.000Z</time>
      </trkpt>
      <trkpt lat="47.43774" lon="6.63169">
        <ele>299</ele>
        <time>2015-04-26T09:01:03.000Z</time>
      </trkpt>
      <trkpt lat="47.4377" lon="6.63168">
        <ele>299</ele>
        <time>2015-04-26T09:01:04.000Z</time>
      </trkpt>
      <trkpt lat="47.43766" lon="6.63167">
        <ele>299</ele>
        <time>2015-04-26T09:01:05.000Z</time>
      </trkpt>
      <trkpt lat="47.43762" lon="6.63167">
        <ele>298</ele>
        <time>2015-04-26T09:01:06.000Z</time>
      </trkpt>
      <trkpt lat="47.43758" lon="6.63166">
        <ele>298</ele>
        <time>2015-04-26T09:01:07.000Z</time>
      </trkpt>
      <trkpt lat="47.43753" lon="6.63166">
        <ele>298</ele>
        <time>2015-04-26T09:01:08.000Z</time>
      </trkpt>
      <trkpt lat="47.43749" lon="6.63166">
        <ele>298</ele>
        <time>2015-04-26T09:01:09.000Z</time>
      </trkpt>
      <trkpt lat="47.43745" lon="6.63167">
        <ele>298</ele>
        <time>2015-04-26T09:01:10.000Z</time>
      </trkpt>
      <trkpt lat="47.43741" lon="6.63168">
        <ele>299</ele>
        <time>2015-04-26T09:01:11.000Z</time>
      </trkpt>
      <trkpt lat="47.43737" lon="6.63169">
        <ele>299</ele>
        <time>2015-04-26T09:01:12.000Z</time>
      </trkpt>
      <trkpt lat="47.43733" lon="6.6317">
        <ele>299</ele>
        <time>2015-04-26T09:01:13.000Z</time>
      </trkpt>
      <trkpt lat="47.43729" lon="6.63171">
        <ele>299</ele>
        <time>2015-04-26T09:01:14.000Z</time>
      </trkpt>
      <trkpt lat="47.43725" lon="6.63172">
        <ele>299</ele>
        <time>2015-04-26T09:01:15.000Z</time>
      </trkpt>
      <trkpt lat="47.43721" lon="6.63173">
        <ele>300</ele>
        <time>2015-04-26T09:01:16.000Z</time>
      </trkpt>
      <trkpt lat="47.43717" lon="6.63175">
        <ele>300</ele>
        <time>2015-04-26T09:01:17.000Z</time>
      </trkpt>
      <trkpt lat="47.43712" lon="6.63179">
        <ele>300</ele>
        <time>2015-04-26T09:01:18.000Z</time>
      </trkpt>
      <trkpt lat="47.43707" lon="6.63181">
        <ele>300</ele>
        <time>2015-04-26T09:01:19.000Z</time>
      </trkpt>
      <trkpt lat="47.43703" lon="6.63183">
        <ele>300</ele>
        <time>2015-04-26T09:01:20.000Z</time>
      </trkpt>
      <trkpt lat="47.43699" lon="6.63184">
        <ele>300</ele>
        <time>2015-04-26T09:01:21.000Z</time>
      </trkpt>
      <trkpt lat="47.43694" lon="6.63185">
        <ele>300</ele>
        <time>2015-04-26T09:01:22.000Z</time>
      </trkpt>
      <trkpt lat="47.43689" lon="6.63186">
        <ele>300</ele>
        <time>2015-04-26T09:01:23.000Z</time>
      </trkpt>
      <trkpt lat="47.43684" lon="6.63188">
        <ele>300</ele>
        <time>2015-04-26T09:01:24.000Z</time>
      </trkpt>
      <trkpt lat="47.4368" lon="6.63192">
        <ele>300</ele>
        <time>2015-04-26T09:01:25.000Z</time>
      </trkpt>
      <trkpt lat="47.43675" lon="6.63194">
        <ele>300</ele>
        <time>2015-04-26T09:01:26.000Z</time>
      </trkpt>
      <trkpt lat="47.43669" lon="6.63195">
        <ele>300</ele>
        <time>2015-04-26T09:01:27.000Z</time>
      </trkpt>
      <trkpt lat="47.43664" lon="6.63198">
        <ele>299</ele>
        <time>2015-04-26T09:01:28.000Z</time>
      </trkpt>
      <trkpt lat="47.43658" lon="6.632">
        <ele>299</ele>
        <time>2015-04-26T09:01:29.000Z</time>
      </trkpt>
      <trkpt lat="47.43653" lon="6.63203">
        <ele>300</ele>
        <time>2015-04-26T09:01:30.000Z</time>
      </trkpt>
      <trkpt lat="47.43647" lon="6.63205">
        <ele>300</ele>
        <time>2015-04-26T09:01:31.000Z</time>
      </trkpt>
      <trkpt lat="47.43641" lon="6.63208">
        <ele>300</ele>
        <time>2015-04-26T09:01:32.000Z</time>
      </trkpt>
      <trkpt lat="47.43636" lon="6.63211">
        <ele>300</ele>
        <time>2015-04-26T09:01:33.000Z</time>
      </trkpt>
      <trkpt lat="47.4363" lon="6.63214">
        <ele>300</ele>
        <time>2015-04-26T09:01:34.000Z</time>
      </trkpt>
      <trkpt lat="47.43625" lon="6.63216">
        <ele>300</ele>
        <time>2015-04-26T09:01:35.000Z</time>
      </trkpt>
      <trkpt lat="47.43619" lon="6.63218">
        <ele>300</ele>
        <time>2015-04-26T09:01:36.000Z</time>
      </trkpt>
      <trkpt lat="47.43613" lon="6.63221">
        <ele>300</ele>
        <time>2015-04-26T09:01:37.000Z</time>
      </trkpt>
      <trkpt lat="47.43608" lon="6.63223">
        <ele>300</ele>
        <time>2015-04-26T09:01:38.000Z</time>
      </trkpt>
      <trkpt lat="47.43602" lon="6.63226">
        <ele>300</ele>
        <time>2015-04-26T09:01:39.000Z</time>
      </trkpt>
      <trkpt lat="47.43596" lon="6.6323">
        <ele>300</ele>
        <time>2015-04-26T09:01:40.000Z</time>
      </trkpt>
      <trkpt lat="47.4359" lon="6.63233">
        <ele>300</ele>
        <time>2015-04-26T09:01:41.000Z</time>
      </trkpt>
      <trkpt lat="47.43584" lon="6.63235">
        <ele>300</ele>
        <time>2015-04-26T09:01:42.000Z</time>
      </trkpt>
      <trkpt lat="47.43578" lon="6.63238">
        <ele>299</ele>
        <time>2015-04-26T09:01:43.000Z</time>
      </trkpt>
      <trkpt lat="47.43572" lon="6.63241">
        <ele>299</ele>
        <time>2015-04-26T09:01:44.000Z</time>
      </trkpt>
      <trkpt lat="47.43565" lon="6.63244">
        <ele>298</ele>
        <time>2015-04-26T09:01:45.000Z</time>
      </trkpt>
      <trkpt lat="47.43559" lon="6.63247">
        <ele>298</ele>
        <time>2015-04-26T09:01:46.000Z</time>
      </trkpt>
      <trkpt lat="47.43553" lon="6.6325">
        <ele>298</ele>
        <time>2015-04-26T09:01:47.000Z</time>
      </trkpt>
      <trkpt lat="47.43547" lon="6.63253">
        <ele>299</ele>
        <time>2015-04-26T09:01:48.000Z</time>
      </trkpt>
      <trkpt lat="47.43541" lon="6.63256">
        <ele>299</ele>
        <time>2015-04-26T09:01:49.000Z</time>
      </trkpt>
      <trkpt lat="47.43535" lon="6.63259">
        <ele>299</ele>
        <time>2015-04-26T09:01:50.000Z</time>
      </trkpt>
      <trkpt lat="47.43529" lon="6.63262">
        <ele>299</ele>
        <time>2015-04-26T09:01:51.000Z</time>
      </trkpt>
      <trkpt lat="47.43524" lon="6.63265">
        <ele>298</ele>
        <time>2015-04-26T09:01:52.000Z</time>
      </trkpt>
      <trkpt lat="47.43517" lon="6.63268">
        <ele>298</ele>
        <time>2015-04-26T09:01:53.000Z</time>
      </trkpt>
      <trkpt lat="47.43511" lon="6.63271">
        <ele>298</ele>
        <time>2015-04-26T09:01:54.000Z</time>
      </trkpt>
      <trkpt lat="47.43506" lon="6.63273">
        <ele>298</ele>
        <time>2015-04-26T09:01:55.000Z</time>
      </trkpt>
      <trkpt lat="47.435" lon="6.63275">
        <ele>298</ele>
        <time>2015-04-26T09:01:56.000Z</time>
      </trkpt>
      <trkpt lat="47.43495" lon="6.63277">
        <ele>297</ele>
        <time>2015-04-26T09:01:57.000Z</time>
      </trkpt>
      <trkpt lat="47.4349" lon="6.63279">
        <ele>297</ele>
        <time>2015-04-26T09:01:58.000Z</time>
      </trkpt>
      <trkpt lat="47.43485" lon="6.63282">
        <ele>297</ele>
        <time>2015-04-26T09:01:59.000Z</time>
      </trkpt>
      <trkpt lat="47.43479" lon="6.63285">
        <ele>297</ele>
        <time>2015-04-26T09:02:00.000Z</time>
      </trkpt>
      <trkpt lat="47.43474" lon="6.63287">
        <ele>297</ele>
        <time>2015-04-26T09:02:01.000Z</time>
      </trkpt>
      <trkpt lat="47.43469" lon="6.63289">
        <ele>297</ele>
        <time>2015-04-26T09:02:02.000Z</time>
      </trkpt>
      <trkpt lat="47.43463" lon="6.63292">
        <ele>297</ele>
        <time>2015-04-26T09:02:03.000Z</time>
      </trkpt>
      <trkpt lat="47.43458" lon="6.63295">
        <ele>297</ele>
        <time>2015-04-26T09:02:04.000Z</time>
      </trkpt>
      <trkpt lat="47.43453" lon="6.63297">
        <ele>297</ele>
        <time>2015-04-26T09:02:05.000Z</time>
      </trkpt>
      <trkpt lat="47.43449" lon="6.63299">
        <ele>297</ele>
        <time>2015-04-26T09:02:06.000Z</time>
      </trkpt>
      <trkpt lat="47.43445" lon="6.63301">
        <ele>297</ele>
        <time>2015-04-26T09:02:07.000Z</time>
      </trkpt>
      <trkpt lat="47.4344" lon="6.63304">
        <ele>297</ele>
        <time>2015-04-26T09:02:08.000Z</time>
      </trkpt>
      <trkpt lat="47.43436" lon="6.63307">
        <ele>297</ele>
        <time>2015-04-26T09:02:09.000Z</time>
      </trkpt>
      <trkpt lat="47.43433" lon="6.63313">
        <ele>297</ele>
        <time>2015-04-26T09:02:10.000Z</time>
      </trkpt>
      <trkpt lat="47.43431" lon="6.6332">
        <ele>297</ele>
        <time>2015-04-26T09:02:11.000Z</time>
      </trkpt>
      <trkpt lat="47.4343" lon="6.63327">
        <ele>297</ele>
        <time>2015-04-26T09:02:12.000Z</time>
      </trkpt>
      <trkpt lat="47.43429" lon="6.63335">
        <ele>298</ele>
        <time>2015-04-26T09:02:13.000Z</time>
      </trkpt>
      <trkpt lat="47.43429" lon="6.63341">
        <ele>298</ele>
        <time>2015-04-26T09:02:14.000Z</time>
      </trkpt>
      <trkpt lat="47.43429" lon="6.63348">
        <ele>298</ele>
        <time>2015-04-26T09:02:15.000Z</time>
      </trkpt>
      <trkpt lat="47.43428" lon="6.63355">
        <ele>299</ele>
        <time>2015-04-26T09:02:16.000Z</time>
      </trkpt>
      <trkpt lat="47.43428" lon="6.63362">
        <ele>299</ele>
        <time>2015-04-26T09:02:17.000Z</time>
      </trkpt>
      <trkpt lat="47.43428" lon="6.63369">
        <ele>299</ele>
        <time>2015-04-26T09:02:18.000Z</time>
      </trkpt>
      <trkpt lat="47.43428" lon="6.63375">
        <ele>299</ele>
        <time>2015-04-26T09:02:19.000Z</time>
      </trkpt>
      <trkpt lat="47.43428" lon="6.63382">
        <ele>299</ele>
        <time>2015-04-26T09:02:20.000Z</time>
      </trkpt>
      <trkpt lat="47.43427" lon="6.63388">
        <ele>299</ele>
        <time>2015-04-26T09:02:21.000Z</time>
      </trkpt>
      <trkpt lat="47.43427" lon="6.63395">
        <ele>299</ele>
        <time>2015-04-26T09:02:22.000Z</time>
      </trkpt>
      <trkpt lat="47.43427" lon="6.63401">
        <ele>299</ele>
        <time>2015-04-26T09:02:23.000Z</time>
      </trkpt>
      <trkpt lat="47.43426" lon="6.63407">
        <ele>299</ele>
        <time>2015-04-26T09:02:24.000Z</time>
      </trkpt>
      <trkpt lat="47.43426" lon="6.63413">
        <ele>299</ele>
        <time>2015-04-26T09:02:25.000Z</time>
      </trkpt>
      <trkpt lat="47.43426" lon="6.63419">
        <ele>300</ele>
        <time>2015-04-26T09:02:26.000Z</time>
      </trkpt>
      <trkpt lat="47.43425" lon="6.63425">
        <ele>300</ele>
        <time>2015-04-26T09:02:27.000Z</time>
      </trkpt>
      <trkpt lat="47.43425" lon="6.63431">
        <ele>301</ele>
        <time>2015-04-26T09:02:28.000Z</time>
      </trkpt>
      <trkpt lat="47.43424" lon="6.63437">
        <ele>301</ele>
        <time>2015-04-26T09:02:29.000Z</time>
      </trkpt>
      <trkpt lat="47.43424" lon="6.63443">
        <ele>302</ele>
        <time>2015-04-26T09:02:30.000Z</time>
      </trkpt>
      <trkpt lat="47.43424" lon="6.63449">
        <ele>302</ele>
        <time>2015-04-26T09:02:31.000Z</time>
      </trkpt>
      <trkpt lat="47.43424" lon="6.63455">
        <ele>302</ele>
        <time>2015-04-26T09:02:32.000Z</time>
      </trkpt>
      <trkpt lat="47.43424" lon="6.6346">
        <ele>302</ele>
        <time>2015-04-26T09:02:33.000Z</time>
      </trkpt>
      <trkpt lat="47.43424" lon="6.63466">
        <ele>303</ele>
        <time>2015-04-26T09:02:34.000Z</time>
      </trkpt>
      <trkpt lat="47.43425" lon="6.63472">
        <ele>303</ele>
        <time>2015-04-26T09:02:35.000Z</time>
      </trkpt>
      <trkpt lat="47.43425" lon="6.63478">
        <ele>303</ele>
        <time>2015-04-26T09:02:36.000Z</time>
      </trkpt>
      <trkpt lat="47.43425" lon="6.63484">
        <ele>303</ele>
        <time>2015-04-26T09:02:37.000Z</time>
      </trkpt>
      <trkpt lat="47.43426" lon="6.6349">
        <ele>303</ele>
        <time>2015-04-26T09:02:38.000Z</time>
      </trkpt>
      <trkpt lat="47.43426" lon="6.63495">
        <ele>303</ele>
        <time>2015-04-26T09:02:39.000Z</time>
      </trkpt>
      <trkpt lat="47.43427" lon="6.63501">
        <ele>304</ele>
        <time>2015-04-26T09:02:40.000Z</time>
      </trkpt>
      <trkpt lat="47.43428" lon="6.63506">
        <ele>305</ele>
        <time>2015-04-26T09:02:41.000Z</time>
      </trkpt>
      <trkpt lat="47.43429" lon="6.63511">
        <ele>305</ele>
        <time>2015-04-26T09:02:42.000Z</time>
      </trkpt>
      <trkpt lat="47.4343" lon="6.63516">
        <ele>305</ele>
        <time>2015-04-26T09:02:43.000Z</time>
      </trkpt>
      <trkpt lat="47.4343" lon="6.63521">
        <ele>306</ele>
        <time>2015-04-26T09:02:44.000Z</time>
      </trkpt>
      <trkpt lat="47.43431" lon="6.63525">
        <ele>306</ele>
        <time>2015-04-26T09:02:45.000Z</time>
      </trkpt>
      <trkpt lat="47.43431" lon="6.63529">
        <ele>306</ele>
        <time>2015-04-26T09:02:46.000Z</time>
      </trkpt>
      <trkpt lat="47.43432" lon="6.63533">
        <ele>306</ele>
        <time>2015-04-26T09:02:47.000Z</time>
      </trkpt>
      <trkpt lat="47.43432" lon="6.63537">
        <ele>306</ele>
        <time>2015-04-26T09:02:48.000Z</time>
      </trkpt>
      <trkpt lat="47.43433" lon="6.6354">
        <ele>307</ele>
        <time>2015-04-26T09:02:49.001Z</time>
      </trkpt>
      <trkpt lat="47.43434" lon="6.63544">
        <ele>307</ele>
        <time>2015-04-26T09:02:50.000Z</time>
      </trkpt>
      <trkpt lat="47.43434" lon="6.63547">
        <ele>307</ele>
        <time>2015-04-26T09:02:51.000Z</time>
      </trkpt>
      <trkpt lat="47.43435" lon="6.63551">
        <ele>307</ele>
        <time>2015-04-26T09:02:52.000Z</time>
      </trkpt>
      <trkpt lat="47.43435" lon="6.63554">
        <ele>307</ele>
        <time>2015-04-26T09:02:53.000Z</time>
      </trkpt>
      <trkpt lat="47.43435" lon="6.63558">
        <ele>307</ele>
        <time>2015-04-26T09:02:54.001Z</time>
      </trkpt>
      <trkpt lat="47.43434" lon="6.6356">
        <ele>307</ele>
        <time>2015-04-26T09:02:55.000Z</time>
      </trkpt>
      <trkpt lat="47.43433" lon="6.63563">
        <ele>307</ele>
        <time>2015-04-26T09:02:56.000Z</time>
      </trkpt>
      <trkpt lat="47.4343" lon="6.63566">
        <ele>307</ele>
        <time>2015-04-26T09:02:57.000Z</time>
      </trkpt>
      <trkpt lat="47.43428" lon="6.63568">
        <ele>307</ele>
        <time>2015-04-26T09:02:58.000Z</time>
      </trkpt>
      <trkpt lat="47.43424" lon="6.63568">
        <ele>307</ele>
        <time>2015-04-26T09:03:00.000Z</time>
      </trkpt>
      <trkpt lat="47.43423" lon="6.63567">
        <ele>307</ele>
        <time>2015-04-26T09:03:01.000Z</time>
      </trkpt>
      <trkpt lat="47.43424" lon="6.63565">
        <ele>307</ele>
        <time>2015-04-26T09:03:11.000Z</time>
      </trkpt>
      <trkpt lat="47.43426" lon="6.63563">
        <ele>307</ele>
        <time>2015-04-26T09:03:12.000Z</time>
      </trkpt>
      <trkpt lat="47.4343" lon="6.63561">
        <ele>307</ele>
        <time>2015-04-26T09:03:13.000Z</time>
      </trkpt>
      <trkpt lat="47.43433" lon="6.63559">
        <ele>307</ele>
        <time>2015-04-26T09:03:14.000Z</time>
      </trkpt>
      <trkpt lat="47.43437" lon="6.63557">
        <ele>307</ele>
        <time>2015-04-26T09:03:15.000Z</time>
      </trkpt>
      <trkpt lat="47.4344" lon="6.63555">
        <ele>307</ele>
        <time>2015-04-26T09:03:16.000Z</time>
      </trkpt>
      <trkpt lat="47.43444" lon="6.63554">
        <ele>307</ele>
        <time>2015-04-26T09:03:17.000Z</time>
      </trkpt>
      <trkpt lat="47.43447" lon="6.63554">
        <ele>307</ele>
        <time>2015-04-26T09:03:18.000Z</time>
      </trkpt>
      <trkpt lat="47.43451" lon="6.63555">
        <ele>307</ele>
        <time>2015-04-26T09:03:19.000Z</time>
      </trkpt>
      <trkpt lat="47.43454" lon="6.63556">
        <ele>307</ele>
        <time>2015-04-26T09:03:20.000Z</time>
      </trkpt>
      <trkpt lat="47.43457" lon="6.63558">
        <ele>308</ele>
        <time>2015-04-26T09:03:21.000Z</time>
      </trkpt>
      <trkpt lat="47.43459" lon="6.63561">
        <ele>308</ele>
        <time>2015-04-26T09:03:22.000Z</time>
      </trkpt>
      <trkpt lat="47.43462" lon="6.63564">
        <ele>308</ele>
        <time>2015-04-26T09:03:23.000Z</time>
      </trkpt>
      <trkpt lat="47.43464" lon="6.63566">
        <ele>308</ele>
        <time>2015-04-26T09:03:24.000Z</time>
      </trkpt>
      <trkpt lat="47.43465" lon="6.63569">
        <ele>308</ele>
        <time>2015-04-26T09:03:25.000Z</time>
      </trkpt>
      <trkpt lat="47.43467" lon="6.63573">
        <ele>308</ele>
        <time>2015-04-26T09:03:26.000Z</time>
      </trkpt>
      <trkpt lat="47.43468" lon="6.63577">
        <ele>309</ele>
        <time>2015-04-26T09:03:27.000Z</time>
      </trkpt>
      <trkpt lat="47.4347" lon="6.63581">
        <ele>309</ele>
        <time>2015-04-26T09:03:28.000Z</time>
      </trkpt>
      <trkpt lat="47.43471" lon="6.63585">
        <ele>311</ele>
        <time>2015-04-26T09:03:29.000Z</time>
      </trkpt>
      <trkpt lat="47.43473" lon="6.63589">
        <ele>311</ele>
        <time>2015-04-26T09:03:30.000Z</time>
      </trkpt>
      <trkpt lat="47.43475" lon="6.63592">
        <ele>311</ele>
        <time>2015-04-26T09:03:31.000Z</time>
      </trkpt>
      <trkpt lat="47.43477" lon="6.63596">
        <ele>311</ele>
        <time>2015-04-26T09:03:32.000Z</time>
      </trkpt>
      <trkpt lat="47.43479" lon="6.63599">
        <ele>311</ele>
        <time>2015-04-26T09:03:33.000Z</time>
      </trkpt>
      <trkpt lat="47.43481" lon="6.63602">
        <ele>311</ele>
        <time>2015-04-26T09:03:34.000Z</time>
      </trkpt>
      <trkpt lat="47.43483" lon="6.63605">
        <ele>312</ele>
        <time>2015-04-26T09:03:35.000Z</time>
      </trkpt>
      <trkpt lat="47.43485" lon="6.63609">
        <ele>312</ele>
        <time>2015-04-26T09:03:36.000Z</time>
      </trkpt>
      <trkpt lat="47.43487" lon="6.63612">
        <ele>312</ele>
        <time>2015-04-26T09:03:37.000Z</time>
      </trkpt>
      <trkpt lat="47.43488" lon="6.63615">
        <ele>312</ele>
        <time>2015-04-26T09:03:38.000Z</time>
      </trkpt>
      <trkpt lat="47.4349" lon="6.63618">
        <ele>312</ele>
        <time>2015-04-26T09:03:39.000Z</time>
      </trkpt>
      <trkpt lat="47.43491" lon="6.6362">
        <ele>312</ele>
        <time>2015-04-26T09:03:40.000Z</time>
      </trkpt>
      <trkpt lat="47.43493" lon="6.63623">
        <ele>312</ele>
        <time>2015-04-26T09:03:41.000Z</time>
      </trkpt>
      <trkpt lat="47.43495" lon="6.63625">
        <ele>312</ele>
        <time>2015-04-26T09:03:42.000Z</time>
      </trkpt>
      <trkpt lat="47.43497" lon="6.63628">
        <ele>312</ele>
        <time>2015-04-26T09:03:43.000Z</time>
      </trkpt>
      <trkpt lat="47.43499" lon="6.63631">
        <ele>312</ele>
        <time>2015-04-26T09:03:44.000Z</time>
      </trkpt>
      <trkpt lat="47.43501" lon="6.63633">
        <ele>315</ele>
        <time>2015-04-26T09:03:45.000Z</time>
      </trkpt>
      <trkpt lat="47.43503" lon="6.63636">
        <ele>315</ele>
        <time>2015-04-26T09:03:46.000Z</time>
      </trkpt>
      <trkpt lat="47.43505" lon="6.63639">
        <ele>315</ele>
        <time>2015-04-26T09:03:47.000Z</time>
      </trkpt>
      <trkpt lat="47.43507" lon="6.63642">
        <ele>315</ele>
        <time>2015-04-26T09:03:48.000Z</time>
      </trkpt>
      <trkpt lat="47.43509" lon="6.63645">
        <ele>315</ele>
        <time>2015-04-26T09:03:49.000Z</time>
      </trkpt>
      <trkpt lat="47.43511" lon="6.63647">
        <ele>315</ele>
        <time>2015-04-26T09:03:50.000Z</time>
      </trkpt>
      <trkpt lat="47.43512" lon="6.63649">
        <ele>316</ele>
        <time>2015-04-26T09:03:50.999Z</time>
      </trkpt>
      <trkpt lat="47.43515" lon="6.6365">
        <ele>316</ele>
        <time>2015-04-26T09:03:52.000Z</time>
      </trkpt>
      <trkpt lat="47.43518" lon="6.63651">
        <ele>316</ele>
        <time>2015-04-26T09:03:53.000Z</time>
      </trkpt>
      <trkpt lat="47.4352" lon="6.63653">
        <ele>316</ele>
        <time>2015-04-26T09:03:54.000Z</time>
      </trkpt>
      <trkpt lat="47.43522" lon="6.63654">
        <ele>316</ele>
        <time>2015-04-26T09:03:55.000Z</time>
      </trkpt>
      <trkpt lat="47.43525" lon="6.63656">
        <ele>316</ele>
        <time>2015-04-26T09:03:56.000Z</time>
      </trkpt>
      <trkpt lat="47.43527" lon="6.63658">
        <ele>316</ele>
        <time>2015-04-26T09:03:57.000Z</time>
      </trkpt>
      <trkpt lat="47.4353" lon="6.6366">
        <ele>316</ele>
        <time>2015-04-26T09:03:58.000Z</time>
      </trkpt>
      <trkpt lat="47.43533" lon="6.63662">
        <ele>316</ele>
        <time>2015-04-26T09:03:59.000Z</time>
      </trkpt>
      <trkpt lat="47.43535" lon="6.63663">
        <ele>316</ele>
        <time>2015-04-26T09:04:00.000Z</time>
      </trkpt>
      <trkpt lat="47.43538" lon="6.63665">
        <ele>316</ele>
        <time>2015-04-26T09:04:01.000Z</time>
      </trkpt>
      <trkpt lat="47.4354" lon="6.63666">
        <ele>317</ele>
        <time>2015-04-26T09:04:02.001Z</time>
      </trkpt>
      <trkpt lat="47.43543" lon="6.63668">
        <ele>318</ele>
        <time>2015-04-26T09:04:03.000Z</time>
      </trkpt>
      <trkpt lat="47.43545" lon="6.63669">
        <ele>318</ele>
        <time>2015-04-26T09:04:04.000Z</time>
      </trkpt>
      <trkpt lat="47.43549" lon="6.63672">
        <ele>318</ele>
        <time>2015-04-26T09:04:06.000Z</time>
      </trkpt>
      <trkpt lat="47.43551" lon="6.63673">
        <ele>319</ele>
        <time>2015-04-26T09:04:07.000Z</time>
      </trkpt>
      <trkpt lat="47.43553" lon="6.63675">
        <ele>319</ele>
        <time>2015-04-26T09:04:08.000Z</time>
      </trkpt>
      <trkpt lat="47.43556" lon="6.63677">
        <ele>319</ele>
        <time>2015-04-26T09:04:09.000Z</time>
      </trkpt>
      <trkpt lat="47.43558" lon="6.63679">
        <ele>319</ele>
        <time>2015-04-26T09:04:10.000Z</time>
      </trkpt>
      <trkpt lat="47.43561" lon="6.63681">
        <ele>319</ele>
        <time>2015-04-26T09:04:11.000Z</time>
      </trkpt>
      <trkpt lat="47.43563" lon="6.63683">
        <ele>319</ele>
        <time>2015-04-26T09:04:12.000Z</time>
      </trkpt>
      <trkpt lat="47.43565" lon="6.63684">
        <ele>319</ele>
        <time>2015-04-26T09:04:13.000Z</time>
      </trkpt>
      <trkpt lat="47.43567" lon="6.63686">
        <ele>319</ele>
        <time>2015-04-26T09:04:14.000Z</time>
      </trkpt>
      <trkpt lat="47.43569" lon="6.63687">
        <ele>319</ele>
        <time>2015-04-26T09:04:15.000Z</time>
      </trkpt>
      <trkpt lat="47.43571" lon="6.63689">
        <ele>319</ele>
        <time>2015-04-26T09:04:16.000Z</time>
      </trkpt>
      <trkpt lat="47.43573" lon="6.63691">
        <ele>319</ele>
        <time>2015-04-26T09:04:17.000Z</time>
      </trkpt>
      <trkpt lat="47.43575" lon="6.63692">
        <ele>319</ele>
        <time>2015-04-26T09:04:18.000Z</time>
      </trkpt>
      <trkpt lat="47.43578" lon="6.63694">
        <ele>319</ele>
        <time>2015-04-26T09:04:19.000Z</time>
      </trkpt>
      <trkpt lat="47.4358" lon="6.63696">
        <ele>319</ele>
        <time>2015-04-26T09:04:20.000Z</time>
      </trkpt>
      <trkpt lat="47.43583" lon="6.63698">
        <ele>319</ele>
        <time>2015-04-26T09:04:21.000Z</time>
      </trkpt>
      <trkpt lat="47.43585" lon="6.63699">
        <ele>323</ele>
        <time>2015-04-26T09:04:22.000Z</time>
      </trkpt>
      <trkpt lat="47.43587" lon="6.63701">
        <ele>323</ele>
        <time>2015-04-26T09:04:23.000Z</time>
      </trkpt>
      <trkpt lat="47.4359" lon="6.63705">
        <ele>323</ele>
        <time>2015-04-26T09:04:25.000Z</time>
      </trkpt>
      <trkpt lat="47.43592" lon="6.63707">
        <ele>323</ele>
        <time>2015-04-26T09:04:26.000Z</time>
      </trkpt>
      <trkpt lat="47.43595" lon="6.63709">
        <ele>323</ele>
        <time>2015-04-26T09:04:27.000Z</time>
      </trkpt>
      <trkpt lat="47.43597" lon="6.63711">
        <ele>323</ele>
        <time>2015-04-26T09:04:28.000Z</time>
      </trkpt>
      <trkpt lat="47.436" lon="6.63713">
        <ele>323</ele>
        <time>2015-04-26T09:04:29.000Z</time>
      </trkpt>
      <trkpt lat="47.43603" lon="6.63714">
        <ele>323</ele>
        <time>2015-04-26T09:04:30.001Z</time>
      </trkpt>
      <trkpt lat="47.43607" lon="6.63716">
        <ele>323</ele>
        <time>2015-04-26T09:04:31.000Z</time>
      </trkpt>
      <trkpt lat="47.4361" lon="6.63717">
        <ele>323</ele>
        <time>2015-04-26T09:04:32.000Z</time>
      </trkpt>
      <trkpt lat="47.43613" lon="6.63718">
        <ele>324</ele>
        <time>2015-04-26T09:04:33.000Z</time>
      </trkpt>
      <trkpt lat="47.43616" lon="6.63718">
        <ele>324</ele>
        <time>2015-04-26T09:04:34.000Z</time>
      </trkpt>
      <trkpt lat="47.43619" lon="6.63718">
        <ele>324</ele>
        <time>2015-04-26T09:04:35.000Z</time>
      </trkpt>
      <trkpt lat="47.43622" lon="6.63718">
        <ele>324</ele>
        <time>2015-04-26T09:04:36.000Z</time>
      </trkpt>
      <trkpt lat="47.43625" lon="6.63718">
        <ele>324</ele>
        <time>2015-04-26T09:04:37.000Z</time>
      </trkpt>
      <trkpt lat="47.43627" lon="6.63719">
        <ele>324</ele>
        <time>2015-04-26T09:04:38.000Z</time>
      </trkpt>
      <trkpt lat="47.43631" lon="6.6372">
        <ele>324</ele>
        <time>2015-04-26T09:04:39.000Z</time>
      </trkpt>
      <trkpt lat="47.43634" lon="6.63722">
        <ele>324</ele>
        <time>2015-04-26T09:04:40.000Z</time>
      </trkpt>
      <trkpt lat="47.43637" lon="6.63723">
        <ele>325</ele>
        <time>2015-04-26T09:04:41.000Z</time>
      </trkpt>
      <trkpt lat="47.4364" lon="6.63724">
        <ele>325</ele>
        <time>2015-04-26T09:04:42.000Z</time>
      </trkpt>
      <trkpt lat="47.43643" lon="6.63726">
        <ele>325</ele>
        <time>2015-04-26T09:04:43.000Z</time>
      </trkpt>
      <trkpt lat="47.43646" lon="6.63727">
        <ele>325</ele>
        <time>2015-04-26T09:04:44.001Z</time>
      </trkpt>
      <trkpt lat="47.43648" lon="6.63728">
        <ele>325</ele>
        <time>2015-04-26T09:04:45.000Z</time>
      </trkpt>
      <trkpt lat="47.43651" lon="6.63729">
        <ele>325</ele>
        <time>2015-04-26T09:04:46.000Z</time>
      </trkpt>
      <trkpt lat="47.43653" lon="6.6373">
        <ele>326</ele>
        <time>2015-04-26T09:04:47.000Z</time>
      </trkpt>
      <trkpt lat="47.43655" lon="6.63732">
        <ele>326</ele>
        <time>2015-04-26T09:04:48.000Z</time>
      </trkpt>
      <trkpt lat="47.43657" lon="6.63734">
        <ele>326</ele>
        <time>2015-04-26T09:04:49.000Z</time>
      </trkpt>
      <trkpt lat="47.43659" lon="6.63736">
        <ele>326</ele>
        <time>2015-04-26T09:04:50.000Z</time>
      </trkpt>
      <trkpt lat="47.43662" lon="6.63739">
        <ele>326</ele>
        <time>2015-04-26T09:04:51.000Z</time>
      </trkpt>
      <trkpt lat="47.43664" lon="6.63741">
        <ele>327</ele>
        <time>2015-04-26T09:04:52.000Z</time>
      </trkpt>
      <trkpt lat="47.43666" lon="6.63744">
        <ele>327</ele>
        <time>2015-04-26T09:04:53.000Z</time>
      </trkpt>
      <trkpt lat="47.43669" lon="6.63747">
        <ele>328</ele>
        <time>2015-04-26T09:04:54.000Z</time>
      </trkpt>
      <trkpt lat="47.43671" lon="6.63749">
        <ele>328</ele>
        <time>2015-04-26T09:04:55.000Z</time>
      </trkpt>
      <trkpt lat="47.43673" lon="6.63752">
        <ele>328</ele>
        <time>2015-04-26T09:04:56.000Z</time>
      </trkpt>
      <trkpt lat="47.43675" lon="6.63755">
        <ele>328</ele>
        <time>2015-04-26T09:04:57.000Z</time>
      </trkpt>
      <trkpt lat="47.43678" lon="6.63758">
        <ele>329</ele>
        <time>2015-04-26T09:04:58.000Z</time>
      </trkpt>
      <trkpt lat="47.4368" lon="6.63761">
        <ele>329</ele>
        <time>2015-04-26T09:04:59.000Z</time>
      </trkpt>
      <trkpt lat="47.43682" lon="6.63764">
        <ele>329</ele>
        <time>2015-04-26T09:05:00.000Z</time>
      </trkpt>
      <trkpt lat="47.43684" lon="6.63767">
        <ele>329</ele>
        <time>2015-04-26T09:05:01.000Z</time>
      </trkpt>
      <trkpt lat="47.43686" lon="6.6377">
        <ele>329</ele>
        <time>2015-04-26T09:05:02.000Z</time>
      </trkpt>
      <trkpt lat="47.43688" lon="6.63772">
        <ele>329</ele>
        <time>2015-04-26T09:05:03.000Z</time>
      </trkpt>
      <trkpt lat="47.4369" lon="6.63775">
        <ele>329</ele>
        <time>2015-04-26T09:05:04.000Z</time>
      </trkpt>
      <trkpt lat="47.43692" lon="6.63778">
        <ele>329</ele>
        <time>2015-04-26T09:05:05.000Z</time>
      </trkpt>
      <trkpt lat="47.43694" lon="6.63781">
        <ele>329</ele>
        <time>2015-04-26T09:05:06.000Z</time>
      </trkpt>
      <trkpt lat="47.43697" lon="6.63784">
        <ele>329</ele>
        <time>2015-04-26T09:05:07.000Z</time>
      </trkpt>
      <trkpt lat="47.43699" lon="6.63787">
        <ele>329</ele>
        <time>2015-04-26T09:05:08.000Z</time>
      </trkpt>
      <trkpt lat="47.43701" lon="6.6379">
        <ele>329</ele>
        <time>2015-04-26T09:05:09.000Z</time>
      </trkpt>
      <trkpt lat="47.43703" lon="6.63793">
        <ele>329</ele>
        <time>2015-04-26T09:05:10.000Z</time>
      </trkpt>
      <trkpt lat="47.43706" lon="6.63796">
        <ele>329</ele>
        <time>2015-04-26T09:05:11.000Z</time>
      </trkpt>
      <trkpt lat="47.43708" lon="6.63798">
        <ele>330</ele>
        <time>2015-04-26T09:05:12.000Z</time>
      </trkpt>
      <trkpt lat="47.4371" lon="6.63801">
        <ele>330</ele>
        <time>2015-04-26T09:05:13.000Z</time>
      </trkpt>
      <trkpt lat="47.43713" lon="6.63804">
        <ele>330</ele>
        <time>2015-04-26T09:05:14.000Z</time>
      </trkpt>
      <trkpt lat="47.43715" lon="6.63807">
        <ele>330</ele>
        <time>2015-04-26T09:05:15.000Z</time>
      </trkpt>
      <trkpt lat="47.43717" lon="6.6381">
        <ele>330</ele>
        <time>2015-04-26T09:05:16.000Z</time>
      </trkpt>
      <trkpt lat="47.43719" lon="6.63812">
        <ele>330</ele>
        <time>2015-04-26T09:05:17.000Z</time>
      </trkpt>
      <trkpt lat="47.43722" lon="6.63815">
        <ele>330</ele>
        <time>2015-04-26T09:05:18.000Z</time>
      </trkpt>
      <trkpt lat="47.43724" lon="6.63818">
        <ele>330</ele>
        <time>2015-04-26T09:05:19.000Z</time>
      </trkpt>
      <trkpt lat="47.43726" lon="6.63821">
        <ele>331</ele>
        <time>2015-04-26T09:05:20.000Z</time>
      </trkpt>
      <trkpt lat="47.43729" lon="6.63824">
        <ele>331</ele>
        <time>2015-04-26T09:05:21.000Z</time>
      </trkpt>
      <trkpt lat="47.43731" lon="6.63827">
        <ele>331</ele>
        <time>2015-04-26T09:05:22.000Z</time>
      </trkpt>
      <trkpt lat="47.43733" lon="6.6383">
        <ele>331</ele>
        <time>2015-04-26T09:05:23.000Z</time>
      </trkpt>
      <trkpt lat="47.43736" lon="6.63833">
        <ele>332</ele>
        <time>2015-04-26T09:05:24.000Z</time>
      </trkpt>
      <trkpt lat="47.43739" lon="6.63837">
        <ele>332</ele>
        <time>2015-04-26T09:05:25.000Z</time>
      </trkpt>
      <trkpt lat="47.43741" lon="6.63841">
        <ele>332</ele>
        <time>2015-04-26T09:05:26.000Z</time>
      </trkpt>
      <trkpt lat="47.43744" lon="6.63844">
        <ele>332</ele>
        <time>2015-04-26T09:05:27.000Z</time>
      </trkpt>
      <trkpt lat="47.43747" lon="6.63848">
        <ele>332</ele>
        <time>2015-04-26T09:05:28.000Z</time>
      </trkpt>
      <trkpt lat="47.43751" lon="6.63853">
        <ele>333</ele>
        <time>2015-04-26T09:05:29.000Z</time>
      </trkpt>
      <trkpt lat="47.43754" lon="6.63857">
        <ele>333</ele>
        <time>2015-04-26T09:05:30.000Z</time>
      </trkpt>
      <trkpt lat="47.43758" lon="6.63861">
        <ele>333</ele>
        <time>2015-04-26T09:05:31.000Z</time>
      </trkpt>
      <trkpt lat="47.43762" lon="6.63866">
        <ele>333</ele>
        <time>2015-04-26T09:05:32.000Z</time>
      </trkpt>
      <trkpt lat="47.43766" lon="6.63871">
        <ele>333</ele>
        <time>2015-04-26T09:05:33.000Z</time>
      </trkpt>
      <trkpt lat="47.43769" lon="6.63875">
        <ele>333</ele>
        <time>2015-04-26T09:05:34.000Z</time>
      </trkpt>
      <trkpt lat="47.43772" lon="6.6388">
        <ele>333</ele>
        <time>2015-04-26T09:05:35.000Z</time>
      </trkpt>
      <trkpt lat="47.43775" lon="6.63884">
        <ele>333</ele>
        <time>2015-04-26T09:05:36.000Z</time>
      </trkpt>
      <trkpt lat="47.43778" lon="6.63889">
        <ele>333</ele>
        <time>2015-04-26T09:05:37.000Z</time>
      </trkpt>
      <trkpt lat="47.43783" lon="6.63894">
        <ele>333</ele>
        <time>2015-04-26T09:05:38.000Z</time>
      </trkpt>
      <trkpt lat="47.43787" lon="6.63899">
        <ele>333</ele>
        <time>2015-04-26T09:05:39.000Z</time>
      </trkpt>
      <trkpt lat="47.43791" lon="6.63904">
        <ele>333</ele>
        <time>2015-04-26T09:05:40.000Z</time>
      </trkpt>
      <trkpt lat="47.43794" lon="6.63909">
        <ele>333</ele>
        <time>2015-04-26T09:05:41.000Z</time>
      </trkpt>
      <trkpt lat="47.43799" lon="6.63913">
        <ele>333</ele>
        <time>2015-04-26T09:05:42.000Z</time>
      </trkpt>
      <trkpt lat="47.43803" lon="6.63918">
        <ele>332</ele>
        <time>2015-04-26T09:05:43.000Z</time>
      </trkpt>
      <trkpt lat="47.43808" lon="6.63923">
        <ele>332</ele>
        <time>2015-04-26T09:05:44.000Z</time>
      </trkpt>
      <trkpt lat="47.43812" lon="6.63928">
        <ele>332</ele>
        <time>2015-04-26T09:05:45.000Z</time>
      </trkpt>
      <trkpt lat="47.43817" lon="6.63933">
        <ele>332</ele>
        <time>2015-04-26T09:05:46.001Z</time>
      </trkpt>
      <trkpt lat="47.43821" lon="6.63937">
        <ele>332</ele>
        <time>2015-04-26T09:05:47.000Z</time>
      </trkpt>
      <trkpt lat="47.43826" lon="6.63943">
        <ele>332</ele>
        <time>2015-04-26T09:05:48.001Z</time>
      </trkpt>
      <trkpt lat="47.4383" lon="6.63949">
        <ele>332</ele>
        <time>2015-04-26T09:05:49.000Z</time>
      </trkpt>
      <trkpt lat="47.43834" lon="6.63954">
        <ele>330</ele>
        <time>2015-04-26T09:05:50.000Z</time>
      </trkpt>
      <trkpt lat="47.43837" lon="6.6396">
        <ele>330</ele>
        <time>2015-04-26T09:05:51.000Z</time>
      </trkpt>
      <trkpt lat="47.43841" lon="6.63964">
        <ele>330</ele>
        <time>2015-04-26T09:05:52.000Z</time>
      </trkpt>
      <trkpt lat="47.43844" lon="6.6397">
        <ele>330</ele>
        <time>2015-04-26T09:05:53.000Z</time>
      </trkpt>
      <trkpt lat="47.43848" lon="6.63975">
        <ele>330</ele>
        <time>2015-04-26T09:05:54.000Z</time>
      </trkpt>
      <trkpt lat="47.43852" lon="6.63979">
        <ele>330</ele>
        <time>2015-04-26T09:05:55.000Z</time>
      </trkpt>
      <trkpt lat="47.43856" lon="6.63984">
        <ele>330</ele>
        <time>2015-04-26T09:05:56.000Z</time>
      </trkpt>
      <trkpt lat="47.43859" lon="6.63987">
        <ele>330</ele>
        <time>2015-04-26T09:05:57.000Z</time>
      </trkpt>
      <trkpt lat="47.43862" lon="6.63991">
        <ele>330</ele>
        <time>2015-04-26T09:05:58.000Z</time>
      </trkpt>
      <trkpt lat="47.43866" lon="6.63996">
        <ele>330</ele>
        <time>2015-04-26T09:05:59.000Z</time>
      </trkpt>
      <trkpt lat="47.43869" lon="6.64">
        <ele>331</ele>
        <time>2015-04-26T09:06:00.001Z</time>
      </trkpt>
      <trkpt lat="47.43874" lon="6.64005">
        <ele>331</ele>
        <time>2015-04-26T09:06:01.000Z</time>
      </trkpt>
      <trkpt lat="47.43878" lon="6.6401">
        <ele>331</ele>
        <time>2015-04-26T09:06:02.000Z</time>
      </trkpt>
      <trkpt lat="47.43882" lon="6.64014">
        <ele>331</ele>
        <time>2015-04-26T09:06:03.000Z</time>
      </trkpt>
      <trkpt lat="47.43885" lon="6.64019">
        <ele>331</ele>
        <time>2015-04-26T09:06:04.000Z</time>
      </trkpt>
      <trkpt lat="47.43889" lon="6.64022">
        <ele>331</ele>
        <time>2015-04-26T09:06:05.000Z</time>
      </trkpt>
      <trkpt lat="47.43892" lon="6.64027">
        <ele>331</ele>
        <time>2015-04-26T09:06:06.000Z</time>
      </trkpt>
      <trkpt lat="47.43895" lon="6.64032">
        <ele>331</ele>
        <time>2015-04-26T09:06:07.000Z</time>
      </trkpt>
      <trkpt lat="47.43899" lon="6.64036">
        <ele>331</ele>
        <time>2015-04-26T09:06:08.000Z</time>
      </trkpt>
      <trkpt lat="47.43902" lon="6.64042">
        <ele>331</ele>
        <time>2015-04-26T09:06:09.000Z</time>
      </trkpt>
      <trkpt lat="47.43906" lon="6.64045">
        <ele>331</ele>
        <time>2015-04-26T09:06:10.000Z</time>
      </trkpt>
      <trkpt lat="47.4391" lon="6.6405">
        <ele>332</ele>
        <time>2015-04-26T09:06:11.000Z</time>
      </trkpt>
      <trkpt lat="47.43914" lon="6.64054">
        <ele>332</ele>
        <time>2015-04-26T09:06:12.000Z</time>
      </trkpt>
      <trkpt lat="47.43916" lon="6.64058">
        <ele>332</ele>
        <time>2015-04-26T09:06:13.000Z</time>
      </trkpt>
      <trkpt lat="47.4392" lon="6.64064">
        <ele>329</ele>
        <time>2015-04-26T09:06:14.000Z</time>
      </trkpt>
      <trkpt lat="47.43925" lon="6.64067">
        <ele>329</ele>
        <time>2015-04-26T09:06:15.001Z</time>
      </trkpt>
      <trkpt lat="47.43928" lon="6.6407">
        <ele>329</ele>
        <time>2015-04-26T09:06:16.000Z</time>
      </trkpt>
      <trkpt lat="47.43932" lon="6.64073">
        <ele>329</ele>
        <time>2015-04-26T09:06:17.000Z</time>
      </trkpt>
      <trkpt lat="47.43936" lon="6.64075">
        <ele>328</ele>
        <time>2015-04-26T09:06:18.000Z</time>
      </trkpt>
      <trkpt lat="47.43939" lon="6.64075">
        <ele>328</ele>
        <time>2015-04-26T09:06:19.000Z</time>
      </trkpt>
      <trkpt lat="47.43942" lon="6.64077">
        <ele>328</ele>
        <time>2015-04-26T09:06:20.000Z</time>
      </trkpt>
      <trkpt lat="47.43944" lon="6.64079">
        <ele>327</ele>
        <time>2015-04-26T09:06:21.000Z</time>
      </trkpt>
      <trkpt lat="47.43947" lon="6.64083">
        <ele>327</ele>
        <time>2015-04-26T09:06:24.000Z</time>
      </trkpt>
      <trkpt lat="47.43948" lon="6.64083">
        <ele>327</ele>
        <time>2015-04-26T09:06:25.000Z</time>
      </trkpt>
      <trkpt lat="47.43951" lon="6.64082">
        <ele>327</ele>
        <time>2015-04-26T09:06:27.999Z</time>
      </trkpt>
      <trkpt lat="47.43953" lon="6.64081">
        <ele>327</ele>
        <time>2015-04-26T09:06:29.000Z</time>
      </trkpt>
      <trkpt lat="47.43957" lon="6.64082">
        <ele>326</ele>
        <time>2015-04-26T09:06:31.000Z</time>
      </trkpt>
      <trkpt lat="47.43959" lon="6.64083">
        <ele>326</ele>
        <time>2015-04-26T09:06:32.000Z</time>
      </trkpt>
      <trkpt lat="47.43962" lon="6.64085">
        <ele>328</ele>
        <time>2015-04-26T09:06:33.000Z</time>
      </trkpt>
      <trkpt lat="47.43965" lon="6.64088">
        <ele>327</ele>
        <time>2015-04-26T09:06:34.000Z</time>
      </trkpt>
      <trkpt lat="47.4397" lon="6.64096">
        <ele>327</ele>
        <time>2015-04-26T09:06:35.000Z</time>
      </trkpt>
      <trkpt lat="47.43974" lon="6.641">
        <ele>327</ele>
        <time>2015-04-26T09:06:35.999Z</time>
      </trkpt>
      <trkpt lat="47.43978" lon="6.64101">
        <ele>326</ele>
        <time>2015-04-26T09:06:37.000Z</time>
      </trkpt>
      <trkpt lat="47.43981" lon="6.64103">
        <ele>326</ele>
        <time>2015-04-26T09:06:38.000Z</time>
      </trkpt>
      <trkpt lat="47.43985" lon="6.64106">
        <ele>326</ele>
        <time>2015-04-26T09:06:39.000Z</time>
      </trkpt>
      <trkpt lat="47.43986" lon="6.64107">
        <ele>326</ele>
        <time>2015-04-26T09:06:40.000Z</time>
      </trkpt>
      <trkpt lat="47.43988" lon="6.64108">
        <ele>326</ele>
        <time>2015-04-26T09:06:41.000Z</time>
      </trkpt>
      <trkpt lat="47.4399" lon="6.6411">
        <ele>326</ele>
        <time>2015-04-26T09:06:42.000Z</time>
      </trkpt>
      <trkpt lat="47.43989" lon="6.64115">
        <ele>326</ele>
        <time>2015-04-26T09:07:06.000Z</time>
      </trkpt>
      <trkpt lat="47.43989" lon="6.64117">
        <ele>326</ele>
        <time>2015-04-26T09:07:07.000Z</time>
      </trkpt>
      <trkpt lat="47.4399" lon="6.6412">
        <ele>327</ele>
        <time>2015-04-26T09:07:09.001Z</time>
      </trkpt>
      <trkpt lat="47.43991" lon="6.64123">
        <ele>327</ele>
        <time>2015-04-26T09:07:10.000Z</time>
      </trkpt>
      <trkpt lat="47.43992" lon="6.64126">
        <ele>327</ele>
        <time>2015-04-26T09:07:11.000Z</time>
      </trkpt>
      <trkpt lat="47.43992" lon="6.6413">
        <ele>327</ele>
        <time>2015-04-26T09:07:12.000Z</time>
      </trkpt>
      <trkpt lat="47.43993" lon="6.64133">
        <ele>327</ele>
        <time>2015-04-26T09:07:13.002Z</time>
      </trkpt>
      <trkpt lat="47.43993" lon="6.64139">
        <ele>327</ele>
        <time>2015-04-26T09:07:14.000Z</time>
      </trkpt>
      <trkpt lat="47.43993" lon="6.64143">
        <ele>327</ele>
        <time>2015-04-26T09:07:15.000Z</time>
      </trkpt>
      <trkpt lat="47.43993" lon="6.64147">
        <ele>327</ele>
        <time>2015-04-26T09:07:16.000Z</time>
      </trkpt>
      <trkpt lat="47.43993" lon="6.6415">
        <ele>326</ele>
        <time>2015-04-26T09:07:17.000Z</time>
      </trkpt>
      <trkpt lat="47.43993" lon="6.64154">
        <ele>326</ele>
        <time>2015-04-26T09:07:18.000Z</time>
      </trkpt>
      <trkpt lat="47.43993" lon="6.64159">
        <ele>326</ele>
        <time>2015-04-26T09:07:19.000Z</time>
      </trkpt>
      <trkpt lat="47.43993" lon="6.64163">
        <ele>326</ele>
        <time>2015-04-26T09:07:20.000Z</time>
      </trkpt>
      <trkpt lat="47.43994" lon="6.64166">
        <ele>326</ele>
        <time>2015-04-26T09:07:21.000Z</time>
      </trkpt>
      <trkpt lat="47.43994" lon="6.64169">
        <ele>326</ele>
        <time>2015-04-26T09:07:22.000Z</time>
      </trkpt>
      <trkpt lat="47.43995" lon="6.64172">
        <ele>326</ele>
        <time>2015-04-26T09:07:23.000Z</time>
      </trkpt>
      <trkpt lat="47.43996" lon="6.64176">
        <ele>327</ele>
        <time>2015-04-26T09:07:24.000Z</time>
      </trkpt>
      <trkpt lat="47.43998" lon="6.64179">
        <ele>327</ele>
        <time>2015-04-26T09:07:25.000Z</time>
      </trkpt>
      <trkpt lat="47.43998" lon="6.64183">
        <ele>327</ele>
        <time>2015-04-26T09:07:26.000Z</time>
      </trkpt>
      <trkpt lat="47.43997" lon="6.64188">
        <ele>328</ele>
        <time>2015-04-26T09:07:28.000Z</time>
      </trkpt>
      <trkpt lat="47.43995" lon="6.64189">
        <ele>328</ele>
        <time>2015-04-26T09:07:29.000Z</time>
      </trkpt>
      <trkpt lat="47.43993" lon="6.64188">
        <ele>328</ele>
        <time>2015-04-26T09:07:31.000Z</time>
      </trkpt>
      <trkpt lat="47.43992" lon="6.64185">
        <ele>328</ele>
        <time>2015-04-26T09:07:32.000Z</time>
      </trkpt>
      <trkpt lat="47.43991" lon="6.64182">
        <ele>327</ele>
        <time>2015-04-26T09:07:33.000Z</time>
      </trkpt>
      <trkpt lat="47.4399" lon="6.64177">
        <ele>327</ele>
        <time>2015-04-26T09:07:34.000Z</time>
      </trkpt>
      <trkpt lat="47.4399" lon="6.64173">
        <ele>327</ele>
        <time>2015-04-26T09:07:35.000Z</time>
      </trkpt>
      <trkpt lat="47.43989" lon="6.64169">
        <ele>327</ele>
        <time>2015-04-26T09:07:36.000Z</time>
      </trkpt>
      <trkpt lat="47.43989" lon="6.64166">
        <ele>326</ele>
        <time>2015-04-26T09:07:37.000Z</time>
      </trkpt>
      <trkpt lat="47.43988" lon="6.64162">
        <ele>326</ele>
        <time>2015-04-26T09:07:38.000Z</time>
      </trkpt>
      <trkpt lat="47.43987" lon="6.64158">
        <ele>326</ele>
        <time>2015-04-26T09:07:39.000Z</time>
      </trkpt>
      <trkpt lat="47.43986" lon="6.64155">
        <ele>327</ele>
        <time>2015-04-26T09:07:40.000Z</time>
      </trkpt>
      <trkpt lat="47.43985" lon="6.64149">
        <ele>327</ele>
        <time>2015-04-26T09:07:42.000Z</time>
      </trkpt>
      <trkpt lat="47.43984" lon="6.64146">
        <ele>327</ele>
        <time>2015-04-26T09:07:43.000Z</time>
      </trkpt>
      <trkpt lat="47.43983" lon="6.64143">
        <ele>327</ele>
        <time>2015-04-26T09:07:44.000Z</time>
      </trkpt>
      <trkpt lat="47.43982" lon="6.64139">
        <ele>327</ele>
        <time>2015-04-26T09:07:45.000Z</time>
      </trkpt>
      <trkpt lat="47.43981" lon="6.64136">
        <ele>327</ele>
        <time>2015-04-26T09:07:46.000Z</time>
      </trkpt>
      <trkpt lat="47.43979" lon="6.64132">
        <ele>327</ele>
        <time>2015-04-26T09:07:47.000Z</time>
      </trkpt>
      <trkpt lat="47.43978" lon="6.64128">
        <ele>327</ele>
        <time>2015-04-26T09:07:48.000Z</time>
      </trkpt>
      <trkpt lat="47.43977" lon="6.64124">
        <ele>327</ele>
        <time>2015-04-26T09:07:49.000Z</time>
      </trkpt>
      <trkpt lat="47.43976" lon="6.6412">
        <ele>327</ele>
        <time>2015-04-26T09:07:50.000Z</time>
      </trkpt>
      <trkpt lat="47.43974" lon="6.64117">
        <ele>327</ele>
        <time>2015-04-26T09:07:51.000Z</time>
      </trkpt>
      <trkpt lat="47.43972" lon="6.64113">
        <ele>327</ele>
        <time>2015-04-26T09:07:52.000Z</time>
      </trkpt>
      <trkpt lat="47.4397" lon="6.6411">
        <ele>327</ele>
        <time>2015-04-26T09:07:53.000Z</time>
      </trkpt>
      <trkpt lat="47.43968" lon="6.64107">
        <ele>327</ele>
        <time>2015-04-26T09:07:54.000Z</time>
      </trkpt>
      <trkpt lat="47.43967" lon="6.64103">
        <ele>327</ele>
        <time>2015-04-26T09:07:55.000Z</time>
      </trkpt>
      <trkpt lat="47.43965" lon="6.641">
        <ele>328</ele>
        <time>2015-04-26T09:07:56.000Z</time>
      </trkpt>
      <trkpt lat="47.43962" lon="6.64098">
        <ele>328</ele>
        <time>2015-04-26T09:07:57.000Z</time>
      </trkpt>
      <trkpt lat="47.4396" lon="6.64096">
        <ele>328</ele>
        <time>2015-04-26T09:07:58.000Z</time>
      </trkpt>
      <trkpt lat="47.43958" lon="6.64094">
        <ele>328</ele>
        <time>2015-04-26T09:07:59.000Z</time>
      </trkpt>
      <trkpt lat="47.43955" lon="6.64089">
        <ele>328</ele>
        <time>2015-04-26T09:08:01.000Z</time>
      </trkpt>
      <trkpt lat="47.43954" lon="6.64087">
        <ele>328</ele>
        <time>2015-04-26T09:08:02.000Z</time>
      </trkpt>
      <trkpt lat="47.43952" lon="6.64084">
        <ele>329</ele>
        <time>2015-04-26T09:08:03.000Z</time>
      </trkpt>
      <trkpt lat="47.4395" lon="6.64082">
        <ele>327</ele>
        <time>2015-04-26T09:08:04.000Z</time>
      </trkpt>
      <trkpt lat="47.43948" lon="6.6408">
        <ele>327</ele>
        <time>2015-04-26T09:08:05.000Z</time>
      </trkpt>
      <trkpt lat="47.43946" lon="6.64078">
        <ele>327</ele>
        <time>2015-04-26T09:08:06.000Z</time>
      </trkpt>
      <trkpt lat="47.43942" lon="6.64075">
        <ele>328</ele>
        <time>2015-04-26T09:08:08.000Z</time>
      </trkpt>
      <trkpt lat="47.4394" lon="6.64074">
        <ele>328</ele>
        <time>2015-04-26T09:08:09.000Z</time>
      </trkpt>
      <trkpt lat="47.43937" lon="6.64072">
        <ele>328</ele>
        <time>2015-04-26T09:08:11.000Z</time>
      </trkpt>
      <trkpt lat="47.43935" lon="6.64072">
        <ele>328</ele>
        <time>2015-04-26T09:08:12.000Z</time>
      </trkpt>
      <trkpt lat="47.43931" lon="6.64071">
        <ele>329</ele>
        <time>2015-04-26T09:08:14.000Z</time>
      </trkpt>
      <trkpt lat="47.43929" lon="6.64071">
        <ele>329</ele>
        <time>2015-04-26T09:08:15.000Z</time>
      </trkpt>
      <trkpt lat="47.43925" lon="6.64071">
        <ele>330</ele>
        <time>2015-04-26T09:08:17.000Z</time>
      </trkpt>
      <trkpt lat="47.43924" lon="6.64072">
        <ele>330</ele>
        <time>2015-04-26T09:08:18.000Z</time>
      </trkpt>
      <trkpt lat="47.43919" lon="6.64073">
        <ele>330</ele>
        <time>2015-04-26T09:08:21.000Z</time>
      </trkpt>
      <trkpt lat="47.43918" lon="6.64073">
        <ele>330</ele>
        <time>2015-04-26T09:08:22.000Z</time>
      </trkpt>
      <trkpt lat="47.43914" lon="6.64075">
        <ele>333</ele>
        <time>2015-04-26T09:08:43.000Z</time>
      </trkpt>
      <trkpt lat="47.43914" lon="6.64075">
        <ele>333</ele>
        <time>2015-04-26T09:08:44.000Z</time>
      </trkpt>
      <trkpt lat="47.43917" lon="6.64074">
        <ele>331</ele>
        <time>2015-04-26T09:09:12.000Z</time>
      </trkpt>
      <trkpt lat="47.43919" lon="6.64073">
        <ele>330</ele>
        <time>2015-04-26T09:09:13.000Z</time>
      </trkpt>
      <trkpt lat="47.43922" lon="6.64072">
        <ele>330</ele>
        <time>2015-04-26T09:09:14.000Z</time>
      </trkpt>
      <trkpt lat="47.43924" lon="6.64071">
        <ele>330</ele>
        <time>2015-04-26T09:09:15.000Z</time>
      </trkpt>
      <trkpt lat="47.43927" lon="6.64071">
        <ele>329</ele>
        <time>2015-04-26T09:09:16.000Z</time>
      </trkpt>
      <trkpt lat="47.4393" lon="6.64071">
        <ele>329</ele>
        <time>2015-04-26T09:09:17.000Z</time>
      </trkpt>
      <trkpt lat="47.43934" lon="6.64072">
        <ele>328</ele>
        <time>2015-04-26T09:09:18.000Z</time>
      </trkpt>
      <trkpt lat="47.43937" lon="6.64073">
        <ele>328</ele>
        <time>2015-04-26T09:09:19.000Z</time>
      </trkpt>
      <trkpt lat="47.4394" lon="6.64075">
        <ele>328</ele>
        <time>2015-04-26T09:09:20.000Z</time>
      </trkpt>
      <trkpt lat="47.43943" lon="6.64078">
        <ele>328</ele>
        <time>2015-04-26T09:09:21.000Z</time>
      </trkpt>
      <trkpt lat="47.43946" lon="6.64082">
        <ele>327</ele>
        <time>2015-04-26T09:09:22.000Z</time>
      </trkpt>
      <trkpt lat="47.43948" lon="6.64086">
        <ele>329</ele>
        <time>2015-04-26T09:09:23.000Z</time>
      </trkpt>
      <trkpt lat="47.4395" lon="6.64089">
        <ele>329</ele>
        <time>2015-04-26T09:09:24.000Z</time>
      </trkpt>
      <trkpt lat="47.43952" lon="6.64092">
        <ele>329</ele>
        <time>2015-04-26T09:09:25.000Z</time>
      </trkpt>
      <trkpt lat="47.43954" lon="6.64096">
        <ele>328</ele>
        <time>2015-04-26T09:09:26.000Z</time>
      </trkpt>
      <trkpt lat="47.43956" lon="6.64099">
        <ele>328</ele>
        <time>2015-04-26T09:09:27.000Z</time>
      </trkpt>
      <trkpt lat="47.43958" lon="6.64102">
        <ele>328</ele>
        <time>2015-04-26T09:09:28.000Z</time>
      </trkpt>
      <trkpt lat="47.4396" lon="6.64105">
        <ele>328</ele>
        <time>2015-04-26T09:09:29.000Z</time>
      </trkpt>
      <trkpt lat="47.43961" lon="6.64108">
        <ele>328</ele>
        <time>2015-04-26T09:09:30.000Z</time>
      </trkpt>
      <trkpt lat="47.43963" lon="6.6411">
        <ele>328</ele>
        <time>2015-04-26T09:09:31.000Z</time>
      </trkpt>
      <trkpt lat="47.43964" lon="6.64113">
        <ele>328</ele>
        <time>2015-04-26T09:09:32.000Z</time>
      </trkpt>
      <trkpt lat="47.43966" lon="6.64116">
        <ele>328</ele>
        <time>2015-04-26T09:09:33.000Z</time>
      </trkpt>
      <trkpt lat="47.43967" lon="6.64119">
        <ele>328</ele>
        <time>2015-04-26T09:09:34.000Z</time>
      </trkpt>
      <trkpt lat="47.43969" lon="6.64122">
        <ele>328</ele>
        <time>2015-04-26T09:09:35.000Z</time>
      </trkpt>
      <trkpt lat="47.43971" lon="6.64127">
        <ele>328</ele>
        <time>2015-04-26T09:09:36.000Z</time>
      </trkpt>
      <trkpt lat="47.43973" lon="6.64131">
        <ele>328</ele>
        <time>2015-04-26T09:09:37.000Z</time>
      </trkpt>
      <trkpt lat="47.43975" lon="6.64136">
        <ele>327</ele>
        <time>2015-04-26T09:09:38.000Z</time>
      </trkpt>
      <trkpt lat="47.43977" lon="6.64141">
        <ele>327</ele>
        <time>2015-04-26T09:09:39.000Z</time>
      </trkpt>
      <trkpt lat="47.43979" lon="6.64147">
        <ele>327</ele>
        <time>2015-04-26T09:09:40.000Z</time>
      </trkpt>
      <trkpt lat="47.43981" lon="6.64152">
        <ele>327</ele>
        <time>2015-04-26T09:09:41.000Z</time>
      </trkpt>
      <trkpt lat="47.43983" lon="6.64156">
        <ele>327</ele>
        <time>2015-04-26T09:09:42.000Z</time>
      </trkpt>
      <trkpt lat="47.43984" lon="6.6416">
        <ele>327</ele>
        <time>2015-04-26T09:09:43.000Z</time>
      </trkpt>
      <trkpt lat="47.43985" lon="6.64164">
        <ele>327</ele>
        <time>2015-04-26T09:09:44.000Z</time>
      </trkpt>
      <trkpt lat="47.43987" lon="6.64168">
        <ele>327</ele>
        <time>2015-04-26T09:09:45.000Z</time>
      </trkpt>
      <trkpt lat="47.43987" lon="6.64171">
        <ele>327</ele>
        <time>2015-04-26T09:09:46.001Z</time>
      </trkpt>
      <trkpt lat="47.43989" lon="6.64174">
        <ele>327</ele>
        <time>2015-04-26T09:09:47.000Z</time>
      </trkpt>
      <trkpt lat="47.43992" lon="6.64175">
        <ele>327</ele>
        <time>2015-04-26T09:09:50.000Z</time>
      </trkpt>
      <trkpt lat="47.43994" lon="6.64174">
        <ele>327</ele>
        <time>2015-04-26T09:09:51.000Z</time>
      </trkpt>
      <trkpt lat="47.43997" lon="6.64172">
        <ele>326</ele>
        <time>2015-04-26T09:09:53.000Z</time>
      </trkpt>
      <trkpt lat="47.43998" lon="6.64171">
        <ele>326</ele>
        <time>2015-04-26T09:09:54.000Z</time>
      </trkpt>
      <trkpt lat="47.43999" lon="6.64165">
        <ele>325</ele>
        <time>2015-04-26T09:09:56.001Z</time>
      </trkpt>
      <trkpt lat="47.43999" lon="6.64162">
        <ele>326</ele>
        <time>2015-04-26T09:09:57.000Z</time>
      </trkpt>
      <trkpt lat="47.43995" lon="6.64164">
        <ele>326</ele>
        <time>2015-04-26T09:10:13.000Z</time>
      </trkpt>
      <trkpt lat="47.43994" lon="6.64166">
        <ele>326</ele>
        <time>2015-04-26T09:10:14.000Z</time>
      </trkpt>
      <trkpt lat="47.43996" lon="6.6417">
        <ele>326</ele>
        <time>2015-04-26T09:10:17.000Z</time>
      </trkpt>
      <trkpt lat="47.43997" lon="6.64172">
        <ele>326</ele>
        <time>2015-04-26T09:10:18.000Z</time>
      </trkpt>
      <trkpt lat="47.43998" lon="6.64175">
        <ele>326</ele>
        <time>2015-04-26T09:10:19.000Z</time>
      </trkpt>
      <trkpt lat="47.43999" lon="6.64179">
        <ele>327</ele>
        <time>2015-04-26T09:10:20.000Z</time>
      </trkpt>
      <trkpt lat="47.44001" lon="6.64182">
        <ele>322</ele>
        <time>2015-04-26T09:10:21.000Z</time>
      </trkpt>
      <trkpt lat="47.44002" lon="6.64185">
        <ele>321</ele>
        <time>2015-04-26T09:10:22.000Z</time>
      </trkpt>
      <trkpt lat="47.44004" lon="6.64189">
        <ele>321</ele>
        <time>2015-04-26T09:10:23.000Z</time>
      </trkpt>
      <trkpt lat="47.44005" lon="6.64192">
        <ele>321</ele>
        <time>2015-04-26T09:10:24.000Z</time>
      </trkpt>
      <trkpt lat="47.44006" lon="6.64194">
        <ele>321</ele>
        <time>2015-04-26T09:10:25.000Z</time>
      </trkpt>
      <trkpt lat="47.44007" lon="6.64198">
        <ele>321</ele>
        <time>2015-04-26T09:10:26.000Z</time>
      </trkpt>
      <trkpt lat="47.44008" lon="6.64202">
        <ele>320</ele>
        <time>2015-04-26T09:10:28.001Z</time>
      </trkpt>
      <trkpt lat="47.44009" lon="6.64204">
        <ele>320</ele>
        <time>2015-04-26T09:10:29.000Z</time>
      </trkpt>
      <trkpt lat="47.44008" lon="6.64211">
        <ele>321</ele>
        <time>2015-04-26T09:10:54.000Z</time>
      </trkpt>
      <trkpt lat="47.44008" lon="6.64212">
        <ele>321</ele>
        <time>2015-04-26T09:10:55.000Z</time>
      </trkpt>
      <trkpt lat="47.44004" lon="6.64213">
        <ele>321</ele>
        <time>2015-04-26T09:10:58.000Z</time>
      </trkpt>
      <trkpt lat="47.44003" lon="6.64213">
        <ele>321</ele>
        <time>2015-04-26T09:10:59.000Z</time>
      </trkpt>
      <trkpt lat="47.44001" lon="6.6421">
        <ele>321</ele>
        <time>2015-04-26T09:11:01.000Z</time>
      </trkpt>
      <trkpt lat="47.44" lon="6.64207">
        <ele>329</ele>
        <time>2015-04-26T09:11:02.000Z</time>
      </trkpt>
      <trkpt lat="47.43999" lon="6.64202">
        <ele>328</ele>
        <time>2015-04-26T09:11:04.000Z</time>
      </trkpt>
      <trkpt lat="47.43998" lon="6.642">
        <ele>328</ele>
        <time>2015-04-26T09:11:05.000Z</time>
      </trkpt>
      <trkpt lat="47.43997" lon="6.64194">
        <ele>328</ele>
        <time>2015-04-26T09:11:08.000Z</time>
      </trkpt>
      <trkpt lat="47.43997" lon="6.64192">
        <ele>328</ele>
        <time>2015-04-26T09:11:09.000Z</time>
      </trkpt>
      <trkpt lat="47.43997" lon="6.64188">
        <ele>328</ele>
        <time>2015-04-26T09:11:11.000Z</time>
      </trkpt>
      <trkpt lat="47.43997" lon="6.64185">
        <ele>328</ele>
        <time>2015-04-26T09:11:12.000Z</time>
      </trkpt>
      <trkpt lat="47.43995" lon="6.6418">
        <ele>327</ele>
        <time>2015-04-26T09:11:14.000Z</time>
      </trkpt>
      <trkpt lat="47.43994" lon="6.64178">
        <ele>327</ele>
        <time>2015-04-26T09:11:15.000Z</time>
      </trkpt>
      <trkpt lat="47.43992" lon="6.64173">
        <ele>327</ele>
        <time>2015-04-26T09:11:17.000Z</time>
      </trkpt>
      <trkpt lat="47.43991" lon="6.64171">
        <ele>327</ele>
        <time>2015-04-26T09:11:18.000Z</time>
      </trkpt>
      <trkpt lat="47.43992" lon="6.64165">
        <ele>326</ele>
        <time>2015-04-26T09:11:23.000Z</time>
      </trkpt>
      <trkpt lat="47.43994" lon="6.64165">
        <ele>326</ele>
        <time>2015-04-26T09:11:24.000Z</time>
      </trkpt>
      <trkpt lat="47.43997" lon="6.64166">
        <ele>325</ele>
        <time>2015-04-26T09:11:26.000Z</time>
      </trkpt>
      <trkpt lat="47.43999" lon="6.64167">
        <ele>325</ele>
        <time>2015-04-26T09:11:27.000Z</time>
      </trkpt>
      <trkpt lat="47.44002" lon="6.6417">
        <ele>324</ele>
        <time>2015-04-26T09:11:29.000Z</time>
      </trkpt>
      <trkpt lat="47.44002" lon="6.64172">
        <ele>324</ele>
        <time>2015-04-26T09:11:30.000Z</time>
      </trkpt>
      <trkpt lat="47.44003" lon="6.64176">
        <ele>323</ele>
        <time>2015-04-26T09:11:32.000Z</time>
      </trkpt>
      <trkpt lat="47.44002" lon="6.64179">
        <ele>322</ele>
        <time>2015-04-26T09:11:33.000Z</time>
      </trkpt>
      <trkpt lat="47.43999" lon="6.64183">
        <ele>327</ele>
        <time>2015-04-26T09:11:35.000Z</time>
      </trkpt>
      <trkpt lat="47.43997" lon="6.64185">
        <ele>327</ele>
        <time>2015-04-26T09:11:36.000Z</time>
      </trkpt>
      <trkpt lat="47.43996" lon="6.64191">
        <ele>328</ele>
        <time>2015-04-26T09:11:39.000Z</time>
      </trkpt>
      <trkpt lat="47.43996" lon="6.64193">
        <ele>328</ele>
        <time>2015-04-26T09:11:40.000Z</time>
      </trkpt>
      <trkpt lat="47.43998" lon="6.64197">
        <ele>328</ele>
        <time>2015-04-26T09:11:42.000Z</time>
      </trkpt>
      <trkpt lat="47.43999" lon="6.64199">
        <ele>328</ele>
        <time>2015-04-26T09:11:43.000Z</time>
      </trkpt>
      <trkpt lat="47.44001" lon="6.64203">
        <ele>321</ele>
        <time>2015-04-26T09:11:45.000Z</time>
      </trkpt>
      <trkpt lat="47.44002" lon="6.64204">
        <ele>321</ele>
        <time>2015-04-26T09:11:46.000Z</time>
      </trkpt>
      <trkpt lat="47.44005" lon="6.642">
        <ele>321</ele>
        <time>2015-04-26T09:11:49.000Z</time>
      </trkpt>
      <trkpt lat="47.44005" lon="6.64197">
        <ele>321</ele>
        <time>2015-04-26T09:11:50.000Z</time>
      </trkpt>
      <trkpt lat="47.44003" lon="6.64194">
        <ele>321</ele>
        <time>2015-04-26T09:11:52.000Z</time>
      </trkpt>
      <trkpt lat="47.44002" lon="6.64193">
        <ele>321</ele>
        <time>2015-04-26T09:11:53.000Z</time>
      </trkpt>
      <trkpt lat="47.43997" lon="6.64194">
        <ele>328</ele>
        <time>2015-04-26T09:11:56.000Z</time>
      </trkpt>
      <trkpt lat="47.43997" lon="6.64196">
        <ele>328</ele>
        <time>2015-04-26T09:11:57.000Z</time>
      </trkpt>
      <trkpt lat="47.43999" lon="6.64201">
        <ele>328</ele>
        <time>2015-04-26T09:12:00.000Z</time>
      </trkpt>
      <trkpt lat="47.44" lon="6.64202">
        <ele>321</ele>
        <time>2015-04-26T09:12:01.000Z</time>
      </trkpt>
      <trkpt lat="47.44003" lon="6.64197">
        <ele>321</ele>
        <time>2015-04-26T09:12:19.000Z</time>
      </trkpt>
      <trkpt lat="47.44004" lon="6.64197">
        <ele>321</ele>
        <time>2015-04-26T09:12:20.000Z</time>
      </trkpt>
      <trkpt lat="47.44007" lon="6.642">
        <ele>321</ele>
        <time>2015-04-26T09:12:22.000Z</time>
      </trkpt>
      <trkpt lat="47.44008" lon="6.64203">
        <ele>320</ele>
        <time>2015-04-26T09:12:23.000Z</time>
      </trkpt>
      <trkpt lat="47.44009" lon="6.64207">
        <ele>320</ele>
        <time>2015-04-26T09:12:24.000Z</time>
      </trkpt>
      <trkpt lat="47.44009" lon="6.6421">
        <ele>321</ele>
        <time>2015-04-26T09:12:25.000Z</time>
      </trkpt>
      <trkpt lat="47.4401" lon="6.64214">
        <ele>321</ele>
        <time>2015-04-26T09:12:26.000Z</time>
      </trkpt>
      <trkpt lat="47.44011" lon="6.64218">
        <ele>321</ele>
        <time>2015-04-26T09:12:27.000Z</time>
      </trkpt>
      <trkpt lat="47.44013" lon="6.64222">
        <ele>321</ele>
        <time>2015-04-26T09:12:28.000Z</time>
      </trkpt>
      <trkpt lat="47.44014" lon="6.64227">
        <ele>321</ele>
        <time>2015-04-26T09:12:29.000Z</time>
      </trkpt>
      <trkpt lat="47.44015" lon="6.64231">
        <ele>322</ele>
        <time>2015-04-26T09:12:30.000Z</time>
      </trkpt>
      <trkpt lat="47.44016" lon="6.64236">
        <ele>322</ele>
        <time>2015-04-26T09:12:30.999Z</time>
      </trkpt>
      <trkpt lat="47.44017" lon="6.64242">
        <ele>322</ele>
        <time>2015-04-26T09:12:32.000Z</time>
      </trkpt>
      <trkpt lat="47.44018" lon="6.64247">
        <ele>323</ele>
        <time>2015-04-26T09:12:33.000Z</time>
      </trkpt>
      <trkpt lat="47.4402" lon="6.64256">
        <ele>323</ele>
        <time>2015-04-26T09:12:34.000Z</time>
      </trkpt>
      <trkpt lat="47.44022" lon="6.64262">
        <ele>323</ele>
        <time>2015-04-26T09:12:35.000Z</time>
      </trkpt>
      <trkpt lat="47.44024" lon="6.64268">
        <ele>322</ele>
        <time>2015-04-26T09:12:36.000Z</time>
      </trkpt>
      <trkpt lat="47.44026" lon="6.64275">
        <ele>322</ele>
        <time>2015-04-26T09:12:37.000Z</time>
      </trkpt>
      <trkpt lat="47.44028" lon="6.64283">
        <ele>321</ele>
        <time>2015-04-26T09:12:38.000Z</time>
      </trkpt>
      <trkpt lat="47.4403" lon="6.6429">
        <ele>321</ele>
        <time>2015-04-26T09:12:39.000Z</time>
      </trkpt>
      <trkpt lat="47.44032" lon="6.64298">
        <ele>321</ele>
        <time>2015-04-26T09:12:40.000Z</time>
      </trkpt>
      <trkpt lat="47.44034" lon="6.64304">
        <ele>321</ele>
        <time>2015-04-26T09:12:41.000Z</time>
      </trkpt>
      <trkpt lat="47.44036" lon="6.64311">
        <ele>321</ele>
        <time>2015-04-26T09:12:42.000Z</time>
      </trkpt>
      <trkpt lat="47.44038" lon="6.64317">
        <ele>321</ele>
        <time>2015-04-26T09:12:43.000Z</time>
      </trkpt>
      <trkpt lat="47.4404" lon="6.64325">
        <ele>320</ele>
        <time>2015-04-26T09:12:44.000Z</time>
      </trkpt>
      <trkpt lat="47.44042" lon="6.64332">
        <ele>320</ele>
        <time>2015-04-26T09:12:44.998Z</time>
      </trkpt>
      <trkpt lat="47.44044" lon="6.6434">
        <ele>321</ele>
        <time>2015-04-26T09:12:46.000Z</time>
      </trkpt>
      <trkpt lat="47.44045" lon="6.64346">
        <ele>321</ele>
        <time>2015-04-26T09:12:47.000Z</time>
      </trkpt>
      <trkpt lat="47.44047" lon="6.64354">
        <ele>321</ele>
        <time>2015-04-26T09:12:48.000Z</time>
      </trkpt>
      <trkpt lat="47.44048" lon="6.64363">
        <ele>321</ele>
        <time>2015-04-26T09:12:49.000Z</time>
      </trkpt>
      <trkpt lat="47.4405" lon="6.64373">
        <ele>321</ele>
        <time>2015-04-26T09:12:50.000Z</time>
      </trkpt>
      <trkpt lat="47.44053" lon="6.64381">
        <ele>321</ele>
        <time>2015-04-26T09:12:51.000Z</time>
      </trkpt>
      <trkpt lat="47.44053" lon="6.64392">
        <ele>321</ele>
        <time>2015-04-26T09:12:52.000Z</time>
      </trkpt>
      <trkpt lat="47.44054" lon="6.64401">
        <ele>321</ele>
        <time>2015-04-26T09:12:53.000Z</time>
      </trkpt>
      <trkpt lat="47.44055" lon="6.6441">
        <ele>321</ele>
        <time>2015-04-26T09:12:54.000Z</time>
      </trkpt>
      <trkpt lat="47.44054" lon="6.64419">
        <ele>322</ele>
        <time>2015-04-26T09:12:55.000Z</time>
      </trkpt>
      <trkpt lat="47.44054" lon="6.64428">
        <ele>322</ele>
        <time>2015-04-26T09:12:56.000Z</time>
      </trkpt>
      <trkpt lat="47.44053" lon="6.64437">
        <ele>323</ele>
        <time>2015-04-26T09:12:57.000Z</time>
      </trkpt>
      <trkpt lat="47.44052" lon="6.64448">
        <ele>323</ele>
        <time>2015-04-26T09:12:58.000Z</time>
      </trkpt>
      <trkpt lat="47.4405" lon="6.64459">
        <ele>323</ele>
        <time>2015-04-26T09:12:59.000Z</time>
      </trkpt>
      <trkpt lat="47.44051" lon="6.64468">
        <ele>323</ele>
        <time>2015-04-26T09:13:00.000Z</time>
      </trkpt>
      <trkpt lat="47.44052" lon="6.64477">
        <ele>323</ele>
        <time>2015-04-26T09:13:01.000Z</time>
      </trkpt>
      <trkpt lat="47.44053" lon="6.64486">
        <ele>323</ele>
        <time>2015-04-26T09:13:02.000Z</time>
      </trkpt>
      <trkpt lat="47.44054" lon="6.64495">
        <ele>323</ele>
        <time>2015-04-26T09:13:03.000Z</time>
      </trkpt>
      <trkpt lat="47.44056" lon="6.64505">
        <ele>323</ele>
        <time>2015-04-26T09:13:04.000Z</time>
      </trkpt>
      <trkpt lat="47.44058" lon="6.64519">
        <ele>324</ele>
        <time>2015-04-26T09:13:05.000Z</time>
      </trkpt>
      <trkpt lat="47.4406" lon="6.64532">
        <ele>324</ele>
        <time>2015-04-26T09:13:06.000Z</time>
      </trkpt>
      <trkpt lat="47.44061" lon="6.64544">
        <ele>324</ele>
        <time>2015-04-26T09:13:07.000Z</time>
      </trkpt>
      <trkpt lat="47.44063" lon="6.64554">
        <ele>324</ele>
        <time>2015-04-26T09:13:08.000Z</time>
      </trkpt>
      <trkpt lat="47.44067" lon="6.64567">
        <ele>323</ele>
        <time>2015-04-26T09:13:09.000Z</time>
      </trkpt>
      <trkpt lat="47.44069" lon="6.64577">
        <ele>322</ele>
        <time>2015-04-26T09:13:10.000Z</time>
      </trkpt>
      <trkpt lat="47.44071" lon="6.64585">
        <ele>322</ele>
        <time>2015-04-26T09:13:11.000Z</time>
      </trkpt>
      <trkpt lat="47.44073" lon="6.64596">
        <ele>322</ele>
        <time>2015-04-26T09:13:12.000Z</time>
      </trkpt>
      <trkpt lat="47.44074" lon="6.64606">
        <ele>323</ele>
        <time>2015-04-26T09:13:13.000Z</time>
      </trkpt>
      <trkpt lat="47.44075" lon="6.64616">
        <ele>324</ele>
        <time>2015-04-26T09:13:14.000Z</time>
      </trkpt>
      <trkpt lat="47.44076" lon="6.64626">
        <ele>324</ele>
        <time>2015-04-26T09:13:15.000Z</time>
      </trkpt>
      <trkpt lat="47.44077" lon="6.64637">
        <ele>324</ele>
        <time>2015-04-26T09:13:16.000Z</time>
      </trkpt>
      <trkpt lat="47.44078" lon="6.64647">
        <ele>323</ele>
        <time>2015-04-26T09:13:17.000Z</time>
      </trkpt>
      <trkpt lat="47.4408" lon="6.64658">
        <ele>321</ele>
        <time>2015-04-26T09:13:18.000Z</time>
      </trkpt>
      <trkpt lat="47.4408" lon="6.64671">
        <ele>320</ele>
        <time>2015-04-26T09:13:19.000Z</time>
      </trkpt>
      <trkpt lat="47.44081" lon="6.64688">
        <ele>322</ele>
        <time>2015-04-26T09:13:20.000Z</time>
      </trkpt>
      <trkpt lat="47.4408" lon="6.647">
        <ele>323</ele>
        <time>2015-04-26T09:13:21.000Z</time>
      </trkpt>
      <trkpt lat="47.44083" lon="6.64712">
        <ele>322</ele>
        <time>2015-04-26T09:13:22.000Z</time>
      </trkpt>
      <trkpt lat="47.44083" lon="6.64723">
        <ele>321</ele>
        <time>2015-04-26T09:13:23.000Z</time>
      </trkpt>
      <trkpt lat="47.44082" lon="6.64732">
        <ele>320</ele>
        <time>2015-04-26T09:13:24.000Z</time>
      </trkpt>
      <trkpt lat="47.44082" lon="6.64741">
        <ele>318</ele>
        <time>2015-04-26T09:13:25.000Z</time>
      </trkpt>
      <trkpt lat="47.44082" lon="6.64746">
        <ele>316</ele>
        <time>2015-04-26T09:13:26.000Z</time>
      </trkpt>
      <trkpt lat="47.44085" lon="6.64753">
        <ele>314</ele>
        <time>2015-04-26T09:13:27.000Z</time>
      </trkpt>
      <trkpt lat="47.44088" lon="6.64758">
        <ele>313</ele>
        <time>2015-04-26T09:13:28.000Z</time>
      </trkpt>
      <trkpt lat="47.44093" lon="6.64755">
        <ele>313</ele>
        <time>2015-04-26T09:13:29.000Z</time>
      </trkpt>
      <trkpt lat="47.44099" lon="6.64755">
        <ele>312</ele>
        <time>2015-04-26T09:13:30.000Z</time>
      </trkpt>
      <trkpt lat="47.44103" lon="6.64755">
        <ele>312</ele>
        <time>2015-04-26T09:13:31.000Z</time>
      </trkpt>
      <trkpt lat="47.44108" lon="6.64757">
        <ele>312</ele>
        <time>2015-04-26T09:13:32.000Z</time>
      </trkpt>
      <trkpt lat="47.44111" lon="6.64758">
        <ele>312</ele>
        <time>2015-04-26T09:13:33.000Z</time>
      </trkpt>
      <trkpt lat="47.44116" lon="6.64759">
        <ele>312</ele>
        <time>2015-04-26T09:13:34.000Z</time>
      </trkpt>
      <trkpt lat="47.44119" lon="6.64761">
        <ele>311</ele>
        <time>2015-04-26T09:13:35.000Z</time>
      </trkpt>
      <trkpt lat="47.44123" lon="6.64765">
        <ele>311</ele>
        <time>2015-04-26T09:13:36.000Z</time>
      </trkpt>
      <trkpt lat="47.44127" lon="6.64767">
        <ele>311</ele>
        <time>2015-04-26T09:13:37.000Z</time>
      </trkpt>
      <trkpt lat="47.44132" lon="6.64767">
        <ele>311</ele>
        <time>2015-04-26T09:13:38.000Z</time>
      </trkpt>
      <trkpt lat="47.44135" lon="6.6477">
        <ele>311</ele>
        <time>2015-04-26T09:13:39.000Z</time>
      </trkpt>
      <trkpt lat="47.44139" lon="6.6477">
        <ele>311</ele>
        <time>2015-04-26T09:13:40.000Z</time>
      </trkpt>
      <trkpt lat="47.44142" lon="6.64769">
        <ele>311</ele>
        <time>2015-04-26T09:13:41.002Z</time>
      </trkpt>
      <trkpt lat="47.44145" lon="6.64769">
        <ele>311</ele>
        <time>2015-04-26T09:13:42.000Z</time>
      </trkpt>
      <trkpt lat="47.44148" lon="6.6477">
        <ele>311</ele>
        <time>2015-04-26T09:13:43.000Z</time>
      </trkpt>
      <trkpt lat="47.44149" lon="6.64772">
        <ele>311</ele>
        <time>2015-04-26T09:13:44.000Z</time>
      </trkpt>
      <trkpt lat="47.4415" lon="6.64775">
        <ele>311</ele>
        <time>2015-04-26T09:13:45.000Z</time>
      </trkpt>
      <trkpt lat="47.44144" lon="6.64784">
        <ele>311</ele>
        <time>2015-04-26T09:13:46.000Z</time>
      </trkpt>
      <trkpt lat="47.44144" lon="6.6479">
        <ele>311</ele>
        <time>2015-04-26T09:13:47.000Z</time>
      </trkpt>
      <trkpt lat="47.44143" lon="6.64796">
        <ele>311</ele>
        <time>2015-04-26T09:13:48.000Z</time>
      </trkpt>
      <trkpt lat="47.44143" lon="6.64802">
        <ele>311</ele>
        <time>2015-04-26T09:13:49.000Z</time>
      </trkpt>
      <trkpt lat="47.44143" lon="6.64807">
        <ele>311</ele>
        <time>2015-04-26T09:13:50.000Z</time>
      </trkpt>
      <trkpt lat="47.44141" lon="6.64812">
        <ele>311</ele>
        <time>2015-04-26T09:13:51.000Z</time>
      </trkpt>
      <trkpt lat="47.4414" lon="6.64817">
        <ele>311</ele>
        <time>2015-04-26T09:13:52.000Z</time>
      </trkpt>
      <trkpt lat="47.44139" lon="6.64824">
        <ele>311</ele>
        <time>2015-04-26T09:13:53.000Z</time>
      </trkpt>
      <trkpt lat="47.44138" lon="6.64829">
        <ele>311</ele>
        <time>2015-04-26T09:13:54.000Z</time>
      </trkpt>
      <trkpt lat="47.44138" lon="6.64836">
        <ele>311</ele>
        <time>2015-04-26T09:13:55.000Z</time>
      </trkpt>
      <trkpt lat="47.44138" lon="6.64842">
        <ele>312</ele>
        <time>2015-04-26T09:13:56.000Z</time>
      </trkpt>
      <trkpt lat="47.44139" lon="6.64848">
        <ele>312</ele>
        <time>2015-04-26T09:13:57.000Z</time>
      </trkpt>
      <trkpt lat="47.4414" lon="6.64853">
        <ele>312</ele>
        <time>2015-04-26T09:13:58.000Z</time>
      </trkpt>
      <trkpt lat="47.44141" lon="6.64858">
        <ele>312</ele>
        <time>2015-04-26T09:13:59.000Z</time>
      </trkpt>
      <trkpt lat="47.44142" lon="6.64862">
        <ele>312</ele>
        <time>2015-04-26T09:14:00.000Z</time>
      </trkpt>
      <trkpt lat="47.44145" lon="6.64866">
        <ele>312</ele>
        <time>2015-04-26T09:14:01.000Z</time>
      </trkpt>
      <trkpt lat="47.44147" lon="6.64871">
        <ele>312</ele>
        <time>2015-04-26T09:14:02.001Z</time>
      </trkpt>
      <trkpt lat="47.44151" lon="6.64875">
        <ele>312</ele>
        <time>2015-04-26T09:14:03.000Z</time>
      </trkpt>
      <trkpt lat="47.44154" lon="6.64879">
        <ele>312</ele>
        <time>2015-04-26T09:14:04.000Z</time>
      </trkpt>
      <trkpt lat="47.44156" lon="6.64883">
        <ele>313</ele>
        <time>2015-04-26T09:14:05.000Z</time>
      </trkpt>
      <trkpt lat="47.44159" lon="6.64888">
        <ele>313</ele>
        <time>2015-04-26T09:14:06.000Z</time>
      </trkpt>
      <trkpt lat="47.44161" lon="6.64892">
        <ele>313</ele>
        <time>2015-04-26T09:14:07.000Z</time>
      </trkpt>
      <trkpt lat="47.44162" lon="6.64897">
        <ele>313</ele>
        <time>2015-04-26T09:14:08.000Z</time>
      </trkpt>
      <trkpt lat="47.44163" lon="6.64902">
        <ele>314</ele>
        <time>2015-04-26T09:14:09.000Z</time>
      </trkpt>
      <trkpt lat="47.44163" lon="6.64907">
        <ele>314</ele>
        <time>2015-04-26T09:14:10.001Z</time>
      </trkpt>
      <trkpt lat="47.44163" lon="6.64911">
        <ele>315</ele>
        <time>2015-04-26T09:14:11.000Z</time>
      </trkpt>
      <trkpt lat="47.44161" lon="6.64915">
        <ele>315</ele>
        <time>2015-04-26T09:14:12.000Z</time>
      </trkpt>
      <trkpt lat="47.4416" lon="6.64919">
        <ele>316</ele>
        <time>2015-04-26T09:14:13.000Z</time>
      </trkpt>
      <trkpt lat="47.44158" lon="6.64922">
        <ele>316</ele>
        <time>2015-04-26T09:14:14.000Z</time>
      </trkpt>
      <trkpt lat="47.44157" lon="6.64926">
        <ele>316</ele>
        <time>2015-04-26T09:14:15.000Z</time>
      </trkpt>
      <trkpt lat="47.44156" lon="6.64931">
        <ele>316</ele>
        <time>2015-04-26T09:14:16.000Z</time>
      </trkpt>
      <trkpt lat="47.44155" lon="6.64936">
        <ele>316</ele>
        <time>2015-04-26T09:14:17.000Z</time>
      </trkpt>
      <trkpt lat="47.44154" lon="6.6494">
        <ele>316</ele>
        <time>2015-04-26T09:14:17.999Z</time>
      </trkpt>
      <trkpt lat="47.44152" lon="6.64946">
        <ele>316</ele>
        <time>2015-04-26T09:14:19.000Z</time>
      </trkpt>
      <trkpt lat="47.44151" lon="6.64952">
        <ele>316</ele>
        <time>2015-04-26T09:14:20.000Z</time>
      </trkpt>
      <trkpt lat="47.44149" lon="6.64958">
        <ele>316</ele>
        <time>2015-04-26T09:14:21.000Z</time>
      </trkpt>
      <trkpt lat="47.44147" lon="6.64964">
        <ele>316</ele>
        <time>2015-04-26T09:14:22.000Z</time>
      </trkpt>
      <trkpt lat="47.44145" lon="6.6497">
        <ele>317</ele>
        <time>2015-04-26T09:14:23.000Z</time>
      </trkpt>
      <trkpt lat="47.44143" lon="6.64976">
        <ele>317</ele>
        <time>2015-04-26T09:14:24.000Z</time>
      </trkpt>
      <trkpt lat="47.44141" lon="6.64981">
        <ele>317</ele>
        <time>2015-04-26T09:14:25.000Z</time>
      </trkpt>
      <trkpt lat="47.44139" lon="6.64987">
        <ele>317</ele>
        <time>2015-04-26T09:14:26.000Z</time>
      </trkpt>
      <trkpt lat="47.44138" lon="6.64992">
        <ele>317</ele>
        <time>2015-04-26T09:14:27.000Z</time>
      </trkpt>
      <trkpt lat="47.44136" lon="6.64998">
        <ele>317</ele>
        <time>2015-04-26T09:14:28.000Z</time>
      </trkpt>
      <trkpt lat="47.44135" lon="6.65003">
        <ele>320</ele>
        <time>2015-04-26T09:14:29.000Z</time>
      </trkpt>
      <trkpt lat="47.44134" lon="6.65009">
        <ele>320</ele>
        <time>2015-04-26T09:14:30.000Z</time>
      </trkpt>
      <trkpt lat="47.44131" lon="6.65016">
        <ele>320</ele>
        <time>2015-04-26T09:14:31.000Z</time>
      </trkpt>
      <trkpt lat="47.4413" lon="6.65021">
        <ele>320</ele>
        <time>2015-04-26T09:14:32.000Z</time>
      </trkpt>
      <trkpt lat="47.44128" lon="6.65026">
        <ele>320</ele>
        <time>2015-04-26T09:14:33.001Z</time>
      </trkpt>
      <trkpt lat="47.44128" lon="6.65033">
        <ele>320</ele>
        <time>2015-04-26T09:14:34.000Z</time>
      </trkpt>
      <trkpt lat="47.44128" lon="6.65039">
        <ele>320</ele>
        <time>2015-04-26T09:14:35.000Z</time>
      </trkpt>
      <trkpt lat="47.44126" lon="6.65044">
        <ele>320</ele>
        <time>2015-04-26T09:14:36.000Z</time>
      </trkpt>
      <trkpt lat="47.44124" lon="6.65049">
        <ele>320</ele>
        <time>2015-04-26T09:14:37.000Z</time>
      </trkpt>
      <trkpt lat="47.44124" lon="6.65055">
        <ele>321</ele>
        <time>2015-04-26T09:14:38.000Z</time>
      </trkpt>
      <trkpt lat="47.44123" lon="6.6506">
        <ele>321</ele>
        <time>2015-04-26T09:14:39.000Z</time>
      </trkpt>
      <trkpt lat="47.44122" lon="6.65066">
        <ele>321</ele>
        <time>2015-04-26T09:14:40.000Z</time>
      </trkpt>
      <trkpt lat="47.44121" lon="6.65071">
        <ele>321</ele>
        <time>2015-04-26T09:14:41.000Z</time>
      </trkpt>
      <trkpt lat="47.44119" lon="6.65077">
        <ele>320</ele>
        <time>2015-04-26T09:14:42.000Z</time>
      </trkpt>
      <trkpt lat="47.44118" lon="6.65083">
        <ele>320</ele>
        <time>2015-04-26T09:14:43.000Z</time>
      </trkpt>
      <trkpt lat="47.44116" lon="6.65088">
        <ele>324</ele>
        <time>2015-04-26T09:14:44.000Z</time>
      </trkpt>
      <trkpt lat="47.44115" lon="6.65094">
        <ele>324</ele>
        <time>2015-04-26T09:14:44.999Z</time>
      </trkpt>
      <trkpt lat="47.44113" lon="6.65098">
        <ele>324</ele>
        <time>2015-04-26T09:14:46.000Z</time>
      </trkpt>
      <trkpt lat="47.44111" lon="6.65103">
        <ele>324</ele>
        <time>2015-04-26T09:14:47.000Z</time>
      </trkpt>
      <trkpt lat="47.44109" lon="6.65108">
        <ele>324</ele>
        <time>2015-04-26T09:14:48.000Z</time>
      </trkpt>
      <trkpt lat="47.44107" lon="6.65112">
        <ele>324</ele>
        <time>2015-04-26T09:14:49.000Z</time>
      </trkpt>
      <trkpt lat="47.44105" lon="6.65118">
        <ele>325</ele>
        <time>2015-04-26T09:14:50.000Z</time>
      </trkpt>
      <trkpt lat="47.44103" lon="6.65123">
        <ele>325</ele>
        <time>2015-04-26T09:14:51.000Z</time>
      </trkpt>
      <trkpt lat="47.44101" lon="6.65128">
        <ele>325</ele>
        <time>2015-04-26T09:14:52.000Z</time>
      </trkpt>
      <trkpt lat="47.44099" lon="6.65133">
        <ele>325</ele>
        <time>2015-04-26T09:14:53.000Z</time>
      </trkpt>
      <trkpt lat="47.44097" lon="6.65138">
        <ele>325</ele>
        <time>2015-04-26T09:14:54.000Z</time>
      </trkpt>
      <trkpt lat="47.44094" lon="6.65144">
        <ele>324</ele>
        <time>2015-04-26T09:14:55.000Z</time>
      </trkpt>
      <trkpt lat="47.44091" lon="6.65148">
        <ele>324</ele>
        <time>2015-04-26T09:14:56.000Z</time>
      </trkpt>
      <trkpt lat="47.44088" lon="6.65153">
        <ele>324</ele>
        <time>2015-04-26T09:14:57.000Z</time>
      </trkpt>
      <trkpt lat="47.44086" lon="6.65159">
        <ele>323</ele>
        <time>2015-04-26T09:14:58.000Z</time>
      </trkpt>
      <trkpt lat="47.44083" lon="6.65165">
        <ele>320</ele>
        <time>2015-04-26T09:14:59.000Z</time>
      </trkpt>
      <trkpt lat="47.4408" lon="6.65169">
        <ele>321</ele>
        <time>2015-04-26T09:15:00.000Z</time>
      </trkpt>
      <trkpt lat="47.44077" lon="6.65174">
        <ele>321</ele>
        <time>2015-04-26T09:15:01.000Z</time>
      </trkpt>
      <trkpt lat="47.44074" lon="6.65178">
        <ele>320</ele>
        <time>2015-04-26T09:15:02.000Z</time>
      </trkpt>
      <trkpt lat="47.44071" lon="6.65183">
        <ele>320</ele>
        <time>2015-04-26T09:15:03.000Z</time>
      </trkpt>
      <trkpt lat="47.44068" lon="6.65188">
        <ele>320</ele>
        <time>2015-04-26T09:15:04.000Z</time>
      </trkpt>
      <trkpt lat="47.44065" lon="6.65192">
        <ele>320</ele>
        <time>2015-04-26T09:15:05.000Z</time>
      </trkpt>
      <trkpt lat="47.44062" lon="6.65197">
        <ele>320</ele>
        <time>2015-04-26T09:15:06.000Z</time>
      </trkpt>
      <trkpt lat="47.44057" lon="6.65201">
        <ele>320</ele>
        <time>2015-04-26T09:15:07.000Z</time>
      </trkpt>
      <trkpt lat="47.44054" lon="6.65204">
        <ele>320</ele>
        <time>2015-04-26T09:15:08.000Z</time>
      </trkpt>
      <trkpt lat="47.4405" lon="6.65209">
        <ele>320</ele>
        <time>2015-04-26T09:15:09.000Z</time>
      </trkpt>
      <trkpt lat="47.44046" lon="6.65213">
        <ele>320</ele>
        <time>2015-04-26T09:15:10.001Z</time>
      </trkpt>
      <trkpt lat="47.44042" lon="6.65219">
        <ele>320</ele>
        <time>2015-04-26T09:15:11.000Z</time>
      </trkpt>
      <trkpt lat="47.44038" lon="6.65223">
        <ele>320</ele>
        <time>2015-04-26T09:15:12.000Z</time>
      </trkpt>
      <trkpt lat="47.44034" lon="6.65229">
        <ele>319</ele>
        <time>2015-04-26T09:15:13.000Z</time>
      </trkpt>
      <trkpt lat="47.44029" lon="6.65235">
        <ele>319</ele>
        <time>2015-04-26T09:15:14.000Z</time>
      </trkpt>
      <trkpt lat="47.44025" lon="6.65239">
        <ele>318</ele>
        <time>2015-04-26T09:15:15.000Z</time>
      </trkpt>
      <trkpt lat="47.4402" lon="6.65245">
        <ele>318</ele>
        <time>2015-04-26T09:15:15.999Z</time>
      </trkpt>
      <trkpt lat="47.44015" lon="6.65252">
        <ele>321</ele>
        <time>2015-04-26T09:15:17.000Z</time>
      </trkpt>
      <trkpt lat="47.4401" lon="6.65257">
        <ele>320</ele>
        <time>2015-04-26T09:15:18.000Z</time>
      </trkpt>
      <trkpt lat="47.44005" lon="6.65263">
        <ele>320</ele>
        <time>2015-04-26T09:15:19.000Z</time>
      </trkpt>
      <trkpt lat="47.44001" lon="6.65267">
        <ele>321</ele>
        <time>2015-04-26T09:15:20.000Z</time>
      </trkpt>
      <trkpt lat="47.43996" lon="6.65274">
        <ele>316</ele>
        <time>2015-04-26T09:15:21.000Z</time>
      </trkpt>
      <trkpt lat="47.43991" lon="6.65281">
        <ele>316</ele>
        <time>2015-04-26T09:15:22.000Z</time>
      </trkpt>
      <trkpt lat="47.43985" lon="6.65286">
        <ele>316</ele>
        <time>2015-04-26T09:15:23.000Z</time>
      </trkpt>
      <trkpt lat="47.4398" lon="6.65291">
        <ele>317</ele>
        <time>2015-04-26T09:15:24.000Z</time>
      </trkpt>
      <trkpt lat="47.43974" lon="6.65295">
        <ele>317</ele>
        <time>2015-04-26T09:15:25.000Z</time>
      </trkpt>
      <trkpt lat="47.43969" lon="6.653">
        <ele>317</ele>
        <time>2015-04-26T09:15:26.000Z</time>
      </trkpt>
      <trkpt lat="47.43963" lon="6.65306">
        <ele>316</ele>
        <time>2015-04-26T09:15:27.000Z</time>
      </trkpt>
      <trkpt lat="47.43959" lon="6.65312">
        <ele>316</ele>
        <time>2015-04-26T09:15:28.000Z</time>
      </trkpt>
      <trkpt lat="47.43954" lon="6.65318">
        <ele>316</ele>
        <time>2015-04-26T09:15:29.000Z</time>
      </trkpt>
      <trkpt lat="47.43949" lon="6.65324">
        <ele>316</ele>
        <time>2015-04-26T09:15:30.000Z</time>
      </trkpt>
      <trkpt lat="47.43945" lon="6.65331">
        <ele>316</ele>
        <time>2015-04-26T09:15:31.000Z</time>
      </trkpt>
      <trkpt lat="47.43942" lon="6.65338">
        <ele>319</ele>
        <time>2015-04-26T09:15:32.000Z</time>
      </trkpt>
      <trkpt lat="47.43937" lon="6.65345">
        <ele>318</ele>
        <time>2015-04-26T09:15:33.000Z</time>
      </trkpt>
      <trkpt lat="47.43933" lon="6.65353">
        <ele>319</ele>
        <time>2015-04-26T09:15:34.000Z</time>
      </trkpt>
      <trkpt lat="47.43929" lon="6.65361">
        <ele>319</ele>
        <time>2015-04-26T09:15:35.000Z</time>
      </trkpt>
      <trkpt lat="47.43926" lon="6.65368">
        <ele>319</ele>
        <time>2015-04-26T09:15:36.000Z</time>
      </trkpt>
      <trkpt lat="47.43923" lon="6.65374">
        <ele>320</ele>
        <time>2015-04-26T09:15:37.000Z</time>
      </trkpt>
      <trkpt lat="47.43919" lon="6.65379">
        <ele>320</ele>
        <time>2015-04-26T09:15:38.000Z</time>
      </trkpt>
      <trkpt lat="47.43915" lon="6.65385">
        <ele>314</ele>
        <time>2015-04-26T09:15:39.001Z</time>
      </trkpt>
      <trkpt lat="47.4391" lon="6.65392">
        <ele>315</ele>
        <time>2015-04-26T09:15:40.000Z</time>
      </trkpt>
      <trkpt lat="47.43906" lon="6.65399">
        <ele>315</ele>
        <time>2015-04-26T09:15:41.000Z</time>
      </trkpt>
      <trkpt lat="47.43901" lon="6.65406">
        <ele>315</ele>
        <time>2015-04-26T09:15:42.000Z</time>
      </trkpt>
      <trkpt lat="47.43894" lon="6.65413">
        <ele>315</ele>
        <time>2015-04-26T09:15:42.999Z</time>
      </trkpt>
      <trkpt lat="47.43888" lon="6.6542">
        <ele>317</ele>
        <time>2015-04-26T09:15:44.001Z</time>
      </trkpt>
      <trkpt lat="47.43883" lon="6.65429">
        <ele>317</ele>
        <time>2015-04-26T09:15:45.001Z</time>
      </trkpt>
      <trkpt lat="47.43877" lon="6.65437">
        <ele>317</ele>
        <time>2015-04-26T09:15:46.000Z</time>
      </trkpt>
      <trkpt lat="47.43871" lon="6.65443">
        <ele>317</ele>
        <time>2015-04-26T09:15:47.000Z</time>
      </trkpt>
      <trkpt lat="47.43867" lon="6.6545">
        <ele>317</ele>
        <time>2015-04-26T09:15:48.000Z</time>
      </trkpt>
      <trkpt lat="47.43862" lon="6.65458">
        <ele>317</ele>
        <time>2015-04-26T09:15:49.000Z</time>
      </trkpt>
      <trkpt lat="47.43858" lon="6.65467">
        <ele>317</ele>
        <time>2015-04-26T09:15:50.000Z</time>
      </trkpt>
      <trkpt lat="47.43854" lon="6.65474">
        <ele>317</ele>
        <time>2015-04-26T09:15:51.000Z</time>
      </trkpt>
      <trkpt lat="47.43849" lon="6.65483">
        <ele>317</ele>
        <time>2015-04-26T09:15:52.000Z</time>
      </trkpt>
      <trkpt lat="47.43842" lon="6.65488">
        <ele>317</ele>
        <time>2015-04-26T09:15:53.000Z</time>
      </trkpt>
      <trkpt lat="47.43837" lon="6.65494">
        <ele>316</ele>
        <time>2015-04-26T09:15:54.000Z</time>
      </trkpt>
      <trkpt lat="47.43832" lon="6.65501">
        <ele>316</ele>
        <time>2015-04-26T09:15:54.999Z</time>
      </trkpt>
      <trkpt lat="47.43826" lon="6.65508">
        <ele>317</ele>
        <time>2015-04-26T09:15:56.000Z</time>
      </trkpt>
      <trkpt lat="47.43821" lon="6.65517">
        <ele>318</ele>
        <time>2015-04-26T09:15:57.000Z</time>
      </trkpt>
      <trkpt lat="47.43817" lon="6.65526">
        <ele>318</ele>
        <time>2015-04-26T09:15:58.000Z</time>
      </trkpt>
      <trkpt lat="47.43812" lon="6.65532">
        <ele>318</ele>
        <time>2015-04-26T09:15:59.000Z</time>
      </trkpt>
      <trkpt lat="47.43807" lon="6.65539">
        <ele>319</ele>
        <time>2015-04-26T09:16:00.000Z</time>
      </trkpt>
      <trkpt lat="47.43802" lon="6.65545">
        <ele>319</ele>
        <time>2015-04-26T09:16:01.000Z</time>
      </trkpt>
      <trkpt lat="47.43798" lon="6.65553">
        <ele>319</ele>
        <time>2015-04-26T09:16:02.000Z</time>
      </trkpt>
      <trkpt lat="47.43794" lon="6.65561">
        <ele>319</ele>
        <time>2015-04-26T09:16:03.000Z</time>
      </trkpt>
      <trkpt lat="47.43789" lon="6.65568">
        <ele>319</ele>
        <time>2015-04-26T09:16:04.000Z</time>
      </trkpt>
      <trkpt lat="47.43785" lon="6.65575">
        <ele>319</ele>
        <time>2015-04-26T09:16:05.000Z</time>
      </trkpt>
      <trkpt lat="47.43782" lon="6.65582">
        <ele>319</ele>
        <time>2015-04-26T09:16:06.000Z</time>
      </trkpt>
      <trkpt lat="47.43778" lon="6.65591">
        <ele>324</ele>
        <time>2015-04-26T09:16:07.000Z</time>
      </trkpt>
      <trkpt lat="47.43774" lon="6.65599">
        <ele>324</ele>
        <time>2015-04-26T09:16:08.000Z</time>
      </trkpt>
      <trkpt lat="47.4377" lon="6.65607">
        <ele>324</ele>
        <time>2015-04-26T09:16:09.000Z</time>
      </trkpt>
      <trkpt lat="47.43766" lon="6.65614">
        <ele>325</ele>
        <time>2015-04-26T09:16:10.000Z</time>
      </trkpt>
      <trkpt lat="47.43762" lon="6.65622">
        <ele>325</ele>
        <time>2015-04-26T09:16:11.000Z</time>
      </trkpt>
      <trkpt lat="47.43758" lon="6.65629">
        <ele>326</ele>
        <time>2015-04-26T09:16:12.000Z</time>
      </trkpt>
      <trkpt lat="47.43754" lon="6.65637">
        <ele>326</ele>
        <time>2015-04-26T09:16:13.000Z</time>
      </trkpt>
      <trkpt lat="47.43749" lon="6.65645">
        <ele>320</ele>
        <time>2015-04-26T09:16:14.000Z</time>
      </trkpt>
      <trkpt lat="47.43745" lon="6.65653">
        <ele>321</ele>
        <time>2015-04-26T09:16:15.000Z</time>
      </trkpt>
      <trkpt lat="47.43741" lon="6.65662">
        <ele>322</ele>
        <time>2015-04-26T09:16:16.000Z</time>
      </trkpt>
      <trkpt lat="47.43738" lon="6.65671">
        <ele>324</ele>
        <time>2015-04-26T09:16:17.000Z</time>
      </trkpt>
      <trkpt lat="47.43734" lon="6.65678">
        <ele>324</ele>
        <time>2015-04-26T09:16:18.000Z</time>
      </trkpt>
      <trkpt lat="47.4373" lon="6.65685">
        <ele>324</ele>
        <time>2015-04-26T09:16:19.000Z</time>
      </trkpt>
      <trkpt lat="47.43726" lon="6.65693">
        <ele>324</ele>
        <time>2015-04-26T09:16:20.000Z</time>
      </trkpt>
      <trkpt lat="47.43722" lon="6.65699">
        <ele>324</ele>
        <time>2015-04-26T09:16:21.000Z</time>
      </trkpt>
      <trkpt lat="47.43719" lon="6.65707">
        <ele>324</ele>
        <time>2015-04-26T09:16:22.000Z</time>
      </trkpt>
      <trkpt lat="47.43716" lon="6.65715">
        <ele>324</ele>
        <time>2015-04-26T09:16:23.000Z</time>
      </trkpt>
      <trkpt lat="47.43712" lon="6.65723">
        <ele>324</ele>
        <time>2015-04-26T09:16:24.000Z</time>
      </trkpt>
      <trkpt lat="47.4371" lon="6.65731">
        <ele>324</ele>
        <time>2015-04-26T09:16:25.000Z</time>
      </trkpt>
      <trkpt lat="47.43707" lon="6.65737">
        <ele>324</ele>
        <time>2015-04-26T09:16:26.000Z</time>
      </trkpt>
      <trkpt lat="47.43703" lon="6.65744">
        <ele>324</ele>
        <time>2015-04-26T09:16:27.000Z</time>
      </trkpt>
      <trkpt lat="47.437" lon="6.65751">
        <ele>328</ele>
        <time>2015-04-26T09:16:28.000Z</time>
      </trkpt>
      <trkpt lat="47.43697" lon="6.65757">
        <ele>328</ele>
        <time>2015-04-26T09:16:29.000Z</time>
      </trkpt>
      <trkpt lat="47.43693" lon="6.65765">
        <ele>327</ele>
        <time>2015-04-26T09:16:30.000Z</time>
      </trkpt>
      <trkpt lat="47.43689" lon="6.65771">
        <ele>327</ele>
        <time>2015-04-26T09:16:31.000Z</time>
      </trkpt>
      <trkpt lat="47.43685" lon="6.65777">
        <ele>327</ele>
        <time>2015-04-26T09:16:32.000Z</time>
      </trkpt>
      <trkpt lat="47.43681" lon="6.65785">
        <ele>327</ele>
        <time>2015-04-26T09:16:33.000Z</time>
      </trkpt>
      <trkpt lat="47.43678" lon="6.65793">
        <ele>328</ele>
        <time>2015-04-26T09:16:34.000Z</time>
      </trkpt>
      <trkpt lat="47.43675" lon="6.658">
        <ele>328</ele>
        <time>2015-04-26T09:16:35.000Z</time>
      </trkpt>
      <trkpt lat="47.43673" lon="6.65808">
        <ele>327</ele>
        <time>2015-04-26T09:16:36.000Z</time>
      </trkpt>
      <trkpt lat="47.4367" lon="6.65817">
        <ele>327</ele>
        <time>2015-04-26T09:16:37.000Z</time>
      </trkpt>
      <trkpt lat="47.43666" lon="6.65824">
        <ele>321</ele>
        <time>2015-04-26T09:16:38.000Z</time>
      </trkpt>
      <trkpt lat="47.43663" lon="6.65831">
        <ele>322</ele>
        <time>2015-04-26T09:16:39.000Z</time>
      </trkpt>
      <trkpt lat="47.43659" lon="6.65839">
        <ele>323</ele>
        <time>2015-04-26T09:16:40.000Z</time>
      </trkpt>
      <trkpt lat="47.43655" lon="6.65846">
        <ele>323</ele>
        <time>2015-04-26T09:16:41.000Z</time>
      </trkpt>
      <trkpt lat="47.43652" lon="6.65853">
        <ele>323</ele>
        <time>2015-04-26T09:16:42.000Z</time>
      </trkpt>
      <trkpt lat="47.43649" lon="6.65861">
        <ele>323</ele>
        <time>2015-04-26T09:16:43.000Z</time>
      </trkpt>
      <trkpt lat="47.43645" lon="6.6587">
        <ele>323</ele>
        <time>2015-04-26T09:16:44.000Z</time>
      </trkpt>
      <trkpt lat="47.43641" lon="6.65878">
        <ele>323</ele>
        <time>2015-04-26T09:16:45.000Z</time>
      </trkpt>
      <trkpt lat="47.43637" lon="6.65885">
        <ele>323</ele>
        <time>2015-04-26T09:16:46.000Z</time>
      </trkpt>
      <trkpt lat="47.43633" lon="6.65893">
        <ele>323</ele>
        <time>2015-04-26T09:16:47.000Z</time>
      </trkpt>
      <trkpt lat="47.43629" lon="6.65901">
        <ele>323</ele>
        <time>2015-04-26T09:16:48.000Z</time>
      </trkpt>
      <trkpt lat="47.43625" lon="6.65908">
        <ele>323</ele>
        <time>2015-04-26T09:16:49.000Z</time>
      </trkpt>
      <trkpt lat="47.43621" lon="6.65915">
        <ele>323</ele>
        <time>2015-04-26T09:16:50.000Z</time>
      </trkpt>
      <trkpt lat="47.43618" lon="6.65923">
        <ele>327</ele>
        <time>2015-04-26T09:16:51.000Z</time>
      </trkpt>
      <trkpt lat="47.43614" lon="6.65931">
        <ele>327</ele>
        <time>2015-04-26T09:16:52.000Z</time>
      </trkpt>
      <trkpt lat="47.4361" lon="6.65939">
        <ele>327</ele>
        <time>2015-04-26T09:16:53.000Z</time>
      </trkpt>
      <trkpt lat="47.43605" lon="6.65946">
        <ele>327</ele>
        <time>2015-04-26T09:16:54.000Z</time>
      </trkpt>
      <trkpt lat="47.43602" lon="6.65953">
        <ele>327</ele>
        <time>2015-04-26T09:16:55.000Z</time>
      </trkpt>
      <trkpt lat="47.43597" lon="6.65963">
        <ele>328</ele>
        <time>2015-04-26T09:16:56.000Z</time>
      </trkpt>
      <trkpt lat="47.43594" lon="6.6597">
        <ele>328</ele>
        <time>2015-04-26T09:16:57.000Z</time>
      </trkpt>
      <trkpt lat="47.4359" lon="6.65976">
        <ele>327</ele>
        <time>2015-04-26T09:16:58.000Z</time>
      </trkpt>
      <trkpt lat="47.43586" lon="6.65984">
        <ele>327</ele>
        <time>2015-04-26T09:16:59.000Z</time>
      </trkpt>
      <trkpt lat="47.43582" lon="6.65991">
        <ele>323</ele>
        <time>2015-04-26T09:17:00.000Z</time>
      </trkpt>
      <trkpt lat="47.43579" lon="6.65999">
        <ele>324</ele>
        <time>2015-04-26T09:17:01.000Z</time>
      </trkpt>
      <trkpt lat="47.43575" lon="6.66005">
        <ele>325</ele>
        <time>2015-04-26T09:17:02.000Z</time>
      </trkpt>
      <trkpt lat="47.43571" lon="6.66013">
        <ele>325</ele>
        <time>2015-04-26T09:17:03.000Z</time>
      </trkpt>
      <trkpt lat="47.43567" lon="6.66021">
        <ele>325</ele>
        <time>2015-04-26T09:17:04.000Z</time>
      </trkpt>
      <trkpt lat="47.43563" lon="6.66029">
        <ele>325</ele>
        <time>2015-04-26T09:17:05.000Z</time>
      </trkpt>
      <trkpt lat="47.43559" lon="6.66037">
        <ele>325</ele>
        <time>2015-04-26T09:17:06.000Z</time>
      </trkpt>
      <trkpt lat="47.43555" lon="6.66044">
        <ele>325</ele>
        <time>2015-04-26T09:17:07.000Z</time>
      </trkpt>
      <trkpt lat="47.43552" lon="6.66051">
        <ele>325</ele>
        <time>2015-04-26T09:17:08.000Z</time>
      </trkpt>
      <trkpt lat="47.43548" lon="6.66058">
        <ele>325</ele>
        <time>2015-04-26T09:17:09.000Z</time>
      </trkpt>
      <trkpt lat="47.43544" lon="6.66065">
        <ele>325</ele>
        <time>2015-04-26T09:17:10.000Z</time>
      </trkpt>
      <trkpt lat="47.4354" lon="6.66072">
        <ele>325</ele>
        <time>2015-04-26T09:17:11.000Z</time>
      </trkpt>
      <trkpt lat="47.43538" lon="6.66081">
        <ele>325</ele>
        <time>2015-04-26T09:17:12.000Z</time>
      </trkpt>
      <trkpt lat="47.43534" lon="6.66088">
        <ele>329</ele>
        <time>2015-04-26T09:17:13.000Z</time>
      </trkpt>
      <trkpt lat="47.43531" lon="6.66094">
        <ele>329</ele>
        <time>2015-04-26T09:17:14.000Z</time>
      </trkpt>
      <trkpt lat="47.43528" lon="6.66102">
        <ele>329</ele>
        <time>2015-04-26T09:17:15.000Z</time>
      </trkpt>
      <trkpt lat="47.43524" lon="6.66109">
        <ele>330</ele>
        <time>2015-04-26T09:17:16.000Z</time>
      </trkpt>
      <trkpt lat="47.43521" lon="6.66115">
        <ele>330</ele>
        <time>2015-04-26T09:17:17.000Z</time>
      </trkpt>
      <trkpt lat="47.43515" lon="6.66124">
        <ele>330</ele>
        <time>2015-04-26T09:17:18.000Z</time>
      </trkpt>
      <trkpt lat="47.43511" lon="6.66131">
        <ele>331</ele>
        <time>2015-04-26T09:17:19.000Z</time>
      </trkpt>
      <trkpt lat="47.43506" lon="6.66138">
        <ele>331</ele>
        <time>2015-04-26T09:17:20.000Z</time>
      </trkpt>
      <trkpt lat="47.43502" lon="6.66144">
        <ele>331</ele>
        <time>2015-04-26T09:17:21.000Z</time>
      </trkpt>
      <trkpt lat="47.43497" lon="6.66152">
        <ele>326</ele>
        <time>2015-04-26T09:17:22.000Z</time>
      </trkpt>
      <trkpt lat="47.43492" lon="6.66159">
        <ele>327</ele>
        <time>2015-04-26T09:17:23.000Z</time>
      </trkpt>
      <trkpt lat="47.43486" lon="6.66166">
        <ele>327</ele>
        <time>2015-04-26T09:17:24.000Z</time>
      </trkpt>
      <trkpt lat="47.43481" lon="6.66172">
        <ele>330</ele>
        <time>2015-04-26T09:17:25.000Z</time>
      </trkpt>
      <trkpt lat="47.43476" lon="6.66179">
        <ele>330</ele>
        <time>2015-04-26T09:17:26.000Z</time>
      </trkpt>
      <trkpt lat="47.43471" lon="6.66186">
        <ele>330</ele>
        <time>2015-04-26T09:17:27.000Z</time>
      </trkpt>
      <trkpt lat="47.43467" lon="6.66192">
        <ele>330</ele>
        <time>2015-04-26T09:17:28.000Z</time>
      </trkpt>
      <trkpt lat="47.43462" lon="6.66198">
        <ele>330</ele>
        <time>2015-04-26T09:17:29.000Z</time>
      </trkpt>
      <trkpt lat="47.43457" lon="6.66206">
        <ele>331</ele>
        <time>2015-04-26T09:17:30.000Z</time>
      </trkpt>
      <trkpt lat="47.43452" lon="6.66213">
        <ele>331</ele>
        <time>2015-04-26T09:17:31.000Z</time>
      </trkpt>
      <trkpt lat="47.43448" lon="6.6622">
        <ele>331</ele>
        <time>2015-04-26T09:17:32.000Z</time>
      </trkpt>
      <trkpt lat="47.43444" lon="6.66225">
        <ele>331</ele>
        <time>2015-04-26T09:17:33.000Z</time>
      </trkpt>
      <trkpt lat="47.43439" lon="6.66231">
        <ele>330</ele>
        <time>2015-04-26T09:17:34.000Z</time>
      </trkpt>
      <trkpt lat="47.43434" lon="6.66237">
        <ele>330</ele>
        <time>2015-04-26T09:17:35.000Z</time>
      </trkpt>
      <trkpt lat="47.4343" lon="6.66243">
        <ele>329</ele>
        <time>2015-04-26T09:17:36.000Z</time>
      </trkpt>
      <trkpt lat="47.43424" lon="6.6625">
        <ele>328</ele>
        <time>2015-04-26T09:17:37.000Z</time>
      </trkpt>
      <trkpt lat="47.43419" lon="6.66257">
        <ele>332</ele>
        <time>2015-04-26T09:17:38.000Z</time>
      </trkpt>
      <trkpt lat="47.43413" lon="6.66263">
        <ele>330</ele>
        <time>2015-04-26T09:17:39.000Z</time>
      </trkpt>
      <trkpt lat="47.43408" lon="6.66271">
        <ele>332</ele>
        <time>2015-04-26T09:17:40.000Z</time>
      </trkpt>
      <trkpt lat="47.43404" lon="6.66278">
        <ele>333</ele>
        <time>2015-04-26T09:17:41.000Z</time>
      </trkpt>
      <trkpt lat="47.43399" lon="6.66284">
        <ele>333</ele>
        <time>2015-04-26T09:17:42.000Z</time>
      </trkpt>
      <trkpt lat="47.43394" lon="6.6629">
        <ele>334</ele>
        <time>2015-04-26T09:17:43.000Z</time>
      </trkpt>
      <trkpt lat="47.4339" lon="6.66296">
        <ele>335</ele>
        <time>2015-04-26T09:17:44.000Z</time>
      </trkpt>
      <trkpt lat="47.43384" lon="6.66301">
        <ele>335</ele>
        <time>2015-04-26T09:17:45.000Z</time>
      </trkpt>
      <trkpt lat="47.43378" lon="6.66305">
        <ele>334</ele>
        <time>2015-04-26T09:17:46.000Z</time>
      </trkpt>
      <trkpt lat="47.43373" lon="6.66308">
        <ele>334</ele>
        <time>2015-04-26T09:17:47.000Z</time>
      </trkpt>
      <trkpt lat="47.43366" lon="6.66313">
        <ele>334</ele>
        <time>2015-04-26T09:17:48.000Z</time>
      </trkpt>
      <trkpt lat="47.43359" lon="6.66316">
        <ele>333</ele>
        <time>2015-04-26T09:17:49.000Z</time>
      </trkpt>
      <trkpt lat="47.43354" lon="6.6632">
        <ele>333</ele>
        <time>2015-04-26T09:17:50.000Z</time>
      </trkpt>
      <trkpt lat="47.43349" lon="6.66325">
        <ele>332</ele>
        <time>2015-04-26T09:17:50.999Z</time>
      </trkpt>
      <trkpt lat="47.43343" lon="6.66329">
        <ele>332</ele>
        <time>2015-04-26T09:17:52.000Z</time>
      </trkpt>
      <trkpt lat="47.43338" lon="6.66335">
        <ele>334</ele>
        <time>2015-04-26T09:17:53.001Z</time>
      </trkpt>
      <trkpt lat="47.43334" lon="6.66341">
        <ele>335</ele>
        <time>2015-04-26T09:17:54.000Z</time>
      </trkpt>
      <trkpt lat="47.43328" lon="6.66346">
        <ele>332</ele>
        <time>2015-04-26T09:17:55.000Z</time>
      </trkpt>
      <trkpt lat="47.43323" lon="6.66351">
        <ele>332</ele>
        <time>2015-04-26T09:17:56.000Z</time>
      </trkpt>
      <trkpt lat="47.43319" lon="6.66355">
        <ele>333</ele>
        <time>2015-04-26T09:17:57.000Z</time>
      </trkpt>
      <trkpt lat="47.43315" lon="6.6636">
        <ele>333</ele>
        <time>2015-04-26T09:17:58.000Z</time>
      </trkpt>
      <trkpt lat="47.43309" lon="6.66363">
        <ele>333</ele>
        <time>2015-04-26T09:17:59.000Z</time>
      </trkpt>
      <trkpt lat="47.43304" lon="6.66368">
        <ele>334</ele>
        <time>2015-04-26T09:18:00.000Z</time>
      </trkpt>
      <trkpt lat="47.43299" lon="6.66373">
        <ele>334</ele>
        <time>2015-04-26T09:18:01.000Z</time>
      </trkpt>
      <trkpt lat="47.43293" lon="6.66375">
        <ele>334</ele>
        <time>2015-04-26T09:18:02.000Z</time>
      </trkpt>
      <trkpt lat="47.43287" lon="6.66378">
        <ele>333</ele>
        <time>2015-04-26T09:18:03.000Z</time>
      </trkpt>
      <trkpt lat="47.43282" lon="6.66383">
        <ele>333</ele>
        <time>2015-04-26T09:18:04.000Z</time>
      </trkpt>
      <trkpt lat="47.43277" lon="6.66389">
        <ele>334</ele>
        <time>2015-04-26T09:18:05.000Z</time>
      </trkpt>
      <trkpt lat="47.43271" lon="6.66391">
        <ele>333</ele>
        <time>2015-04-26T09:18:06.000Z</time>
      </trkpt>
      <trkpt lat="47.43267" lon="6.66397">
        <ele>333</ele>
        <time>2015-04-26T09:18:07.000Z</time>
      </trkpt>
      <trkpt lat="47.43262" lon="6.66402">
        <ele>333</ele>
        <time>2015-04-26T09:18:08.000Z</time>
      </trkpt>
      <trkpt lat="47.43257" lon="6.66405">
        <ele>333</ele>
        <time>2015-04-26T09:18:09.000Z</time>
      </trkpt>
      <trkpt lat="47.43252" lon="6.66409">
        <ele>333</ele>
        <time>2015-04-26T09:18:10.000Z</time>
      </trkpt>
      <trkpt lat="47.43246" lon="6.66412">
        <ele>331</ele>
        <time>2015-04-26T09:18:11.000Z</time>
      </trkpt>
      <trkpt lat="47.43241" lon="6.66415">
        <ele>330</ele>
        <time>2015-04-26T09:18:12.000Z</time>
      </trkpt>
      <trkpt lat="47.43236" lon="6.66418">
        <ele>335</ele>
        <time>2015-04-26T09:18:13.000Z</time>
      </trkpt>
      <trkpt lat="47.43231" lon="6.6642">
        <ele>336</ele>
        <time>2015-04-26T09:18:14.000Z</time>
      </trkpt>
      <trkpt lat="47.43226" lon="6.66422">
        <ele>336</ele>
        <time>2015-04-26T09:18:15.000Z</time>
      </trkpt>
      <trkpt lat="47.43219" lon="6.66424">
        <ele>336</ele>
        <time>2015-04-26T09:18:16.000Z</time>
      </trkpt>
      <trkpt lat="47.43214" lon="6.66427">
        <ele>336</ele>
        <time>2015-04-26T09:18:17.000Z</time>
      </trkpt>
      <trkpt lat="47.43208" lon="6.6643">
        <ele>336</ele>
        <time>2015-04-26T09:18:18.000Z</time>
      </trkpt>
      <trkpt lat="47.43202" lon="6.66432">
        <ele>336</ele>
        <time>2015-04-26T09:18:19.000Z</time>
      </trkpt>
      <trkpt lat="47.43196" lon="6.66435">
        <ele>335</ele>
        <time>2015-04-26T09:18:20.000Z</time>
      </trkpt>
      <trkpt lat="47.4319" lon="6.66437">
        <ele>335</ele>
        <time>2015-04-26T09:18:21.000Z</time>
      </trkpt>
      <trkpt lat="47.43184" lon="6.6644">
        <ele>335</ele>
        <time>2015-04-26T09:18:22.000Z</time>
      </trkpt>
      <trkpt lat="47.43178" lon="6.66441">
        <ele>335</ele>
        <time>2015-04-26T09:18:23.000Z</time>
      </trkpt>
      <trkpt lat="47.43173" lon="6.66445">
        <ele>335</ele>
        <time>2015-04-26T09:18:24.000Z</time>
      </trkpt>
      <trkpt lat="47.43167" lon="6.66448">
        <ele>335</ele>
        <time>2015-04-26T09:18:25.000Z</time>
      </trkpt>
      <trkpt lat="47.43161" lon="6.66451">
        <ele>331</ele>
        <time>2015-04-26T09:18:26.000Z</time>
      </trkpt>
      <trkpt lat="47.43155" lon="6.66454">
        <ele>332</ele>
        <time>2015-04-26T09:18:27.000Z</time>
      </trkpt>
      <trkpt lat="47.43149" lon="6.66457">
        <ele>332</ele>
        <time>2015-04-26T09:18:28.000Z</time>
      </trkpt>
      <trkpt lat="47.43142" lon="6.66459">
        <ele>332</ele>
        <time>2015-04-26T09:18:29.000Z</time>
      </trkpt>
      <trkpt lat="47.43136" lon="6.66461">
        <ele>332</ele>
        <time>2015-04-26T09:18:30.000Z</time>
      </trkpt>
      <trkpt lat="47.4313" lon="6.66463">
        <ele>332</ele>
        <time>2015-04-26T09:18:31.000Z</time>
      </trkpt>
      <trkpt lat="47.43124" lon="6.66466">
        <ele>332</ele>
        <time>2015-04-26T09:18:32.000Z</time>
      </trkpt>
      <trkpt lat="47.43118" lon="6.66469">
        <ele>333</ele>
        <time>2015-04-26T09:18:33.000Z</time>
      </trkpt>
      <trkpt lat="47.43112" lon="6.66472">
        <ele>333</ele>
        <time>2015-04-26T09:18:34.000Z</time>
      </trkpt>
      <trkpt lat="47.43106" lon="6.66474">
        <ele>333</ele>
        <time>2015-04-26T09:18:35.000Z</time>
      </trkpt>
      <trkpt lat="47.431" lon="6.66477">
        <ele>333</ele>
        <time>2015-04-26T09:18:36.000Z</time>
      </trkpt>
      <trkpt lat="47.43095" lon="6.66479">
        <ele>334</ele>
        <time>2015-04-26T09:18:37.000Z</time>
      </trkpt>
      <trkpt lat="47.4309" lon="6.66481">
        <ele>334</ele>
        <time>2015-04-26T09:18:38.000Z</time>
      </trkpt>
      <trkpt lat="47.43085" lon="6.66483">
        <ele>334</ele>
        <time>2015-04-26T09:18:39.000Z</time>
      </trkpt>
      <trkpt lat="47.43081" lon="6.66483">
        <ele>333</ele>
        <time>2015-04-26T09:18:40.000Z</time>
      </trkpt>
      <trkpt lat="47.43076" lon="6.66485">
        <ele>333</ele>
        <time>2015-04-26T09:18:41.000Z</time>
      </trkpt>
      <trkpt lat="47.43072" lon="6.66486">
        <ele>333</ele>
        <time>2015-04-26T09:18:42.000Z</time>
      </trkpt>
      <trkpt lat="47.43067" lon="6.66488">
        <ele>333</ele>
        <time>2015-04-26T09:18:43.000Z</time>
      </trkpt>
      <trkpt lat="47.43062" lon="6.6649">
        <ele>333</ele>
        <time>2015-04-26T09:18:44.000Z</time>
      </trkpt>
      <trkpt lat="47.43057" lon="6.66492">
        <ele>332</ele>
        <time>2015-04-26T09:18:45.000Z</time>
      </trkpt>
      <trkpt lat="47.43052" lon="6.66494">
        <ele>332</ele>
        <time>2015-04-26T09:18:46.000Z</time>
      </trkpt>
      <trkpt lat="47.43048" lon="6.66495">
        <ele>332</ele>
        <time>2015-04-26T09:18:47.000Z</time>
      </trkpt>
      <trkpt lat="47.43043" lon="6.66495">
        <ele>332</ele>
        <time>2015-04-26T09:18:48.000Z</time>
      </trkpt>
      <trkpt lat="47.43039" lon="6.66497">
        <ele>332</ele>
        <time>2015-04-26T09:18:49.000Z</time>
      </trkpt>
      <trkpt lat="47.4303" lon="6.66496">
        <ele>332</ele>
        <time>2015-04-26T09:18:50.000Z</time>
      </trkpt>
      <trkpt lat="47.43024" lon="6.66496">
        <ele>332</ele>
        <time>2015-04-26T09:18:51.000Z</time>
      </trkpt>
      <trkpt lat="47.43019" lon="6.66496">
        <ele>333</ele>
        <time>2015-04-26T09:18:52.000Z</time>
      </trkpt>
      <trkpt lat="47.43014" lon="6.66499">
        <ele>333</ele>
        <time>2015-04-26T09:18:53.000Z</time>
      </trkpt>
      <trkpt lat="47.43009" lon="6.66503">
        <ele>338</ele>
        <time>2015-04-26T09:18:54.000Z</time>
      </trkpt>
      <trkpt lat="47.43004" lon="6.66506">
        <ele>338</ele>
        <time>2015-04-26T09:18:55.000Z</time>
      </trkpt>
      <trkpt lat="47.43" lon="6.66509">
        <ele>336</ele>
        <time>2015-04-26T09:18:56.000Z</time>
      </trkpt>
      <trkpt lat="47.42994" lon="6.66513">
        <ele>337</ele>
        <time>2015-04-26T09:18:57.000Z</time>
      </trkpt>
      <trkpt lat="47.4299" lon="6.66515">
        <ele>337</ele>
        <time>2015-04-26T09:18:58.000Z</time>
      </trkpt>
      <trkpt lat="47.42985" lon="6.66517">
        <ele>338</ele>
        <time>2015-04-26T09:18:59.000Z</time>
      </trkpt>
      <trkpt lat="47.4298" lon="6.6652">
        <ele>338</ele>
        <time>2015-04-26T09:19:00.000Z</time>
      </trkpt>
      <trkpt lat="47.42973" lon="6.66522">
        <ele>338</ele>
        <time>2015-04-26T09:19:01.000Z</time>
      </trkpt>
      <trkpt lat="47.42967" lon="6.66525">
        <ele>338</ele>
        <time>2015-04-26T09:19:02.000Z</time>
      </trkpt>
      <trkpt lat="47.42961" lon="6.66527">
        <ele>338</ele>
        <time>2015-04-26T09:19:03.000Z</time>
      </trkpt>
      <trkpt lat="47.42953" lon="6.6653">
        <ele>337</ele>
        <time>2015-04-26T09:19:04.000Z</time>
      </trkpt>
      <trkpt lat="47.42947" lon="6.66535">
        <ele>338</ele>
        <time>2015-04-26T09:19:05.000Z</time>
      </trkpt>
      <trkpt lat="47.4294" lon="6.66537">
        <ele>337</ele>
        <time>2015-04-26T09:19:06.000Z</time>
      </trkpt>
      <trkpt lat="47.42932" lon="6.6654">
        <ele>337</ele>
        <time>2015-04-26T09:19:07.000Z</time>
      </trkpt>
      <trkpt lat="47.42925" lon="6.66542">
        <ele>337</ele>
        <time>2015-04-26T09:19:08.000Z</time>
      </trkpt>
      <trkpt lat="47.42918" lon="6.66546">
        <ele>338</ele>
        <time>2015-04-26T09:19:09.000Z</time>
      </trkpt>
      <trkpt lat="47.42911" lon="6.66549">
        <ele>333</ele>
        <time>2015-04-26T09:19:10.000Z</time>
      </trkpt>
      <trkpt lat="47.42904" lon="6.66555">
        <ele>333</ele>
        <time>2015-04-26T09:19:11.000Z</time>
      </trkpt>
      <trkpt lat="47.42897" lon="6.66559">
        <ele>333</ele>
        <time>2015-04-26T09:19:12.000Z</time>
      </trkpt>
      <trkpt lat="47.4289" lon="6.66562">
        <ele>333</ele>
        <time>2015-04-26T09:19:13.000Z</time>
      </trkpt>
      <trkpt lat="47.42882" lon="6.66566">
        <ele>332</ele>
        <time>2015-04-26T09:19:14.000Z</time>
      </trkpt>
      <trkpt lat="47.42874" lon="6.6657">
        <ele>332</ele>
        <time>2015-04-26T09:19:15.000Z</time>
      </trkpt>
      <trkpt lat="47.42867" lon="6.66573">
        <ele>331</ele>
        <time>2015-04-26T09:19:16.000Z</time>
      </trkpt>
      <trkpt lat="47.42858" lon="6.66576">
        <ele>330</ele>
        <time>2015-04-26T09:19:17.000Z</time>
      </trkpt>
      <trkpt lat="47.4285" lon="6.66579">
        <ele>330</ele>
        <time>2015-04-26T09:19:18.000Z</time>
      </trkpt>
      <trkpt lat="47.42843" lon="6.66584">
        <ele>333</ele>
        <time>2015-04-26T09:19:19.000Z</time>
      </trkpt>
      <trkpt lat="47.42835" lon="6.66588">
        <ele>331</ele>
        <time>2015-04-26T09:19:20.000Z</time>
      </trkpt>
      <trkpt lat="47.42828" lon="6.66594">
        <ele>329</ele>
        <time>2015-04-26T09:19:21.000Z</time>
      </trkpt>
      <trkpt lat="47.4282" lon="6.66601">
        <ele>330</ele>
        <time>2015-04-26T09:19:22.000Z</time>
      </trkpt>
      <trkpt lat="47.42812" lon="6.66608">
        <ele>331</ele>
        <time>2015-04-26T09:19:23.000Z</time>
      </trkpt>
      <trkpt lat="47.42806" lon="6.66617">
        <ele>331</ele>
        <time>2015-04-26T09:19:24.000Z</time>
      </trkpt>
      <trkpt lat="47.42799" lon="6.66625">
        <ele>331</ele>
        <time>2015-04-26T09:19:25.000Z</time>
      </trkpt>
      <trkpt lat="47.42792" lon="6.66634">
        <ele>332</ele>
        <time>2015-04-26T09:19:26.000Z</time>
      </trkpt>
      <trkpt lat="47.42786" lon="6.66642">
        <ele>331</ele>
        <time>2015-04-26T09:19:27.000Z</time>
      </trkpt>
      <trkpt lat="47.4278" lon="6.66651">
        <ele>331</ele>
        <time>2015-04-26T09:19:28.000Z</time>
      </trkpt>
      <trkpt lat="47.42775" lon="6.6666">
        <ele>331</ele>
        <time>2015-04-26T09:19:29.000Z</time>
      </trkpt>
      <trkpt lat="47.4277" lon="6.66669">
        <ele>337</ele>
        <time>2015-04-26T09:19:30.000Z</time>
      </trkpt>
      <trkpt lat="47.42765" lon="6.66677">
        <ele>337</ele>
        <time>2015-04-26T09:19:31.000Z</time>
      </trkpt>
      <trkpt lat="47.42761" lon="6.66686">
        <ele>337</ele>
        <time>2015-04-26T09:19:32.000Z</time>
      </trkpt>
      <trkpt lat="47.42757" lon="6.66693">
        <ele>339</ele>
        <time>2015-04-26T09:19:33.000Z</time>
      </trkpt>
      <trkpt lat="47.42755" lon="6.66699">
        <ele>339</ele>
        <time>2015-04-26T09:19:34.000Z</time>
      </trkpt>
      <trkpt lat="47.42752" lon="6.66703">
        <ele>340</ele>
        <time>2015-04-26T09:19:36.000Z</time>
      </trkpt>
      <trkpt lat="47.42751" lon="6.66703">
        <ele>340</ele>
        <time>2015-04-26T09:19:37.000Z</time>
      </trkpt>
      <trkpt lat="47.42749" lon="6.667">
        <ele>332</ele>
        <time>2015-04-26T09:19:40.000Z</time>
      </trkpt>
      <trkpt lat="47.42748" lon="6.66698">
        <ele>332</ele>
        <time>2015-04-26T09:19:41.000Z</time>
      </trkpt>
      <trkpt lat="47.42745" lon="6.66693">
        <ele>331</ele>
        <time>2015-04-26T09:19:43.000Z</time>
      </trkpt>
      <trkpt lat="47.42744" lon="6.6669">
        <ele>331</ele>
        <time>2015-04-26T09:19:44.000Z</time>
      </trkpt>
      <trkpt lat="47.42742" lon="6.66687">
        <ele>331</ele>
        <time>2015-04-26T09:19:45.000Z</time>
      </trkpt>
      <trkpt lat="47.4274" lon="6.66684">
        <ele>331</ele>
        <time>2015-04-26T09:19:46.000Z</time>
      </trkpt>
      <trkpt lat="47.42736" lon="6.66683">
        <ele>331</ele>
        <time>2015-04-26T09:19:48.000Z</time>
      </trkpt>
      <trkpt lat="47.42736" lon="6.66683">
        <ele>331</ele>
        <time>2015-04-26T09:19:49.000Z</time>
      </trkpt>
      <trkpt lat="47.42738" lon="6.66678">
        <ele>330</ele>
        <time>2015-04-26T09:19:55.000Z</time>
      </trkpt>
      <trkpt lat="47.42738" lon="6.66678">
        <ele>330</ele>
        <time>2015-04-26T09:19:56.000Z</time>
      </trkpt>
      <trkpt lat="47.42735" lon="6.66673">
        <ele>330</ele>
        <time>2015-04-26T09:19:58.000Z</time>
      </trkpt>
      <trkpt lat="47.42733" lon="6.66669">
        <ele>330</ele>
        <time>2015-04-26T09:19:59.000Z</time>
      </trkpt>
      <trkpt lat="47.42729" lon="6.66665">
        <ele>328</ele>
        <time>2015-04-26T09:20:00.000Z</time>
      </trkpt>
      <trkpt lat="47.42725" lon="6.66661">
        <ele>328</ele>
        <time>2015-04-26T09:20:01.000Z</time>
      </trkpt>
      <trkpt lat="47.42721" lon="6.66657">
        <ele>328</ele>
        <time>2015-04-26T09:20:02.000Z</time>
      </trkpt>
      <trkpt lat="47.42717" lon="6.66653">
        <ele>328</ele>
        <time>2015-04-26T09:20:03.000Z</time>
      </trkpt>
      <trkpt lat="47.42713" lon="6.6665">
        <ele>328</ele>
        <time>2015-04-26T09:20:04.000Z</time>
      </trkpt>
      <trkpt lat="47.42709" lon="6.66647">
        <ele>327</ele>
        <time>2015-04-26T09:20:05.000Z</time>
      </trkpt>
      <trkpt lat="47.42705" lon="6.66645">
        <ele>327</ele>
        <time>2015-04-26T09:20:06.000Z</time>
      </trkpt>
      <trkpt lat="47.42701" lon="6.66643">
        <ele>327</ele>
        <time>2015-04-26T09:20:07.000Z</time>
      </trkpt>
      <trkpt lat="47.42695" lon="6.66643">
        <ele>327</ele>
        <time>2015-04-26T09:20:08.000Z</time>
      </trkpt>
      <trkpt lat="47.42691" lon="6.66644">
        <ele>327</ele>
        <time>2015-04-26T09:20:09.001Z</time>
      </trkpt>
      <trkpt lat="47.42687" lon="6.66646">
        <ele>327</ele>
        <time>2015-04-26T09:20:10.000Z</time>
      </trkpt>
      <trkpt lat="47.42682" lon="6.66648">
        <ele>327</ele>
        <time>2015-04-26T09:20:11.000Z</time>
      </trkpt>
      <trkpt lat="47.42678" lon="6.6665">
        <ele>327</ele>
        <time>2015-04-26T09:20:12.000Z</time>
      </trkpt>
      <trkpt lat="47.42671" lon="6.66652">
        <ele>327</ele>
        <time>2015-04-26T09:20:13.000Z</time>
      </trkpt>
      <trkpt lat="47.42667" lon="6.66654">
        <ele>327</ele>
        <time>2015-04-26T09:20:14.000Z</time>
      </trkpt>
      <trkpt lat="47.42663" lon="6.66657">
        <ele>329</ele>
        <time>2015-04-26T09:20:15.000Z</time>
      </trkpt>
      <trkpt lat="47.4266" lon="6.6666">
        <ele>329</ele>
        <time>2015-04-26T09:20:16.000Z</time>
      </trkpt>
      <trkpt lat="47.42657" lon="6.66661">
        <ele>330</ele>
        <time>2015-04-26T09:20:17.000Z</time>
      </trkpt>
      <trkpt lat="47.42655" lon="6.66663">
        <ele>330</ele>
        <time>2015-04-26T09:20:18.000Z</time>
      </trkpt>
      <trkpt lat="47.42652" lon="6.66666">
        <ele>330</ele>
        <time>2015-04-26T09:20:19.000Z</time>
      </trkpt>
      <trkpt lat="47.42651" lon="6.6667">
        <ele>330</ele>
        <time>2015-04-26T09:20:20.000Z</time>
      </trkpt>
      <trkpt lat="47.42649" lon="6.66674">
        <ele>330</ele>
        <time>2015-04-26T09:20:21.000Z</time>
      </trkpt>
      <trkpt lat="47.42648" lon="6.66677">
        <ele>331</ele>
        <time>2015-04-26T09:20:22.000Z</time>
      </trkpt>
      <trkpt lat="47.42647" lon="6.66681">
        <ele>331</ele>
        <time>2015-04-26T09:20:23.000Z</time>
      </trkpt>
      <trkpt lat="47.42646" lon="6.66685">
        <ele>331</ele>
        <time>2015-04-26T09:20:24.000Z</time>
      </trkpt>
      <trkpt lat="47.42645" lon="6.66688">
        <ele>331</ele>
        <time>2015-04-26T09:20:25.000Z</time>
      </trkpt>
      <trkpt lat="47.42645" lon="6.66693">
        <ele>332</ele>
        <time>2015-04-26T09:20:27.000Z</time>
      </trkpt>
      <trkpt lat="47.42644" lon="6.66695">
        <ele>332</ele>
        <time>2015-04-26T09:20:28.000Z</time>
      </trkpt>
      <trkpt lat="47.42644" lon="6.667">
        <ele>332</ele>
        <time>2015-04-26T09:20:30.000Z</time>
      </trkpt>
      <trkpt lat="47.42644" lon="6.66703">
        <ele>332</ele>
        <time>2015-04-26T09:20:31.000Z</time>
      </trkpt>
      <trkpt lat="47.42646" lon="6.66706">
        <ele>332</ele>
        <time>2015-04-26T09:20:44.000Z</time>
      </trkpt>
      <trkpt lat="47.42647" lon="6.66709">
        <ele>332</ele>
        <time>2015-04-26T09:20:45.000Z</time>
      </trkpt>
      <trkpt lat="47.42648" lon="6.66712">
        <ele>332</ele>
        <time>2015-04-26T09:20:46.000Z</time>
      </trkpt>
      <trkpt lat="47.42649" lon="6.66717">
        <ele>332</ele>
        <time>2015-04-26T09:20:47.000Z</time>
      </trkpt>
      <trkpt lat="47.42649" lon="6.66729">
        <ele>332</ele>
        <time>2015-04-26T09:20:48.000Z</time>
      </trkpt>
      <trkpt lat="47.42651" lon="6.66737">
        <ele>331</ele>
        <time>2015-04-26T09:20:49.000Z</time>
      </trkpt>
      <trkpt lat="47.42652" lon="6.66744">
        <ele>331</ele>
        <time>2015-04-26T09:20:50.000Z</time>
      </trkpt>
      <trkpt lat="47.42651" lon="6.66753">
        <ele>332</ele>
        <time>2015-04-26T09:20:51.000Z</time>
      </trkpt>
      <trkpt lat="47.42648" lon="6.66763">
        <ele>333</ele>
        <time>2015-04-26T09:20:52.000Z</time>
      </trkpt>
      <trkpt lat="47.42645" lon="6.66769">
        <ele>333</ele>
        <time>2015-04-26T09:20:53.000Z</time>
      </trkpt>
      <trkpt lat="47.42643" lon="6.66775">
        <ele>334</ele>
        <time>2015-04-26T09:20:54.000Z</time>
      </trkpt>
      <trkpt lat="47.42642" lon="6.6678">
        <ele>334</ele>
        <time>2015-04-26T09:20:55.000Z</time>
      </trkpt>
      <trkpt lat="47.4264" lon="6.66785">
        <ele>334</ele>
        <time>2015-04-26T09:20:56.000Z</time>
      </trkpt>
      <trkpt lat="47.42638" lon="6.6679">
        <ele>334</ele>
        <time>2015-04-26T09:20:57.000Z</time>
      </trkpt>
      <trkpt lat="47.42637" lon="6.66796">
        <ele>334</ele>
        <time>2015-04-26T09:20:58.000Z</time>
      </trkpt>
      <trkpt lat="47.42634" lon="6.668">
        <ele>335</ele>
        <time>2015-04-26T09:20:59.000Z</time>
      </trkpt>
      <trkpt lat="47.42631" lon="6.66804">
        <ele>335</ele>
        <time>2015-04-26T09:21:00.000Z</time>
      </trkpt>
      <trkpt lat="47.42629" lon="6.66811">
        <ele>335</ele>
        <time>2015-04-26T09:21:01.000Z</time>
      </trkpt>
      <trkpt lat="47.42627" lon="6.66817">
        <ele>335</ele>
        <time>2015-04-26T09:21:02.001Z</time>
      </trkpt>
      <trkpt lat="47.42621" lon="6.66823">
        <ele>336</ele>
        <time>2015-04-26T09:21:03.000Z</time>
      </trkpt>
      <trkpt lat="47.42618" lon="6.6683">
        <ele>336</ele>
        <time>2015-04-26T09:21:04.000Z</time>
      </trkpt>
      <trkpt lat="47.42614" lon="6.66837">
        <ele>337</ele>
        <time>2015-04-26T09:21:05.000Z</time>
      </trkpt>
      <trkpt lat="47.42611" lon="6.66841">
        <ele>337</ele>
        <time>2015-04-26T09:21:06.000Z</time>
      </trkpt>
      <trkpt lat="47.42608" lon="6.66848">
        <ele>337</ele>
        <time>2015-04-26T09:21:07.000Z</time>
      </trkpt>
      <trkpt lat="47.42603" lon="6.66853">
        <ele>337</ele>
        <time>2015-04-26T09:21:08.000Z</time>
      </trkpt>
      <trkpt lat="47.42602" lon="6.6686">
        <ele>337</ele>
        <time>2015-04-26T09:21:09.000Z</time>
      </trkpt>
      <trkpt lat="47.42599" lon="6.66866">
        <ele>337</ele>
        <time>2015-04-26T09:21:09.999Z</time>
      </trkpt>
      <trkpt lat="47.42594" lon="6.66873">
        <ele>337</ele>
        <time>2015-04-26T09:21:11.000Z</time>
      </trkpt>
      <trkpt lat="47.4259" lon="6.66879">
        <ele>336</ele>
        <time>2015-04-26T09:21:12.000Z</time>
      </trkpt>
      <trkpt lat="47.42587" lon="6.66885">
        <ele>336</ele>
        <time>2015-04-26T09:21:13.000Z</time>
      </trkpt>
      <trkpt lat="47.42584" lon="6.6689">
        <ele>336</ele>
        <time>2015-04-26T09:21:14.000Z</time>
      </trkpt>
      <trkpt lat="47.42581" lon="6.66895">
        <ele>344</ele>
        <time>2015-04-26T09:21:15.000Z</time>
      </trkpt>
      <trkpt lat="47.4258" lon="6.66904">
        <ele>342</ele>
        <time>2015-04-26T09:21:16.000Z</time>
      </trkpt>
      <trkpt lat="47.42577" lon="6.66912">
        <ele>341</ele>
        <time>2015-04-26T09:21:17.000Z</time>
      </trkpt>
      <trkpt lat="47.42574" lon="6.66919">
        <ele>339</ele>
        <time>2015-04-26T09:21:18.000Z</time>
      </trkpt>
      <trkpt lat="47.42571" lon="6.66925">
        <ele>340</ele>
        <time>2015-04-26T09:21:19.000Z</time>
      </trkpt>
      <trkpt lat="47.42568" lon="6.66933">
        <ele>341</ele>
        <time>2015-04-26T09:21:20.000Z</time>
      </trkpt>
      <trkpt lat="47.42565" lon="6.6694">
        <ele>342</ele>
        <time>2015-04-26T09:21:21.000Z</time>
      </trkpt>
      <trkpt lat="47.42561" lon="6.66946">
        <ele>342</ele>
        <time>2015-04-26T09:21:22.000Z</time>
      </trkpt>
      <trkpt lat="47.42557" lon="6.66952">
        <ele>343</ele>
        <time>2015-04-26T09:21:23.000Z</time>
      </trkpt>
      <trkpt lat="47.42555" lon="6.66958">
        <ele>343</ele>
        <time>2015-04-26T09:21:24.000Z</time>
      </trkpt>
      <trkpt lat="47.42553" lon="6.66964">
        <ele>343</ele>
        <time>2015-04-26T09:21:25.000Z</time>
      </trkpt>
      <trkpt lat="47.42548" lon="6.66968">
        <ele>343</ele>
        <time>2015-04-26T09:21:26.000Z</time>
      </trkpt>
      <trkpt lat="47.42545" lon="6.66973">
        <ele>343</ele>
        <time>2015-04-26T09:21:27.000Z</time>
      </trkpt>
      <trkpt lat="47.42542" lon="6.66977">
        <ele>343</ele>
        <time>2015-04-26T09:21:28.000Z</time>
      </trkpt>
      <trkpt lat="47.42539" lon="6.66979">
        <ele>344</ele>
        <time>2015-04-26T09:21:29.000Z</time>
      </trkpt>
      <trkpt lat="47.42537" lon="6.66982">
        <ele>344</ele>
        <time>2015-04-26T09:21:30.000Z</time>
      </trkpt>
      <trkpt lat="47.42532" lon="6.66985">
        <ele>344</ele>
        <time>2015-04-26T09:21:31.000Z</time>
      </trkpt>
      <trkpt lat="47.42529" lon="6.66989">
        <ele>345</ele>
        <time>2015-04-26T09:21:32.000Z</time>
      </trkpt>
      <trkpt lat="47.42526" lon="6.66993">
        <ele>345</ele>
        <time>2015-04-26T09:21:33.000Z</time>
      </trkpt>
      <trkpt lat="47.42522" lon="6.66997">
        <ele>346</ele>
        <time>2015-04-26T09:21:34.000Z</time>
      </trkpt>
      <trkpt lat="47.42519" lon="6.67001">
        <ele>342</ele>
        <time>2015-04-26T09:21:35.000Z</time>
      </trkpt>
      <trkpt lat="47.42516" lon="6.67006">
        <ele>343</ele>
        <time>2015-04-26T09:21:36.000Z</time>
      </trkpt>
      <trkpt lat="47.42512" lon="6.6701">
        <ele>343</ele>
        <time>2015-04-26T09:21:37.000Z</time>
      </trkpt>
      <trkpt lat="47.42509" lon="6.67013">
        <ele>343</ele>
        <time>2015-04-26T09:21:38.000Z</time>
      </trkpt>
      <trkpt lat="47.42506" lon="6.67018">
        <ele>342</ele>
        <time>2015-04-26T09:21:39.000Z</time>
      </trkpt>
      <trkpt lat="47.42505" lon="6.67023">
        <ele>341</ele>
        <time>2015-04-26T09:21:40.000Z</time>
      </trkpt>
      <trkpt lat="47.42502" lon="6.67027">
        <ele>341</ele>
        <time>2015-04-26T09:21:41.000Z</time>
      </trkpt>
      <trkpt lat="47.425" lon="6.67031">
        <ele>354</ele>
        <time>2015-04-26T09:21:42.000Z</time>
      </trkpt>
      <trkpt lat="47.42498" lon="6.67036">
        <ele>354</ele>
        <time>2015-04-26T09:21:43.000Z</time>
      </trkpt>
      <trkpt lat="47.42495" lon="6.6704">
        <ele>354</ele>
        <time>2015-04-26T09:21:44.000Z</time>
      </trkpt>
      <trkpt lat="47.42492" lon="6.67044">
        <ele>354</ele>
        <time>2015-04-26T09:21:45.000Z</time>
      </trkpt>
      <trkpt lat="47.42489" lon="6.67048">
        <ele>353</ele>
        <time>2015-04-26T09:21:46.000Z</time>
      </trkpt>
      <trkpt lat="47.42486" lon="6.67052">
        <ele>353</ele>
        <time>2015-04-26T09:21:47.000Z</time>
      </trkpt>
      <trkpt lat="47.42483" lon="6.67056">
        <ele>353</ele>
        <time>2015-04-26T09:21:48.000Z</time>
      </trkpt>
      <trkpt lat="47.42481" lon="6.67062">
        <ele>352</ele>
        <time>2015-04-26T09:21:49.000Z</time>
      </trkpt>
      <trkpt lat="47.42478" lon="6.67067">
        <ele>352</ele>
        <time>2015-04-26T09:21:50.000Z</time>
      </trkpt>
      <trkpt lat="47.42475" lon="6.67072">
        <ele>352</ele>
        <time>2015-04-26T09:21:51.000Z</time>
      </trkpt>
      <trkpt lat="47.42473" lon="6.67077">
        <ele>353</ele>
        <time>2015-04-26T09:21:52.000Z</time>
      </trkpt>
      <trkpt lat="47.4247" lon="6.67082">
        <ele>353</ele>
        <time>2015-04-26T09:21:53.000Z</time>
      </trkpt>
      <trkpt lat="47.42468" lon="6.67086">
        <ele>347</ele>
        <time>2015-04-26T09:21:54.000Z</time>
      </trkpt>
      <trkpt lat="47.42465" lon="6.67091">
        <ele>348</ele>
        <time>2015-04-26T09:21:55.000Z</time>
      </trkpt>
      <trkpt lat="47.42462" lon="6.67095">
        <ele>349</ele>
        <time>2015-04-26T09:21:56.000Z</time>
      </trkpt>
      <trkpt lat="47.4246" lon="6.67099">
        <ele>349</ele>
        <time>2015-04-26T09:21:57.000Z</time>
      </trkpt>
      <trkpt lat="47.42458" lon="6.67104">
        <ele>349</ele>
        <time>2015-04-26T09:21:58.000Z</time>
      </trkpt>
      <trkpt lat="47.42457" lon="6.67109">
        <ele>349</ele>
        <time>2015-04-26T09:21:59.000Z</time>
      </trkpt>
      <trkpt lat="47.42455" lon="6.67114">
        <ele>349</ele>
        <time>2015-04-26T09:22:00.000Z</time>
      </trkpt>
      <trkpt lat="47.42453" lon="6.67118">
        <ele>349</ele>
        <time>2015-04-26T09:22:01.000Z</time>
      </trkpt>
      <trkpt lat="47.42452" lon="6.67121">
        <ele>349</ele>
        <time>2015-04-26T09:22:02.000Z</time>
      </trkpt>
      <trkpt lat="47.4245" lon="6.67124">
        <ele>349</ele>
        <time>2015-04-26T09:22:03.000Z</time>
      </trkpt>
      <trkpt lat="47.42447" lon="6.67128">
        <ele>350</ele>
        <time>2015-04-26T09:22:05.000Z</time>
      </trkpt>
      <trkpt lat="47.42446" lon="6.6713">
        <ele>350</ele>
        <time>2015-04-26T09:22:06.000Z</time>
      </trkpt>
      <trkpt lat="47.42444" lon="6.67134">
        <ele>350</ele>
        <time>2015-04-26T09:22:07.000Z</time>
      </trkpt>
      <trkpt lat="47.42441" lon="6.67139">
        <ele>350</ele>
        <time>2015-04-26T09:22:08.000Z</time>
      </trkpt>
      <trkpt lat="47.42439" lon="6.67144">
        <ele>350</ele>
        <time>2015-04-26T09:22:09.000Z</time>
      </trkpt>
      <trkpt lat="47.42437" lon="6.6715">
        <ele>350</ele>
        <time>2015-04-26T09:22:10.000Z</time>
      </trkpt>
      <trkpt lat="47.42434" lon="6.67155">
        <ele>350</ele>
        <time>2015-04-26T09:22:11.000Z</time>
      </trkpt>
      <trkpt lat="47.42432" lon="6.6716">
        <ele>350</ele>
        <time>2015-04-26T09:22:12.000Z</time>
      </trkpt>
      <trkpt lat="47.4243" lon="6.67164">
        <ele>351</ele>
        <time>2015-04-26T09:22:13.000Z</time>
      </trkpt>
      <trkpt lat="47.42429" lon="6.67168">
        <ele>348</ele>
        <time>2015-04-26T09:22:14.000Z</time>
      </trkpt>
      <trkpt lat="47.42427" lon="6.67172">
        <ele>348</ele>
        <time>2015-04-26T09:22:15.000Z</time>
      </trkpt>
      <trkpt lat="47.42425" lon="6.67176">
        <ele>347</ele>
        <time>2015-04-26T09:22:16.000Z</time>
      </trkpt>
      <trkpt lat="47.42424" lon="6.67181">
        <ele>346</ele>
        <time>2015-04-26T09:22:17.000Z</time>
      </trkpt>
      <trkpt lat="47.42423" lon="6.67186">
        <ele>345</ele>
        <time>2015-04-26T09:22:18.000Z</time>
      </trkpt>
      <trkpt lat="47.42421" lon="6.67191">
        <ele>345</ele>
        <time>2015-04-26T09:22:19.000Z</time>
      </trkpt>
      <trkpt lat="47.4242" lon="6.67197">
        <ele>344</ele>
        <time>2015-04-26T09:22:20.000Z</time>
      </trkpt>
      <trkpt lat="47.42417" lon="6.67203">
        <ele>343</ele>
        <time>2015-04-26T09:22:21.000Z</time>
      </trkpt>
      <trkpt lat="47.42414" lon="6.67209">
        <ele>357</ele>
        <time>2015-04-26T09:22:22.000Z</time>
      </trkpt>
      <trkpt lat="47.42408" lon="6.67225">
        <ele>355</ele>
        <time>2015-04-26T09:22:23.000Z</time>
      </trkpt>
      <trkpt lat="47.42406" lon="6.67229">
        <ele>355</ele>
        <time>2015-04-26T09:22:24.000Z</time>
      </trkpt>
      <trkpt lat="47.42405" lon="6.67234">
        <ele>354</ele>
        <time>2015-04-26T09:22:25.000Z</time>
      </trkpt>
      <trkpt lat="47.42403" lon="6.67238">
        <ele>353</ele>
        <time>2015-04-26T09:22:26.000Z</time>
      </trkpt>
      <trkpt lat="47.42401" lon="6.67241">
        <ele>353</ele>
        <time>2015-04-26T09:22:27.000Z</time>
      </trkpt>
      <trkpt lat="47.424" lon="6.67245">
        <ele>353</ele>
        <time>2015-04-26T09:22:28.000Z</time>
      </trkpt>
      <trkpt lat="47.424" lon="6.67249">
        <ele>353</ele>
        <time>2015-04-26T09:22:29.000Z</time>
      </trkpt>
      <trkpt lat="47.42398" lon="6.67253">
        <ele>348</ele>
        <time>2015-04-26T09:22:30.000Z</time>
      </trkpt>
      <trkpt lat="47.42396" lon="6.67261">
        <ele>349</ele>
        <time>2015-04-26T09:22:31.000Z</time>
      </trkpt>
      <trkpt lat="47.42394" lon="6.67265">
        <ele>350</ele>
        <time>2015-04-26T09:22:32.000Z</time>
      </trkpt>
      <trkpt lat="47.42392" lon="6.67269">
        <ele>350</ele>
        <time>2015-04-26T09:22:33.000Z</time>
      </trkpt>
      <trkpt lat="47.4239" lon="6.67272">
        <ele>351</ele>
        <time>2015-04-26T09:22:34.000Z</time>
      </trkpt>
      <trkpt lat="47.42388" lon="6.67276">
        <ele>351</ele>
        <time>2015-04-26T09:22:35.000Z</time>
      </trkpt>
      <trkpt lat="47.42387" lon="6.6728">
        <ele>351</ele>
        <time>2015-04-26T09:22:36.000Z</time>
      </trkpt>
      <trkpt lat="47.42385" lon="6.67285">
        <ele>351</ele>
        <time>2015-04-26T09:22:37.000Z</time>
      </trkpt>
      <trkpt lat="47.42384" lon="6.67291">
        <ele>351</ele>
        <time>2015-04-26T09:22:38.000Z</time>
      </trkpt>
      <trkpt lat="47.42382" lon="6.67297">
        <ele>351</ele>
        <time>2015-04-26T09:22:39.000Z</time>
      </trkpt>
      <trkpt lat="47.42379" lon="6.67303">
        <ele>351</ele>
        <time>2015-04-26T09:22:40.000Z</time>
      </trkpt>
      <trkpt lat="47.42377" lon="6.67309">
        <ele>351</ele>
        <time>2015-04-26T09:22:41.000Z</time>
      </trkpt>
      <trkpt lat="47.42374" lon="6.67314">
        <ele>351</ele>
        <time>2015-04-26T09:22:42.000Z</time>
      </trkpt>
      <trkpt lat="47.42372" lon="6.67319">
        <ele>351</ele>
        <time>2015-04-26T09:22:43.000Z</time>
      </trkpt>
      <trkpt lat="47.4237" lon="6.67324">
        <ele>352</ele>
        <time>2015-04-26T09:22:44.000Z</time>
      </trkpt>
      <trkpt lat="47.42369" lon="6.67328">
        <ele>352</ele>
        <time>2015-04-26T09:22:45.000Z</time>
      </trkpt>
      <trkpt lat="47.42367" lon="6.67331">
        <ele>352</ele>
        <time>2015-04-26T09:22:46.000Z</time>
      </trkpt>
      <trkpt lat="47.42366" lon="6.67335">
        <ele>346</ele>
        <time>2015-04-26T09:22:47.000Z</time>
      </trkpt>
      <trkpt lat="47.42365" lon="6.67338">
        <ele>347</ele>
        <time>2015-04-26T09:22:48.000Z</time>
      </trkpt>
      <trkpt lat="47.42364" lon="6.67342">
        <ele>347</ele>
        <time>2015-04-26T09:22:49.000Z</time>
      </trkpt>
      <trkpt lat="47.42361" lon="6.67347">
        <ele>347</ele>
        <time>2015-04-26T09:22:51.000Z</time>
      </trkpt>
      <trkpt lat="47.4236" lon="6.67349">
        <ele>347</ele>
        <time>2015-04-26T09:22:52.000Z</time>
      </trkpt>
      <trkpt lat="47.42357" lon="6.67353">
        <ele>347</ele>
        <time>2015-04-26T09:22:54.000Z</time>
      </trkpt>
      <trkpt lat="47.42356" lon="6.67355">
        <ele>347</ele>
        <time>2015-04-26T09:22:55.000Z</time>
      </trkpt>
      <trkpt lat="47.42352" lon="6.67359">
        <ele>347</ele>
        <time>2015-04-26T09:22:57.000Z</time>
      </trkpt>
      <trkpt lat="47.4235" lon="6.67361">
        <ele>347</ele>
        <time>2015-04-26T09:22:58.000Z</time>
      </trkpt>
      <trkpt lat="47.42348" lon="6.67363">
        <ele>347</ele>
        <time>2015-04-26T09:22:59.000Z</time>
      </trkpt>
      <trkpt lat="47.42346" lon="6.67366">
        <ele>347</ele>
        <time>2015-04-26T09:23:00.000Z</time>
      </trkpt>
      <trkpt lat="47.42343" lon="6.67369">
        <ele>347</ele>
        <time>2015-04-26T09:23:01.000Z</time>
      </trkpt>
      <trkpt lat="47.42342" lon="6.67371">
        <ele>346</ele>
        <time>2015-04-26T09:23:02.000Z</time>
      </trkpt>
      <trkpt lat="47.42339" lon="6.67374">
        <ele>346</ele>
        <time>2015-04-26T09:23:04.000Z</time>
      </trkpt>
      <trkpt lat="47.42338" lon="6.67375">
        <ele>346</ele>
        <time>2015-04-26T09:23:05.000Z</time>
      </trkpt>
      <trkpt lat="47.42335" lon="6.67379">
        <ele>346</ele>
        <time>2015-04-26T09:23:08.000Z</time>
      </trkpt>
      <trkpt lat="47.42334" lon="6.6738">
        <ele>346</ele>
        <time>2015-04-26T09:23:09.000Z</time>
      </trkpt>
      <trkpt lat="47.4233" lon="6.67384">
        <ele>357</ele>
        <time>2015-04-26T09:23:17.000Z</time>
      </trkpt>
      <trkpt lat="47.4233" lon="6.67384">
        <ele>357</ele>
        <time>2015-04-26T09:23:18.000Z</time>
      </trkpt>
      <trkpt lat="47.42334" lon="6.67384">
        <ele>346</ele>
        <time>2015-04-26T09:23:34.000Z</time>
      </trkpt>
      <trkpt lat="47.42335" lon="6.67384">
        <ele>346</ele>
        <time>2015-04-26T09:23:35.000Z</time>
      </trkpt>
      <trkpt lat="47.42338" lon="6.67387">
        <ele>345</ele>
        <time>2015-04-26T09:23:38.000Z</time>
      </trkpt>
      <trkpt lat="47.42338" lon="6.67389">
        <ele>345</ele>
        <time>2015-04-26T09:23:39.000Z</time>
      </trkpt>
      <trkpt lat="47.42339" lon="6.67394">
        <ele>345</ele>
        <time>2015-04-26T09:23:41.000Z</time>
      </trkpt>
      <trkpt lat="47.42339" lon="6.67396">
        <ele>345</ele>
        <time>2015-04-26T09:23:42.000Z</time>
      </trkpt>
      <trkpt lat="47.42339" lon="6.67401">
        <ele>345</ele>
        <time>2015-04-26T09:23:44.000Z</time>
      </trkpt>
      <trkpt lat="47.4234" lon="6.67404">
        <ele>345</ele>
        <time>2015-04-26T09:23:45.000Z</time>
      </trkpt>
      <trkpt lat="47.42341" lon="6.67409">
        <ele>345</ele>
        <time>2015-04-26T09:23:47.000Z</time>
      </trkpt>
      <trkpt lat="47.42342" lon="6.67413">
        <ele>345</ele>
        <time>2015-04-26T09:23:48.000Z</time>
      </trkpt>
      <trkpt lat="47.42343" lon="6.67416">
        <ele>345</ele>
        <time>2015-04-26T09:23:49.000Z</time>
      </trkpt>
      <trkpt lat="47.42344" lon="6.6742">
        <ele>342</ele>
        <time>2015-04-26T09:23:50.000Z</time>
      </trkpt>
      <trkpt lat="47.42345" lon="6.67424">
        <ele>342</ele>
        <time>2015-04-26T09:23:51.000Z</time>
      </trkpt>
      <trkpt lat="47.42346" lon="6.67427">
        <ele>341</ele>
        <time>2015-04-26T09:23:52.000Z</time>
      </trkpt>
      <trkpt lat="47.42347" lon="6.67431">
        <ele>340</ele>
        <time>2015-04-26T09:23:53.000Z</time>
      </trkpt>
      <trkpt lat="47.42347" lon="6.67435">
        <ele>340</ele>
        <time>2015-04-26T09:23:54.000Z</time>
      </trkpt>
      <trkpt lat="47.42346" lon="6.67439">
        <ele>339</ele>
        <time>2015-04-26T09:23:55.000Z</time>
      </trkpt>
      <trkpt lat="47.42346" lon="6.67442">
        <ele>339</ele>
        <time>2015-04-26T09:23:56.000Z</time>
      </trkpt>
      <trkpt lat="47.42345" lon="6.67446">
        <ele>339</ele>
        <time>2015-04-26T09:23:57.000Z</time>
      </trkpt>
      <trkpt lat="47.42344" lon="6.6745">
        <ele>338</ele>
        <time>2015-04-26T09:23:58.000Z</time>
      </trkpt>
      <trkpt lat="47.42343" lon="6.67454">
        <ele>338</ele>
        <time>2015-04-26T09:23:59.000Z</time>
      </trkpt>
      <trkpt lat="47.42342" lon="6.67458">
        <ele>338</ele>
        <time>2015-04-26T09:24:00.000Z</time>
      </trkpt>
      <trkpt lat="47.42341" lon="6.67461">
        <ele>337</ele>
        <time>2015-04-26T09:24:01.000Z</time>
      </trkpt>
      <trkpt lat="47.4234" lon="6.67465">
        <ele>337</ele>
        <time>2015-04-26T09:24:02.000Z</time>
      </trkpt>
      <trkpt lat="47.42339" lon="6.67469">
        <ele>337</ele>
        <time>2015-04-26T09:24:03.000Z</time>
      </trkpt>
      <trkpt lat="47.42338" lon="6.67472">
        <ele>337</ele>
        <time>2015-04-26T09:24:04.000Z</time>
      </trkpt>
      <trkpt lat="47.42337" lon="6.67476">
        <ele>337</ele>
        <time>2015-04-26T09:24:05.000Z</time>
      </trkpt>
      <trkpt lat="47.42336" lon="6.6748">
        <ele>337</ele>
        <time>2015-04-26T09:24:06.000Z</time>
      </trkpt>
      <trkpt lat="47.42335" lon="6.67484">
        <ele>336</ele>
        <time>2015-04-26T09:24:07.000Z</time>
      </trkpt>
      <trkpt lat="47.42334" lon="6.67487">
        <ele>336</ele>
        <time>2015-04-26T09:24:08.000Z</time>
      </trkpt>
      <trkpt lat="47.42332" lon="6.67491">
        <ele>339</ele>
        <time>2015-04-26T09:24:09.000Z</time>
      </trkpt>
      <trkpt lat="47.42331" lon="6.67495">
        <ele>338</ele>
        <time>2015-04-26T09:24:10.000Z</time>
      </trkpt>
      <trkpt lat="47.4233" lon="6.675">
        <ele>337</ele>
        <time>2015-04-26T09:24:11.000Z</time>
      </trkpt>
      <trkpt lat="47.4233" lon="6.67504">
        <ele>337</ele>
        <time>2015-04-26T09:24:12.000Z</time>
      </trkpt>
      <trkpt lat="47.42329" lon="6.67509">
        <ele>337</ele>
        <time>2015-04-26T09:24:13.000Z</time>
      </trkpt>
      <trkpt lat="47.42328" lon="6.67513">
        <ele>338</ele>
        <time>2015-04-26T09:24:14.000Z</time>
      </trkpt>
      <trkpt lat="47.42327" lon="6.67518">
        <ele>338</ele>
        <time>2015-04-26T09:24:15.000Z</time>
      </trkpt>
      <trkpt lat="47.42326" lon="6.67523">
        <ele>338</ele>
        <time>2015-04-26T09:24:16.000Z</time>
      </trkpt>
      <trkpt lat="47.42325" lon="6.67527">
        <ele>339</ele>
        <time>2015-04-26T09:24:17.000Z</time>
      </trkpt>
      <trkpt lat="47.42324" lon="6.67531">
        <ele>339</ele>
        <time>2015-04-26T09:24:18.000Z</time>
      </trkpt>
      <trkpt lat="47.42323" lon="6.67536">
        <ele>339</ele>
        <time>2015-04-26T09:24:20.000Z</time>
      </trkpt>
      <trkpt lat="47.42322" lon="6.67539">
        <ele>339</ele>
        <time>2015-04-26T09:24:21.000Z</time>
      </trkpt>
      <trkpt lat="47.42321" lon="6.67542">
        <ele>339</ele>
        <time>2015-04-26T09:24:22.000Z</time>
      </trkpt>
      <trkpt lat="47.4232" lon="6.67545">
        <ele>339</ele>
        <time>2015-04-26T09:24:23.000Z</time>
      </trkpt>
      <trkpt lat="47.4232" lon="6.67549">
        <ele>339</ele>
        <time>2015-04-26T09:24:24.000Z</time>
      </trkpt>
      <trkpt lat="47.42319" lon="6.67552">
        <ele>339</ele>
        <time>2015-04-26T09:24:25.000Z</time>
      </trkpt>
      <trkpt lat="47.42318" lon="6.67555">
        <ele>339</ele>
        <time>2015-04-26T09:24:26.000Z</time>
      </trkpt>
      <trkpt lat="47.42317" lon="6.67559">
        <ele>339</ele>
        <time>2015-04-26T09:24:27.000Z</time>
      </trkpt>
      <trkpt lat="47.42316" lon="6.67562">
        <ele>339</ele>
        <time>2015-04-26T09:24:28.000Z</time>
      </trkpt>
      <trkpt lat="47.42315" lon="6.67567">
        <ele>339</ele>
        <time>2015-04-26T09:24:29.000Z</time>
      </trkpt>
      <trkpt lat="47.42315" lon="6.67571">
        <ele>338</ele>
        <time>2015-04-26T09:24:30.000Z</time>
      </trkpt>
      <trkpt lat="47.42314" lon="6.67576">
        <ele>338</ele>
        <time>2015-04-26T09:24:31.000Z</time>
      </trkpt>
      <trkpt lat="47.42313" lon="6.67581">
        <ele>338</ele>
        <time>2015-04-26T09:24:32.000Z</time>
      </trkpt>
      <trkpt lat="47.42312" lon="6.67585">
        <ele>338</ele>
        <time>2015-04-26T09:24:33.000Z</time>
      </trkpt>
      <trkpt lat="47.42311" lon="6.6759">
        <ele>338</ele>
        <time>2015-04-26T09:24:34.000Z</time>
      </trkpt>
      <trkpt lat="47.4231" lon="6.67595">
        <ele>338</ele>
        <time>2015-04-26T09:24:35.000Z</time>
      </trkpt>
      <trkpt lat="47.42309" lon="6.676">
        <ele>338</ele>
        <time>2015-04-26T09:24:36.000Z</time>
      </trkpt>
      <trkpt lat="47.42308" lon="6.67605">
        <ele>338</ele>
        <time>2015-04-26T09:24:37.000Z</time>
      </trkpt>
      <trkpt lat="47.42307" lon="6.67611">
        <ele>339</ele>
        <time>2015-04-26T09:24:38.000Z</time>
      </trkpt>
      <trkpt lat="47.42306" lon="6.67616">
        <ele>339</ele>
        <time>2015-04-26T09:24:39.000Z</time>
      </trkpt>
      <trkpt lat="47.42305" lon="6.67621">
        <ele>339</ele>
        <time>2015-04-26T09:24:40.000Z</time>
      </trkpt>
      <trkpt lat="47.42304" lon="6.67626">
        <ele>339</ele>
        <time>2015-04-26T09:24:41.000Z</time>
      </trkpt>
      <trkpt lat="47.42302" lon="6.67632">
        <ele>339</ele>
        <time>2015-04-26T09:24:42.000Z</time>
      </trkpt>
      <trkpt lat="47.42301" lon="6.67637">
        <ele>339</ele>
        <time>2015-04-26T09:24:43.000Z</time>
      </trkpt>
      <trkpt lat="47.423" lon="6.67643">
        <ele>339</ele>
        <time>2015-04-26T09:24:44.000Z</time>
      </trkpt>
      <trkpt lat="47.42299" lon="6.67649">
        <ele>339</ele>
        <time>2015-04-26T09:24:45.000Z</time>
      </trkpt>
      <trkpt lat="47.42298" lon="6.67655">
        <ele>339</ele>
        <time>2015-04-26T09:24:46.000Z</time>
      </trkpt>
      <trkpt lat="47.42297" lon="6.6766">
        <ele>339</ele>
        <time>2015-04-26T09:24:47.000Z</time>
      </trkpt>
      <trkpt lat="47.42296" lon="6.67665">
        <ele>339</ele>
        <time>2015-04-26T09:24:48.000Z</time>
      </trkpt>
      <trkpt lat="47.42295" lon="6.6767">
        <ele>338</ele>
        <time>2015-04-26T09:24:49.000Z</time>
      </trkpt>
      <trkpt lat="47.42294" lon="6.67675">
        <ele>338</ele>
        <time>2015-04-26T09:24:50.000Z</time>
      </trkpt>
      <trkpt lat="47.42292" lon="6.6768">
        <ele>338</ele>
        <time>2015-04-26T09:24:51.000Z</time>
      </trkpt>
      <trkpt lat="47.42291" lon="6.67685">
        <ele>338</ele>
        <time>2015-04-26T09:24:52.000Z</time>
      </trkpt>
      <trkpt lat="47.4229" lon="6.6769">
        <ele>338</ele>
        <time>2015-04-26T09:24:53.000Z</time>
      </trkpt>
      <trkpt lat="47.42288" lon="6.67695">
        <ele>338</ele>
        <time>2015-04-26T09:24:54.000Z</time>
      </trkpt>
      <trkpt lat="47.42287" lon="6.677">
        <ele>339</ele>
        <time>2015-04-26T09:24:55.000Z</time>
      </trkpt>
      <trkpt lat="47.42286" lon="6.67706">
        <ele>339</ele>
        <time>2015-04-26T09:24:56.000Z</time>
      </trkpt>
      <trkpt lat="47.42284" lon="6.67712">
        <ele>339</ele>
        <time>2015-04-26T09:24:57.000Z</time>
      </trkpt>
      <trkpt lat="47.42283" lon="6.67717">
        <ele>339</ele>
        <time>2015-04-26T09:24:58.000Z</time>
      </trkpt>
      <trkpt lat="47.42282" lon="6.67723">
        <ele>339</ele>
        <time>2015-04-26T09:24:59.000Z</time>
      </trkpt>
      <trkpt lat="47.4228" lon="6.67728">
        <ele>339</ele>
        <time>2015-04-26T09:25:00.000Z</time>
      </trkpt>
      <trkpt lat="47.42279" lon="6.67734">
        <ele>339</ele>
        <time>2015-04-26T09:25:01.000Z</time>
      </trkpt>
      <trkpt lat="47.42278" lon="6.67739">
        <ele>339</ele>
        <time>2015-04-26T09:25:02.000Z</time>
      </trkpt>
      <trkpt lat="47.42278" lon="6.67745">
        <ele>339</ele>
        <time>2015-04-26T09:25:03.000Z</time>
      </trkpt>
      <trkpt lat="47.42277" lon="6.6775">
        <ele>338</ele>
        <time>2015-04-26T09:25:04.000Z</time>
      </trkpt>
      <trkpt lat="47.42277" lon="6.67756">
        <ele>338</ele>
        <time>2015-04-26T09:25:05.000Z</time>
      </trkpt>
      <trkpt lat="47.42276" lon="6.67761">
        <ele>338</ele>
        <time>2015-04-26T09:25:06.000Z</time>
      </trkpt>
      <trkpt lat="47.42276" lon="6.67766">
        <ele>338</ele>
        <time>2015-04-26T09:25:07.000Z</time>
      </trkpt>
      <trkpt lat="47.42275" lon="6.67772">
        <ele>338</ele>
        <time>2015-04-26T09:25:08.000Z</time>
      </trkpt>
      <trkpt lat="47.42275" lon="6.67777">
        <ele>338</ele>
        <time>2015-04-26T09:25:09.000Z</time>
      </trkpt>
      <trkpt lat="47.42274" lon="6.67783">
        <ele>338</ele>
        <time>2015-04-26T09:25:10.000Z</time>
      </trkpt>
      <trkpt lat="47.42273" lon="6.67789">
        <ele>338</ele>
        <time>2015-04-26T09:25:11.000Z</time>
      </trkpt>
      <trkpt lat="47.42273" lon="6.67795">
        <ele>338</ele>
        <time>2015-04-26T09:25:12.000Z</time>
      </trkpt>
      <trkpt lat="47.42272" lon="6.67801">
        <ele>338</ele>
        <time>2015-04-26T09:25:13.000Z</time>
      </trkpt>
      <trkpt lat="47.42272" lon="6.67806">
        <ele>338</ele>
        <time>2015-04-26T09:25:14.000Z</time>
      </trkpt>
      <trkpt lat="47.42271" lon="6.67811">
        <ele>338</ele>
        <time>2015-04-26T09:25:15.000Z</time>
      </trkpt>
      <trkpt lat="47.42271" lon="6.67816">
        <ele>338</ele>
        <time>2015-04-26T09:25:16.000Z</time>
      </trkpt>
      <trkpt lat="47.4227" lon="6.67822">
        <ele>338</ele>
        <time>2015-04-26T09:25:17.000Z</time>
      </trkpt>
      <trkpt lat="47.42269" lon="6.67828">
        <ele>338</ele>
        <time>2015-04-26T09:25:18.000Z</time>
      </trkpt>
      <trkpt lat="47.42269" lon="6.67834">
        <ele>337</ele>
        <time>2015-04-26T09:25:19.000Z</time>
      </trkpt>
      <trkpt lat="47.42268" lon="6.67839">
        <ele>337</ele>
        <time>2015-04-26T09:25:20.000Z</time>
      </trkpt>
      <trkpt lat="47.42267" lon="6.67844">
        <ele>337</ele>
        <time>2015-04-26T09:25:21.000Z</time>
      </trkpt>
      <trkpt lat="47.42266" lon="6.6785">
        <ele>337</ele>
        <time>2015-04-26T09:25:22.000Z</time>
      </trkpt>
      <trkpt lat="47.42265" lon="6.67854">
        <ele>337</ele>
        <time>2015-04-26T09:25:23.000Z</time>
      </trkpt>
      <trkpt lat="47.42264" lon="6.67859">
        <ele>337</ele>
        <time>2015-04-26T09:25:24.000Z</time>
      </trkpt>
      <trkpt lat="47.42263" lon="6.67865">
        <ele>337</ele>
        <time>2015-04-26T09:25:25.000Z</time>
      </trkpt>
      <trkpt lat="47.42262" lon="6.6787">
        <ele>337</ele>
        <time>2015-04-26T09:25:26.000Z</time>
      </trkpt>
      <trkpt lat="47.42261" lon="6.67876">
        <ele>337</ele>
        <time>2015-04-26T09:25:27.000Z</time>
      </trkpt>
      <trkpt lat="47.42261" lon="6.67881">
        <ele>337</ele>
        <time>2015-04-26T09:25:28.000Z</time>
      </trkpt>
      <trkpt lat="47.4226" lon="6.67887">
        <ele>337</ele>
        <time>2015-04-26T09:25:29.000Z</time>
      </trkpt>
      <trkpt lat="47.42259" lon="6.67893">
        <ele>337</ele>
        <time>2015-04-26T09:25:30.000Z</time>
      </trkpt>
      <trkpt lat="47.42259" lon="6.67899">
        <ele>337</ele>
        <time>2015-04-26T09:25:31.000Z</time>
      </trkpt>
      <trkpt lat="47.42259" lon="6.67905">
        <ele>337</ele>
        <time>2015-04-26T09:25:32.000Z</time>
      </trkpt>
      <trkpt lat="47.42258" lon="6.67911">
        <ele>337</ele>
        <time>2015-04-26T09:25:33.000Z</time>
      </trkpt>
      <trkpt lat="47.42258" lon="6.67916">
        <ele>337</ele>
        <time>2015-04-26T09:25:34.000Z</time>
      </trkpt>
      <trkpt lat="47.42257" lon="6.67922">
        <ele>337</ele>
        <time>2015-04-26T09:25:35.000Z</time>
      </trkpt>
      <trkpt lat="47.42257" lon="6.67927">
        <ele>337</ele>
        <time>2015-04-26T09:25:36.000Z</time>
      </trkpt>
      <trkpt lat="47.42256" lon="6.67933">
        <ele>337</ele>
        <time>2015-04-26T09:25:37.000Z</time>
      </trkpt>
      <trkpt lat="47.42256" lon="6.67937">
        <ele>337</ele>
        <time>2015-04-26T09:25:38.000Z</time>
      </trkpt>
      <trkpt lat="47.42256" lon="6.67942">
        <ele>337</ele>
        <time>2015-04-26T09:25:39.000Z</time>
      </trkpt>
      <trkpt lat="47.42256" lon="6.67947">
        <ele>337</ele>
        <time>2015-04-26T09:25:40.000Z</time>
      </trkpt>
      <trkpt lat="47.42255" lon="6.67951">
        <ele>337</ele>
        <time>2015-04-26T09:25:41.000Z</time>
      </trkpt>
      <trkpt lat="47.42255" lon="6.67956">
        <ele>337</ele>
        <time>2015-04-26T09:25:42.000Z</time>
      </trkpt>
      <trkpt lat="47.42255" lon="6.67962">
        <ele>338</ele>
        <time>2015-04-26T09:25:43.000Z</time>
      </trkpt>
      <trkpt lat="47.42254" lon="6.67967">
        <ele>338</ele>
        <time>2015-04-26T09:25:44.000Z</time>
      </trkpt>
      <trkpt lat="47.42254" lon="6.67972">
        <ele>338</ele>
        <time>2015-04-26T09:25:45.000Z</time>
      </trkpt>
      <trkpt lat="47.42254" lon="6.67978">
        <ele>338</ele>
        <time>2015-04-26T09:25:46.000Z</time>
      </trkpt>
      <trkpt lat="47.42254" lon="6.67983">
        <ele>338</ele>
        <time>2015-04-26T09:25:47.000Z</time>
      </trkpt>
      <trkpt lat="47.42254" lon="6.67988">
        <ele>338</ele>
        <time>2015-04-26T09:25:48.000Z</time>
      </trkpt>
      <trkpt lat="47.42254" lon="6.67994">
        <ele>338</ele>
        <time>2015-04-26T09:25:49.000Z</time>
      </trkpt>
      <trkpt lat="47.42254" lon="6.67999">
        <ele>338</ele>
        <time>2015-04-26T09:25:50.000Z</time>
      </trkpt>
      <trkpt lat="47.42254" lon="6.68005">
        <ele>338</ele>
        <time>2015-04-26T09:25:51.000Z</time>
      </trkpt>
      <trkpt lat="47.42254" lon="6.6801">
        <ele>338</ele>
        <time>2015-04-26T09:25:52.000Z</time>
      </trkpt>
      <trkpt lat="47.42254" lon="6.68016">
        <ele>338</ele>
        <time>2015-04-26T09:25:53.000Z</time>
      </trkpt>
      <trkpt lat="47.42254" lon="6.68021">
        <ele>339</ele>
        <time>2015-04-26T09:25:54.000Z</time>
      </trkpt>
      <trkpt lat="47.42254" lon="6.68027">
        <ele>339</ele>
        <time>2015-04-26T09:25:54.999Z</time>
      </trkpt>
      <trkpt lat="47.42254" lon="6.68032">
        <ele>339</ele>
        <time>2015-04-26T09:25:56.000Z</time>
      </trkpt>
      <trkpt lat="47.42253" lon="6.68037">
        <ele>339</ele>
        <time>2015-04-26T09:25:57.000Z</time>
      </trkpt>
      <trkpt lat="47.42253" lon="6.68042">
        <ele>339</ele>
        <time>2015-04-26T09:25:58.000Z</time>
      </trkpt>
      <trkpt lat="47.42252" lon="6.68047">
        <ele>339</ele>
        <time>2015-04-26T09:25:59.000Z</time>
      </trkpt>
      <trkpt lat="47.42251" lon="6.68053">
        <ele>339</ele>
        <time>2015-04-26T09:26:00.000Z</time>
      </trkpt>
      <trkpt lat="47.42251" lon="6.68058">
        <ele>339</ele>
        <time>2015-04-26T09:26:01.000Z</time>
      </trkpt>
      <trkpt lat="47.42251" lon="6.68065">
        <ele>339</ele>
        <time>2015-04-26T09:26:02.000Z</time>
      </trkpt>
      <trkpt lat="47.42252" lon="6.6807">
        <ele>339</ele>
        <time>2015-04-26T09:26:03.000Z</time>
      </trkpt>
      <trkpt lat="47.42252" lon="6.68075">
        <ele>339</ele>
        <time>2015-04-26T09:26:04.000Z</time>
      </trkpt>
      <trkpt lat="47.42252" lon="6.6808">
        <ele>339</ele>
        <time>2015-04-26T09:26:05.000Z</time>
      </trkpt>
      <trkpt lat="47.42252" lon="6.68086">
        <ele>339</ele>
        <time>2015-04-26T09:26:06.000Z</time>
      </trkpt>
      <trkpt lat="47.42252" lon="6.68092">
        <ele>339</ele>
        <time>2015-04-26T09:26:07.000Z</time>
      </trkpt>
      <trkpt lat="47.42252" lon="6.68098">
        <ele>340</ele>
        <time>2015-04-26T09:26:08.000Z</time>
      </trkpt>
      <trkpt lat="47.42252" lon="6.68104">
        <ele>340</ele>
        <time>2015-04-26T09:26:09.000Z</time>
      </trkpt>
      <trkpt lat="47.42252" lon="6.68109">
        <ele>340</ele>
        <time>2015-04-26T09:26:10.000Z</time>
      </trkpt>
      <trkpt lat="47.42252" lon="6.68115">
        <ele>340</ele>
        <time>2015-04-26T09:26:11.000Z</time>
      </trkpt>
      <trkpt lat="47.42252" lon="6.68119">
        <ele>340</ele>
        <time>2015-04-26T09:26:12.000Z</time>
      </trkpt>
      <trkpt lat="47.42253" lon="6.68124">
        <ele>340</ele>
        <time>2015-04-26T09:26:13.000Z</time>
      </trkpt>
      <trkpt lat="47.42253" lon="6.68129">
        <ele>340</ele>
        <time>2015-04-26T09:26:14.000Z</time>
      </trkpt>
      <trkpt lat="47.42253" lon="6.68133">
        <ele>340</ele>
        <time>2015-04-26T09:26:15.000Z</time>
      </trkpt>
      <trkpt lat="47.42253" lon="6.68138">
        <ele>340</ele>
        <time>2015-04-26T09:26:16.000Z</time>
      </trkpt>
      <trkpt lat="47.42253" lon="6.68143">
        <ele>340</ele>
        <time>2015-04-26T09:26:17.000Z</time>
      </trkpt>
      <trkpt lat="47.42253" lon="6.68148">
        <ele>340</ele>
        <time>2015-04-26T09:26:18.000Z</time>
      </trkpt>
      <trkpt lat="47.42253" lon="6.68153">
        <ele>340</ele>
        <time>2015-04-26T09:26:19.000Z</time>
      </trkpt>
      <trkpt lat="47.42254" lon="6.68158">
        <ele>339</ele>
        <time>2015-04-26T09:26:20.000Z</time>
      </trkpt>
      <trkpt lat="47.42254" lon="6.68164">
        <ele>339</ele>
        <time>2015-04-26T09:26:21.000Z</time>
      </trkpt>
      <trkpt lat="47.42255" lon="6.68169">
        <ele>340</ele>
        <time>2015-04-26T09:26:22.000Z</time>
      </trkpt>
      <trkpt lat="47.42256" lon="6.68174">
        <ele>340</ele>
        <time>2015-04-26T09:26:23.000Z</time>
      </trkpt>
      <trkpt lat="47.42257" lon="6.6818">
        <ele>340</ele>
        <time>2015-04-26T09:26:24.000Z</time>
      </trkpt>
      <trkpt lat="47.42257" lon="6.68185">
        <ele>340</ele>
        <time>2015-04-26T09:26:25.000Z</time>
      </trkpt>
      <trkpt lat="47.42257" lon="6.68191">
        <ele>341</ele>
        <time>2015-04-26T09:26:26.000Z</time>
      </trkpt>
      <trkpt lat="47.42254" lon="6.68201">
        <ele>341</ele>
        <time>2015-04-26T09:26:27.000Z</time>
      </trkpt>
      <trkpt lat="47.42252" lon="6.68207">
        <ele>341</ele>
        <time>2015-04-26T09:26:28.000Z</time>
      </trkpt>
      <trkpt lat="47.42251" lon="6.68213">
        <ele>341</ele>
        <time>2015-04-26T09:26:29.000Z</time>
      </trkpt>
      <trkpt lat="47.4225" lon="6.68219">
        <ele>341</ele>
        <time>2015-04-26T09:26:30.000Z</time>
      </trkpt>
      <trkpt lat="47.42248" lon="6.68224">
        <ele>341</ele>
        <time>2015-04-26T09:26:31.000Z</time>
      </trkpt>
      <trkpt lat="47.42246" lon="6.68229">
        <ele>341</ele>
        <time>2015-04-26T09:26:32.000Z</time>
      </trkpt>
      <trkpt lat="47.42244" lon="6.68235">
        <ele>341</ele>
        <time>2015-04-26T09:26:33.000Z</time>
      </trkpt>
      <trkpt lat="47.42243" lon="6.6824">
        <ele>340</ele>
        <time>2015-04-26T09:26:34.000Z</time>
      </trkpt>
      <trkpt lat="47.42241" lon="6.68246">
        <ele>340</ele>
        <time>2015-04-26T09:26:35.000Z</time>
      </trkpt>
      <trkpt lat="47.42239" lon="6.68253">
        <ele>340</ele>
        <time>2015-04-26T09:26:36.000Z</time>
      </trkpt>
      <trkpt lat="47.42237" lon="6.6826">
        <ele>341</ele>
        <time>2015-04-26T09:26:37.000Z</time>
      </trkpt>
      <trkpt lat="47.42236" lon="6.68265">
        <ele>341</ele>
        <time>2015-04-26T09:26:38.000Z</time>
      </trkpt>
      <trkpt lat="47.42234" lon="6.68271">
        <ele>342</ele>
        <time>2015-04-26T09:26:39.000Z</time>
      </trkpt>
      <trkpt lat="47.42233" lon="6.68277">
        <ele>342</ele>
        <time>2015-04-26T09:26:40.000Z</time>
      </trkpt>
      <trkpt lat="47.42232" lon="6.68284">
        <ele>342</ele>
        <time>2015-04-26T09:26:41.000Z</time>
      </trkpt>
      <trkpt lat="47.4223" lon="6.6829">
        <ele>343</ele>
        <time>2015-04-26T09:26:42.000Z</time>
      </trkpt>
      <trkpt lat="47.42228" lon="6.68296">
        <ele>343</ele>
        <time>2015-04-26T09:26:43.000Z</time>
      </trkpt>
      <trkpt lat="47.42227" lon="6.68302">
        <ele>343</ele>
        <time>2015-04-26T09:26:44.000Z</time>
      </trkpt>
      <trkpt lat="47.42226" lon="6.68307">
        <ele>343</ele>
        <time>2015-04-26T09:26:45.000Z</time>
      </trkpt>
      <trkpt lat="47.42224" lon="6.68311">
        <ele>343</ele>
        <time>2015-04-26T09:26:46.001Z</time>
      </trkpt>
      <trkpt lat="47.42225" lon="6.68318">
        <ele>343</ele>
        <time>2015-04-26T09:26:47.000Z</time>
      </trkpt>
      <trkpt lat="47.42225" lon="6.68324">
        <ele>343</ele>
        <time>2015-04-26T09:26:48.000Z</time>
      </trkpt>
      <trkpt lat="47.42225" lon="6.68331">
        <ele>343</ele>
        <time>2015-04-26T09:26:49.000Z</time>
      </trkpt>
      <trkpt lat="47.42225" lon="6.68338">
        <ele>343</ele>
        <time>2015-04-26T09:26:50.000Z</time>
      </trkpt>
      <trkpt lat="47.42225" lon="6.68344">
        <ele>343</ele>
        <time>2015-04-26T09:26:51.000Z</time>
      </trkpt>
      <trkpt lat="47.42225" lon="6.6835">
        <ele>343</ele>
        <time>2015-04-26T09:26:52.000Z</time>
      </trkpt>
      <trkpt lat="47.42225" lon="6.68355">
        <ele>343</ele>
        <time>2015-04-26T09:26:53.000Z</time>
      </trkpt>
      <trkpt lat="47.42225" lon="6.6836">
        <ele>344</ele>
        <time>2015-04-26T09:26:54.000Z</time>
      </trkpt>
      <trkpt lat="47.42226" lon="6.68364">
        <ele>344</ele>
        <time>2015-04-26T09:26:55.000Z</time>
      </trkpt>
      <trkpt lat="47.42227" lon="6.68368">
        <ele>344</ele>
        <time>2015-04-26T09:26:56.000Z</time>
      </trkpt>
      <trkpt lat="47.42228" lon="6.68372">
        <ele>344</ele>
        <time>2015-04-26T09:26:57.000Z</time>
      </trkpt>
      <trkpt lat="47.4223" lon="6.68375">
        <ele>344</ele>
        <time>2015-04-26T09:26:58.000Z</time>
      </trkpt>
      <trkpt lat="47.42232" lon="6.68379">
        <ele>344</ele>
        <time>2015-04-26T09:26:59.000Z</time>
      </trkpt>
      <trkpt lat="47.42234" lon="6.68383">
        <ele>343</ele>
        <time>2015-04-26T09:27:00.000Z</time>
      </trkpt>
      <trkpt lat="47.42236" lon="6.68387">
        <ele>343</ele>
        <time>2015-04-26T09:27:01.000Z</time>
      </trkpt>
      <trkpt lat="47.42238" lon="6.68391">
        <ele>343</ele>
        <time>2015-04-26T09:27:02.000Z</time>
      </trkpt>
      <trkpt lat="47.42239" lon="6.68395">
        <ele>343</ele>
        <time>2015-04-26T09:27:03.000Z</time>
      </trkpt>
      <trkpt lat="47.42241" lon="6.684">
        <ele>343</ele>
        <time>2015-04-26T09:27:04.000Z</time>
      </trkpt>
      <trkpt lat="47.42242" lon="6.68404">
        <ele>343</ele>
        <time>2015-04-26T09:27:05.000Z</time>
      </trkpt>
      <trkpt lat="47.42243" lon="6.68408">
        <ele>342</ele>
        <time>2015-04-26T09:27:06.000Z</time>
      </trkpt>
      <trkpt lat="47.42245" lon="6.68412">
        <ele>342</ele>
        <time>2015-04-26T09:27:07.000Z</time>
      </trkpt>
      <trkpt lat="47.42247" lon="6.68415">
        <ele>341</ele>
        <time>2015-04-26T09:27:08.000Z</time>
      </trkpt>
      <trkpt lat="47.42249" lon="6.68418">
        <ele>341</ele>
        <time>2015-04-26T09:27:09.000Z</time>
      </trkpt>
      <trkpt lat="47.42252" lon="6.68421">
        <ele>342</ele>
        <time>2015-04-26T09:27:10.000Z</time>
      </trkpt>
      <trkpt lat="47.42255" lon="6.68423">
        <ele>342</ele>
        <time>2015-04-26T09:27:11.000Z</time>
      </trkpt>
      <trkpt lat="47.42258" lon="6.68426">
        <ele>342</ele>
        <time>2015-04-26T09:27:12.000Z</time>
      </trkpt>
      <trkpt lat="47.42261" lon="6.68428">
        <ele>343</ele>
        <time>2015-04-26T09:27:13.000Z</time>
      </trkpt>
      <trkpt lat="47.42265" lon="6.68431">
        <ele>343</ele>
        <time>2015-04-26T09:27:14.000Z</time>
      </trkpt>
      <trkpt lat="47.42268" lon="6.68433">
        <ele>343</ele>
        <time>2015-04-26T09:27:15.000Z</time>
      </trkpt>
      <trkpt lat="47.42271" lon="6.68434">
        <ele>343</ele>
        <time>2015-04-26T09:27:16.000Z</time>
      </trkpt>
      <trkpt lat="47.42274" lon="6.68436">
        <ele>343</ele>
        <time>2015-04-26T09:27:17.000Z</time>
      </trkpt>
      <trkpt lat="47.42277" lon="6.68439">
        <ele>344</ele>
        <time>2015-04-26T09:27:18.000Z</time>
      </trkpt>
      <trkpt lat="47.4228" lon="6.68441">
        <ele>344</ele>
        <time>2015-04-26T09:27:19.000Z</time>
      </trkpt>
      <trkpt lat="47.42282" lon="6.68444">
        <ele>344</ele>
        <time>2015-04-26T09:27:20.000Z</time>
      </trkpt>
      <trkpt lat="47.42285" lon="6.68446">
        <ele>344</ele>
        <time>2015-04-26T09:27:21.000Z</time>
      </trkpt>
      <trkpt lat="47.42286" lon="6.68449">
        <ele>344</ele>
        <time>2015-04-26T09:27:22.000Z</time>
      </trkpt>
      <trkpt lat="47.42288" lon="6.68451">
        <ele>344</ele>
        <time>2015-04-26T09:27:23.000Z</time>
      </trkpt>
      <trkpt lat="47.42288" lon="6.68455">
        <ele>344</ele>
        <time>2015-04-26T09:27:24.000Z</time>
      </trkpt>
      <trkpt lat="47.42289" lon="6.68458">
        <ele>344</ele>
        <time>2015-04-26T09:27:24.998Z</time>
      </trkpt>
      <trkpt lat="47.42288" lon="6.68462">
        <ele>344</ele>
        <time>2015-04-26T09:27:26.000Z</time>
      </trkpt>
      <trkpt lat="47.42287" lon="6.68466">
        <ele>344</ele>
        <time>2015-04-26T09:27:27.000Z</time>
      </trkpt>
      <trkpt lat="47.42286" lon="6.68472">
        <ele>344</ele>
        <time>2015-04-26T09:27:29.000Z</time>
      </trkpt>
      <trkpt lat="47.42286" lon="6.68474">
        <ele>344</ele>
        <time>2015-04-26T09:27:30.000Z</time>
      </trkpt>
      <trkpt lat="47.42285" lon="6.68479">
        <ele>344</ele>
        <time>2015-04-26T09:27:33.000Z</time>
      </trkpt>
      <trkpt lat="47.42285" lon="6.68481">
        <ele>344</ele>
        <time>2015-04-26T09:27:33.999Z</time>
      </trkpt>
      <trkpt lat="47.42286" lon="6.68487">
        <ele>344</ele>
        <time>2015-04-26T09:27:37.000Z</time>
      </trkpt>
      <trkpt lat="47.42286" lon="6.68489">
        <ele>344</ele>
        <time>2015-04-26T09:27:38.000Z</time>
      </trkpt>
      <trkpt lat="47.42285" lon="6.68496">
        <ele>344</ele>
        <time>2015-04-26T09:27:40.000Z</time>
      </trkpt>
      <trkpt lat="47.42285" lon="6.68499">
        <ele>344</ele>
        <time>2015-04-26T09:27:41.001Z</time>
      </trkpt>
      <trkpt lat="47.42285" lon="6.68503">
        <ele>343</ele>
        <time>2015-04-26T09:27:42.000Z</time>
      </trkpt>
      <trkpt lat="47.42285" lon="6.68507">
        <ele>344</ele>
        <time>2015-04-26T09:27:43.000Z</time>
      </trkpt>
      <trkpt lat="47.42285" lon="6.6851">
        <ele>344</ele>
        <time>2015-04-26T09:27:44.000Z</time>
      </trkpt>
      <trkpt lat="47.42285" lon="6.68514">
        <ele>344</ele>
        <time>2015-04-26T09:27:45.000Z</time>
      </trkpt>
      <trkpt lat="47.42285" lon="6.68517">
        <ele>344</ele>
        <time>2015-04-26T09:27:46.000Z</time>
      </trkpt>
      <trkpt lat="47.42285" lon="6.68521">
        <ele>344</ele>
        <time>2015-04-26T09:27:47.000Z</time>
      </trkpt>
      <trkpt lat="47.42285" lon="6.68525">
        <ele>344</ele>
        <time>2015-04-26T09:27:48.000Z</time>
      </trkpt>
      <trkpt lat="47.42284" lon="6.68529">
        <ele>344</ele>
        <time>2015-04-26T09:27:49.000Z</time>
      </trkpt>
      <trkpt lat="47.42283" lon="6.68533">
        <ele>344</ele>
        <time>2015-04-26T09:27:50.000Z</time>
      </trkpt>
      <trkpt lat="47.42283" lon="6.68537">
        <ele>344</ele>
        <time>2015-04-26T09:27:51.000Z</time>
      </trkpt>
      <trkpt lat="47.42283" lon="6.68541">
        <ele>344</ele>
        <time>2015-04-26T09:27:52.000Z</time>
      </trkpt>
      <trkpt lat="47.42283" lon="6.68544">
        <ele>344</ele>
        <time>2015-04-26T09:27:53.000Z</time>
      </trkpt>
      <trkpt lat="47.42284" lon="6.68551">
        <ele>344</ele>
        <time>2015-04-26T09:27:57.000Z</time>
      </trkpt>
      <trkpt lat="47.42283" lon="6.68551">
        <ele>344</ele>
        <time>2015-04-26T09:27:58.000Z</time>
      </trkpt>
      <trkpt lat="47.42282" lon="6.68547">
        <ele>343</ele>
        <time>2015-04-26T09:28:22.000Z</time>
      </trkpt>
      <trkpt lat="47.42282" lon="6.68544">
        <ele>343</ele>
        <time>2015-04-26T09:28:23.000Z</time>
      </trkpt>
      <trkpt lat="47.42282" lon="6.6854">
        <ele>343</ele>
        <time>2015-04-26T09:28:24.999Z</time>
      </trkpt>
      <trkpt lat="47.42283" lon="6.68538">
        <ele>344</ele>
        <time>2015-04-26T09:28:26.000Z</time>
      </trkpt>
      <trkpt lat="47.42285" lon="6.68533">
        <ele>344</ele>
        <time>2015-04-26T09:28:28.000Z</time>
      </trkpt>
      <trkpt lat="47.42286" lon="6.68531">
        <ele>344</ele>
        <time>2015-04-26T09:28:29.000Z</time>
      </trkpt>
      <trkpt lat="47.42287" lon="6.68527">
        <ele>344</ele>
        <time>2015-04-26T09:28:31.000Z</time>
      </trkpt>
      <trkpt lat="47.42287" lon="6.68525">
        <ele>344</ele>
        <time>2015-04-26T09:28:32.000Z</time>
      </trkpt>
      <trkpt lat="47.42288" lon="6.6852">
        <ele>344</ele>
        <time>2015-04-26T09:28:34.000Z</time>
      </trkpt>
      <trkpt lat="47.42289" lon="6.68518">
        <ele>344</ele>
        <time>2015-04-26T09:28:35.000Z</time>
      </trkpt>
      <trkpt lat="47.42292" lon="6.68513">
        <ele>344</ele>
        <time>2015-04-26T09:28:37.999Z</time>
      </trkpt>
      <trkpt lat="47.42292" lon="6.68511">
        <ele>344</ele>
        <time>2015-04-26T09:28:39.000Z</time>
      </trkpt>
      <trkpt lat="47.42293" lon="6.68505">
        <ele>344</ele>
        <time>2015-04-26T09:28:43.000Z</time>
      </trkpt>
      <trkpt lat="47.42293" lon="6.68503">
        <ele>344</ele>
        <time>2015-04-26T09:28:44.000Z</time>
      </trkpt>
      <trkpt lat="47.42293" lon="6.68498">
        <ele>344</ele>
        <time>2015-04-26T09:28:46.999Z</time>
      </trkpt>
      <trkpt lat="47.42294" lon="6.68497">
        <ele>344</ele>
        <time>2015-04-26T09:28:48.000Z</time>
      </trkpt>
      <trkpt lat="47.42295" lon="6.68491">
        <ele>344</ele>
        <time>2015-04-26T09:28:51.000Z</time>
      </trkpt>
      <trkpt lat="47.42295" lon="6.68489">
        <ele>344</ele>
        <time>2015-04-26T09:28:52.000Z</time>
      </trkpt>
      <trkpt lat="47.42296" lon="6.68485">
        <ele>344</ele>
        <time>2015-04-26T09:28:54.000Z</time>
      </trkpt>
      <trkpt lat="47.42296" lon="6.68482">
        <ele>344</ele>
        <time>2015-04-26T09:28:55.000Z</time>
      </trkpt>
      <trkpt lat="47.42296" lon="6.68475">
        <ele>344</ele>
        <time>2015-04-26T09:28:57.000Z</time>
      </trkpt>
      <trkpt lat="47.42296" lon="6.68472">
        <ele>344</ele>
        <time>2015-04-26T09:28:58.000Z</time>
      </trkpt>
      <trkpt lat="47.42296" lon="6.68466">
        <ele>344</ele>
        <time>2015-04-26T09:29:00.000Z</time>
      </trkpt>
      <trkpt lat="47.42296" lon="6.68464">
        <ele>344</ele>
        <time>2015-04-26T09:29:01.000Z</time>
      </trkpt>
      <trkpt lat="47.42295" lon="6.68458">
        <ele>344</ele>
        <time>2015-04-26T09:29:04.000Z</time>
      </trkpt>
      <trkpt lat="47.42294" lon="6.68457">
        <ele>344</ele>
        <time>2015-04-26T09:29:05.000Z</time>
      </trkpt>
      <trkpt lat="47.4229" lon="6.68459">
        <ele>344</ele>
        <time>2015-04-26T09:31:32.000Z</time>
      </trkpt>
      <trkpt lat="47.4229" lon="6.6846">
        <ele>344</ele>
        <time>2015-04-26T09:31:33.000Z</time>
      </trkpt>
      <trkpt lat="47.42291" lon="6.68466">
        <ele>344</ele>
        <time>2015-04-26T09:31:36.000Z</time>
      </trkpt>
      <trkpt lat="47.42292" lon="6.6847">
        <ele>344</ele>
        <time>2015-04-26T09:31:37.000Z</time>
      </trkpt>
      <trkpt lat="47.42292" lon="6.68474">
        <ele>344</ele>
        <time>2015-04-26T09:31:38.000Z</time>
      </trkpt>
      <trkpt lat="47.42292" lon="6.68479">
        <ele>344</ele>
        <time>2015-04-26T09:31:39.000Z</time>
      </trkpt>
      <trkpt lat="47.42293" lon="6.68485">
        <ele>344</ele>
        <time>2015-04-26T09:31:40.000Z</time>
      </trkpt>
      <trkpt lat="47.42293" lon="6.68491">
        <ele>344</ele>
        <time>2015-04-26T09:31:41.000Z</time>
      </trkpt>
      <trkpt lat="47.42293" lon="6.68496">
        <ele>344</ele>
        <time>2015-04-26T09:31:42.000Z</time>
      </trkpt>
      <trkpt lat="47.42293" lon="6.68505">
        <ele>344</ele>
        <time>2015-04-26T09:31:43.000Z</time>
      </trkpt>
      <trkpt lat="47.42292" lon="6.68512">
        <ele>344</ele>
        <time>2015-04-26T09:31:44.000Z</time>
      </trkpt>
      <trkpt lat="47.42292" lon="6.68518">
        <ele>344</ele>
        <time>2015-04-26T09:31:45.000Z</time>
      </trkpt>
      <trkpt lat="47.42292" lon="6.68523">
        <ele>344</ele>
        <time>2015-04-26T09:31:46.000Z</time>
      </trkpt>
      <trkpt lat="47.42292" lon="6.68531">
        <ele>344</ele>
        <time>2015-04-26T09:31:47.000Z</time>
      </trkpt>
      <trkpt lat="47.42291" lon="6.68537">
        <ele>344</ele>
        <time>2015-04-26T09:31:48.000Z</time>
      </trkpt>
      <trkpt lat="47.4229" lon="6.68541">
        <ele>344</ele>
        <time>2015-04-26T09:31:49.000Z</time>
      </trkpt>
      <trkpt lat="47.42289" lon="6.68548">
        <ele>344</ele>
        <time>2015-04-26T09:31:50.000Z</time>
      </trkpt>
      <trkpt lat="47.42288" lon="6.68554">
        <ele>344</ele>
        <time>2015-04-26T09:31:51.000Z</time>
      </trkpt>
      <trkpt lat="47.42287" lon="6.68561">
        <ele>344</ele>
        <time>2015-04-26T09:31:52.000Z</time>
      </trkpt>
      <trkpt lat="47.42286" lon="6.68566">
        <ele>344</ele>
        <time>2015-04-26T09:31:53.000Z</time>
      </trkpt>
      <trkpt lat="47.42286" lon="6.68571">
        <ele>344</ele>
        <time>2015-04-26T09:31:54.000Z</time>
      </trkpt>
      <trkpt lat="47.42285" lon="6.68577">
        <ele>343</ele>
        <time>2015-04-26T09:31:55.000Z</time>
      </trkpt>
      <trkpt lat="47.42285" lon="6.68583">
        <ele>343</ele>
        <time>2015-04-26T09:31:56.000Z</time>
      </trkpt>
      <trkpt lat="47.42285" lon="6.68586">
        <ele>343</ele>
        <time>2015-04-26T09:31:57.000Z</time>
      </trkpt>
      <trkpt lat="47.42285" lon="6.68592">
        <ele>343</ele>
        <time>2015-04-26T09:31:58.000Z</time>
      </trkpt>
      <trkpt lat="47.42284" lon="6.68597">
        <ele>343</ele>
        <time>2015-04-26T09:31:59.000Z</time>
      </trkpt>
      <trkpt lat="47.42283" lon="6.68605">
        <ele>343</ele>
        <time>2015-04-26T09:32:00.000Z</time>
      </trkpt>
      <trkpt lat="47.42283" lon="6.68611">
        <ele>343</ele>
        <time>2015-04-26T09:32:01.000Z</time>
      </trkpt>
      <trkpt lat="47.42284" lon="6.68617">
        <ele>343</ele>
        <time>2015-04-26T09:32:02.000Z</time>
      </trkpt>
      <trkpt lat="47.42286" lon="6.68625">
        <ele>343</ele>
        <time>2015-04-26T09:32:03.000Z</time>
      </trkpt>
      <trkpt lat="47.42287" lon="6.68632">
        <ele>343</ele>
        <time>2015-04-26T09:32:04.000Z</time>
      </trkpt>
      <trkpt lat="47.42289" lon="6.68639">
        <ele>343</ele>
        <time>2015-04-26T09:32:05.000Z</time>
      </trkpt>
      <trkpt lat="47.42291" lon="6.68646">
        <ele>343</ele>
        <time>2015-04-26T09:32:06.000Z</time>
      </trkpt>
      <trkpt lat="47.42292" lon="6.68653">
        <ele>344</ele>
        <time>2015-04-26T09:32:07.000Z</time>
      </trkpt>
      <trkpt lat="47.42294" lon="6.6866">
        <ele>344</ele>
        <time>2015-04-26T09:32:08.000Z</time>
      </trkpt>
      <trkpt lat="47.42295" lon="6.68667">
        <ele>344</ele>
        <time>2015-04-26T09:32:09.000Z</time>
      </trkpt>
      <trkpt lat="47.42297" lon="6.68673">
        <ele>344</ele>
        <time>2015-04-26T09:32:10.000Z</time>
      </trkpt>
      <trkpt lat="47.42299" lon="6.68677">
        <ele>344</ele>
        <time>2015-04-26T09:32:11.000Z</time>
      </trkpt>
      <trkpt lat="47.42302" lon="6.6868">
        <ele>344</ele>
        <time>2015-04-26T09:32:12.000Z</time>
      </trkpt>
      <trkpt lat="47.42305" lon="6.68684">
        <ele>344</ele>
        <time>2015-04-26T09:32:13.000Z</time>
      </trkpt>
      <trkpt lat="47.42308" lon="6.68689">
        <ele>344</ele>
        <time>2015-04-26T09:32:14.000Z</time>
      </trkpt>
      <trkpt lat="47.42312" lon="6.68694">
        <ele>344</ele>
        <time>2015-04-26T09:32:15.000Z</time>
      </trkpt>
      <trkpt lat="47.42314" lon="6.68699">
        <ele>344</ele>
        <time>2015-04-26T09:32:16.000Z</time>
      </trkpt>
      <trkpt lat="47.42316" lon="6.68702">
        <ele>344</ele>
        <time>2015-04-26T09:32:17.000Z</time>
      </trkpt>
      <trkpt lat="47.42319" lon="6.68705">
        <ele>344</ele>
        <time>2015-04-26T09:32:18.000Z</time>
      </trkpt>
      <trkpt lat="47.42322" lon="6.68711">
        <ele>344</ele>
        <time>2015-04-26T09:32:19.000Z</time>
      </trkpt>
      <trkpt lat="47.42327" lon="6.68715">
        <ele>344</ele>
        <time>2015-04-26T09:32:20.000Z</time>
      </trkpt>
      <trkpt lat="47.4233" lon="6.68721">
        <ele>344</ele>
        <time>2015-04-26T09:32:21.000Z</time>
      </trkpt>
      <trkpt lat="47.42335" lon="6.68726">
        <ele>345</ele>
        <time>2015-04-26T09:32:22.000Z</time>
      </trkpt>
      <trkpt lat="47.42338" lon="6.68732">
        <ele>345</ele>
        <time>2015-04-26T09:32:23.000Z</time>
      </trkpt>
      <trkpt lat="47.42341" lon="6.68736">
        <ele>345</ele>
        <time>2015-04-26T09:32:24.000Z</time>
      </trkpt>
      <trkpt lat="47.42344" lon="6.68742">
        <ele>344</ele>
        <time>2015-04-26T09:32:25.000Z</time>
      </trkpt>
      <trkpt lat="47.42348" lon="6.68747">
        <ele>345</ele>
        <time>2015-04-26T09:32:26.000Z</time>
      </trkpt>
      <trkpt lat="47.42351" lon="6.68751">
        <ele>344</ele>
        <time>2015-04-26T09:32:27.000Z</time>
      </trkpt>
      <trkpt lat="47.42356" lon="6.68756">
        <ele>345</ele>
        <time>2015-04-26T09:32:28.000Z</time>
      </trkpt>
      <trkpt lat="47.4236" lon="6.68761">
        <ele>345</ele>
        <time>2015-04-26T09:32:29.000Z</time>
      </trkpt>
      <trkpt lat="47.42363" lon="6.68765">
        <ele>345</ele>
        <time>2015-04-26T09:32:30.000Z</time>
      </trkpt>
      <trkpt lat="47.42367" lon="6.68768">
        <ele>345</ele>
        <time>2015-04-26T09:32:31.000Z</time>
      </trkpt>
      <trkpt lat="47.4237" lon="6.68773">
        <ele>345</ele>
        <time>2015-04-26T09:32:32.000Z</time>
      </trkpt>
      <trkpt lat="47.42373" lon="6.68777">
        <ele>345</ele>
        <time>2015-04-26T09:32:33.000Z</time>
      </trkpt>
      <trkpt lat="47.42377" lon="6.6878">
        <ele>345</ele>
        <time>2015-04-26T09:32:34.000Z</time>
      </trkpt>
      <trkpt lat="47.4238" lon="6.68783">
        <ele>345</ele>
        <time>2015-04-26T09:32:35.000Z</time>
      </trkpt>
      <trkpt lat="47.42383" lon="6.68787">
        <ele>345</ele>
        <time>2015-04-26T09:32:36.000Z</time>
      </trkpt>
      <trkpt lat="47.42386" lon="6.68791">
        <ele>345</ele>
        <time>2015-04-26T09:32:37.000Z</time>
      </trkpt>
      <trkpt lat="47.42388" lon="6.68795">
        <ele>346</ele>
        <time>2015-04-26T09:32:38.000Z</time>
      </trkpt>
      <trkpt lat="47.42391" lon="6.68798">
        <ele>346</ele>
        <time>2015-04-26T09:32:39.000Z</time>
      </trkpt>
      <trkpt lat="47.42394" lon="6.68801">
        <ele>346</ele>
        <time>2015-04-26T09:32:40.000Z</time>
      </trkpt>
      <trkpt lat="47.42396" lon="6.68805">
        <ele>346</ele>
        <time>2015-04-26T09:32:41.000Z</time>
      </trkpt>
      <trkpt lat="47.42399" lon="6.68808">
        <ele>346</ele>
        <time>2015-04-26T09:32:42.000Z</time>
      </trkpt>
      <trkpt lat="47.42402" lon="6.68811">
        <ele>346</ele>
        <time>2015-04-26T09:32:43.000Z</time>
      </trkpt>
      <trkpt lat="47.42405" lon="6.68814">
        <ele>346</ele>
        <time>2015-04-26T09:32:44.000Z</time>
      </trkpt>
      <trkpt lat="47.42408" lon="6.68817">
        <ele>346</ele>
        <time>2015-04-26T09:32:45.000Z</time>
      </trkpt>
      <trkpt lat="47.42411" lon="6.6882">
        <ele>346</ele>
        <time>2015-04-26T09:32:46.000Z</time>
      </trkpt>
      <trkpt lat="47.42414" lon="6.68824">
        <ele>346</ele>
        <time>2015-04-26T09:32:47.000Z</time>
      </trkpt>
      <trkpt lat="47.42418" lon="6.68828">
        <ele>347</ele>
        <time>2015-04-26T09:32:48.000Z</time>
      </trkpt>
      <trkpt lat="47.4242" lon="6.68832">
        <ele>347</ele>
        <time>2015-04-26T09:32:49.000Z</time>
      </trkpt>
      <trkpt lat="47.42423" lon="6.68836">
        <ele>347</ele>
        <time>2015-04-26T09:32:50.000Z</time>
      </trkpt>
      <trkpt lat="47.42426" lon="6.6884">
        <ele>347</ele>
        <time>2015-04-26T09:32:51.000Z</time>
      </trkpt>
      <trkpt lat="47.42429" lon="6.68844">
        <ele>348</ele>
        <time>2015-04-26T09:32:52.000Z</time>
      </trkpt>
      <trkpt lat="47.42432" lon="6.68847">
        <ele>348</ele>
        <time>2015-04-26T09:32:53.000Z</time>
      </trkpt>
      <trkpt lat="47.42435" lon="6.6885">
        <ele>348</ele>
        <time>2015-04-26T09:32:54.000Z</time>
      </trkpt>
      <trkpt lat="47.42437" lon="6.68853">
        <ele>349</ele>
        <time>2015-04-26T09:32:55.000Z</time>
      </trkpt>
      <trkpt lat="47.4244" lon="6.68856">
        <ele>349</ele>
        <time>2015-04-26T09:32:56.000Z</time>
      </trkpt>
      <trkpt lat="47.42442" lon="6.68859">
        <ele>349</ele>
        <time>2015-04-26T09:32:57.000Z</time>
      </trkpt>
      <trkpt lat="47.42444" lon="6.68862">
        <ele>349</ele>
        <time>2015-04-26T09:32:58.000Z</time>
      </trkpt>
      <trkpt lat="47.42446" lon="6.68865">
        <ele>349</ele>
        <time>2015-04-26T09:32:59.000Z</time>
      </trkpt>
      <trkpt lat="47.42447" lon="6.68868">
        <ele>349</ele>
        <time>2015-04-26T09:33:00.000Z</time>
      </trkpt>
      <trkpt lat="47.42448" lon="6.68871">
        <ele>349</ele>
        <time>2015-04-26T09:33:01.000Z</time>
      </trkpt>
      <trkpt lat="47.4245" lon="6.68875">
        <ele>349</ele>
        <time>2015-04-26T09:33:02.000Z</time>
      </trkpt>
      <trkpt lat="47.42451" lon="6.68878">
        <ele>349</ele>
        <time>2015-04-26T09:33:03.000Z</time>
      </trkpt>
      <trkpt lat="47.42453" lon="6.68882">
        <ele>349</ele>
        <time>2015-04-26T09:33:04.000Z</time>
      </trkpt>
      <trkpt lat="47.42454" lon="6.68885">
        <ele>349</ele>
        <time>2015-04-26T09:33:05.000Z</time>
      </trkpt>
      <trkpt lat="47.42456" lon="6.68888">
        <ele>349</ele>
        <time>2015-04-26T09:33:06.000Z</time>
      </trkpt>
      <trkpt lat="47.42457" lon="6.6889">
        <ele>349</ele>
        <time>2015-04-26T09:33:07.000Z</time>
      </trkpt>
      <trkpt lat="47.42459" lon="6.68896">
        <ele>350</ele>
        <time>2015-04-26T09:33:09.000Z</time>
      </trkpt>
      <trkpt lat="47.42461" lon="6.68898">
        <ele>350</ele>
        <time>2015-04-26T09:33:10.000Z</time>
      </trkpt>
      <trkpt lat="47.42463" lon="6.68904">
        <ele>350</ele>
        <time>2015-04-26T09:33:12.000Z</time>
      </trkpt>
      <trkpt lat="47.42464" lon="6.68907">
        <ele>350</ele>
        <time>2015-04-26T09:33:13.000Z</time>
      </trkpt>
      <trkpt lat="47.42465" lon="6.6891">
        <ele>350</ele>
        <time>2015-04-26T09:33:14.000Z</time>
      </trkpt>
      <trkpt lat="47.42466" lon="6.68913">
        <ele>350</ele>
        <time>2015-04-26T09:33:15.000Z</time>
      </trkpt>
      <trkpt lat="47.42467" lon="6.68916">
        <ele>350</ele>
        <time>2015-04-26T09:33:16.000Z</time>
      </trkpt>
      <trkpt lat="47.42468" lon="6.68919">
        <ele>349</ele>
        <time>2015-04-26T09:33:17.000Z</time>
      </trkpt>
      <trkpt lat="47.42471" lon="6.68924">
        <ele>349</ele>
        <time>2015-04-26T09:33:19.000Z</time>
      </trkpt>
      <trkpt lat="47.42472" lon="6.68927">
        <ele>349</ele>
        <time>2015-04-26T09:33:20.000Z</time>
      </trkpt>
      <trkpt lat="47.42473" lon="6.68931">
        <ele>349</ele>
        <time>2015-04-26T09:33:22.000Z</time>
      </trkpt>
      <trkpt lat="47.42474" lon="6.68933">
        <ele>349</ele>
        <time>2015-04-26T09:33:23.000Z</time>
      </trkpt>
      <trkpt lat="47.42476" lon="6.68938">
        <ele>349</ele>
        <time>2015-04-26T09:33:25.000Z</time>
      </trkpt>
      <trkpt lat="47.42476" lon="6.6894">
        <ele>349</ele>
        <time>2015-04-26T09:33:26.000Z</time>
      </trkpt>
      <trkpt lat="47.42478" lon="6.68946">
        <ele>350</ele>
        <time>2015-04-26T09:33:35.000Z</time>
      </trkpt>
      <trkpt lat="47.42478" lon="6.68946">
        <ele>350</ele>
        <time>2015-04-26T09:33:36.000Z</time>
      </trkpt>
      <trkpt lat="47.42477" lon="6.6895">
        <ele>350</ele>
        <time>2015-04-26T09:36:03.000Z</time>
      </trkpt>
      <trkpt lat="47.42477" lon="6.68953">
        <ele>350</ele>
        <time>2015-04-26T09:36:04.000Z</time>
      </trkpt>
      <trkpt lat="47.42477" lon="6.68956">
        <ele>350</ele>
        <time>2015-04-26T09:36:05.000Z</time>
      </trkpt>
      <trkpt lat="47.42476" lon="6.6896">
        <ele>350</ele>
        <time>2015-04-26T09:36:06.000Z</time>
      </trkpt>
      <trkpt lat="47.42476" lon="6.68964">
        <ele>350</ele>
        <time>2015-04-26T09:36:07.000Z</time>
      </trkpt>
      <trkpt lat="47.42475" lon="6.6897">
        <ele>350</ele>
        <time>2015-04-26T09:36:08.000Z</time>
      </trkpt>
      <trkpt lat="47.42474" lon="6.68975">
        <ele>350</ele>
        <time>2015-04-26T09:36:09.000Z</time>
      </trkpt>
      <trkpt lat="47.42473" lon="6.68981">
        <ele>350</ele>
        <time>2015-04-26T09:36:10.000Z</time>
      </trkpt>
      <trkpt lat="47.42471" lon="6.68989">
        <ele>350</ele>
        <time>2015-04-26T09:36:11.000Z</time>
      </trkpt>
      <trkpt lat="47.4247" lon="6.68995">
        <ele>350</ele>
        <time>2015-04-26T09:36:12.000Z</time>
      </trkpt>
      <trkpt lat="47.42468" lon="6.69001">
        <ele>352</ele>
        <time>2015-04-26T09:36:13.000Z</time>
      </trkpt>
      <trkpt lat="47.42467" lon="6.69008">
        <ele>352</ele>
        <time>2015-04-26T09:36:14.000Z</time>
      </trkpt>
      <trkpt lat="47.42466" lon="6.69015">
        <ele>352</ele>
        <time>2015-04-26T09:36:15.000Z</time>
      </trkpt>
      <trkpt lat="47.42465" lon="6.69023">
        <ele>352</ele>
        <time>2015-04-26T09:36:16.000Z</time>
      </trkpt>
      <trkpt lat="47.42464" lon="6.69031">
        <ele>353</ele>
        <time>2015-04-26T09:36:17.001Z</time>
      </trkpt>
      <trkpt lat="47.42462" lon="6.69038">
        <ele>353</ele>
        <time>2015-04-26T09:36:18.000Z</time>
      </trkpt>
      <trkpt lat="47.42462" lon="6.69044">
        <ele>353</ele>
        <time>2015-04-26T09:36:19.000Z</time>
      </trkpt>
      <trkpt lat="47.4246" lon="6.6905">
        <ele>353</ele>
        <time>2015-04-26T09:36:20.000Z</time>
      </trkpt>
      <trkpt lat="47.42459" lon="6.69056">
        <ele>353</ele>
        <time>2015-04-26T09:36:21.000Z</time>
      </trkpt>
      <trkpt lat="47.42458" lon="6.69062">
        <ele>353</ele>
        <time>2015-04-26T09:36:22.000Z</time>
      </trkpt>
      <trkpt lat="47.42457" lon="6.69068">
        <ele>354</ele>
        <time>2015-04-26T09:36:23.000Z</time>
      </trkpt>
      <trkpt lat="47.42456" lon="6.69073">
        <ele>354</ele>
        <time>2015-04-26T09:36:24.000Z</time>
      </trkpt>
      <trkpt lat="47.42455" lon="6.69079">
        <ele>354</ele>
        <time>2015-04-26T09:36:25.000Z</time>
      </trkpt>
      <trkpt lat="47.42454" lon="6.69084">
        <ele>357</ele>
        <time>2015-04-26T09:36:26.000Z</time>
      </trkpt>
      <trkpt lat="47.42453" lon="6.69088">
        <ele>356</ele>
        <time>2015-04-26T09:36:27.000Z</time>
      </trkpt>
      <trkpt lat="47.42452" lon="6.69093">
        <ele>356</ele>
        <time>2015-04-26T09:36:28.000Z</time>
      </trkpt>
      <trkpt lat="47.4245" lon="6.69097">
        <ele>356</ele>
        <time>2015-04-26T09:36:29.000Z</time>
      </trkpt>
      <trkpt lat="47.42449" lon="6.69102">
        <ele>356</ele>
        <time>2015-04-26T09:36:30.000Z</time>
      </trkpt>
      <trkpt lat="47.42448" lon="6.69107">
        <ele>356</ele>
        <time>2015-04-26T09:36:31.000Z</time>
      </trkpt>
      <trkpt lat="47.42447" lon="6.69113">
        <ele>357</ele>
        <time>2015-04-26T09:36:32.000Z</time>
      </trkpt>
      <trkpt lat="47.42446" lon="6.69119">
        <ele>357</ele>
        <time>2015-04-26T09:36:33.000Z</time>
      </trkpt>
      <trkpt lat="47.42445" lon="6.69124">
        <ele>357</ele>
        <time>2015-04-26T09:36:34.000Z</time>
      </trkpt>
      <trkpt lat="47.42444" lon="6.6913">
        <ele>357</ele>
        <time>2015-04-26T09:36:35.000Z</time>
      </trkpt>
      <trkpt lat="47.42443" lon="6.69136">
        <ele>357</ele>
        <time>2015-04-26T09:36:35.999Z</time>
      </trkpt>
      <trkpt lat="47.42442" lon="6.69141">
        <ele>356</ele>
        <time>2015-04-26T09:36:37.000Z</time>
      </trkpt>
      <trkpt lat="47.4244" lon="6.69146">
        <ele>356</ele>
        <time>2015-04-26T09:36:38.000Z</time>
      </trkpt>
      <trkpt lat="47.42439" lon="6.69152">
        <ele>356</ele>
        <time>2015-04-26T09:36:39.000Z</time>
      </trkpt>
      <trkpt lat="47.42438" lon="6.69158">
        <ele>355</ele>
        <time>2015-04-26T09:36:40.000Z</time>
      </trkpt>
      <trkpt lat="47.42436" lon="6.69163">
        <ele>355</ele>
        <time>2015-04-26T09:36:41.000Z</time>
      </trkpt>
      <trkpt lat="47.42435" lon="6.69169">
        <ele>356</ele>
        <time>2015-04-26T09:36:42.000Z</time>
      </trkpt>
      <trkpt lat="47.42435" lon="6.69175">
        <ele>357</ele>
        <time>2015-04-26T09:36:43.000Z</time>
      </trkpt>
      <trkpt lat="47.42434" lon="6.6918">
        <ele>357</ele>
        <time>2015-04-26T09:36:44.000Z</time>
      </trkpt>
      <trkpt lat="47.42434" lon="6.69185">
        <ele>357</ele>
        <time>2015-04-26T09:36:45.000Z</time>
      </trkpt>
      <trkpt lat="47.42433" lon="6.69189">
        <ele>358</ele>
        <time>2015-04-26T09:36:45.999Z</time>
      </trkpt>
      <trkpt lat="47.42433" lon="6.69195">
        <ele>358</ele>
        <time>2015-04-26T09:36:47.000Z</time>
      </trkpt>
      <trkpt lat="47.42433" lon="6.692">
        <ele>358</ele>
        <time>2015-04-26T09:36:48.000Z</time>
      </trkpt>
      <trkpt lat="47.42432" lon="6.69206">
        <ele>358</ele>
        <time>2015-04-26T09:36:49.000Z</time>
      </trkpt>
      <trkpt lat="47.42432" lon="6.69212">
        <ele>358</ele>
        <time>2015-04-26T09:36:50.000Z</time>
      </trkpt>
      <trkpt lat="47.42431" lon="6.69218">
        <ele>358</ele>
        <time>2015-04-26T09:36:51.000Z</time>
      </trkpt>
      <trkpt lat="47.4243" lon="6.69223">
        <ele>358</ele>
        <time>2015-04-26T09:36:52.000Z</time>
      </trkpt>
      <trkpt lat="47.42429" lon="6.69228">
        <ele>357</ele>
        <time>2015-04-26T09:36:53.000Z</time>
      </trkpt>
      <trkpt lat="47.42429" lon="6.69233">
        <ele>357</ele>
        <time>2015-04-26T09:36:54.000Z</time>
      </trkpt>
      <trkpt lat="47.42428" lon="6.69239">
        <ele>356</ele>
        <time>2015-04-26T09:36:55.000Z</time>
      </trkpt>
      <trkpt lat="47.42427" lon="6.69245">
        <ele>355</ele>
        <time>2015-04-26T09:36:56.000Z</time>
      </trkpt>
      <trkpt lat="47.42426" lon="6.69251">
        <ele>355</ele>
        <time>2015-04-26T09:36:57.000Z</time>
      </trkpt>
      <trkpt lat="47.42425" lon="6.69257">
        <ele>356</ele>
        <time>2015-04-26T09:36:58.000Z</time>
      </trkpt>
      <trkpt lat="47.42424" lon="6.69263">
        <ele>357</ele>
        <time>2015-04-26T09:36:59.000Z</time>
      </trkpt>
      <trkpt lat="47.42423" lon="6.69269">
        <ele>358</ele>
        <time>2015-04-26T09:37:00.000Z</time>
      </trkpt>
      <trkpt lat="47.42422" lon="6.69275">
        <ele>359</ele>
        <time>2015-04-26T09:37:01.000Z</time>
      </trkpt>
      <trkpt lat="47.42421" lon="6.6928">
        <ele>360</ele>
        <time>2015-04-26T09:37:02.000Z</time>
      </trkpt>
      <trkpt lat="47.4242" lon="6.69286">
        <ele>360</ele>
        <time>2015-04-26T09:37:03.000Z</time>
      </trkpt>
      <trkpt lat="47.42419" lon="6.69292">
        <ele>360</ele>
        <time>2015-04-26T09:37:04.000Z</time>
      </trkpt>
      <trkpt lat="47.42418" lon="6.69298">
        <ele>360</ele>
        <time>2015-04-26T09:37:05.000Z</time>
      </trkpt>
      <trkpt lat="47.42416" lon="6.69304">
        <ele>355</ele>
        <time>2015-04-26T09:37:06.000Z</time>
      </trkpt>
      <trkpt lat="47.42415" lon="6.69309">
        <ele>355</ele>
        <time>2015-04-26T09:37:07.000Z</time>
      </trkpt>
      <trkpt lat="47.42414" lon="6.69315">
        <ele>355</ele>
        <time>2015-04-26T09:37:08.000Z</time>
      </trkpt>
      <trkpt lat="47.42413" lon="6.69321">
        <ele>354</ele>
        <time>2015-04-26T09:37:09.000Z</time>
      </trkpt>
      <trkpt lat="47.42411" lon="6.69327">
        <ele>354</ele>
        <time>2015-04-26T09:37:10.000Z</time>
      </trkpt>
      <trkpt lat="47.4241" lon="6.69332">
        <ele>354</ele>
        <time>2015-04-26T09:37:11.000Z</time>
      </trkpt>
      <trkpt lat="47.42408" lon="6.69338">
        <ele>355</ele>
        <time>2015-04-26T09:37:12.000Z</time>
      </trkpt>
      <trkpt lat="47.42406" lon="6.69344">
        <ele>355</ele>
        <time>2015-04-26T09:37:13.000Z</time>
      </trkpt>
      <trkpt lat="47.42404" lon="6.69349">
        <ele>355</ele>
        <time>2015-04-26T09:37:14.000Z</time>
      </trkpt>
      <trkpt lat="47.42403" lon="6.69354">
        <ele>355</ele>
        <time>2015-04-26T09:37:15.000Z</time>
      </trkpt>
      <trkpt lat="47.42401" lon="6.69361">
        <ele>356</ele>
        <time>2015-04-26T09:37:16.000Z</time>
      </trkpt>
      <trkpt lat="47.424" lon="6.69367">
        <ele>356</ele>
        <time>2015-04-26T09:37:17.000Z</time>
      </trkpt>
      <trkpt lat="47.42398" lon="6.69374">
        <ele>356</ele>
        <time>2015-04-26T09:37:18.000Z</time>
      </trkpt>
      <trkpt lat="47.42396" lon="6.6938">
        <ele>356</ele>
        <time>2015-04-26T09:37:19.000Z</time>
      </trkpt>
      <trkpt lat="47.42394" lon="6.69386">
        <ele>356</ele>
        <time>2015-04-26T09:37:20.000Z</time>
      </trkpt>
      <trkpt lat="47.42394" lon="6.69393">
        <ele>357</ele>
        <time>2015-04-26T09:37:21.000Z</time>
      </trkpt>
      <trkpt lat="47.42392" lon="6.69399">
        <ele>357</ele>
        <time>2015-04-26T09:37:22.000Z</time>
      </trkpt>
      <trkpt lat="47.4239" lon="6.69406">
        <ele>357</ele>
        <time>2015-04-26T09:37:23.000Z</time>
      </trkpt>
      <trkpt lat="47.42388" lon="6.69413">
        <ele>357</ele>
        <time>2015-04-26T09:37:24.000Z</time>
      </trkpt>
      <trkpt lat="47.42387" lon="6.6942">
        <ele>359</ele>
        <time>2015-04-26T09:37:25.000Z</time>
      </trkpt>
      <trkpt lat="47.42385" lon="6.69427">
        <ele>358</ele>
        <time>2015-04-26T09:37:26.000Z</time>
      </trkpt>
      <trkpt lat="47.42384" lon="6.69433">
        <ele>358</ele>
        <time>2015-04-26T09:37:27.000Z</time>
      </trkpt>
      <trkpt lat="47.42383" lon="6.69442">
        <ele>358</ele>
        <time>2015-04-26T09:37:28.000Z</time>
      </trkpt>
      <trkpt lat="47.42382" lon="6.6945">
        <ele>359</ele>
        <time>2015-04-26T09:37:28.999Z</time>
      </trkpt>
      <trkpt lat="47.42379" lon="6.69457">
        <ele>359</ele>
        <time>2015-04-26T09:37:30.000Z</time>
      </trkpt>
      <trkpt lat="47.42377" lon="6.69463">
        <ele>359</ele>
        <time>2015-04-26T09:37:31.000Z</time>
      </trkpt>
      <trkpt lat="47.42376" lon="6.69471">
        <ele>359</ele>
        <time>2015-04-26T09:37:32.000Z</time>
      </trkpt>
      <trkpt lat="47.42374" lon="6.69478">
        <ele>359</ele>
        <time>2015-04-26T09:37:33.000Z</time>
      </trkpt>
      <trkpt lat="47.42372" lon="6.69486">
        <ele>358</ele>
        <time>2015-04-26T09:37:34.000Z</time>
      </trkpt>
      <trkpt lat="47.42371" lon="6.69493">
        <ele>358</ele>
        <time>2015-04-26T09:37:35.000Z</time>
      </trkpt>
      <trkpt lat="47.42369" lon="6.695">
        <ele>358</ele>
        <time>2015-04-26T09:37:36.000Z</time>
      </trkpt>
      <trkpt lat="47.42367" lon="6.69505">
        <ele>361</ele>
        <time>2015-04-26T09:37:37.000Z</time>
      </trkpt>
      <trkpt lat="47.42366" lon="6.69511">
        <ele>361</ele>
        <time>2015-04-26T09:37:38.000Z</time>
      </trkpt>
      <trkpt lat="47.42364" lon="6.69518">
        <ele>361</ele>
        <time>2015-04-26T09:37:39.000Z</time>
      </trkpt>
      <trkpt lat="47.42363" lon="6.69524">
        <ele>362</ele>
        <time>2015-04-26T09:37:40.000Z</time>
      </trkpt>
      <trkpt lat="47.42361" lon="6.69531">
        <ele>362</ele>
        <time>2015-04-26T09:37:41.000Z</time>
      </trkpt>
      <trkpt lat="47.42359" lon="6.69536">
        <ele>362</ele>
        <time>2015-04-26T09:37:42.000Z</time>
      </trkpt>
      <trkpt lat="47.42357" lon="6.69542">
        <ele>362</ele>
        <time>2015-04-26T09:37:43.000Z</time>
      </trkpt>
      <trkpt lat="47.42354" lon="6.69547">
        <ele>362</ele>
        <time>2015-04-26T09:37:44.000Z</time>
      </trkpt>
      <trkpt lat="47.42353" lon="6.69553">
        <ele>362</ele>
        <time>2015-04-26T09:37:45.000Z</time>
      </trkpt>
      <trkpt lat="47.4235" lon="6.69558">
        <ele>362</ele>
        <time>2015-04-26T09:37:46.000Z</time>
      </trkpt>
      <trkpt lat="47.42347" lon="6.69563">
        <ele>361</ele>
        <time>2015-04-26T09:37:47.000Z</time>
      </trkpt>
      <trkpt lat="47.42344" lon="6.69569">
        <ele>361</ele>
        <time>2015-04-26T09:37:48.000Z</time>
      </trkpt>
      <trkpt lat="47.42341" lon="6.69574">
        <ele>360</ele>
        <time>2015-04-26T09:37:49.000Z</time>
      </trkpt>
      <trkpt lat="47.4234" lon="6.69579">
        <ele>359</ele>
        <time>2015-04-26T09:37:50.000Z</time>
      </trkpt>
      <trkpt lat="47.42337" lon="6.69584">
        <ele>359</ele>
        <time>2015-04-26T09:37:51.000Z</time>
      </trkpt>
      <trkpt lat="47.42335" lon="6.69588">
        <ele>360</ele>
        <time>2015-04-26T09:37:52.000Z</time>
      </trkpt>
      <trkpt lat="47.42334" lon="6.69592">
        <ele>361</ele>
        <time>2015-04-26T09:37:53.000Z</time>
      </trkpt>
      <trkpt lat="47.42332" lon="6.69596">
        <ele>358</ele>
        <time>2015-04-26T09:37:54.000Z</time>
      </trkpt>
      <trkpt lat="47.42331" lon="6.69601">
        <ele>358</ele>
        <time>2015-04-26T09:37:55.000Z</time>
      </trkpt>
      <trkpt lat="47.4233" lon="6.69607">
        <ele>358</ele>
        <time>2015-04-26T09:37:56.001Z</time>
      </trkpt>
      <trkpt lat="47.42326" lon="6.6961">
        <ele>358</ele>
        <time>2015-04-26T09:37:57.000Z</time>
      </trkpt>
      <trkpt lat="47.42325" lon="6.69614">
        <ele>358</ele>
        <time>2015-04-26T09:37:58.000Z</time>
      </trkpt>
      <trkpt lat="47.42322" lon="6.69617">
        <ele>359</ele>
        <time>2015-04-26T09:37:59.000Z</time>
      </trkpt>
      <trkpt lat="47.42319" lon="6.6962">
        <ele>359</ele>
        <time>2015-04-26T09:38:00.000Z</time>
      </trkpt>
      <trkpt lat="47.42316" lon="6.69622">
        <ele>359</ele>
        <time>2015-04-26T09:38:01.000Z</time>
      </trkpt>
      <trkpt lat="47.42314" lon="6.69625">
        <ele>359</ele>
        <time>2015-04-26T09:38:01.999Z</time>
      </trkpt>
      <trkpt lat="47.4231" lon="6.69628">
        <ele>359</ele>
        <time>2015-04-26T09:38:03.000Z</time>
      </trkpt>
      <trkpt lat="47.42306" lon="6.69631">
        <ele>359</ele>
        <time>2015-04-26T09:38:04.000Z</time>
      </trkpt>
      <trkpt lat="47.42303" lon="6.69634">
        <ele>359</ele>
        <time>2015-04-26T09:38:05.000Z</time>
      </trkpt>
      <trkpt lat="47.42299" lon="6.69637">
        <ele>359</ele>
        <time>2015-04-26T09:38:06.000Z</time>
      </trkpt>
      <trkpt lat="47.42296" lon="6.69639">
        <ele>359</ele>
        <time>2015-04-26T09:38:07.000Z</time>
      </trkpt>
      <trkpt lat="47.42294" lon="6.69642">
        <ele>359</ele>
        <time>2015-04-26T09:38:08.000Z</time>
      </trkpt>
      <trkpt lat="47.42291" lon="6.69651">
        <ele>359</ele>
        <time>2015-04-26T09:38:09.000Z</time>
      </trkpt>
      <trkpt lat="47.42288" lon="6.69657">
        <ele>359</ele>
        <time>2015-04-26T09:38:10.000Z</time>
      </trkpt>
      <trkpt lat="47.42287" lon="6.69664">
        <ele>358</ele>
        <time>2015-04-26T09:38:11.000Z</time>
      </trkpt>
      <trkpt lat="47.42285" lon="6.6967">
        <ele>362</ele>
        <time>2015-04-26T09:38:12.000Z</time>
      </trkpt>
      <trkpt lat="47.42284" lon="6.69674">
        <ele>362</ele>
        <time>2015-04-26T09:38:13.000Z</time>
      </trkpt>
      <trkpt lat="47.42286" lon="6.69682">
        <ele>362</ele>
        <time>2015-04-26T09:38:14.000Z</time>
      </trkpt>
      <trkpt lat="47.42285" lon="6.69687">
        <ele>362</ele>
        <time>2015-04-26T09:38:15.000Z</time>
      </trkpt>
      <trkpt lat="47.42286" lon="6.69698">
        <ele>363</ele>
        <time>2015-04-26T09:38:16.000Z</time>
      </trkpt>
      <trkpt lat="47.42285" lon="6.69703">
        <ele>363</ele>
        <time>2015-04-26T09:38:17.000Z</time>
      </trkpt>
      <trkpt lat="47.42285" lon="6.69709">
        <ele>363</ele>
        <time>2015-04-26T09:38:18.000Z</time>
      </trkpt>
      <trkpt lat="47.42285" lon="6.69715">
        <ele>363</ele>
        <time>2015-04-26T09:38:19.000Z</time>
      </trkpt>
      <trkpt lat="47.42285" lon="6.69721">
        <ele>364</ele>
        <time>2015-04-26T09:38:20.000Z</time>
      </trkpt>
      <trkpt lat="47.42286" lon="6.69726">
        <ele>364</ele>
        <time>2015-04-26T09:38:21.000Z</time>
      </trkpt>
      <trkpt lat="47.42287" lon="6.69734">
        <ele>364</ele>
        <time>2015-04-26T09:38:22.000Z</time>
      </trkpt>
      <trkpt lat="47.42287" lon="6.6974">
        <ele>364</ele>
        <time>2015-04-26T09:38:22.999Z</time>
      </trkpt>
      <trkpt lat="47.42287" lon="6.69744">
        <ele>364</ele>
        <time>2015-04-26T09:38:24.000Z</time>
      </trkpt>
      <trkpt lat="47.42287" lon="6.69749">
        <ele>364</ele>
        <time>2015-04-26T09:38:25.000Z</time>
      </trkpt>
      <trkpt lat="47.42288" lon="6.69752">
        <ele>367</ele>
        <time>2015-04-26T09:38:26.000Z</time>
      </trkpt>
      <trkpt lat="47.42289" lon="6.69755">
        <ele>367</ele>
        <time>2015-04-26T09:38:27.000Z</time>
      </trkpt>
      <trkpt lat="47.4229" lon="6.69761">
        <ele>368</ele>
        <time>2015-04-26T09:38:28.000Z</time>
      </trkpt>
      <trkpt lat="47.42291" lon="6.69765">
        <ele>368</ele>
        <time>2015-04-26T09:38:29.000Z</time>
      </trkpt>
      <trkpt lat="47.42291" lon="6.69769">
        <ele>368</ele>
        <time>2015-04-26T09:38:30.000Z</time>
      </trkpt>
      <trkpt lat="47.42291" lon="6.69772">
        <ele>368</ele>
        <time>2015-04-26T09:38:31.000Z</time>
      </trkpt>
      <trkpt lat="47.42291" lon="6.69776">
        <ele>368</ele>
        <time>2015-04-26T09:38:32.000Z</time>
      </trkpt>
      <trkpt lat="47.42291" lon="6.6978">
        <ele>368</ele>
        <time>2015-04-26T09:38:33.000Z</time>
      </trkpt>
      <trkpt lat="47.4229" lon="6.69784">
        <ele>368</ele>
        <time>2015-04-26T09:38:34.000Z</time>
      </trkpt>
      <trkpt lat="47.4229" lon="6.69793">
        <ele>368</ele>
        <time>2015-04-26T09:38:36.000Z</time>
      </trkpt>
      <trkpt lat="47.4229" lon="6.69797">
        <ele>368</ele>
        <time>2015-04-26T09:38:37.000Z</time>
      </trkpt>
      <trkpt lat="47.42291" lon="6.69802">
        <ele>368</ele>
        <time>2015-04-26T09:38:38.000Z</time>
      </trkpt>
      <trkpt lat="47.42292" lon="6.69806">
        <ele>369</ele>
        <time>2015-04-26T09:38:39.000Z</time>
      </trkpt>
      <trkpt lat="47.42292" lon="6.6981">
        <ele>369</ele>
        <time>2015-04-26T09:38:40.000Z</time>
      </trkpt>
      <trkpt lat="47.42293" lon="6.69814">
        <ele>369</ele>
        <time>2015-04-26T09:38:41.002Z</time>
      </trkpt>
      <trkpt lat="47.4229" lon="6.69816">
        <ele>369</ele>
        <time>2015-04-26T09:38:42.000Z</time>
      </trkpt>
      <trkpt lat="47.42287" lon="6.69818">
        <ele>368</ele>
        <time>2015-04-26T09:38:43.000Z</time>
      </trkpt>
      <trkpt lat="47.42284" lon="6.6982">
        <ele>368</ele>
        <time>2015-04-26T09:38:44.000Z</time>
      </trkpt>
      <trkpt lat="47.42281" lon="6.69823">
        <ele>368</ele>
        <time>2015-04-26T09:38:45.000Z</time>
      </trkpt>
      <trkpt lat="47.42279" lon="6.69826">
        <ele>368</ele>
        <time>2015-04-26T09:38:46.000Z</time>
      </trkpt>
      <trkpt lat="47.42277" lon="6.6983">
        <ele>368</ele>
        <time>2015-04-26T09:38:47.000Z</time>
      </trkpt>
      <trkpt lat="47.42276" lon="6.69834">
        <ele>369</ele>
        <time>2015-04-26T09:38:48.000Z</time>
      </trkpt>
      <trkpt lat="47.42276" lon="6.69839">
        <ele>369</ele>
        <time>2015-04-26T09:38:49.000Z</time>
      </trkpt>
      <trkpt lat="47.42276" lon="6.69843">
        <ele>369</ele>
        <time>2015-04-26T09:38:50.000Z</time>
      </trkpt>
      <trkpt lat="47.42276" lon="6.69847">
        <ele>369</ele>
        <time>2015-04-26T09:38:51.000Z</time>
      </trkpt>
      <trkpt lat="47.42276" lon="6.69851">
        <ele>369</ele>
        <time>2015-04-26T09:38:52.000Z</time>
      </trkpt>
      <trkpt lat="47.42276" lon="6.69854">
        <ele>369</ele>
        <time>2015-04-26T09:38:53.000Z</time>
      </trkpt>
      <trkpt lat="47.42276" lon="6.69858">
        <ele>369</ele>
        <time>2015-04-26T09:38:54.000Z</time>
      </trkpt>
      <trkpt lat="47.42277" lon="6.69862">
        <ele>370</ele>
        <time>2015-04-26T09:38:55.000Z</time>
      </trkpt>
      <trkpt lat="47.42277" lon="6.69865">
        <ele>370</ele>
        <time>2015-04-26T09:38:56.000Z</time>
      </trkpt>
      <trkpt lat="47.42281" lon="6.69866">
        <ele>370</ele>
        <time>2015-04-26T09:38:57.000Z</time>
      </trkpt>
      <trkpt lat="47.42285" lon="6.69868">
        <ele>370</ele>
        <time>2015-04-26T09:38:58.000Z</time>
      </trkpt>
      <trkpt lat="47.42288" lon="6.6987">
        <ele>370</ele>
        <time>2015-04-26T09:38:59.000Z</time>
      </trkpt>
      <trkpt lat="47.42292" lon="6.69871">
        <ele>370</ele>
        <time>2015-04-26T09:39:00.000Z</time>
      </trkpt>
      <trkpt lat="47.42296" lon="6.69873">
        <ele>370</ele>
        <time>2015-04-26T09:39:01.000Z</time>
      </trkpt>
      <trkpt lat="47.42299" lon="6.69875">
        <ele>371</ele>
        <time>2015-04-26T09:39:02.000Z</time>
      </trkpt>
      <trkpt lat="47.42302" lon="6.69878">
        <ele>371</ele>
        <time>2015-04-26T09:39:03.000Z</time>
      </trkpt>
      <trkpt lat="47.42306" lon="6.69879">
        <ele>371</ele>
        <time>2015-04-26T09:39:04.000Z</time>
      </trkpt>
      <trkpt lat="47.42309" lon="6.69881">
        <ele>371</ele>
        <time>2015-04-26T09:39:05.000Z</time>
      </trkpt>
      <trkpt lat="47.42313" lon="6.69882">
        <ele>371</ele>
        <time>2015-04-26T09:39:06.000Z</time>
      </trkpt>
      <trkpt lat="47.42317" lon="6.69882">
        <ele>371</ele>
        <time>2015-04-26T09:39:07.000Z</time>
      </trkpt>
      <trkpt lat="47.42321" lon="6.69883">
        <ele>371</ele>
        <time>2015-04-26T09:39:08.000Z</time>
      </trkpt>
      <trkpt lat="47.42325" lon="6.69882">
        <ele>371</ele>
        <time>2015-04-26T09:39:09.000Z</time>
      </trkpt>
      <trkpt lat="47.42328" lon="6.69882">
        <ele>371</ele>
        <time>2015-04-26T09:39:09.999Z</time>
      </trkpt>
      <trkpt lat="47.42332" lon="6.69878">
        <ele>371</ele>
        <time>2015-04-26T09:39:11.000Z</time>
      </trkpt>
      <trkpt lat="47.42335" lon="6.69876">
        <ele>381</ele>
        <time>2015-04-26T09:39:12.000Z</time>
      </trkpt>
      <trkpt lat="47.42338" lon="6.69873">
        <ele>381</ele>
        <time>2015-04-26T09:39:13.000Z</time>
      </trkpt>
      <trkpt lat="47.4234" lon="6.69871">
        <ele>381</ele>
        <time>2015-04-26T09:39:14.000Z</time>
      </trkpt>
      <trkpt lat="47.42342" lon="6.69867">
        <ele>381</ele>
        <time>2015-04-26T09:39:15.000Z</time>
      </trkpt>
      <trkpt lat="47.42343" lon="6.69863">
        <ele>381</ele>
        <time>2015-04-26T09:39:16.000Z</time>
      </trkpt>
      <trkpt lat="47.42344" lon="6.69858">
        <ele>381</ele>
        <time>2015-04-26T09:39:17.000Z</time>
      </trkpt>
      <trkpt lat="47.42345" lon="6.69854">
        <ele>381</ele>
        <time>2015-04-26T09:39:18.000Z</time>
      </trkpt>
      <trkpt lat="47.42345" lon="6.6985">
        <ele>380</ele>
        <time>2015-04-26T09:39:19.001Z</time>
      </trkpt>
      <trkpt lat="47.42345" lon="6.69844">
        <ele>379</ele>
        <time>2015-04-26T09:39:20.000Z</time>
      </trkpt>
      <trkpt lat="47.42344" lon="6.6984">
        <ele>379</ele>
        <time>2015-04-26T09:39:21.000Z</time>
      </trkpt>
      <trkpt lat="47.42343" lon="6.69836">
        <ele>378</ele>
        <time>2015-04-26T09:39:22.000Z</time>
      </trkpt>
      <trkpt lat="47.42343" lon="6.69832">
        <ele>377</ele>
        <time>2015-04-26T09:39:23.000Z</time>
      </trkpt>
      <trkpt lat="47.42341" lon="6.69829">
        <ele>377</ele>
        <time>2015-04-26T09:39:24.000Z</time>
      </trkpt>
      <trkpt lat="47.42339" lon="6.69823">
        <ele>378</ele>
        <time>2015-04-26T09:39:26.000Z</time>
      </trkpt>
      <trkpt lat="47.42338" lon="6.6982">
        <ele>378</ele>
        <time>2015-04-26T09:39:27.000Z</time>
      </trkpt>
      <trkpt lat="47.42338" lon="6.69816">
        <ele>379</ele>
        <time>2015-04-26T09:39:28.000Z</time>
      </trkpt>
      <trkpt lat="47.42337" lon="6.69813">
        <ele>379</ele>
        <time>2015-04-26T09:39:28.999Z</time>
      </trkpt>
      <trkpt lat="47.42337" lon="6.69806">
        <ele>380</ele>
        <time>2015-04-26T09:39:31.000Z</time>
      </trkpt>
      <trkpt lat="47.42336" lon="6.69803">
        <ele>380</ele>
        <time>2015-04-26T09:39:32.000Z</time>
      </trkpt>
      <trkpt lat="47.42336" lon="6.698">
        <ele>380</ele>
        <time>2015-04-26T09:39:33.000Z</time>
      </trkpt>
      <trkpt lat="47.42336" lon="6.69796">
        <ele>380</ele>
        <time>2015-04-26T09:39:34.000Z</time>
      </trkpt>
      <trkpt lat="47.42335" lon="6.69788">
        <ele>380</ele>
        <time>2015-04-26T09:39:36.000Z</time>
      </trkpt>
      <trkpt lat="47.42334" lon="6.69784">
        <ele>380</ele>
        <time>2015-04-26T09:39:36.999Z</time>
      </trkpt>
      <trkpt lat="47.42334" lon="6.69778">
        <ele>379</ele>
        <time>2015-04-26T09:39:38.000Z</time>
      </trkpt>
      <trkpt lat="47.42333" lon="6.69773">
        <ele>371</ele>
        <time>2015-04-26T09:39:39.000Z</time>
      </trkpt>
      <trkpt lat="47.42332" lon="6.69769">
        <ele>371</ele>
        <time>2015-04-26T09:39:39.999Z</time>
      </trkpt>
      <trkpt lat="47.42332" lon="6.69761">
        <ele>371</ele>
        <time>2015-04-26T09:39:41.000Z</time>
      </trkpt>
      <trkpt lat="47.42332" lon="6.69756">
        <ele>372</ele>
        <time>2015-04-26T09:39:42.000Z</time>
      </trkpt>
      <trkpt lat="47.42333" lon="6.69748">
        <ele>372</ele>
        <time>2015-04-26T09:39:43.000Z</time>
      </trkpt>
      <trkpt lat="47.42332" lon="6.69744">
        <ele>371</ele>
        <time>2015-04-26T09:39:44.000Z</time>
      </trkpt>
      <trkpt lat="47.42334" lon="6.69739">
        <ele>375</ele>
        <time>2015-04-26T09:39:45.000Z</time>
      </trkpt>
      <trkpt lat="47.42335" lon="6.69734">
        <ele>376</ele>
        <time>2015-04-26T09:39:46.000Z</time>
      </trkpt>
      <trkpt lat="47.42337" lon="6.6973">
        <ele>376</ele>
        <time>2015-04-26T09:39:47.000Z</time>
      </trkpt>
      <trkpt lat="47.42338" lon="6.69725">
        <ele>376</ele>
        <time>2015-04-26T09:39:48.000Z</time>
      </trkpt>
      <trkpt lat="47.42339" lon="6.6972">
        <ele>376</ele>
        <time>2015-04-26T09:39:49.000Z</time>
      </trkpt>
      <trkpt lat="47.42341" lon="6.69715">
        <ele>376</ele>
        <time>2015-04-26T09:39:50.000Z</time>
      </trkpt>
      <trkpt lat="47.42342" lon="6.6971">
        <ele>376</ele>
        <time>2015-04-26T09:39:51.000Z</time>
      </trkpt>
      <trkpt lat="47.42343" lon="6.69705">
        <ele>376</ele>
        <time>2015-04-26T09:39:51.999Z</time>
      </trkpt>
      <trkpt lat="47.42345" lon="6.697">
        <ele>376</ele>
        <time>2015-04-26T09:39:53.000Z</time>
      </trkpt>
      <trkpt lat="47.42347" lon="6.69695">
        <ele>375</ele>
        <time>2015-04-26T09:39:54.000Z</time>
      </trkpt>
      <trkpt lat="47.42348" lon="6.69691">
        <ele>375</ele>
        <time>2015-04-26T09:39:55.000Z</time>
      </trkpt>
      <trkpt lat="47.4235" lon="6.69688">
        <ele>375</ele>
        <time>2015-04-26T09:39:56.000Z</time>
      </trkpt>
      <trkpt lat="47.42351" lon="6.69684">
        <ele>375</ele>
        <time>2015-04-26T09:39:57.000Z</time>
      </trkpt>
      <trkpt lat="47.42353" lon="6.6968">
        <ele>375</ele>
        <time>2015-04-26T09:39:58.000Z</time>
      </trkpt>
      <trkpt lat="47.42354" lon="6.69677">
        <ele>375</ele>
        <time>2015-04-26T09:39:59.000Z</time>
      </trkpt>
      <trkpt lat="47.42355" lon="6.69673">
        <ele>375</ele>
        <time>2015-04-26T09:40:00.000Z</time>
      </trkpt>
      <trkpt lat="47.42356" lon="6.6967">
        <ele>375</ele>
        <time>2015-04-26T09:40:01.000Z</time>
      </trkpt>
      <trkpt lat="47.42358" lon="6.69667">
        <ele>375</ele>
        <time>2015-04-26T09:40:02.000Z</time>
      </trkpt>
      <trkpt lat="47.4236" lon="6.69664">
        <ele>371</ele>
        <time>2015-04-26T09:40:03.000Z</time>
      </trkpt>
      <trkpt lat="47.42363" lon="6.69661">
        <ele>372</ele>
        <time>2015-04-26T09:40:04.000Z</time>
      </trkpt>
      <trkpt lat="47.42366" lon="6.69659">
        <ele>372</ele>
        <time>2015-04-26T09:40:05.000Z</time>
      </trkpt>
      <trkpt lat="47.42369" lon="6.69656">
        <ele>373</ele>
        <time>2015-04-26T09:40:06.000Z</time>
      </trkpt>
      <trkpt lat="47.42372" lon="6.69654">
        <ele>373</ele>
        <time>2015-04-26T09:40:07.000Z</time>
      </trkpt>
      <trkpt lat="47.42376" lon="6.69651">
        <ele>374</ele>
        <time>2015-04-26T09:40:08.000Z</time>
      </trkpt>
      <trkpt lat="47.42379" lon="6.69648">
        <ele>374</ele>
        <time>2015-04-26T09:40:09.000Z</time>
      </trkpt>
      <trkpt lat="47.42382" lon="6.69646">
        <ele>374</ele>
        <time>2015-04-26T09:40:10.000Z</time>
      </trkpt>
      <trkpt lat="47.42384" lon="6.69643">
        <ele>374</ele>
        <time>2015-04-26T09:40:10.999Z</time>
      </trkpt>
      <trkpt lat="47.42388" lon="6.69641">
        <ele>375</ele>
        <time>2015-04-26T09:40:12.000Z</time>
      </trkpt>
      <trkpt lat="47.42391" lon="6.69638">
        <ele>375</ele>
        <time>2015-04-26T09:40:13.000Z</time>
      </trkpt>
      <trkpt lat="47.42394" lon="6.69635">
        <ele>375</ele>
        <time>2015-04-26T09:40:13.998Z</time>
      </trkpt>
      <trkpt lat="47.42397" lon="6.69632">
        <ele>375</ele>
        <time>2015-04-26T09:40:15.000Z</time>
      </trkpt>
      <trkpt lat="47.424" lon="6.69629">
        <ele>375</ele>
        <time>2015-04-26T09:40:16.000Z</time>
      </trkpt>
      <trkpt lat="47.42402" lon="6.69626">
        <ele>375</ele>
        <time>2015-04-26T09:40:16.999Z</time>
      </trkpt>
      <trkpt lat="47.42405" lon="6.69623">
        <ele>375</ele>
        <time>2015-04-26T09:40:18.000Z</time>
      </trkpt>
      <trkpt lat="47.42408" lon="6.6962">
        <ele>375</ele>
        <time>2015-04-26T09:40:19.000Z</time>
      </trkpt>
      <trkpt lat="47.42411" lon="6.69616">
        <ele>375</ele>
        <time>2015-04-26T09:40:20.000Z</time>
      </trkpt>
      <trkpt lat="47.42414" lon="6.69613">
        <ele>376</ele>
        <time>2015-04-26T09:40:21.000Z</time>
      </trkpt>
      <trkpt lat="47.42417" lon="6.69609">
        <ele>385</ele>
        <time>2015-04-26T09:40:22.000Z</time>
      </trkpt>
      <trkpt lat="47.4242" lon="6.69606">
        <ele>385</ele>
        <time>2015-04-26T09:40:23.000Z</time>
      </trkpt>
      <trkpt lat="47.42423" lon="6.69602">
        <ele>384</ele>
        <time>2015-04-26T09:40:24.000Z</time>
      </trkpt>
      <trkpt lat="47.42425" lon="6.69598">
        <ele>384</ele>
        <time>2015-04-26T09:40:25.000Z</time>
      </trkpt>
      <trkpt lat="47.42428" lon="6.69595">
        <ele>384</ele>
        <time>2015-04-26T09:40:26.000Z</time>
      </trkpt>
      <trkpt lat="47.4243" lon="6.69592">
        <ele>384</ele>
        <time>2015-04-26T09:40:27.000Z</time>
      </trkpt>
      <trkpt lat="47.42433" lon="6.69589">
        <ele>384</ele>
        <time>2015-04-26T09:40:28.001Z</time>
      </trkpt>
      <trkpt lat="47.42435" lon="6.69586">
        <ele>384</ele>
        <time>2015-04-26T09:40:29.000Z</time>
      </trkpt>
      <trkpt lat="47.42437" lon="6.69583">
        <ele>381</ele>
        <time>2015-04-26T09:40:30.000Z</time>
      </trkpt>
      <trkpt lat="47.4244" lon="6.69581">
        <ele>381</ele>
        <time>2015-04-26T09:40:31.000Z</time>
      </trkpt>
      <trkpt lat="47.42442" lon="6.69578">
        <ele>382</ele>
        <time>2015-04-26T09:40:31.999Z</time>
      </trkpt>
      <trkpt lat="47.42445" lon="6.69575">
        <ele>382</ele>
        <time>2015-04-26T09:40:32.999Z</time>
      </trkpt>
      <trkpt lat="47.42447" lon="6.69573">
        <ele>382</ele>
        <time>2015-04-26T09:40:34.000Z</time>
      </trkpt>
      <trkpt lat="47.4245" lon="6.69571">
        <ele>382</ele>
        <time>2015-04-26T09:40:35.000Z</time>
      </trkpt>
      <trkpt lat="47.42453" lon="6.69568">
        <ele>383</ele>
        <time>2015-04-26T09:40:37.000Z</time>
      </trkpt>
      <trkpt lat="47.42456" lon="6.6957">
        <ele>383</ele>
        <time>2015-04-26T09:40:38.000Z</time>
      </trkpt>
      <trkpt lat="47.42459" lon="6.69572">
        <ele>383</ele>
        <time>2015-04-26T09:40:39.000Z</time>
      </trkpt>
      <trkpt lat="47.42462" lon="6.69574">
        <ele>384</ele>
        <time>2015-04-26T09:40:40.000Z</time>
      </trkpt>
      <trkpt lat="47.42463" lon="6.69578">
        <ele>384</ele>
        <time>2015-04-26T09:40:41.000Z</time>
      </trkpt>
      <trkpt lat="47.42464" lon="6.69582">
        <ele>384</ele>
        <time>2015-04-26T09:40:42.000Z</time>
      </trkpt>
      <trkpt lat="47.42464" lon="6.69587">
        <ele>389</ele>
        <time>2015-04-26T09:40:43.000Z</time>
      </trkpt>
      <trkpt lat="47.42464" lon="6.69591">
        <ele>389</ele>
        <time>2015-04-26T09:40:44.000Z</time>
      </trkpt>
      <trkpt lat="47.42462" lon="6.69595">
        <ele>388</ele>
        <time>2015-04-26T09:40:45.000Z</time>
      </trkpt>
      <trkpt lat="47.4246" lon="6.69598">
        <ele>388</ele>
        <time>2015-04-26T09:40:46.000Z</time>
      </trkpt>
      <trkpt lat="47.42457" lon="6.69601">
        <ele>388</ele>
        <time>2015-04-26T09:40:47.000Z</time>
      </trkpt>
      <trkpt lat="47.42454" lon="6.69604">
        <ele>388</ele>
        <time>2015-04-26T09:40:48.000Z</time>
      </trkpt>
      <trkpt lat="47.4245" lon="6.69606">
        <ele>388</ele>
        <time>2015-04-26T09:40:49.000Z</time>
      </trkpt>
      <trkpt lat="47.42447" lon="6.69609">
        <ele>387</ele>
        <time>2015-04-26T09:40:50.000Z</time>
      </trkpt>
      <trkpt lat="47.42444" lon="6.69612">
        <ele>387</ele>
        <time>2015-04-26T09:40:50.998Z</time>
      </trkpt>
      <trkpt lat="47.42442" lon="6.69616">
        <ele>387</ele>
        <time>2015-04-26T09:40:52.000Z</time>
      </trkpt>
      <trkpt lat="47.42439" lon="6.6962">
        <ele>387</ele>
        <time>2015-04-26T09:40:53.000Z</time>
      </trkpt>
      <trkpt lat="47.42437" lon="6.69623">
        <ele>387</ele>
        <time>2015-04-26T09:40:54.000Z</time>
      </trkpt>
      <trkpt lat="47.42435" lon="6.69626">
        <ele>387</ele>
        <time>2015-04-26T09:40:55.000Z</time>
      </trkpt>
      <trkpt lat="47.42433" lon="6.69629">
        <ele>387</ele>
        <time>2015-04-26T09:40:56.000Z</time>
      </trkpt>
      <trkpt lat="47.42431" lon="6.69633">
        <ele>387</ele>
        <time>2015-04-26T09:40:57.000Z</time>
      </trkpt>
      <trkpt lat="47.42429" lon="6.69636">
        <ele>387</ele>
        <time>2015-04-26T09:40:58.000Z</time>
      </trkpt>
      <trkpt lat="47.42428" lon="6.6964">
        <ele>387</ele>
        <time>2015-04-26T09:40:59.000Z</time>
      </trkpt>
      <trkpt lat="47.42426" lon="6.69644">
        <ele>387</ele>
        <time>2015-04-26T09:41:00.000Z</time>
      </trkpt>
      <trkpt lat="47.42425" lon="6.69648">
        <ele>387</ele>
        <time>2015-04-26T09:41:01.000Z</time>
      </trkpt>
      <trkpt lat="47.42424" lon="6.69651">
        <ele>387</ele>
        <time>2015-04-26T09:41:02.000Z</time>
      </trkpt>
      <trkpt lat="47.42424" lon="6.69655">
        <ele>387</ele>
        <time>2015-04-26T09:41:03.000Z</time>
      </trkpt>
      <trkpt lat="47.42423" lon="6.69658">
        <ele>387</ele>
        <time>2015-04-26T09:41:04.000Z</time>
      </trkpt>
      <trkpt lat="47.42422" lon="6.69661">
        <ele>387</ele>
        <time>2015-04-26T09:41:04.999Z</time>
      </trkpt>
      <trkpt lat="47.42422" lon="6.69665">
        <ele>387</ele>
        <time>2015-04-26T09:41:06.000Z</time>
      </trkpt>
      <trkpt lat="47.42422" lon="6.6967">
        <ele>388</ele>
        <time>2015-04-26T09:41:07.000Z</time>
      </trkpt>
      <trkpt lat="47.42421" lon="6.69674">
        <ele>389</ele>
        <time>2015-04-26T09:41:08.000Z</time>
      </trkpt>
      <trkpt lat="47.42421" lon="6.69679">
        <ele>390</ele>
        <time>2015-04-26T09:41:09.000Z</time>
      </trkpt>
      <trkpt lat="47.4242" lon="6.69684">
        <ele>390</ele>
        <time>2015-04-26T09:41:10.000Z</time>
      </trkpt>
      <trkpt lat="47.4242" lon="6.69689">
        <ele>391</ele>
        <time>2015-04-26T09:41:11.000Z</time>
      </trkpt>
      <trkpt lat="47.4242" lon="6.69695">
        <ele>392</ele>
        <time>2015-04-26T09:41:12.000Z</time>
      </trkpt>
      <trkpt lat="47.4242" lon="6.69701">
        <ele>392</ele>
        <time>2015-04-26T09:41:13.000Z</time>
      </trkpt>
      <trkpt lat="47.42419" lon="6.69707">
        <ele>393</ele>
        <time>2015-04-26T09:41:14.000Z</time>
      </trkpt>
      <trkpt lat="47.42419" lon="6.69713">
        <ele>393</ele>
        <time>2015-04-26T09:41:15.000Z</time>
      </trkpt>
      <trkpt lat="47.42419" lon="6.69718">
        <ele>393</ele>
        <time>2015-04-26T09:41:16.000Z</time>
      </trkpt>
      <trkpt lat="47.42419" lon="6.69723">
        <ele>393</ele>
        <time>2015-04-26T09:41:17.000Z</time>
      </trkpt>
      <trkpt lat="47.42418" lon="6.69728">
        <ele>393</ele>
        <time>2015-04-26T09:41:18.000Z</time>
      </trkpt>
      <trkpt lat="47.42418" lon="6.69732">
        <ele>393</ele>
        <time>2015-04-26T09:41:19.000Z</time>
      </trkpt>
      <trkpt lat="47.42417" lon="6.69736">
        <ele>393</ele>
        <time>2015-04-26T09:41:20.000Z</time>
      </trkpt>
      <trkpt lat="47.42417" lon="6.6974">
        <ele>392</ele>
        <time>2015-04-26T09:41:21.000Z</time>
      </trkpt>
      <trkpt lat="47.42417" lon="6.69744">
        <ele>392</ele>
        <time>2015-04-26T09:41:22.000Z</time>
      </trkpt>
      <trkpt lat="47.42416" lon="6.69747">
        <ele>390</ele>
        <time>2015-04-26T09:41:23.000Z</time>
      </trkpt>
      <trkpt lat="47.42416" lon="6.69751">
        <ele>391</ele>
        <time>2015-04-26T09:41:24.000Z</time>
      </trkpt>
      <trkpt lat="47.42415" lon="6.69755">
        <ele>390</ele>
        <time>2015-04-26T09:41:25.000Z</time>
      </trkpt>
      <trkpt lat="47.42414" lon="6.69758">
        <ele>389</ele>
        <time>2015-04-26T09:41:26.000Z</time>
      </trkpt>
      <trkpt lat="47.42413" lon="6.69762">
        <ele>389</ele>
        <time>2015-04-26T09:41:27.000Z</time>
      </trkpt>
      <trkpt lat="47.42411" lon="6.69766">
        <ele>388</ele>
        <time>2015-04-26T09:41:28.000Z</time>
      </trkpt>
      <trkpt lat="47.4241" lon="6.69769">
        <ele>388</ele>
        <time>2015-04-26T09:41:29.000Z</time>
      </trkpt>
      <trkpt lat="47.42409" lon="6.69774">
        <ele>387</ele>
        <time>2015-04-26T09:41:30.000Z</time>
      </trkpt>
      <trkpt lat="47.42408" lon="6.69778">
        <ele>387</ele>
        <time>2015-04-26T09:41:31.000Z</time>
      </trkpt>
      <trkpt lat="47.42408" lon="6.69783">
        <ele>387</ele>
        <time>2015-04-26T09:41:32.000Z</time>
      </trkpt>
      <trkpt lat="47.42408" lon="6.69788">
        <ele>387</ele>
        <time>2015-04-26T09:41:33.000Z</time>
      </trkpt>
      <trkpt lat="47.42408" lon="6.69793">
        <ele>388</ele>
        <time>2015-04-26T09:41:34.000Z</time>
      </trkpt>
      <trkpt lat="47.42408" lon="6.69798">
        <ele>388</ele>
        <time>2015-04-26T09:41:35.000Z</time>
      </trkpt>
      <trkpt lat="47.42409" lon="6.69803">
        <ele>389</ele>
        <time>2015-04-26T09:41:36.000Z</time>
      </trkpt>
      <trkpt lat="47.42409" lon="6.69808">
        <ele>389</ele>
        <time>2015-04-26T09:41:37.000Z</time>
      </trkpt>
      <trkpt lat="47.4241" lon="6.69813">
        <ele>390</ele>
        <time>2015-04-26T09:41:38.000Z</time>
      </trkpt>
      <trkpt lat="47.42411" lon="6.69817">
        <ele>391</ele>
        <time>2015-04-26T09:41:39.000Z</time>
      </trkpt>
      <trkpt lat="47.42411" lon="6.69821">
        <ele>392</ele>
        <time>2015-04-26T09:41:40.000Z</time>
      </trkpt>
      <trkpt lat="47.42412" lon="6.69825">
        <ele>393</ele>
        <time>2015-04-26T09:41:41.000Z</time>
      </trkpt>
      <trkpt lat="47.42412" lon="6.69828">
        <ele>394</ele>
        <time>2015-04-26T09:41:42.000Z</time>
      </trkpt>
      <trkpt lat="47.42412" lon="6.69835">
        <ele>396</ele>
        <time>2015-04-26T09:41:44.000Z</time>
      </trkpt>
      <trkpt lat="47.42412" lon="6.69838">
        <ele>395</ele>
        <time>2015-04-26T09:41:45.000Z</time>
      </trkpt>
      <trkpt lat="47.42412" lon="6.69844">
        <ele>393</ele>
        <time>2015-04-26T09:41:47.000Z</time>
      </trkpt>
      <trkpt lat="47.42412" lon="6.69847">
        <ele>393</ele>
        <time>2015-04-26T09:41:48.000Z</time>
      </trkpt>
      <trkpt lat="47.42413" lon="6.69851">
        <ele>392</ele>
        <time>2015-04-26T09:41:49.000Z</time>
      </trkpt>
      <trkpt lat="47.42414" lon="6.69856">
        <ele>391</ele>
        <time>2015-04-26T09:41:50.000Z</time>
      </trkpt>
      <trkpt lat="47.42415" lon="6.69861">
        <ele>391</ele>
        <time>2015-04-26T09:41:51.000Z</time>
      </trkpt>
      <trkpt lat="47.42416" lon="6.69866">
        <ele>390</ele>
        <time>2015-04-26T09:41:52.000Z</time>
      </trkpt>
      <trkpt lat="47.42417" lon="6.69871">
        <ele>402</ele>
        <time>2015-04-26T09:41:53.000Z</time>
      </trkpt>
      <trkpt lat="47.42418" lon="6.69877">
        <ele>402</ele>
        <time>2015-04-26T09:41:54.000Z</time>
      </trkpt>
      <trkpt lat="47.42419" lon="6.69882">
        <ele>402</ele>
        <time>2015-04-26T09:41:55.000Z</time>
      </trkpt>
      <trkpt lat="47.4242" lon="6.69887">
        <ele>402</ele>
        <time>2015-04-26T09:41:56.000Z</time>
      </trkpt>
      <trkpt lat="47.42421" lon="6.69892">
        <ele>402</ele>
        <time>2015-04-26T09:41:57.000Z</time>
      </trkpt>
      <trkpt lat="47.42423" lon="6.69895">
        <ele>402</ele>
        <time>2015-04-26T09:41:58.000Z</time>
      </trkpt>
      <trkpt lat="47.42424" lon="6.69899">
        <ele>401</ele>
        <time>2015-04-26T09:41:59.000Z</time>
      </trkpt>
      <trkpt lat="47.42426" lon="6.69904">
        <ele>401</ele>
        <time>2015-04-26T09:42:00.000Z</time>
      </trkpt>
      <trkpt lat="47.42427" lon="6.69908">
        <ele>401</ele>
        <time>2015-04-26T09:42:01.001Z</time>
      </trkpt>
      <trkpt lat="47.42429" lon="6.69914">
        <ele>400</ele>
        <time>2015-04-26T09:42:02.000Z</time>
      </trkpt>
      <trkpt lat="47.4243" lon="6.69918">
        <ele>400</ele>
        <time>2015-04-26T09:42:03.000Z</time>
      </trkpt>
      <trkpt lat="47.42431" lon="6.69923">
        <ele>400</ele>
        <time>2015-04-26T09:42:04.000Z</time>
      </trkpt>
      <trkpt lat="47.42433" lon="6.69928">
        <ele>400</ele>
        <time>2015-04-26T09:42:05.000Z</time>
      </trkpt>
      <trkpt lat="47.42434" lon="6.69932">
        <ele>401</ele>
        <time>2015-04-26T09:42:06.000Z</time>
      </trkpt>
      <trkpt lat="47.42436" lon="6.69936">
        <ele>401</ele>
        <time>2015-04-26T09:42:07.000Z</time>
      </trkpt>
      <trkpt lat="47.42438" lon="6.69941">
        <ele>401</ele>
        <time>2015-04-26T09:42:08.000Z</time>
      </trkpt>
      <trkpt lat="47.4244" lon="6.69946">
        <ele>401</ele>
        <time>2015-04-26T09:42:09.000Z</time>
      </trkpt>
      <trkpt lat="47.42441" lon="6.6995">
        <ele>401</ele>
        <time>2015-04-26T09:42:10.000Z</time>
      </trkpt>
      <trkpt lat="47.42443" lon="6.69954">
        <ele>401</ele>
        <time>2015-04-26T09:42:11.000Z</time>
      </trkpt>
      <trkpt lat="47.42445" lon="6.69957">
        <ele>402</ele>
        <time>2015-04-26T09:42:12.000Z</time>
      </trkpt>
      <trkpt lat="47.42447" lon="6.69961">
        <ele>402</ele>
        <time>2015-04-26T09:42:13.000Z</time>
      </trkpt>
      <trkpt lat="47.4245" lon="6.69964">
        <ele>402</ele>
        <time>2015-04-26T09:42:14.000Z</time>
      </trkpt>
      <trkpt lat="47.42454" lon="6.69967">
        <ele>402</ele>
        <time>2015-04-26T09:42:15.000Z</time>
      </trkpt>
      <trkpt lat="47.42457" lon="6.6997">
        <ele>403</ele>
        <time>2015-04-26T09:42:16.000Z</time>
      </trkpt>
      <trkpt lat="47.42461" lon="6.69973">
        <ele>403</ele>
        <time>2015-04-26T09:42:17.000Z</time>
      </trkpt>
      <trkpt lat="47.42464" lon="6.69976">
        <ele>403</ele>
        <time>2015-04-26T09:42:18.000Z</time>
      </trkpt>
      <trkpt lat="47.42466" lon="6.69979">
        <ele>404</ele>
        <time>2015-04-26T09:42:19.000Z</time>
      </trkpt>
      <trkpt lat="47.42469" lon="6.69981">
        <ele>404</ele>
        <time>2015-04-26T09:42:20.000Z</time>
      </trkpt>
      <trkpt lat="47.42472" lon="6.69984">
        <ele>404</ele>
        <time>2015-04-26T09:42:21.000Z</time>
      </trkpt>
      <trkpt lat="47.42475" lon="6.69986">
        <ele>405</ele>
        <time>2015-04-26T09:42:22.000Z</time>
      </trkpt>
      <trkpt lat="47.42478" lon="6.69988">
        <ele>405</ele>
        <time>2015-04-26T09:42:22.998Z</time>
      </trkpt>
      <trkpt lat="47.4248" lon="6.6999">
        <ele>406</ele>
        <time>2015-04-26T09:42:24.000Z</time>
      </trkpt>
      <trkpt lat="47.42483" lon="6.69992">
        <ele>406</ele>
        <time>2015-04-26T09:42:25.000Z</time>
      </trkpt>
      <trkpt lat="47.42484" lon="6.69995">
        <ele>407</ele>
        <time>2015-04-26T09:42:26.000Z</time>
      </trkpt>
      <trkpt lat="47.42487" lon="6.7">
        <ele>407</ele>
        <time>2015-04-26T09:42:28.000Z</time>
      </trkpt>
      <trkpt lat="47.42489" lon="6.70002">
        <ele>406</ele>
        <time>2015-04-26T09:42:28.999Z</time>
      </trkpt>
      <trkpt lat="47.4249" lon="6.70005">
        <ele>406</ele>
        <time>2015-04-26T09:42:30.000Z</time>
      </trkpt>
      <trkpt lat="47.42493" lon="6.70008">
        <ele>406</ele>
        <time>2015-04-26T09:42:31.000Z</time>
      </trkpt>
      <trkpt lat="47.42495" lon="6.70009">
        <ele>406</ele>
        <time>2015-04-26T09:42:32.000Z</time>
      </trkpt>
      <trkpt lat="47.42498" lon="6.70011">
        <ele>406</ele>
        <time>2015-04-26T09:42:33.000Z</time>
      </trkpt>
      <trkpt lat="47.425" lon="6.70013">
        <ele>406</ele>
        <time>2015-04-26T09:42:34.000Z</time>
      </trkpt>
      <trkpt lat="47.42502" lon="6.70014">
        <ele>412</ele>
        <time>2015-04-26T09:42:35.000Z</time>
      </trkpt>
      <trkpt lat="47.42505" lon="6.70015">
        <ele>412</ele>
        <time>2015-04-26T09:42:36.000Z</time>
      </trkpt>
      <trkpt lat="47.42507" lon="6.70016">
        <ele>412</ele>
        <time>2015-04-26T09:42:37.000Z</time>
      </trkpt>
      <trkpt lat="47.4251" lon="6.70017">
        <ele>412</ele>
        <time>2015-04-26T09:42:38.000Z</time>
      </trkpt>
      <trkpt lat="47.42512" lon="6.70018">
        <ele>412</ele>
        <time>2015-04-26T09:42:39.000Z</time>
      </trkpt>
      <trkpt lat="47.42514" lon="6.70018">
        <ele>412</ele>
        <time>2015-04-26T09:42:40.000Z</time>
      </trkpt>
      <trkpt lat="47.42517" lon="6.70019">
        <ele>412</ele>
        <time>2015-04-26T09:42:41.000Z</time>
      </trkpt>
      <trkpt lat="47.42519" lon="6.7002">
        <ele>412</ele>
        <time>2015-04-26T09:42:42.000Z</time>
      </trkpt>
      <trkpt lat="47.42522" lon="6.70021">
        <ele>412</ele>
        <time>2015-04-26T09:42:42.999Z</time>
      </trkpt>
      <trkpt lat="47.42526" lon="6.70024">
        <ele>413</ele>
        <time>2015-04-26T09:42:44.000Z</time>
      </trkpt>
      <trkpt lat="47.42529" lon="6.70025">
        <ele>413</ele>
        <time>2015-04-26T09:42:45.000Z</time>
      </trkpt>
      <trkpt lat="47.42531" lon="6.70027">
        <ele>413</ele>
        <time>2015-04-26T09:42:46.001Z</time>
      </trkpt>
      <trkpt lat="47.42534" lon="6.7003">
        <ele>413</ele>
        <time>2015-04-26T09:42:47.000Z</time>
      </trkpt>
      <trkpt lat="47.42537" lon="6.70032">
        <ele>413</ele>
        <time>2015-04-26T09:42:48.000Z</time>
      </trkpt>
      <trkpt lat="47.4254" lon="6.70035">
        <ele>413</ele>
        <time>2015-04-26T09:42:49.000Z</time>
      </trkpt>
      <trkpt lat="47.42543" lon="6.70037">
        <ele>413</ele>
        <time>2015-04-26T09:42:50.000Z</time>
      </trkpt>
      <trkpt lat="47.42546" lon="6.70039">
        <ele>414</ele>
        <time>2015-04-26T09:42:51.000Z</time>
      </trkpt>
      <trkpt lat="47.42549" lon="6.70041">
        <ele>414</ele>
        <time>2015-04-26T09:42:52.000Z</time>
      </trkpt>
      <trkpt lat="47.42553" lon="6.70044">
        <ele>414</ele>
        <time>2015-04-26T09:42:53.000Z</time>
      </trkpt>
      <trkpt lat="47.42557" lon="6.70046">
        <ele>414</ele>
        <time>2015-04-26T09:42:54.000Z</time>
      </trkpt>
      <trkpt lat="47.42559" lon="6.70048">
        <ele>414</ele>
        <time>2015-04-26T09:42:55.000Z</time>
      </trkpt>
      <trkpt lat="47.42562" lon="6.7005">
        <ele>414</ele>
        <time>2015-04-26T09:42:56.000Z</time>
      </trkpt>
      <trkpt lat="47.42565" lon="6.70052">
        <ele>414</ele>
        <time>2015-04-26T09:42:57.000Z</time>
      </trkpt>
      <trkpt lat="47.42567" lon="6.70057">
        <ele>414</ele>
        <time>2015-04-26T09:42:58.000Z</time>
      </trkpt>
      <trkpt lat="47.42569" lon="6.70062">
        <ele>414</ele>
        <time>2015-04-26T09:42:59.000Z</time>
      </trkpt>
      <trkpt lat="47.42571" lon="6.70065">
        <ele>414</ele>
        <time>2015-04-26T09:43:00.001Z</time>
      </trkpt>
      <trkpt lat="47.42572" lon="6.70067">
        <ele>414</ele>
        <time>2015-04-26T09:43:01.000Z</time>
      </trkpt>
      <trkpt lat="47.42576" lon="6.70069">
        <ele>415</ele>
        <time>2015-04-26T09:43:02.000Z</time>
      </trkpt>
      <trkpt lat="47.42578" lon="6.70072">
        <ele>415</ele>
        <time>2015-04-26T09:43:03.000Z</time>
      </trkpt>
      <trkpt lat="47.42581" lon="6.70072">
        <ele>415</ele>
        <time>2015-04-26T09:43:04.000Z</time>
      </trkpt>
      <trkpt lat="47.42584" lon="6.70073">
        <ele>420</ele>
        <time>2015-04-26T09:43:05.000Z</time>
      </trkpt>
      <trkpt lat="47.42587" lon="6.70074">
        <ele>420</ele>
        <time>2015-04-26T09:43:06.000Z</time>
      </trkpt>
      <trkpt lat="47.4259" lon="6.70076">
        <ele>420</ele>
        <time>2015-04-26T09:43:07.000Z</time>
      </trkpt>
      <trkpt lat="47.42593" lon="6.70078">
        <ele>421</ele>
        <time>2015-04-26T09:43:08.000Z</time>
      </trkpt>
      <trkpt lat="47.42596" lon="6.70079">
        <ele>422</ele>
        <time>2015-04-26T09:43:09.000Z</time>
      </trkpt>
      <trkpt lat="47.42599" lon="6.70081">
        <ele>422</ele>
        <time>2015-04-26T09:43:10.000Z</time>
      </trkpt>
      <trkpt lat="47.42602" lon="6.70083">
        <ele>423</ele>
        <time>2015-04-26T09:43:11.000Z</time>
      </trkpt>
      <trkpt lat="47.42604" lon="6.70086">
        <ele>418</ele>
        <time>2015-04-26T09:43:12.000Z</time>
      </trkpt>
      <trkpt lat="47.42608" lon="6.70089">
        <ele>419</ele>
        <time>2015-04-26T09:43:13.000Z</time>
      </trkpt>
      <trkpt lat="47.42612" lon="6.70092">
        <ele>419</ele>
        <time>2015-04-26T09:43:15.000Z</time>
      </trkpt>
      <trkpt lat="47.42614" lon="6.70094">
        <ele>419</ele>
        <time>2015-04-26T09:43:16.000Z</time>
      </trkpt>
      <trkpt lat="47.42618" lon="6.70096">
        <ele>420</ele>
        <time>2015-04-26T09:43:17.000Z</time>
      </trkpt>
      <trkpt lat="47.42621" lon="6.70098">
        <ele>420</ele>
        <time>2015-04-26T09:43:18.000Z</time>
      </trkpt>
      <trkpt lat="47.42622" lon="6.70099">
        <ele>420</ele>
        <time>2015-04-26T09:43:19.000Z</time>
      </trkpt>
      <trkpt lat="47.42625" lon="6.70102">
        <ele>420</ele>
        <time>2015-04-26T09:43:20.000Z</time>
      </trkpt>
      <trkpt lat="47.42627" lon="6.70105">
        <ele>420</ele>
        <time>2015-04-26T09:43:21.000Z</time>
      </trkpt>
      <trkpt lat="47.4263" lon="6.70107">
        <ele>421</ele>
        <time>2015-04-26T09:43:22.000Z</time>
      </trkpt>
      <trkpt lat="47.42632" lon="6.70109">
        <ele>421</ele>
        <time>2015-04-26T09:43:23.000Z</time>
      </trkpt>
      <trkpt lat="47.42634" lon="6.70112">
        <ele>421</ele>
        <time>2015-04-26T09:43:24.000Z</time>
      </trkpt>
      <trkpt lat="47.42636" lon="6.70114">
        <ele>421</ele>
        <time>2015-04-26T09:43:25.000Z</time>
      </trkpt>
      <trkpt lat="47.42639" lon="6.70117">
        <ele>421</ele>
        <time>2015-04-26T09:43:26.000Z</time>
      </trkpt>
      <trkpt lat="47.42641" lon="6.7012">
        <ele>421</ele>
        <time>2015-04-26T09:43:26.999Z</time>
      </trkpt>
      <trkpt lat="47.42644" lon="6.70121">
        <ele>421</ele>
        <time>2015-04-26T09:43:28.000Z</time>
      </trkpt>
      <trkpt lat="47.42646" lon="6.70122">
        <ele>421</ele>
        <time>2015-04-26T09:43:29.000Z</time>
      </trkpt>
      <trkpt lat="47.42648" lon="6.70124">
        <ele>421</ele>
        <time>2015-04-26T09:43:30.000Z</time>
      </trkpt>
      <trkpt lat="47.42651" lon="6.70126">
        <ele>421</ele>
        <time>2015-04-26T09:43:31.000Z</time>
      </trkpt>
      <trkpt lat="47.42653" lon="6.70128">
        <ele>421</ele>
        <time>2015-04-26T09:43:32.000Z</time>
      </trkpt>
      <trkpt lat="47.42656" lon="6.70131">
        <ele>421</ele>
        <time>2015-04-26T09:43:32.999Z</time>
      </trkpt>
      <trkpt lat="47.42658" lon="6.70133">
        <ele>421</ele>
        <time>2015-04-26T09:43:34.000Z</time>
      </trkpt>
      <trkpt lat="47.4266" lon="6.70136">
        <ele>421</ele>
        <time>2015-04-26T09:43:35.000Z</time>
      </trkpt>
      <trkpt lat="47.42662" lon="6.70138">
        <ele>421</ele>
        <time>2015-04-26T09:43:36.000Z</time>
      </trkpt>
      <trkpt lat="47.42664" lon="6.70142">
        <ele>421</ele>
        <time>2015-04-26T09:43:37.000Z</time>
      </trkpt>
      <trkpt lat="47.42667" lon="6.70145">
        <ele>429</ele>
        <time>2015-04-26T09:43:38.000Z</time>
      </trkpt>
      <trkpt lat="47.42669" lon="6.70149">
        <ele>428</ele>
        <time>2015-04-26T09:43:39.000Z</time>
      </trkpt>
      <trkpt lat="47.42672" lon="6.70152">
        <ele>428</ele>
        <time>2015-04-26T09:43:40.000Z</time>
      </trkpt>
      <trkpt lat="47.42674" lon="6.70156">
        <ele>427</ele>
        <time>2015-04-26T09:43:41.000Z</time>
      </trkpt>
      <trkpt lat="47.42675" lon="6.7016">
        <ele>426</ele>
        <time>2015-04-26T09:43:42.000Z</time>
      </trkpt>
      <trkpt lat="47.42677" lon="6.70163">
        <ele>426</ele>
        <time>2015-04-26T09:43:43.000Z</time>
      </trkpt>
      <trkpt lat="47.42678" lon="6.70166">
        <ele>426</ele>
        <time>2015-04-26T09:43:44.000Z</time>
      </trkpt>
      <trkpt lat="47.42681" lon="6.70168">
        <ele>423</ele>
        <time>2015-04-26T09:43:45.000Z</time>
      </trkpt>
      <trkpt lat="47.42683" lon="6.7017">
        <ele>423</ele>
        <time>2015-04-26T09:43:45.999Z</time>
      </trkpt>
      <trkpt lat="47.42686" lon="6.70173">
        <ele>423</ele>
        <time>2015-04-26T09:43:47.000Z</time>
      </trkpt>
      <trkpt lat="47.42688" lon="6.70175">
        <ele>423</ele>
        <time>2015-04-26T09:43:47.999Z</time>
      </trkpt>
      <trkpt lat="47.42691" lon="6.7018">
        <ele>424</ele>
        <time>2015-04-26T09:43:49.000Z</time>
      </trkpt>
      <trkpt lat="47.42693" lon="6.70183">
        <ele>424</ele>
        <time>2015-04-26T09:43:50.000Z</time>
      </trkpt>
      <trkpt lat="47.42695" lon="6.70188">
        <ele>424</ele>
        <time>2015-04-26T09:43:51.000Z</time>
      </trkpt>
      <trkpt lat="47.42698" lon="6.70191">
        <ele>424</ele>
        <time>2015-04-26T09:43:52.000Z</time>
      </trkpt>
      <trkpt lat="47.427" lon="6.70195">
        <ele>424</ele>
        <time>2015-04-26T09:43:53.000Z</time>
      </trkpt>
      <trkpt lat="47.42702" lon="6.70198">
        <ele>424</ele>
        <time>2015-04-26T09:43:54.000Z</time>
      </trkpt>
      <trkpt lat="47.42705" lon="6.70201">
        <ele>424</ele>
        <time>2015-04-26T09:43:55.000Z</time>
      </trkpt>
      <trkpt lat="47.42707" lon="6.70204">
        <ele>424</ele>
        <time>2015-04-26T09:43:56.000Z</time>
      </trkpt>
      <trkpt lat="47.4271" lon="6.70207">
        <ele>424</ele>
        <time>2015-04-26T09:43:57.000Z</time>
      </trkpt>
      <trkpt lat="47.42712" lon="6.70209">
        <ele>424</ele>
        <time>2015-04-26T09:43:58.000Z</time>
      </trkpt>
      <trkpt lat="47.42715" lon="6.70211">
        <ele>425</ele>
        <time>2015-04-26T09:43:59.000Z</time>
      </trkpt>
      <trkpt lat="47.42717" lon="6.70213">
        <ele>425</ele>
        <time>2015-04-26T09:44:00.000Z</time>
      </trkpt>
      <trkpt lat="47.4272" lon="6.70215">
        <ele>425</ele>
        <time>2015-04-26T09:44:01.000Z</time>
      </trkpt>
      <trkpt lat="47.42723" lon="6.70217">
        <ele>425</ele>
        <time>2015-04-26T09:44:02.000Z</time>
      </trkpt>
      <trkpt lat="47.42724" lon="6.7022">
        <ele>425</ele>
        <time>2015-04-26T09:44:03.000Z</time>
      </trkpt>
      <trkpt lat="47.42726" lon="6.70222">
        <ele>425</ele>
        <time>2015-04-26T09:44:04.000Z</time>
      </trkpt>
      <trkpt lat="47.42729" lon="6.70223">
        <ele>425</ele>
        <time>2015-04-26T09:44:05.000Z</time>
      </trkpt>
      <trkpt lat="47.42731" lon="6.70224">
        <ele>425</ele>
        <time>2015-04-26T09:44:06.000Z</time>
      </trkpt>
      <trkpt lat="47.42734" lon="6.70225">
        <ele>425</ele>
        <time>2015-04-26T09:44:07.000Z</time>
      </trkpt>
      <trkpt lat="47.42736" lon="6.70226">
        <ele>426</ele>
        <time>2015-04-26T09:44:07.999Z</time>
      </trkpt>
      <trkpt lat="47.4274" lon="6.70228">
        <ele>426</ele>
        <time>2015-04-26T09:44:09.000Z</time>
      </trkpt>
      <trkpt lat="47.42742" lon="6.70231">
        <ele>426</ele>
        <time>2015-04-26T09:44:10.000Z</time>
      </trkpt>
      <trkpt lat="47.42744" lon="6.70233">
        <ele>426</ele>
        <time>2015-04-26T09:44:11.000Z</time>
      </trkpt>
      <trkpt lat="47.42747" lon="6.70235">
        <ele>426</ele>
        <time>2015-04-26T09:44:12.000Z</time>
      </trkpt>
      <trkpt lat="47.42748" lon="6.70238">
        <ele>426</ele>
        <time>2015-04-26T09:44:13.000Z</time>
      </trkpt>
      <trkpt lat="47.42751" lon="6.70243">
        <ele>430</ele>
        <time>2015-04-26T09:44:14.000Z</time>
      </trkpt>
      <trkpt lat="47.42753" lon="6.70247">
        <ele>429</ele>
        <time>2015-04-26T09:44:15.000Z</time>
      </trkpt>
      <trkpt lat="47.42756" lon="6.7025">
        <ele>430</ele>
        <time>2015-04-26T09:44:16.000Z</time>
      </trkpt>
      <trkpt lat="47.42759" lon="6.70252">
        <ele>428</ele>
        <time>2015-04-26T09:44:17.000Z</time>
      </trkpt>
      <trkpt lat="47.42762" lon="6.70253">
        <ele>429</ele>
        <time>2015-04-26T09:44:18.000Z</time>
      </trkpt>
      <trkpt lat="47.42764" lon="6.70255">
        <ele>429</ele>
        <time>2015-04-26T09:44:19.000Z</time>
      </trkpt>
      <trkpt lat="47.42767" lon="6.70257">
        <ele>429</ele>
        <time>2015-04-26T09:44:20.000Z</time>
      </trkpt>
      <trkpt lat="47.42769" lon="6.70259">
        <ele>430</ele>
        <time>2015-04-26T09:44:21.001Z</time>
      </trkpt>
      <trkpt lat="47.42771" lon="6.7026">
        <ele>430</ele>
        <time>2015-04-26T09:44:22.000Z</time>
      </trkpt>
      <trkpt lat="47.42774" lon="6.70261">
        <ele>430</ele>
        <time>2015-04-26T09:44:23.000Z</time>
      </trkpt>
      <trkpt lat="47.42776" lon="6.70263">
        <ele>430</ele>
        <time>2015-04-26T09:44:24.000Z</time>
      </trkpt>
      <trkpt lat="47.42779" lon="6.70264">
        <ele>431</ele>
        <time>2015-04-26T09:44:25.001Z</time>
      </trkpt>
      <trkpt lat="47.42782" lon="6.70266">
        <ele>431</ele>
        <time>2015-04-26T09:44:26.000Z</time>
      </trkpt>
      <trkpt lat="47.42786" lon="6.70268">
        <ele>431</ele>
        <time>2015-04-26T09:44:27.000Z</time>
      </trkpt>
      <trkpt lat="47.42789" lon="6.70269">
        <ele>432</ele>
        <time>2015-04-26T09:44:28.000Z</time>
      </trkpt>
      <trkpt lat="47.42792" lon="6.7027">
        <ele>432</ele>
        <time>2015-04-26T09:44:29.000Z</time>
      </trkpt>
      <trkpt lat="47.42795" lon="6.70271">
        <ele>433</ele>
        <time>2015-04-26T09:44:30.000Z</time>
      </trkpt>
      <trkpt lat="47.42798" lon="6.70271">
        <ele>433</ele>
        <time>2015-04-26T09:44:31.000Z</time>
      </trkpt>
      <trkpt lat="47.42801" lon="6.70274">
        <ele>433</ele>
        <time>2015-04-26T09:44:32.000Z</time>
      </trkpt>
      <trkpt lat="47.42804" lon="6.70276">
        <ele>433</ele>
        <time>2015-04-26T09:44:33.000Z</time>
      </trkpt>
      <trkpt lat="47.42807" lon="6.70279">
        <ele>433</ele>
        <time>2015-04-26T09:44:34.000Z</time>
      </trkpt>
      <trkpt lat="47.4281" lon="6.70282">
        <ele>433</ele>
        <time>2015-04-26T09:44:35.000Z</time>
      </trkpt>
      <trkpt lat="47.42812" lon="6.70284">
        <ele>433</ele>
        <time>2015-04-26T09:44:36.000Z</time>
      </trkpt>
      <trkpt lat="47.42814" lon="6.70286">
        <ele>433</ele>
        <time>2015-04-26T09:44:36.999Z</time>
      </trkpt>
      <trkpt lat="47.42816" lon="6.7029">
        <ele>433</ele>
        <time>2015-04-26T09:44:38.000Z</time>
      </trkpt>
      <trkpt lat="47.42818" lon="6.70294">
        <ele>433</ele>
        <time>2015-04-26T09:44:39.000Z</time>
      </trkpt>
      <trkpt lat="47.4282" lon="6.70297">
        <ele>433</ele>
        <time>2015-04-26T09:44:40.000Z</time>
      </trkpt>
      <trkpt lat="47.42823" lon="6.703">
        <ele>433</ele>
        <time>2015-04-26T09:44:41.000Z</time>
      </trkpt>
      <trkpt lat="47.42826" lon="6.70302">
        <ele>433</ele>
        <time>2015-04-26T09:44:42.001Z</time>
      </trkpt>
      <trkpt lat="47.42829" lon="6.70307">
        <ele>433</ele>
        <time>2015-04-26T09:44:43.000Z</time>
      </trkpt>
      <trkpt lat="47.42831" lon="6.70312">
        <ele>433</ele>
        <time>2015-04-26T09:44:44.000Z</time>
      </trkpt>
      <trkpt lat="47.42833" lon="6.70316">
        <ele>433</ele>
        <time>2015-04-26T09:44:44.999Z</time>
      </trkpt>
      <trkpt lat="47.42833" lon="6.70322">
        <ele>438</ele>
        <time>2015-04-26T09:44:46.000Z</time>
      </trkpt>
      <trkpt lat="47.42835" lon="6.70325">
        <ele>437</ele>
        <time>2015-04-26T09:44:47.000Z</time>
      </trkpt>
      <trkpt lat="47.42836" lon="6.70328">
        <ele>436</ele>
        <time>2015-04-26T09:44:48.000Z</time>
      </trkpt>
      <trkpt lat="47.42837" lon="6.70331">
        <ele>436</ele>
        <time>2015-04-26T09:44:48.998Z</time>
      </trkpt>
      <trkpt lat="47.42839" lon="6.70335">
        <ele>435</ele>
        <time>2015-04-26T09:44:50.000Z</time>
      </trkpt>
      <trkpt lat="47.42841" lon="6.70339">
        <ele>436</ele>
        <time>2015-04-26T09:44:51.000Z</time>
      </trkpt>
      <trkpt lat="47.42843" lon="6.70344">
        <ele>436</ele>
        <time>2015-04-26T09:44:52.000Z</time>
      </trkpt>
      <trkpt lat="47.42845" lon="6.70348">
        <ele>437</ele>
        <time>2015-04-26T09:44:52.999Z</time>
      </trkpt>
      <trkpt lat="47.42847" lon="6.70353">
        <ele>437</ele>
        <time>2015-04-26T09:44:54.000Z</time>
      </trkpt>
      <trkpt lat="47.42848" lon="6.70357">
        <ele>437</ele>
        <time>2015-04-26T09:44:55.000Z</time>
      </trkpt>
      <trkpt lat="47.42846" lon="6.70366">
        <ele>437</ele>
        <time>2015-04-26T09:44:56.000Z</time>
      </trkpt>
      <trkpt lat="47.42844" lon="6.70371">
        <ele>437</ele>
        <time>2015-04-26T09:44:56.999Z</time>
      </trkpt>
      <trkpt lat="47.42843" lon="6.70374">
        <ele>437</ele>
        <time>2015-04-26T09:44:58.000Z</time>
      </trkpt>
      <trkpt lat="47.42843" lon="6.70378">
        <ele>437</ele>
        <time>2015-04-26T09:44:59.000Z</time>
      </trkpt>
      <trkpt lat="47.42843" lon="6.70381">
        <ele>437</ele>
        <time>2015-04-26T09:45:00.000Z</time>
      </trkpt>
      <trkpt lat="47.42843" lon="6.70386">
        <ele>436</ele>
        <time>2015-04-26T09:45:01.000Z</time>
      </trkpt>
      <trkpt lat="47.42843" lon="6.70391">
        <ele>436</ele>
        <time>2015-04-26T09:45:02.000Z</time>
      </trkpt>
      <trkpt lat="47.42845" lon="6.70395">
        <ele>436</ele>
        <time>2015-04-26T09:45:03.000Z</time>
      </trkpt>
      <trkpt lat="47.42847" lon="6.704">
        <ele>435</ele>
        <time>2015-04-26T09:45:04.000Z</time>
      </trkpt>
      <trkpt lat="47.42848" lon="6.70405">
        <ele>435</ele>
        <time>2015-04-26T09:45:05.000Z</time>
      </trkpt>
      <trkpt lat="47.42848" lon="6.70409">
        <ele>435</ele>
        <time>2015-04-26T09:45:06.000Z</time>
      </trkpt>
      <trkpt lat="47.42848" lon="6.70413">
        <ele>434</ele>
        <time>2015-04-26T09:45:07.000Z</time>
      </trkpt>
      <trkpt lat="47.42848" lon="6.70419">
        <ele>433</ele>
        <time>2015-04-26T09:45:08.000Z</time>
      </trkpt>
      <trkpt lat="47.42848" lon="6.70424">
        <ele>433</ele>
        <time>2015-04-26T09:45:09.000Z</time>
      </trkpt>
      <trkpt lat="47.42848" lon="6.70426">
        <ele>434</ele>
        <time>2015-04-26T09:45:10.000Z</time>
      </trkpt>
      <trkpt lat="47.42847" lon="6.70431">
        <ele>434</ele>
        <time>2015-04-26T09:45:11.000Z</time>
      </trkpt>
      <trkpt lat="47.42848" lon="6.70435">
        <ele>434</ele>
        <time>2015-04-26T09:45:12.000Z</time>
      </trkpt>
      <trkpt lat="47.42847" lon="6.7044">
        <ele>435</ele>
        <time>2015-04-26T09:45:13.000Z</time>
      </trkpt>
      <trkpt lat="47.42847" lon="6.70445">
        <ele>435</ele>
        <time>2015-04-26T09:45:14.000Z</time>
      </trkpt>
      <trkpt lat="47.42847" lon="6.70449">
        <ele>435</ele>
        <time>2015-04-26T09:45:15.000Z</time>
      </trkpt>
      <trkpt lat="47.42846" lon="6.70453">
        <ele>435</ele>
        <time>2015-04-26T09:45:16.001Z</time>
      </trkpt>
      <trkpt lat="47.42847" lon="6.70457">
        <ele>435</ele>
        <time>2015-04-26T09:45:17.000Z</time>
      </trkpt>
      <trkpt lat="47.42846" lon="6.70461">
        <ele>435</ele>
        <time>2015-04-26T09:45:18.000Z</time>
      </trkpt>
      <trkpt lat="47.42846" lon="6.70465">
        <ele>435</ele>
        <time>2015-04-26T09:45:19.000Z</time>
      </trkpt>
      <trkpt lat="47.42845" lon="6.70469">
        <ele>435</ele>
        <time>2015-04-26T09:45:20.000Z</time>
      </trkpt>
      <trkpt lat="47.42845" lon="6.70475">
        <ele>435</ele>
        <time>2015-04-26T09:45:22.000Z</time>
      </trkpt>
      <trkpt lat="47.42844" lon="6.70478">
        <ele>435</ele>
        <time>2015-04-26T09:45:23.000Z</time>
      </trkpt>
      <trkpt lat="47.42843" lon="6.7048">
        <ele>435</ele>
        <time>2015-04-26T09:45:24.000Z</time>
      </trkpt>
      <trkpt lat="47.42841" lon="6.70483">
        <ele>435</ele>
        <time>2015-04-26T09:45:24.999Z</time>
      </trkpt>
      <trkpt lat="47.42838" lon="6.70486">
        <ele>435</ele>
        <time>2015-04-26T09:45:28.000Z</time>
      </trkpt>
      <trkpt lat="47.42837" lon="6.70488">
        <ele>435</ele>
        <time>2015-04-26T09:45:29.001Z</time>
      </trkpt>
      <trkpt lat="47.42834" lon="6.7049">
        <ele>435</ele>
        <time>2015-04-26T09:45:32.000Z</time>
      </trkpt>
      <trkpt lat="47.42833" lon="6.70492">
        <ele>433</ele>
        <time>2015-04-26T09:45:33.000Z</time>
      </trkpt>
      <trkpt lat="47.42832" lon="6.70495">
        <ele>433</ele>
        <time>2015-04-26T09:45:34.000Z</time>
      </trkpt>
      <trkpt lat="47.42831" lon="6.70499">
        <ele>434</ele>
        <time>2015-04-26T09:45:35.000Z</time>
      </trkpt>
      <trkpt lat="47.4283" lon="6.70503">
        <ele>434</ele>
        <time>2015-04-26T09:45:36.000Z</time>
      </trkpt>
      <trkpt lat="47.42829" lon="6.70506">
        <ele>435</ele>
        <time>2015-04-26T09:45:37.000Z</time>
      </trkpt>
      <trkpt lat="47.42827" lon="6.70512">
        <ele>435</ele>
        <time>2015-04-26T09:45:39.000Z</time>
      </trkpt>
      <trkpt lat="47.42826" lon="6.70514">
        <ele>435</ele>
        <time>2015-04-26T09:45:40.000Z</time>
      </trkpt>
      <trkpt lat="47.42824" lon="6.7052">
        <ele>436</ele>
        <time>2015-04-26T09:45:42.000Z</time>
      </trkpt>
      <trkpt lat="47.42823" lon="6.70522">
        <ele>436</ele>
        <time>2015-04-26T09:45:43.000Z</time>
      </trkpt>
      <trkpt lat="47.4282" lon="6.70525">
        <ele>436</ele>
        <time>2015-04-26T09:45:45.000Z</time>
      </trkpt>
      <trkpt lat="47.42819" lon="6.70527">
        <ele>436</ele>
        <time>2015-04-26T09:45:46.000Z</time>
      </trkpt>
      <trkpt lat="47.42818" lon="6.70532">
        <ele>436</ele>
        <time>2015-04-26T09:45:48.000Z</time>
      </trkpt>
      <trkpt lat="47.42818" lon="6.70535">
        <ele>436</ele>
        <time>2015-04-26T09:45:49.000Z</time>
      </trkpt>
      <trkpt lat="47.4282" lon="6.7054">
        <ele>436</ele>
        <time>2015-04-26T09:45:51.000Z</time>
      </trkpt>
      <trkpt lat="47.42821" lon="6.70542">
        <ele>437</ele>
        <time>2015-04-26T09:45:52.000Z</time>
      </trkpt>
      <trkpt lat="47.42823" lon="6.70546">
        <ele>437</ele>
        <time>2015-04-26T09:45:54.000Z</time>
      </trkpt>
      <trkpt lat="47.42825" lon="6.70548">
        <ele>437</ele>
        <time>2015-04-26T09:45:55.000Z</time>
      </trkpt>
      <trkpt lat="47.42826" lon="6.70553">
        <ele>437</ele>
        <time>2015-04-26T09:45:58.000Z</time>
      </trkpt>
      <trkpt lat="47.42827" lon="6.70556">
        <ele>437</ele>
        <time>2015-04-26T09:45:59.000Z</time>
      </trkpt>
      <trkpt lat="47.42828" lon="6.70561">
        <ele>437</ele>
        <time>2015-04-26T09:46:01.000Z</time>
      </trkpt>
      <trkpt lat="47.42829" lon="6.70563">
        <ele>437</ele>
        <time>2015-04-26T09:46:02.000Z</time>
      </trkpt>
      <trkpt lat="47.42832" lon="6.70568">
        <ele>437</ele>
        <time>2015-04-26T09:46:04.000Z</time>
      </trkpt>
      <trkpt lat="47.42833" lon="6.7057">
        <ele>438</ele>
        <time>2015-04-26T09:46:05.000Z</time>
      </trkpt>
      <trkpt lat="47.42836" lon="6.70574">
        <ele>438</ele>
        <time>2015-04-26T09:46:07.000Z</time>
      </trkpt>
      <trkpt lat="47.42837" lon="6.70576">
        <ele>438</ele>
        <time>2015-04-26T09:46:08.000Z</time>
      </trkpt>
      <trkpt lat="47.42839" lon="6.70579">
        <ele>438</ele>
        <time>2015-04-26T09:46:09.000Z</time>
      </trkpt>
      <trkpt lat="47.4284" lon="6.70582">
        <ele>438</ele>
        <time>2015-04-26T09:46:10.000Z</time>
      </trkpt>
      <trkpt lat="47.42842" lon="6.70585">
        <ele>438</ele>
        <time>2015-04-26T09:46:11.000Z</time>
      </trkpt>
      <trkpt lat="47.42843" lon="6.70588">
        <ele>438</ele>
        <time>2015-04-26T09:46:12.000Z</time>
      </trkpt>
      <trkpt lat="47.42844" lon="6.70591">
        <ele>439</ele>
        <time>2015-04-26T09:46:13.000Z</time>
      </trkpt>
      <trkpt lat="47.42846" lon="6.70594">
        <ele>439</ele>
        <time>2015-04-26T09:46:14.000Z</time>
      </trkpt>
      <trkpt lat="47.42848" lon="6.70597">
        <ele>439</ele>
        <time>2015-04-26T09:46:15.000Z</time>
      </trkpt>
      <trkpt lat="47.4285" lon="6.70599">
        <ele>439</ele>
        <time>2015-04-26T09:46:16.000Z</time>
      </trkpt>
      <trkpt lat="47.42851" lon="6.70602">
        <ele>439</ele>
        <time>2015-04-26T09:46:17.000Z</time>
      </trkpt>
      <trkpt lat="47.42853" lon="6.70605">
        <ele>439</ele>
        <time>2015-04-26T09:46:18.000Z</time>
      </trkpt>
      <trkpt lat="47.42855" lon="6.70607">
        <ele>439</ele>
        <time>2015-04-26T09:46:19.000Z</time>
      </trkpt>
      <trkpt lat="47.42857" lon="6.7061">
        <ele>439</ele>
        <time>2015-04-26T09:46:20.000Z</time>
      </trkpt>
      <trkpt lat="47.42858" lon="6.70613">
        <ele>439</ele>
        <time>2015-04-26T09:46:21.000Z</time>
      </trkpt>
      <trkpt lat="47.4286" lon="6.70616">
        <ele>439</ele>
        <time>2015-04-26T09:46:22.000Z</time>
      </trkpt>
      <trkpt lat="47.42862" lon="6.70619">
        <ele>439</ele>
        <time>2015-04-26T09:46:23.000Z</time>
      </trkpt>
      <trkpt lat="47.42863" lon="6.70622">
        <ele>439</ele>
        <time>2015-04-26T09:46:24.000Z</time>
      </trkpt>
      <trkpt lat="47.42865" lon="6.70625">
        <ele>439</ele>
        <time>2015-04-26T09:46:25.000Z</time>
      </trkpt>
      <trkpt lat="47.42866" lon="6.70628">
        <ele>439</ele>
        <time>2015-04-26T09:46:26.000Z</time>
      </trkpt>
      <trkpt lat="47.42868" lon="6.70631">
        <ele>439</ele>
        <time>2015-04-26T09:46:27.000Z</time>
      </trkpt>
      <trkpt lat="47.42869" lon="6.70635">
        <ele>439</ele>
        <time>2015-04-26T09:46:28.000Z</time>
      </trkpt>
      <trkpt lat="47.42871" lon="6.70638">
        <ele>439</ele>
        <time>2015-04-26T09:46:29.000Z</time>
      </trkpt>
      <trkpt lat="47.42872" lon="6.70641">
        <ele>439</ele>
        <time>2015-04-26T09:46:30.000Z</time>
      </trkpt>
      <trkpt lat="47.42874" lon="6.70645">
        <ele>440</ele>
        <time>2015-04-26T09:46:31.000Z</time>
      </trkpt>
      <trkpt lat="47.42875" lon="6.70649">
        <ele>440</ele>
        <time>2015-04-26T09:46:32.000Z</time>
      </trkpt>
      <trkpt lat="47.42876" lon="6.70652">
        <ele>440</ele>
        <time>2015-04-26T09:46:33.000Z</time>
      </trkpt>
      <trkpt lat="47.42878" lon="6.70656">
        <ele>440</ele>
        <time>2015-04-26T09:46:34.000Z</time>
      </trkpt>
      <trkpt lat="47.42879" lon="6.70659">
        <ele>440</ele>
        <time>2015-04-26T09:46:35.000Z</time>
      </trkpt>
      <trkpt lat="47.4288" lon="6.70663">
        <ele>440</ele>
        <time>2015-04-26T09:46:36.000Z</time>
      </trkpt>
      <trkpt lat="47.42881" lon="6.70667">
        <ele>440</ele>
        <time>2015-04-26T09:46:37.000Z</time>
      </trkpt>
      <trkpt lat="47.42882" lon="6.7067">
        <ele>442</ele>
        <time>2015-04-26T09:46:38.000Z</time>
      </trkpt>
      <trkpt lat="47.42883" lon="6.70674">
        <ele>442</ele>
        <time>2015-04-26T09:46:39.000Z</time>
      </trkpt>
      <trkpt lat="47.42884" lon="6.70678">
        <ele>442</ele>
        <time>2015-04-26T09:46:40.000Z</time>
      </trkpt>
      <trkpt lat="47.42885" lon="6.70681">
        <ele>442</ele>
        <time>2015-04-26T09:46:41.000Z</time>
      </trkpt>
      <trkpt lat="47.42886" lon="6.70685">
        <ele>442</ele>
        <time>2015-04-26T09:46:42.000Z</time>
      </trkpt>
      <trkpt lat="47.42887" lon="6.70688">
        <ele>442</ele>
        <time>2015-04-26T09:46:43.000Z</time>
      </trkpt>
      <trkpt lat="47.42888" lon="6.70691">
        <ele>442</ele>
        <time>2015-04-26T09:46:44.000Z</time>
      </trkpt>
      <trkpt lat="47.4289" lon="6.70695">
        <ele>442</ele>
        <time>2015-04-26T09:46:45.000Z</time>
      </trkpt>
      <trkpt lat="47.42891" lon="6.70698">
        <ele>442</ele>
        <time>2015-04-26T09:46:46.000Z</time>
      </trkpt>
      <trkpt lat="47.42892" lon="6.70701">
        <ele>442</ele>
        <time>2015-04-26T09:46:47.000Z</time>
      </trkpt>
      <trkpt lat="47.42893" lon="6.70704">
        <ele>442</ele>
        <time>2015-04-26T09:46:48.000Z</time>
      </trkpt>
      <trkpt lat="47.42895" lon="6.70708">
        <ele>443</ele>
        <time>2015-04-26T09:46:49.000Z</time>
      </trkpt>
      <trkpt lat="47.42896" lon="6.70711">
        <ele>443</ele>
        <time>2015-04-26T09:46:50.000Z</time>
      </trkpt>
      <trkpt lat="47.42898" lon="6.70714">
        <ele>443</ele>
        <time>2015-04-26T09:46:51.000Z</time>
      </trkpt>
      <trkpt lat="47.42899" lon="6.70717">
        <ele>443</ele>
        <time>2015-04-26T09:46:52.000Z</time>
      </trkpt>
      <trkpt lat="47.42901" lon="6.7072">
        <ele>443</ele>
        <time>2015-04-26T09:46:53.000Z</time>
      </trkpt>
      <trkpt lat="47.42903" lon="6.70723">
        <ele>443</ele>
        <time>2015-04-26T09:46:54.000Z</time>
      </trkpt>
      <trkpt lat="47.42904" lon="6.70726">
        <ele>443</ele>
        <time>2015-04-26T09:46:55.000Z</time>
      </trkpt>
      <trkpt lat="47.42906" lon="6.70729">
        <ele>443</ele>
        <time>2015-04-26T09:46:56.000Z</time>
      </trkpt>
      <trkpt lat="47.42908" lon="6.70732">
        <ele>443</ele>
        <time>2015-04-26T09:46:57.000Z</time>
      </trkpt>
      <trkpt lat="47.42909" lon="6.70735">
        <ele>443</ele>
        <time>2015-04-26T09:46:58.000Z</time>
      </trkpt>
      <trkpt lat="47.42911" lon="6.70738">
        <ele>443</ele>
        <time>2015-04-26T09:46:59.000Z</time>
      </trkpt>
      <trkpt lat="47.42913" lon="6.7074">
        <ele>444</ele>
        <time>2015-04-26T09:47:00.000Z</time>
      </trkpt>
      <trkpt lat="47.42915" lon="6.70743">
        <ele>444</ele>
        <time>2015-04-26T09:47:01.000Z</time>
      </trkpt>
      <trkpt lat="47.42917" lon="6.70746">
        <ele>444</ele>
        <time>2015-04-26T09:47:02.000Z</time>
      </trkpt>
      <trkpt lat="47.42919" lon="6.70749">
        <ele>444</ele>
        <time>2015-04-26T09:47:03.000Z</time>
      </trkpt>
      <trkpt lat="47.42921" lon="6.70751">
        <ele>444</ele>
        <time>2015-04-26T09:47:04.000Z</time>
      </trkpt>
      <trkpt lat="47.42923" lon="6.70754">
        <ele>444</ele>
        <time>2015-04-26T09:47:05.000Z</time>
      </trkpt>
      <trkpt lat="47.42925" lon="6.70757">
        <ele>444</ele>
        <time>2015-04-26T09:47:06.000Z</time>
      </trkpt>
      <trkpt lat="47.42926" lon="6.7076">
        <ele>444</ele>
        <time>2015-04-26T09:47:07.000Z</time>
      </trkpt>
      <trkpt lat="47.42928" lon="6.70762">
        <ele>444</ele>
        <time>2015-04-26T09:47:08.000Z</time>
      </trkpt>
      <trkpt lat="47.42926" lon="6.70768">
        <ele>445</ele>
        <time>2015-04-26T09:47:12.000Z</time>
      </trkpt>
      <trkpt lat="47.42926" lon="6.70769">
        <ele>445</ele>
        <time>2015-04-26T09:47:13.000Z</time>
      </trkpt>
      <trkpt lat="47.4293" lon="6.70769">
        <ele>445</ele>
        <time>2015-04-26T09:54:03.000Z</time>
      </trkpt>
      <trkpt lat="47.4293" lon="6.70769">
        <ele>445</ele>
        <time>2015-04-26T09:54:04.000Z</time>
      </trkpt>
      <trkpt lat="47.42933" lon="6.7077">
        <ele>445</ele>
        <time>2015-04-26T09:54:06.000Z</time>
      </trkpt>
      <trkpt lat="47.42935" lon="6.70771">
        <ele>445</ele>
        <time>2015-04-26T09:54:07.000Z</time>
      </trkpt>
      <trkpt lat="47.42937" lon="6.70773">
        <ele>445</ele>
        <time>2015-04-26T09:54:08.000Z</time>
      </trkpt>
      <trkpt lat="47.42939" lon="6.70775">
        <ele>445</ele>
        <time>2015-04-26T09:54:08.999Z</time>
      </trkpt>
      <trkpt lat="47.42941" lon="6.70781">
        <ele>445</ele>
        <time>2015-04-26T09:54:10.000Z</time>
      </trkpt>
      <trkpt lat="47.42942" lon="6.70785">
        <ele>445</ele>
        <time>2015-04-26T09:54:11.000Z</time>
      </trkpt>
      <trkpt lat="47.42944" lon="6.7079">
        <ele>445</ele>
        <time>2015-04-26T09:54:12.000Z</time>
      </trkpt>
      <trkpt lat="47.42946" lon="6.70795">
        <ele>445</ele>
        <time>2015-04-26T09:54:13.000Z</time>
      </trkpt>
      <trkpt lat="47.42947" lon="6.70799">
        <ele>445</ele>
        <time>2015-04-26T09:54:14.000Z</time>
      </trkpt>
      <trkpt lat="47.42949" lon="6.70804">
        <ele>445</ele>
        <time>2015-04-26T09:54:15.000Z</time>
      </trkpt>
      <trkpt lat="47.4295" lon="6.70811">
        <ele>445</ele>
        <time>2015-04-26T09:54:16.000Z</time>
      </trkpt>
      <trkpt lat="47.42951" lon="6.70816">
        <ele>445</ele>
        <time>2015-04-26T09:54:17.000Z</time>
      </trkpt>
      <trkpt lat="47.42951" lon="6.70821">
        <ele>445</ele>
        <time>2015-04-26T09:54:18.000Z</time>
      </trkpt>
      <trkpt lat="47.42953" lon="6.70827">
        <ele>445</ele>
        <time>2015-04-26T09:54:19.000Z</time>
      </trkpt>
      <trkpt lat="47.42954" lon="6.70832">
        <ele>445</ele>
        <time>2015-04-26T09:54:20.000Z</time>
      </trkpt>
      <trkpt lat="47.42955" lon="6.70837">
        <ele>446</ele>
        <time>2015-04-26T09:54:21.000Z</time>
      </trkpt>
      <trkpt lat="47.42956" lon="6.70843">
        <ele>446</ele>
        <time>2015-04-26T09:54:22.000Z</time>
      </trkpt>
      <trkpt lat="47.42956" lon="6.70848">
        <ele>446</ele>
        <time>2015-04-26T09:54:23.000Z</time>
      </trkpt>
      <trkpt lat="47.42957" lon="6.70854">
        <ele>446</ele>
        <time>2015-04-26T09:54:24.000Z</time>
      </trkpt>
      <trkpt lat="47.42958" lon="6.7086">
        <ele>446</ele>
        <time>2015-04-26T09:54:25.000Z</time>
      </trkpt>
      <trkpt lat="47.42958" lon="6.70866">
        <ele>446</ele>
        <time>2015-04-26T09:54:26.000Z</time>
      </trkpt>
      <trkpt lat="47.42959" lon="6.70872">
        <ele>446</ele>
        <time>2015-04-26T09:54:27.000Z</time>
      </trkpt>
      <trkpt lat="47.4296" lon="6.7088">
        <ele>446</ele>
        <time>2015-04-26T09:54:28.000Z</time>
      </trkpt>
      <trkpt lat="47.42961" lon="6.70886">
        <ele>446</ele>
        <time>2015-04-26T09:54:29.000Z</time>
      </trkpt>
      <trkpt lat="47.42964" lon="6.70893">
        <ele>446</ele>
        <time>2015-04-26T09:54:30.000Z</time>
      </trkpt>
      <trkpt lat="47.42964" lon="6.70899">
        <ele>446</ele>
        <time>2015-04-26T09:54:31.000Z</time>
      </trkpt>
      <trkpt lat="47.42965" lon="6.70906">
        <ele>446</ele>
        <time>2015-04-26T09:54:31.999Z</time>
      </trkpt>
      <trkpt lat="47.42968" lon="6.70913">
        <ele>446</ele>
        <time>2015-04-26T09:54:33.000Z</time>
      </trkpt>
      <trkpt lat="47.42971" lon="6.70923">
        <ele>446</ele>
        <time>2015-04-26T09:54:34.000Z</time>
      </trkpt>
      <trkpt lat="47.42972" lon="6.70931">
        <ele>446</ele>
        <time>2015-04-26T09:54:35.000Z</time>
      </trkpt>
      <trkpt lat="47.42976" lon="6.70937">
        <ele>446</ele>
        <time>2015-04-26T09:54:36.000Z</time>
      </trkpt>
      <trkpt lat="47.4298" lon="6.70946">
        <ele>446</ele>
        <time>2015-04-26T09:54:37.000Z</time>
      </trkpt>
      <trkpt lat="47.42982" lon="6.70955">
        <ele>446</ele>
        <time>2015-04-26T09:54:38.000Z</time>
      </trkpt>
      <trkpt lat="47.42985" lon="6.70966">
        <ele>445</ele>
        <time>2015-04-26T09:54:39.000Z</time>
      </trkpt>
      <trkpt lat="47.42988" lon="6.70974">
        <ele>445</ele>
        <time>2015-04-26T09:54:40.000Z</time>
      </trkpt>
      <trkpt lat="47.42991" lon="6.70982">
        <ele>445</ele>
        <time>2015-04-26T09:54:41.000Z</time>
      </trkpt>
      <trkpt lat="47.42994" lon="6.70992">
        <ele>444</ele>
        <time>2015-04-26T09:54:42.000Z</time>
      </trkpt>
      <trkpt lat="47.42997" lon="6.71">
        <ele>443</ele>
        <time>2015-04-26T09:54:43.000Z</time>
      </trkpt>
      <trkpt lat="47.43" lon="6.71009">
        <ele>444</ele>
        <time>2015-04-26T09:54:44.000Z</time>
      </trkpt>
      <trkpt lat="47.43003" lon="6.71017">
        <ele>443</ele>
        <time>2015-04-26T09:54:45.000Z</time>
      </trkpt>
      <trkpt lat="47.43006" lon="6.71026">
        <ele>443</ele>
        <time>2015-04-26T09:54:46.000Z</time>
      </trkpt>
      <trkpt lat="47.4301" lon="6.71034">
        <ele>443</ele>
        <time>2015-04-26T09:54:47.000Z</time>
      </trkpt>
      <trkpt lat="47.43014" lon="6.71044">
        <ele>442</ele>
        <time>2015-04-26T09:54:48.000Z</time>
      </trkpt>
      <trkpt lat="47.43018" lon="6.71051">
        <ele>442</ele>
        <time>2015-04-26T09:54:49.000Z</time>
      </trkpt>
      <trkpt lat="47.4302" lon="6.71058">
        <ele>442</ele>
        <time>2015-04-26T09:54:50.000Z</time>
      </trkpt>
      <trkpt lat="47.43024" lon="6.71063">
        <ele>442</ele>
        <time>2015-04-26T09:54:51.000Z</time>
      </trkpt>
      <trkpt lat="47.43028" lon="6.71071">
        <ele>442</ele>
        <time>2015-04-26T09:54:52.000Z</time>
      </trkpt>
      <trkpt lat="47.43031" lon="6.71079">
        <ele>442</ele>
        <time>2015-04-26T09:54:53.000Z</time>
      </trkpt>
      <trkpt lat="47.43035" lon="6.71085">
        <ele>443</ele>
        <time>2015-04-26T09:54:54.000Z</time>
      </trkpt>
      <trkpt lat="47.43038" lon="6.71093">
        <ele>444</ele>
        <time>2015-04-26T09:54:55.000Z</time>
      </trkpt>
      <trkpt lat="47.43042" lon="6.71101">
        <ele>444</ele>
        <time>2015-04-26T09:54:56.000Z</time>
      </trkpt>
      <trkpt lat="47.43046" lon="6.71108">
        <ele>444</ele>
        <time>2015-04-26T09:54:57.000Z</time>
      </trkpt>
      <trkpt lat="47.43049" lon="6.71116">
        <ele>444</ele>
        <time>2015-04-26T09:54:58.000Z</time>
      </trkpt>
      <trkpt lat="47.43054" lon="6.71123">
        <ele>444</ele>
        <time>2015-04-26T09:54:59.000Z</time>
      </trkpt>
      <trkpt lat="47.43059" lon="6.7113">
        <ele>444</ele>
        <time>2015-04-26T09:55:00.000Z</time>
      </trkpt>
      <trkpt lat="47.43063" lon="6.71135">
        <ele>445</ele>
        <time>2015-04-26T09:55:01.000Z</time>
      </trkpt>
      <trkpt lat="47.43068" lon="6.71141">
        <ele>445</ele>
        <time>2015-04-26T09:55:02.000Z</time>
      </trkpt>
      <trkpt lat="47.43073" lon="6.71147">
        <ele>445</ele>
        <time>2015-04-26T09:55:03.000Z</time>
      </trkpt>
      <trkpt lat="47.43076" lon="6.71152">
        <ele>446</ele>
        <time>2015-04-26T09:55:04.000Z</time>
      </trkpt>
      <trkpt lat="47.4308" lon="6.71157">
        <ele>446</ele>
        <time>2015-04-26T09:55:05.000Z</time>
      </trkpt>
      <trkpt lat="47.43083" lon="6.71162">
        <ele>447</ele>
        <time>2015-04-26T09:55:06.000Z</time>
      </trkpt>
      <trkpt lat="47.43087" lon="6.71169">
        <ele>447</ele>
        <time>2015-04-26T09:55:07.000Z</time>
      </trkpt>
      <trkpt lat="47.4309" lon="6.71174">
        <ele>447</ele>
        <time>2015-04-26T09:55:08.000Z</time>
      </trkpt>
      <trkpt lat="47.43095" lon="6.71179">
        <ele>447</ele>
        <time>2015-04-26T09:55:09.000Z</time>
      </trkpt>
      <trkpt lat="47.431" lon="6.71184">
        <ele>448</ele>
        <time>2015-04-26T09:55:10.000Z</time>
      </trkpt>
      <trkpt lat="47.43103" lon="6.71188">
        <ele>448</ele>
        <time>2015-04-26T09:55:11.000Z</time>
      </trkpt>
      <trkpt lat="47.43106" lon="6.71191">
        <ele>448</ele>
        <time>2015-04-26T09:55:12.000Z</time>
      </trkpt>
      <trkpt lat="47.4311" lon="6.71194">
        <ele>448</ele>
        <time>2015-04-26T09:55:13.000Z</time>
      </trkpt>
      <trkpt lat="47.43112" lon="6.71199">
        <ele>448</ele>
        <time>2015-04-26T09:55:14.000Z</time>
      </trkpt>
      <trkpt lat="47.43115" lon="6.712">
        <ele>448</ele>
        <time>2015-04-26T09:55:15.000Z</time>
      </trkpt>
      <trkpt lat="47.43119" lon="6.71206">
        <ele>448</ele>
        <time>2015-04-26T09:55:16.000Z</time>
      </trkpt>
      <trkpt lat="47.43123" lon="6.71211">
        <ele>448</ele>
        <time>2015-04-26T09:55:17.000Z</time>
      </trkpt>
      <trkpt lat="47.43128" lon="6.71214">
        <ele>448</ele>
        <time>2015-04-26T09:55:18.000Z</time>
      </trkpt>
      <trkpt lat="47.43131" lon="6.71218">
        <ele>448</ele>
        <time>2015-04-26T09:55:19.000Z</time>
      </trkpt>
      <trkpt lat="47.43134" lon="6.71221">
        <ele>448</ele>
        <time>2015-04-26T09:55:20.000Z</time>
      </trkpt>
      <trkpt lat="47.43137" lon="6.71225">
        <ele>448</ele>
        <time>2015-04-26T09:55:21.000Z</time>
      </trkpt>
      <trkpt lat="47.43142" lon="6.71228">
        <ele>448</ele>
        <time>2015-04-26T09:55:22.000Z</time>
      </trkpt>
      <trkpt lat="47.43144" lon="6.71232">
        <ele>448</ele>
        <time>2015-04-26T09:55:23.000Z</time>
      </trkpt>
      <trkpt lat="47.43147" lon="6.71236">
        <ele>448</ele>
        <time>2015-04-26T09:55:24.000Z</time>
      </trkpt>
      <trkpt lat="47.4315" lon="6.7124">
        <ele>449</ele>
        <time>2015-04-26T09:55:25.000Z</time>
      </trkpt>
      <trkpt lat="47.43153" lon="6.71246">
        <ele>449</ele>
        <time>2015-04-26T09:55:26.000Z</time>
      </trkpt>
      <trkpt lat="47.43156" lon="6.71251">
        <ele>450</ele>
        <time>2015-04-26T09:55:27.000Z</time>
      </trkpt>
      <trkpt lat="47.4316" lon="6.71255">
        <ele>450</ele>
        <time>2015-04-26T09:55:28.000Z</time>
      </trkpt>
      <trkpt lat="47.43163" lon="6.71261">
        <ele>450</ele>
        <time>2015-04-26T09:55:29.001Z</time>
      </trkpt>
      <trkpt lat="47.43166" lon="6.71266">
        <ele>451</ele>
        <time>2015-04-26T09:55:30.000Z</time>
      </trkpt>
      <trkpt lat="47.43168" lon="6.71272">
        <ele>450</ele>
        <time>2015-04-26T09:55:31.000Z</time>
      </trkpt>
      <trkpt lat="47.43172" lon="6.71278">
        <ele>450</ele>
        <time>2015-04-26T09:55:32.001Z</time>
      </trkpt>
      <trkpt lat="47.43175" lon="6.71282">
        <ele>450</ele>
        <time>2015-04-26T09:55:33.000Z</time>
      </trkpt>
      <trkpt lat="47.43178" lon="6.71288">
        <ele>450</ele>
        <time>2015-04-26T09:55:34.000Z</time>
      </trkpt>
      <trkpt lat="47.43181" lon="6.71294">
        <ele>451</ele>
        <time>2015-04-26T09:55:35.000Z</time>
      </trkpt>
      <trkpt lat="47.43184" lon="6.71299">
        <ele>451</ele>
        <time>2015-04-26T09:55:36.000Z</time>
      </trkpt>
      <trkpt lat="47.43186" lon="6.71303">
        <ele>451</ele>
        <time>2015-04-26T09:55:37.000Z</time>
      </trkpt>
      <trkpt lat="47.43188" lon="6.71309">
        <ele>451</ele>
        <time>2015-04-26T09:55:38.000Z</time>
      </trkpt>
      <trkpt lat="47.43189" lon="6.71314">
        <ele>451</ele>
        <time>2015-04-26T09:55:39.000Z</time>
      </trkpt>
      <trkpt lat="47.4319" lon="6.71323">
        <ele>452</ele>
        <time>2015-04-26T09:55:40.000Z</time>
      </trkpt>
      <trkpt lat="47.43191" lon="6.71328">
        <ele>452</ele>
        <time>2015-04-26T09:55:41.000Z</time>
      </trkpt>
      <trkpt lat="47.43194" lon="6.71333">
        <ele>452</ele>
        <time>2015-04-26T09:55:42.000Z</time>
      </trkpt>
      <trkpt lat="47.43197" lon="6.7134">
        <ele>454</ele>
        <time>2015-04-26T09:55:43.000Z</time>
      </trkpt>
      <trkpt lat="47.43199" lon="6.71346">
        <ele>454</ele>
        <time>2015-04-26T09:55:44.000Z</time>
      </trkpt>
      <trkpt lat="47.43203" lon="6.71352">
        <ele>454</ele>
        <time>2015-04-26T09:55:45.000Z</time>
      </trkpt>
      <trkpt lat="47.43205" lon="6.71357">
        <ele>454</ele>
        <time>2015-04-26T09:55:46.000Z</time>
      </trkpt>
      <trkpt lat="47.43206" lon="6.71365">
        <ele>454</ele>
        <time>2015-04-26T09:55:47.000Z</time>
      </trkpt>
      <trkpt lat="47.43208" lon="6.71373">
        <ele>454</ele>
        <time>2015-04-26T09:55:48.000Z</time>
      </trkpt>
      <trkpt lat="47.43211" lon="6.71378">
        <ele>454</ele>
        <time>2015-04-26T09:55:49.000Z</time>
      </trkpt>
      <trkpt lat="47.43214" lon="6.71384">
        <ele>454</ele>
        <time>2015-04-26T09:55:50.000Z</time>
      </trkpt>
      <trkpt lat="47.43217" lon="6.71391">
        <ele>454</ele>
        <time>2015-04-26T09:55:51.000Z</time>
      </trkpt>
      <trkpt lat="47.4322" lon="6.71398">
        <ele>454</ele>
        <time>2015-04-26T09:55:52.000Z</time>
      </trkpt>
      <trkpt lat="47.43222" lon="6.71403">
        <ele>454</ele>
        <time>2015-04-26T09:55:53.000Z</time>
      </trkpt>
      <trkpt lat="47.43225" lon="6.71408">
        <ele>454</ele>
        <time>2015-04-26T09:55:54.000Z</time>
      </trkpt>
      <trkpt lat="47.43227" lon="6.71414">
        <ele>454</ele>
        <time>2015-04-26T09:55:55.000Z</time>
      </trkpt>
      <trkpt lat="47.43231" lon="6.71421">
        <ele>454</ele>
        <time>2015-04-26T09:55:56.000Z</time>
      </trkpt>
      <trkpt lat="47.43233" lon="6.71427">
        <ele>454</ele>
        <time>2015-04-26T09:55:57.000Z</time>
      </trkpt>
      <trkpt lat="47.43237" lon="6.71432">
        <ele>454</ele>
        <time>2015-04-26T09:55:58.000Z</time>
      </trkpt>
      <trkpt lat="47.43239" lon="6.71438">
        <ele>454</ele>
        <time>2015-04-26T09:55:59.000Z</time>
      </trkpt>
      <trkpt lat="47.43242" lon="6.71443">
        <ele>454</ele>
        <time>2015-04-26T09:56:00.000Z</time>
      </trkpt>
      <trkpt lat="47.43246" lon="6.71449">
        <ele>455</ele>
        <time>2015-04-26T09:56:01.000Z</time>
      </trkpt>
      <trkpt lat="47.43251" lon="6.71454">
        <ele>453</ele>
        <time>2015-04-26T09:56:02.000Z</time>
      </trkpt>
      <trkpt lat="47.43255" lon="6.71458">
        <ele>453</ele>
        <time>2015-04-26T09:56:03.000Z</time>
      </trkpt>
      <trkpt lat="47.43259" lon="6.71464">
        <ele>453</ele>
        <time>2015-04-26T09:56:04.000Z</time>
      </trkpt>
      <trkpt lat="47.43264" lon="6.71471">
        <ele>453</ele>
        <time>2015-04-26T09:56:05.000Z</time>
      </trkpt>
      <trkpt lat="47.43269" lon="6.71478">
        <ele>453</ele>
        <time>2015-04-26T09:56:06.000Z</time>
      </trkpt>
      <trkpt lat="47.43275" lon="6.71484">
        <ele>453</ele>
        <time>2015-04-26T09:56:07.000Z</time>
      </trkpt>
      <trkpt lat="47.43281" lon="6.71492">
        <ele>453</ele>
        <time>2015-04-26T09:56:08.000Z</time>
      </trkpt>
      <trkpt lat="47.43288" lon="6.715">
        <ele>453</ele>
        <time>2015-04-26T09:56:09.000Z</time>
      </trkpt>
      <trkpt lat="47.43294" lon="6.71508">
        <ele>452</ele>
        <time>2015-04-26T09:56:10.000Z</time>
      </trkpt>
      <trkpt lat="47.433" lon="6.71516">
        <ele>452</ele>
        <time>2015-04-26T09:56:11.000Z</time>
      </trkpt>
      <trkpt lat="47.43307" lon="6.71525">
        <ele>452</ele>
        <time>2015-04-26T09:56:12.000Z</time>
      </trkpt>
      <trkpt lat="47.43314" lon="6.71533">
        <ele>452</ele>
        <time>2015-04-26T09:56:13.000Z</time>
      </trkpt>
      <trkpt lat="47.4332" lon="6.71542">
        <ele>452</ele>
        <time>2015-04-26T09:56:14.000Z</time>
      </trkpt>
      <trkpt lat="47.43325" lon="6.71551">
        <ele>451</ele>
        <time>2015-04-26T09:56:15.000Z</time>
      </trkpt>
      <trkpt lat="47.43332" lon="6.71559">
        <ele>451</ele>
        <time>2015-04-26T09:56:16.000Z</time>
      </trkpt>
      <trkpt lat="47.43338" lon="6.71567">
        <ele>448</ele>
        <time>2015-04-26T09:56:17.000Z</time>
      </trkpt>
      <trkpt lat="47.43343" lon="6.71576">
        <ele>448</ele>
        <time>2015-04-26T09:56:18.000Z</time>
      </trkpt>
      <trkpt lat="47.43349" lon="6.71583">
        <ele>448</ele>
        <time>2015-04-26T09:56:19.000Z</time>
      </trkpt>
      <trkpt lat="47.43354" lon="6.71592">
        <ele>447</ele>
        <time>2015-04-26T09:56:20.000Z</time>
      </trkpt>
      <trkpt lat="47.43358" lon="6.71601">
        <ele>447</ele>
        <time>2015-04-26T09:56:21.000Z</time>
      </trkpt>
      <trkpt lat="47.43363" lon="6.71611">
        <ele>447</ele>
        <time>2015-04-26T09:56:22.000Z</time>
      </trkpt>
      <trkpt lat="47.43368" lon="6.7162">
        <ele>447</ele>
        <time>2015-04-26T09:56:23.000Z</time>
      </trkpt>
      <trkpt lat="47.43374" lon="6.71628">
        <ele>447</ele>
        <time>2015-04-26T09:56:24.000Z</time>
      </trkpt>
      <trkpt lat="47.43378" lon="6.71637">
        <ele>446</ele>
        <time>2015-04-26T09:56:25.000Z</time>
      </trkpt>
      <trkpt lat="47.43383" lon="6.71646">
        <ele>446</ele>
        <time>2015-04-26T09:56:26.000Z</time>
      </trkpt>
      <trkpt lat="47.43389" lon="6.71653">
        <ele>446</ele>
        <time>2015-04-26T09:56:27.000Z</time>
      </trkpt>
      <trkpt lat="47.43395" lon="6.71662">
        <ele>445</ele>
        <time>2015-04-26T09:56:28.000Z</time>
      </trkpt>
      <trkpt lat="47.434" lon="6.71671">
        <ele>445</ele>
        <time>2015-04-26T09:56:29.000Z</time>
      </trkpt>
      <trkpt lat="47.43405" lon="6.71679">
        <ele>445</ele>
        <time>2015-04-26T09:56:30.000Z</time>
      </trkpt>
      <trkpt lat="47.4341" lon="6.71687">
        <ele>446</ele>
        <time>2015-04-26T09:56:31.000Z</time>
      </trkpt>
      <trkpt lat="47.43415" lon="6.71696">
        <ele>446</ele>
        <time>2015-04-26T09:56:32.000Z</time>
      </trkpt>
      <trkpt lat="47.43421" lon="6.71706">
        <ele>443</ele>
        <time>2015-04-26T09:56:33.000Z</time>
      </trkpt>
      <trkpt lat="47.43425" lon="6.71714">
        <ele>443</ele>
        <time>2015-04-26T09:56:34.000Z</time>
      </trkpt>
      <trkpt lat="47.4343" lon="6.71723">
        <ele>443</ele>
        <time>2015-04-26T09:56:35.000Z</time>
      </trkpt>
      <trkpt lat="47.43434" lon="6.71732">
        <ele>443</ele>
        <time>2015-04-26T09:56:36.000Z</time>
      </trkpt>
      <trkpt lat="47.43438" lon="6.71742">
        <ele>443</ele>
        <time>2015-04-26T09:56:37.000Z</time>
      </trkpt>
      <trkpt lat="47.43442" lon="6.71752">
        <ele>444</ele>
        <time>2015-04-26T09:56:38.000Z</time>
      </trkpt>
      <trkpt lat="47.43444" lon="6.71761">
        <ele>444</ele>
        <time>2015-04-26T09:56:39.000Z</time>
      </trkpt>
      <trkpt lat="47.43448" lon="6.71769">
        <ele>444</ele>
        <time>2015-04-26T09:56:40.000Z</time>
      </trkpt>
      <trkpt lat="47.43451" lon="6.71778">
        <ele>444</ele>
        <time>2015-04-26T09:56:41.000Z</time>
      </trkpt>
      <trkpt lat="47.43454" lon="6.71787">
        <ele>444</ele>
        <time>2015-04-26T09:56:42.000Z</time>
      </trkpt>
      <trkpt lat="47.43456" lon="6.71795">
        <ele>444</ele>
        <time>2015-04-26T09:56:43.000Z</time>
      </trkpt>
      <trkpt lat="47.43459" lon="6.71804">
        <ele>444</ele>
        <time>2015-04-26T09:56:44.000Z</time>
      </trkpt>
      <trkpt lat="47.43461" lon="6.71812">
        <ele>444</ele>
        <time>2015-04-26T09:56:44.999Z</time>
      </trkpt>
      <trkpt lat="47.43462" lon="6.7182">
        <ele>444</ele>
        <time>2015-04-26T09:56:46.000Z</time>
      </trkpt>
      <trkpt lat="47.43464" lon="6.71827">
        <ele>444</ele>
        <time>2015-04-26T09:56:47.000Z</time>
      </trkpt>
      <trkpt lat="47.43466" lon="6.71834">
        <ele>446</ele>
        <time>2015-04-26T09:56:48.000Z</time>
      </trkpt>
      <trkpt lat="47.43467" lon="6.71842">
        <ele>446</ele>
        <time>2015-04-26T09:56:49.000Z</time>
      </trkpt>
      <trkpt lat="47.43469" lon="6.7185">
        <ele>446</ele>
        <time>2015-04-26T09:56:50.000Z</time>
      </trkpt>
      <trkpt lat="47.43471" lon="6.71859">
        <ele>446</ele>
        <time>2015-04-26T09:56:51.000Z</time>
      </trkpt>
      <trkpt lat="47.43472" lon="6.71866">
        <ele>446</ele>
        <time>2015-04-26T09:56:52.000Z</time>
      </trkpt>
      <trkpt lat="47.43474" lon="6.71875">
        <ele>447</ele>
        <time>2015-04-26T09:56:53.000Z</time>
      </trkpt>
      <trkpt lat="47.43475" lon="6.71881">
        <ele>447</ele>
        <time>2015-04-26T09:56:54.000Z</time>
      </trkpt>
      <trkpt lat="47.43478" lon="6.71888">
        <ele>447</ele>
        <time>2015-04-26T09:56:55.000Z</time>
      </trkpt>
      <trkpt lat="47.4348" lon="6.71895">
        <ele>447</ele>
        <time>2015-04-26T09:56:56.000Z</time>
      </trkpt>
      <trkpt lat="47.43482" lon="6.71903">
        <ele>447</ele>
        <time>2015-04-26T09:56:57.000Z</time>
      </trkpt>
      <trkpt lat="47.43483" lon="6.7191">
        <ele>447</ele>
        <time>2015-04-26T09:56:58.000Z</time>
      </trkpt>
      <trkpt lat="47.43485" lon="6.71917">
        <ele>449</ele>
        <time>2015-04-26T09:56:59.000Z</time>
      </trkpt>
      <trkpt lat="47.43487" lon="6.71925">
        <ele>449</ele>
        <time>2015-04-26T09:57:00.000Z</time>
      </trkpt>
      <trkpt lat="47.43489" lon="6.71933">
        <ele>449</ele>
        <time>2015-04-26T09:57:01.000Z</time>
      </trkpt>
      <trkpt lat="47.4349" lon="6.7194">
        <ele>450</ele>
        <time>2015-04-26T09:57:02.000Z</time>
      </trkpt>
      <trkpt lat="47.43491" lon="6.71947">
        <ele>450</ele>
        <time>2015-04-26T09:57:03.000Z</time>
      </trkpt>
      <trkpt lat="47.43493" lon="6.71953">
        <ele>450</ele>
        <time>2015-04-26T09:57:04.000Z</time>
      </trkpt>
      <trkpt lat="47.43494" lon="6.71958">
        <ele>450</ele>
        <time>2015-04-26T09:57:05.000Z</time>
      </trkpt>
      <trkpt lat="47.43496" lon="6.71962">
        <ele>451</ele>
        <time>2015-04-26T09:57:06.000Z</time>
      </trkpt>
      <trkpt lat="47.43498" lon="6.71966">
        <ele>451</ele>
        <time>2015-04-26T09:57:07.000Z</time>
      </trkpt>
      <trkpt lat="47.43499" lon="6.71972">
        <ele>451</ele>
        <time>2015-04-26T09:57:08.000Z</time>
      </trkpt>
      <trkpt lat="47.43501" lon="6.71978">
        <ele>449</ele>
        <time>2015-04-26T09:57:09.000Z</time>
      </trkpt>
      <trkpt lat="47.43502" lon="6.71983">
        <ele>449</ele>
        <time>2015-04-26T09:57:10.000Z</time>
      </trkpt>
      <trkpt lat="47.43503" lon="6.7199">
        <ele>450</ele>
        <time>2015-04-26T09:57:11.000Z</time>
      </trkpt>
      <trkpt lat="47.43506" lon="6.71996">
        <ele>450</ele>
        <time>2015-04-26T09:57:12.000Z</time>
      </trkpt>
      <trkpt lat="47.43507" lon="6.72001">
        <ele>451</ele>
        <time>2015-04-26T09:57:13.000Z</time>
      </trkpt>
      <trkpt lat="47.43508" lon="6.72006">
        <ele>451</ele>
        <time>2015-04-26T09:57:14.000Z</time>
      </trkpt>
      <trkpt lat="47.4351" lon="6.72011">
        <ele>451</ele>
        <time>2015-04-26T09:57:15.000Z</time>
      </trkpt>
      <trkpt lat="47.43512" lon="6.72016">
        <ele>451</ele>
        <time>2015-04-26T09:57:16.000Z</time>
      </trkpt>
      <trkpt lat="47.43513" lon="6.72021">
        <ele>451</ele>
        <time>2015-04-26T09:57:17.000Z</time>
      </trkpt>
      <trkpt lat="47.43515" lon="6.72027">
        <ele>451</ele>
        <time>2015-04-26T09:57:18.000Z</time>
      </trkpt>
      <trkpt lat="47.43516" lon="6.72031">
        <ele>451</ele>
        <time>2015-04-26T09:57:19.000Z</time>
      </trkpt>
      <trkpt lat="47.43517" lon="6.72036">
        <ele>451</ele>
        <time>2015-04-26T09:57:20.000Z</time>
      </trkpt>
      <trkpt lat="47.43519" lon="6.72041">
        <ele>451</ele>
        <time>2015-04-26T09:57:21.000Z</time>
      </trkpt>
      <trkpt lat="47.43521" lon="6.72047">
        <ele>451</ele>
        <time>2015-04-26T09:57:22.000Z</time>
      </trkpt>
      <trkpt lat="47.43525" lon="6.72051">
        <ele>451</ele>
        <time>2015-04-26T09:57:23.000Z</time>
      </trkpt>
      <trkpt lat="47.43527" lon="6.72058">
        <ele>452</ele>
        <time>2015-04-26T09:57:24.000Z</time>
      </trkpt>
      <trkpt lat="47.4353" lon="6.72063">
        <ele>452</ele>
        <time>2015-04-26T09:57:25.000Z</time>
      </trkpt>
      <trkpt lat="47.43532" lon="6.7207">
        <ele>452</ele>
        <time>2015-04-26T09:57:26.000Z</time>
      </trkpt>
      <trkpt lat="47.43534" lon="6.72076">
        <ele>452</ele>
        <time>2015-04-26T09:57:27.000Z</time>
      </trkpt>
      <trkpt lat="47.43537" lon="6.72084">
        <ele>454</ele>
        <time>2015-04-26T09:57:28.000Z</time>
      </trkpt>
      <trkpt lat="47.43539" lon="6.72091">
        <ele>454</ele>
        <time>2015-04-26T09:57:29.000Z</time>
      </trkpt>
      <trkpt lat="47.43541" lon="6.72097">
        <ele>454</ele>
        <time>2015-04-26T09:57:30.000Z</time>
      </trkpt>
      <trkpt lat="47.43543" lon="6.72101">
        <ele>454</ele>
        <time>2015-04-26T09:57:31.000Z</time>
      </trkpt>
      <trkpt lat="47.43546" lon="6.72107">
        <ele>454</ele>
        <time>2015-04-26T09:57:32.000Z</time>
      </trkpt>
      <trkpt lat="47.43547" lon="6.72113">
        <ele>454</ele>
        <time>2015-04-26T09:57:33.000Z</time>
      </trkpt>
      <trkpt lat="47.43548" lon="6.72118">
        <ele>454</ele>
        <time>2015-04-26T09:57:34.000Z</time>
      </trkpt>
      <trkpt lat="47.43551" lon="6.72123">
        <ele>454</ele>
        <time>2015-04-26T09:57:35.000Z</time>
      </trkpt>
      <trkpt lat="47.43553" lon="6.72131">
        <ele>454</ele>
        <time>2015-04-26T09:57:36.000Z</time>
      </trkpt>
      <trkpt lat="47.43555" lon="6.72135">
        <ele>454</ele>
        <time>2015-04-26T09:57:37.000Z</time>
      </trkpt>
      <trkpt lat="47.43557" lon="6.72139">
        <ele>454</ele>
        <time>2015-04-26T09:57:38.000Z</time>
      </trkpt>
      <trkpt lat="47.43558" lon="6.72144">
        <ele>454</ele>
        <time>2015-04-26T09:57:39.000Z</time>
      </trkpt>
      <trkpt lat="47.4356" lon="6.72149">
        <ele>455</ele>
        <time>2015-04-26T09:57:40.000Z</time>
      </trkpt>
      <trkpt lat="47.43562" lon="6.72154">
        <ele>455</ele>
        <time>2015-04-26T09:57:41.000Z</time>
      </trkpt>
      <trkpt lat="47.43564" lon="6.72159">
        <ele>455</ele>
        <time>2015-04-26T09:57:42.000Z</time>
      </trkpt>
      <trkpt lat="47.43566" lon="6.72164">
        <ele>455</ele>
        <time>2015-04-26T09:57:43.000Z</time>
      </trkpt>
      <trkpt lat="47.43568" lon="6.72168">
        <ele>457</ele>
        <time>2015-04-26T09:57:44.000Z</time>
      </trkpt>
      <trkpt lat="47.4357" lon="6.72173">
        <ele>457</ele>
        <time>2015-04-26T09:57:45.000Z</time>
      </trkpt>
      <trkpt lat="47.43572" lon="6.72177">
        <ele>457</ele>
        <time>2015-04-26T09:57:46.000Z</time>
      </trkpt>
      <trkpt lat="47.43574" lon="6.72182">
        <ele>457</ele>
        <time>2015-04-26T09:57:47.000Z</time>
      </trkpt>
      <trkpt lat="47.43576" lon="6.72186">
        <ele>457</ele>
        <time>2015-04-26T09:57:48.000Z</time>
      </trkpt>
      <trkpt lat="47.43578" lon="6.7219">
        <ele>457</ele>
        <time>2015-04-26T09:57:49.000Z</time>
      </trkpt>
      <trkpt lat="47.4358" lon="6.72195">
        <ele>457</ele>
        <time>2015-04-26T09:57:50.000Z</time>
      </trkpt>
      <trkpt lat="47.43582" lon="6.72199">
        <ele>458</ele>
        <time>2015-04-26T09:57:51.000Z</time>
      </trkpt>
      <trkpt lat="47.43585" lon="6.72204">
        <ele>457</ele>
        <time>2015-04-26T09:57:52.000Z</time>
      </trkpt>
      <trkpt lat="47.43587" lon="6.72209">
        <ele>457</ele>
        <time>2015-04-26T09:57:53.000Z</time>
      </trkpt>
      <trkpt lat="47.43589" lon="6.72213">
        <ele>458</ele>
        <time>2015-04-26T09:57:54.000Z</time>
      </trkpt>
      <trkpt lat="47.43592" lon="6.72218">
        <ele>458</ele>
        <time>2015-04-26T09:57:55.000Z</time>
      </trkpt>
      <trkpt lat="47.43594" lon="6.72223">
        <ele>458</ele>
        <time>2015-04-26T09:57:56.000Z</time>
      </trkpt>
      <trkpt lat="47.43597" lon="6.72227">
        <ele>458</ele>
        <time>2015-04-26T09:57:57.000Z</time>
      </trkpt>
      <trkpt lat="47.436" lon="6.72232">
        <ele>458</ele>
        <time>2015-04-26T09:57:58.000Z</time>
      </trkpt>
      <trkpt lat="47.43603" lon="6.72236">
        <ele>458</ele>
        <time>2015-04-26T09:57:59.000Z</time>
      </trkpt>
      <trkpt lat="47.43605" lon="6.7224">
        <ele>458</ele>
        <time>2015-04-26T09:58:00.000Z</time>
      </trkpt>
      <trkpt lat="47.43608" lon="6.72244">
        <ele>458</ele>
        <time>2015-04-26T09:58:01.000Z</time>
      </trkpt>
      <trkpt lat="47.43611" lon="6.72248">
        <ele>458</ele>
        <time>2015-04-26T09:58:02.000Z</time>
      </trkpt>
      <trkpt lat="47.43613" lon="6.72252">
        <ele>460</ele>
        <time>2015-04-26T09:58:03.000Z</time>
      </trkpt>
      <trkpt lat="47.43616" lon="6.72257">
        <ele>460</ele>
        <time>2015-04-26T09:58:04.000Z</time>
      </trkpt>
      <trkpt lat="47.43619" lon="6.72262">
        <ele>460</ele>
        <time>2015-04-26T09:58:05.000Z</time>
      </trkpt>
      <trkpt lat="47.43621" lon="6.72266">
        <ele>461</ele>
        <time>2015-04-26T09:58:06.000Z</time>
      </trkpt>
      <trkpt lat="47.43624" lon="6.72271">
        <ele>461</ele>
        <time>2015-04-26T09:58:07.000Z</time>
      </trkpt>
      <trkpt lat="47.43627" lon="6.72275">
        <ele>461</ele>
        <time>2015-04-26T09:58:08.000Z</time>
      </trkpt>
      <trkpt lat="47.4363" lon="6.72279">
        <ele>461</ele>
        <time>2015-04-26T09:58:09.000Z</time>
      </trkpt>
      <trkpt lat="47.43634" lon="6.72286">
        <ele>461</ele>
        <time>2015-04-26T09:58:10.000Z</time>
      </trkpt>
      <trkpt lat="47.43637" lon="6.7229">
        <ele>461</ele>
        <time>2015-04-26T09:58:11.000Z</time>
      </trkpt>
      <trkpt lat="47.4364" lon="6.72294">
        <ele>461</ele>
        <time>2015-04-26T09:58:12.000Z</time>
      </trkpt>
      <trkpt lat="47.43643" lon="6.72298">
        <ele>461</ele>
        <time>2015-04-26T09:58:13.001Z</time>
      </trkpt>
      <trkpt lat="47.43646" lon="6.72304">
        <ele>461</ele>
        <time>2015-04-26T09:58:14.000Z</time>
      </trkpt>
      <trkpt lat="47.43649" lon="6.72309">
        <ele>461</ele>
        <time>2015-04-26T09:58:15.000Z</time>
      </trkpt>
      <trkpt lat="47.43652" lon="6.72314">
        <ele>461</ele>
        <time>2015-04-26T09:58:16.000Z</time>
      </trkpt>
      <trkpt lat="47.43654" lon="6.7232">
        <ele>461</ele>
        <time>2015-04-26T09:58:17.000Z</time>
      </trkpt>
      <trkpt lat="47.43657" lon="6.72325">
        <ele>461</ele>
        <time>2015-04-26T09:58:18.000Z</time>
      </trkpt>
      <trkpt lat="47.43659" lon="6.7233">
        <ele>461</ele>
        <time>2015-04-26T09:58:19.000Z</time>
      </trkpt>
      <trkpt lat="47.43662" lon="6.72333">
        <ele>461</ele>
        <time>2015-04-26T09:58:20.000Z</time>
      </trkpt>
      <trkpt lat="47.43666" lon="6.72336">
        <ele>461</ele>
        <time>2015-04-26T09:58:21.000Z</time>
      </trkpt>
      <trkpt lat="47.43669" lon="6.72339">
        <ele>461</ele>
        <time>2015-04-26T09:58:22.000Z</time>
      </trkpt>
      <trkpt lat="47.43673" lon="6.72341">
        <ele>461</ele>
        <time>2015-04-26T09:58:23.000Z</time>
      </trkpt>
      <trkpt lat="47.43677" lon="6.72342">
        <ele>461</ele>
        <time>2015-04-26T09:58:24.000Z</time>
      </trkpt>
      <trkpt lat="47.43682" lon="6.72336">
        <ele>461</ele>
        <time>2015-04-26T09:58:25.000Z</time>
      </trkpt>
      <trkpt lat="47.43686" lon="6.72335">
        <ele>461</ele>
        <time>2015-04-26T09:58:26.000Z</time>
      </trkpt>
      <trkpt lat="47.43691" lon="6.72331">
        <ele>460</ele>
        <time>2015-04-26T09:58:27.000Z</time>
      </trkpt>
      <trkpt lat="47.43695" lon="6.72329">
        <ele>460</ele>
        <time>2015-04-26T09:58:28.000Z</time>
      </trkpt>
      <trkpt lat="47.437" lon="6.72325">
        <ele>460</ele>
        <time>2015-04-26T09:58:29.000Z</time>
      </trkpt>
      <trkpt lat="47.43705" lon="6.72324">
        <ele>460</ele>
        <time>2015-04-26T09:58:30.000Z</time>
      </trkpt>
      <trkpt lat="47.4371" lon="6.72319">
        <ele>460</ele>
        <time>2015-04-26T09:58:31.000Z</time>
      </trkpt>
      <trkpt lat="47.43715" lon="6.72316">
        <ele>460</ele>
        <time>2015-04-26T09:58:32.000Z</time>
      </trkpt>
      <trkpt lat="47.43719" lon="6.72312">
        <ele>460</ele>
        <time>2015-04-26T09:58:33.000Z</time>
      </trkpt>
      <trkpt lat="47.43724" lon="6.72308">
        <ele>460</ele>
        <time>2015-04-26T09:58:34.000Z</time>
      </trkpt>
      <trkpt lat="47.43729" lon="6.72304">
        <ele>460</ele>
        <time>2015-04-26T09:58:35.000Z</time>
      </trkpt>
      <trkpt lat="47.43734" lon="6.72302">
        <ele>460</ele>
        <time>2015-04-26T09:58:36.000Z</time>
      </trkpt>
      <trkpt lat="47.4374" lon="6.72306">
        <ele>460</ele>
        <time>2015-04-26T09:58:37.000Z</time>
      </trkpt>
      <trkpt lat="47.43744" lon="6.7231">
        <ele>460</ele>
        <time>2015-04-26T09:58:38.000Z</time>
      </trkpt>
      <trkpt lat="47.43749" lon="6.72315">
        <ele>460</ele>
        <time>2015-04-26T09:58:39.000Z</time>
      </trkpt>
      <trkpt lat="47.43753" lon="6.7232">
        <ele>460</ele>
        <time>2015-04-26T09:58:40.000Z</time>
      </trkpt>
      <trkpt lat="47.43757" lon="6.72327">
        <ele>460</ele>
        <time>2015-04-26T09:58:41.000Z</time>
      </trkpt>
      <trkpt lat="47.43761" lon="6.72331">
        <ele>460</ele>
        <time>2015-04-26T09:58:42.000Z</time>
      </trkpt>
      <trkpt lat="47.43765" lon="6.72337">
        <ele>461</ele>
        <time>2015-04-26T09:58:43.000Z</time>
      </trkpt>
      <trkpt lat="47.43767" lon="6.7234">
        <ele>461</ele>
        <time>2015-04-26T09:58:44.000Z</time>
      </trkpt>
      <trkpt lat="47.43771" lon="6.72346">
        <ele>461</ele>
        <time>2015-04-26T09:58:45.000Z</time>
      </trkpt>
      <trkpt lat="47.43775" lon="6.72351">
        <ele>461</ele>
        <time>2015-04-26T09:58:46.000Z</time>
      </trkpt>
      <trkpt lat="47.4378" lon="6.72353">
        <ele>461</ele>
        <time>2015-04-26T09:58:47.000Z</time>
      </trkpt>
      <trkpt lat="47.43784" lon="6.72358">
        <ele>461</ele>
        <time>2015-04-26T09:58:48.000Z</time>
      </trkpt>
      <trkpt lat="47.43788" lon="6.72363">
        <ele>461</ele>
        <time>2015-04-26T09:58:49.000Z</time>
      </trkpt>
      <trkpt lat="47.43792" lon="6.72367">
        <ele>461</ele>
        <time>2015-04-26T09:58:50.000Z</time>
      </trkpt>
      <trkpt lat="47.43796" lon="6.72373">
        <ele>462</ele>
        <time>2015-04-26T09:58:51.000Z</time>
      </trkpt>
      <trkpt lat="47.438" lon="6.72377">
        <ele>462</ele>
        <time>2015-04-26T09:58:52.000Z</time>
      </trkpt>
      <trkpt lat="47.43803" lon="6.72381">
        <ele>462</ele>
        <time>2015-04-26T09:58:53.000Z</time>
      </trkpt>
      <trkpt lat="47.43807" lon="6.72386">
        <ele>462</ele>
        <time>2015-04-26T09:58:54.000Z</time>
      </trkpt>
      <trkpt lat="47.43811" lon="6.72391">
        <ele>462</ele>
        <time>2015-04-26T09:58:55.000Z</time>
      </trkpt>
      <trkpt lat="47.43815" lon="6.72396">
        <ele>462</ele>
        <time>2015-04-26T09:58:55.999Z</time>
      </trkpt>
      <trkpt lat="47.43819" lon="6.724">
        <ele>462</ele>
        <time>2015-04-26T09:58:57.000Z</time>
      </trkpt>
      <trkpt lat="47.43823" lon="6.72406">
        <ele>462</ele>
        <time>2015-04-26T09:58:58.000Z</time>
      </trkpt>
      <trkpt lat="47.43827" lon="6.72411">
        <ele>462</ele>
        <time>2015-04-26T09:58:59.000Z</time>
      </trkpt>
      <trkpt lat="47.43832" lon="6.72413">
        <ele>462</ele>
        <time>2015-04-26T09:59:00.000Z</time>
      </trkpt>
      <trkpt lat="47.43837" lon="6.72419">
        <ele>462</ele>
        <time>2015-04-26T09:59:01.000Z</time>
      </trkpt>
      <trkpt lat="47.43841" lon="6.72424">
        <ele>462</ele>
        <time>2015-04-26T09:59:02.000Z</time>
      </trkpt>
      <trkpt lat="47.43845" lon="6.72429">
        <ele>462</ele>
        <time>2015-04-26T09:59:03.000Z</time>
      </trkpt>
      <trkpt lat="47.4385" lon="6.72437">
        <ele>463</ele>
        <time>2015-04-26T09:59:04.000Z</time>
      </trkpt>
      <trkpt lat="47.43855" lon="6.72441">
        <ele>463</ele>
        <time>2015-04-26T09:59:05.000Z</time>
      </trkpt>
      <trkpt lat="47.4386" lon="6.72446">
        <ele>463</ele>
        <time>2015-04-26T09:59:05.999Z</time>
      </trkpt>
      <trkpt lat="47.43866" lon="6.72448">
        <ele>463</ele>
        <time>2015-04-26T09:59:07.000Z</time>
      </trkpt>
      <trkpt lat="47.43869" lon="6.72453">
        <ele>463</ele>
        <time>2015-04-26T09:59:08.000Z</time>
      </trkpt>
      <trkpt lat="47.43874" lon="6.72457">
        <ele>463</ele>
        <time>2015-04-26T09:59:09.000Z</time>
      </trkpt>
      <trkpt lat="47.43878" lon="6.72463">
        <ele>463</ele>
        <time>2015-04-26T09:59:10.000Z</time>
      </trkpt>
      <trkpt lat="47.43883" lon="6.72469">
        <ele>463</ele>
        <time>2015-04-26T09:59:11.000Z</time>
      </trkpt>
      <trkpt lat="47.43889" lon="6.72472">
        <ele>463</ele>
        <time>2015-04-26T09:59:12.000Z</time>
      </trkpt>
      <trkpt lat="47.43894" lon="6.72474">
        <ele>463</ele>
        <time>2015-04-26T09:59:13.000Z</time>
      </trkpt>
      <trkpt lat="47.43899" lon="6.72478">
        <ele>463</ele>
        <time>2015-04-26T09:59:14.000Z</time>
      </trkpt>
      <trkpt lat="47.43904" lon="6.72481">
        <ele>463</ele>
        <time>2015-04-26T09:59:15.000Z</time>
      </trkpt>
      <trkpt lat="47.43909" lon="6.72485">
        <ele>463</ele>
        <time>2015-04-26T09:59:16.000Z</time>
      </trkpt>
      <trkpt lat="47.43913" lon="6.72489">
        <ele>463</ele>
        <time>2015-04-26T09:59:17.000Z</time>
      </trkpt>
      <trkpt lat="47.43919" lon="6.72491">
        <ele>463</ele>
        <time>2015-04-26T09:59:18.000Z</time>
      </trkpt>
      <trkpt lat="47.43924" lon="6.72494">
        <ele>463</ele>
        <time>2015-04-26T09:59:19.000Z</time>
      </trkpt>
      <trkpt lat="47.4393" lon="6.72494">
        <ele>464</ele>
        <time>2015-04-26T09:59:20.000Z</time>
      </trkpt>
      <trkpt lat="47.43935" lon="6.72495">
        <ele>464</ele>
        <time>2015-04-26T09:59:21.000Z</time>
      </trkpt>
      <trkpt lat="47.43941" lon="6.72496">
        <ele>464</ele>
        <time>2015-04-26T09:59:22.000Z</time>
      </trkpt>
      <trkpt lat="47.43947" lon="6.72496">
        <ele>464</ele>
        <time>2015-04-26T09:59:23.000Z</time>
      </trkpt>
      <trkpt lat="47.43952" lon="6.72495">
        <ele>464</ele>
        <time>2015-04-26T09:59:24.000Z</time>
      </trkpt>
      <trkpt lat="47.43956" lon="6.72493">
        <ele>464</ele>
        <time>2015-04-26T09:59:25.000Z</time>
      </trkpt>
      <trkpt lat="47.43961" lon="6.72491">
        <ele>464</ele>
        <time>2015-04-26T09:59:26.000Z</time>
      </trkpt>
      <trkpt lat="47.43968" lon="6.7249">
        <ele>464</ele>
        <time>2015-04-26T09:59:27.000Z</time>
      </trkpt>
      <trkpt lat="47.43972" lon="6.72488">
        <ele>464</ele>
        <time>2015-04-26T09:59:28.000Z</time>
      </trkpt>
      <trkpt lat="47.43977" lon="6.72487">
        <ele>464</ele>
        <time>2015-04-26T09:59:29.000Z</time>
      </trkpt>
      <trkpt lat="47.43982" lon="6.72485">
        <ele>464</ele>
        <time>2015-04-26T09:59:30.000Z</time>
      </trkpt>
      <trkpt lat="47.43987" lon="6.72483">
        <ele>464</ele>
        <time>2015-04-26T09:59:31.001Z</time>
      </trkpt>
      <trkpt lat="47.43994" lon="6.72482">
        <ele>464</ele>
        <time>2015-04-26T09:59:32.000Z</time>
      </trkpt>
      <trkpt lat="47.43999" lon="6.72481">
        <ele>464</ele>
        <time>2015-04-26T09:59:33.000Z</time>
      </trkpt>
      <trkpt lat="47.44005" lon="6.72478">
        <ele>466</ele>
        <time>2015-04-26T09:59:34.000Z</time>
      </trkpt>
      <trkpt lat="47.4401" lon="6.72476">
        <ele>466</ele>
        <time>2015-04-26T09:59:35.000Z</time>
      </trkpt>
      <trkpt lat="47.44017" lon="6.72474">
        <ele>466</ele>
        <time>2015-04-26T09:59:36.000Z</time>
      </trkpt>
      <trkpt lat="47.44022" lon="6.72473">
        <ele>466</ele>
        <time>2015-04-26T09:59:37.000Z</time>
      </trkpt>
      <trkpt lat="47.44028" lon="6.72471">
        <ele>467</ele>
        <time>2015-04-26T09:59:38.000Z</time>
      </trkpt>
      <trkpt lat="47.44034" lon="6.72469">
        <ele>467</ele>
        <time>2015-04-26T09:59:39.000Z</time>
      </trkpt>
      <trkpt lat="47.4404" lon="6.72467">
        <ele>467</ele>
        <time>2015-04-26T09:59:40.000Z</time>
      </trkpt>
      <trkpt lat="47.44046" lon="6.72466">
        <ele>467</ele>
        <time>2015-04-26T09:59:41.000Z</time>
      </trkpt>
      <trkpt lat="47.44052" lon="6.72464">
        <ele>467</ele>
        <time>2015-04-26T09:59:42.000Z</time>
      </trkpt>
      <trkpt lat="47.44057" lon="6.72463">
        <ele>468</ele>
        <time>2015-04-26T09:59:43.000Z</time>
      </trkpt>
      <trkpt lat="47.44063" lon="6.72461">
        <ele>468</ele>
        <time>2015-04-26T09:59:44.000Z</time>
      </trkpt>
      <trkpt lat="47.44068" lon="6.72459">
        <ele>468</ele>
        <time>2015-04-26T09:59:45.000Z</time>
      </trkpt>
      <trkpt lat="47.44073" lon="6.72458">
        <ele>468</ele>
        <time>2015-04-26T09:59:46.000Z</time>
      </trkpt>
      <trkpt lat="47.44078" lon="6.72457">
        <ele>468</ele>
        <time>2015-04-26T09:59:47.000Z</time>
      </trkpt>
      <trkpt lat="47.44083" lon="6.72455">
        <ele>468</ele>
        <time>2015-04-26T09:59:48.000Z</time>
      </trkpt>
      <trkpt lat="47.44087" lon="6.72453">
        <ele>473</ele>
        <time>2015-04-26T09:59:49.000Z</time>
      </trkpt>
      <trkpt lat="47.44089" lon="6.72454">
        <ele>473</ele>
        <time>2015-04-26T09:59:50.000Z</time>
      </trkpt>
      <trkpt lat="47.44093" lon="6.72453">
        <ele>473</ele>
        <time>2015-04-26T09:59:51.000Z</time>
      </trkpt>
      <trkpt lat="47.44095" lon="6.72453">
        <ele>473</ele>
        <time>2015-04-26T09:59:52.000Z</time>
      </trkpt>
      <trkpt lat="47.44098" lon="6.72453">
        <ele>473</ele>
        <time>2015-04-26T09:59:53.000Z</time>
      </trkpt>
      <trkpt lat="47.44101" lon="6.72454">
        <ele>473</ele>
        <time>2015-04-26T09:59:54.000Z</time>
      </trkpt>
      <trkpt lat="47.44104" lon="6.72453">
        <ele>474</ele>
        <time>2015-04-26T09:59:55.000Z</time>
      </trkpt>
      <trkpt lat="47.44108" lon="6.72452">
        <ele>474</ele>
        <time>2015-04-26T09:59:56.000Z</time>
      </trkpt>
      <trkpt lat="47.44111" lon="6.72452">
        <ele>474</ele>
        <time>2015-04-26T09:59:57.000Z</time>
      </trkpt>
      <trkpt lat="47.44114" lon="6.72453">
        <ele>474</ele>
        <time>2015-04-26T09:59:58.000Z</time>
      </trkpt>
      <trkpt lat="47.44117" lon="6.72454">
        <ele>474</ele>
        <time>2015-04-26T09:59:59.000Z</time>
      </trkpt>
      <trkpt lat="47.4412" lon="6.72455">
        <ele>475</ele>
        <time>2015-04-26T10:00:00.000Z</time>
      </trkpt>
      <trkpt lat="47.44124" lon="6.72455">
        <ele>475</ele>
        <time>2015-04-26T10:00:01.000Z</time>
      </trkpt>
      <trkpt lat="47.44128" lon="6.72455">
        <ele>475</ele>
        <time>2015-04-26T10:00:02.000Z</time>
      </trkpt>
      <trkpt lat="47.44138" lon="6.72451">
        <ele>476</ele>
        <time>2015-04-26T10:00:03.000Z</time>
      </trkpt>
      <trkpt lat="47.44144" lon="6.72449">
        <ele>476</ele>
        <time>2015-04-26T10:00:04.000Z</time>
      </trkpt>
      <trkpt lat="47.44148" lon="6.72449">
        <ele>476</ele>
        <time>2015-04-26T10:00:05.000Z</time>
      </trkpt>
      <trkpt lat="47.44155" lon="6.72448">
        <ele>477</ele>
        <time>2015-04-26T10:00:06.000Z</time>
      </trkpt>
      <trkpt lat="47.44159" lon="6.72448">
        <ele>477</ele>
        <time>2015-04-26T10:00:07.000Z</time>
      </trkpt>
      <trkpt lat="47.44163" lon="6.72447">
        <ele>477</ele>
        <time>2015-04-26T10:00:08.000Z</time>
      </trkpt>
      <trkpt lat="47.44168" lon="6.72446">
        <ele>481</ele>
        <time>2015-04-26T10:00:09.000Z</time>
      </trkpt>
      <trkpt lat="47.44173" lon="6.72444">
        <ele>481</ele>
        <time>2015-04-26T10:00:10.000Z</time>
      </trkpt>
      <trkpt lat="47.44178" lon="6.72442">
        <ele>481</ele>
        <time>2015-04-26T10:00:11.000Z</time>
      </trkpt>
      <trkpt lat="47.44182" lon="6.72443">
        <ele>481</ele>
        <time>2015-04-26T10:00:12.000Z</time>
      </trkpt>
      <trkpt lat="47.44187" lon="6.72444">
        <ele>481</ele>
        <time>2015-04-26T10:00:13.000Z</time>
      </trkpt>
      <trkpt lat="47.44191" lon="6.72444">
        <ele>481</ele>
        <time>2015-04-26T10:00:14.000Z</time>
      </trkpt>
      <trkpt lat="47.44194" lon="6.72444">
        <ele>481</ele>
        <time>2015-04-26T10:00:15.000Z</time>
      </trkpt>
      <trkpt lat="47.44199" lon="6.72443">
        <ele>481</ele>
        <time>2015-04-26T10:00:16.000Z</time>
      </trkpt>
      <trkpt lat="47.44203" lon="6.72442">
        <ele>481</ele>
        <time>2015-04-26T10:00:17.000Z</time>
      </trkpt>
      <trkpt lat="47.44207" lon="6.72442">
        <ele>481</ele>
        <time>2015-04-26T10:00:18.000Z</time>
      </trkpt>
      <trkpt lat="47.44217" lon="6.72439">
        <ele>482</ele>
        <time>2015-04-26T10:00:19.000Z</time>
      </trkpt>
      <trkpt lat="47.44222" lon="6.72439">
        <ele>482</ele>
        <time>2015-04-26T10:00:20.000Z</time>
      </trkpt>
      <trkpt lat="47.44227" lon="6.72439">
        <ele>482</ele>
        <time>2015-04-26T10:00:21.000Z</time>
      </trkpt>
      <trkpt lat="47.44232" lon="6.72438">
        <ele>482</ele>
        <time>2015-04-26T10:00:22.000Z</time>
      </trkpt>
      <trkpt lat="47.44237" lon="6.72438">
        <ele>482</ele>
        <time>2015-04-26T10:00:23.000Z</time>
      </trkpt>
      <trkpt lat="47.44242" lon="6.72436">
        <ele>482</ele>
        <time>2015-04-26T10:00:24.000Z</time>
      </trkpt>
      <trkpt lat="47.44248" lon="6.72437">
        <ele>482</ele>
        <time>2015-04-26T10:00:25.000Z</time>
      </trkpt>
      <trkpt lat="47.44255" lon="6.72437">
        <ele>482</ele>
        <time>2015-04-26T10:00:26.000Z</time>
      </trkpt>
      <trkpt lat="47.4426" lon="6.72438">
        <ele>482</ele>
        <time>2015-04-26T10:00:27.000Z</time>
      </trkpt>
      <trkpt lat="47.44266" lon="6.72436">
        <ele>482</ele>
        <time>2015-04-26T10:00:28.000Z</time>
      </trkpt>
      <trkpt lat="47.44274" lon="6.72432">
        <ele>482</ele>
        <time>2015-04-26T10:00:29.000Z</time>
      </trkpt>
      <trkpt lat="47.44281" lon="6.72427">
        <ele>482</ele>
        <time>2015-04-26T10:00:30.000Z</time>
      </trkpt>
      <trkpt lat="47.44288" lon="6.72423">
        <ele>482</ele>
        <time>2015-04-26T10:00:31.000Z</time>
      </trkpt>
      <trkpt lat="47.44294" lon="6.72421">
        <ele>482</ele>
        <time>2015-04-26T10:00:32.000Z</time>
      </trkpt>
      <trkpt lat="47.443" lon="6.72419">
        <ele>482</ele>
        <time>2015-04-26T10:00:33.000Z</time>
      </trkpt>
      <trkpt lat="47.44308" lon="6.72415">
        <ele>481</ele>
        <time>2015-04-26T10:00:34.000Z</time>
      </trkpt>
      <trkpt lat="47.44312" lon="6.72418">
        <ele>481</ele>
        <time>2015-04-26T10:00:35.000Z</time>
      </trkpt>
      <trkpt lat="47.44316" lon="6.72417">
        <ele>481</ele>
        <time>2015-04-26T10:00:36.000Z</time>
      </trkpt>
      <trkpt lat="47.44324" lon="6.7241">
        <ele>481</ele>
        <time>2015-04-26T10:00:37.000Z</time>
      </trkpt>
      <trkpt lat="47.44331" lon="6.72408">
        <ele>481</ele>
        <time>2015-04-26T10:00:38.000Z</time>
      </trkpt>
      <trkpt lat="47.44339" lon="6.724">
        <ele>479</ele>
        <time>2015-04-26T10:00:39.000Z</time>
      </trkpt>
      <trkpt lat="47.44345" lon="6.72399">
        <ele>479</ele>
        <time>2015-04-26T10:00:40.000Z</time>
      </trkpt>
      <trkpt lat="47.44352" lon="6.72392">
        <ele>478</ele>
        <time>2015-04-26T10:00:41.000Z</time>
      </trkpt>
      <trkpt lat="47.44359" lon="6.7239">
        <ele>478</ele>
        <time>2015-04-26T10:00:42.000Z</time>
      </trkpt>
      <trkpt lat="47.44366" lon="6.72389">
        <ele>478</ele>
        <time>2015-04-26T10:00:43.000Z</time>
      </trkpt>
      <trkpt lat="47.44372" lon="6.72387">
        <ele>478</ele>
        <time>2015-04-26T10:00:44.000Z</time>
      </trkpt>
      <trkpt lat="47.44378" lon="6.72384">
        <ele>478</ele>
        <time>2015-04-26T10:00:45.000Z</time>
      </trkpt>
      <trkpt lat="47.44384" lon="6.72381">
        <ele>478</ele>
        <time>2015-04-26T10:00:46.000Z</time>
      </trkpt>
      <trkpt lat="47.44391" lon="6.72379">
        <ele>477</ele>
        <time>2015-04-26T10:00:47.000Z</time>
      </trkpt>
      <trkpt lat="47.44397" lon="6.72377">
        <ele>477</ele>
        <time>2015-04-26T10:00:48.000Z</time>
      </trkpt>
      <trkpt lat="47.44403" lon="6.72375">
        <ele>477</ele>
        <time>2015-04-26T10:00:49.000Z</time>
      </trkpt>
      <trkpt lat="47.44409" lon="6.72374">
        <ele>477</ele>
        <time>2015-04-26T10:00:50.000Z</time>
      </trkpt>
      <trkpt lat="47.44416" lon="6.72371">
        <ele>477</ele>
        <time>2015-04-26T10:00:51.000Z</time>
      </trkpt>
      <trkpt lat="47.44424" lon="6.7237">
        <ele>477</ele>
        <time>2015-04-26T10:00:52.000Z</time>
      </trkpt>
      <trkpt lat="47.4443" lon="6.72369">
        <ele>477</ele>
        <time>2015-04-26T10:00:53.000Z</time>
      </trkpt>
      <trkpt lat="47.44437" lon="6.72369">
        <ele>478</ele>
        <time>2015-04-26T10:00:54.000Z</time>
      </trkpt>
      <trkpt lat="47.44443" lon="6.72369">
        <ele>478</ele>
        <time>2015-04-26T10:00:55.000Z</time>
      </trkpt>
      <trkpt lat="47.4445" lon="6.7237">
        <ele>478</ele>
        <time>2015-04-26T10:00:56.000Z</time>
      </trkpt>
      <trkpt lat="47.44455" lon="6.7237">
        <ele>478</ele>
        <time>2015-04-26T10:00:57.000Z</time>
      </trkpt>
      <trkpt lat="47.44463" lon="6.72367">
        <ele>478</ele>
        <time>2015-04-26T10:00:58.000Z</time>
      </trkpt>
      <trkpt lat="47.4447" lon="6.72365">
        <ele>478</ele>
        <time>2015-04-26T10:00:59.000Z</time>
      </trkpt>
      <trkpt lat="47.44478" lon="6.72363">
        <ele>478</ele>
        <time>2015-04-26T10:01:00.000Z</time>
      </trkpt>
      <trkpt lat="47.44485" lon="6.72362">
        <ele>478</ele>
        <time>2015-04-26T10:01:01.000Z</time>
      </trkpt>
      <trkpt lat="47.44492" lon="6.7236">
        <ele>478</ele>
        <time>2015-04-26T10:01:02.000Z</time>
      </trkpt>
      <trkpt lat="47.445" lon="6.72357">
        <ele>478</ele>
        <time>2015-04-26T10:01:03.000Z</time>
      </trkpt>
      <trkpt lat="47.44506" lon="6.72356">
        <ele>479</ele>
        <time>2015-04-26T10:01:04.000Z</time>
      </trkpt>
      <trkpt lat="47.44513" lon="6.72357">
        <ele>479</ele>
        <time>2015-04-26T10:01:05.000Z</time>
      </trkpt>
      <trkpt lat="47.44519" lon="6.72357">
        <ele>479</ele>
        <time>2015-04-26T10:01:06.000Z</time>
      </trkpt>
      <trkpt lat="47.44526" lon="6.72356">
        <ele>480</ele>
        <time>2015-04-26T10:01:07.000Z</time>
      </trkpt>
      <trkpt lat="47.44531" lon="6.72355">
        <ele>480</ele>
        <time>2015-04-26T10:01:08.000Z</time>
      </trkpt>
      <trkpt lat="47.44538" lon="6.72353">
        <ele>480</ele>
        <time>2015-04-26T10:01:09.000Z</time>
      </trkpt>
      <trkpt lat="47.44545" lon="6.72352">
        <ele>480</ele>
        <time>2015-04-26T10:01:10.000Z</time>
      </trkpt>
      <trkpt lat="47.44551" lon="6.7235">
        <ele>480</ele>
        <time>2015-04-26T10:01:11.000Z</time>
      </trkpt>
      <trkpt lat="47.44557" lon="6.7235">
        <ele>480</ele>
        <time>2015-04-26T10:01:12.000Z</time>
      </trkpt>
      <trkpt lat="47.44563" lon="6.7235">
        <ele>480</ele>
        <time>2015-04-26T10:01:13.000Z</time>
      </trkpt>
      <trkpt lat="47.44571" lon="6.72351">
        <ele>480</ele>
        <time>2015-04-26T10:01:14.000Z</time>
      </trkpt>
      <trkpt lat="47.44578" lon="6.7235">
        <ele>479</ele>
        <time>2015-04-26T10:01:15.000Z</time>
      </trkpt>
      <trkpt lat="47.44587" lon="6.72345">
        <ele>480</ele>
        <time>2015-04-26T10:01:16.000Z</time>
      </trkpt>
      <trkpt lat="47.44591" lon="6.72342">
        <ele>480</ele>
        <time>2015-04-26T10:01:17.000Z</time>
      </trkpt>
      <trkpt lat="47.44598" lon="6.7234">
        <ele>480</ele>
        <time>2015-04-26T10:01:18.000Z</time>
      </trkpt>
      <trkpt lat="47.44605" lon="6.72335">
        <ele>480</ele>
        <time>2015-04-26T10:01:19.000Z</time>
      </trkpt>
      <trkpt lat="47.4461" lon="6.72332">
        <ele>476</ele>
        <time>2015-04-26T10:01:20.000Z</time>
      </trkpt>
      <trkpt lat="47.44616" lon="6.72334">
        <ele>481</ele>
        <time>2015-04-26T10:01:21.000Z</time>
      </trkpt>
      <trkpt lat="47.44621" lon="6.72332">
        <ele>476</ele>
        <time>2015-04-26T10:01:22.000Z</time>
      </trkpt>
      <trkpt lat="47.44625" lon="6.72331">
        <ele>476</ele>
        <time>2015-04-26T10:01:23.000Z</time>
      </trkpt>
      <trkpt lat="47.44631" lon="6.72331">
        <ele>476</ele>
        <time>2015-04-26T10:01:24.000Z</time>
      </trkpt>
      <trkpt lat="47.44637" lon="6.72331">
        <ele>476</ele>
        <time>2015-04-26T10:01:25.000Z</time>
      </trkpt>
      <trkpt lat="47.44642" lon="6.72332">
        <ele>477</ele>
        <time>2015-04-26T10:01:26.000Z</time>
      </trkpt>
      <trkpt lat="47.44647" lon="6.72331">
        <ele>477</ele>
        <time>2015-04-26T10:01:27.000Z</time>
      </trkpt>
      <trkpt lat="47.44652" lon="6.72329">
        <ele>477</ele>
        <time>2015-04-26T10:01:28.000Z</time>
      </trkpt>
      <trkpt lat="47.44657" lon="6.72326">
        <ele>478</ele>
        <time>2015-04-26T10:01:29.000Z</time>
      </trkpt>
      <trkpt lat="47.44663" lon="6.72323">
        <ele>478</ele>
        <time>2015-04-26T10:01:30.000Z</time>
      </trkpt>
      <trkpt lat="47.44669" lon="6.72323">
        <ele>479</ele>
        <time>2015-04-26T10:01:31.000Z</time>
      </trkpt>
      <trkpt lat="47.44674" lon="6.7232">
        <ele>479</ele>
        <time>2015-04-26T10:01:32.000Z</time>
      </trkpt>
      <trkpt lat="47.44679" lon="6.72317">
        <ele>479</ele>
        <time>2015-04-26T10:01:33.000Z</time>
      </trkpt>
      <trkpt lat="47.44685" lon="6.72316">
        <ele>479</ele>
        <time>2015-04-26T10:01:34.000Z</time>
      </trkpt>
      <trkpt lat="47.44691" lon="6.72313">
        <ele>478</ele>
        <time>2015-04-26T10:01:35.000Z</time>
      </trkpt>
      <trkpt lat="47.44697" lon="6.72311">
        <ele>478</ele>
        <time>2015-04-26T10:01:36.000Z</time>
      </trkpt>
      <trkpt lat="47.44703" lon="6.72308">
        <ele>478</ele>
        <time>2015-04-26T10:01:37.000Z</time>
      </trkpt>
      <trkpt lat="47.44708" lon="6.72305">
        <ele>478</ele>
        <time>2015-04-26T10:01:38.000Z</time>
      </trkpt>
      <trkpt lat="47.44714" lon="6.72303">
        <ele>478</ele>
        <time>2015-04-26T10:01:39.000Z</time>
      </trkpt>
      <trkpt lat="47.4472" lon="6.72299">
        <ele>478</ele>
        <time>2015-04-26T10:01:40.000Z</time>
      </trkpt>
      <trkpt lat="47.44727" lon="6.72295">
        <ele>478</ele>
        <time>2015-04-26T10:01:41.000Z</time>
      </trkpt>
      <trkpt lat="47.44733" lon="6.72291">
        <ele>478</ele>
        <time>2015-04-26T10:01:42.000Z</time>
      </trkpt>
      <trkpt lat="47.44741" lon="6.72287">
        <ele>478</ele>
        <time>2015-04-26T10:01:43.000Z</time>
      </trkpt>
      <trkpt lat="47.44748" lon="6.72285">
        <ele>477</ele>
        <time>2015-04-26T10:01:44.000Z</time>
      </trkpt>
      <trkpt lat="47.44755" lon="6.72282">
        <ele>476</ele>
        <time>2015-04-26T10:01:45.000Z</time>
      </trkpt>
      <trkpt lat="47.44762" lon="6.72281">
        <ele>476</ele>
        <time>2015-04-26T10:01:46.000Z</time>
      </trkpt>
      <trkpt lat="47.44768" lon="6.72281">
        <ele>476</ele>
        <time>2015-04-26T10:01:47.000Z</time>
      </trkpt>
      <trkpt lat="47.44775" lon="6.72282">
        <ele>476</ele>
        <time>2015-04-26T10:01:48.000Z</time>
      </trkpt>
      <trkpt lat="47.44783" lon="6.7228">
        <ele>476</ele>
        <time>2015-04-26T10:01:49.000Z</time>
      </trkpt>
      <trkpt lat="47.44793" lon="6.72277">
        <ele>475</ele>
        <time>2015-04-26T10:01:50.000Z</time>
      </trkpt>
      <trkpt lat="47.44802" lon="6.72275">
        <ele>474</ele>
        <time>2015-04-26T10:01:51.000Z</time>
      </trkpt>
      <trkpt lat="47.4481" lon="6.72273">
        <ele>474</ele>
        <time>2015-04-26T10:01:52.000Z</time>
      </trkpt>
      <trkpt lat="47.44819" lon="6.72272">
        <ele>473</ele>
        <time>2015-04-26T10:01:53.000Z</time>
      </trkpt>
      <trkpt lat="47.44828" lon="6.72273">
        <ele>472</ele>
        <time>2015-04-26T10:01:54.000Z</time>
      </trkpt>
      <trkpt lat="47.44837" lon="6.72277">
        <ele>468</ele>
        <time>2015-04-26T10:01:55.000Z</time>
      </trkpt>
      <trkpt lat="47.44846" lon="6.72283">
        <ele>468</ele>
        <time>2015-04-26T10:01:56.000Z</time>
      </trkpt>
      <trkpt lat="47.44855" lon="6.72288">
        <ele>468</ele>
        <time>2015-04-26T10:01:57.000Z</time>
      </trkpt>
      <trkpt lat="47.44864" lon="6.72295">
        <ele>468</ele>
        <time>2015-04-26T10:01:58.000Z</time>
      </trkpt>
      <trkpt lat="47.44872" lon="6.723">
        <ele>468</ele>
        <time>2015-04-26T10:01:59.000Z</time>
      </trkpt>
      <trkpt lat="47.44883" lon="6.72305">
        <ele>467</ele>
        <time>2015-04-26T10:02:00.000Z</time>
      </trkpt>
      <trkpt lat="47.44894" lon="6.72312">
        <ele>466</ele>
        <time>2015-04-26T10:02:01.000Z</time>
      </trkpt>
      <trkpt lat="47.44903" lon="6.7232">
        <ele>466</ele>
        <time>2015-04-26T10:02:02.000Z</time>
      </trkpt>
      <trkpt lat="47.44913" lon="6.72327">
        <ele>465</ele>
        <time>2015-04-26T10:02:03.000Z</time>
      </trkpt>
      <trkpt lat="47.44922" lon="6.72334">
        <ele>464</ele>
        <time>2015-04-26T10:02:04.000Z</time>
      </trkpt>
      <trkpt lat="47.44931" lon="6.72342">
        <ele>464</ele>
        <time>2015-04-26T10:02:05.000Z</time>
      </trkpt>
      <trkpt lat="47.44941" lon="6.72351">
        <ele>463</ele>
        <time>2015-04-26T10:02:06.000Z</time>
      </trkpt>
      <trkpt lat="47.4495" lon="6.72359">
        <ele>463</ele>
        <time>2015-04-26T10:02:07.000Z</time>
      </trkpt>
      <trkpt lat="47.44958" lon="6.72366">
        <ele>462</ele>
        <time>2015-04-26T10:02:08.000Z</time>
      </trkpt>
      <trkpt lat="47.44967" lon="6.72373">
        <ele>462</ele>
        <time>2015-04-26T10:02:09.000Z</time>
      </trkpt>
      <trkpt lat="47.44976" lon="6.7238">
        <ele>461</ele>
        <time>2015-04-26T10:02:10.000Z</time>
      </trkpt>
      <trkpt lat="47.44984" lon="6.72388">
        <ele>461</ele>
        <time>2015-04-26T10:02:11.000Z</time>
      </trkpt>
      <trkpt lat="47.44992" lon="6.72395">
        <ele>461</ele>
        <time>2015-04-26T10:02:12.000Z</time>
      </trkpt>
      <trkpt lat="47.45" lon="6.72401">
        <ele>456</ele>
        <time>2015-04-26T10:02:13.000Z</time>
      </trkpt>
      <trkpt lat="47.45009" lon="6.72407">
        <ele>456</ele>
        <time>2015-04-26T10:02:14.000Z</time>
      </trkpt>
      <trkpt lat="47.45017" lon="6.72412">
        <ele>455</ele>
        <time>2015-04-26T10:02:15.000Z</time>
      </trkpt>
      <trkpt lat="47.45025" lon="6.72418">
        <ele>457</ele>
        <time>2015-04-26T10:02:16.000Z</time>
      </trkpt>
      <trkpt lat="47.45033" lon="6.72424">
        <ele>456</ele>
        <time>2015-04-26T10:02:17.000Z</time>
      </trkpt>
      <trkpt lat="47.45041" lon="6.72429">
        <ele>456</ele>
        <time>2015-04-26T10:02:18.000Z</time>
      </trkpt>
      <trkpt lat="47.45048" lon="6.72434">
        <ele>455</ele>
        <time>2015-04-26T10:02:19.000Z</time>
      </trkpt>
      <trkpt lat="47.45055" lon="6.7244">
        <ele>455</ele>
        <time>2015-04-26T10:02:20.000Z</time>
      </trkpt>
      <trkpt lat="47.45063" lon="6.72445">
        <ele>455</ele>
        <time>2015-04-26T10:02:21.000Z</time>
      </trkpt>
      <trkpt lat="47.4507" lon="6.7245">
        <ele>455</ele>
        <time>2015-04-26T10:02:22.000Z</time>
      </trkpt>
      <trkpt lat="47.45078" lon="6.72455">
        <ele>454</ele>
        <time>2015-04-26T10:02:23.000Z</time>
      </trkpt>
      <trkpt lat="47.45085" lon="6.7246">
        <ele>450</ele>
        <time>2015-04-26T10:02:24.000Z</time>
      </trkpt>
      <trkpt lat="47.45092" lon="6.72464">
        <ele>450</ele>
        <time>2015-04-26T10:02:25.000Z</time>
      </trkpt>
      <trkpt lat="47.45099" lon="6.72469">
        <ele>451</ele>
        <time>2015-04-26T10:02:26.000Z</time>
      </trkpt>
      <trkpt lat="47.45106" lon="6.72474">
        <ele>451</ele>
        <time>2015-04-26T10:02:27.000Z</time>
      </trkpt>
      <trkpt lat="47.45113" lon="6.72479">
        <ele>450</ele>
        <time>2015-04-26T10:02:28.000Z</time>
      </trkpt>
      <trkpt lat="47.4512" lon="6.72485">
        <ele>450</ele>
        <time>2015-04-26T10:02:29.000Z</time>
      </trkpt>
      <trkpt lat="47.45127" lon="6.72489">
        <ele>450</ele>
        <time>2015-04-26T10:02:30.000Z</time>
      </trkpt>
      <trkpt lat="47.45134" lon="6.72494">
        <ele>450</ele>
        <time>2015-04-26T10:02:31.000Z</time>
      </trkpt>
      <trkpt lat="47.45141" lon="6.72498">
        <ele>450</ele>
        <time>2015-04-26T10:02:32.000Z</time>
      </trkpt>
      <trkpt lat="47.45148" lon="6.72502">
        <ele>450</ele>
        <time>2015-04-26T10:02:33.000Z</time>
      </trkpt>
      <trkpt lat="47.45155" lon="6.72506">
        <ele>450</ele>
        <time>2015-04-26T10:02:34.000Z</time>
      </trkpt>
      <trkpt lat="47.45161" lon="6.72511">
        <ele>450</ele>
        <time>2015-04-26T10:02:35.000Z</time>
      </trkpt>
      <trkpt lat="47.45167" lon="6.72516">
        <ele>450</ele>
        <time>2015-04-26T10:02:36.000Z</time>
      </trkpt>
      <trkpt lat="47.45174" lon="6.7252">
        <ele>450</ele>
        <time>2015-04-26T10:02:37.000Z</time>
      </trkpt>
      <trkpt lat="47.4518" lon="6.72524">
        <ele>450</ele>
        <time>2015-04-26T10:02:38.000Z</time>
      </trkpt>
      <trkpt lat="47.45187" lon="6.72528">
        <ele>451</ele>
        <time>2015-04-26T10:02:39.000Z</time>
      </trkpt>
      <trkpt lat="47.45193" lon="6.72532">
        <ele>451</ele>
        <time>2015-04-26T10:02:40.000Z</time>
      </trkpt>
      <trkpt lat="47.45199" lon="6.72536">
        <ele>451</ele>
        <time>2015-04-26T10:02:41.000Z</time>
      </trkpt>
      <trkpt lat="47.45205" lon="6.7254">
        <ele>451</ele>
        <time>2015-04-26T10:02:42.000Z</time>
      </trkpt>
      <trkpt lat="47.4521" lon="6.72544">
        <ele>451</ele>
        <time>2015-04-26T10:02:43.000Z</time>
      </trkpt>
      <trkpt lat="47.45216" lon="6.72547">
        <ele>451</ele>
        <time>2015-04-26T10:02:44.000Z</time>
      </trkpt>
      <trkpt lat="47.45221" lon="6.7255">
        <ele>451</ele>
        <time>2015-04-26T10:02:45.000Z</time>
      </trkpt>
      <trkpt lat="47.45226" lon="6.72553">
        <ele>451</ele>
        <time>2015-04-26T10:02:46.000Z</time>
      </trkpt>
      <trkpt lat="47.45231" lon="6.72556">
        <ele>452</ele>
        <time>2015-04-26T10:02:47.000Z</time>
      </trkpt>
      <trkpt lat="47.45236" lon="6.72559">
        <ele>452</ele>
        <time>2015-04-26T10:02:48.000Z</time>
      </trkpt>
      <trkpt lat="47.45241" lon="6.72562">
        <ele>452</ele>
        <time>2015-04-26T10:02:49.000Z</time>
      </trkpt>
      <trkpt lat="47.45245" lon="6.72566">
        <ele>452</ele>
        <time>2015-04-26T10:02:50.000Z</time>
      </trkpt>
      <trkpt lat="47.4525" lon="6.72569">
        <ele>452</ele>
        <time>2015-04-26T10:02:51.000Z</time>
      </trkpt>
      <trkpt lat="47.45255" lon="6.72572">
        <ele>452</ele>
        <time>2015-04-26T10:02:52.000Z</time>
      </trkpt>
      <trkpt lat="47.45259" lon="6.72575">
        <ele>452</ele>
        <time>2015-04-26T10:02:53.000Z</time>
      </trkpt>
      <trkpt lat="47.45264" lon="6.72578">
        <ele>452</ele>
        <time>2015-04-26T10:02:54.000Z</time>
      </trkpt>
      <trkpt lat="47.45269" lon="6.7258">
        <ele>452</ele>
        <time>2015-04-26T10:02:55.000Z</time>
      </trkpt>
      <trkpt lat="47.45273" lon="6.72584">
        <ele>453</ele>
        <time>2015-04-26T10:02:56.000Z</time>
      </trkpt>
      <trkpt lat="47.45278" lon="6.72588">
        <ele>453</ele>
        <time>2015-04-26T10:02:57.000Z</time>
      </trkpt>
      <trkpt lat="47.45283" lon="6.72592">
        <ele>453</ele>
        <time>2015-04-26T10:02:58.000Z</time>
      </trkpt>
      <trkpt lat="47.45288" lon="6.72595">
        <ele>453</ele>
        <time>2015-04-26T10:02:59.000Z</time>
      </trkpt>
      <trkpt lat="47.45293" lon="6.72598">
        <ele>453</ele>
        <time>2015-04-26T10:03:00.000Z</time>
      </trkpt>
      <trkpt lat="47.45298" lon="6.72602">
        <ele>453</ele>
        <time>2015-04-26T10:03:01.000Z</time>
      </trkpt>
      <trkpt lat="47.45303" lon="6.72605">
        <ele>453</ele>
        <time>2015-04-26T10:03:02.000Z</time>
      </trkpt>
      <trkpt lat="47.45308" lon="6.72609">
        <ele>453</ele>
        <time>2015-04-26T10:03:03.000Z</time>
      </trkpt>
      <trkpt lat="47.45312" lon="6.72612">
        <ele>453</ele>
        <time>2015-04-26T10:03:04.000Z</time>
      </trkpt>
      <trkpt lat="47.45316" lon="6.72616">
        <ele>453</ele>
        <time>2015-04-26T10:03:05.000Z</time>
      </trkpt>
      <trkpt lat="47.45321" lon="6.72619">
        <ele>453</ele>
        <time>2015-04-26T10:03:06.000Z</time>
      </trkpt>
      <trkpt lat="47.45325" lon="6.72624">
        <ele>453</ele>
        <time>2015-04-26T10:03:07.000Z</time>
      </trkpt>
      <trkpt lat="47.45329" lon="6.72629">
        <ele>454</ele>
        <time>2015-04-26T10:03:08.000Z</time>
      </trkpt>
      <trkpt lat="47.45333" lon="6.72633">
        <ele>454</ele>
        <time>2015-04-26T10:03:09.000Z</time>
      </trkpt>
      <trkpt lat="47.45337" lon="6.72637">
        <ele>453</ele>
        <time>2015-04-26T10:03:10.000Z</time>
      </trkpt>
      <trkpt lat="47.45341" lon="6.72641">
        <ele>453</ele>
        <time>2015-04-26T10:03:11.000Z</time>
      </trkpt>
      <trkpt lat="47.45345" lon="6.72646">
        <ele>454</ele>
        <time>2015-04-26T10:03:12.000Z</time>
      </trkpt>
      <trkpt lat="47.45348" lon="6.72651">
        <ele>454</ele>
        <time>2015-04-26T10:03:13.000Z</time>
      </trkpt>
      <trkpt lat="47.45352" lon="6.72656">
        <ele>454</ele>
        <time>2015-04-26T10:03:14.000Z</time>
      </trkpt>
      <trkpt lat="47.45356" lon="6.7266">
        <ele>454</ele>
        <time>2015-04-26T10:03:15.000Z</time>
      </trkpt>
      <trkpt lat="47.45359" lon="6.72665">
        <ele>454</ele>
        <time>2015-04-26T10:03:16.000Z</time>
      </trkpt>
      <trkpt lat="47.45363" lon="6.72669">
        <ele>456</ele>
        <time>2015-04-26T10:03:17.000Z</time>
      </trkpt>
      <trkpt lat="47.45366" lon="6.72674">
        <ele>456</ele>
        <time>2015-04-26T10:03:18.000Z</time>
      </trkpt>
      <trkpt lat="47.4537" lon="6.72679">
        <ele>456</ele>
        <time>2015-04-26T10:03:19.000Z</time>
      </trkpt>
      <trkpt lat="47.45373" lon="6.72683">
        <ele>456</ele>
        <time>2015-04-26T10:03:20.000Z</time>
      </trkpt>
      <trkpt lat="47.45377" lon="6.72688">
        <ele>456</ele>
        <time>2015-04-26T10:03:21.000Z</time>
      </trkpt>
      <trkpt lat="47.4538" lon="6.72692">
        <ele>456</ele>
        <time>2015-04-26T10:03:22.000Z</time>
      </trkpt>
      <trkpt lat="47.45383" lon="6.72696">
        <ele>456</ele>
        <time>2015-04-26T10:03:23.000Z</time>
      </trkpt>
      <trkpt lat="47.45386" lon="6.72701">
        <ele>456</ele>
        <time>2015-04-26T10:03:24.000Z</time>
      </trkpt>
      <trkpt lat="47.4539" lon="6.72705">
        <ele>456</ele>
        <time>2015-04-26T10:03:25.000Z</time>
      </trkpt>
      <trkpt lat="47.45394" lon="6.72709">
        <ele>457</ele>
        <time>2015-04-26T10:03:26.000Z</time>
      </trkpt>
      <trkpt lat="47.45397" lon="6.72713">
        <ele>457</ele>
        <time>2015-04-26T10:03:27.000Z</time>
      </trkpt>
      <trkpt lat="47.45402" lon="6.72716">
        <ele>457</ele>
        <time>2015-04-26T10:03:28.000Z</time>
      </trkpt>
      <trkpt lat="47.45406" lon="6.72718">
        <ele>457</ele>
        <time>2015-04-26T10:03:29.000Z</time>
      </trkpt>
      <trkpt lat="47.45411" lon="6.72721">
        <ele>457</ele>
        <time>2015-04-26T10:03:30.000Z</time>
      </trkpt>
      <trkpt lat="47.45415" lon="6.72723">
        <ele>457</ele>
        <time>2015-04-26T10:03:31.000Z</time>
      </trkpt>
      <trkpt lat="47.4542" lon="6.72723">
        <ele>456</ele>
        <time>2015-04-26T10:03:32.000Z</time>
      </trkpt>
      <trkpt lat="47.45424" lon="6.72723">
        <ele>456</ele>
        <time>2015-04-26T10:03:33.000Z</time>
      </trkpt>
      <trkpt lat="47.45429" lon="6.72722">
        <ele>456</ele>
        <time>2015-04-26T10:03:34.000Z</time>
      </trkpt>
      <trkpt lat="47.45434" lon="6.72724">
        <ele>456</ele>
        <time>2015-04-26T10:03:35.000Z</time>
      </trkpt>
      <trkpt lat="47.45439" lon="6.72726">
        <ele>456</ele>
        <time>2015-04-26T10:03:36.000Z</time>
      </trkpt>
      <trkpt lat="47.4544" lon="6.7273">
        <ele>456</ele>
        <time>2015-04-26T10:03:37.000Z</time>
      </trkpt>
      <trkpt lat="47.45442" lon="6.72734">
        <ele>456</ele>
        <time>2015-04-26T10:03:38.000Z</time>
      </trkpt>
      <trkpt lat="47.45442" lon="6.72739">
        <ele>456</ele>
        <time>2015-04-26T10:03:39.000Z</time>
      </trkpt>
      <trkpt lat="47.45442" lon="6.72744">
        <ele>456</ele>
        <time>2015-04-26T10:03:40.000Z</time>
      </trkpt>
      <trkpt lat="47.45439" lon="6.72749">
        <ele>457</ele>
        <time>2015-04-26T10:03:43.000Z</time>
      </trkpt>
      <trkpt lat="47.45439" lon="6.72749">
        <ele>457</ele>
        <time>2015-04-26T10:03:44.000Z</time>
      </trkpt>
      <trkpt lat="47.45439" lon="6.72743">
        <ele>457</ele>
        <time>2015-04-26T10:04:34.000Z</time>
      </trkpt>
      <trkpt lat="47.45439" lon="6.7274">
        <ele>457</ele>
        <time>2015-04-26T10:04:35.000Z</time>
      </trkpt>
      <trkpt lat="47.4544" lon="6.72735">
        <ele>456</ele>
        <time>2015-04-26T10:04:37.000Z</time>
      </trkpt>
      <trkpt lat="47.45441" lon="6.72734">
        <ele>456</ele>
        <time>2015-04-26T10:04:38.000Z</time>
      </trkpt>
      <trkpt lat="47.45443" lon="6.72729">
        <ele>456</ele>
        <time>2015-04-26T10:04:51.000Z</time>
      </trkpt>
      <trkpt lat="47.45445" lon="6.72728">
        <ele>456</ele>
        <time>2015-04-26T10:04:52.000Z</time>
      </trkpt>
      <trkpt lat="47.45448" lon="6.72732">
        <ele>456</ele>
        <time>2015-04-26T10:04:55.000Z</time>
      </trkpt>
      <trkpt lat="47.45448" lon="6.72733">
        <ele>456</ele>
        <time>2015-04-26T10:04:56.000Z</time>
      </trkpt>
      <trkpt lat="47.45446" lon="6.72737">
        <ele>456</ele>
        <time>2015-04-26T10:04:58.000Z</time>
      </trkpt>
      <trkpt lat="47.45445" lon="6.72739">
        <ele>456</ele>
        <time>2015-04-26T10:04:59.000Z</time>
      </trkpt>
      <trkpt lat="47.45443" lon="6.72742">
        <ele>456</ele>
        <time>2015-04-26T10:05:01.000Z</time>
      </trkpt>
      <trkpt lat="47.45442" lon="6.72744">
        <ele>457</ele>
        <time>2015-04-26T10:05:02.000Z</time>
      </trkpt>
      <trkpt lat="47.45439" lon="6.72747">
        <ele>457</ele>
        <time>2015-04-26T10:05:05.000Z</time>
      </trkpt>
      <trkpt lat="47.45438" lon="6.72749">
        <ele>457</ele>
        <time>2015-04-26T10:05:06.000Z</time>
      </trkpt>
      <trkpt lat="47.45437" lon="6.72754">
        <ele>461</ele>
        <time>2015-04-26T10:05:10.000Z</time>
      </trkpt>
      <trkpt lat="47.45437" lon="6.72755">
        <ele>461</ele>
        <time>2015-04-26T10:05:11.000Z</time>
      </trkpt>
      <trkpt lat="47.45438" lon="6.72761">
        <ele>461</ele>
        <time>2015-04-26T10:05:20.000Z</time>
      </trkpt>
      <trkpt lat="47.45438" lon="6.72762">
        <ele>461</ele>
        <time>2015-04-26T10:05:21.000Z</time>
      </trkpt>
      <trkpt lat="47.45439" lon="6.72768">
        <ele>462</ele>
        <time>2015-04-26T10:05:27.000Z</time>
      </trkpt>
      <trkpt lat="47.45439" lon="6.72769">
        <ele>462</ele>
        <time>2015-04-26T10:05:28.000Z</time>
      </trkpt>
      <trkpt lat="47.45441" lon="6.72775">
        <ele>462</ele>
        <time>2015-04-26T10:05:48.000Z</time>
      </trkpt>
      <trkpt lat="47.45442" lon="6.72777">
        <ele>462</ele>
        <time>2015-04-26T10:05:49.000Z</time>
      </trkpt>
      <trkpt lat="47.45444" lon="6.72779">
        <ele>462</ele>
        <time>2015-04-26T10:05:50.000Z</time>
      </trkpt>
      <trkpt lat="47.45447" lon="6.72782">
        <ele>462</ele>
        <time>2015-04-26T10:05:51.000Z</time>
      </trkpt>
      <trkpt lat="47.45449" lon="6.72785">
        <ele>463</ele>
        <time>2015-04-26T10:05:52.000Z</time>
      </trkpt>
      <trkpt lat="47.45453" lon="6.72788">
        <ele>463</ele>
        <time>2015-04-26T10:05:53.000Z</time>
      </trkpt>
      <trkpt lat="47.45456" lon="6.72793">
        <ele>463</ele>
        <time>2015-04-26T10:05:54.000Z</time>
      </trkpt>
      <trkpt lat="47.4546" lon="6.72797">
        <ele>463</ele>
        <time>2015-04-26T10:05:55.000Z</time>
      </trkpt>
      <trkpt lat="47.45464" lon="6.72802">
        <ele>464</ele>
        <time>2015-04-26T10:05:56.000Z</time>
      </trkpt>
      <trkpt lat="47.45468" lon="6.72807">
        <ele>464</ele>
        <time>2015-04-26T10:05:57.000Z</time>
      </trkpt>
      <trkpt lat="47.45472" lon="6.72811">
        <ele>464</ele>
        <time>2015-04-26T10:05:58.000Z</time>
      </trkpt>
      <trkpt lat="47.45475" lon="6.72816">
        <ele>465</ele>
        <time>2015-04-26T10:05:59.000Z</time>
      </trkpt>
      <trkpt lat="47.45478" lon="6.72821">
        <ele>465</ele>
        <time>2015-04-26T10:06:00.000Z</time>
      </trkpt>
      <trkpt lat="47.45482" lon="6.72827">
        <ele>466</ele>
        <time>2015-04-26T10:06:01.000Z</time>
      </trkpt>
      <trkpt lat="47.45485" lon="6.72833">
        <ele>466</ele>
        <time>2015-04-26T10:06:02.000Z</time>
      </trkpt>
      <trkpt lat="47.45489" lon="6.72838">
        <ele>469</ele>
        <time>2015-04-26T10:06:03.000Z</time>
      </trkpt>
      <trkpt lat="47.45493" lon="6.72843">
        <ele>469</ele>
        <time>2015-04-26T10:06:04.000Z</time>
      </trkpt>
      <trkpt lat="47.45497" lon="6.72848">
        <ele>469</ele>
        <time>2015-04-26T10:06:05.000Z</time>
      </trkpt>
      <trkpt lat="47.45502" lon="6.72852">
        <ele>467</ele>
        <time>2015-04-26T10:06:06.000Z</time>
      </trkpt>
      <trkpt lat="47.45506" lon="6.72857">
        <ele>467</ele>
        <time>2015-04-26T10:06:07.000Z</time>
      </trkpt>
      <trkpt lat="47.45517" lon="6.72867">
        <ele>466</ele>
        <time>2015-04-26T10:06:08.000Z</time>
      </trkpt>
      <trkpt lat="47.45521" lon="6.7287">
        <ele>466</ele>
        <time>2015-04-26T10:06:09.000Z</time>
      </trkpt>
      <trkpt lat="47.45525" lon="6.72873">
        <ele>466</ele>
        <time>2015-04-26T10:06:10.000Z</time>
      </trkpt>
      <trkpt lat="47.45529" lon="6.72867">
        <ele>466</ele>
        <time>2015-04-26T10:06:11.000Z</time>
      </trkpt>
      <trkpt lat="47.45532" lon="6.72869">
        <ele>466</ele>
        <time>2015-04-26T10:06:12.000Z</time>
      </trkpt>
      <trkpt lat="47.45535" lon="6.72869">
        <ele>466</ele>
        <time>2015-04-26T10:06:13.000Z</time>
      </trkpt>
      <trkpt lat="47.45536" lon="6.72879">
        <ele>466</ele>
        <time>2015-04-26T10:06:14.000Z</time>
      </trkpt>
      <trkpt lat="47.45538" lon="6.72885">
        <ele>466</ele>
        <time>2015-04-26T10:06:15.000Z</time>
      </trkpt>
      <trkpt lat="47.45539" lon="6.7289">
        <ele>466</ele>
        <time>2015-04-26T10:06:16.000Z</time>
      </trkpt>
      <trkpt lat="47.45541" lon="6.72894">
        <ele>466</ele>
        <time>2015-04-26T10:06:17.000Z</time>
      </trkpt>
      <trkpt lat="47.45543" lon="6.72899">
        <ele>466</ele>
        <time>2015-04-26T10:06:18.000Z</time>
      </trkpt>
      <trkpt lat="47.45545" lon="6.72905">
        <ele>466</ele>
        <time>2015-04-26T10:06:19.000Z</time>
      </trkpt>
      <trkpt lat="47.45548" lon="6.72911">
        <ele>466</ele>
        <time>2015-04-26T10:06:20.000Z</time>
      </trkpt>
      <trkpt lat="47.4555" lon="6.72917">
        <ele>466</ele>
        <time>2015-04-26T10:06:21.000Z</time>
      </trkpt>
      <trkpt lat="47.45553" lon="6.72922">
        <ele>468</ele>
        <time>2015-04-26T10:06:22.000Z</time>
      </trkpt>
      <trkpt lat="47.45556" lon="6.72928">
        <ele>468</ele>
        <time>2015-04-26T10:06:23.000Z</time>
      </trkpt>
      <trkpt lat="47.45559" lon="6.72933">
        <ele>468</ele>
        <time>2015-04-26T10:06:24.000Z</time>
      </trkpt>
      <trkpt lat="47.45562" lon="6.72938">
        <ele>468</ele>
        <time>2015-04-26T10:06:25.000Z</time>
      </trkpt>
      <trkpt lat="47.45565" lon="6.72942">
        <ele>468</ele>
        <time>2015-04-26T10:06:26.000Z</time>
      </trkpt>
      <trkpt lat="47.45568" lon="6.72945">
        <ele>468</ele>
        <time>2015-04-26T10:06:27.000Z</time>
      </trkpt>
      <trkpt lat="47.45571" lon="6.72947">
        <ele>468</ele>
        <time>2015-04-26T10:06:28.000Z</time>
      </trkpt>
      <trkpt lat="47.45574" lon="6.72949">
        <ele>468</ele>
        <time>2015-04-26T10:06:29.000Z</time>
      </trkpt>
      <trkpt lat="47.45577" lon="6.72952">
        <ele>468</ele>
        <time>2015-04-26T10:06:30.000Z</time>
      </trkpt>
      <trkpt lat="47.45581" lon="6.72954">
        <ele>468</ele>
        <time>2015-04-26T10:06:31.000Z</time>
      </trkpt>
      <trkpt lat="47.45584" lon="6.72957">
        <ele>463</ele>
        <time>2015-04-26T10:06:32.000Z</time>
      </trkpt>
      <trkpt lat="47.45587" lon="6.7296">
        <ele>463</ele>
        <time>2015-04-26T10:06:33.000Z</time>
      </trkpt>
      <trkpt lat="47.45591" lon="6.72962">
        <ele>463</ele>
        <time>2015-04-26T10:06:34.000Z</time>
      </trkpt>
      <trkpt lat="47.45595" lon="6.72963">
        <ele>463</ele>
        <time>2015-04-26T10:06:35.000Z</time>
      </trkpt>
      <trkpt lat="47.45599" lon="6.72964">
        <ele>463</ele>
        <time>2015-04-26T10:06:36.000Z</time>
      </trkpt>
      <trkpt lat="47.45603" lon="6.72965">
        <ele>463</ele>
        <time>2015-04-26T10:06:37.000Z</time>
      </trkpt>
      <trkpt lat="47.45607" lon="6.72966">
        <ele>463</ele>
        <time>2015-04-26T10:06:38.000Z</time>
      </trkpt>
      <trkpt lat="47.45613" lon="6.72966">
        <ele>463</ele>
        <time>2015-04-26T10:06:39.000Z</time>
      </trkpt>
      <trkpt lat="47.45618" lon="6.72966">
        <ele>462</ele>
        <time>2015-04-26T10:06:40.000Z</time>
      </trkpt>
      <trkpt lat="47.45623" lon="6.72966">
        <ele>462</ele>
        <time>2015-04-26T10:06:41.000Z</time>
      </trkpt>
      <trkpt lat="47.45634" lon="6.7297">
        <ele>462</ele>
        <time>2015-04-26T10:06:42.000Z</time>
      </trkpt>
      <trkpt lat="47.45638" lon="6.72973">
        <ele>462</ele>
        <time>2015-04-26T10:06:43.000Z</time>
      </trkpt>
      <trkpt lat="47.45641" lon="6.72975">
        <ele>462</ele>
        <time>2015-04-26T10:06:44.000Z</time>
      </trkpt>
      <trkpt lat="47.45644" lon="6.7298">
        <ele>462</ele>
        <time>2015-04-26T10:06:45.000Z</time>
      </trkpt>
      <trkpt lat="47.45646" lon="6.72985">
        <ele>462</ele>
        <time>2015-04-26T10:06:46.000Z</time>
      </trkpt>
      <trkpt lat="47.45647" lon="6.72989">
        <ele>462</ele>
        <time>2015-04-26T10:06:47.000Z</time>
      </trkpt>
      <trkpt lat="47.4565" lon="6.72993">
        <ele>462</ele>
        <time>2015-04-26T10:06:48.000Z</time>
      </trkpt>
      <trkpt lat="47.45652" lon="6.72995">
        <ele>462</ele>
        <time>2015-04-26T10:06:49.000Z</time>
      </trkpt>
      <trkpt lat="47.45654" lon="6.72997">
        <ele>462</ele>
        <time>2015-04-26T10:06:50.000Z</time>
      </trkpt>
      <trkpt lat="47.45656" lon="6.72999">
        <ele>462</ele>
        <time>2015-04-26T10:06:51.000Z</time>
      </trkpt>
      <trkpt lat="47.45658" lon="6.73002">
        <ele>464</ele>
        <time>2015-04-26T10:06:52.000Z</time>
      </trkpt>
      <trkpt lat="47.45659" lon="6.73005">
        <ele>464</ele>
        <time>2015-04-26T10:06:53.000Z</time>
      </trkpt>
      <trkpt lat="47.45661" lon="6.73009">
        <ele>464</ele>
        <time>2015-04-26T10:06:54.000Z</time>
      </trkpt>
      <trkpt lat="47.45663" lon="6.73013">
        <ele>464</ele>
        <time>2015-04-26T10:06:55.000Z</time>
      </trkpt>
      <trkpt lat="47.45666" lon="6.73016">
        <ele>465</ele>
        <time>2015-04-26T10:06:56.000Z</time>
      </trkpt>
      <trkpt lat="47.45669" lon="6.7302">
        <ele>462</ele>
        <time>2015-04-26T10:06:57.000Z</time>
      </trkpt>
      <trkpt lat="47.45672" lon="6.73023">
        <ele>462</ele>
        <time>2015-04-26T10:06:58.000Z</time>
      </trkpt>
      <trkpt lat="47.45675" lon="6.73024">
        <ele>461</ele>
        <time>2015-04-26T10:06:59.000Z</time>
      </trkpt>
      <trkpt lat="47.45679" lon="6.73025">
        <ele>461</ele>
        <time>2015-04-26T10:07:00.000Z</time>
      </trkpt>
      <trkpt lat="47.45683" lon="6.73026">
        <ele>461</ele>
        <time>2015-04-26T10:07:01.000Z</time>
      </trkpt>
      <trkpt lat="47.45686" lon="6.73026">
        <ele>461</ele>
        <time>2015-04-26T10:07:02.000Z</time>
      </trkpt>
      <trkpt lat="47.4569" lon="6.73027">
        <ele>461</ele>
        <time>2015-04-26T10:07:04.000Z</time>
      </trkpt>
      <trkpt lat="47.45692" lon="6.73028">
        <ele>461</ele>
        <time>2015-04-26T10:07:05.000Z</time>
      </trkpt>
      <trkpt lat="47.45695" lon="6.7303">
        <ele>461</ele>
        <time>2015-04-26T10:07:06.000Z</time>
      </trkpt>
      <trkpt lat="47.45698" lon="6.73032">
        <ele>461</ele>
        <time>2015-04-26T10:07:07.000Z</time>
      </trkpt>
      <trkpt lat="47.457" lon="6.73034">
        <ele>460</ele>
        <time>2015-04-26T10:07:08.000Z</time>
      </trkpt>
      <trkpt lat="47.45703" lon="6.73036">
        <ele>460</ele>
        <time>2015-04-26T10:07:09.000Z</time>
      </trkpt>
      <trkpt lat="47.45705" lon="6.73039">
        <ele>460</ele>
        <time>2015-04-26T10:07:10.000Z</time>
      </trkpt>
      <trkpt lat="47.45708" lon="6.73041">
        <ele>460</ele>
        <time>2015-04-26T10:07:11.000Z</time>
      </trkpt>
      <trkpt lat="47.4571" lon="6.73043">
        <ele>460</ele>
        <time>2015-04-26T10:07:12.000Z</time>
      </trkpt>
      <trkpt lat="47.45712" lon="6.73045">
        <ele>460</ele>
        <time>2015-04-26T10:07:13.000Z</time>
      </trkpt>
      <trkpt lat="47.45716" lon="6.73049">
        <ele>460</ele>
        <time>2015-04-26T10:07:15.000Z</time>
      </trkpt>
      <trkpt lat="47.45717" lon="6.73051">
        <ele>460</ele>
        <time>2015-04-26T10:07:16.000Z</time>
      </trkpt>
      <trkpt lat="47.45719" lon="6.73055">
        <ele>460</ele>
        <time>2015-04-26T10:07:18.000Z</time>
      </trkpt>
      <trkpt lat="47.45721" lon="6.73057">
        <ele>460</ele>
        <time>2015-04-26T10:07:19.000Z</time>
      </trkpt>
      <trkpt lat="47.45723" lon="6.73061">
        <ele>460</ele>
        <time>2015-04-26T10:07:21.000Z</time>
      </trkpt>
      <trkpt lat="47.45724" lon="6.73063">
        <ele>460</ele>
        <time>2015-04-26T10:07:22.000Z</time>
      </trkpt>
      <trkpt lat="47.45725" lon="6.73069">
        <ele>460</ele>
        <time>2015-04-26T10:07:24.000Z</time>
      </trkpt>
      <trkpt lat="47.45726" lon="6.73072">
        <ele>460</ele>
        <time>2015-04-26T10:07:25.000Z</time>
      </trkpt>
      <trkpt lat="47.45727" lon="6.73077">
        <ele>460</ele>
        <time>2015-04-26T10:07:27.000Z</time>
      </trkpt>
      <trkpt lat="47.45727" lon="6.7308">
        <ele>460</ele>
        <time>2015-04-26T10:07:28.000Z</time>
      </trkpt>
      <trkpt lat="47.45728" lon="6.73085">
        <ele>463</ele>
        <time>2015-04-26T10:07:30.000Z</time>
      </trkpt>
      <trkpt lat="47.45729" lon="6.73088">
        <ele>463</ele>
        <time>2015-04-26T10:07:31.000Z</time>
      </trkpt>
      <trkpt lat="47.4573" lon="6.73094">
        <ele>463</ele>
        <time>2015-04-26T10:07:34.000Z</time>
      </trkpt>
      <trkpt lat="47.4573" lon="6.73096">
        <ele>463</ele>
        <time>2015-04-26T10:07:35.000Z</time>
      </trkpt>
      <trkpt lat="47.45731" lon="6.73101">
        <ele>463</ele>
        <time>2015-04-26T10:07:38.000Z</time>
      </trkpt>
      <trkpt lat="47.45731" lon="6.73103">
        <ele>463</ele>
        <time>2015-04-26T10:07:39.000Z</time>
      </trkpt>
      <trkpt lat="47.45731" lon="6.73108">
        <ele>463</ele>
        <time>2015-04-26T10:07:41.000Z</time>
      </trkpt>
      <trkpt lat="47.45731" lon="6.7311">
        <ele>463</ele>
        <time>2015-04-26T10:07:42.000Z</time>
      </trkpt>
      <trkpt lat="47.45733" lon="6.73115">
        <ele>463</ele>
        <time>2015-04-26T10:07:44.000Z</time>
      </trkpt>
      <trkpt lat="47.45733" lon="6.73117">
        <ele>464</ele>
        <time>2015-04-26T10:07:45.000Z</time>
      </trkpt>
      <trkpt lat="47.45734" lon="6.73123">
        <ele>464</ele>
        <time>2015-04-26T10:07:48.000Z</time>
      </trkpt>
      <trkpt lat="47.45734" lon="6.73125">
        <ele>464</ele>
        <time>2015-04-26T10:07:49.000Z</time>
      </trkpt>
      <trkpt lat="47.45736" lon="6.7313">
        <ele>464</ele>
        <time>2015-04-26T10:07:51.000Z</time>
      </trkpt>
      <trkpt lat="47.45736" lon="6.73132">
        <ele>464</ele>
        <time>2015-04-26T10:07:52.000Z</time>
      </trkpt>
      <trkpt lat="47.45738" lon="6.73136">
        <ele>464</ele>
        <time>2015-04-26T10:07:54.000Z</time>
      </trkpt>
      <trkpt lat="47.45739" lon="6.73138">
        <ele>464</ele>
        <time>2015-04-26T10:07:55.000Z</time>
      </trkpt>
      <trkpt lat="47.45742" lon="6.73143">
        <ele>464</ele>
        <time>2015-04-26T10:07:57.000Z</time>
      </trkpt>
      <trkpt lat="47.45743" lon="6.73145">
        <ele>464</ele>
        <time>2015-04-26T10:07:58.000Z</time>
      </trkpt>
      <trkpt lat="47.45745" lon="6.73147">
        <ele>464</ele>
        <time>2015-04-26T10:07:59.000Z</time>
      </trkpt>
      <trkpt lat="47.45748" lon="6.7315">
        <ele>464</ele>
        <time>2015-04-26T10:08:00.000Z</time>
      </trkpt>
      <trkpt lat="47.4575" lon="6.73153">
        <ele>464</ele>
        <time>2015-04-26T10:08:01.000Z</time>
      </trkpt>
      <trkpt lat="47.45752" lon="6.73155">
        <ele>461</ele>
        <time>2015-04-26T10:08:02.000Z</time>
      </trkpt>
      <trkpt lat="47.45755" lon="6.73159">
        <ele>462</ele>
        <time>2015-04-26T10:08:04.000Z</time>
      </trkpt>
      <trkpt lat="47.45756" lon="6.73162">
        <ele>462</ele>
        <time>2015-04-26T10:08:05.000Z</time>
      </trkpt>
      <trkpt lat="47.45757" lon="6.73168">
        <ele>463</ele>
        <time>2015-04-26T10:08:17.000Z</time>
      </trkpt>
      <trkpt lat="47.45757" lon="6.73168">
        <ele>463</ele>
        <time>2015-04-26T10:08:18.000Z</time>
      </trkpt>
      <trkpt lat="47.45753" lon="6.73165">
        <ele>463</ele>
        <time>2015-04-26T10:08:27.000Z</time>
      </trkpt>
      <trkpt lat="47.45752" lon="6.73164">
        <ele>463</ele>
        <time>2015-04-26T10:08:28.000Z</time>
      </trkpt>
      <trkpt lat="47.45748" lon="6.73161">
        <ele>464</ele>
        <time>2015-04-26T10:08:31.000Z</time>
      </trkpt>
      <trkpt lat="47.45747" lon="6.7316">
        <ele>464</ele>
        <time>2015-04-26T10:08:32.000Z</time>
      </trkpt>
      <trkpt lat="47.45743" lon="6.7316">
        <ele>464</ele>
        <time>2015-04-26T10:08:35.000Z</time>
      </trkpt>
      <trkpt lat="47.45742" lon="6.73159">
        <ele>464</ele>
        <time>2015-04-26T10:08:36.000Z</time>
      </trkpt>
      <trkpt lat="47.45738" lon="6.73156">
        <ele>464</ele>
        <time>2015-04-26T10:08:41.000Z</time>
      </trkpt>
      <trkpt lat="47.45738" lon="6.73156">
        <ele>464</ele>
        <time>2015-04-26T10:08:42.000Z</time>
      </trkpt>
      <trkpt lat="47.45738" lon="6.7315">
        <ele>464</ele>
        <time>2015-04-26T10:08:53.000Z</time>
      </trkpt>
      <trkpt lat="47.45736" lon="6.73148">
        <ele>464</ele>
        <time>2015-04-26T10:08:54.000Z</time>
      </trkpt>
      <trkpt lat="47.45735" lon="6.73145">
        <ele>464</ele>
        <time>2015-04-26T10:08:55.000Z</time>
      </trkpt>
      <trkpt lat="47.45733" lon="6.73142">
        <ele>464</ele>
        <time>2015-04-26T10:08:56.000Z</time>
      </trkpt>
      <trkpt lat="47.45731" lon="6.73139">
        <ele>464</ele>
        <time>2015-04-26T10:08:57.000Z</time>
      </trkpt>
      <trkpt lat="47.45729" lon="6.73135">
        <ele>464</ele>
        <time>2015-04-26T10:08:58.000Z</time>
      </trkpt>
      <trkpt lat="47.45728" lon="6.73132">
        <ele>464</ele>
        <time>2015-04-26T10:08:59.000Z</time>
      </trkpt>
      <trkpt lat="47.45725" lon="6.7313">
        <ele>464</ele>
        <time>2015-04-26T10:09:00.000Z</time>
      </trkpt>
      <trkpt lat="47.45723" lon="6.73128">
        <ele>464</ele>
        <time>2015-04-26T10:09:01.000Z</time>
      </trkpt>
      <trkpt lat="47.4572" lon="6.73126">
        <ele>464</ele>
        <time>2015-04-26T10:09:02.000Z</time>
      </trkpt>
      <trkpt lat="47.45718" lon="6.73124">
        <ele>464</ele>
        <time>2015-04-26T10:09:03.000Z</time>
      </trkpt>
      <trkpt lat="47.45715" lon="6.73121">
        <ele>464</ele>
        <time>2015-04-26T10:09:04.000Z</time>
      </trkpt>
      <trkpt lat="47.45713" lon="6.73117">
        <ele>464</ele>
        <time>2015-04-26T10:09:05.000Z</time>
      </trkpt>
      <trkpt lat="47.45712" lon="6.73113">
        <ele>464</ele>
        <time>2015-04-26T10:09:06.000Z</time>
      </trkpt>
      <trkpt lat="47.45711" lon="6.73109">
        <ele>464</ele>
        <time>2015-04-26T10:09:07.000Z</time>
      </trkpt>
      <trkpt lat="47.4571" lon="6.73104">
        <ele>464</ele>
        <time>2015-04-26T10:09:08.000Z</time>
      </trkpt>
      <trkpt lat="47.45708" lon="6.73101">
        <ele>464</ele>
        <time>2015-04-26T10:09:09.000Z</time>
      </trkpt>
      <trkpt lat="47.45706" lon="6.73097">
        <ele>464</ele>
        <time>2015-04-26T10:09:10.000Z</time>
      </trkpt>
      <trkpt lat="47.45702" lon="6.73094">
        <ele>464</ele>
        <time>2015-04-26T10:09:11.000Z</time>
      </trkpt>
      <trkpt lat="47.45698" lon="6.73092">
        <ele>464</ele>
        <time>2015-04-26T10:09:12.000Z</time>
      </trkpt>
      <trkpt lat="47.45694" lon="6.7309">
        <ele>464</ele>
        <time>2015-04-26T10:09:13.000Z</time>
      </trkpt>
      <trkpt lat="47.4569" lon="6.73089">
        <ele>464</ele>
        <time>2015-04-26T10:09:14.000Z</time>
      </trkpt>
      <trkpt lat="47.45685" lon="6.73088">
        <ele>465</ele>
        <time>2015-04-26T10:09:15.000Z</time>
      </trkpt>
      <trkpt lat="47.4568" lon="6.73087">
        <ele>465</ele>
        <time>2015-04-26T10:09:16.000Z</time>
      </trkpt>
      <trkpt lat="47.45676" lon="6.73085">
        <ele>465</ele>
        <time>2015-04-26T10:09:17.000Z</time>
      </trkpt>
      <trkpt lat="47.45673" lon="6.73083">
        <ele>464</ele>
        <time>2015-04-26T10:09:18.000Z</time>
      </trkpt>
      <trkpt lat="47.45671" lon="6.7308">
        <ele>464</ele>
        <time>2015-04-26T10:09:19.000Z</time>
      </trkpt>
      <trkpt lat="47.45669" lon="6.73077">
        <ele>464</ele>
        <time>2015-04-26T10:09:20.000Z</time>
      </trkpt>
      <trkpt lat="47.45668" lon="6.73073">
        <ele>464</ele>
        <time>2015-04-26T10:09:21.000Z</time>
      </trkpt>
      <trkpt lat="47.45667" lon="6.73067">
        <ele>463</ele>
        <time>2015-04-26T10:09:23.000Z</time>
      </trkpt>
      <trkpt lat="47.45666" lon="6.73064">
        <ele>466</ele>
        <time>2015-04-26T10:09:24.000Z</time>
      </trkpt>
      <trkpt lat="47.45664" lon="6.73061">
        <ele>466</ele>
        <time>2015-04-26T10:09:25.000Z</time>
      </trkpt>
      <trkpt lat="47.45661" lon="6.73058">
        <ele>466</ele>
        <time>2015-04-26T10:09:26.000Z</time>
      </trkpt>
      <trkpt lat="47.45657" lon="6.73056">
        <ele>466</ele>
        <time>2015-04-26T10:09:27.000Z</time>
      </trkpt>
      <trkpt lat="47.45654" lon="6.73054">
        <ele>466</ele>
        <time>2015-04-26T10:09:28.000Z</time>
      </trkpt>
      <trkpt lat="47.45651" lon="6.73053">
        <ele>466</ele>
        <time>2015-04-26T10:09:29.000Z</time>
      </trkpt>
      <trkpt lat="47.45648" lon="6.7305">
        <ele>466</ele>
        <time>2015-04-26T10:09:30.000Z</time>
      </trkpt>
      <trkpt lat="47.45645" lon="6.73048">
        <ele>466</ele>
        <time>2015-04-26T10:09:31.000Z</time>
      </trkpt>
      <trkpt lat="47.45642" lon="6.73045">
        <ele>466</ele>
        <time>2015-04-26T10:09:32.000Z</time>
      </trkpt>
      <trkpt lat="47.4564" lon="6.73043">
        <ele>466</ele>
        <time>2015-04-26T10:09:33.000Z</time>
      </trkpt>
      <trkpt lat="47.45637" lon="6.73041">
        <ele>466</ele>
        <time>2015-04-26T10:09:34.000Z</time>
      </trkpt>
      <trkpt lat="47.45635" lon="6.73039">
        <ele>466</ele>
        <time>2015-04-26T10:09:35.000Z</time>
      </trkpt>
      <trkpt lat="47.45633" lon="6.73037">
        <ele>466</ele>
        <time>2015-04-26T10:09:36.000Z</time>
      </trkpt>
      <trkpt lat="47.4563" lon="6.73035">
        <ele>466</ele>
        <time>2015-04-26T10:09:37.000Z</time>
      </trkpt>
      <trkpt lat="47.45627" lon="6.73033">
        <ele>466</ele>
        <time>2015-04-26T10:09:38.000Z</time>
      </trkpt>
      <trkpt lat="47.45624" lon="6.73031">
        <ele>466</ele>
        <time>2015-04-26T10:09:39.000Z</time>
      </trkpt>
      <trkpt lat="47.45622" lon="6.73028">
        <ele>466</ele>
        <time>2015-04-26T10:09:40.000Z</time>
      </trkpt>
      <trkpt lat="47.45619" lon="6.73026">
        <ele>467</ele>
        <time>2015-04-26T10:09:41.000Z</time>
      </trkpt>
      <trkpt lat="47.45616" lon="6.73024">
        <ele>467</ele>
        <time>2015-04-26T10:09:42.000Z</time>
      </trkpt>
      <trkpt lat="47.45613" lon="6.73022">
        <ele>467</ele>
        <time>2015-04-26T10:09:43.000Z</time>
      </trkpt>
      <trkpt lat="47.4561" lon="6.7302">
        <ele>467</ele>
        <time>2015-04-26T10:09:44.000Z</time>
      </trkpt>
      <trkpt lat="47.45608" lon="6.73019">
        <ele>467</ele>
        <time>2015-04-26T10:09:45.000Z</time>
      </trkpt>
      <trkpt lat="47.45606" lon="6.73018">
        <ele>467</ele>
        <time>2015-04-26T10:09:46.000Z</time>
      </trkpt>
      <trkpt lat="47.45602" lon="6.73016">
        <ele>467</ele>
        <time>2015-04-26T10:09:48.000Z</time>
      </trkpt>
      <trkpt lat="47.456" lon="6.73015">
        <ele>467</ele>
        <time>2015-04-26T10:09:49.000Z</time>
      </trkpt>
      <trkpt lat="47.45596" lon="6.73013">
        <ele>467</ele>
        <time>2015-04-26T10:09:51.000Z</time>
      </trkpt>
      <trkpt lat="47.45594" lon="6.73012">
        <ele>467</ele>
        <time>2015-04-26T10:09:52.000Z</time>
      </trkpt>
      <trkpt lat="47.4559" lon="6.73011">
        <ele>467</ele>
        <time>2015-04-26T10:09:54.000Z</time>
      </trkpt>
      <trkpt lat="47.45589" lon="6.7301">
        <ele>467</ele>
        <time>2015-04-26T10:09:55.000Z</time>
      </trkpt>
      <trkpt lat="47.45586" lon="6.73007">
        <ele>468</ele>
        <time>2015-04-26T10:09:57.000Z</time>
      </trkpt>
      <trkpt lat="47.45584" lon="6.73006">
        <ele>468</ele>
        <time>2015-04-26T10:09:58.000Z</time>
      </trkpt>
      <trkpt lat="47.45582" lon="6.73002">
        <ele>468</ele>
        <time>2015-04-26T10:10:02.000Z</time>
      </trkpt>
      <trkpt lat="47.45581" lon="6.73001">
        <ele>468</ele>
        <time>2015-04-26T10:10:03.000Z</time>
      </trkpt>
      <trkpt lat="47.4558" lon="6.72995">
        <ele>468</ele>
        <time>2015-04-26T10:10:06.000Z</time>
      </trkpt>
      <trkpt lat="47.45579" lon="6.72993">
        <ele>468</ele>
        <time>2015-04-26T10:10:07.000Z</time>
      </trkpt>
      <trkpt lat="47.45578" lon="6.72989">
        <ele>468</ele>
        <time>2015-04-26T10:10:09.000Z</time>
      </trkpt>
      <trkpt lat="47.45576" lon="6.72987">
        <ele>468</ele>
        <time>2015-04-26T10:10:10.000Z</time>
      </trkpt>
      <trkpt lat="47.45574" lon="6.72984">
        <ele>468</ele>
        <time>2015-04-26T10:10:12.000Z</time>
      </trkpt>
      <trkpt lat="47.45573" lon="6.72982">
        <ele>468</ele>
        <time>2015-04-26T10:10:13.000Z</time>
      </trkpt>
      <trkpt lat="47.45571" lon="6.72977">
        <ele>468</ele>
        <time>2015-04-26T10:10:15.000Z</time>
      </trkpt>
      <trkpt lat="47.4557" lon="6.72975">
        <ele>468</ele>
        <time>2015-04-26T10:10:16.000Z</time>
      </trkpt>
      <trkpt lat="47.45567" lon="6.72971">
        <ele>468</ele>
        <time>2015-04-26T10:10:19.000Z</time>
      </trkpt>
      <trkpt lat="47.45566" lon="6.72971">
        <ele>468</ele>
        <time>2015-04-26T10:10:20.000Z</time>
      </trkpt>
      <trkpt lat="47.45564" lon="6.72972">
        <ele>468</ele>
        <time>2015-04-26T10:10:25.000Z</time>
      </trkpt>
      <trkpt lat="47.45562" lon="6.72972">
        <ele>468</ele>
        <time>2015-04-26T10:10:26.000Z</time>
      </trkpt>
      <trkpt lat="47.45558" lon="6.72971">
        <ele>468</ele>
        <time>2015-04-26T10:10:32.000Z</time>
      </trkpt>
      <trkpt lat="47.45557" lon="6.72971">
        <ele>468</ele>
        <time>2015-04-26T10:10:33.000Z</time>
      </trkpt>
      <trkpt lat="47.45555" lon="6.72976">
        <ele>468</ele>
        <time>2015-04-26T10:10:46.000Z</time>
      </trkpt>
      <trkpt lat="47.45555" lon="6.72978">
        <ele>468</ele>
        <time>2015-04-26T10:10:47.000Z</time>
      </trkpt>
      <trkpt lat="47.45555" lon="6.72984">
        <ele>468</ele>
        <time>2015-04-26T10:10:49.000Z</time>
      </trkpt>
      <trkpt lat="47.45555" lon="6.72987">
        <ele>468</ele>
        <time>2015-04-26T10:10:50.000Z</time>
      </trkpt>
      <trkpt lat="47.45556" lon="6.72993">
        <ele>468</ele>
        <time>2015-04-26T10:10:52.000Z</time>
      </trkpt>
      <trkpt lat="47.45557" lon="6.72994">
        <ele>468</ele>
        <time>2015-04-26T10:10:53.000Z</time>
      </trkpt>
      <trkpt lat="47.45559" lon="6.73">
        <ele>468</ele>
        <time>2015-04-26T10:10:56.000Z</time>
      </trkpt>
      <trkpt lat="47.45559" lon="6.73002">
        <ele>468</ele>
        <time>2015-04-26T10:10:57.000Z</time>
      </trkpt>
      <trkpt lat="47.45559" lon="6.73007">
        <ele>468</ele>
        <time>2015-04-26T10:10:59.000Z</time>
      </trkpt>
      <trkpt lat="47.45559" lon="6.7301">
        <ele>468</ele>
        <time>2015-04-26T10:11:00.000Z</time>
      </trkpt>
      <trkpt lat="47.45558" lon="6.73016">
        <ele>469</ele>
        <time>2015-04-26T10:11:02.000Z</time>
      </trkpt>
      <trkpt lat="47.45558" lon="6.7302">
        <ele>469</ele>
        <time>2015-04-26T10:11:03.000Z</time>
      </trkpt>
      <trkpt lat="47.45558" lon="6.73024">
        <ele>469</ele>
        <time>2015-04-26T10:11:04.000Z</time>
      </trkpt>
      <trkpt lat="47.45558" lon="6.73028">
        <ele>469</ele>
        <time>2015-04-26T10:11:05.000Z</time>
      </trkpt>
      <trkpt lat="47.45559" lon="6.73034">
        <ele>469</ele>
        <time>2015-04-26T10:11:07.000Z</time>
      </trkpt>
      <trkpt lat="47.4556" lon="6.73037">
        <ele>469</ele>
        <time>2015-04-26T10:11:08.000Z</time>
      </trkpt>
      <trkpt lat="47.45561" lon="6.73042">
        <ele>469</ele>
        <time>2015-04-26T10:11:11.000Z</time>
      </trkpt>
      <trkpt lat="47.45561" lon="6.73043">
        <ele>469</ele>
        <time>2015-04-26T10:11:12.000Z</time>
      </trkpt>
      <trkpt lat="47.45558" lon="6.73047">
        <ele>469</ele>
        <time>2015-04-26T10:11:16.000Z</time>
      </trkpt>
      <trkpt lat="47.45558" lon="6.73049">
        <ele>469</ele>
        <time>2015-04-26T10:11:17.000Z</time>
      </trkpt>
      <trkpt lat="47.45558" lon="6.73054">
        <ele>469</ele>
        <time>2015-04-26T10:11:19.000Z</time>
      </trkpt>
      <trkpt lat="47.45559" lon="6.73056">
        <ele>469</ele>
        <time>2015-04-26T10:11:20.000Z</time>
      </trkpt>
      <trkpt lat="47.4556" lon="6.73063">
        <ele>469</ele>
        <time>2015-04-26T10:11:23.000Z</time>
      </trkpt>
      <trkpt lat="47.4556" lon="6.73065">
        <ele>469</ele>
        <time>2015-04-26T10:11:24.000Z</time>
      </trkpt>
      <trkpt lat="47.4556" lon="6.73071">
        <ele>469</ele>
        <time>2015-04-26T10:11:26.000Z</time>
      </trkpt>
      <trkpt lat="47.45561" lon="6.73074">
        <ele>469</ele>
        <time>2015-04-26T10:11:27.000Z</time>
      </trkpt>
      <trkpt lat="47.45561" lon="6.7308">
        <ele>469</ele>
        <time>2015-04-26T10:11:29.000Z</time>
      </trkpt>
      <trkpt lat="47.45561" lon="6.73082">
        <ele>469</ele>
        <time>2015-04-26T10:11:30.000Z</time>
      </trkpt>
      <trkpt lat="47.45562" lon="6.73087">
        <ele>468</ele>
        <time>2015-04-26T10:11:32.000Z</time>
      </trkpt>
      <trkpt lat="47.45563" lon="6.73089">
        <ele>468</ele>
        <time>2015-04-26T10:11:33.000Z</time>
      </trkpt>
      <trkpt lat="47.45564" lon="6.73091">
        <ele>468</ele>
        <time>2015-04-26T10:11:34.000Z</time>
      </trkpt>
      <trkpt lat="47.45565" lon="6.73094">
        <ele>468</ele>
        <time>2015-04-26T10:11:35.000Z</time>
      </trkpt>
      <trkpt lat="47.45566" lon="6.73098">
        <ele>468</ele>
        <time>2015-04-26T10:11:36.000Z</time>
      </trkpt>
      <trkpt lat="47.45568" lon="6.73101">
        <ele>468</ele>
        <time>2015-04-26T10:11:37.000Z</time>
      </trkpt>
      <trkpt lat="47.4557" lon="6.73105">
        <ele>468</ele>
        <time>2015-04-26T10:11:38.000Z</time>
      </trkpt>
      <trkpt lat="47.45571" lon="6.73108">
        <ele>468</ele>
        <time>2015-04-26T10:11:39.000Z</time>
      </trkpt>
      <trkpt lat="47.45573" lon="6.73111">
        <ele>468</ele>
        <time>2015-04-26T10:11:40.000Z</time>
      </trkpt>
      <trkpt lat="47.45574" lon="6.73114">
        <ele>468</ele>
        <time>2015-04-26T10:11:41.000Z</time>
      </trkpt>
      <trkpt lat="47.45576" lon="6.7312">
        <ele>468</ele>
        <time>2015-04-26T10:11:43.000Z</time>
      </trkpt>
      <trkpt lat="47.45576" lon="6.73123">
        <ele>468</ele>
        <time>2015-04-26T10:11:44.000Z</time>
      </trkpt>
      <trkpt lat="47.45576" lon="6.73126">
        <ele>468</ele>
        <time>2015-04-26T10:11:45.000Z</time>
      </trkpt>
      <trkpt lat="47.45575" lon="6.73129">
        <ele>468</ele>
        <time>2015-04-26T10:11:46.000Z</time>
      </trkpt>
      <trkpt lat="47.45575" lon="6.73133">
        <ele>468</ele>
        <time>2015-04-26T10:11:47.000Z</time>
      </trkpt>
      <trkpt lat="47.45574" lon="6.73136">
        <ele>468</ele>
        <time>2015-04-26T10:11:48.000Z</time>
      </trkpt>
      <trkpt lat="47.45574" lon="6.7314">
        <ele>469</ele>
        <time>2015-04-26T10:11:49.000Z</time>
      </trkpt>
      <trkpt lat="47.45573" lon="6.73145">
        <ele>469</ele>
        <time>2015-04-26T10:11:50.000Z</time>
      </trkpt>
      <trkpt lat="47.45573" lon="6.73152">
        <ele>469</ele>
        <time>2015-04-26T10:11:51.000Z</time>
      </trkpt>
      <trkpt lat="47.45572" lon="6.73159">
        <ele>469</ele>
        <time>2015-04-26T10:11:52.000Z</time>
      </trkpt>
      <trkpt lat="47.45572" lon="6.73166">
        <ele>470</ele>
        <time>2015-04-26T10:11:53.000Z</time>
      </trkpt>
      <trkpt lat="47.45573" lon="6.73174">
        <ele>469</ele>
        <time>2015-04-26T10:11:54.000Z</time>
      </trkpt>
      <trkpt lat="47.45573" lon="6.73182">
        <ele>468</ele>
        <time>2015-04-26T10:11:55.000Z</time>
      </trkpt>
      <trkpt lat="47.45574" lon="6.73189">
        <ele>467</ele>
        <time>2015-04-26T10:11:56.000Z</time>
      </trkpt>
      <trkpt lat="47.45574" lon="6.73197">
        <ele>467</ele>
        <time>2015-04-26T10:11:57.000Z</time>
      </trkpt>
      <trkpt lat="47.45575" lon="6.73203">
        <ele>467</ele>
        <time>2015-04-26T10:11:58.000Z</time>
      </trkpt>
      <trkpt lat="47.45576" lon="6.7321">
        <ele>466</ele>
        <time>2015-04-26T10:11:59.000Z</time>
      </trkpt>
      <trkpt lat="47.45576" lon="6.73215">
        <ele>466</ele>
        <time>2015-04-26T10:12:00.000Z</time>
      </trkpt>
      <trkpt lat="47.45574" lon="6.73219">
        <ele>466</ele>
        <time>2015-04-26T10:12:01.000Z</time>
      </trkpt>
      <trkpt lat="47.45571" lon="6.73223">
        <ele>466</ele>
        <time>2015-04-26T10:12:02.000Z</time>
      </trkpt>
      <trkpt lat="47.45562" lon="6.73234">
        <ele>466</ele>
        <time>2015-04-26T10:12:03.000Z</time>
      </trkpt>
      <trkpt lat="47.45558" lon="6.7324">
        <ele>466</ele>
        <time>2015-04-26T10:12:04.000Z</time>
      </trkpt>
      <trkpt lat="47.45555" lon="6.73247">
        <ele>465</ele>
        <time>2015-04-26T10:12:05.000Z</time>
      </trkpt>
      <trkpt lat="47.45551" lon="6.73252">
        <ele>464</ele>
        <time>2015-04-26T10:12:06.000Z</time>
      </trkpt>
      <trkpt lat="47.45547" lon="6.73256">
        <ele>464</ele>
        <time>2015-04-26T10:12:07.000Z</time>
      </trkpt>
      <trkpt lat="47.45544" lon="6.73261">
        <ele>463</ele>
        <time>2015-04-26T10:12:08.000Z</time>
      </trkpt>
      <trkpt lat="47.45538" lon="6.73266">
        <ele>463</ele>
        <time>2015-04-26T10:12:09.000Z</time>
      </trkpt>
      <trkpt lat="47.45531" lon="6.73267">
        <ele>463</ele>
        <time>2015-04-26T10:12:10.000Z</time>
      </trkpt>
      <trkpt lat="47.45526" lon="6.73274">
        <ele>463</ele>
        <time>2015-04-26T10:12:11.000Z</time>
      </trkpt>
      <trkpt lat="47.45521" lon="6.73276">
        <ele>463</ele>
        <time>2015-04-26T10:12:12.000Z</time>
      </trkpt>
      <trkpt lat="47.45514" lon="6.73278">
        <ele>463</ele>
        <time>2015-04-26T10:12:13.000Z</time>
      </trkpt>
      <trkpt lat="47.45509" lon="6.73285">
        <ele>463</ele>
        <time>2015-04-26T10:12:14.000Z</time>
      </trkpt>
      <trkpt lat="47.45505" lon="6.73289">
        <ele>463</ele>
        <time>2015-04-26T10:12:15.000Z</time>
      </trkpt>
      <trkpt lat="47.45501" lon="6.73292">
        <ele>463</ele>
        <time>2015-04-26T10:12:16.000Z</time>
      </trkpt>
      <trkpt lat="47.45499" lon="6.733">
        <ele>462</ele>
        <time>2015-04-26T10:12:17.000Z</time>
      </trkpt>
      <trkpt lat="47.45495" lon="6.73304">
        <ele>462</ele>
        <time>2015-04-26T10:12:18.000Z</time>
      </trkpt>
      <trkpt lat="47.45491" lon="6.73309">
        <ele>462</ele>
        <time>2015-04-26T10:12:19.000Z</time>
      </trkpt>
      <trkpt lat="47.45489" lon="6.73312">
        <ele>462</ele>
        <time>2015-04-26T10:12:20.000Z</time>
      </trkpt>
      <trkpt lat="47.45485" lon="6.73315">
        <ele>462</ele>
        <time>2015-04-26T10:12:21.000Z</time>
      </trkpt>
      <trkpt lat="47.45482" lon="6.73316">
        <ele>463</ele>
        <time>2015-04-26T10:12:22.000Z</time>
      </trkpt>
      <trkpt lat="47.4548" lon="6.73317">
        <ele>462</ele>
        <time>2015-04-26T10:12:23.000Z</time>
      </trkpt>
      <trkpt lat="47.45476" lon="6.73317">
        <ele>462</ele>
        <time>2015-04-26T10:12:24.000Z</time>
      </trkpt>
      <trkpt lat="47.45474" lon="6.7332">
        <ele>462</ele>
        <time>2015-04-26T10:12:25.000Z</time>
      </trkpt>
      <trkpt lat="47.45472" lon="6.73322">
        <ele>463</ele>
        <time>2015-04-26T10:12:26.000Z</time>
      </trkpt>
      <trkpt lat="47.4547" lon="6.73325">
        <ele>463</ele>
        <time>2015-04-26T10:12:27.000Z</time>
      </trkpt>
      <trkpt lat="47.45468" lon="6.7333">
        <ele>463</ele>
        <time>2015-04-26T10:12:30.000Z</time>
      </trkpt>
      <trkpt lat="47.45468" lon="6.73332">
        <ele>463</ele>
        <time>2015-04-26T10:12:31.000Z</time>
      </trkpt>
      <trkpt lat="47.45468" lon="6.73338">
        <ele>464</ele>
        <time>2015-04-26T10:12:34.000Z</time>
      </trkpt>
      <trkpt lat="47.45469" lon="6.7334">
        <ele>464</ele>
        <time>2015-04-26T10:12:35.000Z</time>
      </trkpt>
      <trkpt lat="47.4547" lon="6.73345">
        <ele>464</ele>
        <time>2015-04-26T10:12:37.000Z</time>
      </trkpt>
      <trkpt lat="47.4547" lon="6.73349">
        <ele>464</ele>
        <time>2015-04-26T10:12:38.000Z</time>
      </trkpt>
      <trkpt lat="47.4547" lon="6.73353">
        <ele>464</ele>
        <time>2015-04-26T10:12:39.000Z</time>
      </trkpt>
      <trkpt lat="47.45469" lon="6.73356">
        <ele>464</ele>
        <time>2015-04-26T10:12:40.000Z</time>
      </trkpt>
      <trkpt lat="47.45468" lon="6.73359">
        <ele>464</ele>
        <time>2015-04-26T10:12:41.000Z</time>
      </trkpt>
      <trkpt lat="47.45466" lon="6.73362">
        <ele>464</ele>
        <time>2015-04-26T10:12:42.000Z</time>
      </trkpt>
      <trkpt lat="47.45463" lon="6.73365">
        <ele>464</ele>
        <time>2015-04-26T10:12:43.000Z</time>
      </trkpt>
      <trkpt lat="47.45462" lon="6.7337">
        <ele>464</ele>
        <time>2015-04-26T10:12:44.000Z</time>
      </trkpt>
      <trkpt lat="47.45461" lon="6.73375">
        <ele>464</ele>
        <time>2015-04-26T10:12:45.000Z</time>
      </trkpt>
      <trkpt lat="47.4546" lon="6.7338">
        <ele>464</ele>
        <time>2015-04-26T10:12:46.000Z</time>
      </trkpt>
      <trkpt lat="47.45459" lon="6.73385">
        <ele>464</ele>
        <time>2015-04-26T10:12:47.000Z</time>
      </trkpt>
      <trkpt lat="47.45458" lon="6.7339">
        <ele>464</ele>
        <time>2015-04-26T10:12:48.000Z</time>
      </trkpt>
      <trkpt lat="47.45457" lon="6.73395">
        <ele>464</ele>
        <time>2015-04-26T10:12:49.000Z</time>
      </trkpt>
      <trkpt lat="47.45456" lon="6.73399">
        <ele>464</ele>
        <time>2015-04-26T10:12:50.000Z</time>
      </trkpt>
      <trkpt lat="47.45455" lon="6.73404">
        <ele>464</ele>
        <time>2015-04-26T10:12:51.000Z</time>
      </trkpt>
      <trkpt lat="47.45456" lon="6.73409">
        <ele>464</ele>
        <time>2015-04-26T10:12:52.000Z</time>
      </trkpt>
      <trkpt lat="47.45456" lon="6.73415">
        <ele>464</ele>
        <time>2015-04-26T10:12:53.000Z</time>
      </trkpt>
      <trkpt lat="47.45457" lon="6.73421">
        <ele>465</ele>
        <time>2015-04-26T10:12:54.000Z</time>
      </trkpt>
      <trkpt lat="47.45457" lon="6.73427">
        <ele>465</ele>
        <time>2015-04-26T10:12:55.000Z</time>
      </trkpt>
      <trkpt lat="47.45458" lon="6.73434">
        <ele>465</ele>
        <time>2015-04-26T10:12:56.000Z</time>
      </trkpt>
      <trkpt lat="47.45457" lon="6.73441">
        <ele>465</ele>
        <time>2015-04-26T10:12:57.000Z</time>
      </trkpt>
      <trkpt lat="47.45457" lon="6.73447">
        <ele>465</ele>
        <time>2015-04-26T10:12:58.000Z</time>
      </trkpt>
      <trkpt lat="47.45457" lon="6.73453">
        <ele>465</ele>
        <time>2015-04-26T10:12:59.000Z</time>
      </trkpt>
      <trkpt lat="47.45457" lon="6.7346">
        <ele>465</ele>
        <time>2015-04-26T10:13:00.000Z</time>
      </trkpt>
      <trkpt lat="47.45456" lon="6.73466">
        <ele>465</ele>
        <time>2015-04-26T10:13:01.000Z</time>
      </trkpt>
      <trkpt lat="47.45455" lon="6.73473">
        <ele>465</ele>
        <time>2015-04-26T10:13:02.000Z</time>
      </trkpt>
      <trkpt lat="47.45454" lon="6.73479">
        <ele>465</ele>
        <time>2015-04-26T10:13:03.000Z</time>
      </trkpt>
      <trkpt lat="47.45454" lon="6.73485">
        <ele>465</ele>
        <time>2015-04-26T10:13:04.000Z</time>
      </trkpt>
      <trkpt lat="47.45455" lon="6.73491">
        <ele>465</ele>
        <time>2015-04-26T10:13:05.000Z</time>
      </trkpt>
      <trkpt lat="47.45455" lon="6.73498">
        <ele>465</ele>
        <time>2015-04-26T10:13:06.000Z</time>
      </trkpt>
      <trkpt lat="47.45456" lon="6.73504">
        <ele>464</ele>
        <time>2015-04-26T10:13:07.000Z</time>
      </trkpt>
      <trkpt lat="47.45457" lon="6.7351">
        <ele>464</ele>
        <time>2015-04-26T10:13:08.000Z</time>
      </trkpt>
      <trkpt lat="47.45458" lon="6.73516">
        <ele>464</ele>
        <time>2015-04-26T10:13:09.000Z</time>
      </trkpt>
      <trkpt lat="47.45459" lon="6.73522">
        <ele>464</ele>
        <time>2015-04-26T10:13:10.000Z</time>
      </trkpt>
      <trkpt lat="47.4546" lon="6.73529">
        <ele>464</ele>
        <time>2015-04-26T10:13:11.000Z</time>
      </trkpt>
      <trkpt lat="47.45462" lon="6.73537">
        <ele>464</ele>
        <time>2015-04-26T10:13:12.000Z</time>
      </trkpt>
      <trkpt lat="47.45467" lon="6.73556">
        <ele>464</ele>
        <time>2015-04-26T10:13:13.000Z</time>
      </trkpt>
      <trkpt lat="47.45469" lon="6.73562">
        <ele>464</ele>
        <time>2015-04-26T10:13:14.000Z</time>
      </trkpt>
      <trkpt lat="47.4547" lon="6.73568">
        <ele>464</ele>
        <time>2015-04-26T10:13:15.000Z</time>
      </trkpt>
      <trkpt lat="47.4547" lon="6.7357">
        <ele>464</ele>
        <time>2015-04-26T10:13:16.000Z</time>
      </trkpt>
      <trkpt lat="47.45471" lon="6.73573">
        <ele>464</ele>
        <time>2015-04-26T10:13:17.000Z</time>
      </trkpt>
      <trkpt lat="47.4547" lon="6.7358">
        <ele>464</ele>
        <time>2015-04-26T10:13:18.000Z</time>
      </trkpt>
      <trkpt lat="47.4547" lon="6.7359">
        <ele>463</ele>
        <time>2015-04-26T10:13:19.000Z</time>
      </trkpt>
      <trkpt lat="47.45472" lon="6.73597">
        <ele>463</ele>
        <time>2015-04-26T10:13:20.000Z</time>
      </trkpt>
      <trkpt lat="47.45475" lon="6.73604">
        <ele>463</ele>
        <time>2015-04-26T10:13:21.000Z</time>
      </trkpt>
      <trkpt lat="47.45478" lon="6.7361">
        <ele>463</ele>
        <time>2015-04-26T10:13:22.000Z</time>
      </trkpt>
      <trkpt lat="47.4548" lon="6.73615">
        <ele>463</ele>
        <time>2015-04-26T10:13:23.000Z</time>
      </trkpt>
      <trkpt lat="47.45482" lon="6.73619">
        <ele>463</ele>
        <time>2015-04-26T10:13:24.000Z</time>
      </trkpt>
      <trkpt lat="47.45484" lon="6.73624">
        <ele>462</ele>
        <time>2015-04-26T10:13:25.000Z</time>
      </trkpt>
      <trkpt lat="47.45487" lon="6.73628">
        <ele>462</ele>
        <time>2015-04-26T10:13:26.000Z</time>
      </trkpt>
      <trkpt lat="47.45489" lon="6.73632">
        <ele>462</ele>
        <time>2015-04-26T10:13:27.000Z</time>
      </trkpt>
      <trkpt lat="47.45491" lon="6.73635">
        <ele>462</ele>
        <time>2015-04-26T10:13:28.000Z</time>
      </trkpt>
      <trkpt lat="47.45493" lon="6.73639">
        <ele>462</ele>
        <time>2015-04-26T10:13:29.000Z</time>
      </trkpt>
      <trkpt lat="47.45495" lon="6.73643">
        <ele>462</ele>
        <time>2015-04-26T10:13:30.000Z</time>
      </trkpt>
      <trkpt lat="47.45499" lon="6.73646">
        <ele>462</ele>
        <time>2015-04-26T10:13:31.000Z</time>
      </trkpt>
      <trkpt lat="47.45502" lon="6.73649">
        <ele>462</ele>
        <time>2015-04-26T10:13:32.000Z</time>
      </trkpt>
      <trkpt lat="47.45506" lon="6.73653">
        <ele>462</ele>
        <time>2015-04-26T10:13:33.000Z</time>
      </trkpt>
      <trkpt lat="47.4551" lon="6.73656">
        <ele>462</ele>
        <time>2015-04-26T10:13:34.000Z</time>
      </trkpt>
      <trkpt lat="47.45514" lon="6.73659">
        <ele>462</ele>
        <time>2015-04-26T10:13:35.000Z</time>
      </trkpt>
      <trkpt lat="47.45518" lon="6.73662">
        <ele>462</ele>
        <time>2015-04-26T10:13:36.000Z</time>
      </trkpt>
      <trkpt lat="47.45523" lon="6.73665">
        <ele>462</ele>
        <time>2015-04-26T10:13:37.000Z</time>
      </trkpt>
      <trkpt lat="47.45527" lon="6.73667">
        <ele>461</ele>
        <time>2015-04-26T10:13:38.000Z</time>
      </trkpt>
      <trkpt lat="47.45531" lon="6.73668">
        <ele>461</ele>
        <time>2015-04-26T10:13:39.000Z</time>
      </trkpt>
      <trkpt lat="47.45535" lon="6.73669">
        <ele>461</ele>
        <time>2015-04-26T10:13:40.000Z</time>
      </trkpt>
      <trkpt lat="47.45539" lon="6.73671">
        <ele>461</ele>
        <time>2015-04-26T10:13:41.000Z</time>
      </trkpt>
      <trkpt lat="47.45543" lon="6.73672">
        <ele>461</ele>
        <time>2015-04-26T10:13:42.000Z</time>
      </trkpt>
      <trkpt lat="47.45547" lon="6.73673">
        <ele>461</ele>
        <time>2015-04-26T10:13:43.000Z</time>
      </trkpt>
      <trkpt lat="47.45551" lon="6.73673">
        <ele>461</ele>
        <time>2015-04-26T10:13:44.000Z</time>
      </trkpt>
      <trkpt lat="47.45556" lon="6.73673">
        <ele>461</ele>
        <time>2015-04-26T10:13:45.000Z</time>
      </trkpt>
      <trkpt lat="47.4556" lon="6.73673">
        <ele>461</ele>
        <time>2015-04-26T10:13:46.000Z</time>
      </trkpt>
      <trkpt lat="47.45564" lon="6.73673">
        <ele>461</ele>
        <time>2015-04-26T10:13:47.000Z</time>
      </trkpt>
      <trkpt lat="47.45568" lon="6.73674">
        <ele>461</ele>
        <time>2015-04-26T10:13:48.000Z</time>
      </trkpt>
      <trkpt lat="47.45571" lon="6.73675">
        <ele>461</ele>
        <time>2015-04-26T10:13:49.000Z</time>
      </trkpt>
      <trkpt lat="47.45575" lon="6.73677">
        <ele>461</ele>
        <time>2015-04-26T10:13:50.000Z</time>
      </trkpt>
      <trkpt lat="47.45579" lon="6.73678">
        <ele>461</ele>
        <time>2015-04-26T10:13:51.000Z</time>
      </trkpt>
      <trkpt lat="47.45582" lon="6.7368">
        <ele>461</ele>
        <time>2015-04-26T10:13:52.000Z</time>
      </trkpt>
      <trkpt lat="47.45585" lon="6.73681">
        <ele>459</ele>
        <time>2015-04-26T10:13:53.000Z</time>
      </trkpt>
      <trkpt lat="47.45589" lon="6.73682">
        <ele>459</ele>
        <time>2015-04-26T10:13:54.000Z</time>
      </trkpt>
      <trkpt lat="47.45592" lon="6.73684">
        <ele>459</ele>
        <time>2015-04-26T10:13:55.000Z</time>
      </trkpt>
      <trkpt lat="47.45595" lon="6.73685">
        <ele>458</ele>
        <time>2015-04-26T10:13:56.000Z</time>
      </trkpt>
      <trkpt lat="47.45598" lon="6.73687">
        <ele>458</ele>
        <time>2015-04-26T10:13:57.000Z</time>
      </trkpt>
      <trkpt lat="47.45601" lon="6.73688">
        <ele>458</ele>
        <time>2015-04-26T10:13:58.000Z</time>
      </trkpt>
      <trkpt lat="47.45604" lon="6.7369">
        <ele>458</ele>
        <time>2015-04-26T10:13:59.000Z</time>
      </trkpt>
      <trkpt lat="47.45607" lon="6.73691">
        <ele>458</ele>
        <time>2015-04-26T10:14:00.000Z</time>
      </trkpt>
      <trkpt lat="47.45609" lon="6.73692">
        <ele>458</ele>
        <time>2015-04-26T10:14:01.000Z</time>
      </trkpt>
      <trkpt lat="47.45612" lon="6.73693">
        <ele>458</ele>
        <time>2015-04-26T10:14:02.000Z</time>
      </trkpt>
      <trkpt lat="47.45615" lon="6.73693">
        <ele>457</ele>
        <time>2015-04-26T10:14:03.000Z</time>
      </trkpt>
      <trkpt lat="47.45618" lon="6.73692">
        <ele>457</ele>
        <time>2015-04-26T10:14:04.000Z</time>
      </trkpt>
      <trkpt lat="47.45621" lon="6.7369">
        <ele>457</ele>
        <time>2015-04-26T10:14:05.000Z</time>
      </trkpt>
      <trkpt lat="47.45623" lon="6.73687">
        <ele>457</ele>
        <time>2015-04-26T10:14:06.000Z</time>
      </trkpt>
      <trkpt lat="47.45624" lon="6.73685">
        <ele>457</ele>
        <time>2015-04-26T10:14:07.000Z</time>
      </trkpt>
      <trkpt lat="47.45627" lon="6.73682">
        <ele>457</ele>
        <time>2015-04-26T10:14:18.000Z</time>
      </trkpt>
      <trkpt lat="47.45628" lon="6.73682">
        <ele>457</ele>
        <time>2015-04-26T10:14:19.000Z</time>
      </trkpt>
      <trkpt lat="47.45631" lon="6.73684">
        <ele>457</ele>
        <time>2015-04-26T10:14:21.000Z</time>
      </trkpt>
      <trkpt lat="47.45633" lon="6.73687">
        <ele>456</ele>
        <time>2015-04-26T10:14:22.000Z</time>
      </trkpt>
      <trkpt lat="47.45635" lon="6.7369">
        <ele>456</ele>
        <time>2015-04-26T10:14:23.000Z</time>
      </trkpt>
      <trkpt lat="47.45636" lon="6.73695">
        <ele>456</ele>
        <time>2015-04-26T10:14:24.000Z</time>
      </trkpt>
      <trkpt lat="47.45636" lon="6.73701">
        <ele>456</ele>
        <time>2015-04-26T10:14:25.000Z</time>
      </trkpt>
      <trkpt lat="47.45635" lon="6.73707">
        <ele>457</ele>
        <time>2015-04-26T10:14:26.000Z</time>
      </trkpt>
      <trkpt lat="47.45633" lon="6.73713">
        <ele>457</ele>
        <time>2015-04-26T10:14:27.000Z</time>
      </trkpt>
      <trkpt lat="47.45631" lon="6.73718">
        <ele>457</ele>
        <time>2015-04-26T10:14:28.000Z</time>
      </trkpt>
      <trkpt lat="47.45629" lon="6.73723">
        <ele>457</ele>
        <time>2015-04-26T10:14:29.000Z</time>
      </trkpt>
      <trkpt lat="47.45627" lon="6.73728">
        <ele>457</ele>
        <time>2015-04-26T10:14:30.000Z</time>
      </trkpt>
      <trkpt lat="47.45626" lon="6.73732">
        <ele>457</ele>
        <time>2015-04-26T10:14:31.000Z</time>
      </trkpt>
      <trkpt lat="47.45624" lon="6.73736">
        <ele>457</ele>
        <time>2015-04-26T10:14:32.000Z</time>
      </trkpt>
      <trkpt lat="47.45622" lon="6.7374">
        <ele>457</ele>
        <time>2015-04-26T10:14:33.000Z</time>
      </trkpt>
      <trkpt lat="47.4562" lon="6.73743">
        <ele>458</ele>
        <time>2015-04-26T10:14:34.000Z</time>
      </trkpt>
      <trkpt lat="47.45618" lon="6.73747">
        <ele>458</ele>
        <time>2015-04-26T10:14:35.000Z</time>
      </trkpt>
      <trkpt lat="47.45617" lon="6.73752">
        <ele>457</ele>
        <time>2015-04-26T10:14:36.000Z</time>
      </trkpt>
      <trkpt lat="47.45616" lon="6.73757">
        <ele>457</ele>
        <time>2015-04-26T10:14:37.000Z</time>
      </trkpt>
      <trkpt lat="47.45615" lon="6.73763">
        <ele>457</ele>
        <time>2015-04-26T10:14:38.000Z</time>
      </trkpt>
      <trkpt lat="47.45615" lon="6.7377">
        <ele>457</ele>
        <time>2015-04-26T10:14:39.000Z</time>
      </trkpt>
      <trkpt lat="47.45614" lon="6.73777">
        <ele>457</ele>
        <time>2015-04-26T10:14:40.000Z</time>
      </trkpt>
      <trkpt lat="47.45612" lon="6.73796">
        <ele>457</ele>
        <time>2015-04-26T10:14:41.000Z</time>
      </trkpt>
      <trkpt lat="47.45612" lon="6.73804">
        <ele>457</ele>
        <time>2015-04-26T10:14:42.000Z</time>
      </trkpt>
      <trkpt lat="47.45611" lon="6.73812">
        <ele>457</ele>
        <time>2015-04-26T10:14:43.000Z</time>
      </trkpt>
      <trkpt lat="47.4561" lon="6.73819">
        <ele>457</ele>
        <time>2015-04-26T10:14:44.000Z</time>
      </trkpt>
      <trkpt lat="47.45609" lon="6.73826">
        <ele>457</ele>
        <time>2015-04-26T10:14:45.000Z</time>
      </trkpt>
      <trkpt lat="47.45607" lon="6.73834">
        <ele>457</ele>
        <time>2015-04-26T10:14:46.000Z</time>
      </trkpt>
      <trkpt lat="47.45607" lon="6.73842">
        <ele>457</ele>
        <time>2015-04-26T10:14:47.000Z</time>
      </trkpt>
      <trkpt lat="47.45606" lon="6.73848">
        <ele>457</ele>
        <time>2015-04-26T10:14:48.000Z</time>
      </trkpt>
      <trkpt lat="47.45607" lon="6.73855">
        <ele>456</ele>
        <time>2015-04-26T10:14:49.000Z</time>
      </trkpt>
      <trkpt lat="47.45607" lon="6.7386">
        <ele>456</ele>
        <time>2015-04-26T10:14:50.000Z</time>
      </trkpt>
      <trkpt lat="47.45609" lon="6.73868">
        <ele>456</ele>
        <time>2015-04-26T10:14:51.000Z</time>
      </trkpt>
      <trkpt lat="47.45613" lon="6.73877">
        <ele>456</ele>
        <time>2015-04-26T10:14:52.000Z</time>
      </trkpt>
      <trkpt lat="47.45616" lon="6.73883">
        <ele>456</ele>
        <time>2015-04-26T10:14:53.000Z</time>
      </trkpt>
      <trkpt lat="47.45621" lon="6.73893">
        <ele>456</ele>
        <time>2015-04-26T10:14:54.000Z</time>
      </trkpt>
      <trkpt lat="47.45626" lon="6.73901">
        <ele>456</ele>
        <time>2015-04-26T10:14:55.000Z</time>
      </trkpt>
      <trkpt lat="47.45631" lon="6.7391">
        <ele>455</ele>
        <time>2015-04-26T10:14:56.000Z</time>
      </trkpt>
      <trkpt lat="47.45639" lon="6.73922">
        <ele>455</ele>
        <time>2015-04-26T10:14:57.000Z</time>
      </trkpt>
      <trkpt lat="47.45644" lon="6.7393">
        <ele>455</ele>
        <time>2015-04-26T10:14:58.000Z</time>
      </trkpt>
      <trkpt lat="47.45649" lon="6.73941">
        <ele>455</ele>
        <time>2015-04-26T10:14:59.000Z</time>
      </trkpt>
      <trkpt lat="47.45654" lon="6.7395">
        <ele>455</ele>
        <time>2015-04-26T10:15:00.000Z</time>
      </trkpt>
      <trkpt lat="47.4566" lon="6.73957">
        <ele>455</ele>
        <time>2015-04-26T10:15:01.000Z</time>
      </trkpt>
      <trkpt lat="47.45665" lon="6.73965">
        <ele>455</ele>
        <time>2015-04-26T10:15:02.000Z</time>
      </trkpt>
      <trkpt lat="47.45669" lon="6.73977">
        <ele>450</ele>
        <time>2015-04-26T10:15:03.000Z</time>
      </trkpt>
      <trkpt lat="47.45674" lon="6.73989">
        <ele>451</ele>
        <time>2015-04-26T10:15:04.000Z</time>
      </trkpt>
      <trkpt lat="47.45681" lon="6.74001">
        <ele>450</ele>
        <time>2015-04-26T10:15:05.000Z</time>
      </trkpt>
      <trkpt lat="47.45688" lon="6.74005">
        <ele>449</ele>
        <time>2015-04-26T10:15:06.000Z</time>
      </trkpt>
      <trkpt lat="47.45693" lon="6.74012">
        <ele>448</ele>
        <time>2015-04-26T10:15:07.000Z</time>
      </trkpt>
      <trkpt lat="47.45699" lon="6.74019">
        <ele>447</ele>
        <time>2015-04-26T10:15:08.000Z</time>
      </trkpt>
      <trkpt lat="47.45704" lon="6.74025">
        <ele>446</ele>
        <time>2015-04-26T10:15:09.000Z</time>
      </trkpt>
      <trkpt lat="47.4571" lon="6.7403">
        <ele>446</ele>
        <time>2015-04-26T10:15:10.000Z</time>
      </trkpt>
      <trkpt lat="47.45716" lon="6.74036">
        <ele>445</ele>
        <time>2015-04-26T10:15:11.000Z</time>
      </trkpt>
      <trkpt lat="47.45724" lon="6.74044">
        <ele>444</ele>
        <time>2015-04-26T10:15:12.000Z</time>
      </trkpt>
      <trkpt lat="47.45729" lon="6.7405">
        <ele>444</ele>
        <time>2015-04-26T10:15:13.000Z</time>
      </trkpt>
      <trkpt lat="47.45735" lon="6.74056">
        <ele>443</ele>
        <time>2015-04-26T10:15:14.000Z</time>
      </trkpt>
      <trkpt lat="47.45737" lon="6.74062">
        <ele>442</ele>
        <time>2015-04-26T10:15:15.000Z</time>
      </trkpt>
      <trkpt lat="47.4574" lon="6.74067">
        <ele>442</ele>
        <time>2015-04-26T10:15:16.000Z</time>
      </trkpt>
      <trkpt lat="47.45743" lon="6.74074">
        <ele>440</ele>
        <time>2015-04-26T10:15:17.000Z</time>
      </trkpt>
      <trkpt lat="47.45747" lon="6.74082">
        <ele>438</ele>
        <time>2015-04-26T10:15:18.000Z</time>
      </trkpt>
      <trkpt lat="47.45752" lon="6.74092">
        <ele>436</ele>
        <time>2015-04-26T10:15:19.000Z</time>
      </trkpt>
      <trkpt lat="47.45757" lon="6.74101">
        <ele>434</ele>
        <time>2015-04-26T10:15:20.000Z</time>
      </trkpt>
      <trkpt lat="47.45762" lon="6.74112">
        <ele>434</ele>
        <time>2015-04-26T10:15:21.000Z</time>
      </trkpt>
      <trkpt lat="47.45765" lon="6.74126">
        <ele>433</ele>
        <time>2015-04-26T10:15:22.000Z</time>
      </trkpt>
      <trkpt lat="47.45771" lon="6.74135">
        <ele>432</ele>
        <time>2015-04-26T10:15:23.000Z</time>
      </trkpt>
      <trkpt lat="47.45776" lon="6.74144">
        <ele>432</ele>
        <time>2015-04-26T10:15:24.000Z</time>
      </trkpt>
      <trkpt lat="47.45778" lon="6.74151">
        <ele>432</ele>
        <time>2015-04-26T10:15:25.000Z</time>
      </trkpt>
      <trkpt lat="47.45783" lon="6.74161">
        <ele>432</ele>
        <time>2015-04-26T10:15:26.000Z</time>
      </trkpt>
      <trkpt lat="47.45785" lon="6.74164">
        <ele>432</ele>
        <time>2015-04-26T10:15:27.000Z</time>
      </trkpt>
      <trkpt lat="47.45788" lon="6.74166">
        <ele>432</ele>
        <time>2015-04-26T10:15:28.000Z</time>
      </trkpt>
      <trkpt lat="47.45791" lon="6.74169">
        <ele>426</ele>
        <time>2015-04-26T10:15:29.000Z</time>
      </trkpt>
      <trkpt lat="47.45793" lon="6.74173">
        <ele>426</ele>
        <time>2015-04-26T10:15:30.000Z</time>
      </trkpt>
      <trkpt lat="47.45795" lon="6.74176">
        <ele>426</ele>
        <time>2015-04-26T10:15:31.000Z</time>
      </trkpt>
      <trkpt lat="47.45799" lon="6.74183">
        <ele>425</ele>
        <time>2015-04-26T10:15:32.000Z</time>
      </trkpt>
      <trkpt lat="47.45804" lon="6.74188">
        <ele>425</ele>
        <time>2015-04-26T10:15:33.000Z</time>
      </trkpt>
      <trkpt lat="47.45808" lon="6.74189">
        <ele>425</ele>
        <time>2015-04-26T10:15:34.000Z</time>
      </trkpt>
      <trkpt lat="47.45812" lon="6.74191">
        <ele>425</ele>
        <time>2015-04-26T10:15:35.000Z</time>
      </trkpt>
      <trkpt lat="47.45815" lon="6.74193">
        <ele>424</ele>
        <time>2015-04-26T10:15:36.000Z</time>
      </trkpt>
      <trkpt lat="47.45818" lon="6.74194">
        <ele>424</ele>
        <time>2015-04-26T10:15:37.000Z</time>
      </trkpt>
      <trkpt lat="47.45822" lon="6.74196">
        <ele>424</ele>
        <time>2015-04-26T10:15:38.000Z</time>
      </trkpt>
      <trkpt lat="47.45825" lon="6.74198">
        <ele>424</ele>
        <time>2015-04-26T10:15:39.000Z</time>
      </trkpt>
      <trkpt lat="47.45828" lon="6.742">
        <ele>424</ele>
        <time>2015-04-26T10:15:40.000Z</time>
      </trkpt>
      <trkpt lat="47.45832" lon="6.74202">
        <ele>423</ele>
        <time>2015-04-26T10:15:41.000Z</time>
      </trkpt>
      <trkpt lat="47.45836" lon="6.74204">
        <ele>419</ele>
        <time>2015-04-26T10:15:42.000Z</time>
      </trkpt>
      <trkpt lat="47.4584" lon="6.74206">
        <ele>419</ele>
        <time>2015-04-26T10:15:43.000Z</time>
      </trkpt>
      <trkpt lat="47.45844" lon="6.74207">
        <ele>419</ele>
        <time>2015-04-26T10:15:44.000Z</time>
      </trkpt>
      <trkpt lat="47.45847" lon="6.74209">
        <ele>419</ele>
        <time>2015-04-26T10:15:45.000Z</time>
      </trkpt>
      <trkpt lat="47.45851" lon="6.74211">
        <ele>418</ele>
        <time>2015-04-26T10:15:46.000Z</time>
      </trkpt>
      <trkpt lat="47.45855" lon="6.74212">
        <ele>418</ele>
        <time>2015-04-26T10:15:47.000Z</time>
      </trkpt>
      <trkpt lat="47.45859" lon="6.74214">
        <ele>418</ele>
        <time>2015-04-26T10:15:48.000Z</time>
      </trkpt>
      <trkpt lat="47.45863" lon="6.74214">
        <ele>418</ele>
        <time>2015-04-26T10:15:49.000Z</time>
      </trkpt>
      <trkpt lat="47.45867" lon="6.74215">
        <ele>417</ele>
        <time>2015-04-26T10:15:50.000Z</time>
      </trkpt>
      <trkpt lat="47.45872" lon="6.74216">
        <ele>417</ele>
        <time>2015-04-26T10:15:51.000Z</time>
      </trkpt>
      <trkpt lat="47.45877" lon="6.74216">
        <ele>417</ele>
        <time>2015-04-26T10:15:52.000Z</time>
      </trkpt>
      <trkpt lat="47.45882" lon="6.74216">
        <ele>417</ele>
        <time>2015-04-26T10:15:53.000Z</time>
      </trkpt>
      <trkpt lat="47.45888" lon="6.74216">
        <ele>417</ele>
        <time>2015-04-26T10:15:54.000Z</time>
      </trkpt>
      <trkpt lat="47.45893" lon="6.74216">
        <ele>416</ele>
        <time>2015-04-26T10:15:55.000Z</time>
      </trkpt>
      <trkpt lat="47.45898" lon="6.74217">
        <ele>416</ele>
        <time>2015-04-26T10:15:56.000Z</time>
      </trkpt>
      <trkpt lat="47.45903" lon="6.74218">
        <ele>416</ele>
        <time>2015-04-26T10:15:57.000Z</time>
      </trkpt>
      <trkpt lat="47.45907" lon="6.74219">
        <ele>415</ele>
        <time>2015-04-26T10:15:58.000Z</time>
      </trkpt>
      <trkpt lat="47.4591" lon="6.74221">
        <ele>415</ele>
        <time>2015-04-26T10:15:59.000Z</time>
      </trkpt>
      <trkpt lat="47.45913" lon="6.74222">
        <ele>415</ele>
        <time>2015-04-26T10:16:00.000Z</time>
      </trkpt>
      <trkpt lat="47.45917" lon="6.74224">
        <ele>415</ele>
        <time>2015-04-26T10:16:01.000Z</time>
      </trkpt>
      <trkpt lat="47.45921" lon="6.74224">
        <ele>413</ele>
        <time>2015-04-26T10:16:02.000Z</time>
      </trkpt>
      <trkpt lat="47.45924" lon="6.74224">
        <ele>414</ele>
        <time>2015-04-26T10:16:03.000Z</time>
      </trkpt>
      <trkpt lat="47.45928" lon="6.74222">
        <ele>414</ele>
        <time>2015-04-26T10:16:04.000Z</time>
      </trkpt>
      <trkpt lat="47.45931" lon="6.74219">
        <ele>414</ele>
        <time>2015-04-26T10:16:05.000Z</time>
      </trkpt>
      <trkpt lat="47.45934" lon="6.74217">
        <ele>415</ele>
        <time>2015-04-26T10:16:06.000Z</time>
      </trkpt>
      <trkpt lat="47.45937" lon="6.74218">
        <ele>415</ele>
        <time>2015-04-26T10:16:07.000Z</time>
      </trkpt>
      <trkpt lat="47.45939" lon="6.7422">
        <ele>415</ele>
        <time>2015-04-26T10:16:08.000Z</time>
      </trkpt>
      <trkpt lat="47.45941" lon="6.74222">
        <ele>414</ele>
        <time>2015-04-26T10:16:09.000Z</time>
      </trkpt>
      <trkpt lat="47.45944" lon="6.74224">
        <ele>414</ele>
        <time>2015-04-26T10:16:10.000Z</time>
      </trkpt>
      <trkpt lat="47.45946" lon="6.74225">
        <ele>414</ele>
        <time>2015-04-26T10:16:11.000Z</time>
      </trkpt>
      <trkpt lat="47.4595" lon="6.74226">
        <ele>414</ele>
        <time>2015-04-26T10:16:13.000Z</time>
      </trkpt>
      <trkpt lat="47.45951" lon="6.74226">
        <ele>414</ele>
        <time>2015-04-26T10:16:14.000Z</time>
      </trkpt>
      <trkpt lat="47.45954" lon="6.74225">
        <ele>414</ele>
        <time>2015-04-26T10:16:16.000Z</time>
      </trkpt>
      <trkpt lat="47.45956" lon="6.74226">
        <ele>414</ele>
        <time>2015-04-26T10:16:17.000Z</time>
      </trkpt>
      <trkpt lat="47.45959" lon="6.74229">
        <ele>414</ele>
        <time>2015-04-26T10:16:20.000Z</time>
      </trkpt>
      <trkpt lat="47.45961" lon="6.74229">
        <ele>414</ele>
        <time>2015-04-26T10:16:21.000Z</time>
      </trkpt>
      <trkpt lat="47.45964" lon="6.74234">
        <ele>414</ele>
        <time>2015-04-26T10:16:24.000Z</time>
      </trkpt>
      <trkpt lat="47.45965" lon="6.74234">
        <ele>414</ele>
        <time>2015-04-26T10:16:25.000Z</time>
      </trkpt>
      <trkpt lat="47.45969" lon="6.74236">
        <ele>414</ele>
        <time>2015-04-26T10:16:47.000Z</time>
      </trkpt>
      <trkpt lat="47.4597" lon="6.74237">
        <ele>414</ele>
        <time>2015-04-26T10:16:48.000Z</time>
      </trkpt>
      <trkpt lat="47.45973" lon="6.7424">
        <ele>414</ele>
        <time>2015-04-26T10:16:50.000Z</time>
      </trkpt>
      <trkpt lat="47.45976" lon="6.74241">
        <ele>414</ele>
        <time>2015-04-26T10:16:51.000Z</time>
      </trkpt>
      <trkpt lat="47.45979" lon="6.74241">
        <ele>414</ele>
        <time>2015-04-26T10:16:52.000Z</time>
      </trkpt>
      <trkpt lat="47.45983" lon="6.74241">
        <ele>413</ele>
        <time>2015-04-26T10:16:53.000Z</time>
      </trkpt>
      <trkpt lat="47.45986" lon="6.7424">
        <ele>413</ele>
        <time>2015-04-26T10:16:54.000Z</time>
      </trkpt>
      <trkpt lat="47.4599" lon="6.74239">
        <ele>413</ele>
        <time>2015-04-26T10:16:55.000Z</time>
      </trkpt>
      <trkpt lat="47.45993" lon="6.74237">
        <ele>413</ele>
        <time>2015-04-26T10:16:56.000Z</time>
      </trkpt>
      <trkpt lat="47.45995" lon="6.74236">
        <ele>413</ele>
        <time>2015-04-26T10:16:57.000Z</time>
      </trkpt>
      <trkpt lat="47.45998" lon="6.74234">
        <ele>413</ele>
        <time>2015-04-26T10:16:58.000Z</time>
      </trkpt>
      <trkpt lat="47.46" lon="6.74233">
        <ele>413</ele>
        <time>2015-04-26T10:16:59.000Z</time>
      </trkpt>
      <trkpt lat="47.46002" lon="6.74232">
        <ele>414</ele>
        <time>2015-04-26T10:17:00.000Z</time>
      </trkpt>
      <trkpt lat="47.46005" lon="6.74231">
        <ele>415</ele>
        <time>2015-04-26T10:17:01.000Z</time>
      </trkpt>
      <trkpt lat="47.46007" lon="6.7423">
        <ele>415</ele>
        <time>2015-04-26T10:17:02.000Z</time>
      </trkpt>
      <trkpt lat="47.4601" lon="6.74229">
        <ele>415</ele>
        <time>2015-04-26T10:17:03.000Z</time>
      </trkpt>
      <trkpt lat="47.46013" lon="6.74228">
        <ele>415</ele>
        <time>2015-04-26T10:17:04.000Z</time>
      </trkpt>
      <trkpt lat="47.46015" lon="6.74228">
        <ele>415</ele>
        <time>2015-04-26T10:17:05.000Z</time>
      </trkpt>
      <trkpt lat="47.46019" lon="6.74229">
        <ele>416</ele>
        <time>2015-04-26T10:17:07.000Z</time>
      </trkpt>
      <trkpt lat="47.46021" lon="6.74229">
        <ele>416</ele>
        <time>2015-04-26T10:17:08.000Z</time>
      </trkpt>
      <trkpt lat="47.46024" lon="6.7423">
        <ele>416</ele>
        <time>2015-04-26T10:17:10.000Z</time>
      </trkpt>
      <trkpt lat="47.46026" lon="6.7423">
        <ele>416</ele>
        <time>2015-04-26T10:17:11.000Z</time>
      </trkpt>
      <trkpt lat="47.4603" lon="6.74231">
        <ele>416</ele>
        <time>2015-04-26T10:17:13.000Z</time>
      </trkpt>
      <trkpt lat="47.46033" lon="6.74231">
        <ele>416</ele>
        <time>2015-04-26T10:17:14.000Z</time>
      </trkpt>
      <trkpt lat="47.46035" lon="6.74231">
        <ele>416</ele>
        <time>2015-04-26T10:17:15.000Z</time>
      </trkpt>
      <trkpt lat="47.46038" lon="6.74232">
        <ele>416</ele>
        <time>2015-04-26T10:17:16.000Z</time>
      </trkpt>
      <trkpt lat="47.46047" lon="6.74234">
        <ele>416</ele>
        <time>2015-04-26T10:17:17.000Z</time>
      </trkpt>
      <trkpt lat="47.46051" lon="6.74233">
        <ele>416</ele>
        <time>2015-04-26T10:17:18.000Z</time>
      </trkpt>
      <trkpt lat="47.46053" lon="6.74233">
        <ele>416</ele>
        <time>2015-04-26T10:17:19.000Z</time>
      </trkpt>
      <trkpt lat="47.46057" lon="6.74232">
        <ele>416</ele>
        <time>2015-04-26T10:17:21.000Z</time>
      </trkpt>
      <trkpt lat="47.46059" lon="6.74234">
        <ele>416</ele>
        <time>2015-04-26T10:17:22.000Z</time>
      </trkpt>
      <trkpt lat="47.46062" lon="6.74235">
        <ele>416</ele>
        <time>2015-04-26T10:17:23.000Z</time>
      </trkpt>
      <trkpt lat="47.46066" lon="6.74235">
        <ele>416</ele>
        <time>2015-04-26T10:17:24.000Z</time>
      </trkpt>
      <trkpt lat="47.46069" lon="6.74236">
        <ele>416</ele>
        <time>2015-04-26T10:17:25.000Z</time>
      </trkpt>
      <trkpt lat="47.46072" lon="6.74236">
        <ele>416</ele>
        <time>2015-04-26T10:17:26.000Z</time>
      </trkpt>
      <trkpt lat="47.46075" lon="6.74236">
        <ele>416</ele>
        <time>2015-04-26T10:17:27.000Z</time>
      </trkpt>
      <trkpt lat="47.46078" lon="6.74235">
        <ele>416</ele>
        <time>2015-04-26T10:17:28.000Z</time>
      </trkpt>
      <trkpt lat="47.4608" lon="6.74235">
        <ele>416</ele>
        <time>2015-04-26T10:17:29.000Z</time>
      </trkpt>
      <trkpt lat="47.46082" lon="6.74234">
        <ele>416</ele>
        <time>2015-04-26T10:17:30.000Z</time>
      </trkpt>
      <trkpt lat="47.46085" lon="6.74235">
        <ele>416</ele>
        <time>2015-04-26T10:17:31.000Z</time>
      </trkpt>
      <trkpt lat="47.46087" lon="6.74237">
        <ele>416</ele>
        <time>2015-04-26T10:17:32.000Z</time>
      </trkpt>
      <trkpt lat="47.4609" lon="6.74239">
        <ele>416</ele>
        <time>2015-04-26T10:17:33.000Z</time>
      </trkpt>
      <trkpt lat="47.46093" lon="6.74241">
        <ele>416</ele>
        <time>2015-04-26T10:17:34.000Z</time>
      </trkpt>
      <trkpt lat="47.46097" lon="6.74243">
        <ele>416</ele>
        <time>2015-04-26T10:17:35.000Z</time>
      </trkpt>
      <trkpt lat="47.46101" lon="6.74243">
        <ele>416</ele>
        <time>2015-04-26T10:17:36.000Z</time>
      </trkpt>
      <trkpt lat="47.46105" lon="6.74243">
        <ele>417</ele>
        <time>2015-04-26T10:17:37.000Z</time>
      </trkpt>
      <trkpt lat="47.46107" lon="6.74242">
        <ele>417</ele>
        <time>2015-04-26T10:17:38.000Z</time>
      </trkpt>
      <trkpt lat="47.4611" lon="6.74242">
        <ele>417</ele>
        <time>2015-04-26T10:17:39.000Z</time>
      </trkpt>
      <trkpt lat="47.46113" lon="6.74243">
        <ele>417</ele>
        <time>2015-04-26T10:17:40.000Z</time>
      </trkpt>
      <trkpt lat="47.46116" lon="6.74245">
        <ele>417</ele>
        <time>2015-04-26T10:17:41.000Z</time>
      </trkpt>
      <trkpt lat="47.46119" lon="6.74246">
        <ele>417</ele>
        <time>2015-04-26T10:17:42.000Z</time>
      </trkpt>
      <trkpt lat="47.46123" lon="6.74247">
        <ele>417</ele>
        <time>2015-04-26T10:17:43.000Z</time>
      </trkpt>
      <trkpt lat="47.46127" lon="6.74248">
        <ele>417</ele>
        <time>2015-04-26T10:17:44.000Z</time>
      </trkpt>
      <trkpt lat="47.46132" lon="6.74247">
        <ele>417</ele>
        <time>2015-04-26T10:17:45.000Z</time>
      </trkpt>
      <trkpt lat="47.46136" lon="6.74247">
        <ele>417</ele>
        <time>2015-04-26T10:17:46.000Z</time>
      </trkpt>
      <trkpt lat="47.4614" lon="6.74247">
        <ele>417</ele>
        <time>2015-04-26T10:17:47.000Z</time>
      </trkpt>
      <trkpt lat="47.46143" lon="6.74248">
        <ele>417</ele>
        <time>2015-04-26T10:17:48.000Z</time>
      </trkpt>
      <trkpt lat="47.46146" lon="6.7425">
        <ele>417</ele>
        <time>2015-04-26T10:17:49.000Z</time>
      </trkpt>
      <trkpt lat="47.4615" lon="6.7425">
        <ele>410</ele>
        <time>2015-04-26T10:17:50.000Z</time>
      </trkpt>
      <trkpt lat="47.46153" lon="6.74251">
        <ele>410</ele>
        <time>2015-04-26T10:17:51.000Z</time>
      </trkpt>
      <trkpt lat="47.46156" lon="6.74252">
        <ele>411</ele>
        <time>2015-04-26T10:17:52.000Z</time>
      </trkpt>
      <trkpt lat="47.46159" lon="6.74252">
        <ele>412</ele>
        <time>2015-04-26T10:17:53.000Z</time>
      </trkpt>
      <trkpt lat="47.46162" lon="6.74252">
        <ele>413</ele>
        <time>2015-04-26T10:17:54.000Z</time>
      </trkpt>
      <trkpt lat="47.46166" lon="6.74253">
        <ele>414</ele>
        <time>2015-04-26T10:17:55.000Z</time>
      </trkpt>
      <trkpt lat="47.46169" lon="6.74254">
        <ele>413</ele>
        <time>2015-04-26T10:17:56.000Z</time>
      </trkpt>
      <trkpt lat="47.46173" lon="6.74255">
        <ele>412</ele>
        <time>2015-04-26T10:17:57.000Z</time>
      </trkpt>
      <trkpt lat="47.46176" lon="6.74257">
        <ele>411</ele>
        <time>2015-04-26T10:17:58.000Z</time>
      </trkpt>
      <trkpt lat="47.4618" lon="6.74259">
        <ele>410</ele>
        <time>2015-04-26T10:17:59.000Z</time>
      </trkpt>
      <trkpt lat="47.46183" lon="6.7426">
        <ele>410</ele>
        <time>2015-04-26T10:18:00.000Z</time>
      </trkpt>
      <trkpt lat="47.46187" lon="6.74262">
        <ele>409</ele>
        <time>2015-04-26T10:18:01.000Z</time>
      </trkpt>
      <trkpt lat="47.4619" lon="6.74263">
        <ele>409</ele>
        <time>2015-04-26T10:18:02.000Z</time>
      </trkpt>
      <trkpt lat="47.46194" lon="6.74264">
        <ele>408</ele>
        <time>2015-04-26T10:18:03.000Z</time>
      </trkpt>
      <trkpt lat="47.46197" lon="6.74265">
        <ele>408</ele>
        <time>2015-04-26T10:18:04.000Z</time>
      </trkpt>
      <trkpt lat="47.462" lon="6.74266">
        <ele>408</ele>
        <time>2015-04-26T10:18:05.000Z</time>
      </trkpt>
      <trkpt lat="47.46203" lon="6.74268">
        <ele>407</ele>
        <time>2015-04-26T10:18:06.000Z</time>
      </trkpt>
      <trkpt lat="47.46207" lon="6.7427">
        <ele>407</ele>
        <time>2015-04-26T10:18:07.000Z</time>
      </trkpt>
      <trkpt lat="47.4621" lon="6.74272">
        <ele>407</ele>
        <time>2015-04-26T10:18:08.000Z</time>
      </trkpt>
      <trkpt lat="47.46214" lon="6.74274">
        <ele>407</ele>
        <time>2015-04-26T10:18:09.000Z</time>
      </trkpt>
      <trkpt lat="47.46218" lon="6.74276">
        <ele>407</ele>
        <time>2015-04-26T10:18:10.000Z</time>
      </trkpt>
      <trkpt lat="47.46222" lon="6.74278">
        <ele>407</ele>
        <time>2015-04-26T10:18:11.000Z</time>
      </trkpt>
      <trkpt lat="47.46227" lon="6.74279">
        <ele>407</ele>
        <time>2015-04-26T10:18:12.000Z</time>
      </trkpt>
      <trkpt lat="47.46231" lon="6.74281">
        <ele>406</ele>
        <time>2015-04-26T10:18:13.000Z</time>
      </trkpt>
      <trkpt lat="47.46236" lon="6.74282">
        <ele>406</ele>
        <time>2015-04-26T10:18:14.000Z</time>
      </trkpt>
      <trkpt lat="47.4624" lon="6.74283">
        <ele>406</ele>
        <time>2015-04-26T10:18:15.000Z</time>
      </trkpt>
      <trkpt lat="47.46245" lon="6.74286">
        <ele>406</ele>
        <time>2015-04-26T10:18:16.000Z</time>
      </trkpt>
      <trkpt lat="47.46249" lon="6.74289">
        <ele>406</ele>
        <time>2015-04-26T10:18:17.000Z</time>
      </trkpt>
      <trkpt lat="47.46254" lon="6.74291">
        <ele>407</ele>
        <time>2015-04-26T10:18:18.000Z</time>
      </trkpt>
      <trkpt lat="47.46258" lon="6.74292">
        <ele>407</ele>
        <time>2015-04-26T10:18:19.000Z</time>
      </trkpt>
      <trkpt lat="47.46261" lon="6.74292">
        <ele>407</ele>
        <time>2015-04-26T10:18:20.000Z</time>
      </trkpt>
      <trkpt lat="47.46265" lon="6.7429">
        <ele>407</ele>
        <time>2015-04-26T10:18:23.000Z</time>
      </trkpt>
      <trkpt lat="47.46266" lon="6.74289">
        <ele>407</ele>
        <time>2015-04-26T10:18:24.000Z</time>
      </trkpt>
      <trkpt lat="47.4627" lon="6.74288">
        <ele>407</ele>
        <time>2015-04-26T10:18:27.000Z</time>
      </trkpt>
      <trkpt lat="47.46271" lon="6.74289">
        <ele>407</ele>
        <time>2015-04-26T10:18:28.000Z</time>
      </trkpt>
      <trkpt lat="47.46274" lon="6.74292">
        <ele>407</ele>
        <time>2015-04-26T10:18:30.000Z</time>
      </trkpt>
      <trkpt lat="47.46277" lon="6.74295">
        <ele>407</ele>
        <time>2015-04-26T10:18:31.000Z</time>
      </trkpt>
      <trkpt lat="47.4628" lon="6.74297">
        <ele>407</ele>
        <time>2015-04-26T10:18:32.000Z</time>
      </trkpt>
      <trkpt lat="47.46284" lon="6.743">
        <ele>406</ele>
        <time>2015-04-26T10:18:33.000Z</time>
      </trkpt>
      <trkpt lat="47.46288" lon="6.74303">
        <ele>406</ele>
        <time>2015-04-26T10:18:34.000Z</time>
      </trkpt>
      <trkpt lat="47.46291" lon="6.74305">
        <ele>406</ele>
        <time>2015-04-26T10:18:35.000Z</time>
      </trkpt>
      <trkpt lat="47.46295" lon="6.74307">
        <ele>406</ele>
        <time>2015-04-26T10:18:36.000Z</time>
      </trkpt>
      <trkpt lat="47.46298" lon="6.74308">
        <ele>406</ele>
        <time>2015-04-26T10:18:37.000Z</time>
      </trkpt>
      <trkpt lat="47.46302" lon="6.7431">
        <ele>406</ele>
        <time>2015-04-26T10:18:38.000Z</time>
      </trkpt>
      <trkpt lat="47.46304" lon="6.74311">
        <ele>406</ele>
        <time>2015-04-26T10:18:39.000Z</time>
      </trkpt>
      <trkpt lat="47.46307" lon="6.74312">
        <ele>406</ele>
        <time>2015-04-26T10:18:40.000Z</time>
      </trkpt>
      <trkpt lat="47.46311" lon="6.74313">
        <ele>406</ele>
        <time>2015-04-26T10:18:41.000Z</time>
      </trkpt>
      <trkpt lat="47.46315" lon="6.74312">
        <ele>406</ele>
        <time>2015-04-26T10:18:42.000Z</time>
      </trkpt>
      <trkpt lat="47.46319" lon="6.74312">
        <ele>406</ele>
        <time>2015-04-26T10:18:43.000Z</time>
      </trkpt>
      <trkpt lat="47.46324" lon="6.74311">
        <ele>406</ele>
        <time>2015-04-26T10:18:44.000Z</time>
      </trkpt>
      <trkpt lat="47.46328" lon="6.7431">
        <ele>406</ele>
        <time>2015-04-26T10:18:45.000Z</time>
      </trkpt>
      <trkpt lat="47.46332" lon="6.7431">
        <ele>406</ele>
        <time>2015-04-26T10:18:46.000Z</time>
      </trkpt>
      <trkpt lat="47.46335" lon="6.7431">
        <ele>407</ele>
        <time>2015-04-26T10:18:47.000Z</time>
      </trkpt>
      <trkpt lat="47.46338" lon="6.7431">
        <ele>407</ele>
        <time>2015-04-26T10:18:48.000Z</time>
      </trkpt>
      <trkpt lat="47.46347" lon="6.74312">
        <ele>407</ele>
        <time>2015-04-26T10:18:49.000Z</time>
      </trkpt>
      <trkpt lat="47.46352" lon="6.74315">
        <ele>407</ele>
        <time>2015-04-26T10:18:50.000Z</time>
      </trkpt>
      <trkpt lat="47.46355" lon="6.74316">
        <ele>407</ele>
        <time>2015-04-26T10:18:51.000Z</time>
      </trkpt>
      <trkpt lat="47.46357" lon="6.74319">
        <ele>407</ele>
        <time>2015-04-26T10:18:52.000Z</time>
      </trkpt>
      <trkpt lat="47.46361" lon="6.74323">
        <ele>407</ele>
        <time>2015-04-26T10:18:53.000Z</time>
      </trkpt>
      <trkpt lat="47.46364" lon="6.74325">
        <ele>407</ele>
        <time>2015-04-26T10:18:54.000Z</time>
      </trkpt>
      <trkpt lat="47.46368" lon="6.74327">
        <ele>407</ele>
        <time>2015-04-26T10:18:55.000Z</time>
      </trkpt>
      <trkpt lat="47.46372" lon="6.74329">
        <ele>407</ele>
        <time>2015-04-26T10:18:56.000Z</time>
      </trkpt>
      <trkpt lat="47.46377" lon="6.74332">
        <ele>407</ele>
        <time>2015-04-26T10:18:57.000Z</time>
      </trkpt>
      <trkpt lat="47.46381" lon="6.7433">
        <ele>407</ele>
        <time>2015-04-26T10:18:58.000Z</time>
      </trkpt>
      <trkpt lat="47.46385" lon="6.74332">
        <ele>407</ele>
        <time>2015-04-26T10:18:59.000Z</time>
      </trkpt>
      <trkpt lat="47.46388" lon="6.74333">
        <ele>407</ele>
        <time>2015-04-26T10:19:00.000Z</time>
      </trkpt>
      <trkpt lat="47.46391" lon="6.74334">
        <ele>399</ele>
        <time>2015-04-26T10:19:01.000Z</time>
      </trkpt>
      <trkpt lat="47.46394" lon="6.74334">
        <ele>400</ele>
        <time>2015-04-26T10:19:02.000Z</time>
      </trkpt>
      <trkpt lat="47.46397" lon="6.74336">
        <ele>400</ele>
        <time>2015-04-26T10:19:03.000Z</time>
      </trkpt>
      <trkpt lat="47.464" lon="6.74338">
        <ele>400</ele>
        <time>2015-04-26T10:19:04.000Z</time>
      </trkpt>
      <trkpt lat="47.46402" lon="6.7434">
        <ele>400</ele>
        <time>2015-04-26T10:19:05.000Z</time>
      </trkpt>
      <trkpt lat="47.46405" lon="6.74343">
        <ele>400</ele>
        <time>2015-04-26T10:19:06.000Z</time>
      </trkpt>
      <trkpt lat="47.46406" lon="6.74346">
        <ele>400</ele>
        <time>2015-04-26T10:19:07.000Z</time>
      </trkpt>
      <trkpt lat="47.46407" lon="6.74349">
        <ele>400</ele>
        <time>2015-04-26T10:19:08.000Z</time>
      </trkpt>
      <trkpt lat="47.46408" lon="6.74352">
        <ele>399</ele>
        <time>2015-04-26T10:19:09.000Z</time>
      </trkpt>
      <trkpt lat="47.4641" lon="6.74355">
        <ele>399</ele>
        <time>2015-04-26T10:19:10.000Z</time>
      </trkpt>
      <trkpt lat="47.46412" lon="6.74357">
        <ele>398</ele>
        <time>2015-04-26T10:19:11.000Z</time>
      </trkpt>
      <trkpt lat="47.46414" lon="6.74359">
        <ele>398</ele>
        <time>2015-04-26T10:19:12.000Z</time>
      </trkpt>
      <trkpt lat="47.46417" lon="6.74361">
        <ele>401</ele>
        <time>2015-04-26T10:19:13.000Z</time>
      </trkpt>
      <trkpt lat="47.4642" lon="6.74364">
        <ele>401</ele>
        <time>2015-04-26T10:19:14.000Z</time>
      </trkpt>
      <trkpt lat="47.46423" lon="6.74367">
        <ele>400</ele>
        <time>2015-04-26T10:19:15.000Z</time>
      </trkpt>
      <trkpt lat="47.46426" lon="6.74371">
        <ele>400</ele>
        <time>2015-04-26T10:19:16.000Z</time>
      </trkpt>
      <trkpt lat="47.4643" lon="6.74375">
        <ele>399</ele>
        <time>2015-04-26T10:19:17.000Z</time>
      </trkpt>
      <trkpt lat="47.46433" lon="6.74379">
        <ele>399</ele>
        <time>2015-04-26T10:19:18.000Z</time>
      </trkpt>
      <trkpt lat="47.46437" lon="6.74384">
        <ele>399</ele>
        <time>2015-04-26T10:19:19.000Z</time>
      </trkpt>
      <trkpt lat="47.46447" lon="6.74393">
        <ele>398</ele>
        <time>2015-04-26T10:19:20.000Z</time>
      </trkpt>
      <trkpt lat="47.46452" lon="6.74401">
        <ele>398</ele>
        <time>2015-04-26T10:19:21.000Z</time>
      </trkpt>
      <trkpt lat="47.46458" lon="6.74409">
        <ele>398</ele>
        <time>2015-04-26T10:19:22.000Z</time>
      </trkpt>
      <trkpt lat="47.46464" lon="6.74415">
        <ele>399</ele>
        <time>2015-04-26T10:19:23.000Z</time>
      </trkpt>
      <trkpt lat="47.46467" lon="6.74419">
        <ele>390</ele>
        <time>2015-04-26T10:19:24.000Z</time>
      </trkpt>
      <trkpt lat="47.46472" lon="6.74426">
        <ele>390</ele>
        <time>2015-04-26T10:19:25.000Z</time>
      </trkpt>
      <trkpt lat="47.46478" lon="6.74435">
        <ele>390</ele>
        <time>2015-04-26T10:19:26.000Z</time>
      </trkpt>
      <trkpt lat="47.46483" lon="6.74444">
        <ele>390</ele>
        <time>2015-04-26T10:19:27.000Z</time>
      </trkpt>
      <trkpt lat="47.46491" lon="6.74452">
        <ele>389</ele>
        <time>2015-04-26T10:19:28.000Z</time>
      </trkpt>
      <trkpt lat="47.46499" lon="6.74461">
        <ele>387</ele>
        <time>2015-04-26T10:19:29.000Z</time>
      </trkpt>
      <trkpt lat="47.46505" lon="6.74469">
        <ele>393</ele>
        <time>2015-04-26T10:19:30.000Z</time>
      </trkpt>
      <trkpt lat="47.46511" lon="6.74474">
        <ele>392</ele>
        <time>2015-04-26T10:19:31.000Z</time>
      </trkpt>
      <trkpt lat="47.46515" lon="6.74482">
        <ele>391</ele>
        <time>2015-04-26T10:19:32.000Z</time>
      </trkpt>
      <trkpt lat="47.46518" lon="6.74484">
        <ele>391</ele>
        <time>2015-04-26T10:19:33.000Z</time>
      </trkpt>
      <trkpt lat="47.4652" lon="6.74486">
        <ele>391</ele>
        <time>2015-04-26T10:19:34.000Z</time>
      </trkpt>
      <trkpt lat="47.46524" lon="6.74494">
        <ele>391</ele>
        <time>2015-04-26T10:19:35.000Z</time>
      </trkpt>
      <trkpt lat="47.46527" lon="6.74502">
        <ele>383</ele>
        <time>2015-04-26T10:19:36.000Z</time>
      </trkpt>
      <trkpt lat="47.46529" lon="6.74515">
        <ele>383</ele>
        <time>2015-04-26T10:19:37.000Z</time>
      </trkpt>
      <trkpt lat="47.46533" lon="6.74524">
        <ele>382</ele>
        <time>2015-04-26T10:19:38.000Z</time>
      </trkpt>
      <trkpt lat="47.4654" lon="6.74535">
        <ele>382</ele>
        <time>2015-04-26T10:19:39.000Z</time>
      </trkpt>
      <trkpt lat="47.46547" lon="6.74541">
        <ele>382</ele>
        <time>2015-04-26T10:19:40.000Z</time>
      </trkpt>
      <trkpt lat="47.46554" lon="6.74549">
        <ele>381</ele>
        <time>2015-04-26T10:19:41.000Z</time>
      </trkpt>
      <trkpt lat="47.46561" lon="6.74555">
        <ele>381</ele>
        <time>2015-04-26T10:19:42.000Z</time>
      </trkpt>
      <trkpt lat="47.46566" lon="6.74563">
        <ele>381</ele>
        <time>2015-04-26T10:19:43.000Z</time>
      </trkpt>
      <trkpt lat="47.46573" lon="6.74569">
        <ele>380</ele>
        <time>2015-04-26T10:19:44.000Z</time>
      </trkpt>
      <trkpt lat="47.4658" lon="6.74573">
        <ele>380</ele>
        <time>2015-04-26T10:19:45.000Z</time>
      </trkpt>
      <trkpt lat="47.46587" lon="6.74581">
        <ele>381</ele>
        <time>2015-04-26T10:19:46.000Z</time>
      </trkpt>
      <trkpt lat="47.46592" lon="6.7459">
        <ele>377</ele>
        <time>2015-04-26T10:19:47.000Z</time>
      </trkpt>
      <trkpt lat="47.46597" lon="6.74602">
        <ele>375</ele>
        <time>2015-04-26T10:19:48.000Z</time>
      </trkpt>
      <trkpt lat="47.46602" lon="6.74608">
        <ele>375</ele>
        <time>2015-04-26T10:19:49.000Z</time>
      </trkpt>
      <trkpt lat="47.46606" lon="6.74613">
        <ele>374</ele>
        <time>2015-04-26T10:19:50.000Z</time>
      </trkpt>
      <trkpt lat="47.4661" lon="6.74619">
        <ele>373</ele>
        <time>2015-04-26T10:19:51.000Z</time>
      </trkpt>
      <trkpt lat="47.46614" lon="6.74626">
        <ele>372</ele>
        <time>2015-04-26T10:19:52.000Z</time>
      </trkpt>
      <trkpt lat="47.46618" lon="6.74631">
        <ele>372</ele>
        <time>2015-04-26T10:19:53.000Z</time>
      </trkpt>
      <trkpt lat="47.46622" lon="6.7464">
        <ele>371</ele>
        <time>2015-04-26T10:19:54.000Z</time>
      </trkpt>
      <trkpt lat="47.46629" lon="6.7465">
        <ele>370</ele>
        <time>2015-04-26T10:19:55.000Z</time>
      </trkpt>
      <trkpt lat="47.46638" lon="6.74659">
        <ele>369</ele>
        <time>2015-04-26T10:19:56.000Z</time>
      </trkpt>
      <trkpt lat="47.46646" lon="6.74668">
        <ele>362</ele>
        <time>2015-04-26T10:19:57.000Z</time>
      </trkpt>
      <trkpt lat="47.46653" lon="6.74679">
        <ele>362</ele>
        <time>2015-04-26T10:19:58.000Z</time>
      </trkpt>
      <trkpt lat="47.4666" lon="6.74688">
        <ele>362</ele>
        <time>2015-04-26T10:19:59.000Z</time>
      </trkpt>
      <trkpt lat="47.4667" lon="6.74697">
        <ele>359</ele>
        <time>2015-04-26T10:20:00.000Z</time>
      </trkpt>
      <trkpt lat="47.46679" lon="6.74702">
        <ele>358</ele>
        <time>2015-04-26T10:20:01.000Z</time>
      </trkpt>
      <trkpt lat="47.46688" lon="6.74706">
        <ele>357</ele>
        <time>2015-04-26T10:20:02.000Z</time>
      </trkpt>
      <trkpt lat="47.46697" lon="6.74708">
        <ele>357</ele>
        <time>2015-04-26T10:20:03.000Z</time>
      </trkpt>
      <trkpt lat="47.46705" lon="6.74708">
        <ele>357</ele>
        <time>2015-04-26T10:20:04.000Z</time>
      </trkpt>
      <trkpt lat="47.46713" lon="6.74707">
        <ele>356</ele>
        <time>2015-04-26T10:20:05.000Z</time>
      </trkpt>
      <trkpt lat="47.4672" lon="6.74708">
        <ele>356</ele>
        <time>2015-04-26T10:20:06.000Z</time>
      </trkpt>
      <trkpt lat="47.46726" lon="6.74707">
        <ele>356</ele>
        <time>2015-04-26T10:20:07.000Z</time>
      </trkpt>
      <trkpt lat="47.46733" lon="6.74706">
        <ele>356</ele>
        <time>2015-04-26T10:20:08.000Z</time>
      </trkpt>
      <trkpt lat="47.46739" lon="6.74705">
        <ele>356</ele>
        <time>2015-04-26T10:20:09.000Z</time>
      </trkpt>
      <trkpt lat="47.46745" lon="6.74702">
        <ele>356</ele>
        <time>2015-04-26T10:20:10.000Z</time>
      </trkpt>
      <trkpt lat="47.46751" lon="6.74699">
        <ele>352</ele>
        <time>2015-04-26T10:20:11.000Z</time>
      </trkpt>
      <trkpt lat="47.46756" lon="6.74695">
        <ele>352</ele>
        <time>2015-04-26T10:20:12.000Z</time>
      </trkpt>
      <trkpt lat="47.4676" lon="6.74691">
        <ele>353</ele>
        <time>2015-04-26T10:20:13.000Z</time>
      </trkpt>
      <trkpt lat="47.46765" lon="6.74686">
        <ele>353</ele>
        <time>2015-04-26T10:20:14.000Z</time>
      </trkpt>
      <trkpt lat="47.46769" lon="6.74681">
        <ele>353</ele>
        <time>2015-04-26T10:20:15.000Z</time>
      </trkpt>
      <trkpt lat="47.46773" lon="6.74676">
        <ele>353</ele>
        <time>2015-04-26T10:20:16.000Z</time>
      </trkpt>
      <trkpt lat="47.46778" lon="6.74672">
        <ele>352</ele>
        <time>2015-04-26T10:20:17.000Z</time>
      </trkpt>
      <trkpt lat="47.46782" lon="6.74669">
        <ele>352</ele>
        <time>2015-04-26T10:20:18.000Z</time>
      </trkpt>
      <trkpt lat="47.46787" lon="6.74665">
        <ele>360</ele>
        <time>2015-04-26T10:20:19.000Z</time>
      </trkpt>
      <trkpt lat="47.4679" lon="6.74665">
        <ele>359</ele>
        <time>2015-04-26T10:20:20.000Z</time>
      </trkpt>
      <trkpt lat="47.46794" lon="6.74663">
        <ele>359</ele>
        <time>2015-04-26T10:20:21.000Z</time>
      </trkpt>
      <trkpt lat="47.46797" lon="6.7466">
        <ele>358</ele>
        <time>2015-04-26T10:20:22.000Z</time>
      </trkpt>
      <trkpt lat="47.46801" lon="6.7466">
        <ele>358</ele>
        <time>2015-04-26T10:20:23.000Z</time>
      </trkpt>
      <trkpt lat="47.46804" lon="6.74659">
        <ele>357</ele>
        <time>2015-04-26T10:20:24.000Z</time>
      </trkpt>
      <trkpt lat="47.46807" lon="6.74661">
        <ele>356</ele>
        <time>2015-04-26T10:20:25.000Z</time>
      </trkpt>
      <trkpt lat="47.4681" lon="6.74659">
        <ele>356</ele>
        <time>2015-04-26T10:20:26.000Z</time>
      </trkpt>
      <trkpt lat="47.46814" lon="6.74658">
        <ele>355</ele>
        <time>2015-04-26T10:20:27.000Z</time>
      </trkpt>
      <trkpt lat="47.46817" lon="6.74657">
        <ele>354</ele>
        <time>2015-04-26T10:20:28.000Z</time>
      </trkpt>
      <trkpt lat="47.46821" lon="6.74655">
        <ele>354</ele>
        <time>2015-04-26T10:20:29.000Z</time>
      </trkpt>
      <trkpt lat="47.46824" lon="6.74653">
        <ele>354</ele>
        <time>2015-04-26T10:20:30.000Z</time>
      </trkpt>
      <trkpt lat="47.46829" lon="6.74648">
        <ele>355</ele>
        <time>2015-04-26T10:20:31.000Z</time>
      </trkpt>
      <trkpt lat="47.46835" lon="6.74638">
        <ele>348</ele>
        <time>2015-04-26T10:20:32.000Z</time>
      </trkpt>
      <trkpt lat="47.46838" lon="6.74634">
        <ele>349</ele>
        <time>2015-04-26T10:20:33.000Z</time>
      </trkpt>
      <trkpt lat="47.46842" lon="6.74631">
        <ele>349</ele>
        <time>2015-04-26T10:20:34.000Z</time>
      </trkpt>
      <trkpt lat="47.46845" lon="6.74626">
        <ele>349</ele>
        <time>2015-04-26T10:20:35.000Z</time>
      </trkpt>
      <trkpt lat="47.46849" lon="6.74622">
        <ele>350</ele>
        <time>2015-04-26T10:20:36.000Z</time>
      </trkpt>
      <trkpt lat="47.46853" lon="6.74618">
        <ele>350</ele>
        <time>2015-04-26T10:20:37.000Z</time>
      </trkpt>
      <trkpt lat="47.46858" lon="6.74615">
        <ele>350</ele>
        <time>2015-04-26T10:20:38.000Z</time>
      </trkpt>
      <trkpt lat="47.46862" lon="6.7461">
        <ele>350</ele>
        <time>2015-04-26T10:20:39.000Z</time>
      </trkpt>
      <trkpt lat="47.46867" lon="6.74605">
        <ele>350</ele>
        <time>2015-04-26T10:20:40.000Z</time>
      </trkpt>
      <trkpt lat="47.4687" lon="6.74601">
        <ele>350</ele>
        <time>2015-04-26T10:20:41.000Z</time>
      </trkpt>
      <trkpt lat="47.46873" lon="6.74599">
        <ele>350</ele>
        <time>2015-04-26T10:20:42.000Z</time>
      </trkpt>
      <trkpt lat="47.46878" lon="6.74597">
        <ele>349</ele>
        <time>2015-04-26T10:20:43.000Z</time>
      </trkpt>
      <trkpt lat="47.46881" lon="6.74593">
        <ele>349</ele>
        <time>2015-04-26T10:20:44.000Z</time>
      </trkpt>
      <trkpt lat="47.46885" lon="6.74592">
        <ele>349</ele>
        <time>2015-04-26T10:20:45.000Z</time>
      </trkpt>
      <trkpt lat="47.46888" lon="6.7459">
        <ele>349</ele>
        <time>2015-04-26T10:20:46.000Z</time>
      </trkpt>
      <trkpt lat="47.46892" lon="6.74589">
        <ele>348</ele>
        <time>2015-04-26T10:20:47.000Z</time>
      </trkpt>
      <trkpt lat="47.46896" lon="6.74587">
        <ele>348</ele>
        <time>2015-04-26T10:20:48.000Z</time>
      </trkpt>
      <trkpt lat="47.46899" lon="6.74585">
        <ele>348</ele>
        <time>2015-04-26T10:20:49.000Z</time>
      </trkpt>
      <trkpt lat="47.46903" lon="6.74583">
        <ele>351</ele>
        <time>2015-04-26T10:20:50.000Z</time>
      </trkpt>
      <trkpt lat="47.46907" lon="6.74582">
        <ele>350</ele>
        <time>2015-04-26T10:20:51.000Z</time>
      </trkpt>
      <trkpt lat="47.4691" lon="6.7458">
        <ele>350</ele>
        <time>2015-04-26T10:20:52.000Z</time>
      </trkpt>
      <trkpt lat="47.46913" lon="6.74579">
        <ele>349</ele>
        <time>2015-04-26T10:20:53.000Z</time>
      </trkpt>
      <trkpt lat="47.46916" lon="6.74577">
        <ele>349</ele>
        <time>2015-04-26T10:20:54.000Z</time>
      </trkpt>
      <trkpt lat="47.46918" lon="6.74576">
        <ele>347</ele>
        <time>2015-04-26T10:20:55.000Z</time>
      </trkpt>
      <trkpt lat="47.46921" lon="6.74574">
        <ele>347</ele>
        <time>2015-04-26T10:20:56.000Z</time>
      </trkpt>
      <trkpt lat="47.46923" lon="6.74572">
        <ele>347</ele>
        <time>2015-04-26T10:20:57.000Z</time>
      </trkpt>
      <trkpt lat="47.46926" lon="6.74568">
        <ele>347</ele>
        <time>2015-04-26T10:21:22.000Z</time>
      </trkpt>
      <trkpt lat="47.46927" lon="6.74568">
        <ele>347</ele>
        <time>2015-04-26T10:21:23.000Z</time>
      </trkpt>
      <trkpt lat="47.4693" lon="6.74566">
        <ele>347</ele>
        <time>2015-04-26T10:21:27.000Z</time>
      </trkpt>
      <trkpt lat="47.46931" lon="6.74565">
        <ele>347</ele>
        <time>2015-04-26T10:21:28.000Z</time>
      </trkpt>
      <trkpt lat="47.46935" lon="6.74566">
        <ele>347</ele>
        <time>2015-04-26T10:21:44.000Z</time>
      </trkpt>
      <trkpt lat="47.46936" lon="6.74566">
        <ele>347</ele>
        <time>2015-04-26T10:21:45.000Z</time>
      </trkpt>
      <trkpt lat="47.46939" lon="6.74566">
        <ele>347</ele>
        <time>2015-04-26T10:21:46.000Z</time>
      </trkpt>
      <trkpt lat="47.46942" lon="6.74566">
        <ele>347</ele>
        <time>2015-04-26T10:21:47.000Z</time>
      </trkpt>
      <trkpt lat="47.46946" lon="6.74566">
        <ele>347</ele>
        <time>2015-04-26T10:21:48.000Z</time>
      </trkpt>
      <trkpt lat="47.4695" lon="6.74565">
        <ele>347</ele>
        <time>2015-04-26T10:21:49.000Z</time>
      </trkpt>
      <trkpt lat="47.46954" lon="6.74564">
        <ele>347</ele>
        <time>2015-04-26T10:21:50.000Z</time>
      </trkpt>
      <trkpt lat="47.46958" lon="6.74564">
        <ele>347</ele>
        <time>2015-04-26T10:21:51.000Z</time>
      </trkpt>
      <trkpt lat="47.46963" lon="6.74564">
        <ele>347</ele>
        <time>2015-04-26T10:21:52.000Z</time>
      </trkpt>
      <trkpt lat="47.46967" lon="6.74564">
        <ele>347</ele>
        <time>2015-04-26T10:21:53.000Z</time>
      </trkpt>
      <trkpt lat="47.46973" lon="6.74564">
        <ele>347</ele>
        <time>2015-04-26T10:21:54.000Z</time>
      </trkpt>
      <trkpt lat="47.46978" lon="6.74565">
        <ele>346</ele>
        <time>2015-04-26T10:21:55.000Z</time>
      </trkpt>
      <trkpt lat="47.46983" lon="6.74565">
        <ele>346</ele>
        <time>2015-04-26T10:21:56.000Z</time>
      </trkpt>
      <trkpt lat="47.46988" lon="6.74566">
        <ele>346</ele>
        <time>2015-04-26T10:21:57.000Z</time>
      </trkpt>
      <trkpt lat="47.46993" lon="6.74566">
        <ele>346</ele>
        <time>2015-04-26T10:21:58.000Z</time>
      </trkpt>
      <trkpt lat="47.46998" lon="6.74566">
        <ele>346</ele>
        <time>2015-04-26T10:21:59.000Z</time>
      </trkpt>
      <trkpt lat="47.47002" lon="6.74568">
        <ele>344</ele>
        <time>2015-04-26T10:22:00.000Z</time>
      </trkpt>
      <trkpt lat="47.47007" lon="6.7457">
        <ele>344</ele>
        <time>2015-04-26T10:22:01.000Z</time>
      </trkpt>
      <trkpt lat="47.47011" lon="6.7457">
        <ele>343</ele>
        <time>2015-04-26T10:22:02.000Z</time>
      </trkpt>
      <trkpt lat="47.47016" lon="6.74571">
        <ele>343</ele>
        <time>2015-04-26T10:22:03.000Z</time>
      </trkpt>
      <trkpt lat="47.47019" lon="6.74568">
        <ele>343</ele>
        <time>2015-04-26T10:22:04.000Z</time>
      </trkpt>
      <trkpt lat="47.47023" lon="6.74566">
        <ele>343</ele>
        <time>2015-04-26T10:22:05.000Z</time>
      </trkpt>
      <trkpt lat="47.47027" lon="6.74566">
        <ele>343</ele>
        <time>2015-04-26T10:22:06.000Z</time>
      </trkpt>
      <trkpt lat="47.47032" lon="6.74565">
        <ele>343</ele>
        <time>2015-04-26T10:22:07.000Z</time>
      </trkpt>
      <trkpt lat="47.47037" lon="6.74565">
        <ele>343</ele>
        <time>2015-04-26T10:22:08.000Z</time>
      </trkpt>
      <trkpt lat="47.4704" lon="6.7457">
        <ele>343</ele>
        <time>2015-04-26T10:22:09.000Z</time>
      </trkpt>
      <trkpt lat="47.47043" lon="6.74573">
        <ele>343</ele>
        <time>2015-04-26T10:22:10.000Z</time>
      </trkpt>
      <trkpt lat="47.47039" lon="6.7458">
        <ele>343</ele>
        <time>2015-04-26T10:22:11.000Z</time>
      </trkpt>
      <trkpt lat="47.47037" lon="6.74586">
        <ele>342</ele>
        <time>2015-04-26T10:22:12.000Z</time>
      </trkpt>
      <trkpt lat="47.47034" lon="6.74591">
        <ele>342</ele>
        <time>2015-04-26T10:22:13.000Z</time>
      </trkpt>
      <trkpt lat="47.47032" lon="6.74597">
        <ele>342</ele>
        <time>2015-04-26T10:22:14.000Z</time>
      </trkpt>
      <trkpt lat="47.47029" lon="6.74602">
        <ele>341</ele>
        <time>2015-04-26T10:22:15.000Z</time>
      </trkpt>
      <trkpt lat="47.47026" lon="6.74608">
        <ele>341</ele>
        <time>2015-04-26T10:22:16.000Z</time>
      </trkpt>
      <trkpt lat="47.47024" lon="6.74615">
        <ele>341</ele>
        <time>2015-04-26T10:22:17.000Z</time>
      </trkpt>
      <trkpt lat="47.4702" lon="6.74622">
        <ele>341</ele>
        <time>2015-04-26T10:22:18.000Z</time>
      </trkpt>
      <trkpt lat="47.47017" lon="6.7463">
        <ele>341</ele>
        <time>2015-04-26T10:22:19.000Z</time>
      </trkpt>
      <trkpt lat="47.47013" lon="6.74637">
        <ele>340</ele>
        <time>2015-04-26T10:22:20.000Z</time>
      </trkpt>
      <trkpt lat="47.4701" lon="6.74646">
        <ele>340</ele>
        <time>2015-04-26T10:22:21.000Z</time>
      </trkpt>
      <trkpt lat="47.47007" lon="6.74656">
        <ele>339</ele>
        <time>2015-04-26T10:22:22.000Z</time>
      </trkpt>
      <trkpt lat="47.47004" lon="6.74666">
        <ele>338</ele>
        <time>2015-04-26T10:22:23.000Z</time>
      </trkpt>
      <trkpt lat="47.47002" lon="6.74676">
        <ele>338</ele>
        <time>2015-04-26T10:22:24.000Z</time>
      </trkpt>
      <trkpt lat="47.46999" lon="6.74688">
        <ele>337</ele>
        <time>2015-04-26T10:22:25.000Z</time>
      </trkpt>
      <trkpt lat="47.46997" lon="6.747">
        <ele>337</ele>
        <time>2015-04-26T10:22:26.000Z</time>
      </trkpt>
      <trkpt lat="47.46995" lon="6.74713">
        <ele>337</ele>
        <time>2015-04-26T10:22:27.000Z</time>
      </trkpt>
      <trkpt lat="47.46994" lon="6.74726">
        <ele>336</ele>
        <time>2015-04-26T10:22:28.000Z</time>
      </trkpt>
      <trkpt lat="47.46994" lon="6.7474">
        <ele>336</ele>
        <time>2015-04-26T10:22:29.000Z</time>
      </trkpt>
      <trkpt lat="47.46993" lon="6.74753">
        <ele>335</ele>
        <time>2015-04-26T10:22:30.000Z</time>
      </trkpt>
      <trkpt lat="47.46993" lon="6.74766">
        <ele>335</ele>
        <time>2015-04-26T10:22:31.000Z</time>
      </trkpt>
      <trkpt lat="47.46993" lon="6.74779">
        <ele>335</ele>
        <time>2015-04-26T10:22:32.000Z</time>
      </trkpt>
      <trkpt lat="47.46993" lon="6.74792">
        <ele>335</ele>
        <time>2015-04-26T10:22:33.000Z</time>
      </trkpt>
      <trkpt lat="47.46993" lon="6.74805">
        <ele>335</ele>
        <time>2015-04-26T10:22:34.000Z</time>
      </trkpt>
      <trkpt lat="47.46993" lon="6.74819">
        <ele>334</ele>
        <time>2015-04-26T10:22:35.000Z</time>
      </trkpt>
      <trkpt lat="47.46993" lon="6.74832">
        <ele>334</ele>
        <time>2015-04-26T10:22:36.000Z</time>
      </trkpt>
      <trkpt lat="47.46993" lon="6.74843">
        <ele>333</ele>
        <time>2015-04-26T10:22:37.000Z</time>
      </trkpt>
      <trkpt lat="47.46993" lon="6.74857">
        <ele>333</ele>
        <time>2015-04-26T10:22:38.000Z</time>
      </trkpt>
      <trkpt lat="47.46993" lon="6.74869">
        <ele>333</ele>
        <time>2015-04-26T10:22:39.000Z</time>
      </trkpt>
      <trkpt lat="47.46993" lon="6.74881">
        <ele>333</ele>
        <time>2015-04-26T10:22:40.000Z</time>
      </trkpt>
      <trkpt lat="47.46993" lon="6.74893">
        <ele>333</ele>
        <time>2015-04-26T10:22:41.000Z</time>
      </trkpt>
      <trkpt lat="47.46993" lon="6.74906">
        <ele>332</ele>
        <time>2015-04-26T10:22:42.000Z</time>
      </trkpt>
      <trkpt lat="47.46994" lon="6.74918">
        <ele>331</ele>
        <time>2015-04-26T10:22:43.000Z</time>
      </trkpt>
      <trkpt lat="47.46994" lon="6.7493">
        <ele>332</ele>
        <time>2015-04-26T10:22:44.000Z</time>
      </trkpt>
      <trkpt lat="47.46994" lon="6.74941">
        <ele>332</ele>
        <time>2015-04-26T10:22:45.000Z</time>
      </trkpt>
      <trkpt lat="47.46994" lon="6.74952">
        <ele>332</ele>
        <time>2015-04-26T10:22:46.000Z</time>
      </trkpt>
      <trkpt lat="47.46994" lon="6.74963">
        <ele>332</ele>
        <time>2015-04-26T10:22:47.000Z</time>
      </trkpt>
      <trkpt lat="47.46994" lon="6.74974">
        <ele>332</ele>
        <time>2015-04-26T10:22:48.000Z</time>
      </trkpt>
      <trkpt lat="47.46994" lon="6.74985">
        <ele>332</ele>
        <time>2015-04-26T10:22:49.000Z</time>
      </trkpt>
      <trkpt lat="47.46994" lon="6.74994">
        <ele>332</ele>
        <time>2015-04-26T10:22:50.000Z</time>
      </trkpt>
      <trkpt lat="47.46994" lon="6.75004">
        <ele>332</ele>
        <time>2015-04-26T10:22:51.000Z</time>
      </trkpt>
      <trkpt lat="47.46995" lon="6.75014">
        <ele>332</ele>
        <time>2015-04-26T10:22:52.000Z</time>
      </trkpt>
      <trkpt lat="47.46995" lon="6.75025">
        <ele>333</ele>
        <time>2015-04-26T10:22:53.000Z</time>
      </trkpt>
      <trkpt lat="47.46996" lon="6.75034">
        <ele>333</ele>
        <time>2015-04-26T10:22:54.000Z</time>
      </trkpt>
      <trkpt lat="47.46997" lon="6.75043">
        <ele>333</ele>
        <time>2015-04-26T10:22:55.000Z</time>
      </trkpt>
      <trkpt lat="47.46999" lon="6.75052">
        <ele>333</ele>
        <time>2015-04-26T10:22:56.000Z</time>
      </trkpt>
      <trkpt lat="47.47001" lon="6.7506">
        <ele>332</ele>
        <time>2015-04-26T10:22:57.000Z</time>
      </trkpt>
      <trkpt lat="47.47003" lon="6.75068">
        <ele>332</ele>
        <time>2015-04-26T10:22:58.000Z</time>
      </trkpt>
      <trkpt lat="47.47006" lon="6.75076">
        <ele>333</ele>
        <time>2015-04-26T10:22:59.000Z</time>
      </trkpt>
      <trkpt lat="47.47008" lon="6.75084">
        <ele>333</ele>
        <time>2015-04-26T10:23:00.000Z</time>
      </trkpt>
      <trkpt lat="47.47009" lon="6.75092">
        <ele>333</ele>
        <time>2015-04-26T10:23:01.000Z</time>
      </trkpt>
      <trkpt lat="47.47011" lon="6.75099">
        <ele>333</ele>
        <time>2015-04-26T10:23:02.000Z</time>
      </trkpt>
      <trkpt lat="47.47013" lon="6.75107">
        <ele>333</ele>
        <time>2015-04-26T10:23:03.000Z</time>
      </trkpt>
      <trkpt lat="47.47015" lon="6.75114">
        <ele>333</ele>
        <time>2015-04-26T10:23:04.000Z</time>
      </trkpt>
      <trkpt lat="47.47017" lon="6.75121">
        <ele>333</ele>
        <time>2015-04-26T10:23:05.000Z</time>
      </trkpt>
      <trkpt lat="47.47018" lon="6.75128">
        <ele>333</ele>
        <time>2015-04-26T10:23:06.000Z</time>
      </trkpt>
      <trkpt lat="47.47019" lon="6.75136">
        <ele>333</ele>
        <time>2015-04-26T10:23:07.000Z</time>
      </trkpt>
      <trkpt lat="47.47021" lon="6.75143">
        <ele>333</ele>
        <time>2015-04-26T10:23:08.000Z</time>
      </trkpt>
      <trkpt lat="47.47022" lon="6.75149">
        <ele>333</ele>
        <time>2015-04-26T10:23:09.000Z</time>
      </trkpt>
      <trkpt lat="47.47024" lon="6.75156">
        <ele>333</ele>
        <time>2015-04-26T10:23:10.000Z</time>
      </trkpt>
      <trkpt lat="47.47026" lon="6.75162">
        <ele>333</ele>
        <time>2015-04-26T10:23:11.000Z</time>
      </trkpt>
      <trkpt lat="47.47028" lon="6.7517">
        <ele>333</ele>
        <time>2015-04-26T10:23:12.000Z</time>
      </trkpt>
      <trkpt lat="47.4703" lon="6.75177">
        <ele>333</ele>
        <time>2015-04-26T10:23:13.000Z</time>
      </trkpt>
      <trkpt lat="47.47032" lon="6.75184">
        <ele>332</ele>
        <time>2015-04-26T10:23:14.000Z</time>
      </trkpt>
      <trkpt lat="47.47033" lon="6.75192">
        <ele>332</ele>
        <time>2015-04-26T10:23:15.000Z</time>
      </trkpt>
      <trkpt lat="47.47035" lon="6.752">
        <ele>332</ele>
        <time>2015-04-26T10:23:16.000Z</time>
      </trkpt>
      <trkpt lat="47.47037" lon="6.75208">
        <ele>332</ele>
        <time>2015-04-26T10:23:17.000Z</time>
      </trkpt>
      <trkpt lat="47.4704" lon="6.75216">
        <ele>332</ele>
        <time>2015-04-26T10:23:18.000Z</time>
      </trkpt>
      <trkpt lat="47.47042" lon="6.75225">
        <ele>332</ele>
        <time>2015-04-26T10:23:19.000Z</time>
      </trkpt>
      <trkpt lat="47.47044" lon="6.75234">
        <ele>332</ele>
        <time>2015-04-26T10:23:20.000Z</time>
      </trkpt>
      <trkpt lat="47.47046" lon="6.75244">
        <ele>332</ele>
        <time>2015-04-26T10:23:21.000Z</time>
      </trkpt>
      <trkpt lat="47.47048" lon="6.75254">
        <ele>331</ele>
        <time>2015-04-26T10:23:22.000Z</time>
      </trkpt>
      <trkpt lat="47.47049" lon="6.75266">
        <ele>331</ele>
        <time>2015-04-26T10:23:23.000Z</time>
      </trkpt>
      <trkpt lat="47.47051" lon="6.75277">
        <ele>331</ele>
        <time>2015-04-26T10:23:24.000Z</time>
      </trkpt>
      <trkpt lat="47.47051" lon="6.75289">
        <ele>331</ele>
        <time>2015-04-26T10:23:25.000Z</time>
      </trkpt>
      <trkpt lat="47.47052" lon="6.75301">
        <ele>331</ele>
        <time>2015-04-26T10:23:26.000Z</time>
      </trkpt>
      <trkpt lat="47.47052" lon="6.75313">
        <ele>331</ele>
        <time>2015-04-26T10:23:27.000Z</time>
      </trkpt>
      <trkpt lat="47.47053" lon="6.75324">
        <ele>330</ele>
        <time>2015-04-26T10:23:28.000Z</time>
      </trkpt>
      <trkpt lat="47.47053" lon="6.75335">
        <ele>330</ele>
        <time>2015-04-26T10:23:29.000Z</time>
      </trkpt>
      <trkpt lat="47.47052" lon="6.75345">
        <ele>330</ele>
        <time>2015-04-26T10:23:30.000Z</time>
      </trkpt>
      <trkpt lat="47.47053" lon="6.75356">
        <ele>330</ele>
        <time>2015-04-26T10:23:31.000Z</time>
      </trkpt>
      <trkpt lat="47.47053" lon="6.75369">
        <ele>330</ele>
        <time>2015-04-26T10:23:32.000Z</time>
      </trkpt>
      <trkpt lat="47.47054" lon="6.75381">
        <ele>331</ele>
        <time>2015-04-26T10:23:33.000Z</time>
      </trkpt>
      <trkpt lat="47.47054" lon="6.75391">
        <ele>331</ele>
        <time>2015-04-26T10:23:34.000Z</time>
      </trkpt>
      <trkpt lat="47.47054" lon="6.75401">
        <ele>331</ele>
        <time>2015-04-26T10:23:35.000Z</time>
      </trkpt>
      <trkpt lat="47.47054" lon="6.75411">
        <ele>331</ele>
        <time>2015-04-26T10:23:36.000Z</time>
      </trkpt>
      <trkpt lat="47.47055" lon="6.75419">
        <ele>331</ele>
        <time>2015-04-26T10:23:37.000Z</time>
      </trkpt>
      <trkpt lat="47.47055" lon="6.75424">
        <ele>331</ele>
        <time>2015-04-26T10:23:38.000Z</time>
      </trkpt>
      <trkpt lat="47.47056" lon="6.75431">
        <ele>331</ele>
        <time>2015-04-26T10:23:39.000Z</time>
      </trkpt>
      <trkpt lat="47.47058" lon="6.75438">
        <ele>331</ele>
        <time>2015-04-26T10:23:40.000Z</time>
      </trkpt>
      <trkpt lat="47.47058" lon="6.75444">
        <ele>331</ele>
        <time>2015-04-26T10:23:41.000Z</time>
      </trkpt>
      <trkpt lat="47.47059" lon="6.75451">
        <ele>331</ele>
        <time>2015-04-26T10:23:42.000Z</time>
      </trkpt>
      <trkpt lat="47.4706" lon="6.75457">
        <ele>331</ele>
        <time>2015-04-26T10:23:43.000Z</time>
      </trkpt>
      <trkpt lat="47.47061" lon="6.75466">
        <ele>332</ele>
        <time>2015-04-26T10:23:44.000Z</time>
      </trkpt>
      <trkpt lat="47.4706" lon="6.75474">
        <ele>332</ele>
        <time>2015-04-26T10:23:45.000Z</time>
      </trkpt>
      <trkpt lat="47.4706" lon="6.75481">
        <ele>332</ele>
        <time>2015-04-26T10:23:46.000Z</time>
      </trkpt>
      <trkpt lat="47.4706" lon="6.75489">
        <ele>332</ele>
        <time>2015-04-26T10:23:47.000Z</time>
      </trkpt>
      <trkpt lat="47.4706" lon="6.75496">
        <ele>332</ele>
        <time>2015-04-26T10:23:48.000Z</time>
      </trkpt>
      <trkpt lat="47.4706" lon="6.75502">
        <ele>333</ele>
        <time>2015-04-26T10:23:49.000Z</time>
      </trkpt>
      <trkpt lat="47.4706" lon="6.75508">
        <ele>333</ele>
        <time>2015-04-26T10:23:50.000Z</time>
      </trkpt>
      <trkpt lat="47.4706" lon="6.75513">
        <ele>333</ele>
        <time>2015-04-26T10:23:51.000Z</time>
      </trkpt>
      <trkpt lat="47.47059" lon="6.75518">
        <ele>333</ele>
        <time>2015-04-26T10:23:52.000Z</time>
      </trkpt>
      <trkpt lat="47.47059" lon="6.75523">
        <ele>333</ele>
        <time>2015-04-26T10:23:53.000Z</time>
      </trkpt>
      <trkpt lat="47.47059" lon="6.75528">
        <ele>334</ele>
        <time>2015-04-26T10:23:54.000Z</time>
      </trkpt>
      <trkpt lat="47.47059" lon="6.75534">
        <ele>334</ele>
        <time>2015-04-26T10:23:55.000Z</time>
      </trkpt>
      <trkpt lat="47.4706" lon="6.7554">
        <ele>334</ele>
        <time>2015-04-26T10:23:56.000Z</time>
      </trkpt>
      <trkpt lat="47.4706" lon="6.75546">
        <ele>334</ele>
        <time>2015-04-26T10:23:57.000Z</time>
      </trkpt>
      <trkpt lat="47.47061" lon="6.75552">
        <ele>334</ele>
        <time>2015-04-26T10:23:58.000Z</time>
      </trkpt>
      <trkpt lat="47.47061" lon="6.75558">
        <ele>334</ele>
        <time>2015-04-26T10:23:59.000Z</time>
      </trkpt>
      <trkpt lat="47.47061" lon="6.75563">
        <ele>334</ele>
        <time>2015-04-26T10:24:00.000Z</time>
      </trkpt>
      <trkpt lat="47.47062" lon="6.75569">
        <ele>334</ele>
        <time>2015-04-26T10:24:01.000Z</time>
      </trkpt>
      <trkpt lat="47.47062" lon="6.75575">
        <ele>335</ele>
        <time>2015-04-26T10:24:02.000Z</time>
      </trkpt>
      <trkpt lat="47.47062" lon="6.7558">
        <ele>335</ele>
        <time>2015-04-26T10:24:03.000Z</time>
      </trkpt>
      <trkpt lat="47.47063" lon="6.75586">
        <ele>336</ele>
        <time>2015-04-26T10:24:04.000Z</time>
      </trkpt>
      <trkpt lat="47.47063" lon="6.75591">
        <ele>336</ele>
        <time>2015-04-26T10:24:05.000Z</time>
      </trkpt>
      <trkpt lat="47.47064" lon="6.75596">
        <ele>336</ele>
        <time>2015-04-26T10:24:06.000Z</time>
      </trkpt>
      <trkpt lat="47.47064" lon="6.75602">
        <ele>336</ele>
        <time>2015-04-26T10:24:07.000Z</time>
      </trkpt>
      <trkpt lat="47.47064" lon="6.75607">
        <ele>336</ele>
        <time>2015-04-26T10:24:08.000Z</time>
      </trkpt>
      <trkpt lat="47.47065" lon="6.75613">
        <ele>337</ele>
        <time>2015-04-26T10:24:09.000Z</time>
      </trkpt>
      <trkpt lat="47.47065" lon="6.75619">
        <ele>337</ele>
        <time>2015-04-26T10:24:10.000Z</time>
      </trkpt>
      <trkpt lat="47.47066" lon="6.75625">
        <ele>337</ele>
        <time>2015-04-26T10:24:11.000Z</time>
      </trkpt>
      <trkpt lat="47.47067" lon="6.75631">
        <ele>337</ele>
        <time>2015-04-26T10:24:12.000Z</time>
      </trkpt>
      <trkpt lat="47.47067" lon="6.75637">
        <ele>337</ele>
        <time>2015-04-26T10:24:13.000Z</time>
      </trkpt>
      <trkpt lat="47.47068" lon="6.75644">
        <ele>337</ele>
        <time>2015-04-26T10:24:14.000Z</time>
      </trkpt>
      <trkpt lat="47.47068" lon="6.7565">
        <ele>337</ele>
        <time>2015-04-26T10:24:15.000Z</time>
      </trkpt>
      <trkpt lat="47.47069" lon="6.75656">
        <ele>337</ele>
        <time>2015-04-26T10:24:16.000Z</time>
      </trkpt>
      <trkpt lat="47.4707" lon="6.75662">
        <ele>337</ele>
        <time>2015-04-26T10:24:17.000Z</time>
      </trkpt>
      <trkpt lat="47.4707" lon="6.75668">
        <ele>338</ele>
        <time>2015-04-26T10:24:18.000Z</time>
      </trkpt>
      <trkpt lat="47.47071" lon="6.75675">
        <ele>338</ele>
        <time>2015-04-26T10:24:19.000Z</time>
      </trkpt>
      <trkpt lat="47.47072" lon="6.75681">
        <ele>338</ele>
        <time>2015-04-26T10:24:20.000Z</time>
      </trkpt>
      <trkpt lat="47.47072" lon="6.75687">
        <ele>338</ele>
        <time>2015-04-26T10:24:21.000Z</time>
      </trkpt>
      <trkpt lat="47.47073" lon="6.75693">
        <ele>339</ele>
        <time>2015-04-26T10:24:22.000Z</time>
      </trkpt>
      <trkpt lat="47.47073" lon="6.75699">
        <ele>339</ele>
        <time>2015-04-26T10:24:23.000Z</time>
      </trkpt>
      <trkpt lat="47.47074" lon="6.75704">
        <ele>339</ele>
        <time>2015-04-26T10:24:24.000Z</time>
      </trkpt>
      <trkpt lat="47.47075" lon="6.7571">
        <ele>339</ele>
        <time>2015-04-26T10:24:25.000Z</time>
      </trkpt>
      <trkpt lat="47.47076" lon="6.75715">
        <ele>339</ele>
        <time>2015-04-26T10:24:26.000Z</time>
      </trkpt>
      <trkpt lat="47.47077" lon="6.7572">
        <ele>339</ele>
        <time>2015-04-26T10:24:27.000Z</time>
      </trkpt>
      <trkpt lat="47.47078" lon="6.75725">
        <ele>339</ele>
        <time>2015-04-26T10:24:28.000Z</time>
      </trkpt>
      <trkpt lat="47.47079" lon="6.7573">
        <ele>339</ele>
        <time>2015-04-26T10:24:29.000Z</time>
      </trkpt>
      <trkpt lat="47.4708" lon="6.75734">
        <ele>339</ele>
        <time>2015-04-26T10:24:30.000Z</time>
      </trkpt>
      <trkpt lat="47.47081" lon="6.75738">
        <ele>339</ele>
        <time>2015-04-26T10:24:31.000Z</time>
      </trkpt>
      <trkpt lat="47.47082" lon="6.75742">
        <ele>339</ele>
        <time>2015-04-26T10:24:32.000Z</time>
      </trkpt>
      <trkpt lat="47.47083" lon="6.75746">
        <ele>339</ele>
        <time>2015-04-26T10:24:33.000Z</time>
      </trkpt>
      <trkpt lat="47.47084" lon="6.75751">
        <ele>339</ele>
        <time>2015-04-26T10:24:34.000Z</time>
      </trkpt>
      <trkpt lat="47.47085" lon="6.75756">
        <ele>339</ele>
        <time>2015-04-26T10:24:35.000Z</time>
      </trkpt>
      <trkpt lat="47.47085" lon="6.7576">
        <ele>339</ele>
        <time>2015-04-26T10:24:36.000Z</time>
      </trkpt>
      <trkpt lat="47.47086" lon="6.75766">
        <ele>339</ele>
        <time>2015-04-26T10:24:37.000Z</time>
      </trkpt>
      <trkpt lat="47.47087" lon="6.75771">
        <ele>339</ele>
        <time>2015-04-26T10:24:38.000Z</time>
      </trkpt>
      <trkpt lat="47.47087" lon="6.75776">
        <ele>339</ele>
        <time>2015-04-26T10:24:39.000Z</time>
      </trkpt>
      <trkpt lat="47.47088" lon="6.75781">
        <ele>339</ele>
        <time>2015-04-26T10:24:40.000Z</time>
      </trkpt>
      <trkpt lat="47.47088" lon="6.75786">
        <ele>339</ele>
        <time>2015-04-26T10:24:41.000Z</time>
      </trkpt>
      <trkpt lat="47.47089" lon="6.75791">
        <ele>339</ele>
        <time>2015-04-26T10:24:42.000Z</time>
      </trkpt>
      <trkpt lat="47.47089" lon="6.75796">
        <ele>339</ele>
        <time>2015-04-26T10:24:43.000Z</time>
      </trkpt>
      <trkpt lat="47.47089" lon="6.75801">
        <ele>339</ele>
        <time>2015-04-26T10:24:44.000Z</time>
      </trkpt>
      <trkpt lat="47.47089" lon="6.75806">
        <ele>340</ele>
        <time>2015-04-26T10:24:45.000Z</time>
      </trkpt>
      <trkpt lat="47.47089" lon="6.75811">
        <ele>340</ele>
        <time>2015-04-26T10:24:46.000Z</time>
      </trkpt>
      <trkpt lat="47.4709" lon="6.75816">
        <ele>340</ele>
        <time>2015-04-26T10:24:47.000Z</time>
      </trkpt>
      <trkpt lat="47.4709" lon="6.75821">
        <ele>340</ele>
        <time>2015-04-26T10:24:48.000Z</time>
      </trkpt>
      <trkpt lat="47.4709" lon="6.75826">
        <ele>340</ele>
        <time>2015-04-26T10:24:49.000Z</time>
      </trkpt>
      <trkpt lat="47.4709" lon="6.75831">
        <ele>340</ele>
        <time>2015-04-26T10:24:50.000Z</time>
      </trkpt>
      <trkpt lat="47.4709" lon="6.75835">
        <ele>341</ele>
        <time>2015-04-26T10:24:51.000Z</time>
      </trkpt>
      <trkpt lat="47.4709" lon="6.75839">
        <ele>341</ele>
        <time>2015-04-26T10:24:52.000Z</time>
      </trkpt>
      <trkpt lat="47.4709" lon="6.75844">
        <ele>340</ele>
        <time>2015-04-26T10:24:53.000Z</time>
      </trkpt>
      <trkpt lat="47.47091" lon="6.75848">
        <ele>340</ele>
        <time>2015-04-26T10:24:54.000Z</time>
      </trkpt>
      <trkpt lat="47.47091" lon="6.75853">
        <ele>340</ele>
        <time>2015-04-26T10:24:55.000Z</time>
      </trkpt>
      <trkpt lat="47.47091" lon="6.75858">
        <ele>340</ele>
        <time>2015-04-26T10:24:56.000Z</time>
      </trkpt>
      <trkpt lat="47.47091" lon="6.75864">
        <ele>340</ele>
        <time>2015-04-26T10:24:57.000Z</time>
      </trkpt>
      <trkpt lat="47.47091" lon="6.75871">
        <ele>340</ele>
        <time>2015-04-26T10:24:58.000Z</time>
      </trkpt>
      <trkpt lat="47.47091" lon="6.75877">
        <ele>340</ele>
        <time>2015-04-26T10:24:59.000Z</time>
      </trkpt>
      <trkpt lat="47.47091" lon="6.75884">
        <ele>340</ele>
        <time>2015-04-26T10:25:00.000Z</time>
      </trkpt>
      <trkpt lat="47.47091" lon="6.75891">
        <ele>340</ele>
        <time>2015-04-26T10:25:01.000Z</time>
      </trkpt>
      <trkpt lat="47.47091" lon="6.75898">
        <ele>340</ele>
        <time>2015-04-26T10:25:02.000Z</time>
      </trkpt>
      <trkpt lat="47.47092" lon="6.75907">
        <ele>340</ele>
        <time>2015-04-26T10:25:03.000Z</time>
      </trkpt>
      <trkpt lat="47.47092" lon="6.75914">
        <ele>340</ele>
        <time>2015-04-26T10:25:04.000Z</time>
      </trkpt>
      <trkpt lat="47.47091" lon="6.75921">
        <ele>339</ele>
        <time>2015-04-26T10:25:05.000Z</time>
      </trkpt>
      <trkpt lat="47.47091" lon="6.75926">
        <ele>339</ele>
        <time>2015-04-26T10:25:06.000Z</time>
      </trkpt>
      <trkpt lat="47.47091" lon="6.75935">
        <ele>339</ele>
        <time>2015-04-26T10:25:07.000Z</time>
      </trkpt>
      <trkpt lat="47.4709" lon="6.75943">
        <ele>339</ele>
        <time>2015-04-26T10:25:08.000Z</time>
      </trkpt>
      <trkpt lat="47.4709" lon="6.7595">
        <ele>338</ele>
        <time>2015-04-26T10:25:09.000Z</time>
      </trkpt>
      <trkpt lat="47.47089" lon="6.75958">
        <ele>338</ele>
        <time>2015-04-26T10:25:10.000Z</time>
      </trkpt>
      <trkpt lat="47.47089" lon="6.75966">
        <ele>338</ele>
        <time>2015-04-26T10:25:11.000Z</time>
      </trkpt>
      <trkpt lat="47.47088" lon="6.75974">
        <ele>338</ele>
        <time>2015-04-26T10:25:12.000Z</time>
      </trkpt>
      <trkpt lat="47.47088" lon="6.75982">
        <ele>338</ele>
        <time>2015-04-26T10:25:13.000Z</time>
      </trkpt>
      <trkpt lat="47.47088" lon="6.75987">
        <ele>337</ele>
        <time>2015-04-26T10:25:14.000Z</time>
      </trkpt>
      <trkpt lat="47.47091" lon="6.75993">
        <ele>337</ele>
        <time>2015-04-26T10:25:15.000Z</time>
      </trkpt>
      <trkpt lat="47.47093" lon="6.75998">
        <ele>337</ele>
        <time>2015-04-26T10:25:16.000Z</time>
      </trkpt>
      <trkpt lat="47.47099" lon="6.75997">
        <ele>337</ele>
        <time>2015-04-26T10:25:17.000Z</time>
      </trkpt>
      <trkpt lat="47.47104" lon="6.75998">
        <ele>338</ele>
        <time>2015-04-26T10:25:18.000Z</time>
      </trkpt>
      <trkpt lat="47.47108" lon="6.76">
        <ele>338</ele>
        <time>2015-04-26T10:25:19.000Z</time>
      </trkpt>
      <trkpt lat="47.47113" lon="6.76002">
        <ele>336</ele>
        <time>2015-04-26T10:25:20.000Z</time>
      </trkpt>
      <trkpt lat="47.47117" lon="6.76004">
        <ele>336</ele>
        <time>2015-04-26T10:25:21.000Z</time>
      </trkpt>
      <trkpt lat="47.47121" lon="6.76006">
        <ele>336</ele>
        <time>2015-04-26T10:25:22.000Z</time>
      </trkpt>
      <trkpt lat="47.47126" lon="6.76009">
        <ele>336</ele>
        <time>2015-04-26T10:25:23.000Z</time>
      </trkpt>
      <trkpt lat="47.4713" lon="6.76012">
        <ele>336</ele>
        <time>2015-04-26T10:25:24.000Z</time>
      </trkpt>
      <trkpt lat="47.47135" lon="6.76013">
        <ele>336</ele>
        <time>2015-04-26T10:25:25.000Z</time>
      </trkpt>
      <trkpt lat="47.4714" lon="6.76014">
        <ele>336</ele>
        <time>2015-04-26T10:25:26.000Z</time>
      </trkpt>
      <trkpt lat="47.47145" lon="6.76016">
        <ele>336</ele>
        <time>2015-04-26T10:25:27.000Z</time>
      </trkpt>
      <trkpt lat="47.4715" lon="6.76018">
        <ele>336</ele>
        <time>2015-04-26T10:25:28.000Z</time>
      </trkpt>
      <trkpt lat="47.47154" lon="6.76019">
        <ele>336</ele>
        <time>2015-04-26T10:25:29.000Z</time>
      </trkpt>
      <trkpt lat="47.47159" lon="6.7602">
        <ele>336</ele>
        <time>2015-04-26T10:25:30.000Z</time>
      </trkpt>
      <trkpt lat="47.47163" lon="6.76022">
        <ele>336</ele>
        <time>2015-04-26T10:25:31.000Z</time>
      </trkpt>
      <trkpt lat="47.47167" lon="6.76024">
        <ele>337</ele>
        <time>2015-04-26T10:25:32.000Z</time>
      </trkpt>
      <trkpt lat="47.47171" lon="6.76025">
        <ele>337</ele>
        <time>2015-04-26T10:25:33.000Z</time>
      </trkpt>
      <trkpt lat="47.47175" lon="6.76026">
        <ele>336</ele>
        <time>2015-04-26T10:25:34.000Z</time>
      </trkpt>
      <trkpt lat="47.47179" lon="6.76028">
        <ele>336</ele>
        <time>2015-04-26T10:25:35.000Z</time>
      </trkpt>
      <trkpt lat="47.47183" lon="6.76029">
        <ele>336</ele>
        <time>2015-04-26T10:25:36.000Z</time>
      </trkpt>
      <trkpt lat="47.47187" lon="6.76029">
        <ele>336</ele>
        <time>2015-04-26T10:25:37.000Z</time>
      </trkpt>
      <trkpt lat="47.47191" lon="6.76031">
        <ele>336</ele>
        <time>2015-04-26T10:25:38.000Z</time>
      </trkpt>
      <trkpt lat="47.47195" lon="6.76032">
        <ele>336</ele>
        <time>2015-04-26T10:25:39.000Z</time>
      </trkpt>
      <trkpt lat="47.47199" lon="6.76034">
        <ele>336</ele>
        <time>2015-04-26T10:25:40.000Z</time>
      </trkpt>
      <trkpt lat="47.47203" lon="6.76035">
        <ele>336</ele>
        <time>2015-04-26T10:25:41.000Z</time>
      </trkpt>
      <trkpt lat="47.47206" lon="6.76036">
        <ele>336</ele>
        <time>2015-04-26T10:25:42.000Z</time>
      </trkpt>
      <trkpt lat="47.4721" lon="6.76038">
        <ele>336</ele>
        <time>2015-04-26T10:25:43.000Z</time>
      </trkpt>
      <trkpt lat="47.47214" lon="6.76039">
        <ele>336</ele>
        <time>2015-04-26T10:25:44.000Z</time>
      </trkpt>
      <trkpt lat="47.47217" lon="6.7604">
        <ele>336</ele>
        <time>2015-04-26T10:25:45.000Z</time>
      </trkpt>
      <trkpt lat="47.47221" lon="6.76042">
        <ele>336</ele>
        <time>2015-04-26T10:25:46.000Z</time>
      </trkpt>
      <trkpt lat="47.47225" lon="6.76044">
        <ele>336</ele>
        <time>2015-04-26T10:25:47.000Z</time>
      </trkpt>
      <trkpt lat="47.47228" lon="6.76045">
        <ele>336</ele>
        <time>2015-04-26T10:25:48.000Z</time>
      </trkpt>
      <trkpt lat="47.47232" lon="6.76047">
        <ele>336</ele>
        <time>2015-04-26T10:25:49.000Z</time>
      </trkpt>
      <trkpt lat="47.47236" lon="6.76049">
        <ele>336</ele>
        <time>2015-04-26T10:25:50.000Z</time>
      </trkpt>
      <trkpt lat="47.4724" lon="6.7605">
        <ele>336</ele>
        <time>2015-04-26T10:25:51.000Z</time>
      </trkpt>
      <trkpt lat="47.47244" lon="6.76052">
        <ele>336</ele>
        <time>2015-04-26T10:25:52.000Z</time>
      </trkpt>
      <trkpt lat="47.47248" lon="6.76053">
        <ele>336</ele>
        <time>2015-04-26T10:25:53.000Z</time>
      </trkpt>
      <trkpt lat="47.47252" lon="6.76055">
        <ele>336</ele>
        <time>2015-04-26T10:25:54.000Z</time>
      </trkpt>
      <trkpt lat="47.47256" lon="6.76056">
        <ele>336</ele>
        <time>2015-04-26T10:25:55.000Z</time>
      </trkpt>
      <trkpt lat="47.4726" lon="6.76057">
        <ele>336</ele>
        <time>2015-04-26T10:25:56.000Z</time>
      </trkpt>
      <trkpt lat="47.47265" lon="6.76059">
        <ele>336</ele>
        <time>2015-04-26T10:25:57.000Z</time>
      </trkpt>
      <trkpt lat="47.4727" lon="6.7606">
        <ele>336</ele>
        <time>2015-04-26T10:25:58.000Z</time>
      </trkpt>
      <trkpt lat="47.47275" lon="6.76062">
        <ele>336</ele>
        <time>2015-04-26T10:25:59.000Z</time>
      </trkpt>
      <trkpt lat="47.47279" lon="6.76063">
        <ele>336</ele>
        <time>2015-04-26T10:26:00.000Z</time>
      </trkpt>
      <trkpt lat="47.47283" lon="6.76066">
        <ele>336</ele>
        <time>2015-04-26T10:26:01.000Z</time>
      </trkpt>
      <trkpt lat="47.47286" lon="6.7607">
        <ele>336</ele>
        <time>2015-04-26T10:26:02.000Z</time>
      </trkpt>
      <trkpt lat="47.47289" lon="6.76075">
        <ele>336</ele>
        <time>2015-04-26T10:26:03.000Z</time>
      </trkpt>
      <trkpt lat="47.47292" lon="6.7608">
        <ele>337</ele>
        <time>2015-04-26T10:26:04.000Z</time>
      </trkpt>
      <trkpt lat="47.47295" lon="6.76084">
        <ele>336</ele>
        <time>2015-04-26T10:26:05.000Z</time>
      </trkpt>
      <trkpt lat="47.47297" lon="6.76088">
        <ele>336</ele>
        <time>2015-04-26T10:26:06.000Z</time>
      </trkpt>
      <trkpt lat="47.473" lon="6.76093">
        <ele>336</ele>
        <time>2015-04-26T10:26:07.000Z</time>
      </trkpt>
      <trkpt lat="47.47302" lon="6.76096">
        <ele>336</ele>
        <time>2015-04-26T10:26:08.000Z</time>
      </trkpt>
      <trkpt lat="47.47306" lon="6.761">
        <ele>336</ele>
        <time>2015-04-26T10:26:09.000Z</time>
      </trkpt>
      <trkpt lat="47.47308" lon="6.76103">
        <ele>336</ele>
        <time>2015-04-26T10:26:10.000Z</time>
      </trkpt>
      <trkpt lat="47.47311" lon="6.76106">
        <ele>336</ele>
        <time>2015-04-26T10:26:11.000Z</time>
      </trkpt>
      <trkpt lat="47.47313" lon="6.76109">
        <ele>336</ele>
        <time>2015-04-26T10:26:12.000Z</time>
      </trkpt>
      <trkpt lat="47.47316" lon="6.76112">
        <ele>336</ele>
        <time>2015-04-26T10:26:13.000Z</time>
      </trkpt>
      <trkpt lat="47.47318" lon="6.76115">
        <ele>336</ele>
        <time>2015-04-26T10:26:14.000Z</time>
      </trkpt>
      <trkpt lat="47.47321" lon="6.76119">
        <ele>336</ele>
        <time>2015-04-26T10:26:15.000Z</time>
      </trkpt>
      <trkpt lat="47.47324" lon="6.76123">
        <ele>336</ele>
        <time>2015-04-26T10:26:16.000Z</time>
      </trkpt>
      <trkpt lat="47.47327" lon="6.76126">
        <ele>335</ele>
        <time>2015-04-26T10:26:17.000Z</time>
      </trkpt>
      <trkpt lat="47.4733" lon="6.7613">
        <ele>335</ele>
        <time>2015-04-26T10:26:18.000Z</time>
      </trkpt>
      <trkpt lat="47.47334" lon="6.76136">
        <ele>332</ele>
        <time>2015-04-26T10:26:19.000Z</time>
      </trkpt>
      <trkpt lat="47.47338" lon="6.76141">
        <ele>332</ele>
        <time>2015-04-26T10:26:20.000Z</time>
      </trkpt>
      <trkpt lat="47.47341" lon="6.76147">
        <ele>332</ele>
        <time>2015-04-26T10:26:21.000Z</time>
      </trkpt>
      <trkpt lat="47.47344" lon="6.76153">
        <ele>333</ele>
        <time>2015-04-26T10:26:22.000Z</time>
      </trkpt>
      <trkpt lat="47.47348" lon="6.76158">
        <ele>332</ele>
        <time>2015-04-26T10:26:23.000Z</time>
      </trkpt>
      <trkpt lat="47.47352" lon="6.76162">
        <ele>332</ele>
        <time>2015-04-26T10:26:24.000Z</time>
      </trkpt>
      <trkpt lat="47.47356" lon="6.76168">
        <ele>331</ele>
        <time>2015-04-26T10:26:25.000Z</time>
      </trkpt>
      <trkpt lat="47.4736" lon="6.76173">
        <ele>331</ele>
        <time>2015-04-26T10:26:26.000Z</time>
      </trkpt>
      <trkpt lat="47.47364" lon="6.76179">
        <ele>331</ele>
        <time>2015-04-26T10:26:27.000Z</time>
      </trkpt>
      <trkpt lat="47.47368" lon="6.76185">
        <ele>330</ele>
        <time>2015-04-26T10:26:28.000Z</time>
      </trkpt>
      <trkpt lat="47.47372" lon="6.76191">
        <ele>330</ele>
        <time>2015-04-26T10:26:29.000Z</time>
      </trkpt>
      <trkpt lat="47.47375" lon="6.76196">
        <ele>330</ele>
        <time>2015-04-26T10:26:30.000Z</time>
      </trkpt>
      <trkpt lat="47.47379" lon="6.76202">
        <ele>330</ele>
        <time>2015-04-26T10:26:31.000Z</time>
      </trkpt>
      <trkpt lat="47.47383" lon="6.76208">
        <ele>329</ele>
        <time>2015-04-26T10:26:32.000Z</time>
      </trkpt>
      <trkpt lat="47.47388" lon="6.76213">
        <ele>329</ele>
        <time>2015-04-26T10:26:33.000Z</time>
      </trkpt>
      <trkpt lat="47.47393" lon="6.76217">
        <ele>329</ele>
        <time>2015-04-26T10:26:34.000Z</time>
      </trkpt>
      <trkpt lat="47.47398" lon="6.76221">
        <ele>329</ele>
        <time>2015-04-26T10:26:35.000Z</time>
      </trkpt>
      <trkpt lat="47.47402" lon="6.76225">
        <ele>329</ele>
        <time>2015-04-26T10:26:36.000Z</time>
      </trkpt>
      <trkpt lat="47.47406" lon="6.76231">
        <ele>328</ele>
        <time>2015-04-26T10:26:37.000Z</time>
      </trkpt>
      <trkpt lat="47.47409" lon="6.76237">
        <ele>328</ele>
        <time>2015-04-26T10:26:38.000Z</time>
      </trkpt>
      <trkpt lat="47.47411" lon="6.76243">
        <ele>328</ele>
        <time>2015-04-26T10:26:39.000Z</time>
      </trkpt>
      <trkpt lat="47.47413" lon="6.76252">
        <ele>327</ele>
        <time>2015-04-26T10:26:40.000Z</time>
      </trkpt>
      <trkpt lat="47.47415" lon="6.76259">
        <ele>326</ele>
        <time>2015-04-26T10:26:41.000Z</time>
      </trkpt>
      <trkpt lat="47.47417" lon="6.76265">
        <ele>323</ele>
        <time>2015-04-26T10:26:42.000Z</time>
      </trkpt>
      <trkpt lat="47.47419" lon="6.76273">
        <ele>322</ele>
        <time>2015-04-26T10:26:43.000Z</time>
      </trkpt>
      <trkpt lat="47.47419" lon="6.76283">
        <ele>321</ele>
        <time>2015-04-26T10:26:44.000Z</time>
      </trkpt>
      <trkpt lat="47.47421" lon="6.76292">
        <ele>320</ele>
        <time>2015-04-26T10:26:45.000Z</time>
      </trkpt>
      <trkpt lat="47.47421" lon="6.76302">
        <ele>320</ele>
        <time>2015-04-26T10:26:46.000Z</time>
      </trkpt>
      <trkpt lat="47.4742" lon="6.76311">
        <ele>320</ele>
        <time>2015-04-26T10:26:47.000Z</time>
      </trkpt>
      <trkpt lat="47.47417" lon="6.76318">
        <ele>320</ele>
        <time>2015-04-26T10:26:48.000Z</time>
      </trkpt>
      <trkpt lat="47.47413" lon="6.76325">
        <ele>322</ele>
        <time>2015-04-26T10:26:49.000Z</time>
      </trkpt>
      <trkpt lat="47.47411" lon="6.7633">
        <ele>322</ele>
        <time>2015-04-26T10:26:50.000Z</time>
      </trkpt>
      <trkpt lat="47.47405" lon="6.76336">
        <ele>320</ele>
        <time>2015-04-26T10:26:51.000Z</time>
      </trkpt>
      <trkpt lat="47.474" lon="6.76343">
        <ele>319</ele>
        <time>2015-04-26T10:26:52.000Z</time>
      </trkpt>
      <trkpt lat="47.47396" lon="6.7635">
        <ele>319</ele>
        <time>2015-04-26T10:26:53.000Z</time>
      </trkpt>
      <trkpt lat="47.47391" lon="6.76357">
        <ele>319</ele>
        <time>2015-04-26T10:26:54.000Z</time>
      </trkpt>
      <trkpt lat="47.47388" lon="6.76364">
        <ele>318</ele>
        <time>2015-04-26T10:26:55.000Z</time>
      </trkpt>
      <trkpt lat="47.47384" lon="6.76371">
        <ele>318</ele>
        <time>2015-04-26T10:26:56.000Z</time>
      </trkpt>
      <trkpt lat="47.47382" lon="6.76375">
        <ele>318</ele>
        <time>2015-04-26T10:26:57.000Z</time>
      </trkpt>
      <trkpt lat="47.4738" lon="6.7638">
        <ele>318</ele>
        <time>2015-04-26T10:26:58.000Z</time>
      </trkpt>
      <trkpt lat="47.47378" lon="6.76385">
        <ele>318</ele>
        <time>2015-04-26T10:26:59.000Z</time>
      </trkpt>
      <trkpt lat="47.47378" lon="6.76389">
        <ele>317</ele>
        <time>2015-04-26T10:27:00.000Z</time>
      </trkpt>
      <trkpt lat="47.47381" lon="6.76395">
        <ele>317</ele>
        <time>2015-04-26T10:27:01.000Z</time>
      </trkpt>
      <trkpt lat="47.47385" lon="6.76401">
        <ele>317</ele>
        <time>2015-04-26T10:27:02.000Z</time>
      </trkpt>
      <trkpt lat="47.47389" lon="6.76406">
        <ele>316</ele>
        <time>2015-04-26T10:27:03.000Z</time>
      </trkpt>
      <trkpt lat="47.47394" lon="6.76412">
        <ele>316</ele>
        <time>2015-04-26T10:27:04.000Z</time>
      </trkpt>
      <trkpt lat="47.47399" lon="6.76418">
        <ele>314</ele>
        <time>2015-04-26T10:27:05.000Z</time>
      </trkpt>
      <trkpt lat="47.47405" lon="6.76424">
        <ele>313</ele>
        <time>2015-04-26T10:27:06.000Z</time>
      </trkpt>
      <trkpt lat="47.47411" lon="6.7643">
        <ele>313</ele>
        <time>2015-04-26T10:27:07.000Z</time>
      </trkpt>
      <trkpt lat="47.47417" lon="6.76435">
        <ele>313</ele>
        <time>2015-04-26T10:27:08.000Z</time>
      </trkpt>
      <trkpt lat="47.47422" lon="6.7644">
        <ele>311</ele>
        <time>2015-04-26T10:27:09.000Z</time>
      </trkpt>
      <trkpt lat="47.47426" lon="6.76444">
        <ele>311</ele>
        <time>2015-04-26T10:27:10.000Z</time>
      </trkpt>
      <trkpt lat="47.47429" lon="6.76447">
        <ele>311</ele>
        <time>2015-04-26T10:27:11.000Z</time>
      </trkpt>
      <trkpt lat="47.4743" lon="6.76449">
        <ele>311</ele>
        <time>2015-04-26T10:27:12.000Z</time>
      </trkpt>
      <trkpt lat="47.47432" lon="6.76452">
        <ele>311</ele>
        <time>2015-04-26T10:27:13.000Z</time>
      </trkpt>
      <trkpt lat="47.47434" lon="6.76451">
        <ele>311</ele>
        <time>2015-04-26T10:27:14.000Z</time>
      </trkpt>
      <trkpt lat="47.47437" lon="6.76451">
        <ele>311</ele>
        <time>2015-04-26T10:27:15.000Z</time>
      </trkpt>
      <trkpt lat="47.4744" lon="6.76449">
        <ele>311</ele>
        <time>2015-04-26T10:27:16.000Z</time>
      </trkpt>
      <trkpt lat="47.47445" lon="6.76445">
        <ele>311</ele>
        <time>2015-04-26T10:27:17.000Z</time>
      </trkpt>
      <trkpt lat="47.47448" lon="6.76442">
        <ele>311</ele>
        <time>2015-04-26T10:27:18.000Z</time>
      </trkpt>
      <trkpt lat="47.47454" lon="6.7644">
        <ele>311</ele>
        <time>2015-04-26T10:27:19.000Z</time>
      </trkpt>
      <trkpt lat="47.47458" lon="6.76441">
        <ele>311</ele>
        <time>2015-04-26T10:27:20.000Z</time>
      </trkpt>
      <trkpt lat="47.47463" lon="6.76443">
        <ele>310</ele>
        <time>2015-04-26T10:27:21.000Z</time>
      </trkpt>
      <trkpt lat="47.47468" lon="6.76445">
        <ele>310</ele>
        <time>2015-04-26T10:27:22.000Z</time>
      </trkpt>
      <trkpt lat="47.47474" lon="6.76447">
        <ele>310</ele>
        <time>2015-04-26T10:27:23.000Z</time>
      </trkpt>
      <trkpt lat="47.4748" lon="6.76448">
        <ele>310</ele>
        <time>2015-04-26T10:27:24.000Z</time>
      </trkpt>
      <trkpt lat="47.47484" lon="6.76441">
        <ele>310</ele>
        <time>2015-04-26T10:27:25.000Z</time>
      </trkpt>
      <trkpt lat="47.47488" lon="6.76441">
        <ele>310</ele>
        <time>2015-04-26T10:27:26.000Z</time>
      </trkpt>
      <trkpt lat="47.47493" lon="6.76442">
        <ele>310</ele>
        <time>2015-04-26T10:27:27.000Z</time>
      </trkpt>
      <trkpt lat="47.47497" lon="6.76448">
        <ele>310</ele>
        <time>2015-04-26T10:27:28.000Z</time>
      </trkpt>
      <trkpt lat="47.47501" lon="6.76451">
        <ele>309</ele>
        <time>2015-04-26T10:27:29.000Z</time>
      </trkpt>
      <trkpt lat="47.47507" lon="6.76445">
        <ele>309</ele>
        <time>2015-04-26T10:27:30.000Z</time>
      </trkpt>
      <trkpt lat="47.47511" lon="6.76443">
        <ele>309</ele>
        <time>2015-04-26T10:27:31.000Z</time>
      </trkpt>
      <trkpt lat="47.47513" lon="6.76438">
        <ele>309</ele>
        <time>2015-04-26T10:27:32.000Z</time>
      </trkpt>
      <trkpt lat="47.47517" lon="6.76432">
        <ele>309</ele>
        <time>2015-04-26T10:27:33.000Z</time>
      </trkpt>
      <trkpt lat="47.47521" lon="6.76427">
        <ele>309</ele>
        <time>2015-04-26T10:27:34.000Z</time>
      </trkpt>
      <trkpt lat="47.47525" lon="6.76423">
        <ele>309</ele>
        <time>2015-04-26T10:27:35.000Z</time>
      </trkpt>
      <trkpt lat="47.47529" lon="6.76417">
        <ele>309</ele>
        <time>2015-04-26T10:27:36.000Z</time>
      </trkpt>
      <trkpt lat="47.47533" lon="6.7641">
        <ele>310</ele>
        <time>2015-04-26T10:27:37.000Z</time>
      </trkpt>
      <trkpt lat="47.47537" lon="6.76405">
        <ele>310</ele>
        <time>2015-04-26T10:27:38.000Z</time>
      </trkpt>
      <trkpt lat="47.47541" lon="6.76403">
        <ele>310</ele>
        <time>2015-04-26T10:27:39.000Z</time>
      </trkpt>
      <trkpt lat="47.47545" lon="6.76398">
        <ele>310</ele>
        <time>2015-04-26T10:27:40.000Z</time>
      </trkpt>
      <trkpt lat="47.47547" lon="6.76389">
        <ele>310</ele>
        <time>2015-04-26T10:27:41.000Z</time>
      </trkpt>
      <trkpt lat="47.47547" lon="6.7638">
        <ele>310</ele>
        <time>2015-04-26T10:27:42.000Z</time>
      </trkpt>
      <trkpt lat="47.47548" lon="6.76372">
        <ele>310</ele>
        <time>2015-04-26T10:27:43.000Z</time>
      </trkpt>
      <trkpt lat="47.4755" lon="6.76366">
        <ele>310</ele>
        <time>2015-04-26T10:27:44.000Z</time>
      </trkpt>
      <trkpt lat="47.47552" lon="6.7636">
        <ele>310</ele>
        <time>2015-04-26T10:27:45.000Z</time>
      </trkpt>
      <trkpt lat="47.47555" lon="6.76355">
        <ele>310</ele>
        <time>2015-04-26T10:27:46.000Z</time>
      </trkpt>
      <trkpt lat="47.47557" lon="6.76349">
        <ele>311</ele>
        <time>2015-04-26T10:27:47.000Z</time>
      </trkpt>
      <trkpt lat="47.4756" lon="6.76344">
        <ele>311</ele>
        <time>2015-04-26T10:27:48.000Z</time>
      </trkpt>
      <trkpt lat="47.47563" lon="6.76341">
        <ele>311</ele>
        <time>2015-04-26T10:27:49.000Z</time>
      </trkpt>
      <trkpt lat="47.47567" lon="6.76334">
        <ele>311</ele>
        <time>2015-04-26T10:27:50.000Z</time>
      </trkpt>
      <trkpt lat="47.4757" lon="6.76329">
        <ele>312</ele>
        <time>2015-04-26T10:27:51.000Z</time>
      </trkpt>
      <trkpt lat="47.47572" lon="6.76323">
        <ele>312</ele>
        <time>2015-04-26T10:27:52.000Z</time>
      </trkpt>
      <trkpt lat="47.47574" lon="6.76318">
        <ele>312</ele>
        <time>2015-04-26T10:27:53.000Z</time>
      </trkpt>
      <trkpt lat="47.47578" lon="6.76313">
        <ele>312</ele>
        <time>2015-04-26T10:27:54.000Z</time>
      </trkpt>
      <trkpt lat="47.47581" lon="6.76308">
        <ele>312</ele>
        <time>2015-04-26T10:27:55.000Z</time>
      </trkpt>
      <trkpt lat="47.47584" lon="6.76301">
        <ele>311</ele>
        <time>2015-04-26T10:27:56.000Z</time>
      </trkpt>
      <trkpt lat="47.47591" lon="6.76292">
        <ele>311</ele>
        <time>2015-04-26T10:27:57.000Z</time>
      </trkpt>
      <trkpt lat="47.47596" lon="6.76287">
        <ele>311</ele>
        <time>2015-04-26T10:27:58.000Z</time>
      </trkpt>
      <trkpt lat="47.476" lon="6.76282">
        <ele>311</ele>
        <time>2015-04-26T10:27:59.000Z</time>
      </trkpt>
      <trkpt lat="47.47603" lon="6.76278">
        <ele>311</ele>
        <time>2015-04-26T10:28:00.000Z</time>
      </trkpt>
      <trkpt lat="47.47604" lon="6.76272">
        <ele>311</ele>
        <time>2015-04-26T10:28:01.000Z</time>
      </trkpt>
      <trkpt lat="47.47607" lon="6.76266">
        <ele>311</ele>
        <time>2015-04-26T10:28:02.000Z</time>
      </trkpt>
      <trkpt lat="47.4761" lon="6.7626">
        <ele>311</ele>
        <time>2015-04-26T10:28:03.000Z</time>
      </trkpt>
      <trkpt lat="47.47614" lon="6.76253">
        <ele>311</ele>
        <time>2015-04-26T10:28:04.000Z</time>
      </trkpt>
      <trkpt lat="47.47616" lon="6.76248">
        <ele>311</ele>
        <time>2015-04-26T10:28:05.000Z</time>
      </trkpt>
      <trkpt lat="47.47617" lon="6.76242">
        <ele>311</ele>
        <time>2015-04-26T10:28:06.000Z</time>
      </trkpt>
      <trkpt lat="47.47618" lon="6.76236">
        <ele>311</ele>
        <time>2015-04-26T10:28:07.000Z</time>
      </trkpt>
      <trkpt lat="47.4762" lon="6.76231">
        <ele>311</ele>
        <time>2015-04-26T10:28:08.000Z</time>
      </trkpt>
      <trkpt lat="47.4762" lon="6.76228">
        <ele>311</ele>
        <time>2015-04-26T10:28:09.000Z</time>
      </trkpt>
      <trkpt lat="47.47623" lon="6.76223">
        <ele>311</ele>
        <time>2015-04-26T10:28:10.000Z</time>
      </trkpt>
      <trkpt lat="47.47625" lon="6.76217">
        <ele>311</ele>
        <time>2015-04-26T10:28:11.000Z</time>
      </trkpt>
      <trkpt lat="47.4763" lon="6.76209">
        <ele>311</ele>
        <time>2015-04-26T10:28:12.000Z</time>
      </trkpt>
      <trkpt lat="47.47634" lon="6.762">
        <ele>311</ele>
        <time>2015-04-26T10:28:13.000Z</time>
      </trkpt>
      <trkpt lat="47.47638" lon="6.76191">
        <ele>311</ele>
        <time>2015-04-26T10:28:14.000Z</time>
      </trkpt>
      <trkpt lat="47.47642" lon="6.76184">
        <ele>311</ele>
        <time>2015-04-26T10:28:15.000Z</time>
      </trkpt>
      <trkpt lat="47.47644" lon="6.76176">
        <ele>311</ele>
        <time>2015-04-26T10:28:16.000Z</time>
      </trkpt>
      <trkpt lat="47.47646" lon="6.7617">
        <ele>311</ele>
        <time>2015-04-26T10:28:17.000Z</time>
      </trkpt>
      <trkpt lat="47.47648" lon="6.76163">
        <ele>311</ele>
        <time>2015-04-26T10:28:18.000Z</time>
      </trkpt>
      <trkpt lat="47.4765" lon="6.76157">
        <ele>311</ele>
        <time>2015-04-26T10:28:19.000Z</time>
      </trkpt>
      <trkpt lat="47.47652" lon="6.7615">
        <ele>311</ele>
        <time>2015-04-26T10:28:20.000Z</time>
      </trkpt>
      <trkpt lat="47.47655" lon="6.76143">
        <ele>311</ele>
        <time>2015-04-26T10:28:21.000Z</time>
      </trkpt>
      <trkpt lat="47.47658" lon="6.76136">
        <ele>311</ele>
        <time>2015-04-26T10:28:22.000Z</time>
      </trkpt>
      <trkpt lat="47.47661" lon="6.7613">
        <ele>311</ele>
        <time>2015-04-26T10:28:23.000Z</time>
      </trkpt>
      <trkpt lat="47.47664" lon="6.76124">
        <ele>311</ele>
        <time>2015-04-26T10:28:24.000Z</time>
      </trkpt>
      <trkpt lat="47.47664" lon="6.76117">
        <ele>311</ele>
        <time>2015-04-26T10:28:25.000Z</time>
      </trkpt>
      <trkpt lat="47.47667" lon="6.76111">
        <ele>310</ele>
        <time>2015-04-26T10:28:26.000Z</time>
      </trkpt>
      <trkpt lat="47.47669" lon="6.76104">
        <ele>310</ele>
        <time>2015-04-26T10:28:27.000Z</time>
      </trkpt>
      <trkpt lat="47.47672" lon="6.76098">
        <ele>310</ele>
        <time>2015-04-26T10:28:28.000Z</time>
      </trkpt>
      <trkpt lat="47.47676" lon="6.76092">
        <ele>310</ele>
        <time>2015-04-26T10:28:29.000Z</time>
      </trkpt>
      <trkpt lat="47.47678" lon="6.76094">
        <ele>310</ele>
        <time>2015-04-26T10:28:32.000Z</time>
      </trkpt>
      <trkpt lat="47.47679" lon="6.76096">
        <ele>310</ele>
        <time>2015-04-26T10:28:33.000Z</time>
      </trkpt>
      <trkpt lat="47.47681" lon="6.76098">
        <ele>310</ele>
        <time>2015-04-26T10:28:34.000Z</time>
      </trkpt>
      <trkpt lat="47.47683" lon="6.76102">
        <ele>310</ele>
        <time>2015-04-26T10:28:35.000Z</time>
      </trkpt>
      <trkpt lat="47.47686" lon="6.76105">
        <ele>310</ele>
        <time>2015-04-26T10:28:36.000Z</time>
      </trkpt>
      <trkpt lat="47.47688" lon="6.76108">
        <ele>310</ele>
        <time>2015-04-26T10:28:37.000Z</time>
      </trkpt>
      <trkpt lat="47.47691" lon="6.76113">
        <ele>310</ele>
        <time>2015-04-26T10:28:38.000Z</time>
      </trkpt>
      <trkpt lat="47.47694" lon="6.76117">
        <ele>310</ele>
        <time>2015-04-26T10:28:39.000Z</time>
      </trkpt>
      <trkpt lat="47.47698" lon="6.76122">
        <ele>310</ele>
        <time>2015-04-26T10:28:40.000Z</time>
      </trkpt>
      <trkpt lat="47.47701" lon="6.76126">
        <ele>310</ele>
        <time>2015-04-26T10:28:41.000Z</time>
      </trkpt>
      <trkpt lat="47.47705" lon="6.7613">
        <ele>310</ele>
        <time>2015-04-26T10:28:42.000Z</time>
      </trkpt>
      <trkpt lat="47.47708" lon="6.76134">
        <ele>309</ele>
        <time>2015-04-26T10:28:43.000Z</time>
      </trkpt>
      <trkpt lat="47.47712" lon="6.76139">
        <ele>309</ele>
        <time>2015-04-26T10:28:44.000Z</time>
      </trkpt>
      <trkpt lat="47.47715" lon="6.76143">
        <ele>309</ele>
        <time>2015-04-26T10:28:45.000Z</time>
      </trkpt>
      <trkpt lat="47.47717" lon="6.76147">
        <ele>309</ele>
        <time>2015-04-26T10:28:46.000Z</time>
      </trkpt>
      <trkpt lat="47.4772" lon="6.76151">
        <ele>309</ele>
        <time>2015-04-26T10:28:47.000Z</time>
      </trkpt>
      <trkpt lat="47.47723" lon="6.76155">
        <ele>309</ele>
        <time>2015-04-26T10:28:48.000Z</time>
      </trkpt>
      <trkpt lat="47.47726" lon="6.76159">
        <ele>309</ele>
        <time>2015-04-26T10:28:49.000Z</time>
      </trkpt>
      <trkpt lat="47.47729" lon="6.76165">
        <ele>308</ele>
        <time>2015-04-26T10:28:50.000Z</time>
      </trkpt>
      <trkpt lat="47.47732" lon="6.7617">
        <ele>308</ele>
        <time>2015-04-26T10:28:51.000Z</time>
      </trkpt>
      <trkpt lat="47.47735" lon="6.76175">
        <ele>308</ele>
        <time>2015-04-26T10:28:52.000Z</time>
      </trkpt>
      <trkpt lat="47.47739" lon="6.76182">
        <ele>308</ele>
        <time>2015-04-26T10:28:53.000Z</time>
      </trkpt>
      <trkpt lat="47.47742" lon="6.76187">
        <ele>308</ele>
        <time>2015-04-26T10:28:54.000Z</time>
      </trkpt>
      <trkpt lat="47.47746" lon="6.76192">
        <ele>309</ele>
        <time>2015-04-26T10:28:55.000Z</time>
      </trkpt>
      <trkpt lat="47.47749" lon="6.76197">
        <ele>309</ele>
        <time>2015-04-26T10:28:56.000Z</time>
      </trkpt>
      <trkpt lat="47.47753" lon="6.76202">
        <ele>309</ele>
        <time>2015-04-26T10:28:57.000Z</time>
      </trkpt>
      <trkpt lat="47.47756" lon="6.76207">
        <ele>309</ele>
        <time>2015-04-26T10:28:58.000Z</time>
      </trkpt>
      <trkpt lat="47.47758" lon="6.76212">
        <ele>309</ele>
        <time>2015-04-26T10:28:59.000Z</time>
      </trkpt>
      <trkpt lat="47.47761" lon="6.76217">
        <ele>309</ele>
        <time>2015-04-26T10:29:00.000Z</time>
      </trkpt>
      <trkpt lat="47.47765" lon="6.76224">
        <ele>309</ele>
        <time>2015-04-26T10:29:01.000Z</time>
      </trkpt>
      <trkpt lat="47.47768" lon="6.7623">
        <ele>309</ele>
        <time>2015-04-26T10:29:02.000Z</time>
      </trkpt>
      <trkpt lat="47.47772" lon="6.76235">
        <ele>309</ele>
        <time>2015-04-26T10:29:03.000Z</time>
      </trkpt>
      <trkpt lat="47.47775" lon="6.76241">
        <ele>309</ele>
        <time>2015-04-26T10:29:04.000Z</time>
      </trkpt>
      <trkpt lat="47.4778" lon="6.76246">
        <ele>309</ele>
        <time>2015-04-26T10:29:05.000Z</time>
      </trkpt>
      <trkpt lat="47.47784" lon="6.7625">
        <ele>310</ele>
        <time>2015-04-26T10:29:06.000Z</time>
      </trkpt>
      <trkpt lat="47.47789" lon="6.76254">
        <ele>310</ele>
        <time>2015-04-26T10:29:07.000Z</time>
      </trkpt>
      <trkpt lat="47.47794" lon="6.76257">
        <ele>310</ele>
        <time>2015-04-26T10:29:08.000Z</time>
      </trkpt>
      <trkpt lat="47.47799" lon="6.7626">
        <ele>310</ele>
        <time>2015-04-26T10:29:09.000Z</time>
      </trkpt>
      <trkpt lat="47.47804" lon="6.76263">
        <ele>310</ele>
        <time>2015-04-26T10:29:10.000Z</time>
      </trkpt>
      <trkpt lat="47.47809" lon="6.76266">
        <ele>310</ele>
        <time>2015-04-26T10:29:11.000Z</time>
      </trkpt>
      <trkpt lat="47.47814" lon="6.7627">
        <ele>310</ele>
        <time>2015-04-26T10:29:12.000Z</time>
      </trkpt>
      <trkpt lat="47.47819" lon="6.76273">
        <ele>310</ele>
        <time>2015-04-26T10:29:13.000Z</time>
      </trkpt>
      <trkpt lat="47.47824" lon="6.76276">
        <ele>310</ele>
        <time>2015-04-26T10:29:14.000Z</time>
      </trkpt>
      <trkpt lat="47.47829" lon="6.7628">
        <ele>310</ele>
        <time>2015-04-26T10:29:15.000Z</time>
      </trkpt>
      <trkpt lat="47.47833" lon="6.76284">
        <ele>310</ele>
        <time>2015-04-26T10:29:16.000Z</time>
      </trkpt>
      <trkpt lat="47.47837" lon="6.76289">
        <ele>311</ele>
        <time>2015-04-26T10:29:17.000Z</time>
      </trkpt>
      <trkpt lat="47.47841" lon="6.76293">
        <ele>311</ele>
        <time>2015-04-26T10:29:18.000Z</time>
      </trkpt>
      <trkpt lat="47.47844" lon="6.76299">
        <ele>311</ele>
        <time>2015-04-26T10:29:19.000Z</time>
      </trkpt>
      <trkpt lat="47.47847" lon="6.76304">
        <ele>311</ele>
        <time>2015-04-26T10:29:20.000Z</time>
      </trkpt>
      <trkpt lat="47.47851" lon="6.76311">
        <ele>311</ele>
        <time>2015-04-26T10:29:21.000Z</time>
      </trkpt>
      <trkpt lat="47.47855" lon="6.76317">
        <ele>311</ele>
        <time>2015-04-26T10:29:22.000Z</time>
      </trkpt>
      <trkpt lat="47.47859" lon="6.76323">
        <ele>311</ele>
        <time>2015-04-26T10:29:23.000Z</time>
      </trkpt>
      <trkpt lat="47.47862" lon="6.76329">
        <ele>310</ele>
        <time>2015-04-26T10:29:24.000Z</time>
      </trkpt>
      <trkpt lat="47.47866" lon="6.76335">
        <ele>311</ele>
        <time>2015-04-26T10:29:25.000Z</time>
      </trkpt>
      <trkpt lat="47.47869" lon="6.76342">
        <ele>311</ele>
        <time>2015-04-26T10:29:26.000Z</time>
      </trkpt>
      <trkpt lat="47.47872" lon="6.76348">
        <ele>311</ele>
        <time>2015-04-26T10:29:27.000Z</time>
      </trkpt>
      <trkpt lat="47.47875" lon="6.76355">
        <ele>311</ele>
        <time>2015-04-26T10:29:28.000Z</time>
      </trkpt>
      <trkpt lat="47.47878" lon="6.76363">
        <ele>311</ele>
        <time>2015-04-26T10:29:29.000Z</time>
      </trkpt>
      <trkpt lat="47.47881" lon="6.76369">
        <ele>311</ele>
        <time>2015-04-26T10:29:30.000Z</time>
      </trkpt>
      <trkpt lat="47.47885" lon="6.76375">
        <ele>311</ele>
        <time>2015-04-26T10:29:31.000Z</time>
      </trkpt>
      <trkpt lat="47.47887" lon="6.76381">
        <ele>311</ele>
        <time>2015-04-26T10:29:32.000Z</time>
      </trkpt>
      <trkpt lat="47.47891" lon="6.76388">
        <ele>311</ele>
        <time>2015-04-26T10:29:33.000Z</time>
      </trkpt>
      <trkpt lat="47.47893" lon="6.76394">
        <ele>311</ele>
        <time>2015-04-26T10:29:34.000Z</time>
      </trkpt>
      <trkpt lat="47.47896" lon="6.764">
        <ele>311</ele>
        <time>2015-04-26T10:29:35.000Z</time>
      </trkpt>
      <trkpt lat="47.47899" lon="6.76408">
        <ele>311</ele>
        <time>2015-04-26T10:29:36.000Z</time>
      </trkpt>
      <trkpt lat="47.47902" lon="6.76415">
        <ele>311</ele>
        <time>2015-04-26T10:29:37.000Z</time>
      </trkpt>
      <trkpt lat="47.47905" lon="6.76422">
        <ele>311</ele>
        <time>2015-04-26T10:29:38.000Z</time>
      </trkpt>
      <trkpt lat="47.47907" lon="6.76428">
        <ele>311</ele>
        <time>2015-04-26T10:29:39.000Z</time>
      </trkpt>
      <trkpt lat="47.4791" lon="6.76435">
        <ele>311</ele>
        <time>2015-04-26T10:29:40.000Z</time>
      </trkpt>
      <trkpt lat="47.47912" lon="6.76441">
        <ele>311</ele>
        <time>2015-04-26T10:29:41.000Z</time>
      </trkpt>
      <trkpt lat="47.47914" lon="6.76448">
        <ele>311</ele>
        <time>2015-04-26T10:29:42.000Z</time>
      </trkpt>
      <trkpt lat="47.47916" lon="6.76455">
        <ele>311</ele>
        <time>2015-04-26T10:29:43.000Z</time>
      </trkpt>
      <trkpt lat="47.47917" lon="6.76463">
        <ele>311</ele>
        <time>2015-04-26T10:29:44.000Z</time>
      </trkpt>
      <trkpt lat="47.47919" lon="6.7647">
        <ele>311</ele>
        <time>2015-04-26T10:29:45.000Z</time>
      </trkpt>
      <trkpt lat="47.47922" lon="6.76477">
        <ele>311</ele>
        <time>2015-04-26T10:29:46.000Z</time>
      </trkpt>
      <trkpt lat="47.47924" lon="6.76483">
        <ele>311</ele>
        <time>2015-04-26T10:29:47.000Z</time>
      </trkpt>
      <trkpt lat="47.47927" lon="6.76491">
        <ele>310</ele>
        <time>2015-04-26T10:29:48.000Z</time>
      </trkpt>
      <trkpt lat="47.47929" lon="6.76498">
        <ele>310</ele>
        <time>2015-04-26T10:29:49.000Z</time>
      </trkpt>
      <trkpt lat="47.47931" lon="6.76504">
        <ele>310</ele>
        <time>2015-04-26T10:29:50.000Z</time>
      </trkpt>
      <trkpt lat="47.47932" lon="6.76511">
        <ele>311</ele>
        <time>2015-04-26T10:29:51.000Z</time>
      </trkpt>
      <trkpt lat="47.47933" lon="6.76519">
        <ele>311</ele>
        <time>2015-04-26T10:29:52.000Z</time>
      </trkpt>
      <trkpt lat="47.47935" lon="6.76526">
        <ele>311</ele>
        <time>2015-04-26T10:29:53.000Z</time>
      </trkpt>
      <trkpt lat="47.47937" lon="6.76534">
        <ele>311</ele>
        <time>2015-04-26T10:29:54.000Z</time>
      </trkpt>
      <trkpt lat="47.47939" lon="6.76542">
        <ele>311</ele>
        <time>2015-04-26T10:29:55.000Z</time>
      </trkpt>
      <trkpt lat="47.47941" lon="6.76551">
        <ele>311</ele>
        <time>2015-04-26T10:29:56.000Z</time>
      </trkpt>
      <trkpt lat="47.47942" lon="6.76559">
        <ele>311</ele>
        <time>2015-04-26T10:29:57.000Z</time>
      </trkpt>
      <trkpt lat="47.47944" lon="6.76565">
        <ele>311</ele>
        <time>2015-04-26T10:29:58.000Z</time>
      </trkpt>
      <trkpt lat="47.47945" lon="6.76572">
        <ele>311</ele>
        <time>2015-04-26T10:29:59.000Z</time>
      </trkpt>
      <trkpt lat="47.47945" lon="6.76579">
        <ele>311</ele>
        <time>2015-04-26T10:30:00.000Z</time>
      </trkpt>
      <trkpt lat="47.47947" lon="6.76585">
        <ele>311</ele>
        <time>2015-04-26T10:30:01.000Z</time>
      </trkpt>
      <trkpt lat="47.47947" lon="6.76592">
        <ele>311</ele>
        <time>2015-04-26T10:30:02.000Z</time>
      </trkpt>
      <trkpt lat="47.47948" lon="6.76598">
        <ele>311</ele>
        <time>2015-04-26T10:30:03.000Z</time>
      </trkpt>
      <trkpt lat="47.47948" lon="6.76603">
        <ele>311</ele>
        <time>2015-04-26T10:30:04.000Z</time>
      </trkpt>
      <trkpt lat="47.47949" lon="6.76608">
        <ele>311</ele>
        <time>2015-04-26T10:30:05.000Z</time>
      </trkpt>
      <trkpt lat="47.4795" lon="6.76612">
        <ele>311</ele>
        <time>2015-04-26T10:30:06.000Z</time>
      </trkpt>
      <trkpt lat="47.47951" lon="6.76615">
        <ele>311</ele>
        <time>2015-04-26T10:30:07.000Z</time>
      </trkpt>
      <trkpt lat="47.47954" lon="6.7662">
        <ele>311</ele>
        <time>2015-04-26T10:30:08.000Z</time>
      </trkpt>
      <trkpt lat="47.47956" lon="6.76622">
        <ele>311</ele>
        <time>2015-04-26T10:30:09.000Z</time>
      </trkpt>
      <trkpt lat="47.47959" lon="6.76624">
        <ele>311</ele>
        <time>2015-04-26T10:30:10.000Z</time>
      </trkpt>
      <trkpt lat="47.47962" lon="6.76622">
        <ele>311</ele>
        <time>2015-04-26T10:30:11.000Z</time>
      </trkpt>
      <trkpt lat="47.47965" lon="6.76622">
        <ele>311</ele>
        <time>2015-04-26T10:30:12.000Z</time>
      </trkpt>
      <trkpt lat="47.47968" lon="6.76621">
        <ele>311</ele>
        <time>2015-04-26T10:30:13.000Z</time>
      </trkpt>
      <trkpt lat="47.47971" lon="6.76619">
        <ele>311</ele>
        <time>2015-04-26T10:30:14.000Z</time>
      </trkpt>
      <trkpt lat="47.47975" lon="6.76618">
        <ele>311</ele>
        <time>2015-04-26T10:30:15.000Z</time>
      </trkpt>
      <trkpt lat="47.47978" lon="6.76617">
        <ele>311</ele>
        <time>2015-04-26T10:30:16.000Z</time>
      </trkpt>
      <trkpt lat="47.47984" lon="6.76613">
        <ele>311</ele>
        <time>2015-04-26T10:30:17.000Z</time>
      </trkpt>
      <trkpt lat="47.47989" lon="6.76609">
        <ele>312</ele>
        <time>2015-04-26T10:30:18.000Z</time>
      </trkpt>
      <trkpt lat="47.47993" lon="6.76606">
        <ele>312</ele>
        <time>2015-04-26T10:30:19.000Z</time>
      </trkpt>
      <trkpt lat="47.47997" lon="6.76604">
        <ele>312</ele>
        <time>2015-04-26T10:30:20.000Z</time>
      </trkpt>
      <trkpt lat="47.48001" lon="6.76602">
        <ele>312</ele>
        <time>2015-04-26T10:30:21.000Z</time>
      </trkpt>
      <trkpt lat="47.48006" lon="6.76598">
        <ele>312</ele>
        <time>2015-04-26T10:30:22.000Z</time>
      </trkpt>
      <trkpt lat="47.4801" lon="6.76596">
        <ele>312</ele>
        <time>2015-04-26T10:30:23.000Z</time>
      </trkpt>
      <trkpt lat="47.48014" lon="6.76594">
        <ele>312</ele>
        <time>2015-04-26T10:30:24.000Z</time>
      </trkpt>
      <trkpt lat="47.48018" lon="6.76591">
        <ele>312</ele>
        <time>2015-04-26T10:30:25.000Z</time>
      </trkpt>
      <trkpt lat="47.48023" lon="6.76588">
        <ele>312</ele>
        <time>2015-04-26T10:30:26.000Z</time>
      </trkpt>
      <trkpt lat="47.48028" lon="6.76583">
        <ele>312</ele>
        <time>2015-04-26T10:30:27.000Z</time>
      </trkpt>
      <trkpt lat="47.48032" lon="6.76579">
        <ele>312</ele>
        <time>2015-04-26T10:30:28.000Z</time>
      </trkpt>
      <trkpt lat="47.48037" lon="6.76575">
        <ele>312</ele>
        <time>2015-04-26T10:30:29.000Z</time>
      </trkpt>
      <trkpt lat="47.48043" lon="6.76571">
        <ele>312</ele>
        <time>2015-04-26T10:30:30.000Z</time>
      </trkpt>
      <trkpt lat="47.48047" lon="6.76566">
        <ele>312</ele>
        <time>2015-04-26T10:30:31.000Z</time>
      </trkpt>
      <trkpt lat="47.48051" lon="6.76561">
        <ele>312</ele>
        <time>2015-04-26T10:30:32.000Z</time>
      </trkpt>
      <trkpt lat="47.48056" lon="6.76558">
        <ele>312</ele>
        <time>2015-04-26T10:30:33.000Z</time>
      </trkpt>
      <trkpt lat="47.48061" lon="6.76553">
        <ele>312</ele>
        <time>2015-04-26T10:30:34.000Z</time>
      </trkpt>
      <trkpt lat="47.48065" lon="6.76548">
        <ele>312</ele>
        <time>2015-04-26T10:30:35.000Z</time>
      </trkpt>
      <trkpt lat="47.48069" lon="6.76544">
        <ele>312</ele>
        <time>2015-04-26T10:30:36.000Z</time>
      </trkpt>
      <trkpt lat="47.48074" lon="6.76541">
        <ele>312</ele>
        <time>2015-04-26T10:30:37.000Z</time>
      </trkpt>
      <trkpt lat="47.48078" lon="6.76537">
        <ele>312</ele>
        <time>2015-04-26T10:30:38.000Z</time>
      </trkpt>
      <trkpt lat="47.48084" lon="6.76532">
        <ele>317</ele>
        <time>2015-04-26T10:30:39.000Z</time>
      </trkpt>
      <trkpt lat="47.48088" lon="6.76528">
        <ele>317</ele>
        <time>2015-04-26T10:30:40.000Z</time>
      </trkpt>
      <trkpt lat="47.48092" lon="6.76525">
        <ele>317</ele>
        <time>2015-04-26T10:30:41.000Z</time>
      </trkpt>
      <trkpt lat="47.48097" lon="6.76521">
        <ele>318</ele>
        <time>2015-04-26T10:30:42.000Z</time>
      </trkpt>
      <trkpt lat="47.48101" lon="6.76518">
        <ele>318</ele>
        <time>2015-04-26T10:30:43.000Z</time>
      </trkpt>
      <trkpt lat="47.48103" lon="6.7652">
        <ele>318</ele>
        <time>2015-04-26T10:30:44.000Z</time>
      </trkpt>
      <trkpt lat="47.48104" lon="6.76523">
        <ele>318</ele>
        <time>2015-04-26T10:30:45.000Z</time>
      </trkpt>
      <trkpt lat="47.48106" lon="6.76527">
        <ele>319</ele>
        <time>2015-04-26T10:30:46.000Z</time>
      </trkpt>
      <trkpt lat="47.48108" lon="6.7653">
        <ele>319</ele>
        <time>2015-04-26T10:30:47.000Z</time>
      </trkpt>
      <trkpt lat="47.48111" lon="6.7653">
        <ele>319</ele>
        <time>2015-04-26T10:30:48.000Z</time>
      </trkpt>
      <trkpt lat="47.48114" lon="6.76534">
        <ele>319</ele>
        <time>2015-04-26T10:30:49.000Z</time>
      </trkpt>
      <trkpt lat="47.48116" lon="6.76539">
        <ele>319</ele>
        <time>2015-04-26T10:30:50.000Z</time>
      </trkpt>
      <trkpt lat="47.48117" lon="6.76545">
        <ele>319</ele>
        <time>2015-04-26T10:30:51.000Z</time>
      </trkpt>
      <trkpt lat="47.48118" lon="6.7655">
        <ele>319</ele>
        <time>2015-04-26T10:30:52.000Z</time>
      </trkpt>
      <trkpt lat="47.48113" lon="6.76556">
        <ele>318</ele>
        <time>2015-04-26T10:30:53.000Z</time>
      </trkpt>
      <trkpt lat="47.48111" lon="6.76561">
        <ele>318</ele>
        <time>2015-04-26T10:30:54.000Z</time>
      </trkpt>
      <trkpt lat="47.48108" lon="6.76566">
        <ele>317</ele>
        <time>2015-04-26T10:30:55.000Z</time>
      </trkpt>
      <trkpt lat="47.48106" lon="6.7657">
        <ele>317</ele>
        <time>2015-04-26T10:30:56.000Z</time>
      </trkpt>
      <trkpt lat="47.48103" lon="6.76577">
        <ele>316</ele>
        <time>2015-04-26T10:30:57.000Z</time>
      </trkpt>
      <trkpt lat="47.481" lon="6.76582">
        <ele>315</ele>
        <time>2015-04-26T10:30:58.000Z</time>
      </trkpt>
      <trkpt lat="47.48098" lon="6.76588">
        <ele>313</ele>
        <time>2015-04-26T10:30:59.000Z</time>
      </trkpt>
      <trkpt lat="47.48096" lon="6.76594">
        <ele>313</ele>
        <time>2015-04-26T10:31:00.000Z</time>
      </trkpt>
      <trkpt lat="47.48095" lon="6.76601">
        <ele>313</ele>
        <time>2015-04-26T10:31:01.000Z</time>
      </trkpt>
      <trkpt lat="47.48096" lon="6.7661">
        <ele>313</ele>
        <time>2015-04-26T10:31:02.000Z</time>
      </trkpt>
      <trkpt lat="47.48097" lon="6.76616">
        <ele>313</ele>
        <time>2015-04-26T10:31:03.000Z</time>
      </trkpt>
      <trkpt lat="47.48099" lon="6.76621">
        <ele>313</ele>
        <time>2015-04-26T10:31:04.000Z</time>
      </trkpt>
      <trkpt lat="47.481" lon="6.76628">
        <ele>313</ele>
        <time>2015-04-26T10:31:05.000Z</time>
      </trkpt>
      <trkpt lat="47.48103" lon="6.76633">
        <ele>313</ele>
        <time>2015-04-26T10:31:06.000Z</time>
      </trkpt>
      <trkpt lat="47.48105" lon="6.7664">
        <ele>313</ele>
        <time>2015-04-26T10:31:07.000Z</time>
      </trkpt>
      <trkpt lat="47.48108" lon="6.76646">
        <ele>313</ele>
        <time>2015-04-26T10:31:08.000Z</time>
      </trkpt>
      <trkpt lat="47.48111" lon="6.76652">
        <ele>312</ele>
        <time>2015-04-26T10:31:09.000Z</time>
      </trkpt>
      <trkpt lat="47.48114" lon="6.76658">
        <ele>312</ele>
        <time>2015-04-26T10:31:10.000Z</time>
      </trkpt>
      <trkpt lat="47.48118" lon="6.76667">
        <ele>312</ele>
        <time>2015-04-26T10:31:11.000Z</time>
      </trkpt>
      <trkpt lat="47.48122" lon="6.76675">
        <ele>312</ele>
        <time>2015-04-26T10:31:12.000Z</time>
      </trkpt>
      <trkpt lat="47.48127" lon="6.76683">
        <ele>312</ele>
        <time>2015-04-26T10:31:13.000Z</time>
      </trkpt>
      <trkpt lat="47.48131" lon="6.76691">
        <ele>312</ele>
        <time>2015-04-26T10:31:14.000Z</time>
      </trkpt>
      <trkpt lat="47.48135" lon="6.76699">
        <ele>312</ele>
        <time>2015-04-26T10:31:15.000Z</time>
      </trkpt>
      <trkpt lat="47.48138" lon="6.76706">
        <ele>312</ele>
        <time>2015-04-26T10:31:16.000Z</time>
      </trkpt>
      <trkpt lat="47.48142" lon="6.76714">
        <ele>312</ele>
        <time>2015-04-26T10:31:17.000Z</time>
      </trkpt>
      <trkpt lat="47.48146" lon="6.76722">
        <ele>312</ele>
        <time>2015-04-26T10:31:18.000Z</time>
      </trkpt>
      <trkpt lat="47.4815" lon="6.76729">
        <ele>312</ele>
        <time>2015-04-26T10:31:19.000Z</time>
      </trkpt>
      <trkpt lat="47.48153" lon="6.76736">
        <ele>312</ele>
        <time>2015-04-26T10:31:20.000Z</time>
      </trkpt>
      <trkpt lat="47.48157" lon="6.76744">
        <ele>313</ele>
        <time>2015-04-26T10:31:21.000Z</time>
      </trkpt>
      <trkpt lat="47.48161" lon="6.76751">
        <ele>313</ele>
        <time>2015-04-26T10:31:22.000Z</time>
      </trkpt>
      <trkpt lat="47.48165" lon="6.76756">
        <ele>313</ele>
        <time>2015-04-26T10:31:23.000Z</time>
      </trkpt>
      <trkpt lat="47.48171" lon="6.76761">
        <ele>313</ele>
        <time>2015-04-26T10:31:24.000Z</time>
      </trkpt>
      <trkpt lat="47.48176" lon="6.76766">
        <ele>312</ele>
        <time>2015-04-26T10:31:25.000Z</time>
      </trkpt>
      <trkpt lat="47.48179" lon="6.76772">
        <ele>312</ele>
        <time>2015-04-26T10:31:26.000Z</time>
      </trkpt>
      <trkpt lat="47.48184" lon="6.76777">
        <ele>312</ele>
        <time>2015-04-26T10:31:27.000Z</time>
      </trkpt>
      <trkpt lat="47.48189" lon="6.76782">
        <ele>312</ele>
        <time>2015-04-26T10:31:28.000Z</time>
      </trkpt>
      <trkpt lat="47.48195" lon="6.76785">
        <ele>312</ele>
        <time>2015-04-26T10:31:29.000Z</time>
      </trkpt>
      <trkpt lat="47.48201" lon="6.76787">
        <ele>312</ele>
        <time>2015-04-26T10:31:30.000Z</time>
      </trkpt>
      <trkpt lat="47.48207" lon="6.76789">
        <ele>312</ele>
        <time>2015-04-26T10:31:31.000Z</time>
      </trkpt>
      <trkpt lat="47.48213" lon="6.76792">
        <ele>312</ele>
        <time>2015-04-26T10:31:32.000Z</time>
      </trkpt>
      <trkpt lat="47.48219" lon="6.76795">
        <ele>312</ele>
        <time>2015-04-26T10:31:33.000Z</time>
      </trkpt>
      <trkpt lat="47.48225" lon="6.76798">
        <ele>312</ele>
        <time>2015-04-26T10:31:34.000Z</time>
      </trkpt>
      <trkpt lat="47.48231" lon="6.76801">
        <ele>312</ele>
        <time>2015-04-26T10:31:35.000Z</time>
      </trkpt>
      <trkpt lat="47.48237" lon="6.76805">
        <ele>312</ele>
        <time>2015-04-26T10:31:36.000Z</time>
      </trkpt>
      <trkpt lat="47.48242" lon="6.76811">
        <ele>312</ele>
        <time>2015-04-26T10:31:37.000Z</time>
      </trkpt>
      <trkpt lat="47.48245" lon="6.76818">
        <ele>311</ele>
        <time>2015-04-26T10:31:38.000Z</time>
      </trkpt>
      <trkpt lat="47.4825" lon="6.76824">
        <ele>312</ele>
        <time>2015-04-26T10:31:39.000Z</time>
      </trkpt>
      <trkpt lat="47.48255" lon="6.76829">
        <ele>312</ele>
        <time>2015-04-26T10:31:40.000Z</time>
      </trkpt>
      <trkpt lat="47.4826" lon="6.76837">
        <ele>311</ele>
        <time>2015-04-26T10:31:41.000Z</time>
      </trkpt>
      <trkpt lat="47.48265" lon="6.76844">
        <ele>311</ele>
        <time>2015-04-26T10:31:42.000Z</time>
      </trkpt>
      <trkpt lat="47.4827" lon="6.7685">
        <ele>311</ele>
        <time>2015-04-26T10:31:43.000Z</time>
      </trkpt>
      <trkpt lat="47.48274" lon="6.76857">
        <ele>310</ele>
        <time>2015-04-26T10:31:44.000Z</time>
      </trkpt>
      <trkpt lat="47.48279" lon="6.76863">
        <ele>310</ele>
        <time>2015-04-26T10:31:45.000Z</time>
      </trkpt>
      <trkpt lat="47.48285" lon="6.76869">
        <ele>310</ele>
        <time>2015-04-26T10:31:46.000Z</time>
      </trkpt>
      <trkpt lat="47.4829" lon="6.76875">
        <ele>310</ele>
        <time>2015-04-26T10:31:47.000Z</time>
      </trkpt>
      <trkpt lat="47.48296" lon="6.76881">
        <ele>310</ele>
        <time>2015-04-26T10:31:48.000Z</time>
      </trkpt>
      <trkpt lat="47.48302" lon="6.76886">
        <ele>310</ele>
        <time>2015-04-26T10:31:49.000Z</time>
      </trkpt>
      <trkpt lat="47.48308" lon="6.76891">
        <ele>310</ele>
        <time>2015-04-26T10:31:50.000Z</time>
      </trkpt>
      <trkpt lat="47.48314" lon="6.76896">
        <ele>310</ele>
        <time>2015-04-26T10:31:51.000Z</time>
      </trkpt>
      <trkpt lat="47.4832" lon="6.76901">
        <ele>310</ele>
        <time>2015-04-26T10:31:52.000Z</time>
      </trkpt>
      <trkpt lat="47.48325" lon="6.76908">
        <ele>309</ele>
        <time>2015-04-26T10:31:53.000Z</time>
      </trkpt>
      <trkpt lat="47.48332" lon="6.76914">
        <ele>309</ele>
        <time>2015-04-26T10:31:54.000Z</time>
      </trkpt>
      <trkpt lat="47.48338" lon="6.76919">
        <ele>310</ele>
        <time>2015-04-26T10:31:55.000Z</time>
      </trkpt>
      <trkpt lat="47.48344" lon="6.76923">
        <ele>310</ele>
        <time>2015-04-26T10:31:56.000Z</time>
      </trkpt>
      <trkpt lat="47.4835" lon="6.76927">
        <ele>311</ele>
        <time>2015-04-26T10:31:57.000Z</time>
      </trkpt>
      <trkpt lat="47.48357" lon="6.76931">
        <ele>311</ele>
        <time>2015-04-26T10:31:58.000Z</time>
      </trkpt>
      <trkpt lat="47.48363" lon="6.76935">
        <ele>311</ele>
        <time>2015-04-26T10:31:59.000Z</time>
      </trkpt>
      <trkpt lat="47.48369" lon="6.7694">
        <ele>312</ele>
        <time>2015-04-26T10:32:00.000Z</time>
      </trkpt>
      <trkpt lat="47.48376" lon="6.76944">
        <ele>312</ele>
        <time>2015-04-26T10:32:01.000Z</time>
      </trkpt>
      <trkpt lat="47.48382" lon="6.76948">
        <ele>312</ele>
        <time>2015-04-26T10:32:02.000Z</time>
      </trkpt>
      <trkpt lat="47.48388" lon="6.76953">
        <ele>312</ele>
        <time>2015-04-26T10:32:03.000Z</time>
      </trkpt>
      <trkpt lat="47.48394" lon="6.76956">
        <ele>312</ele>
        <time>2015-04-26T10:32:04.000Z</time>
      </trkpt>
      <trkpt lat="47.48401" lon="6.76959">
        <ele>312</ele>
        <time>2015-04-26T10:32:05.000Z</time>
      </trkpt>
      <trkpt lat="47.48407" lon="6.76963">
        <ele>312</ele>
        <time>2015-04-26T10:32:06.000Z</time>
      </trkpt>
      <trkpt lat="47.48413" lon="6.76966">
        <ele>312</ele>
        <time>2015-04-26T10:32:07.000Z</time>
      </trkpt>
      <trkpt lat="47.4842" lon="6.76968">
        <ele>314</ele>
        <time>2015-04-26T10:32:08.000Z</time>
      </trkpt>
      <trkpt lat="47.48426" lon="6.76971">
        <ele>314</ele>
        <time>2015-04-26T10:32:09.000Z</time>
      </trkpt>
      <trkpt lat="47.48432" lon="6.76973">
        <ele>314</ele>
        <time>2015-04-26T10:32:10.000Z</time>
      </trkpt>
      <trkpt lat="47.48437" lon="6.76976">
        <ele>314</ele>
        <time>2015-04-26T10:32:11.000Z</time>
      </trkpt>
      <trkpt lat="47.48444" lon="6.7698">
        <ele>314</ele>
        <time>2015-04-26T10:32:12.000Z</time>
      </trkpt>
      <trkpt lat="47.4845" lon="6.76984">
        <ele>315</ele>
        <time>2015-04-26T10:32:13.000Z</time>
      </trkpt>
      <trkpt lat="47.48455" lon="6.76989">
        <ele>315</ele>
        <time>2015-04-26T10:32:14.000Z</time>
      </trkpt>
      <trkpt lat="47.48461" lon="6.76992">
        <ele>315</ele>
        <time>2015-04-26T10:32:15.000Z</time>
      </trkpt>
      <trkpt lat="47.48467" lon="6.76996">
        <ele>315</ele>
        <time>2015-04-26T10:32:16.000Z</time>
      </trkpt>
      <trkpt lat="47.48473" lon="6.77001">
        <ele>314</ele>
        <time>2015-04-26T10:32:17.000Z</time>
      </trkpt>
      <trkpt lat="47.48479" lon="6.77005">
        <ele>314</ele>
        <time>2015-04-26T10:32:18.000Z</time>
      </trkpt>
      <trkpt lat="47.48484" lon="6.77009">
        <ele>315</ele>
        <time>2015-04-26T10:32:19.000Z</time>
      </trkpt>
      <trkpt lat="47.48489" lon="6.77013">
        <ele>315</ele>
        <time>2015-04-26T10:32:20.000Z</time>
      </trkpt>
      <trkpt lat="47.48495" lon="6.77016">
        <ele>315</ele>
        <time>2015-04-26T10:32:21.000Z</time>
      </trkpt>
      <trkpt lat="47.485" lon="6.77021">
        <ele>314</ele>
        <time>2015-04-26T10:32:22.000Z</time>
      </trkpt>
      <trkpt lat="47.48505" lon="6.77025">
        <ele>315</ele>
        <time>2015-04-26T10:32:23.000Z</time>
      </trkpt>
      <trkpt lat="47.4851" lon="6.77029">
        <ele>314</ele>
        <time>2015-04-26T10:32:24.000Z</time>
      </trkpt>
      <trkpt lat="47.48516" lon="6.77033">
        <ele>314</ele>
        <time>2015-04-26T10:32:25.000Z</time>
      </trkpt>
      <trkpt lat="47.48521" lon="6.77037">
        <ele>314</ele>
        <time>2015-04-26T10:32:26.000Z</time>
      </trkpt>
      <trkpt lat="47.48526" lon="6.77042">
        <ele>314</ele>
        <time>2015-04-26T10:32:27.000Z</time>
      </trkpt>
      <trkpt lat="47.48531" lon="6.77045">
        <ele>314</ele>
        <time>2015-04-26T10:32:28.000Z</time>
      </trkpt>
      <trkpt lat="47.48537" lon="6.77049">
        <ele>314</ele>
        <time>2015-04-26T10:32:29.000Z</time>
      </trkpt>
      <trkpt lat="47.48543" lon="6.77052">
        <ele>314</ele>
        <time>2015-04-26T10:32:30.000Z</time>
      </trkpt>
      <trkpt lat="47.48549" lon="6.77052">
        <ele>314</ele>
        <time>2015-04-26T10:32:31.000Z</time>
      </trkpt>
      <trkpt lat="47.48554" lon="6.77053">
        <ele>314</ele>
        <time>2015-04-26T10:32:32.000Z</time>
      </trkpt>
      <trkpt lat="47.48559" lon="6.77054">
        <ele>314</ele>
        <time>2015-04-26T10:32:33.000Z</time>
      </trkpt>
      <trkpt lat="47.48563" lon="6.77055">
        <ele>314</ele>
        <time>2015-04-26T10:32:34.000Z</time>
      </trkpt>
      <trkpt lat="47.48568" lon="6.77057">
        <ele>314</ele>
        <time>2015-04-26T10:32:35.000Z</time>
      </trkpt>
      <trkpt lat="47.48572" lon="6.77059">
        <ele>314</ele>
        <time>2015-04-26T10:32:36.000Z</time>
      </trkpt>
      <trkpt lat="47.48577" lon="6.77062">
        <ele>314</ele>
        <time>2015-04-26T10:32:37.000Z</time>
      </trkpt>
      <trkpt lat="47.48582" lon="6.77065">
        <ele>314</ele>
        <time>2015-04-26T10:32:38.000Z</time>
      </trkpt>
      <trkpt lat="47.48587" lon="6.77067">
        <ele>313</ele>
        <time>2015-04-26T10:32:39.000Z</time>
      </trkpt>
      <trkpt lat="47.48592" lon="6.77069">
        <ele>313</ele>
        <time>2015-04-26T10:32:40.000Z</time>
      </trkpt>
      <trkpt lat="47.48597" lon="6.77073">
        <ele>313</ele>
        <time>2015-04-26T10:32:41.000Z</time>
      </trkpt>
      <trkpt lat="47.48602" lon="6.77076">
        <ele>313</ele>
        <time>2015-04-26T10:32:42.000Z</time>
      </trkpt>
      <trkpt lat="47.48607" lon="6.77081">
        <ele>313</ele>
        <time>2015-04-26T10:32:43.000Z</time>
      </trkpt>
      <trkpt lat="47.48612" lon="6.77084">
        <ele>312</ele>
        <time>2015-04-26T10:32:44.000Z</time>
      </trkpt>
      <trkpt lat="47.48617" lon="6.77087">
        <ele>312</ele>
        <time>2015-04-26T10:32:45.000Z</time>
      </trkpt>
      <trkpt lat="47.48621" lon="6.7709">
        <ele>312</ele>
        <time>2015-04-26T10:32:46.000Z</time>
      </trkpt>
      <trkpt lat="47.48626" lon="6.77094">
        <ele>312</ele>
        <time>2015-04-26T10:32:47.000Z</time>
      </trkpt>
      <trkpt lat="47.4863" lon="6.77099">
        <ele>312</ele>
        <time>2015-04-26T10:32:48.000Z</time>
      </trkpt>
      <trkpt lat="47.48635" lon="6.77103">
        <ele>312</ele>
        <time>2015-04-26T10:32:49.000Z</time>
      </trkpt>
      <trkpt lat="47.4864" lon="6.7711">
        <ele>312</ele>
        <time>2015-04-26T10:32:50.000Z</time>
      </trkpt>
      <trkpt lat="47.48645" lon="6.77116">
        <ele>312</ele>
        <time>2015-04-26T10:32:51.000Z</time>
      </trkpt>
      <trkpt lat="47.4865" lon="6.77122">
        <ele>312</ele>
        <time>2015-04-26T10:32:52.000Z</time>
      </trkpt>
      <trkpt lat="47.48655" lon="6.77128">
        <ele>312</ele>
        <time>2015-04-26T10:32:53.000Z</time>
      </trkpt>
      <trkpt lat="47.4866" lon="6.77134">
        <ele>312</ele>
        <time>2015-04-26T10:32:54.000Z</time>
      </trkpt>
      <trkpt lat="47.48665" lon="6.7714">
        <ele>312</ele>
        <time>2015-04-26T10:32:55.000Z</time>
      </trkpt>
      <trkpt lat="47.4867" lon="6.77146">
        <ele>311</ele>
        <time>2015-04-26T10:32:56.000Z</time>
      </trkpt>
      <trkpt lat="47.48675" lon="6.77151">
        <ele>311</ele>
        <time>2015-04-26T10:32:57.000Z</time>
      </trkpt>
      <trkpt lat="47.4868" lon="6.77156">
        <ele>311</ele>
        <time>2015-04-26T10:32:58.000Z</time>
      </trkpt>
      <trkpt lat="47.48684" lon="6.77161">
        <ele>311</ele>
        <time>2015-04-26T10:32:59.000Z</time>
      </trkpt>
      <trkpt lat="47.4869" lon="6.77167">
        <ele>311</ele>
        <time>2015-04-26T10:33:00.000Z</time>
      </trkpt>
      <trkpt lat="47.48694" lon="6.77171">
        <ele>311</ele>
        <time>2015-04-26T10:33:01.000Z</time>
      </trkpt>
      <trkpt lat="47.487" lon="6.77177">
        <ele>311</ele>
        <time>2015-04-26T10:33:02.000Z</time>
      </trkpt>
      <trkpt lat="47.48705" lon="6.77181">
        <ele>310</ele>
        <time>2015-04-26T10:33:03.000Z</time>
      </trkpt>
      <trkpt lat="47.48711" lon="6.77184">
        <ele>310</ele>
        <time>2015-04-26T10:33:04.000Z</time>
      </trkpt>
      <trkpt lat="47.48716" lon="6.77188">
        <ele>310</ele>
        <time>2015-04-26T10:33:05.000Z</time>
      </trkpt>
      <trkpt lat="47.48722" lon="6.77192">
        <ele>310</ele>
        <time>2015-04-26T10:33:06.000Z</time>
      </trkpt>
      <trkpt lat="47.48727" lon="6.77197">
        <ele>310</ele>
        <time>2015-04-26T10:33:07.000Z</time>
      </trkpt>
      <trkpt lat="47.48733" lon="6.77202">
        <ele>310</ele>
        <time>2015-04-26T10:33:08.000Z</time>
      </trkpt>
      <trkpt lat="47.48737" lon="6.77206">
        <ele>310</ele>
        <time>2015-04-26T10:33:09.000Z</time>
      </trkpt>
      <trkpt lat="47.48743" lon="6.7721">
        <ele>310</ele>
        <time>2015-04-26T10:33:10.000Z</time>
      </trkpt>
      <trkpt lat="47.48749" lon="6.77213">
        <ele>310</ele>
        <time>2015-04-26T10:33:11.000Z</time>
      </trkpt>
      <trkpt lat="47.48754" lon="6.77215">
        <ele>310</ele>
        <time>2015-04-26T10:33:12.000Z</time>
      </trkpt>
      <trkpt lat="47.4876" lon="6.77218">
        <ele>310</ele>
        <time>2015-04-26T10:33:13.000Z</time>
      </trkpt>
      <trkpt lat="47.48765" lon="6.77223">
        <ele>310</ele>
        <time>2015-04-26T10:33:14.000Z</time>
      </trkpt>
      <trkpt lat="47.4877" lon="6.77226">
        <ele>310</ele>
        <time>2015-04-26T10:33:15.000Z</time>
      </trkpt>
      <trkpt lat="47.48775" lon="6.7723">
        <ele>310</ele>
        <time>2015-04-26T10:33:16.000Z</time>
      </trkpt>
      <trkpt lat="47.4878" lon="6.77234">
        <ele>310</ele>
        <time>2015-04-26T10:33:17.000Z</time>
      </trkpt>
      <trkpt lat="47.48785" lon="6.77238">
        <ele>310</ele>
        <time>2015-04-26T10:33:18.000Z</time>
      </trkpt>
      <trkpt lat="47.48789" lon="6.77242">
        <ele>310</ele>
        <time>2015-04-26T10:33:19.000Z</time>
      </trkpt>
      <trkpt lat="47.48794" lon="6.77246">
        <ele>310</ele>
        <time>2015-04-26T10:33:20.000Z</time>
      </trkpt>
      <trkpt lat="47.48799" lon="6.7725">
        <ele>310</ele>
        <time>2015-04-26T10:33:21.000Z</time>
      </trkpt>
      <trkpt lat="47.48804" lon="6.77253">
        <ele>310</ele>
        <time>2015-04-26T10:33:22.000Z</time>
      </trkpt>
      <trkpt lat="47.48809" lon="6.77257">
        <ele>310</ele>
        <time>2015-04-26T10:33:23.000Z</time>
      </trkpt>
      <trkpt lat="47.48814" lon="6.77261">
        <ele>310</ele>
        <time>2015-04-26T10:33:24.000Z</time>
      </trkpt>
      <trkpt lat="47.48819" lon="6.77265">
        <ele>310</ele>
        <time>2015-04-26T10:33:25.000Z</time>
      </trkpt>
      <trkpt lat="47.48824" lon="6.77269">
        <ele>310</ele>
        <time>2015-04-26T10:33:26.000Z</time>
      </trkpt>
      <trkpt lat="47.4883" lon="6.77272">
        <ele>310</ele>
        <time>2015-04-26T10:33:27.000Z</time>
      </trkpt>
      <trkpt lat="47.48835" lon="6.77276">
        <ele>310</ele>
        <time>2015-04-26T10:33:28.000Z</time>
      </trkpt>
      <trkpt lat="47.4884" lon="6.77279">
        <ele>310</ele>
        <time>2015-04-26T10:33:29.000Z</time>
      </trkpt>
      <trkpt lat="47.48844" lon="6.77282">
        <ele>310</ele>
        <time>2015-04-26T10:33:30.000Z</time>
      </trkpt>
      <trkpt lat="47.4885" lon="6.77285">
        <ele>310</ele>
        <time>2015-04-26T10:33:31.000Z</time>
      </trkpt>
      <trkpt lat="47.48856" lon="6.77288">
        <ele>310</ele>
        <time>2015-04-26T10:33:32.000Z</time>
      </trkpt>
      <trkpt lat="47.48861" lon="6.77291">
        <ele>310</ele>
        <time>2015-04-26T10:33:33.000Z</time>
      </trkpt>
      <trkpt lat="47.48867" lon="6.77294">
        <ele>310</ele>
        <time>2015-04-26T10:33:34.000Z</time>
      </trkpt>
      <trkpt lat="47.48873" lon="6.77295">
        <ele>310</ele>
        <time>2015-04-26T10:33:35.000Z</time>
      </trkpt>
      <trkpt lat="47.48878" lon="6.77298">
        <ele>310</ele>
        <time>2015-04-26T10:33:36.000Z</time>
      </trkpt>
      <trkpt lat="47.48882" lon="6.773">
        <ele>310</ele>
        <time>2015-04-26T10:33:37.000Z</time>
      </trkpt>
      <trkpt lat="47.48887" lon="6.77303">
        <ele>310</ele>
        <time>2015-04-26T10:33:38.000Z</time>
      </trkpt>
      <trkpt lat="47.48893" lon="6.77305">
        <ele>310</ele>
        <time>2015-04-26T10:33:39.000Z</time>
      </trkpt>
      <trkpt lat="47.48898" lon="6.77307">
        <ele>310</ele>
        <time>2015-04-26T10:33:40.000Z</time>
      </trkpt>
      <trkpt lat="47.48904" lon="6.7731">
        <ele>310</ele>
        <time>2015-04-26T10:33:41.000Z</time>
      </trkpt>
      <trkpt lat="47.4891" lon="6.77311">
        <ele>310</ele>
        <time>2015-04-26T10:33:42.000Z</time>
      </trkpt>
      <trkpt lat="47.48916" lon="6.77314">
        <ele>310</ele>
        <time>2015-04-26T10:33:43.000Z</time>
      </trkpt>
      <trkpt lat="47.48922" lon="6.77315">
        <ele>310</ele>
        <time>2015-04-26T10:33:44.000Z</time>
      </trkpt>
      <trkpt lat="47.48927" lon="6.77318">
        <ele>310</ele>
        <time>2015-04-26T10:33:45.000Z</time>
      </trkpt>
      <trkpt lat="47.48933" lon="6.7732">
        <ele>310</ele>
        <time>2015-04-26T10:33:46.000Z</time>
      </trkpt>
      <trkpt lat="47.48938" lon="6.77323">
        <ele>310</ele>
        <time>2015-04-26T10:33:47.000Z</time>
      </trkpt>
      <trkpt lat="47.48945" lon="6.77323">
        <ele>311</ele>
        <time>2015-04-26T10:33:48.000Z</time>
      </trkpt>
      <trkpt lat="47.4895" lon="6.77325">
        <ele>311</ele>
        <time>2015-04-26T10:33:49.000Z</time>
      </trkpt>
      <trkpt lat="47.48955" lon="6.77326">
        <ele>311</ele>
        <time>2015-04-26T10:33:50.000Z</time>
      </trkpt>
      <trkpt lat="47.48961" lon="6.77327">
        <ele>311</ele>
        <time>2015-04-26T10:33:51.000Z</time>
      </trkpt>
      <trkpt lat="47.48966" lon="6.77328">
        <ele>311</ele>
        <time>2015-04-26T10:33:52.000Z</time>
      </trkpt>
      <trkpt lat="47.48972" lon="6.77329">
        <ele>311</ele>
        <time>2015-04-26T10:33:53.000Z</time>
      </trkpt>
      <trkpt lat="47.48977" lon="6.7733">
        <ele>311</ele>
        <time>2015-04-26T10:33:54.000Z</time>
      </trkpt>
      <trkpt lat="47.48982" lon="6.77331">
        <ele>311</ele>
        <time>2015-04-26T10:33:55.000Z</time>
      </trkpt>
      <trkpt lat="47.48988" lon="6.77332">
        <ele>311</ele>
        <time>2015-04-26T10:33:56.000Z</time>
      </trkpt>
      <trkpt lat="47.48994" lon="6.77332">
        <ele>311</ele>
        <time>2015-04-26T10:33:57.000Z</time>
      </trkpt>
      <trkpt lat="47.48999" lon="6.77332">
        <ele>311</ele>
        <time>2015-04-26T10:33:58.000Z</time>
      </trkpt>
      <trkpt lat="47.49005" lon="6.77332">
        <ele>311</ele>
        <time>2015-04-26T10:33:59.000Z</time>
      </trkpt>
      <trkpt lat="47.49011" lon="6.77332">
        <ele>311</ele>
        <time>2015-04-26T10:34:00.000Z</time>
      </trkpt>
      <trkpt lat="47.49016" lon="6.77333">
        <ele>311</ele>
        <time>2015-04-26T10:34:01.000Z</time>
      </trkpt>
      <trkpt lat="47.49022" lon="6.77333">
        <ele>311</ele>
        <time>2015-04-26T10:34:02.000Z</time>
      </trkpt>
      <trkpt lat="47.49027" lon="6.77334">
        <ele>311</ele>
        <time>2015-04-26T10:34:03.000Z</time>
      </trkpt>
      <trkpt lat="47.49033" lon="6.77334">
        <ele>311</ele>
        <time>2015-04-26T10:34:04.000Z</time>
      </trkpt>
      <trkpt lat="47.49038" lon="6.77335">
        <ele>311</ele>
        <time>2015-04-26T10:34:05.000Z</time>
      </trkpt>
      <trkpt lat="47.49043" lon="6.77337">
        <ele>311</ele>
        <time>2015-04-26T10:34:06.000Z</time>
      </trkpt>
      <trkpt lat="47.49048" lon="6.77337">
        <ele>311</ele>
        <time>2015-04-26T10:34:07.000Z</time>
      </trkpt>
      <trkpt lat="47.49054" lon="6.77337">
        <ele>311</ele>
        <time>2015-04-26T10:34:08.000Z</time>
      </trkpt>
      <trkpt lat="47.4906" lon="6.77338">
        <ele>311</ele>
        <time>2015-04-26T10:34:09.000Z</time>
      </trkpt>
      <trkpt lat="47.49066" lon="6.77339">
        <ele>311</ele>
        <time>2015-04-26T10:34:10.000Z</time>
      </trkpt>
      <trkpt lat="47.49071" lon="6.7734">
        <ele>311</ele>
        <time>2015-04-26T10:34:11.000Z</time>
      </trkpt>
      <trkpt lat="47.49077" lon="6.77341">
        <ele>311</ele>
        <time>2015-04-26T10:34:12.000Z</time>
      </trkpt>
      <trkpt lat="47.49082" lon="6.7734">
        <ele>311</ele>
        <time>2015-04-26T10:34:13.000Z</time>
      </trkpt>
      <trkpt lat="47.49086" lon="6.77341">
        <ele>311</ele>
        <time>2015-04-26T10:34:14.000Z</time>
      </trkpt>
      <trkpt lat="47.4909" lon="6.77342">
        <ele>311</ele>
        <time>2015-04-26T10:34:15.000Z</time>
      </trkpt>
      <trkpt lat="47.49096" lon="6.77343">
        <ele>310</ele>
        <time>2015-04-26T10:34:16.000Z</time>
      </trkpt>
      <trkpt lat="47.49102" lon="6.77342">
        <ele>310</ele>
        <time>2015-04-26T10:34:17.000Z</time>
      </trkpt>
      <trkpt lat="47.49107" lon="6.77341">
        <ele>310</ele>
        <time>2015-04-26T10:34:18.000Z</time>
      </trkpt>
      <trkpt lat="47.49112" lon="6.7734">
        <ele>310</ele>
        <time>2015-04-26T10:34:19.000Z</time>
      </trkpt>
      <trkpt lat="47.49117" lon="6.7734">
        <ele>310</ele>
        <time>2015-04-26T10:34:20.000Z</time>
      </trkpt>
      <trkpt lat="47.49121" lon="6.7734">
        <ele>310</ele>
        <time>2015-04-26T10:34:21.000Z</time>
      </trkpt>
      <trkpt lat="47.49125" lon="6.77339">
        <ele>310</ele>
        <time>2015-04-26T10:34:22.000Z</time>
      </trkpt>
      <trkpt lat="47.49129" lon="6.77339">
        <ele>310</ele>
        <time>2015-04-26T10:34:23.000Z</time>
      </trkpt>
      <trkpt lat="47.49133" lon="6.77339">
        <ele>310</ele>
        <time>2015-04-26T10:34:24.000Z</time>
      </trkpt>
      <trkpt lat="47.49136" lon="6.77339">
        <ele>310</ele>
        <time>2015-04-26T10:34:25.000Z</time>
      </trkpt>
      <trkpt lat="47.4914" lon="6.7734">
        <ele>310</ele>
        <time>2015-04-26T10:34:26.000Z</time>
      </trkpt>
      <trkpt lat="47.49143" lon="6.7734">
        <ele>310</ele>
        <time>2015-04-26T10:34:27.000Z</time>
      </trkpt>
      <trkpt lat="47.49146" lon="6.77341">
        <ele>310</ele>
        <time>2015-04-26T10:34:28.000Z</time>
      </trkpt>
      <trkpt lat="47.49149" lon="6.77342">
        <ele>310</ele>
        <time>2015-04-26T10:34:29.000Z</time>
      </trkpt>
      <trkpt lat="47.49152" lon="6.77342">
        <ele>310</ele>
        <time>2015-04-26T10:34:30.000Z</time>
      </trkpt>
      <trkpt lat="47.49155" lon="6.77342">
        <ele>310</ele>
        <time>2015-04-26T10:34:31.000Z</time>
      </trkpt>
      <trkpt lat="47.49158" lon="6.77342">
        <ele>310</ele>
        <time>2015-04-26T10:34:32.000Z</time>
      </trkpt>
      <trkpt lat="47.4916" lon="6.77342">
        <ele>310</ele>
        <time>2015-04-26T10:34:33.000Z</time>
      </trkpt>
      <trkpt lat="47.49163" lon="6.77342">
        <ele>310</ele>
        <time>2015-04-26T10:34:34.000Z</time>
      </trkpt>
      <trkpt lat="47.49167" lon="6.77341">
        <ele>310</ele>
        <time>2015-04-26T10:34:36.000Z</time>
      </trkpt>
      <trkpt lat="47.49169" lon="6.77341">
        <ele>310</ele>
        <time>2015-04-26T10:34:37.000Z</time>
      </trkpt>
      <trkpt lat="47.49172" lon="6.77342">
        <ele>310</ele>
        <time>2015-04-26T10:34:39.000Z</time>
      </trkpt>
      <trkpt lat="47.49174" lon="6.77342">
        <ele>310</ele>
        <time>2015-04-26T10:34:40.000Z</time>
      </trkpt>
      <trkpt lat="47.49178" lon="6.77342">
        <ele>310</ele>
        <time>2015-04-26T10:34:43.000Z</time>
      </trkpt>
      <trkpt lat="47.49179" lon="6.77342">
        <ele>310</ele>
        <time>2015-04-26T10:34:44.000Z</time>
      </trkpt>
      <trkpt lat="47.49182" lon="6.77343">
        <ele>309</ele>
        <time>2015-04-26T10:37:09.000Z</time>
      </trkpt>
      <trkpt lat="47.49183" lon="6.77343">
        <ele>309</ele>
        <time>2015-04-26T10:37:10.000Z</time>
      </trkpt>
      <trkpt lat="47.49187" lon="6.77344">
        <ele>309</ele>
        <time>2015-04-26T10:37:12.000Z</time>
      </trkpt>
      <trkpt lat="47.49188" lon="6.77345">
        <ele>309</ele>
        <time>2015-04-26T10:37:13.000Z</time>
      </trkpt>
      <trkpt lat="47.49191" lon="6.77341">
        <ele>309</ele>
        <time>2015-04-26T10:37:16.000Z</time>
      </trkpt>
      <trkpt lat="47.49192" lon="6.77339">
        <ele>309</ele>
        <time>2015-04-26T10:37:17.000Z</time>
      </trkpt>
      <trkpt lat="47.49196" lon="6.77337">
        <ele>309</ele>
        <time>2015-04-26T10:37:20.000Z</time>
      </trkpt>
      <trkpt lat="47.49198" lon="6.77338">
        <ele>309</ele>
        <time>2015-04-26T10:37:21.000Z</time>
      </trkpt>
      <trkpt lat="47.492" lon="6.77339">
        <ele>309</ele>
        <time>2015-04-26T10:37:22.000Z</time>
      </trkpt>
      <trkpt lat="47.49202" lon="6.7734">
        <ele>309</ele>
        <time>2015-04-26T10:37:23.000Z</time>
      </trkpt>
      <trkpt lat="47.49205" lon="6.77342">
        <ele>309</ele>
        <time>2015-04-26T10:37:24.000Z</time>
      </trkpt>
      <trkpt lat="47.49209" lon="6.77342">
        <ele>309</ele>
        <time>2015-04-26T10:37:25.000Z</time>
      </trkpt>
      <trkpt lat="47.49212" lon="6.77343">
        <ele>309</ele>
        <time>2015-04-26T10:37:26.000Z</time>
      </trkpt>
      <trkpt lat="47.49216" lon="6.77344">
        <ele>309</ele>
        <time>2015-04-26T10:37:27.000Z</time>
      </trkpt>
      <trkpt lat="47.4922" lon="6.77344">
        <ele>309</ele>
        <time>2015-04-26T10:37:28.000Z</time>
      </trkpt>
      <trkpt lat="47.49224" lon="6.77344">
        <ele>309</ele>
        <time>2015-04-26T10:37:29.000Z</time>
      </trkpt>
      <trkpt lat="47.49228" lon="6.77344">
        <ele>309</ele>
        <time>2015-04-26T10:37:30.000Z</time>
      </trkpt>
      <trkpt lat="47.49232" lon="6.77344">
        <ele>309</ele>
        <time>2015-04-26T10:37:31.000Z</time>
      </trkpt>
      <trkpt lat="47.49236" lon="6.77344">
        <ele>310</ele>
        <time>2015-04-26T10:37:32.000Z</time>
      </trkpt>
      <trkpt lat="47.4924" lon="6.77344">
        <ele>310</ele>
        <time>2015-04-26T10:37:33.000Z</time>
      </trkpt>
      <trkpt lat="47.49244" lon="6.77343">
        <ele>310</ele>
        <time>2015-04-26T10:37:34.000Z</time>
      </trkpt>
      <trkpt lat="47.49248" lon="6.77342">
        <ele>310</ele>
        <time>2015-04-26T10:37:35.000Z</time>
      </trkpt>
      <trkpt lat="47.49252" lon="6.7734">
        <ele>310</ele>
        <time>2015-04-26T10:37:36.000Z</time>
      </trkpt>
      <trkpt lat="47.49257" lon="6.77337">
        <ele>310</ele>
        <time>2015-04-26T10:37:37.000Z</time>
      </trkpt>
      <trkpt lat="47.49263" lon="6.77333">
        <ele>310</ele>
        <time>2015-04-26T10:37:38.000Z</time>
      </trkpt>
      <trkpt lat="47.49268" lon="6.77333">
        <ele>310</ele>
        <time>2015-04-26T10:37:39.000Z</time>
      </trkpt>
      <trkpt lat="47.49274" lon="6.77332">
        <ele>310</ele>
        <time>2015-04-26T10:37:40.000Z</time>
      </trkpt>
      <trkpt lat="47.49279" lon="6.77332">
        <ele>310</ele>
        <time>2015-04-26T10:37:41.000Z</time>
      </trkpt>
      <trkpt lat="47.49285" lon="6.77333">
        <ele>310</ele>
        <time>2015-04-26T10:37:42.000Z</time>
      </trkpt>
      <trkpt lat="47.49291" lon="6.77332">
        <ele>310</ele>
        <time>2015-04-26T10:37:43.000Z</time>
      </trkpt>
      <trkpt lat="47.49298" lon="6.77332">
        <ele>310</ele>
        <time>2015-04-26T10:37:44.000Z</time>
      </trkpt>
      <trkpt lat="47.49303" lon="6.77333">
        <ele>310</ele>
        <time>2015-04-26T10:37:45.000Z</time>
      </trkpt>
      <trkpt lat="47.49308" lon="6.77334">
        <ele>309</ele>
        <time>2015-04-26T10:37:46.000Z</time>
      </trkpt>
      <trkpt lat="47.49313" lon="6.77334">
        <ele>310</ele>
        <time>2015-04-26T10:37:47.000Z</time>
      </trkpt>
      <trkpt lat="47.49318" lon="6.77334">
        <ele>310</ele>
        <time>2015-04-26T10:37:48.000Z</time>
      </trkpt>
      <trkpt lat="47.49322" lon="6.77337">
        <ele>310</ele>
        <time>2015-04-26T10:37:49.000Z</time>
      </trkpt>
      <trkpt lat="47.49326" lon="6.77339">
        <ele>310</ele>
        <time>2015-04-26T10:37:50.000Z</time>
      </trkpt>
      <trkpt lat="47.4933" lon="6.77342">
        <ele>310</ele>
        <time>2015-04-26T10:37:51.000Z</time>
      </trkpt>
      <trkpt lat="47.49334" lon="6.77346">
        <ele>310</ele>
        <time>2015-04-26T10:37:52.000Z</time>
      </trkpt>
      <trkpt lat="47.49339" lon="6.77348">
        <ele>310</ele>
        <time>2015-04-26T10:37:53.000Z</time>
      </trkpt>
      <trkpt lat="47.49344" lon="6.77348">
        <ele>310</ele>
        <time>2015-04-26T10:37:54.000Z</time>
      </trkpt>
      <trkpt lat="47.49349" lon="6.77348">
        <ele>310</ele>
        <time>2015-04-26T10:37:55.000Z</time>
      </trkpt>
      <trkpt lat="47.49354" lon="6.77348">
        <ele>310</ele>
        <time>2015-04-26T10:37:56.000Z</time>
      </trkpt>
      <trkpt lat="47.4936" lon="6.77348">
        <ele>310</ele>
        <time>2015-04-26T10:37:57.000Z</time>
      </trkpt>
      <trkpt lat="47.49366" lon="6.77348">
        <ele>310</ele>
        <time>2015-04-26T10:37:58.000Z</time>
      </trkpt>
      <trkpt lat="47.49371" lon="6.77349">
        <ele>310</ele>
        <time>2015-04-26T10:37:59.000Z</time>
      </trkpt>
      <trkpt lat="47.49376" lon="6.77349">
        <ele>310</ele>
        <time>2015-04-26T10:38:00.000Z</time>
      </trkpt>
      <trkpt lat="47.49382" lon="6.7735">
        <ele>310</ele>
        <time>2015-04-26T10:38:01.000Z</time>
      </trkpt>
      <trkpt lat="47.49387" lon="6.77351">
        <ele>310</ele>
        <time>2015-04-26T10:38:02.000Z</time>
      </trkpt>
      <trkpt lat="47.49392" lon="6.77351">
        <ele>310</ele>
        <time>2015-04-26T10:38:03.000Z</time>
      </trkpt>
      <trkpt lat="47.49397" lon="6.77352">
        <ele>310</ele>
        <time>2015-04-26T10:38:04.000Z</time>
      </trkpt>
      <trkpt lat="47.49403" lon="6.77353">
        <ele>310</ele>
        <time>2015-04-26T10:38:05.000Z</time>
      </trkpt>
      <trkpt lat="47.49408" lon="6.77353">
        <ele>310</ele>
        <time>2015-04-26T10:38:06.000Z</time>
      </trkpt>
      <trkpt lat="47.49413" lon="6.77353">
        <ele>311</ele>
        <time>2015-04-26T10:38:07.000Z</time>
      </trkpt>
      <trkpt lat="47.49418" lon="6.77354">
        <ele>311</ele>
        <time>2015-04-26T10:38:08.000Z</time>
      </trkpt>
      <trkpt lat="47.49423" lon="6.77354">
        <ele>311</ele>
        <time>2015-04-26T10:38:09.000Z</time>
      </trkpt>
      <trkpt lat="47.49429" lon="6.77354">
        <ele>311</ele>
        <time>2015-04-26T10:38:10.000Z</time>
      </trkpt>
      <trkpt lat="47.49434" lon="6.77355">
        <ele>311</ele>
        <time>2015-04-26T10:38:11.000Z</time>
      </trkpt>
      <trkpt lat="47.49439" lon="6.77355">
        <ele>311</ele>
        <time>2015-04-26T10:38:12.000Z</time>
      </trkpt>
      <trkpt lat="47.49444" lon="6.77356">
        <ele>311</ele>
        <time>2015-04-26T10:38:13.000Z</time>
      </trkpt>
      <trkpt lat="47.49449" lon="6.77356">
        <ele>311</ele>
        <time>2015-04-26T10:38:14.000Z</time>
      </trkpt>
      <trkpt lat="47.49455" lon="6.77357">
        <ele>311</ele>
        <time>2015-04-26T10:38:15.000Z</time>
      </trkpt>
      <trkpt lat="47.4946" lon="6.77358">
        <ele>311</ele>
        <time>2015-04-26T10:38:16.000Z</time>
      </trkpt>
      <trkpt lat="47.49465" lon="6.77358">
        <ele>311</ele>
        <time>2015-04-26T10:38:17.000Z</time>
      </trkpt>
      <trkpt lat="47.4947" lon="6.77359">
        <ele>311</ele>
        <time>2015-04-26T10:38:18.000Z</time>
      </trkpt>
      <trkpt lat="47.49475" lon="6.77359">
        <ele>311</ele>
        <time>2015-04-26T10:38:19.000Z</time>
      </trkpt>
      <trkpt lat="47.49481" lon="6.77359">
        <ele>311</ele>
        <time>2015-04-26T10:38:20.000Z</time>
      </trkpt>
      <trkpt lat="47.49486" lon="6.7736">
        <ele>311</ele>
        <time>2015-04-26T10:38:21.000Z</time>
      </trkpt>
      <trkpt lat="47.49491" lon="6.77361">
        <ele>311</ele>
        <time>2015-04-26T10:38:22.000Z</time>
      </trkpt>
      <trkpt lat="47.49497" lon="6.77361">
        <ele>311</ele>
        <time>2015-04-26T10:38:23.000Z</time>
      </trkpt>
      <trkpt lat="47.49502" lon="6.77362">
        <ele>312</ele>
        <time>2015-04-26T10:38:24.000Z</time>
      </trkpt>
      <trkpt lat="47.49508" lon="6.77362">
        <ele>312</ele>
        <time>2015-04-26T10:38:25.000Z</time>
      </trkpt>
      <trkpt lat="47.49514" lon="6.77363">
        <ele>312</ele>
        <time>2015-04-26T10:38:26.000Z</time>
      </trkpt>
      <trkpt lat="47.49519" lon="6.77363">
        <ele>312</ele>
        <time>2015-04-26T10:38:27.000Z</time>
      </trkpt>
      <trkpt lat="47.49524" lon="6.77363">
        <ele>312</ele>
        <time>2015-04-26T10:38:28.000Z</time>
      </trkpt>
      <trkpt lat="47.49529" lon="6.77362">
        <ele>312</ele>
        <time>2015-04-26T10:38:29.000Z</time>
      </trkpt>
      <trkpt lat="47.49535" lon="6.77362">
        <ele>312</ele>
        <time>2015-04-26T10:38:30.000Z</time>
      </trkpt>
      <trkpt lat="47.49541" lon="6.77363">
        <ele>312</ele>
        <time>2015-04-26T10:38:31.000Z</time>
      </trkpt>
      <trkpt lat="47.49548" lon="6.77362">
        <ele>312</ele>
        <time>2015-04-26T10:38:32.000Z</time>
      </trkpt>
      <trkpt lat="47.49553" lon="6.77364">
        <ele>312</ele>
        <time>2015-04-26T10:38:33.000Z</time>
      </trkpt>
      <trkpt lat="47.49558" lon="6.77365">
        <ele>312</ele>
        <time>2015-04-26T10:38:34.000Z</time>
      </trkpt>
      <trkpt lat="47.49565" lon="6.77365">
        <ele>312</ele>
        <time>2015-04-26T10:38:35.000Z</time>
      </trkpt>
      <trkpt lat="47.49571" lon="6.77365">
        <ele>313</ele>
        <time>2015-04-26T10:38:36.001Z</time>
      </trkpt>
      <trkpt lat="47.49577" lon="6.77364">
        <ele>313</ele>
        <time>2015-04-26T10:38:37.000Z</time>
      </trkpt>
      <trkpt lat="47.49582" lon="6.77364">
        <ele>313</ele>
        <time>2015-04-26T10:38:38.000Z</time>
      </trkpt>
      <trkpt lat="47.49587" lon="6.77363">
        <ele>313</ele>
        <time>2015-04-26T10:38:39.000Z</time>
      </trkpt>
      <trkpt lat="47.49593" lon="6.77362">
        <ele>313</ele>
        <time>2015-04-26T10:38:40.000Z</time>
      </trkpt>
      <trkpt lat="47.49599" lon="6.77361">
        <ele>313</ele>
        <time>2015-04-26T10:38:40.999Z</time>
      </trkpt>
      <trkpt lat="47.49605" lon="6.7736">
        <ele>313</ele>
        <time>2015-04-26T10:38:42.000Z</time>
      </trkpt>
      <trkpt lat="47.4961" lon="6.77359">
        <ele>313</ele>
        <time>2015-04-26T10:38:43.000Z</time>
      </trkpt>
      <trkpt lat="47.49616" lon="6.77358">
        <ele>313</ele>
        <time>2015-04-26T10:38:44.000Z</time>
      </trkpt>
      <trkpt lat="47.49621" lon="6.77358">
        <ele>313</ele>
        <time>2015-04-26T10:38:45.000Z</time>
      </trkpt>
      <trkpt lat="47.49627" lon="6.77357">
        <ele>313</ele>
        <time>2015-04-26T10:38:46.000Z</time>
      </trkpt>
      <trkpt lat="47.49632" lon="6.77356">
        <ele>313</ele>
        <time>2015-04-26T10:38:47.000Z</time>
      </trkpt>
      <trkpt lat="47.49637" lon="6.77355">
        <ele>313</ele>
        <time>2015-04-26T10:38:48.000Z</time>
      </trkpt>
      <trkpt lat="47.49642" lon="6.77354">
        <ele>313</ele>
        <time>2015-04-26T10:38:49.000Z</time>
      </trkpt>
      <trkpt lat="47.49648" lon="6.77354">
        <ele>313</ele>
        <time>2015-04-26T10:38:50.000Z</time>
      </trkpt>
      <trkpt lat="47.49653" lon="6.77353">
        <ele>313</ele>
        <time>2015-04-26T10:38:51.000Z</time>
      </trkpt>
      <trkpt lat="47.49659" lon="6.77352">
        <ele>313</ele>
        <time>2015-04-26T10:38:52.000Z</time>
      </trkpt>
      <trkpt lat="47.49664" lon="6.77351">
        <ele>313</ele>
        <time>2015-04-26T10:38:53.000Z</time>
      </trkpt>
      <trkpt lat="47.4967" lon="6.77349">
        <ele>313</ele>
        <time>2015-04-26T10:38:54.000Z</time>
      </trkpt>
      <trkpt lat="47.49676" lon="6.77348">
        <ele>313</ele>
        <time>2015-04-26T10:38:55.000Z</time>
      </trkpt>
      <trkpt lat="47.49682" lon="6.77347">
        <ele>313</ele>
        <time>2015-04-26T10:38:56.000Z</time>
      </trkpt>
      <trkpt lat="47.49687" lon="6.77346">
        <ele>313</ele>
        <time>2015-04-26T10:38:57.000Z</time>
      </trkpt>
      <trkpt lat="47.49694" lon="6.77344">
        <ele>313</ele>
        <time>2015-04-26T10:38:58.000Z</time>
      </trkpt>
      <trkpt lat="47.497" lon="6.77342">
        <ele>313</ele>
        <time>2015-04-26T10:38:59.000Z</time>
      </trkpt>
      <trkpt lat="47.49705" lon="6.77341">
        <ele>313</ele>
        <time>2015-04-26T10:39:00.000Z</time>
      </trkpt>
      <trkpt lat="47.4971" lon="6.7734">
        <ele>313</ele>
        <time>2015-04-26T10:39:01.000Z</time>
      </trkpt>
      <trkpt lat="47.49716" lon="6.77339">
        <ele>312</ele>
        <time>2015-04-26T10:39:02.000Z</time>
      </trkpt>
      <trkpt lat="47.49722" lon="6.77338">
        <ele>312</ele>
        <time>2015-04-26T10:39:03.000Z</time>
      </trkpt>
      <trkpt lat="47.49727" lon="6.77335">
        <ele>313</ele>
        <time>2015-04-26T10:39:04.000Z</time>
      </trkpt>
      <trkpt lat="47.49733" lon="6.77331">
        <ele>314</ele>
        <time>2015-04-26T10:39:05.000Z</time>
      </trkpt>
      <trkpt lat="47.49738" lon="6.77328">
        <ele>314</ele>
        <time>2015-04-26T10:39:06.000Z</time>
      </trkpt>
      <trkpt lat="47.49743" lon="6.77325">
        <ele>314</ele>
        <time>2015-04-26T10:39:07.000Z</time>
      </trkpt>
      <trkpt lat="47.49748" lon="6.77323">
        <ele>314</ele>
        <time>2015-04-26T10:39:08.000Z</time>
      </trkpt>
      <trkpt lat="47.49753" lon="6.77321">
        <ele>315</ele>
        <time>2015-04-26T10:39:09.000Z</time>
      </trkpt>
      <trkpt lat="47.49758" lon="6.77318">
        <ele>315</ele>
        <time>2015-04-26T10:39:10.000Z</time>
      </trkpt>
      <trkpt lat="47.49763" lon="6.77317">
        <ele>316</ele>
        <time>2015-04-26T10:39:11.000Z</time>
      </trkpt>
      <trkpt lat="47.49768" lon="6.77315">
        <ele>316</ele>
        <time>2015-04-26T10:39:12.000Z</time>
      </trkpt>
      <trkpt lat="47.49774" lon="6.77314">
        <ele>316</ele>
        <time>2015-04-26T10:39:13.000Z</time>
      </trkpt>
      <trkpt lat="47.49778" lon="6.77314">
        <ele>316</ele>
        <time>2015-04-26T10:39:14.000Z</time>
      </trkpt>
      <trkpt lat="47.49784" lon="6.77314">
        <ele>316</ele>
        <time>2015-04-26T10:39:15.000Z</time>
      </trkpt>
      <trkpt lat="47.4979" lon="6.77314">
        <ele>317</ele>
        <time>2015-04-26T10:39:16.000Z</time>
      </trkpt>
      <trkpt lat="47.49795" lon="6.77313">
        <ele>317</ele>
        <time>2015-04-26T10:39:17.000Z</time>
      </trkpt>
      <trkpt lat="47.49801" lon="6.77313">
        <ele>317</ele>
        <time>2015-04-26T10:39:18.000Z</time>
      </trkpt>
      <trkpt lat="47.49806" lon="6.77312">
        <ele>317</ele>
        <time>2015-04-26T10:39:19.000Z</time>
      </trkpt>
      <trkpt lat="47.49812" lon="6.77312">
        <ele>317</ele>
        <time>2015-04-26T10:39:20.000Z</time>
      </trkpt>
      <trkpt lat="47.49818" lon="6.77312">
        <ele>317</ele>
        <time>2015-04-26T10:39:21.000Z</time>
      </trkpt>
      <trkpt lat="47.49821" lon="6.77313">
        <ele>316</ele>
        <time>2015-04-26T10:39:22.000Z</time>
      </trkpt>
      <trkpt lat="47.49827" lon="6.77312">
        <ele>316</ele>
        <time>2015-04-26T10:39:23.000Z</time>
      </trkpt>
      <trkpt lat="47.49833" lon="6.77311">
        <ele>316</ele>
        <time>2015-04-26T10:39:24.000Z</time>
      </trkpt>
      <trkpt lat="47.49839" lon="6.7731">
        <ele>317</ele>
        <time>2015-04-26T10:39:25.000Z</time>
      </trkpt>
      <trkpt lat="47.49844" lon="6.77309">
        <ele>317</ele>
        <time>2015-04-26T10:39:26.000Z</time>
      </trkpt>
      <trkpt lat="47.4985" lon="6.7731">
        <ele>317</ele>
        <time>2015-04-26T10:39:27.000Z</time>
      </trkpt>
      <trkpt lat="47.49855" lon="6.77309">
        <ele>318</ele>
        <time>2015-04-26T10:39:28.000Z</time>
      </trkpt>
      <trkpt lat="47.49861" lon="6.77309">
        <ele>318</ele>
        <time>2015-04-26T10:39:29.000Z</time>
      </trkpt>
      <trkpt lat="47.49867" lon="6.77308">
        <ele>318</ele>
        <time>2015-04-26T10:39:30.000Z</time>
      </trkpt>
      <trkpt lat="47.49873" lon="6.77307">
        <ele>318</ele>
        <time>2015-04-26T10:39:31.000Z</time>
      </trkpt>
      <trkpt lat="47.49878" lon="6.77306">
        <ele>318</ele>
        <time>2015-04-26T10:39:32.000Z</time>
      </trkpt>
      <trkpt lat="47.49883" lon="6.77304">
        <ele>318</ele>
        <time>2015-04-26T10:39:33.000Z</time>
      </trkpt>
      <trkpt lat="47.49887" lon="6.77302">
        <ele>318</ele>
        <time>2015-04-26T10:39:34.000Z</time>
      </trkpt>
      <trkpt lat="47.49892" lon="6.77301">
        <ele>318</ele>
        <time>2015-04-26T10:39:35.000Z</time>
      </trkpt>
      <trkpt lat="47.49897" lon="6.77299">
        <ele>318</ele>
        <time>2015-04-26T10:39:36.000Z</time>
      </trkpt>
      <trkpt lat="47.49901" lon="6.77297">
        <ele>318</ele>
        <time>2015-04-26T10:39:37.000Z</time>
      </trkpt>
      <trkpt lat="47.49908" lon="6.77294">
        <ele>318</ele>
        <time>2015-04-26T10:39:38.000Z</time>
      </trkpt>
      <trkpt lat="47.49914" lon="6.77291">
        <ele>319</ele>
        <time>2015-04-26T10:39:39.000Z</time>
      </trkpt>
      <trkpt lat="47.49918" lon="6.77287">
        <ele>317</ele>
        <time>2015-04-26T10:39:40.000Z</time>
      </trkpt>
      <trkpt lat="47.49923" lon="6.77284">
        <ele>317</ele>
        <time>2015-04-26T10:39:41.000Z</time>
      </trkpt>
      <trkpt lat="47.49928" lon="6.77282">
        <ele>318</ele>
        <time>2015-04-26T10:39:42.000Z</time>
      </trkpt>
      <trkpt lat="47.49934" lon="6.77278">
        <ele>318</ele>
        <time>2015-04-26T10:39:43.000Z</time>
      </trkpt>
      <trkpt lat="47.49939" lon="6.77275">
        <ele>318</ele>
        <time>2015-04-26T10:39:44.000Z</time>
      </trkpt>
      <trkpt lat="47.49945" lon="6.77271">
        <ele>318</ele>
        <time>2015-04-26T10:39:45.000Z</time>
      </trkpt>
      <trkpt lat="47.49951" lon="6.77271">
        <ele>317</ele>
        <time>2015-04-26T10:39:46.000Z</time>
      </trkpt>
      <trkpt lat="47.49957" lon="6.77268">
        <ele>317</ele>
        <time>2015-04-26T10:39:47.000Z</time>
      </trkpt>
      <trkpt lat="47.49961" lon="6.77265">
        <ele>317</ele>
        <time>2015-04-26T10:39:48.000Z</time>
      </trkpt>
      <trkpt lat="47.49966" lon="6.77263">
        <ele>317</ele>
        <time>2015-04-26T10:39:49.000Z</time>
      </trkpt>
      <trkpt lat="47.49971" lon="6.7726">
        <ele>317</ele>
        <time>2015-04-26T10:39:50.000Z</time>
      </trkpt>
      <trkpt lat="47.49976" lon="6.77258">
        <ele>316</ele>
        <time>2015-04-26T10:39:51.000Z</time>
      </trkpt>
      <trkpt lat="47.49982" lon="6.77255">
        <ele>316</ele>
        <time>2015-04-26T10:39:52.000Z</time>
      </trkpt>
      <trkpt lat="47.49988" lon="6.77253">
        <ele>316</ele>
        <time>2015-04-26T10:39:53.000Z</time>
      </trkpt>
      <trkpt lat="47.49994" lon="6.7725">
        <ele>320</ele>
        <time>2015-04-26T10:39:54.000Z</time>
      </trkpt>
      <trkpt lat="47.49998" lon="6.77247">
        <ele>318</ele>
        <time>2015-04-26T10:39:55.000Z</time>
      </trkpt>
      <trkpt lat="47.50003" lon="6.77245">
        <ele>319</ele>
        <time>2015-04-26T10:39:56.000Z</time>
      </trkpt>
      <trkpt lat="47.50007" lon="6.77242">
        <ele>321</ele>
        <time>2015-04-26T10:39:57.000Z</time>
      </trkpt>
      <trkpt lat="47.50011" lon="6.7724">
        <ele>322</ele>
        <time>2015-04-26T10:39:58.000Z</time>
      </trkpt>
      <trkpt lat="47.50015" lon="6.77236">
        <ele>324</ele>
        <time>2015-04-26T10:39:59.000Z</time>
      </trkpt>
      <trkpt lat="47.50019" lon="6.77234">
        <ele>325</ele>
        <time>2015-04-26T10:40:00.000Z</time>
      </trkpt>
      <trkpt lat="47.50022" lon="6.7723">
        <ele>326</ele>
        <time>2015-04-26T10:40:01.000Z</time>
      </trkpt>
      <trkpt lat="47.50026" lon="6.77228">
        <ele>326</ele>
        <time>2015-04-26T10:40:02.000Z</time>
      </trkpt>
      <trkpt lat="47.50031" lon="6.77227">
        <ele>327</ele>
        <time>2015-04-26T10:40:03.000Z</time>
      </trkpt>
      <trkpt lat="47.50036" lon="6.77225">
        <ele>327</ele>
        <time>2015-04-26T10:40:04.000Z</time>
      </trkpt>
      <trkpt lat="47.5004" lon="6.77223">
        <ele>327</ele>
        <time>2015-04-26T10:40:05.000Z</time>
      </trkpt>
      <trkpt lat="47.50045" lon="6.77222">
        <ele>327</ele>
        <time>2015-04-26T10:40:06.000Z</time>
      </trkpt>
      <trkpt lat="47.5005" lon="6.7722">
        <ele>328</ele>
        <time>2015-04-26T10:40:07.000Z</time>
      </trkpt>
      <trkpt lat="47.50054" lon="6.77218">
        <ele>328</ele>
        <time>2015-04-26T10:40:08.000Z</time>
      </trkpt>
      <trkpt lat="47.5006" lon="6.77218">
        <ele>327</ele>
        <time>2015-04-26T10:40:09.000Z</time>
      </trkpt>
      <trkpt lat="47.50064" lon="6.77219">
        <ele>327</ele>
        <time>2015-04-26T10:40:10.000Z</time>
      </trkpt>
      <trkpt lat="47.50069" lon="6.77218">
        <ele>327</ele>
        <time>2015-04-26T10:40:11.000Z</time>
      </trkpt>
      <trkpt lat="47.50074" lon="6.77215">
        <ele>328</ele>
        <time>2015-04-26T10:40:12.000Z</time>
      </trkpt>
      <trkpt lat="47.50079" lon="6.77213">
        <ele>328</ele>
        <time>2015-04-26T10:40:13.000Z</time>
      </trkpt>
      <trkpt lat="47.50084" lon="6.77211">
        <ele>324</ele>
        <time>2015-04-26T10:40:14.000Z</time>
      </trkpt>
      <trkpt lat="47.5009" lon="6.77209">
        <ele>324</ele>
        <time>2015-04-26T10:40:15.000Z</time>
      </trkpt>
      <trkpt lat="47.50094" lon="6.77209">
        <ele>324</ele>
        <time>2015-04-26T10:40:16.000Z</time>
      </trkpt>
      <trkpt lat="47.501" lon="6.77207">
        <ele>324</ele>
        <time>2015-04-26T10:40:17.000Z</time>
      </trkpt>
      <trkpt lat="47.50105" lon="6.77208">
        <ele>324</ele>
        <time>2015-04-26T10:40:18.000Z</time>
      </trkpt>
      <trkpt lat="47.50111" lon="6.77209">
        <ele>323</ele>
        <time>2015-04-26T10:40:19.000Z</time>
      </trkpt>
      <trkpt lat="47.50118" lon="6.7721">
        <ele>323</ele>
        <time>2015-04-26T10:40:20.000Z</time>
      </trkpt>
      <trkpt lat="47.50124" lon="6.77211">
        <ele>322</ele>
        <time>2015-04-26T10:40:21.000Z</time>
      </trkpt>
      <trkpt lat="47.50131" lon="6.77211">
        <ele>322</ele>
        <time>2015-04-26T10:40:22.000Z</time>
      </trkpt>
      <trkpt lat="47.50138" lon="6.77212">
        <ele>322</ele>
        <time>2015-04-26T10:40:23.000Z</time>
      </trkpt>
      <trkpt lat="47.50145" lon="6.77215">
        <ele>321</ele>
        <time>2015-04-26T10:40:24.000Z</time>
      </trkpt>
      <trkpt lat="47.50151" lon="6.77219">
        <ele>320</ele>
        <time>2015-04-26T10:40:25.000Z</time>
      </trkpt>
      <trkpt lat="47.50156" lon="6.77224">
        <ele>319</ele>
        <time>2015-04-26T10:40:26.000Z</time>
      </trkpt>
      <trkpt lat="47.50162" lon="6.77228">
        <ele>319</ele>
        <time>2015-04-26T10:40:27.000Z</time>
      </trkpt>
      <trkpt lat="47.50167" lon="6.77233">
        <ele>315</ele>
        <time>2015-04-26T10:40:28.000Z</time>
      </trkpt>
      <trkpt lat="47.50174" lon="6.77236">
        <ele>315</ele>
        <time>2015-04-26T10:40:29.000Z</time>
      </trkpt>
      <trkpt lat="47.50179" lon="6.7724">
        <ele>315</ele>
        <time>2015-04-26T10:40:30.000Z</time>
      </trkpt>
      <trkpt lat="47.50185" lon="6.77244">
        <ele>315</ele>
        <time>2015-04-26T10:40:31.000Z</time>
      </trkpt>
      <trkpt lat="47.5019" lon="6.77249">
        <ele>315</ele>
        <time>2015-04-26T10:40:32.000Z</time>
      </trkpt>
      <trkpt lat="47.50196" lon="6.77254">
        <ele>313</ele>
        <time>2015-04-26T10:40:33.000Z</time>
      </trkpt>
      <trkpt lat="47.50201" lon="6.77258">
        <ele>313</ele>
        <time>2015-04-26T10:40:34.000Z</time>
      </trkpt>
      <trkpt lat="47.50206" lon="6.77263">
        <ele>313</ele>
        <time>2015-04-26T10:40:35.000Z</time>
      </trkpt>
      <trkpt lat="47.5021" lon="6.77268">
        <ele>313</ele>
        <time>2015-04-26T10:40:36.000Z</time>
      </trkpt>
      <trkpt lat="47.50216" lon="6.77272">
        <ele>313</ele>
        <time>2015-04-26T10:40:37.000Z</time>
      </trkpt>
      <trkpt lat="47.50221" lon="6.77276">
        <ele>313</ele>
        <time>2015-04-26T10:40:38.000Z</time>
      </trkpt>
      <trkpt lat="47.50226" lon="6.77279">
        <ele>313</ele>
        <time>2015-04-26T10:40:39.000Z</time>
      </trkpt>
      <trkpt lat="47.50231" lon="6.77283">
        <ele>313</ele>
        <time>2015-04-26T10:40:40.000Z</time>
      </trkpt>
      <trkpt lat="47.50236" lon="6.77285">
        <ele>313</ele>
        <time>2015-04-26T10:40:41.000Z</time>
      </trkpt>
      <trkpt lat="47.50241" lon="6.77288">
        <ele>313</ele>
        <time>2015-04-26T10:40:42.000Z</time>
      </trkpt>
      <trkpt lat="47.50246" lon="6.77291">
        <ele>313</ele>
        <time>2015-04-26T10:40:43.000Z</time>
      </trkpt>
      <trkpt lat="47.50251" lon="6.77295">
        <ele>313</ele>
        <time>2015-04-26T10:40:44.000Z</time>
      </trkpt>
      <trkpt lat="47.50257" lon="6.77297">
        <ele>313</ele>
        <time>2015-04-26T10:40:45.000Z</time>
      </trkpt>
      <trkpt lat="47.50262" lon="6.773">
        <ele>313</ele>
        <time>2015-04-26T10:40:46.000Z</time>
      </trkpt>
      <trkpt lat="47.50267" lon="6.77303">
        <ele>313</ele>
        <time>2015-04-26T10:40:47.000Z</time>
      </trkpt>
      <trkpt lat="47.50272" lon="6.77306">
        <ele>313</ele>
        <time>2015-04-26T10:40:48.000Z</time>
      </trkpt>
      <trkpt lat="47.50277" lon="6.7731">
        <ele>313</ele>
        <time>2015-04-26T10:40:49.000Z</time>
      </trkpt>
      <trkpt lat="47.50282" lon="6.77314">
        <ele>313</ele>
        <time>2015-04-26T10:40:50.000Z</time>
      </trkpt>
      <trkpt lat="47.50287" lon="6.77318">
        <ele>313</ele>
        <time>2015-04-26T10:40:51.000Z</time>
      </trkpt>
      <trkpt lat="47.50292" lon="6.77321">
        <ele>313</ele>
        <time>2015-04-26T10:40:52.000Z</time>
      </trkpt>
      <trkpt lat="47.50297" lon="6.77324">
        <ele>312</ele>
        <time>2015-04-26T10:40:53.000Z</time>
      </trkpt>
      <trkpt lat="47.50302" lon="6.77328">
        <ele>312</ele>
        <time>2015-04-26T10:40:54.000Z</time>
      </trkpt>
      <trkpt lat="47.50307" lon="6.77333">
        <ele>312</ele>
        <time>2015-04-26T10:40:55.000Z</time>
      </trkpt>
      <trkpt lat="47.50313" lon="6.77336">
        <ele>312</ele>
        <time>2015-04-26T10:40:56.000Z</time>
      </trkpt>
      <trkpt lat="47.50318" lon="6.7734">
        <ele>312</ele>
        <time>2015-04-26T10:40:57.000Z</time>
      </trkpt>
      <trkpt lat="47.50323" lon="6.77344">
        <ele>312</ele>
        <time>2015-04-26T10:40:58.000Z</time>
      </trkpt>
      <trkpt lat="47.50328" lon="6.77348">
        <ele>312</ele>
        <time>2015-04-26T10:40:59.000Z</time>
      </trkpt>
      <trkpt lat="47.50333" lon="6.77352">
        <ele>312</ele>
        <time>2015-04-26T10:41:00.000Z</time>
      </trkpt>
      <trkpt lat="47.50338" lon="6.77356">
        <ele>312</ele>
        <time>2015-04-26T10:41:01.000Z</time>
      </trkpt>
      <trkpt lat="47.50344" lon="6.7736">
        <ele>312</ele>
        <time>2015-04-26T10:41:02.000Z</time>
      </trkpt>
      <trkpt lat="47.50349" lon="6.77364">
        <ele>312</ele>
        <time>2015-04-26T10:41:03.000Z</time>
      </trkpt>
      <trkpt lat="47.50354" lon="6.77368">
        <ele>312</ele>
        <time>2015-04-26T10:41:04.000Z</time>
      </trkpt>
      <trkpt lat="47.50359" lon="6.77371">
        <ele>312</ele>
        <time>2015-04-26T10:41:05.000Z</time>
      </trkpt>
      <trkpt lat="47.50364" lon="6.77376">
        <ele>312</ele>
        <time>2015-04-26T10:41:06.000Z</time>
      </trkpt>
      <trkpt lat="47.50369" lon="6.77379">
        <ele>312</ele>
        <time>2015-04-26T10:41:07.000Z</time>
      </trkpt>
      <trkpt lat="47.50374" lon="6.77383">
        <ele>312</ele>
        <time>2015-04-26T10:41:08.000Z</time>
      </trkpt>
      <trkpt lat="47.5038" lon="6.77387">
        <ele>312</ele>
        <time>2015-04-26T10:41:09.000Z</time>
      </trkpt>
      <trkpt lat="47.50385" lon="6.77391">
        <ele>312</ele>
        <time>2015-04-26T10:41:10.000Z</time>
      </trkpt>
      <trkpt lat="47.5039" lon="6.77395">
        <ele>312</ele>
        <time>2015-04-26T10:41:11.000Z</time>
      </trkpt>
      <trkpt lat="47.50395" lon="6.77399">
        <ele>312</ele>
        <time>2015-04-26T10:41:12.000Z</time>
      </trkpt>
      <trkpt lat="47.504" lon="6.77403">
        <ele>312</ele>
        <time>2015-04-26T10:41:13.000Z</time>
      </trkpt>
      <trkpt lat="47.50405" lon="6.77408">
        <ele>311</ele>
        <time>2015-04-26T10:41:14.000Z</time>
      </trkpt>
      <trkpt lat="47.5041" lon="6.77412">
        <ele>311</ele>
        <time>2015-04-26T10:41:15.000Z</time>
      </trkpt>
      <trkpt lat="47.50415" lon="6.77416">
        <ele>311</ele>
        <time>2015-04-26T10:41:16.000Z</time>
      </trkpt>
      <trkpt lat="47.5042" lon="6.77421">
        <ele>311</ele>
        <time>2015-04-26T10:41:17.000Z</time>
      </trkpt>
      <trkpt lat="47.50424" lon="6.77426">
        <ele>312</ele>
        <time>2015-04-26T10:41:18.000Z</time>
      </trkpt>
      <trkpt lat="47.50429" lon="6.77431">
        <ele>312</ele>
        <time>2015-04-26T10:41:19.000Z</time>
      </trkpt>
      <trkpt lat="47.50434" lon="6.77434">
        <ele>312</ele>
        <time>2015-04-26T10:41:20.000Z</time>
      </trkpt>
      <trkpt lat="47.50438" lon="6.77439">
        <ele>312</ele>
        <time>2015-04-26T10:41:21.000Z</time>
      </trkpt>
      <trkpt lat="47.50443" lon="6.77443">
        <ele>312</ele>
        <time>2015-04-26T10:41:22.000Z</time>
      </trkpt>
      <trkpt lat="47.50448" lon="6.77448">
        <ele>312</ele>
        <time>2015-04-26T10:41:23.000Z</time>
      </trkpt>
      <trkpt lat="47.50453" lon="6.77452">
        <ele>312</ele>
        <time>2015-04-26T10:41:24.000Z</time>
      </trkpt>
      <trkpt lat="47.50457" lon="6.77456">
        <ele>312</ele>
        <time>2015-04-26T10:41:25.000Z</time>
      </trkpt>
      <trkpt lat="47.50462" lon="6.77459">
        <ele>313</ele>
        <time>2015-04-26T10:41:26.000Z</time>
      </trkpt>
      <trkpt lat="47.50467" lon="6.77464">
        <ele>313</ele>
        <time>2015-04-26T10:41:27.000Z</time>
      </trkpt>
      <trkpt lat="47.50472" lon="6.77468">
        <ele>313</ele>
        <time>2015-04-26T10:41:28.000Z</time>
      </trkpt>
      <trkpt lat="47.50476" lon="6.77471">
        <ele>313</ele>
        <time>2015-04-26T10:41:29.000Z</time>
      </trkpt>
      <trkpt lat="47.50481" lon="6.77475">
        <ele>313</ele>
        <time>2015-04-26T10:41:30.000Z</time>
      </trkpt>
      <trkpt lat="47.50486" lon="6.77478">
        <ele>313</ele>
        <time>2015-04-26T10:41:31.000Z</time>
      </trkpt>
      <trkpt lat="47.5049" lon="6.77483">
        <ele>313</ele>
        <time>2015-04-26T10:41:32.000Z</time>
      </trkpt>
      <trkpt lat="47.50495" lon="6.77486">
        <ele>313</ele>
        <time>2015-04-26T10:41:33.000Z</time>
      </trkpt>
      <trkpt lat="47.505" lon="6.7749">
        <ele>314</ele>
        <time>2015-04-26T10:41:34.000Z</time>
      </trkpt>
      <trkpt lat="47.50505" lon="6.77493">
        <ele>314</ele>
        <time>2015-04-26T10:41:35.000Z</time>
      </trkpt>
      <trkpt lat="47.5051" lon="6.77497">
        <ele>314</ele>
        <time>2015-04-26T10:41:36.000Z</time>
      </trkpt>
      <trkpt lat="47.50514" lon="6.775">
        <ele>314</ele>
        <time>2015-04-26T10:41:37.000Z</time>
      </trkpt>
      <trkpt lat="47.50518" lon="6.77503">
        <ele>314</ele>
        <time>2015-04-26T10:41:38.000Z</time>
      </trkpt>
      <trkpt lat="47.50523" lon="6.77506">
        <ele>314</ele>
        <time>2015-04-26T10:41:39.000Z</time>
      </trkpt>
      <trkpt lat="47.50527" lon="6.7751">
        <ele>314</ele>
        <time>2015-04-26T10:41:40.000Z</time>
      </trkpt>
      <trkpt lat="47.50531" lon="6.77512">
        <ele>313</ele>
        <time>2015-04-26T10:41:41.000Z</time>
      </trkpt>
      <trkpt lat="47.50535" lon="6.77514">
        <ele>313</ele>
        <time>2015-04-26T10:41:42.000Z</time>
      </trkpt>
      <trkpt lat="47.50539" lon="6.77517">
        <ele>313</ele>
        <time>2015-04-26T10:41:43.000Z</time>
      </trkpt>
      <trkpt lat="47.50543" lon="6.7752">
        <ele>313</ele>
        <time>2015-04-26T10:41:44.000Z</time>
      </trkpt>
      <trkpt lat="47.50546" lon="6.77524">
        <ele>313</ele>
        <time>2015-04-26T10:41:45.000Z</time>
      </trkpt>
      <trkpt lat="47.5055" lon="6.77529">
        <ele>313</ele>
        <time>2015-04-26T10:41:46.000Z</time>
      </trkpt>
      <trkpt lat="47.50553" lon="6.77534">
        <ele>313</ele>
        <time>2015-04-26T10:41:47.000Z</time>
      </trkpt>
      <trkpt lat="47.50556" lon="6.7754">
        <ele>313</ele>
        <time>2015-04-26T10:41:48.000Z</time>
      </trkpt>
      <trkpt lat="47.50559" lon="6.77546">
        <ele>313</ele>
        <time>2015-04-26T10:41:49.000Z</time>
      </trkpt>
      <trkpt lat="47.50561" lon="6.77551">
        <ele>313</ele>
        <time>2015-04-26T10:41:50.000Z</time>
      </trkpt>
      <trkpt lat="47.50566" lon="6.77551">
        <ele>313</ele>
        <time>2015-04-26T10:41:51.000Z</time>
      </trkpt>
      <trkpt lat="47.50572" lon="6.77552">
        <ele>313</ele>
        <time>2015-04-26T10:41:52.000Z</time>
      </trkpt>
      <trkpt lat="47.50577" lon="6.77551">
        <ele>313</ele>
        <time>2015-04-26T10:41:53.000Z</time>
      </trkpt>
      <trkpt lat="47.50582" lon="6.77549">
        <ele>313</ele>
        <time>2015-04-26T10:41:54.000Z</time>
      </trkpt>
      <trkpt lat="47.50584" lon="6.77543">
        <ele>313</ele>
        <time>2015-04-26T10:41:55.000Z</time>
      </trkpt>
      <trkpt lat="47.50587" lon="6.77539">
        <ele>313</ele>
        <time>2015-04-26T10:41:56.000Z</time>
      </trkpt>
      <trkpt lat="47.5059" lon="6.77536">
        <ele>313</ele>
        <time>2015-04-26T10:41:57.000Z</time>
      </trkpt>
      <trkpt lat="47.50594" lon="6.77535">
        <ele>313</ele>
        <time>2015-04-26T10:41:58.000Z</time>
      </trkpt>
      <trkpt lat="47.50599" lon="6.77535">
        <ele>313</ele>
        <time>2015-04-26T10:41:59.000Z</time>
      </trkpt>
      <trkpt lat="47.50603" lon="6.77533">
        <ele>313</ele>
        <time>2015-04-26T10:42:00.000Z</time>
      </trkpt>
      <trkpt lat="47.50609" lon="6.77533">
        <ele>313</ele>
        <time>2015-04-26T10:42:01.000Z</time>
      </trkpt>
      <trkpt lat="47.50611" lon="6.77528">
        <ele>313</ele>
        <time>2015-04-26T10:42:02.000Z</time>
      </trkpt>
      <trkpt lat="47.50614" lon="6.77526">
        <ele>313</ele>
        <time>2015-04-26T10:42:03.000Z</time>
      </trkpt>
      <trkpt lat="47.50619" lon="6.77525">
        <ele>313</ele>
        <time>2015-04-26T10:42:04.000Z</time>
      </trkpt>
      <trkpt lat="47.50625" lon="6.77532">
        <ele>313</ele>
        <time>2015-04-26T10:42:05.000Z</time>
      </trkpt>
      <trkpt lat="47.50631" lon="6.77535">
        <ele>313</ele>
        <time>2015-04-26T10:42:06.000Z</time>
      </trkpt>
      <trkpt lat="47.50636" lon="6.77536">
        <ele>313</ele>
        <time>2015-04-26T10:42:07.000Z</time>
      </trkpt>
      <trkpt lat="47.50641" lon="6.77538">
        <ele>313</ele>
        <time>2015-04-26T10:42:08.000Z</time>
      </trkpt>
      <trkpt lat="47.50646" lon="6.77538">
        <ele>313</ele>
        <time>2015-04-26T10:42:09.000Z</time>
      </trkpt>
      <trkpt lat="47.50651" lon="6.77539">
        <ele>313</ele>
        <time>2015-04-26T10:42:10.000Z</time>
      </trkpt>
      <trkpt lat="47.50655" lon="6.7754">
        <ele>313</ele>
        <time>2015-04-26T10:42:11.000Z</time>
      </trkpt>
      <trkpt lat="47.5066" lon="6.7754">
        <ele>313</ele>
        <time>2015-04-26T10:42:12.000Z</time>
      </trkpt>
      <trkpt lat="47.50665" lon="6.77539">
        <ele>313</ele>
        <time>2015-04-26T10:42:13.000Z</time>
      </trkpt>
      <trkpt lat="47.50669" lon="6.77537">
        <ele>313</ele>
        <time>2015-04-26T10:42:14.000Z</time>
      </trkpt>
      <trkpt lat="47.50673" lon="6.77536">
        <ele>313</ele>
        <time>2015-04-26T10:42:15.000Z</time>
      </trkpt>
      <trkpt lat="47.50679" lon="6.77536">
        <ele>313</ele>
        <time>2015-04-26T10:42:16.000Z</time>
      </trkpt>
      <trkpt lat="47.50684" lon="6.77536">
        <ele>313</ele>
        <time>2015-04-26T10:42:17.000Z</time>
      </trkpt>
      <trkpt lat="47.5069" lon="6.77536">
        <ele>313</ele>
        <time>2015-04-26T10:42:18.000Z</time>
      </trkpt>
      <trkpt lat="47.50695" lon="6.77535">
        <ele>313</ele>
        <time>2015-04-26T10:42:19.000Z</time>
      </trkpt>
      <trkpt lat="47.507" lon="6.77535">
        <ele>313</ele>
        <time>2015-04-26T10:42:20.000Z</time>
      </trkpt>
      <trkpt lat="47.50705" lon="6.77537">
        <ele>313</ele>
        <time>2015-04-26T10:42:21.000Z</time>
      </trkpt>
      <trkpt lat="47.5071" lon="6.77538">
        <ele>313</ele>
        <time>2015-04-26T10:42:22.000Z</time>
      </trkpt>
      <trkpt lat="47.50715" lon="6.77541">
        <ele>313</ele>
        <time>2015-04-26T10:42:23.000Z</time>
      </trkpt>
      <trkpt lat="47.5072" lon="6.77545">
        <ele>313</ele>
        <time>2015-04-26T10:42:24.000Z</time>
      </trkpt>
      <trkpt lat="47.50725" lon="6.77548">
        <ele>313</ele>
        <time>2015-04-26T10:42:25.000Z</time>
      </trkpt>
      <trkpt lat="47.5073" lon="6.77551">
        <ele>313</ele>
        <time>2015-04-26T10:42:26.000Z</time>
      </trkpt>
      <trkpt lat="47.50735" lon="6.7756">
        <ele>313</ele>
        <time>2015-04-26T10:42:27.000Z</time>
      </trkpt>
      <trkpt lat="47.50739" lon="6.77568">
        <ele>313</ele>
        <time>2015-04-26T10:42:28.000Z</time>
      </trkpt>
      <trkpt lat="47.50744" lon="6.77569">
        <ele>313</ele>
        <time>2015-04-26T10:42:29.000Z</time>
      </trkpt>
      <trkpt lat="47.5075" lon="6.7757">
        <ele>314</ele>
        <time>2015-04-26T10:42:30.000Z</time>
      </trkpt>
      <trkpt lat="47.50756" lon="6.77571">
        <ele>314</ele>
        <time>2015-04-26T10:42:31.000Z</time>
      </trkpt>
      <trkpt lat="47.50761" lon="6.77571">
        <ele>314</ele>
        <time>2015-04-26T10:42:32.000Z</time>
      </trkpt>
      <trkpt lat="47.50765" lon="6.77574">
        <ele>314</ele>
        <time>2015-04-26T10:42:33.000Z</time>
      </trkpt>
      <trkpt lat="47.50768" lon="6.77577">
        <ele>314</ele>
        <time>2015-04-26T10:42:34.000Z</time>
      </trkpt>
      <trkpt lat="47.50772" lon="6.77581">
        <ele>314</ele>
        <time>2015-04-26T10:42:35.000Z</time>
      </trkpt>
      <trkpt lat="47.50775" lon="6.77584">
        <ele>314</ele>
        <time>2015-04-26T10:42:36.000Z</time>
      </trkpt>
      <trkpt lat="47.5078" lon="6.77588">
        <ele>315</ele>
        <time>2015-04-26T10:42:37.000Z</time>
      </trkpt>
      <trkpt lat="47.50785" lon="6.77593">
        <ele>315</ele>
        <time>2015-04-26T10:42:38.000Z</time>
      </trkpt>
      <trkpt lat="47.5079" lon="6.77598">
        <ele>315</ele>
        <time>2015-04-26T10:42:39.000Z</time>
      </trkpt>
      <trkpt lat="47.50795" lon="6.77601">
        <ele>315</ele>
        <time>2015-04-26T10:42:40.000Z</time>
      </trkpt>
      <trkpt lat="47.508" lon="6.77603">
        <ele>315</ele>
        <time>2015-04-26T10:42:41.000Z</time>
      </trkpt>
      <trkpt lat="47.50805" lon="6.77608">
        <ele>315</ele>
        <time>2015-04-26T10:42:42.000Z</time>
      </trkpt>
      <trkpt lat="47.5081" lon="6.77611">
        <ele>315</ele>
        <time>2015-04-26T10:42:43.000Z</time>
      </trkpt>
      <trkpt lat="47.50816" lon="6.77616">
        <ele>316</ele>
        <time>2015-04-26T10:42:44.000Z</time>
      </trkpt>
      <trkpt lat="47.50821" lon="6.77621">
        <ele>316</ele>
        <time>2015-04-26T10:42:45.000Z</time>
      </trkpt>
      <trkpt lat="47.50825" lon="6.77626">
        <ele>316</ele>
        <time>2015-04-26T10:42:46.000Z</time>
      </trkpt>
      <trkpt lat="47.50831" lon="6.77629">
        <ele>316</ele>
        <time>2015-04-26T10:42:47.000Z</time>
      </trkpt>
      <trkpt lat="47.50835" lon="6.77635">
        <ele>317</ele>
        <time>2015-04-26T10:42:48.000Z</time>
      </trkpt>
      <trkpt lat="47.50838" lon="6.77639">
        <ele>317</ele>
        <time>2015-04-26T10:42:49.000Z</time>
      </trkpt>
      <trkpt lat="47.50842" lon="6.77644">
        <ele>317</ele>
        <time>2015-04-26T10:42:50.000Z</time>
      </trkpt>
      <trkpt lat="47.50847" lon="6.7765">
        <ele>317</ele>
        <time>2015-04-26T10:42:51.000Z</time>
      </trkpt>
      <trkpt lat="47.50851" lon="6.77656">
        <ele>317</ele>
        <time>2015-04-26T10:42:52.000Z</time>
      </trkpt>
      <trkpt lat="47.50854" lon="6.77662">
        <ele>317</ele>
        <time>2015-04-26T10:42:53.000Z</time>
      </trkpt>
      <trkpt lat="47.50858" lon="6.77667">
        <ele>317</ele>
        <time>2015-04-26T10:42:54.000Z</time>
      </trkpt>
      <trkpt lat="47.50862" lon="6.7767">
        <ele>316</ele>
        <time>2015-04-26T10:42:55.000Z</time>
      </trkpt>
      <trkpt lat="47.50865" lon="6.77674">
        <ele>316</ele>
        <time>2015-04-26T10:42:56.000Z</time>
      </trkpt>
      <trkpt lat="47.50868" lon="6.7768">
        <ele>316</ele>
        <time>2015-04-26T10:42:57.000Z</time>
      </trkpt>
      <trkpt lat="47.50872" lon="6.77685">
        <ele>316</ele>
        <time>2015-04-26T10:42:58.000Z</time>
      </trkpt>
      <trkpt lat="47.50875" lon="6.7769">
        <ele>316</ele>
        <time>2015-04-26T10:42:59.000Z</time>
      </trkpt>
      <trkpt lat="47.50878" lon="6.77696">
        <ele>316</ele>
        <time>2015-04-26T10:43:00.000Z</time>
      </trkpt>
      <trkpt lat="47.50883" lon="6.77703">
        <ele>316</ele>
        <time>2015-04-26T10:43:01.000Z</time>
      </trkpt>
      <trkpt lat="47.50887" lon="6.77706">
        <ele>316</ele>
        <time>2015-04-26T10:43:02.000Z</time>
      </trkpt>
      <trkpt lat="47.50891" lon="6.77706">
        <ele>316</ele>
        <time>2015-04-26T10:43:03.000Z</time>
      </trkpt>
      <trkpt lat="47.50895" lon="6.77708">
        <ele>316</ele>
        <time>2015-04-26T10:43:04.000Z</time>
      </trkpt>
      <trkpt lat="47.50899" lon="6.77707">
        <ele>316</ele>
        <time>2015-04-26T10:43:05.000Z</time>
      </trkpt>
      <trkpt lat="47.50903" lon="6.77706">
        <ele>316</ele>
        <time>2015-04-26T10:43:06.000Z</time>
      </trkpt>
      <trkpt lat="47.50908" lon="6.77706">
        <ele>316</ele>
        <time>2015-04-26T10:43:07.000Z</time>
      </trkpt>
      <trkpt lat="47.50912" lon="6.77705">
        <ele>316</ele>
        <time>2015-04-26T10:43:08.000Z</time>
      </trkpt>
      <trkpt lat="47.50918" lon="6.77704">
        <ele>315</ele>
        <time>2015-04-26T10:43:09.000Z</time>
      </trkpt>
      <trkpt lat="47.50922" lon="6.77705">
        <ele>315</ele>
        <time>2015-04-26T10:43:10.000Z</time>
      </trkpt>
      <trkpt lat="47.50927" lon="6.77706">
        <ele>315</ele>
        <time>2015-04-26T10:43:11.000Z</time>
      </trkpt>
      <trkpt lat="47.50931" lon="6.77706">
        <ele>315</ele>
        <time>2015-04-26T10:43:12.000Z</time>
      </trkpt>
      <trkpt lat="47.50933" lon="6.77704">
        <ele>315</ele>
        <time>2015-04-26T10:43:13.000Z</time>
      </trkpt>
      <trkpt lat="47.50935" lon="6.77703">
        <ele>315</ele>
        <time>2015-04-26T10:43:14.000Z</time>
      </trkpt>
      <trkpt lat="47.50938" lon="6.77704">
        <ele>315</ele>
        <time>2015-04-26T10:43:15.000Z</time>
      </trkpt>
      <trkpt lat="47.50941" lon="6.77705">
        <ele>315</ele>
        <time>2015-04-26T10:43:16.000Z</time>
      </trkpt>
      <trkpt lat="47.50944" lon="6.77705">
        <ele>315</ele>
        <time>2015-04-26T10:43:17.000Z</time>
      </trkpt>
      <trkpt lat="47.50946" lon="6.77705">
        <ele>315</ele>
        <time>2015-04-26T10:43:18.000Z</time>
      </trkpt>
      <trkpt lat="47.50949" lon="6.77705">
        <ele>315</ele>
        <time>2015-04-26T10:43:19.000Z</time>
      </trkpt>
      <trkpt lat="47.50952" lon="6.77703">
        <ele>315</ele>
        <time>2015-04-26T10:43:20.000Z</time>
      </trkpt>
      <trkpt lat="47.50954" lon="6.77702">
        <ele>315</ele>
        <time>2015-04-26T10:43:21.000Z</time>
      </trkpt>
      <trkpt lat="47.50957" lon="6.77701">
        <ele>315</ele>
        <time>2015-04-26T10:43:22.000Z</time>
      </trkpt>
      <trkpt lat="47.5096" lon="6.777">
        <ele>315</ele>
        <time>2015-04-26T10:43:23.000Z</time>
      </trkpt>
      <trkpt lat="47.50963" lon="6.77701">
        <ele>315</ele>
        <time>2015-04-26T10:43:24.000Z</time>
      </trkpt>
      <trkpt lat="47.50967" lon="6.77703">
        <ele>315</ele>
        <time>2015-04-26T10:43:25.000Z</time>
      </trkpt>
      <trkpt lat="47.50971" lon="6.77707">
        <ele>315</ele>
        <time>2015-04-26T10:43:26.000Z</time>
      </trkpt>
      <trkpt lat="47.50975" lon="6.7771">
        <ele>315</ele>
        <time>2015-04-26T10:43:27.000Z</time>
      </trkpt>
      <trkpt lat="47.50979" lon="6.77713">
        <ele>315</ele>
        <time>2015-04-26T10:43:28.000Z</time>
      </trkpt>
      <trkpt lat="47.50983" lon="6.77716">
        <ele>315</ele>
        <time>2015-04-26T10:43:29.000Z</time>
      </trkpt>
      <trkpt lat="47.50987" lon="6.77718">
        <ele>315</ele>
        <time>2015-04-26T10:43:30.000Z</time>
      </trkpt>
      <trkpt lat="47.50991" lon="6.7772">
        <ele>315</ele>
        <time>2015-04-26T10:43:31.000Z</time>
      </trkpt>
      <trkpt lat="47.50995" lon="6.77723">
        <ele>315</ele>
        <time>2015-04-26T10:43:32.000Z</time>
      </trkpt>
      <trkpt lat="47.50999" lon="6.77726">
        <ele>315</ele>
        <time>2015-04-26T10:43:33.000Z</time>
      </trkpt>
      <trkpt lat="47.51003" lon="6.77729">
        <ele>316</ele>
        <time>2015-04-26T10:43:34.000Z</time>
      </trkpt>
      <trkpt lat="47.51007" lon="6.77732">
        <ele>316</ele>
        <time>2015-04-26T10:43:35.000Z</time>
      </trkpt>
      <trkpt lat="47.51011" lon="6.77735">
        <ele>316</ele>
        <time>2015-04-26T10:43:36.000Z</time>
      </trkpt>
      <trkpt lat="47.51015" lon="6.77738">
        <ele>317</ele>
        <time>2015-04-26T10:43:37.000Z</time>
      </trkpt>
      <trkpt lat="47.51019" lon="6.77742">
        <ele>317</ele>
        <time>2015-04-26T10:43:38.000Z</time>
      </trkpt>
      <trkpt lat="47.51023" lon="6.77744">
        <ele>317</ele>
        <time>2015-04-26T10:43:39.000Z</time>
      </trkpt>
      <trkpt lat="47.51026" lon="6.77746">
        <ele>317</ele>
        <time>2015-04-26T10:43:40.000Z</time>
      </trkpt>
      <trkpt lat="47.5103" lon="6.77748">
        <ele>317</ele>
        <time>2015-04-26T10:43:41.000Z</time>
      </trkpt>
      <trkpt lat="47.51033" lon="6.7775">
        <ele>317</ele>
        <time>2015-04-26T10:43:42.000Z</time>
      </trkpt>
      <trkpt lat="47.51036" lon="6.77752">
        <ele>318</ele>
        <time>2015-04-26T10:43:43.000Z</time>
      </trkpt>
      <trkpt lat="47.5104" lon="6.77754">
        <ele>318</ele>
        <time>2015-04-26T10:43:44.000Z</time>
      </trkpt>
      <trkpt lat="47.51043" lon="6.77757">
        <ele>318</ele>
        <time>2015-04-26T10:43:45.000Z</time>
      </trkpt>
      <trkpt lat="47.51046" lon="6.7776">
        <ele>318</ele>
        <time>2015-04-26T10:43:46.000Z</time>
      </trkpt>
      <trkpt lat="47.51048" lon="6.77762">
        <ele>318</ele>
        <time>2015-04-26T10:43:47.000Z</time>
      </trkpt>
      <trkpt lat="47.5105" lon="6.77764">
        <ele>318</ele>
        <time>2015-04-26T10:43:48.000Z</time>
      </trkpt>
      <trkpt lat="47.51053" lon="6.77768">
        <ele>318</ele>
        <time>2015-04-26T10:43:50.000Z</time>
      </trkpt>
      <trkpt lat="47.51055" lon="6.77769">
        <ele>318</ele>
        <time>2015-04-26T10:43:51.000Z</time>
      </trkpt>
      <trkpt lat="47.51058" lon="6.77771">
        <ele>318</ele>
        <time>2015-04-26T10:43:52.000Z</time>
      </trkpt>
      <trkpt lat="47.5106" lon="6.77773">
        <ele>318</ele>
        <time>2015-04-26T10:43:53.000Z</time>
      </trkpt>
      <trkpt lat="47.51064" lon="6.77774">
        <ele>318</ele>
        <time>2015-04-26T10:43:54.000Z</time>
      </trkpt>
      <trkpt lat="47.51067" lon="6.77775">
        <ele>319</ele>
        <time>2015-04-26T10:43:55.000Z</time>
      </trkpt>
      <trkpt lat="47.51071" lon="6.77775">
        <ele>319</ele>
        <time>2015-04-26T10:43:56.000Z</time>
      </trkpt>
      <trkpt lat="47.51075" lon="6.77776">
        <ele>319</ele>
        <time>2015-04-26T10:43:57.000Z</time>
      </trkpt>
      <trkpt lat="47.51079" lon="6.77777">
        <ele>319</ele>
        <time>2015-04-26T10:43:58.000Z</time>
      </trkpt>
      <trkpt lat="47.51082" lon="6.77777">
        <ele>319</ele>
        <time>2015-04-26T10:43:59.000Z</time>
      </trkpt>
      <trkpt lat="47.51086" lon="6.77777">
        <ele>321</ele>
        <time>2015-04-26T10:44:00.000Z</time>
      </trkpt>
      <trkpt lat="47.51092" lon="6.7778">
        <ele>321</ele>
        <time>2015-04-26T10:44:01.000Z</time>
      </trkpt>
      <trkpt lat="47.51096" lon="6.77782">
        <ele>322</ele>
        <time>2015-04-26T10:44:02.000Z</time>
      </trkpt>
      <trkpt lat="47.511" lon="6.77783">
        <ele>322</ele>
        <time>2015-04-26T10:44:03.000Z</time>
      </trkpt>
      <trkpt lat="47.51103" lon="6.77784">
        <ele>322</ele>
        <time>2015-04-26T10:44:04.000Z</time>
      </trkpt>
      <trkpt lat="47.51107" lon="6.77784">
        <ele>322</ele>
        <time>2015-04-26T10:44:05.000Z</time>
      </trkpt>
      <trkpt lat="47.51111" lon="6.77785">
        <ele>322</ele>
        <time>2015-04-26T10:44:06.000Z</time>
      </trkpt>
      <trkpt lat="47.51114" lon="6.77787">
        <ele>322</ele>
        <time>2015-04-26T10:44:07.000Z</time>
      </trkpt>
      <trkpt lat="47.51118" lon="6.77788">
        <ele>322</ele>
        <time>2015-04-26T10:44:08.000Z</time>
      </trkpt>
      <trkpt lat="47.51121" lon="6.77788">
        <ele>322</ele>
        <time>2015-04-26T10:44:09.000Z</time>
      </trkpt>
      <trkpt lat="47.51125" lon="6.77788">
        <ele>322</ele>
        <time>2015-04-26T10:44:10.000Z</time>
      </trkpt>
      <trkpt lat="47.51128" lon="6.77789">
        <ele>322</ele>
        <time>2015-04-26T10:44:11.000Z</time>
      </trkpt>
      <trkpt lat="47.51132" lon="6.77789">
        <ele>322</ele>
        <time>2015-04-26T10:44:12.000Z</time>
      </trkpt>
      <trkpt lat="47.51135" lon="6.77789">
        <ele>322</ele>
        <time>2015-04-26T10:44:13.000Z</time>
      </trkpt>
      <trkpt lat="47.51138" lon="6.7779">
        <ele>323</ele>
        <time>2015-04-26T10:44:14.000Z</time>
      </trkpt>
      <trkpt lat="47.51141" lon="6.7779">
        <ele>323</ele>
        <time>2015-04-26T10:44:15.000Z</time>
      </trkpt>
      <trkpt lat="47.51144" lon="6.7779">
        <ele>323</ele>
        <time>2015-04-26T10:44:16.000Z</time>
      </trkpt>
      <trkpt lat="47.51146" lon="6.7779">
        <ele>323</ele>
        <time>2015-04-26T10:44:17.000Z</time>
      </trkpt>
      <trkpt lat="47.51149" lon="6.7779">
        <ele>323</ele>
        <time>2015-04-26T10:44:18.000Z</time>
      </trkpt>
      <trkpt lat="47.51152" lon="6.7779">
        <ele>323</ele>
        <time>2015-04-26T10:44:19.000Z</time>
      </trkpt>
      <trkpt lat="47.51155" lon="6.77789">
        <ele>323</ele>
        <time>2015-04-26T10:44:20.000Z</time>
      </trkpt>
      <trkpt lat="47.51158" lon="6.7779">
        <ele>323</ele>
        <time>2015-04-26T10:44:21.000Z</time>
      </trkpt>
      <trkpt lat="47.51161" lon="6.7779">
        <ele>323</ele>
        <time>2015-04-26T10:44:22.000Z</time>
      </trkpt>
      <trkpt lat="47.51164" lon="6.7779">
        <ele>323</ele>
        <time>2015-04-26T10:44:23.000Z</time>
      </trkpt>
      <trkpt lat="47.51167" lon="6.7779">
        <ele>323</ele>
        <time>2015-04-26T10:44:24.000Z</time>
      </trkpt>
      <trkpt lat="47.5117" lon="6.7779">
        <ele>326</ele>
        <time>2015-04-26T10:44:25.000Z</time>
      </trkpt>
      <trkpt lat="47.51173" lon="6.7779">
        <ele>326</ele>
        <time>2015-04-26T10:44:26.000Z</time>
      </trkpt>
      <trkpt lat="47.51177" lon="6.77789">
        <ele>326</ele>
        <time>2015-04-26T10:44:27.000Z</time>
      </trkpt>
      <trkpt lat="47.51179" lon="6.77789">
        <ele>326</ele>
        <time>2015-04-26T10:44:28.000Z</time>
      </trkpt>
      <trkpt lat="47.51182" lon="6.77789">
        <ele>326</ele>
        <time>2015-04-26T10:44:29.000Z</time>
      </trkpt>
      <trkpt lat="47.51185" lon="6.77789">
        <ele>326</ele>
        <time>2015-04-26T10:44:30.000Z</time>
      </trkpt>
      <trkpt lat="47.51187" lon="6.77789">
        <ele>326</ele>
        <time>2015-04-26T10:44:31.000Z</time>
      </trkpt>
      <trkpt lat="47.5119" lon="6.77788">
        <ele>326</ele>
        <time>2015-04-26T10:44:32.000Z</time>
      </trkpt>
      <trkpt lat="47.51193" lon="6.77788">
        <ele>327</ele>
        <time>2015-04-26T10:44:33.000Z</time>
      </trkpt>
      <trkpt lat="47.51196" lon="6.77788">
        <ele>327</ele>
        <time>2015-04-26T10:44:34.000Z</time>
      </trkpt>
      <trkpt lat="47.51199" lon="6.77787">
        <ele>327</ele>
        <time>2015-04-26T10:44:35.000Z</time>
      </trkpt>
      <trkpt lat="47.51202" lon="6.77787">
        <ele>327</ele>
        <time>2015-04-26T10:44:36.000Z</time>
      </trkpt>
      <trkpt lat="47.51204" lon="6.77786">
        <ele>327</ele>
        <time>2015-04-26T10:44:37.000Z</time>
      </trkpt>
      <trkpt lat="47.51207" lon="6.77786">
        <ele>327</ele>
        <time>2015-04-26T10:44:38.000Z</time>
      </trkpt>
      <trkpt lat="47.51209" lon="6.77787">
        <ele>327</ele>
        <time>2015-04-26T10:44:39.000Z</time>
      </trkpt>
      <trkpt lat="47.51213" lon="6.77787">
        <ele>327</ele>
        <time>2015-04-26T10:44:41.000Z</time>
      </trkpt>
      <trkpt lat="47.51215" lon="6.77786">
        <ele>327</ele>
        <time>2015-04-26T10:44:42.000Z</time>
      </trkpt>
      <trkpt lat="47.51218" lon="6.77785">
        <ele>327</ele>
        <time>2015-04-26T10:44:43.000Z</time>
      </trkpt>
      <trkpt lat="47.5122" lon="6.77785">
        <ele>327</ele>
        <time>2015-04-26T10:44:44.000Z</time>
      </trkpt>
      <trkpt lat="47.51222" lon="6.77785">
        <ele>327</ele>
        <time>2015-04-26T10:44:45.000Z</time>
      </trkpt>
      <trkpt lat="47.51224" lon="6.77785">
        <ele>327</ele>
        <time>2015-04-26T10:44:46.000Z</time>
      </trkpt>
      <trkpt lat="47.51228" lon="6.77784">
        <ele>328</ele>
        <time>2015-04-26T10:44:48.000Z</time>
      </trkpt>
      <trkpt lat="47.5123" lon="6.77784">
        <ele>328</ele>
        <time>2015-04-26T10:44:49.000Z</time>
      </trkpt>
      <trkpt lat="47.51234" lon="6.77784">
        <ele>328</ele>
        <time>2015-04-26T10:44:51.000Z</time>
      </trkpt>
      <trkpt lat="47.51236" lon="6.77784">
        <ele>328</ele>
        <time>2015-04-26T10:44:52.000Z</time>
      </trkpt>
      <trkpt lat="47.5124" lon="6.77784">
        <ele>328</ele>
        <time>2015-04-26T10:44:54.000Z</time>
      </trkpt>
      <trkpt lat="47.51242" lon="6.77784">
        <ele>328</ele>
        <time>2015-04-26T10:44:55.000Z</time>
      </trkpt>
      <trkpt lat="47.51246" lon="6.77783">
        <ele>328</ele>
        <time>2015-04-26T10:44:57.000Z</time>
      </trkpt>
      <trkpt lat="47.51248" lon="6.77783">
        <ele>328</ele>
        <time>2015-04-26T10:44:58.000Z</time>
      </trkpt>
      <trkpt lat="47.51252" lon="6.77781">
        <ele>333</ele>
        <time>2015-04-26T10:45:00.000Z</time>
      </trkpt>
      <trkpt lat="47.51254" lon="6.77781">
        <ele>334</ele>
        <time>2015-04-26T10:45:01.000Z</time>
      </trkpt>
      <trkpt lat="47.51258" lon="6.77781">
        <ele>334</ele>
        <time>2015-04-26T10:45:03.000Z</time>
      </trkpt>
      <trkpt lat="47.5126" lon="6.77781">
        <ele>334</ele>
        <time>2015-04-26T10:45:04.000Z</time>
      </trkpt>
      <trkpt lat="47.51264" lon="6.77782">
        <ele>334</ele>
        <time>2015-04-26T10:45:06.000Z</time>
      </trkpt>
      <trkpt lat="47.51266" lon="6.77783">
        <ele>334</ele>
        <time>2015-04-26T10:45:07.000Z</time>
      </trkpt>
      <trkpt lat="47.5127" lon="6.77782">
        <ele>334</ele>
        <time>2015-04-26T10:45:09.000Z</time>
      </trkpt>
      <trkpt lat="47.51272" lon="6.77782">
        <ele>335</ele>
        <time>2015-04-26T10:45:10.000Z</time>
      </trkpt>
      <trkpt lat="47.51275" lon="6.77781">
        <ele>335</ele>
        <time>2015-04-26T10:45:12.000Z</time>
      </trkpt>
      <trkpt lat="47.51277" lon="6.77781">
        <ele>335</ele>
        <time>2015-04-26T10:45:13.000Z</time>
      </trkpt>
      <trkpt lat="47.51282" lon="6.77781">
        <ele>335</ele>
        <time>2015-04-26T10:45:15.000Z</time>
      </trkpt>
      <trkpt lat="47.51284" lon="6.77781">
        <ele>336</ele>
        <time>2015-04-26T10:45:16.000Z</time>
      </trkpt>
      <trkpt lat="47.51288" lon="6.77781">
        <ele>336</ele>
        <time>2015-04-26T10:45:18.000Z</time>
      </trkpt>
      <trkpt lat="47.5129" lon="6.77782">
        <ele>336</ele>
        <time>2015-04-26T10:45:19.000Z</time>
      </trkpt>
      <trkpt lat="47.51293" lon="6.77783">
        <ele>336</ele>
        <time>2015-04-26T10:45:21.000Z</time>
      </trkpt>
      <trkpt lat="47.51295" lon="6.77783">
        <ele>337</ele>
        <time>2015-04-26T10:45:22.000Z</time>
      </trkpt>
      <trkpt lat="47.513" lon="6.77782">
        <ele>337</ele>
        <time>2015-04-26T10:45:24.000Z</time>
      </trkpt>
      <trkpt lat="47.51302" lon="6.77781">
        <ele>337</ele>
        <time>2015-04-26T10:45:25.000Z</time>
      </trkpt>
      <trkpt lat="47.51306" lon="6.7778">
        <ele>337</ele>
        <time>2015-04-26T10:45:27.000Z</time>
      </trkpt>
      <trkpt lat="47.51308" lon="6.77779">
        <ele>338</ele>
        <time>2015-04-26T10:45:28.000Z</time>
      </trkpt>
      <trkpt lat="47.51311" lon="6.77778">
        <ele>338</ele>
        <time>2015-04-26T10:45:30.000Z</time>
      </trkpt>
      <trkpt lat="47.51312" lon="6.77778">
        <ele>338</ele>
        <time>2015-04-26T10:45:31.000Z</time>
      </trkpt>
      <trkpt lat="47.51316" lon="6.77777">
        <ele>338</ele>
        <time>2015-04-26T10:45:33.000Z</time>
      </trkpt>
      <trkpt lat="47.51317" lon="6.77777">
        <ele>338</ele>
        <time>2015-04-26T10:45:34.000Z</time>
      </trkpt>
      <trkpt lat="47.51321" lon="6.77777">
        <ele>339</ele>
        <time>2015-04-26T10:45:36.000Z</time>
      </trkpt>
      <trkpt lat="47.51322" lon="6.77777">
        <ele>339</ele>
        <time>2015-04-26T10:45:37.000Z</time>
      </trkpt>
      <trkpt lat="47.51326" lon="6.77781">
        <ele>339</ele>
        <time>2015-04-26T10:45:40.000Z</time>
      </trkpt>
      <trkpt lat="47.51327" lon="6.77782">
        <ele>339</ele>
        <time>2015-04-26T10:45:41.000Z</time>
      </trkpt>
      <trkpt lat="47.5133" lon="6.77786">
        <ele>339</ele>
        <time>2015-04-26T10:45:44.000Z</time>
      </trkpt>
      <trkpt lat="47.51332" lon="6.77787">
        <ele>339</ele>
        <time>2015-04-26T10:45:45.000Z</time>
      </trkpt>
      <trkpt lat="47.51336" lon="6.77789">
        <ele>348</ele>
        <time>2015-04-26T10:45:48.000Z</time>
      </trkpt>
      <trkpt lat="47.51337" lon="6.77789">
        <ele>348</ele>
        <time>2015-04-26T10:45:49.000Z</time>
      </trkpt>
      <trkpt lat="47.51339" lon="6.77787">
        <ele>348</ele>
        <time>2015-04-26T10:45:51.000Z</time>
      </trkpt>
      <trkpt lat="47.51341" lon="6.77785">
        <ele>348</ele>
        <time>2015-04-26T10:45:52.000Z</time>
      </trkpt>
      <trkpt lat="47.51344" lon="6.77782">
        <ele>349</ele>
        <time>2015-04-26T10:45:54.000Z</time>
      </trkpt>
      <trkpt lat="47.51346" lon="6.7778">
        <ele>349</ele>
        <time>2015-04-26T10:45:55.000Z</time>
      </trkpt>
      <trkpt lat="47.5135" lon="6.77778">
        <ele>349</ele>
        <time>2015-04-26T10:45:57.000Z</time>
      </trkpt>
      <trkpt lat="47.51351" lon="6.77776">
        <ele>349</ele>
        <time>2015-04-26T10:45:58.000Z</time>
      </trkpt>
      <trkpt lat="47.51355" lon="6.77774">
        <ele>349</ele>
        <time>2015-04-26T10:46:00.000Z</time>
      </trkpt>
      <trkpt lat="47.51357" lon="6.77773">
        <ele>349</ele>
        <time>2015-04-26T10:46:01.000Z</time>
      </trkpt>
      <trkpt lat="47.51361" lon="6.77771">
        <ele>349</ele>
        <time>2015-04-26T10:46:03.000Z</time>
      </trkpt>
      <trkpt lat="47.51362" lon="6.7777">
        <ele>350</ele>
        <time>2015-04-26T10:46:04.000Z</time>
      </trkpt>
      <trkpt lat="47.51366" lon="6.77768">
        <ele>350</ele>
        <time>2015-04-26T10:46:06.000Z</time>
      </trkpt>
      <trkpt lat="47.51367" lon="6.77767">
        <ele>350</ele>
        <time>2015-04-26T10:46:07.000Z</time>
      </trkpt>
      <trkpt lat="47.51369" lon="6.77766">
        <ele>350</ele>
        <time>2015-04-26T10:46:08.000Z</time>
      </trkpt>
      <trkpt lat="47.51372" lon="6.77764">
        <ele>350</ele>
        <time>2015-04-26T10:46:09.000Z</time>
      </trkpt>
      <trkpt lat="47.51374" lon="6.77761">
        <ele>351</ele>
        <time>2015-04-26T10:46:10.000Z</time>
      </trkpt>
      <trkpt lat="47.51377" lon="6.77758">
        <ele>351</ele>
        <time>2015-04-26T10:46:11.000Z</time>
      </trkpt>
      <trkpt lat="47.5138" lon="6.77756">
        <ele>351</ele>
        <time>2015-04-26T10:46:12.000Z</time>
      </trkpt>
      <trkpt lat="47.51382" lon="6.77755">
        <ele>352</ele>
        <time>2015-04-26T10:46:13.000Z</time>
      </trkpt>
      <trkpt lat="47.51385" lon="6.77757">
        <ele>352</ele>
        <time>2015-04-26T10:46:18.000Z</time>
      </trkpt>
      <trkpt lat="47.51385" lon="6.77759">
        <ele>352</ele>
        <time>2015-04-26T10:46:19.000Z</time>
      </trkpt>
      <trkpt lat="47.5139" lon="6.7776">
        <ele>353</ele>
        <time>2015-04-26T10:46:24.000Z</time>
      </trkpt>
      <trkpt lat="47.51391" lon="6.7776">
        <ele>353</ele>
        <time>2015-04-26T10:46:25.000Z</time>
      </trkpt>
      <trkpt lat="47.51395" lon="6.7776">
        <ele>353</ele>
        <time>2015-04-26T10:46:29.000Z</time>
      </trkpt>
      <trkpt lat="47.51396" lon="6.77759">
        <ele>353</ele>
        <time>2015-04-26T10:46:30.000Z</time>
      </trkpt>
      <trkpt lat="47.51399" lon="6.77755">
        <ele>354</ele>
        <time>2015-04-26T10:46:33.000Z</time>
      </trkpt>
      <trkpt lat="47.51401" lon="6.77754">
        <ele>354</ele>
        <time>2015-04-26T10:46:34.000Z</time>
      </trkpt>
      <trkpt lat="47.51404" lon="6.77753">
        <ele>354</ele>
        <time>2015-04-26T10:46:36.000Z</time>
      </trkpt>
      <trkpt lat="47.51406" lon="6.77752">
        <ele>354</ele>
        <time>2015-04-26T10:46:37.000Z</time>
      </trkpt>
      <trkpt lat="47.51409" lon="6.77752">
        <ele>355</ele>
        <time>2015-04-26T10:46:39.000Z</time>
      </trkpt>
      <trkpt lat="47.51411" lon="6.77751">
        <ele>355</ele>
        <time>2015-04-26T10:46:40.000Z</time>
      </trkpt>
      <trkpt lat="47.51414" lon="6.7775">
        <ele>356</ele>
        <time>2015-04-26T10:46:42.000Z</time>
      </trkpt>
      <trkpt lat="47.51415" lon="6.7775">
        <ele>356</ele>
        <time>2015-04-26T10:46:43.000Z</time>
      </trkpt>
      <trkpt lat="47.51419" lon="6.77749">
        <ele>357</ele>
        <time>2015-04-26T10:46:45.000Z</time>
      </trkpt>
      <trkpt lat="47.51421" lon="6.77749">
        <ele>358</ele>
        <time>2015-04-26T10:46:46.000Z</time>
      </trkpt>
      <trkpt lat="47.51423" lon="6.77748">
        <ele>359</ele>
        <time>2015-04-26T10:46:47.000Z</time>
      </trkpt>
      <trkpt lat="47.51426" lon="6.77747">
        <ele>359</ele>
        <time>2015-04-26T10:46:48.000Z</time>
      </trkpt>
      <trkpt lat="47.51428" lon="6.77747">
        <ele>360</ele>
        <time>2015-04-26T10:46:49.000Z</time>
      </trkpt>
      <trkpt lat="47.51431" lon="6.77746">
        <ele>361</ele>
        <time>2015-04-26T10:46:50.000Z</time>
      </trkpt>
      <trkpt lat="47.51434" lon="6.77745">
        <ele>361</ele>
        <time>2015-04-26T10:46:51.000Z</time>
      </trkpt>
      <trkpt lat="47.51437" lon="6.77744">
        <ele>362</ele>
        <time>2015-04-26T10:46:52.000Z</time>
      </trkpt>
      <trkpt lat="47.5144" lon="6.77742">
        <ele>363</ele>
        <time>2015-04-26T10:46:53.000Z</time>
      </trkpt>
      <trkpt lat="47.51442" lon="6.77741">
        <ele>363</ele>
        <time>2015-04-26T10:46:54.000Z</time>
      </trkpt>
      <trkpt lat="47.51446" lon="6.7774">
        <ele>363</ele>
        <time>2015-04-26T10:46:56.000Z</time>
      </trkpt>
      <trkpt lat="47.51448" lon="6.7774">
        <ele>364</ele>
        <time>2015-04-26T10:46:57.000Z</time>
      </trkpt>
      <trkpt lat="47.51452" lon="6.77741">
        <ele>364</ele>
        <time>2015-04-26T10:47:00.000Z</time>
      </trkpt>
      <trkpt lat="47.51453" lon="6.77742">
        <ele>364</ele>
        <time>2015-04-26T10:47:01.000Z</time>
      </trkpt>
      <trkpt lat="47.51456" lon="6.77742">
        <ele>364</ele>
        <time>2015-04-26T10:47:03.000Z</time>
      </trkpt>
      <trkpt lat="47.51458" lon="6.77741">
        <ele>364</ele>
        <time>2015-04-26T10:47:04.000Z</time>
      </trkpt>
      <trkpt lat="47.51461" lon="6.7774">
        <ele>365</ele>
        <time>2015-04-26T10:47:06.000Z</time>
      </trkpt>
      <trkpt lat="47.51463" lon="6.77739">
        <ele>365</ele>
        <time>2015-04-26T10:47:07.000Z</time>
      </trkpt>
      <trkpt lat="47.51466" lon="6.77738">
        <ele>365</ele>
        <time>2015-04-26T10:47:09.000Z</time>
      </trkpt>
      <trkpt lat="47.51468" lon="6.77738">
        <ele>365</ele>
        <time>2015-04-26T10:47:10.000Z</time>
      </trkpt>
      <trkpt lat="47.51471" lon="6.7774">
        <ele>365</ele>
        <time>2015-04-26T10:47:12.000Z</time>
      </trkpt>
      <trkpt lat="47.51473" lon="6.77741">
        <ele>365</ele>
        <time>2015-04-26T10:47:13.000Z</time>
      </trkpt>
      <trkpt lat="47.51477" lon="6.77743">
        <ele>365</ele>
        <time>2015-04-26T10:47:16.000Z</time>
      </trkpt>
      <trkpt lat="47.51478" lon="6.77743">
        <ele>365</ele>
        <time>2015-04-26T10:47:17.000Z</time>
      </trkpt>
      <trkpt lat="47.51482" lon="6.77742">
        <ele>365</ele>
        <time>2015-04-26T10:47:19.000Z</time>
      </trkpt>
      <trkpt lat="47.51483" lon="6.77742">
        <ele>365</ele>
        <time>2015-04-26T10:47:20.000Z</time>
      </trkpt>
      <trkpt lat="47.51487" lon="6.77742">
        <ele>365</ele>
        <time>2015-04-26T10:47:22.000Z</time>
      </trkpt>
      <trkpt lat="47.51488" lon="6.77741">
        <ele>365</ele>
        <time>2015-04-26T10:47:23.000Z</time>
      </trkpt>
      <trkpt lat="47.51492" lon="6.7774">
        <ele>365</ele>
        <time>2015-04-26T10:47:25.000Z</time>
      </trkpt>
      <trkpt lat="47.51494" lon="6.7774">
        <ele>365</ele>
        <time>2015-04-26T10:47:26.000Z</time>
      </trkpt>
      <trkpt lat="47.51497" lon="6.7774">
        <ele>365</ele>
        <time>2015-04-26T10:47:28.000Z</time>
      </trkpt>
      <trkpt lat="47.51499" lon="6.7774">
        <ele>365</ele>
        <time>2015-04-26T10:47:29.000Z</time>
      </trkpt>
      <trkpt lat="47.51503" lon="6.7774">
        <ele>368</ele>
        <time>2015-04-26T10:47:31.000Z</time>
      </trkpt>
      <trkpt lat="47.51505" lon="6.7774">
        <ele>368</ele>
        <time>2015-04-26T10:47:32.000Z</time>
      </trkpt>
      <trkpt lat="47.51509" lon="6.77741">
        <ele>368</ele>
        <time>2015-04-26T10:47:34.000Z</time>
      </trkpt>
      <trkpt lat="47.5151" lon="6.77742">
        <ele>369</ele>
        <time>2015-04-26T10:47:35.000Z</time>
      </trkpt>
      <trkpt lat="47.51514" lon="6.77741">
        <ele>369</ele>
        <time>2015-04-26T10:47:38.000Z</time>
      </trkpt>
      <trkpt lat="47.51516" lon="6.7774">
        <ele>370</ele>
        <time>2015-04-26T10:47:39.000Z</time>
      </trkpt>
      <trkpt lat="47.51519" lon="6.7774">
        <ele>370</ele>
        <time>2015-04-26T10:47:41.000Z</time>
      </trkpt>
      <trkpt lat="47.51521" lon="6.77739">
        <ele>371</ele>
        <time>2015-04-26T10:47:42.000Z</time>
      </trkpt>
      <trkpt lat="47.51524" lon="6.77738">
        <ele>371</ele>
        <time>2015-04-26T10:47:43.000Z</time>
      </trkpt>
      <trkpt lat="47.51526" lon="6.77736">
        <ele>371</ele>
        <time>2015-04-26T10:47:44.000Z</time>
      </trkpt>
      <trkpt lat="47.51529" lon="6.77736">
        <ele>372</ele>
        <time>2015-04-26T10:47:46.000Z</time>
      </trkpt>
      <trkpt lat="47.51531" lon="6.77737">
        <ele>372</ele>
        <time>2015-04-26T10:47:47.000Z</time>
      </trkpt>
      <trkpt lat="47.51535" lon="6.77738">
        <ele>372</ele>
        <time>2015-04-26T10:47:49.000Z</time>
      </trkpt>
      <trkpt lat="47.51537" lon="6.77738">
        <ele>372</ele>
        <time>2015-04-26T10:47:50.000Z</time>
      </trkpt>
      <trkpt lat="47.51541" lon="6.77737">
        <ele>373</ele>
        <time>2015-04-26T10:47:52.000Z</time>
      </trkpt>
      <trkpt lat="47.51543" lon="6.77737">
        <ele>373</ele>
        <time>2015-04-26T10:47:53.000Z</time>
      </trkpt>
      <trkpt lat="47.51547" lon="6.77737">
        <ele>373</ele>
        <time>2015-04-26T10:47:55.000Z</time>
      </trkpt>
      <trkpt lat="47.51549" lon="6.77738">
        <ele>373</ele>
        <time>2015-04-26T10:47:56.000Z</time>
      </trkpt>
      <trkpt lat="47.51553" lon="6.7774">
        <ele>374</ele>
        <time>2015-04-26T10:47:58.000Z</time>
      </trkpt>
      <trkpt lat="47.51555" lon="6.77741">
        <ele>374</ele>
        <time>2015-04-26T10:47:59.000Z</time>
      </trkpt>
      <trkpt lat="47.51558" lon="6.77741">
        <ele>374</ele>
        <time>2015-04-26T10:48:00.000Z</time>
      </trkpt>
      <trkpt lat="47.51561" lon="6.7774">
        <ele>374</ele>
        <time>2015-04-26T10:48:01.000Z</time>
      </trkpt>
      <trkpt lat="47.51563" lon="6.7774">
        <ele>374</ele>
        <time>2015-04-26T10:48:02.000Z</time>
      </trkpt>
      <trkpt lat="47.51565" lon="6.77739">
        <ele>374</ele>
        <time>2015-04-26T10:48:03.000Z</time>
      </trkpt>
      <trkpt lat="47.51569" lon="6.7774">
        <ele>375</ele>
        <time>2015-04-26T10:48:05.000Z</time>
      </trkpt>
      <trkpt lat="47.51571" lon="6.7774">
        <ele>375</ele>
        <time>2015-04-26T10:48:06.000Z</time>
      </trkpt>
      <trkpt lat="47.51575" lon="6.77739">
        <ele>375</ele>
        <time>2015-04-26T10:48:08.000Z</time>
      </trkpt>
      <trkpt lat="47.51577" lon="6.77738">
        <ele>375</ele>
        <time>2015-04-26T10:48:09.000Z</time>
      </trkpt>
      <trkpt lat="47.51581" lon="6.77738">
        <ele>375</ele>
        <time>2015-04-26T10:48:11.000Z</time>
      </trkpt>
      <trkpt lat="47.51582" lon="6.77739">
        <ele>375</ele>
        <time>2015-04-26T10:48:12.000Z</time>
      </trkpt>
      <trkpt lat="47.51585" lon="6.77744">
        <ele>377</ele>
        <time>2015-04-26T10:48:14.000Z</time>
      </trkpt>
      <trkpt lat="47.51587" lon="6.77747">
        <ele>377</ele>
        <time>2015-04-26T10:48:15.000Z</time>
      </trkpt>
      <trkpt lat="47.51589" lon="6.77749">
        <ele>377</ele>
        <time>2015-04-26T10:48:16.000Z</time>
      </trkpt>
      <trkpt lat="47.51591" lon="6.77752">
        <ele>378</ele>
        <time>2015-04-26T10:48:17.000Z</time>
      </trkpt>
      <trkpt lat="47.51595" lon="6.77754">
        <ele>379</ele>
        <time>2015-04-26T10:48:19.000Z</time>
      </trkpt>
      <trkpt lat="47.51597" lon="6.77755">
        <ele>379</ele>
        <time>2015-04-26T10:48:20.000Z</time>
      </trkpt>
      <trkpt lat="47.516" lon="6.7776">
        <ele>380</ele>
        <time>2015-04-26T10:48:23.000Z</time>
      </trkpt>
      <trkpt lat="47.51601" lon="6.77761">
        <ele>380</ele>
        <time>2015-04-26T10:48:24.000Z</time>
      </trkpt>
      <trkpt lat="47.51604" lon="6.77762">
        <ele>380</ele>
        <time>2015-04-26T10:48:26.000Z</time>
      </trkpt>
      <trkpt lat="47.51606" lon="6.77762">
        <ele>380</ele>
        <time>2015-04-26T10:48:27.000Z</time>
      </trkpt>
      <trkpt lat="47.5161" lon="6.77761">
        <ele>381</ele>
        <time>2015-04-26T10:48:29.000Z</time>
      </trkpt>
      <trkpt lat="47.51611" lon="6.77762">
        <ele>381</ele>
        <time>2015-04-26T10:48:30.000Z</time>
      </trkpt>
      <trkpt lat="47.51615" lon="6.77763">
        <ele>381</ele>
        <time>2015-04-26T10:48:32.000Z</time>
      </trkpt>
      <trkpt lat="47.51617" lon="6.77764">
        <ele>381</ele>
        <time>2015-04-26T10:48:33.000Z</time>
      </trkpt>
      <trkpt lat="47.5162" lon="6.77765">
        <ele>381</ele>
        <time>2015-04-26T10:48:35.000Z</time>
      </trkpt>
      <trkpt lat="47.51622" lon="6.77766">
        <ele>382</ele>
        <time>2015-04-26T10:48:36.000Z</time>
      </trkpt>
      <trkpt lat="47.51625" lon="6.77766">
        <ele>382</ele>
        <time>2015-04-26T10:48:37.000Z</time>
      </trkpt>
      <trkpt lat="47.51627" lon="6.77767">
        <ele>382</ele>
        <time>2015-04-26T10:48:38.000Z</time>
      </trkpt>
      <trkpt lat="47.51631" lon="6.77768">
        <ele>382</ele>
        <time>2015-04-26T10:48:40.000Z</time>
      </trkpt>
      <trkpt lat="47.51632" lon="6.7777">
        <ele>382</ele>
        <time>2015-04-26T10:48:41.000Z</time>
      </trkpt>
      <trkpt lat="47.51635" lon="6.77772">
        <ele>382</ele>
        <time>2015-04-26T10:48:43.000Z</time>
      </trkpt>
      <trkpt lat="47.51636" lon="6.77773">
        <ele>382</ele>
        <time>2015-04-26T10:48:44.000Z</time>
      </trkpt>
      <trkpt lat="47.5164" lon="6.77773">
        <ele>382</ele>
        <time>2015-04-26T10:48:48.000Z</time>
      </trkpt>
      <trkpt lat="47.51641" lon="6.77773">
        <ele>382</ele>
        <time>2015-04-26T10:48:49.000Z</time>
      </trkpt>
      <trkpt lat="47.51645" lon="6.77773">
        <ele>383</ele>
        <time>2015-04-26T10:48:51.000Z</time>
      </trkpt>
      <trkpt lat="47.51647" lon="6.77773">
        <ele>383</ele>
        <time>2015-04-26T10:48:52.000Z</time>
      </trkpt>
      <trkpt lat="47.51651" lon="6.77774">
        <ele>383</ele>
        <time>2015-04-26T10:48:54.000Z</time>
      </trkpt>
      <trkpt lat="47.51653" lon="6.77775">
        <ele>383</ele>
        <time>2015-04-26T10:48:55.000Z</time>
      </trkpt>
      <trkpt lat="47.51657" lon="6.77777">
        <ele>383</ele>
        <time>2015-04-26T10:48:57.000Z</time>
      </trkpt>
      <trkpt lat="47.51658" lon="6.77778">
        <ele>383</ele>
        <time>2015-04-26T10:48:58.000Z</time>
      </trkpt>
      <trkpt lat="47.51662" lon="6.77781">
        <ele>383</ele>
        <time>2015-04-26T10:49:01.000Z</time>
      </trkpt>
      <trkpt lat="47.51663" lon="6.77782">
        <ele>383</ele>
        <time>2015-04-26T10:49:02.000Z</time>
      </trkpt>
      <trkpt lat="47.51667" lon="6.77784">
        <ele>385</ele>
        <time>2015-04-26T10:49:05.000Z</time>
      </trkpt>
      <trkpt lat="47.51669" lon="6.77784">
        <ele>385</ele>
        <time>2015-04-26T10:49:06.000Z</time>
      </trkpt>
      <trkpt lat="47.51672" lon="6.77786">
        <ele>385</ele>
        <time>2015-04-26T10:49:08.000Z</time>
      </trkpt>
      <trkpt lat="47.51673" lon="6.77787">
        <ele>385</ele>
        <time>2015-04-26T10:49:09.000Z</time>
      </trkpt>
      <trkpt lat="47.51677" lon="6.77784">
        <ele>385</ele>
        <time>2015-04-26T10:49:11.000Z</time>
      </trkpt>
      <trkpt lat="47.51679" lon="6.77781">
        <ele>385</ele>
        <time>2015-04-26T10:49:12.000Z</time>
      </trkpt>
      <trkpt lat="47.51681" lon="6.77778">
        <ele>385</ele>
        <time>2015-04-26T10:49:13.000Z</time>
      </trkpt>
      <trkpt lat="47.51683" lon="6.77776">
        <ele>385</ele>
        <time>2015-04-26T10:49:14.000Z</time>
      </trkpt>
      <trkpt lat="47.51685" lon="6.77774">
        <ele>385</ele>
        <time>2015-04-26T10:49:15.000Z</time>
      </trkpt>
      <trkpt lat="47.51686" lon="6.77772">
        <ele>385</ele>
        <time>2015-04-26T10:49:16.000Z</time>
      </trkpt>
      <trkpt lat="47.51688" lon="6.77769">
        <ele>385</ele>
        <time>2015-04-26T10:49:17.000Z</time>
      </trkpt>
      <trkpt lat="47.5169" lon="6.77765">
        <ele>385</ele>
        <time>2015-04-26T10:49:18.000Z</time>
      </trkpt>
      <trkpt lat="47.51692" lon="6.77761">
        <ele>385</ele>
        <time>2015-04-26T10:49:19.000Z</time>
      </trkpt>
      <trkpt lat="47.51694" lon="6.77757">
        <ele>385</ele>
        <time>2015-04-26T10:49:20.000Z</time>
      </trkpt>
      <trkpt lat="47.51695" lon="6.77752">
        <ele>385</ele>
        <time>2015-04-26T10:49:21.000Z</time>
      </trkpt>
      <trkpt lat="47.51697" lon="6.77748">
        <ele>386</ele>
        <time>2015-04-26T10:49:22.000Z</time>
      </trkpt>
      <trkpt lat="47.51698" lon="6.77745">
        <ele>386</ele>
        <time>2015-04-26T10:49:23.000Z</time>
      </trkpt>
      <trkpt lat="47.517" lon="6.77742">
        <ele>387</ele>
        <time>2015-04-26T10:49:24.000Z</time>
      </trkpt>
      <trkpt lat="47.51703" lon="6.77739">
        <ele>387</ele>
        <time>2015-04-26T10:49:25.000Z</time>
      </trkpt>
      <trkpt lat="47.51705" lon="6.77736">
        <ele>387</ele>
        <time>2015-04-26T10:49:26.000Z</time>
      </trkpt>
      <trkpt lat="47.51707" lon="6.77734">
        <ele>387</ele>
        <time>2015-04-26T10:49:27.000Z</time>
      </trkpt>
      <trkpt lat="47.51708" lon="6.77731">
        <ele>387</ele>
        <time>2015-04-26T10:49:28.000Z</time>
      </trkpt>
      <trkpt lat="47.51709" lon="6.77725">
        <ele>387</ele>
        <time>2015-04-26T10:49:30.000Z</time>
      </trkpt>
      <trkpt lat="47.51711" lon="6.77722">
        <ele>387</ele>
        <time>2015-04-26T10:49:31.000Z</time>
      </trkpt>
      <trkpt lat="47.51712" lon="6.77718">
        <ele>387</ele>
        <time>2015-04-26T10:49:32.000Z</time>
      </trkpt>
      <trkpt lat="47.51713" lon="6.77715">
        <ele>388</ele>
        <time>2015-04-26T10:49:33.000Z</time>
      </trkpt>
      <trkpt lat="47.51713" lon="6.77711">
        <ele>388</ele>
        <time>2015-04-26T10:49:34.000Z</time>
      </trkpt>
      <trkpt lat="47.51713" lon="6.77708">
        <ele>388</ele>
        <time>2015-04-26T10:49:35.000Z</time>
      </trkpt>
      <trkpt lat="47.51712" lon="6.77702">
        <ele>388</ele>
        <time>2015-04-26T10:49:37.000Z</time>
      </trkpt>
      <trkpt lat="47.51712" lon="6.77699">
        <ele>388</ele>
        <time>2015-04-26T10:49:38.000Z</time>
      </trkpt>
      <trkpt lat="47.51713" lon="6.77694">
        <ele>388</ele>
        <time>2015-04-26T10:49:40.000Z</time>
      </trkpt>
      <trkpt lat="47.51714" lon="6.77691">
        <ele>388</ele>
        <time>2015-04-26T10:49:41.000Z</time>
      </trkpt>
      <trkpt lat="47.51716" lon="6.77687">
        <ele>388</ele>
        <time>2015-04-26T10:49:43.000Z</time>
      </trkpt>
      <trkpt lat="47.51717" lon="6.77684">
        <ele>388</ele>
        <time>2015-04-26T10:49:44.000Z</time>
      </trkpt>
      <trkpt lat="47.51717" lon="6.77678">
        <ele>388</ele>
        <time>2015-04-26T10:49:46.000Z</time>
      </trkpt>
      <trkpt lat="47.51717" lon="6.77674">
        <ele>388</ele>
        <time>2015-04-26T10:49:47.000Z</time>
      </trkpt>
      <trkpt lat="47.51717" lon="6.7767">
        <ele>388</ele>
        <time>2015-04-26T10:49:48.000Z</time>
      </trkpt>
      <trkpt lat="47.51717" lon="6.77667">
        <ele>388</ele>
        <time>2015-04-26T10:49:49.000Z</time>
      </trkpt>
      <trkpt lat="47.51718" lon="6.77663">
        <ele>390</ele>
        <time>2015-04-26T10:49:50.000Z</time>
      </trkpt>
      <trkpt lat="47.51718" lon="6.77659">
        <ele>390</ele>
        <time>2015-04-26T10:49:51.000Z</time>
      </trkpt>
      <trkpt lat="47.51718" lon="6.77655">
        <ele>390</ele>
        <time>2015-04-26T10:49:52.001Z</time>
      </trkpt>
      <trkpt lat="47.51718" lon="6.77651">
        <ele>390</ele>
        <time>2015-04-26T10:49:53.000Z</time>
      </trkpt>
      <trkpt lat="47.51718" lon="6.77647">
        <ele>390</ele>
        <time>2015-04-26T10:49:54.000Z</time>
      </trkpt>
      <trkpt lat="47.51717" lon="6.77643">
        <ele>390</ele>
        <time>2015-04-26T10:49:55.000Z</time>
      </trkpt>
      <trkpt lat="47.51717" lon="6.77639">
        <ele>390</ele>
        <time>2015-04-26T10:49:56.000Z</time>
      </trkpt>
      <trkpt lat="47.51717" lon="6.77636">
        <ele>390</ele>
        <time>2015-04-26T10:49:57.000Z</time>
      </trkpt>
      <trkpt lat="47.51716" lon="6.77632">
        <ele>390</ele>
        <time>2015-04-26T10:49:58.000Z</time>
      </trkpt>
      <trkpt lat="47.51716" lon="6.77629">
        <ele>390</ele>
        <time>2015-04-26T10:49:59.000Z</time>
      </trkpt>
      <trkpt lat="47.51715" lon="6.77623">
        <ele>390</ele>
        <time>2015-04-26T10:50:01.000Z</time>
      </trkpt>
      <trkpt lat="47.51715" lon="6.7762">
        <ele>390</ele>
        <time>2015-04-26T10:50:02.000Z</time>
      </trkpt>
      <trkpt lat="47.51715" lon="6.77614">
        <ele>390</ele>
        <time>2015-04-26T10:50:04.000Z</time>
      </trkpt>
      <trkpt lat="47.51715" lon="6.77611">
        <ele>390</ele>
        <time>2015-04-26T10:50:05.000Z</time>
      </trkpt>
      <trkpt lat="47.51715" lon="6.77608">
        <ele>390</ele>
        <time>2015-04-26T10:50:06.000Z</time>
      </trkpt>
      <trkpt lat="47.51715" lon="6.77604">
        <ele>390</ele>
        <time>2015-04-26T10:50:07.000Z</time>
      </trkpt>
      <trkpt lat="47.51715" lon="6.776">
        <ele>390</ele>
        <time>2015-04-26T10:50:08.001Z</time>
      </trkpt>
      <trkpt lat="47.51715" lon="6.77597">
        <ele>390</ele>
        <time>2015-04-26T10:50:09.000Z</time>
      </trkpt>
      <trkpt lat="47.51717" lon="6.77592">
        <ele>390</ele>
        <time>2015-04-26T10:50:11.000Z</time>
      </trkpt>
      <trkpt lat="47.51718" lon="6.7759">
        <ele>390</ele>
        <time>2015-04-26T10:50:12.000Z</time>
      </trkpt>
      <trkpt lat="47.51721" lon="6.77587">
        <ele>390</ele>
        <time>2015-04-26T10:50:14.000Z</time>
      </trkpt>
      <trkpt lat="47.51722" lon="6.77586">
        <ele>390</ele>
        <time>2015-04-26T10:50:14.999Z</time>
      </trkpt>
      <trkpt lat="47.51725" lon="6.7758">
        <ele>391</ele>
        <time>2015-04-26T10:50:17.000Z</time>
      </trkpt>
      <trkpt lat="47.51725" lon="6.77576">
        <ele>391</ele>
        <time>2015-04-26T10:50:18.000Z</time>
      </trkpt>
      <trkpt lat="47.51723" lon="6.77571">
        <ele>391</ele>
        <time>2015-04-26T10:50:19.000Z</time>
      </trkpt>
      <trkpt lat="47.51721" lon="6.77566">
        <ele>390</ele>
        <time>2015-04-26T10:50:20.000Z</time>
      </trkpt>
      <trkpt lat="47.51719" lon="6.77562">
        <ele>390</ele>
        <time>2015-04-26T10:50:21.000Z</time>
      </trkpt>
      <trkpt lat="47.51719" lon="6.77557">
        <ele>390</ele>
        <time>2015-04-26T10:50:22.000Z</time>
      </trkpt>
      <trkpt lat="47.5172" lon="6.77551">
        <ele>390</ele>
        <time>2015-04-26T10:50:23.000Z</time>
      </trkpt>
      <trkpt lat="47.5172" lon="6.77546">
        <ele>390</ele>
        <time>2015-04-26T10:50:23.999Z</time>
      </trkpt>
      <trkpt lat="47.51722" lon="6.7754">
        <ele>390</ele>
        <time>2015-04-26T10:50:25.000Z</time>
      </trkpt>
      <trkpt lat="47.51723" lon="6.77535">
        <ele>390</ele>
        <time>2015-04-26T10:50:26.000Z</time>
      </trkpt>
      <trkpt lat="47.51724" lon="6.77529">
        <ele>390</ele>
        <time>2015-04-26T10:50:27.000Z</time>
      </trkpt>
      <trkpt lat="47.51725" lon="6.77524">
        <ele>390</ele>
        <time>2015-04-26T10:50:28.000Z</time>
      </trkpt>
      <trkpt lat="47.51726" lon="6.77519">
        <ele>390</ele>
        <time>2015-04-26T10:50:29.000Z</time>
      </trkpt>
      <trkpt lat="47.51727" lon="6.77515">
        <ele>390</ele>
        <time>2015-04-26T10:50:30.000Z</time>
      </trkpt>
      <trkpt lat="47.51728" lon="6.7751">
        <ele>390</ele>
        <time>2015-04-26T10:50:31.001Z</time>
      </trkpt>
      <trkpt lat="47.51729" lon="6.77505">
        <ele>390</ele>
        <time>2015-04-26T10:50:32.000Z</time>
      </trkpt>
      <trkpt lat="47.51731" lon="6.77498">
        <ele>389</ele>
        <time>2015-04-26T10:50:33.000Z</time>
      </trkpt>
      <trkpt lat="47.51732" lon="6.77493">
        <ele>389</ele>
        <time>2015-04-26T10:50:34.000Z</time>
      </trkpt>
      <trkpt lat="47.51733" lon="6.77487">
        <ele>389</ele>
        <time>2015-04-26T10:50:35.000Z</time>
      </trkpt>
      <trkpt lat="47.51736" lon="6.77484">
        <ele>389</ele>
        <time>2015-04-26T10:50:36.000Z</time>
      </trkpt>
      <trkpt lat="47.5174" lon="6.77482">
        <ele>389</ele>
        <time>2015-04-26T10:50:37.000Z</time>
      </trkpt>
      <trkpt lat="47.51744" lon="6.7748">
        <ele>389</ele>
        <time>2015-04-26T10:50:38.000Z</time>
      </trkpt>
      <trkpt lat="47.51747" lon="6.7748">
        <ele>389</ele>
        <time>2015-04-26T10:50:39.000Z</time>
      </trkpt>
      <trkpt lat="47.51751" lon="6.7748">
        <ele>389</ele>
        <time>2015-04-26T10:50:40.000Z</time>
      </trkpt>
      <trkpt lat="47.51754" lon="6.7748">
        <ele>389</ele>
        <time>2015-04-26T10:50:41.000Z</time>
      </trkpt>
      <trkpt lat="47.51758" lon="6.77479">
        <ele>389</ele>
        <time>2015-04-26T10:50:42.000Z</time>
      </trkpt>
      <trkpt lat="47.51762" lon="6.7748">
        <ele>389</ele>
        <time>2015-04-26T10:50:43.000Z</time>
      </trkpt>
      <trkpt lat="47.51766" lon="6.7748">
        <ele>389</ele>
        <time>2015-04-26T10:50:44.000Z</time>
      </trkpt>
      <trkpt lat="47.5177" lon="6.77481">
        <ele>388</ele>
        <time>2015-04-26T10:50:45.000Z</time>
      </trkpt>
      <trkpt lat="47.51775" lon="6.77482">
        <ele>388</ele>
        <time>2015-04-26T10:50:46.000Z</time>
      </trkpt>
      <trkpt lat="47.51779" lon="6.77483">
        <ele>388</ele>
        <time>2015-04-26T10:50:47.000Z</time>
      </trkpt>
      <trkpt lat="47.51785" lon="6.77485">
        <ele>388</ele>
        <time>2015-04-26T10:50:48.000Z</time>
      </trkpt>
      <trkpt lat="47.51789" lon="6.77487">
        <ele>388</ele>
        <time>2015-04-26T10:50:49.000Z</time>
      </trkpt>
      <trkpt lat="47.51794" lon="6.77488">
        <ele>388</ele>
        <time>2015-04-26T10:50:50.000Z</time>
      </trkpt>
      <trkpt lat="47.51799" lon="6.77491">
        <ele>388</ele>
        <time>2015-04-26T10:50:51.001Z</time>
      </trkpt>
      <trkpt lat="47.51803" lon="6.77494">
        <ele>388</ele>
        <time>2015-04-26T10:50:51.999Z</time>
      </trkpt>
      <trkpt lat="47.51808" lon="6.77493">
        <ele>388</ele>
        <time>2015-04-26T10:50:53.000Z</time>
      </trkpt>
      <trkpt lat="47.51812" lon="6.77491">
        <ele>388</ele>
        <time>2015-04-26T10:50:54.000Z</time>
      </trkpt>
      <trkpt lat="47.51809" lon="6.77486">
        <ele>388</ele>
        <time>2015-04-26T10:50:55.000Z</time>
      </trkpt>
      <trkpt lat="47.51809" lon="6.77481">
        <ele>388</ele>
        <time>2015-04-26T10:50:56.000Z</time>
      </trkpt>
      <trkpt lat="47.51808" lon="6.77477">
        <ele>388</ele>
        <time>2015-04-26T10:50:57.001Z</time>
      </trkpt>
      <trkpt lat="47.51806" lon="6.77473">
        <ele>388</ele>
        <time>2015-04-26T10:50:59.000Z</time>
      </trkpt>
      <trkpt lat="47.51805" lon="6.7747">
        <ele>388</ele>
        <time>2015-04-26T10:51:00.000Z</time>
      </trkpt>
      <trkpt lat="47.51802" lon="6.77472">
        <ele>388</ele>
        <time>2015-04-26T10:51:58.000Z</time>
      </trkpt>
      <trkpt lat="47.51801" lon="6.77472">
        <ele>388</ele>
        <time>2015-04-26T10:51:59.000Z</time>
      </trkpt>
      <trkpt lat="47.51797" lon="6.77469">
        <ele>388</ele>
        <time>2015-04-26T10:52:05.000Z</time>
      </trkpt>
      <trkpt lat="47.51797" lon="6.77468">
        <ele>388</ele>
        <time>2015-04-26T10:52:06.000Z</time>
      </trkpt>
      <trkpt lat="47.51796" lon="6.77466">
        <ele>388</ele>
        <time>2015-04-26T11:07:27.000Z</time>
      </trkpt>
    </trkseg>
  </trk>
</gpx>